<?xml version="1.0" encoding="UTF-8" standalone="no" ?>
<gpx xmlns="http://www.topografix.com/GPX/1/1" xmlns:xsi="http://www.w3.org/2001/XMLSchema-instance" xsi:schemaLocation="http://www.topografix.com/GPX/1/1 http://www.topografix.com/GPX/1/1/gpx.xsd" version="1.1" creator="VisuGPX - https://www.visugpx.com">
  <metadata>
    <name>CDS 2016 jour 2</name>
    <desc><![CDATA[Jour 2 du raid des chemins du Soleil]]></desc>
  </metadata>
  <trk>
    <name><![CDATA[CDS 2016]]></name>
    <trkseg>
      <trkpt lat="44.31331" lon="5.69654">
        <ele>698.40002441406</ele>
        <time>2016-05-07T06:20:52Z</time>
      </trkpt>
      <trkpt lat="44.31329" lon="5.69684">
        <ele>697.79998779297</ele>
        <time>2016-05-07T06:20:56Z</time>
      </trkpt>
      <trkpt lat="44.31328" lon="5.69699">
        <ele>697.79998779297</ele>
        <time>2016-05-07T06:20:58Z</time>
      </trkpt>
      <trkpt lat="44.31325" lon="5.69722">
        <ele>697.79998779297</ele>
        <time>2016-05-07T06:21:01Z</time>
      </trkpt>
      <trkpt lat="44.31322" lon="5.69775">
        <ele>697.79998779297</ele>
        <time>2016-05-07T06:21:08Z</time>
      </trkpt>
      <trkpt lat="44.31328" lon="5.69829">
        <ele>697.79998779297</ele>
        <time>2016-05-07T06:21:15Z</time>
      </trkpt>
      <trkpt lat="44.3134" lon="5.69878">
        <ele>697.79998779297</ele>
        <time>2016-05-07T06:21:22Z</time>
      </trkpt>
      <trkpt lat="44.31352" lon="5.69924">
        <ele>697.79998779297</ele>
        <time>2016-05-07T06:21:28Z</time>
      </trkpt>
      <trkpt lat="44.3136" lon="5.69961">
        <ele>697.79998779297</ele>
        <time>2016-05-07T06:21:33Z</time>
      </trkpt>
      <trkpt lat="44.31363" lon="5.69983">
        <ele>697.79998779297</ele>
        <time>2016-05-07T06:21:36Z</time>
      </trkpt>
      <trkpt lat="44.31369" lon="5.70017">
        <ele>698.20001220703</ele>
        <time>2016-05-07T06:21:41Z</time>
      </trkpt>
      <trkpt lat="44.31371" lon="5.70024">
        <ele>698.59997558594</ele>
        <time>2016-05-07T06:21:42Z</time>
      </trkpt>
      <trkpt lat="44.31372" lon="5.70031">
        <ele>699</ele>
        <time>2016-05-07T06:21:43Z</time>
      </trkpt>
      <trkpt lat="44.31374" lon="5.70037">
        <ele>699.40002441406</ele>
        <time>2016-05-07T06:21:44Z</time>
      </trkpt>
      <trkpt lat="44.31376" lon="5.70044">
        <ele>699.79998779297</ele>
        <time>2016-05-07T06:21:45Z</time>
      </trkpt>
      <trkpt lat="44.31395" lon="5.70107">
        <ele>699.79998779297</ele>
        <time>2016-05-07T06:21:54Z</time>
      </trkpt>
      <trkpt lat="44.31414" lon="5.70164">
        <ele>699.40002441406</ele>
        <time>2016-05-07T06:22:01Z</time>
      </trkpt>
      <trkpt lat="44.31417" lon="5.70173">
        <ele>699</ele>
        <time>2016-05-07T06:22:02Z</time>
      </trkpt>
      <trkpt lat="44.31419" lon="5.70182">
        <ele>698.59997558594</ele>
        <time>2016-05-07T06:22:03Z</time>
      </trkpt>
      <trkpt lat="44.31419" lon="5.70191">
        <ele>698.20001220703</ele>
        <time>2016-05-07T06:22:04Z</time>
      </trkpt>
      <trkpt lat="44.31421" lon="5.70201">
        <ele>697.79998779297</ele>
        <time>2016-05-07T06:22:05Z</time>
      </trkpt>
      <trkpt lat="44.31426" lon="5.70241">
        <ele>697.40002441406</ele>
        <time>2016-05-07T06:22:09Z</time>
      </trkpt>
      <trkpt lat="44.31426" lon="5.70251">
        <ele>697</ele>
        <time>2016-05-07T06:22:10Z</time>
      </trkpt>
      <trkpt lat="44.31427" lon="5.70262">
        <ele>696.59997558594</ele>
        <time>2016-05-07T06:22:11Z</time>
      </trkpt>
      <trkpt lat="44.31427" lon="5.70273">
        <ele>696.20001220703</ele>
        <time>2016-05-07T06:22:12Z</time>
      </trkpt>
      <trkpt lat="44.31428" lon="5.70284">
        <ele>695.79998779297</ele>
        <time>2016-05-07T06:22:13Z</time>
      </trkpt>
      <trkpt lat="44.31434" lon="5.70328">
        <ele>695.79998779297</ele>
        <time>2016-05-07T06:22:17Z</time>
      </trkpt>
      <trkpt lat="44.31437" lon="5.70339">
        <ele>695.20001220703</ele>
        <time>2016-05-07T06:22:18Z</time>
      </trkpt>
      <trkpt lat="44.31439" lon="5.7035">
        <ele>694.79998779297</ele>
        <time>2016-05-07T06:22:19Z</time>
      </trkpt>
      <trkpt lat="44.31443" lon="5.70361">
        <ele>694.40002441406</ele>
        <time>2016-05-07T06:22:20Z</time>
      </trkpt>
      <trkpt lat="44.31446" lon="5.70372">
        <ele>694</ele>
        <time>2016-05-07T06:22:21Z</time>
      </trkpt>
      <trkpt lat="44.3145" lon="5.70382">
        <ele>693.40002441406</ele>
        <time>2016-05-07T06:22:22Z</time>
      </trkpt>
      <trkpt lat="44.31459" lon="5.70402">
        <ele>693</ele>
        <time>2016-05-07T06:22:24Z</time>
      </trkpt>
      <trkpt lat="44.31464" lon="5.70411">
        <ele>692.59997558594</ele>
        <time>2016-05-07T06:22:25Z</time>
      </trkpt>
      <trkpt lat="44.31469" lon="5.70421">
        <ele>692.20001220703</ele>
        <time>2016-05-07T06:22:26Z</time>
      </trkpt>
      <trkpt lat="44.31474" lon="5.70431">
        <ele>691.79998779297</ele>
        <time>2016-05-07T06:22:27Z</time>
      </trkpt>
      <trkpt lat="44.31479" lon="5.7044">
        <ele>691.40002441406</ele>
        <time>2016-05-07T06:22:28Z</time>
      </trkpt>
      <trkpt lat="44.31487" lon="5.70462">
        <ele>691.40002441406</ele>
        <time>2016-05-07T06:22:30Z</time>
      </trkpt>
      <trkpt lat="44.31491" lon="5.70484">
        <ele>691.40002441406</ele>
        <time>2016-05-07T06:22:32Z</time>
      </trkpt>
      <trkpt lat="44.31504" lon="5.70548">
        <ele>691.40002441406</ele>
        <time>2016-05-07T06:22:38Z</time>
      </trkpt>
      <trkpt lat="44.31507" lon="5.70558">
        <ele>691.40002441406</ele>
        <time>2016-05-07T06:22:39Z</time>
      </trkpt>
      <trkpt lat="44.31519" lon="5.70585">
        <ele>691</ele>
        <time>2016-05-07T06:22:42Z</time>
      </trkpt>
      <trkpt lat="44.31523" lon="5.70593">
        <ele>690.59997558594</ele>
        <time>2016-05-07T06:22:43Z</time>
      </trkpt>
      <trkpt lat="44.31527" lon="5.70601">
        <ele>690</ele>
        <time>2016-05-07T06:22:44Z</time>
      </trkpt>
      <trkpt lat="44.31531" lon="5.7061">
        <ele>689.59997558594</ele>
        <time>2016-05-07T06:22:45Z</time>
      </trkpt>
      <trkpt lat="44.31536" lon="5.70618">
        <ele>689.20001220703</ele>
        <time>2016-05-07T06:22:46Z</time>
      </trkpt>
      <trkpt lat="44.31548" lon="5.70645">
        <ele>688.79998779297</ele>
        <time>2016-05-07T06:22:49Z</time>
      </trkpt>
      <trkpt lat="44.31553" lon="5.70656">
        <ele>688.40002441406</ele>
        <time>2016-05-07T06:22:50Z</time>
      </trkpt>
      <trkpt lat="44.31556" lon="5.70667">
        <ele>688</ele>
        <time>2016-05-07T06:22:51Z</time>
      </trkpt>
      <trkpt lat="44.31559" lon="5.70677">
        <ele>687.59997558594</ele>
        <time>2016-05-07T06:22:52Z</time>
      </trkpt>
      <trkpt lat="44.31561" lon="5.70689">
        <ele>687</ele>
        <time>2016-05-07T06:22:53Z</time>
      </trkpt>
      <trkpt lat="44.31562" lon="5.707">
        <ele>687</ele>
        <time>2016-05-07T06:22:54Z</time>
      </trkpt>
      <trkpt lat="44.31564" lon="5.70724">
        <ele>686.59997558594</ele>
        <time>2016-05-07T06:22:56Z</time>
      </trkpt>
      <trkpt lat="44.31565" lon="5.70736">
        <ele>686.20001220703</ele>
        <time>2016-05-07T06:22:57Z</time>
      </trkpt>
      <trkpt lat="44.31565" lon="5.70748">
        <ele>685.79998779297</ele>
        <time>2016-05-07T06:22:58Z</time>
      </trkpt>
      <trkpt lat="44.31565" lon="5.7076">
        <ele>685.40002441406</ele>
        <time>2016-05-07T06:22:59Z</time>
      </trkpt>
      <trkpt lat="44.31566" lon="5.70773">
        <ele>684.79998779297</ele>
        <time>2016-05-07T06:23:00Z</time>
      </trkpt>
      <trkpt lat="44.31565" lon="5.70785">
        <ele>684.40002441406</ele>
        <time>2016-05-07T06:23:01Z</time>
      </trkpt>
      <trkpt lat="44.31565" lon="5.70798">
        <ele>683.79998779297</ele>
        <time>2016-05-07T06:23:02Z</time>
      </trkpt>
      <trkpt lat="44.31564" lon="5.7081">
        <ele>683.40002441406</ele>
        <time>2016-05-07T06:23:03Z</time>
      </trkpt>
      <trkpt lat="44.31562" lon="5.70823">
        <ele>682.79998779297</ele>
        <time>2016-05-07T06:23:04Z</time>
      </trkpt>
      <trkpt lat="44.31561" lon="5.70835">
        <ele>682.40002441406</ele>
        <time>2016-05-07T06:23:05Z</time>
      </trkpt>
      <trkpt lat="44.31559" lon="5.70847">
        <ele>681.79998779297</ele>
        <time>2016-05-07T06:23:06Z</time>
      </trkpt>
      <trkpt lat="44.31557" lon="5.70859">
        <ele>681.40002441406</ele>
        <time>2016-05-07T06:23:07Z</time>
      </trkpt>
      <trkpt lat="44.31556" lon="5.70871">
        <ele>681</ele>
        <time>2016-05-07T06:23:08Z</time>
      </trkpt>
      <trkpt lat="44.31553" lon="5.70882">
        <ele>680.40002441406</ele>
        <time>2016-05-07T06:23:09Z</time>
      </trkpt>
      <trkpt lat="44.31546" lon="5.70916">
        <ele>680.40002441406</ele>
        <time>2016-05-07T06:23:12Z</time>
      </trkpt>
      <trkpt lat="44.31533" lon="5.70988">
        <ele>680.40002441406</ele>
        <time>2016-05-07T06:23:19Z</time>
      </trkpt>
      <trkpt lat="44.31533" lon="5.70998">
        <ele>680</ele>
        <time>2016-05-07T06:23:20Z</time>
      </trkpt>
      <trkpt lat="44.31532" lon="5.71008">
        <ele>679.59997558594</ele>
        <time>2016-05-07T06:23:21Z</time>
      </trkpt>
      <trkpt lat="44.31532" lon="5.71018">
        <ele>679.20001220703</ele>
        <time>2016-05-07T06:23:22Z</time>
      </trkpt>
      <trkpt lat="44.31533" lon="5.71029">
        <ele>678.59997558594</ele>
        <time>2016-05-07T06:23:23Z</time>
      </trkpt>
      <trkpt lat="44.31533" lon="5.71039">
        <ele>678.20001220703</ele>
        <time>2016-05-07T06:23:24Z</time>
      </trkpt>
      <trkpt lat="44.31539" lon="5.71069">
        <ele>678.20001220703</ele>
        <time>2016-05-07T06:23:27Z</time>
      </trkpt>
      <trkpt lat="44.31542" lon="5.71078">
        <ele>678.20001220703</ele>
        <time>2016-05-07T06:23:28Z</time>
      </trkpt>
      <trkpt lat="44.31548" lon="5.71097">
        <ele>678.20001220703</ele>
        <time>2016-05-07T06:23:30Z</time>
      </trkpt>
      <trkpt lat="44.31551" lon="5.71107">
        <ele>677.79998779297</ele>
        <time>2016-05-07T06:23:31Z</time>
      </trkpt>
      <trkpt lat="44.31554" lon="5.71117">
        <ele>677.40002441406</ele>
        <time>2016-05-07T06:23:32Z</time>
      </trkpt>
      <trkpt lat="44.31557" lon="5.71127">
        <ele>677</ele>
        <time>2016-05-07T06:23:33Z</time>
      </trkpt>
      <trkpt lat="44.31561" lon="5.71137">
        <ele>676.59997558594</ele>
        <time>2016-05-07T06:23:34Z</time>
      </trkpt>
      <trkpt lat="44.31564" lon="5.71148">
        <ele>676</ele>
        <time>2016-05-07T06:23:35Z</time>
      </trkpt>
      <trkpt lat="44.31566" lon="5.71158">
        <ele>676</ele>
        <time>2016-05-07T06:23:36Z</time>
      </trkpt>
      <trkpt lat="44.31574" lon="5.712">
        <ele>675.59997558594</ele>
        <time>2016-05-07T06:23:40Z</time>
      </trkpt>
      <trkpt lat="44.31576" lon="5.71209">
        <ele>675.20001220703</ele>
        <time>2016-05-07T06:23:41Z</time>
      </trkpt>
      <trkpt lat="44.31577" lon="5.71218">
        <ele>674.79998779297</ele>
        <time>2016-05-07T06:23:42Z</time>
      </trkpt>
      <trkpt lat="44.31577" lon="5.71225">
        <ele>674.40002441406</ele>
        <time>2016-05-07T06:23:43Z</time>
      </trkpt>
      <trkpt lat="44.31575" lon="5.71231">
        <ele>674</ele>
        <time>2016-05-07T06:23:44Z</time>
      </trkpt>
      <trkpt lat="44.3157" lon="5.71234">
        <ele>674</ele>
        <time>2016-05-07T06:23:45Z</time>
      </trkpt>
      <trkpt lat="44.31543" lon="5.71252">
        <ele>673.59997558594</ele>
        <time>2016-05-07T06:23:49Z</time>
      </trkpt>
      <trkpt lat="44.31535" lon="5.71257">
        <ele>673.20001220703</ele>
        <time>2016-05-07T06:23:50Z</time>
      </trkpt>
      <trkpt lat="44.31528" lon="5.71262">
        <ele>672.79998779297</ele>
        <time>2016-05-07T06:23:51Z</time>
      </trkpt>
      <trkpt lat="44.3152" lon="5.71268">
        <ele>672.40002441406</ele>
        <time>2016-05-07T06:23:52Z</time>
      </trkpt>
      <trkpt lat="44.31512" lon="5.71274">
        <ele>671.79998779297</ele>
        <time>2016-05-07T06:23:53Z</time>
      </trkpt>
      <trkpt lat="44.31504" lon="5.71281">
        <ele>671.40002441406</ele>
        <time>2016-05-07T06:23:54Z</time>
      </trkpt>
      <trkpt lat="44.31496" lon="5.71288">
        <ele>670.79998779297</ele>
        <time>2016-05-07T06:23:55Z</time>
      </trkpt>
      <trkpt lat="44.31489" lon="5.71297">
        <ele>670.20001220703</ele>
        <time>2016-05-07T06:23:56Z</time>
      </trkpt>
      <trkpt lat="44.31483" lon="5.71306">
        <ele>669.79998779297</ele>
        <time>2016-05-07T06:23:57Z</time>
      </trkpt>
      <trkpt lat="44.31479" lon="5.71315">
        <ele>669.40002441406</ele>
        <time>2016-05-07T06:23:58Z</time>
      </trkpt>
      <trkpt lat="44.31474" lon="5.71326">
        <ele>669</ele>
        <time>2016-05-07T06:23:59Z</time>
      </trkpt>
      <trkpt lat="44.31469" lon="5.71336">
        <ele>668.59997558594</ele>
        <time>2016-05-07T06:24:00Z</time>
      </trkpt>
      <trkpt lat="44.31463" lon="5.71345">
        <ele>668.20001220703</ele>
        <time>2016-05-07T06:24:01Z</time>
      </trkpt>
      <trkpt lat="44.31459" lon="5.71354">
        <ele>667.79998779297</ele>
        <time>2016-05-07T06:24:02Z</time>
      </trkpt>
      <trkpt lat="44.31443" lon="5.71378">
        <ele>667.79998779297</ele>
        <time>2016-05-07T06:24:05Z</time>
      </trkpt>
      <trkpt lat="44.31438" lon="5.71386">
        <ele>667.79998779297</ele>
        <time>2016-05-07T06:24:06Z</time>
      </trkpt>
      <trkpt lat="44.31436" lon="5.71395">
        <ele>667.79998779297</ele>
        <time>2016-05-07T06:24:07Z</time>
      </trkpt>
      <trkpt lat="44.31435" lon="5.71405">
        <ele>667.79998779297</ele>
        <time>2016-05-07T06:24:08Z</time>
      </trkpt>
      <trkpt lat="44.31435" lon="5.71414">
        <ele>667.20001220703</ele>
        <time>2016-05-07T06:24:09Z</time>
      </trkpt>
      <trkpt lat="44.31435" lon="5.71424">
        <ele>666.79998779297</ele>
        <time>2016-05-07T06:24:10Z</time>
      </trkpt>
      <trkpt lat="44.31435" lon="5.71433">
        <ele>666.40002441406</ele>
        <time>2016-05-07T06:24:11Z</time>
      </trkpt>
      <trkpt lat="44.31433" lon="5.71443">
        <ele>666</ele>
        <time>2016-05-07T06:24:12Z</time>
      </trkpt>
      <trkpt lat="44.31433" lon="5.71452">
        <ele>665.59997558594</ele>
        <time>2016-05-07T06:24:13Z</time>
      </trkpt>
      <trkpt lat="44.31432" lon="5.71462">
        <ele>665.59997558594</ele>
        <time>2016-05-07T06:24:14Z</time>
      </trkpt>
      <trkpt lat="44.31431" lon="5.71523">
        <ele>665.59997558594</ele>
        <time>2016-05-07T06:24:21Z</time>
      </trkpt>
      <trkpt lat="44.31429" lon="5.71549">
        <ele>665.59997558594</ele>
        <time>2016-05-07T06:24:24Z</time>
      </trkpt>
      <trkpt lat="44.31425" lon="5.71573">
        <ele>665.59997558594</ele>
        <time>2016-05-07T06:24:27Z</time>
      </trkpt>
      <trkpt lat="44.31423" lon="5.7158">
        <ele>665.59997558594</ele>
        <time>2016-05-07T06:24:28Z</time>
      </trkpt>
      <trkpt lat="44.31412" lon="5.71608">
        <ele>665.59997558594</ele>
        <time>2016-05-07T06:24:32Z</time>
      </trkpt>
      <trkpt lat="44.31409" lon="5.71615">
        <ele>665.59997558594</ele>
        <time>2016-05-07T06:24:33Z</time>
      </trkpt>
      <trkpt lat="44.31406" lon="5.71621">
        <ele>666</ele>
        <time>2016-05-07T06:24:34Z</time>
      </trkpt>
      <trkpt lat="44.31403" lon="5.71627">
        <ele>666.40002441406</ele>
        <time>2016-05-07T06:24:35Z</time>
      </trkpt>
      <trkpt lat="44.314" lon="5.71633">
        <ele>666.79998779297</ele>
        <time>2016-05-07T06:24:36Z</time>
      </trkpt>
      <trkpt lat="44.31398" lon="5.7164">
        <ele>667.20001220703</ele>
        <time>2016-05-07T06:24:37Z</time>
      </trkpt>
      <trkpt lat="44.31395" lon="5.71646">
        <ele>667.59997558594</ele>
        <time>2016-05-07T06:24:38Z</time>
      </trkpt>
      <trkpt lat="44.31392" lon="5.71651">
        <ele>667.59997558594</ele>
        <time>2016-05-07T06:24:39Z</time>
      </trkpt>
      <trkpt lat="44.31377" lon="5.71688">
        <ele>667.59997558594</ele>
        <time>2016-05-07T06:24:46Z</time>
      </trkpt>
      <trkpt lat="44.31364" lon="5.71729">
        <ele>668</ele>
        <time>2016-05-07T06:24:54Z</time>
      </trkpt>
      <trkpt lat="44.31363" lon="5.71734">
        <ele>668.59997558594</ele>
        <time>2016-05-07T06:24:55Z</time>
      </trkpt>
      <trkpt lat="44.31361" lon="5.71738">
        <ele>669</ele>
        <time>2016-05-07T06:24:56Z</time>
      </trkpt>
      <trkpt lat="44.31359" lon="5.71743">
        <ele>669.40002441406</ele>
        <time>2016-05-07T06:24:57Z</time>
      </trkpt>
      <trkpt lat="44.31358" lon="5.71747">
        <ele>669.79998779297</ele>
        <time>2016-05-07T06:24:58Z</time>
      </trkpt>
      <trkpt lat="44.31346" lon="5.71785">
        <ele>670.20001220703</ele>
        <time>2016-05-07T06:25:06Z</time>
      </trkpt>
      <trkpt lat="44.31345" lon="5.7179">
        <ele>670.59997558594</ele>
        <time>2016-05-07T06:25:07Z</time>
      </trkpt>
      <trkpt lat="44.31345" lon="5.71795">
        <ele>671.20001220703</ele>
        <time>2016-05-07T06:25:08Z</time>
      </trkpt>
      <trkpt lat="44.31345" lon="5.718">
        <ele>671.59997558594</ele>
        <time>2016-05-07T06:25:09Z</time>
      </trkpt>
      <trkpt lat="44.31344" lon="5.71805">
        <ele>672</ele>
        <time>2016-05-07T06:25:10Z</time>
      </trkpt>
      <trkpt lat="44.31343" lon="5.71815">
        <ele>672</ele>
        <time>2016-05-07T06:25:12Z</time>
      </trkpt>
      <trkpt lat="44.3134" lon="5.71846">
        <ele>672</ele>
        <time>2016-05-07T06:25:18Z</time>
      </trkpt>
      <trkpt lat="44.31336" lon="5.71862">
        <ele>672</ele>
        <time>2016-05-07T06:25:21Z</time>
      </trkpt>
      <trkpt lat="44.31328" lon="5.71884">
        <ele>672.40002441406</ele>
        <time>2016-05-07T06:25:25Z</time>
      </trkpt>
      <trkpt lat="44.31326" lon="5.71889">
        <ele>672.79998779297</ele>
        <time>2016-05-07T06:25:26Z</time>
      </trkpt>
      <trkpt lat="44.31324" lon="5.71895">
        <ele>673.20001220703</ele>
        <time>2016-05-07T06:25:27Z</time>
      </trkpt>
      <trkpt lat="44.31322" lon="5.719">
        <ele>673.59997558594</ele>
        <time>2016-05-07T06:25:28Z</time>
      </trkpt>
      <trkpt lat="44.31321" lon="5.71906">
        <ele>674</ele>
        <time>2016-05-07T06:25:29Z</time>
      </trkpt>
      <trkpt lat="44.31312" lon="5.71935">
        <ele>674</ele>
        <time>2016-05-07T06:25:34Z</time>
      </trkpt>
      <trkpt lat="44.31295" lon="5.71983">
        <ele>674</ele>
        <time>2016-05-07T06:25:42Z</time>
      </trkpt>
      <trkpt lat="44.31279" lon="5.72042">
        <ele>674</ele>
        <time>2016-05-07T06:25:51Z</time>
      </trkpt>
      <trkpt lat="44.31278" lon="5.72048">
        <ele>674</ele>
        <time>2016-05-07T06:25:52Z</time>
      </trkpt>
      <trkpt lat="44.31281" lon="5.72063">
        <ele>674</ele>
        <time>2016-05-07T06:25:54Z</time>
      </trkpt>
      <trkpt lat="44.31291" lon="5.72083">
        <ele>674</ele>
        <time>2016-05-07T06:25:57Z</time>
      </trkpt>
      <trkpt lat="44.31301" lon="5.72118">
        <ele>674</ele>
        <time>2016-05-07T06:26:02Z</time>
      </trkpt>
      <trkpt lat="44.31301" lon="5.72125">
        <ele>674</ele>
        <time>2016-05-07T06:26:03Z</time>
      </trkpt>
      <trkpt lat="44.313" lon="5.72139">
        <ele>674</ele>
        <time>2016-05-07T06:26:05Z</time>
      </trkpt>
      <trkpt lat="44.31296" lon="5.72154">
        <ele>674</ele>
        <time>2016-05-07T06:26:08Z</time>
      </trkpt>
      <trkpt lat="44.31293" lon="5.72163">
        <ele>674</ele>
        <time>2016-05-07T06:26:10Z</time>
      </trkpt>
      <trkpt lat="44.31286" lon="5.72176">
        <ele>674.40002441406</ele>
        <time>2016-05-07T06:26:14Z</time>
      </trkpt>
      <trkpt lat="44.31284" lon="5.72179">
        <ele>674.79998779297</ele>
        <time>2016-05-07T06:26:15Z</time>
      </trkpt>
      <trkpt lat="44.31282" lon="5.72182">
        <ele>675.20001220703</ele>
        <time>2016-05-07T06:26:16Z</time>
      </trkpt>
      <trkpt lat="44.3128" lon="5.72184">
        <ele>675.59997558594</ele>
        <time>2016-05-07T06:26:17Z</time>
      </trkpt>
      <trkpt lat="44.31278" lon="5.72187">
        <ele>676</ele>
        <time>2016-05-07T06:26:18Z</time>
      </trkpt>
      <trkpt lat="44.31268" lon="5.72199">
        <ele>676.40002441406</ele>
        <time>2016-05-07T06:26:23Z</time>
      </trkpt>
      <trkpt lat="44.31267" lon="5.72202">
        <ele>677</ele>
        <time>2016-05-07T06:26:24Z</time>
      </trkpt>
      <trkpt lat="44.31264" lon="5.72205">
        <ele>677.40002441406</ele>
        <time>2016-05-07T06:26:25Z</time>
      </trkpt>
      <trkpt lat="44.31262" lon="5.72208">
        <ele>677.79998779297</ele>
        <time>2016-05-07T06:26:26Z</time>
      </trkpt>
      <trkpt lat="44.31259" lon="5.72211">
        <ele>678.20001220703</ele>
        <time>2016-05-07T06:26:27Z</time>
      </trkpt>
      <trkpt lat="44.31246" lon="5.72224">
        <ele>678.20001220703</ele>
        <time>2016-05-07T06:26:32Z</time>
      </trkpt>
      <trkpt lat="44.31238" lon="5.72233">
        <ele>678.59997558594</ele>
        <time>2016-05-07T06:26:35Z</time>
      </trkpt>
      <trkpt lat="44.31235" lon="5.72236">
        <ele>679</ele>
        <time>2016-05-07T06:26:36Z</time>
      </trkpt>
      <trkpt lat="44.31233" lon="5.72238">
        <ele>679.40002441406</ele>
        <time>2016-05-07T06:26:37Z</time>
      </trkpt>
      <trkpt lat="44.31231" lon="5.72241">
        <ele>679.79998779297</ele>
        <time>2016-05-07T06:26:38Z</time>
      </trkpt>
      <trkpt lat="44.31228" lon="5.72243">
        <ele>680.20001220703</ele>
        <time>2016-05-07T06:26:39Z</time>
      </trkpt>
      <trkpt lat="44.31221" lon="5.72251">
        <ele>680.20001220703</ele>
        <time>2016-05-07T06:26:42Z</time>
      </trkpt>
      <trkpt lat="44.31207" lon="5.72268">
        <ele>680.59997558594</ele>
        <time>2016-05-07T06:26:48Z</time>
      </trkpt>
      <trkpt lat="44.31204" lon="5.72271">
        <ele>681</ele>
        <time>2016-05-07T06:26:49Z</time>
      </trkpt>
      <trkpt lat="44.31201" lon="5.72274">
        <ele>681.40002441406</ele>
        <time>2016-05-07T06:26:50Z</time>
      </trkpt>
      <trkpt lat="44.31199" lon="5.72276">
        <ele>681.79998779297</ele>
        <time>2016-05-07T06:26:51Z</time>
      </trkpt>
      <trkpt lat="44.31196" lon="5.72279">
        <ele>682.20001220703</ele>
        <time>2016-05-07T06:26:52Z</time>
      </trkpt>
      <trkpt lat="44.31178" lon="5.723">
        <ele>682.20001220703</ele>
        <time>2016-05-07T06:26:59Z</time>
      </trkpt>
      <trkpt lat="44.31171" lon="5.72314">
        <ele>682.79998779297</ele>
        <time>2016-05-07T06:27:03Z</time>
      </trkpt>
      <trkpt lat="44.3117" lon="5.72318">
        <ele>683.20001220703</ele>
        <time>2016-05-07T06:27:04Z</time>
      </trkpt>
      <trkpt lat="44.31168" lon="5.72322">
        <ele>683.59997558594</ele>
        <time>2016-05-07T06:27:05Z</time>
      </trkpt>
      <trkpt lat="44.31167" lon="5.72326">
        <ele>684</ele>
        <time>2016-05-07T06:27:06Z</time>
      </trkpt>
      <trkpt lat="44.31165" lon="5.72331">
        <ele>684.40002441406</ele>
        <time>2016-05-07T06:27:07Z</time>
      </trkpt>
      <trkpt lat="44.31153" lon="5.72363">
        <ele>684.40002441406</ele>
        <time>2016-05-07T06:27:15Z</time>
      </trkpt>
      <trkpt lat="44.31142" lon="5.72397">
        <ele>684.40002441406</ele>
        <time>2016-05-07T06:27:23Z</time>
      </trkpt>
      <trkpt lat="44.31132" lon="5.72405">
        <ele>684.79998779297</ele>
        <time>2016-05-07T06:27:27Z</time>
      </trkpt>
      <trkpt lat="44.31129" lon="5.72406">
        <ele>685.20001220703</ele>
        <time>2016-05-07T06:27:28Z</time>
      </trkpt>
      <trkpt lat="44.31125" lon="5.72405">
        <ele>685.59997558594</ele>
        <time>2016-05-07T06:27:29Z</time>
      </trkpt>
      <trkpt lat="44.31122" lon="5.72405">
        <ele>686</ele>
        <time>2016-05-07T06:27:30Z</time>
      </trkpt>
      <trkpt lat="44.31118" lon="5.72405">
        <ele>686.40002441406</ele>
        <time>2016-05-07T06:27:31Z</time>
      </trkpt>
      <trkpt lat="44.31108" lon="5.72403">
        <ele>686.40002441406</ele>
        <time>2016-05-07T06:27:34Z</time>
      </trkpt>
      <trkpt lat="44.31083" lon="5.72399">
        <ele>687</ele>
        <time>2016-05-07T06:27:42Z</time>
      </trkpt>
      <trkpt lat="44.3108" lon="5.72399">
        <ele>687.40002441406</ele>
        <time>2016-05-07T06:27:43Z</time>
      </trkpt>
      <trkpt lat="44.31077" lon="5.72398">
        <ele>687.79998779297</ele>
        <time>2016-05-07T06:27:44Z</time>
      </trkpt>
      <trkpt lat="44.31073" lon="5.72398">
        <ele>688.20001220703</ele>
        <time>2016-05-07T06:27:45Z</time>
      </trkpt>
      <trkpt lat="44.3107" lon="5.72397">
        <ele>688.59997558594</ele>
        <time>2016-05-07T06:27:46Z</time>
      </trkpt>
      <trkpt lat="44.31047" lon="5.72393">
        <ele>689</ele>
        <time>2016-05-07T06:27:53Z</time>
      </trkpt>
      <trkpt lat="44.31044" lon="5.72392">
        <ele>689.59997558594</ele>
        <time>2016-05-07T06:27:54Z</time>
      </trkpt>
      <trkpt lat="44.31041" lon="5.72392">
        <ele>690</ele>
        <time>2016-05-07T06:27:55Z</time>
      </trkpt>
      <trkpt lat="44.31038" lon="5.72391">
        <ele>690.40002441406</ele>
        <time>2016-05-07T06:27:56Z</time>
      </trkpt>
      <trkpt lat="44.31035" lon="5.72391">
        <ele>690.79998779297</ele>
        <time>2016-05-07T06:27:57Z</time>
      </trkpt>
      <trkpt lat="44.31021" lon="5.72389">
        <ele>690.79998779297</ele>
        <time>2016-05-07T06:28:01Z</time>
      </trkpt>
      <trkpt lat="44.31006" lon="5.72385">
        <ele>691.20001220703</ele>
        <time>2016-05-07T06:28:06Z</time>
      </trkpt>
      <trkpt lat="44.31002" lon="5.72384">
        <ele>691.59997558594</ele>
        <time>2016-05-07T06:28:07Z</time>
      </trkpt>
      <trkpt lat="44.30999" lon="5.72384">
        <ele>692</ele>
        <time>2016-05-07T06:28:08Z</time>
      </trkpt>
      <trkpt lat="44.30996" lon="5.72383">
        <ele>692.40002441406</ele>
        <time>2016-05-07T06:28:09Z</time>
      </trkpt>
      <trkpt lat="44.30993" lon="5.72382">
        <ele>692.79998779297</ele>
        <time>2016-05-07T06:28:10Z</time>
      </trkpt>
      <trkpt lat="44.30979" lon="5.72378">
        <ele>692.79998779297</ele>
        <time>2016-05-07T06:28:15Z</time>
      </trkpt>
      <trkpt lat="44.30961" lon="5.72375">
        <ele>693.20001220703</ele>
        <time>2016-05-07T06:28:21Z</time>
      </trkpt>
      <trkpt lat="44.30958" lon="5.72374">
        <ele>693.59997558594</ele>
        <time>2016-05-07T06:28:22Z</time>
      </trkpt>
      <trkpt lat="44.30955" lon="5.72374">
        <ele>694</ele>
        <time>2016-05-07T06:28:23Z</time>
      </trkpt>
      <trkpt lat="44.30952" lon="5.72374">
        <ele>694.59997558594</ele>
        <time>2016-05-07T06:28:24Z</time>
      </trkpt>
      <trkpt lat="44.30949" lon="5.72373">
        <ele>695</ele>
        <time>2016-05-07T06:28:25Z</time>
      </trkpt>
      <trkpt lat="44.30934" lon="5.72372">
        <ele>695</ele>
        <time>2016-05-07T06:28:31Z</time>
      </trkpt>
      <trkpt lat="44.30928" lon="5.72371">
        <ele>695.40002441406</ele>
        <time>2016-05-07T06:28:33Z</time>
      </trkpt>
      <trkpt lat="44.30926" lon="5.72371">
        <ele>695.79998779297</ele>
        <time>2016-05-07T06:28:34Z</time>
      </trkpt>
      <trkpt lat="44.30923" lon="5.72371">
        <ele>696.20001220703</ele>
        <time>2016-05-07T06:28:35Z</time>
      </trkpt>
      <trkpt lat="44.3092" lon="5.7237">
        <ele>696.59997558594</ele>
        <time>2016-05-07T06:28:36Z</time>
      </trkpt>
      <trkpt lat="44.30917" lon="5.7237">
        <ele>697</ele>
        <time>2016-05-07T06:28:37Z</time>
      </trkpt>
      <trkpt lat="44.30912" lon="5.72368">
        <ele>697</ele>
        <time>2016-05-07T06:28:39Z</time>
      </trkpt>
      <trkpt lat="44.30902" lon="5.72366">
        <ele>697.40002441406</ele>
        <time>2016-05-07T06:28:43Z</time>
      </trkpt>
      <trkpt lat="44.30899" lon="5.72366">
        <ele>697.79998779297</ele>
        <time>2016-05-07T06:28:44Z</time>
      </trkpt>
      <trkpt lat="44.30896" lon="5.72365">
        <ele>698.20001220703</ele>
        <time>2016-05-07T06:28:45Z</time>
      </trkpt>
      <trkpt lat="44.30894" lon="5.72365">
        <ele>698.59997558594</ele>
        <time>2016-05-07T06:28:46Z</time>
      </trkpt>
      <trkpt lat="44.30892" lon="5.72364">
        <ele>699</ele>
        <time>2016-05-07T06:28:47Z</time>
      </trkpt>
      <trkpt lat="44.30889" lon="5.72363">
        <ele>699</ele>
        <time>2016-05-07T06:28:48Z</time>
      </trkpt>
      <trkpt lat="44.30872" lon="5.72361">
        <ele>699.59997558594</ele>
        <time>2016-05-07T06:28:55Z</time>
      </trkpt>
      <trkpt lat="44.3087" lon="5.7236">
        <ele>700</ele>
        <time>2016-05-07T06:28:56Z</time>
      </trkpt>
      <trkpt lat="44.30868" lon="5.7236">
        <ele>700.40002441406</ele>
        <time>2016-05-07T06:28:57Z</time>
      </trkpt>
      <trkpt lat="44.30866" lon="5.7236">
        <ele>700.79998779297</ele>
        <time>2016-05-07T06:28:58Z</time>
      </trkpt>
      <trkpt lat="44.30862" lon="5.7236">
        <ele>701.40002441406</ele>
        <time>2016-05-07T06:28:59Z</time>
      </trkpt>
      <trkpt lat="44.3086" lon="5.72359">
        <ele>701.40002441406</ele>
        <time>2016-05-07T06:29:00Z</time>
      </trkpt>
      <trkpt lat="44.30851" lon="5.72358">
        <ele>701.79998779297</ele>
        <time>2016-05-07T06:29:04Z</time>
      </trkpt>
      <trkpt lat="44.30849" lon="5.72358">
        <ele>702.20001220703</ele>
        <time>2016-05-07T06:29:05Z</time>
      </trkpt>
      <trkpt lat="44.30847" lon="5.72358">
        <ele>702.59997558594</ele>
        <time>2016-05-07T06:29:06Z</time>
      </trkpt>
      <trkpt lat="44.30844" lon="5.72357">
        <ele>703</ele>
        <time>2016-05-07T06:29:07Z</time>
      </trkpt>
      <trkpt lat="44.30843" lon="5.72357">
        <ele>703.40002441406</ele>
        <time>2016-05-07T06:29:08Z</time>
      </trkpt>
      <trkpt lat="44.30827" lon="5.72355">
        <ele>703.40002441406</ele>
        <time>2016-05-07T06:29:15Z</time>
      </trkpt>
      <trkpt lat="44.30822" lon="5.72354">
        <ele>703.79998779297</ele>
        <time>2016-05-07T06:29:17Z</time>
      </trkpt>
      <trkpt lat="44.30821" lon="5.72354">
        <ele>704.20001220703</ele>
        <time>2016-05-07T06:29:18Z</time>
      </trkpt>
      <trkpt lat="44.30819" lon="5.72353">
        <ele>704.59997558594</ele>
        <time>2016-05-07T06:29:19Z</time>
      </trkpt>
      <trkpt lat="44.30817" lon="5.72353">
        <ele>705</ele>
        <time>2016-05-07T06:29:20Z</time>
      </trkpt>
      <trkpt lat="44.30815" lon="5.72352">
        <ele>705.40002441406</ele>
        <time>2016-05-07T06:29:21Z</time>
      </trkpt>
      <trkpt lat="44.30811" lon="5.72351">
        <ele>705.40002441406</ele>
        <time>2016-05-07T06:29:23Z</time>
      </trkpt>
      <trkpt lat="44.30805" lon="5.7235">
        <ele>705.79998779297</ele>
        <time>2016-05-07T06:29:26Z</time>
      </trkpt>
      <trkpt lat="44.30803" lon="5.72349">
        <ele>706.20001220703</ele>
        <time>2016-05-07T06:29:27Z</time>
      </trkpt>
      <trkpt lat="44.30801" lon="5.72349">
        <ele>706.79998779297</ele>
        <time>2016-05-07T06:29:28Z</time>
      </trkpt>
      <trkpt lat="44.30799" lon="5.72348">
        <ele>707.20001220703</ele>
        <time>2016-05-07T06:29:29Z</time>
      </trkpt>
      <trkpt lat="44.30798" lon="5.72348">
        <ele>707.59997558594</ele>
        <time>2016-05-07T06:29:30Z</time>
      </trkpt>
      <trkpt lat="44.3079" lon="5.72346">
        <ele>707.59997558594</ele>
        <time>2016-05-07T06:29:34Z</time>
      </trkpt>
      <trkpt lat="44.30785" lon="5.72344">
        <ele>708</ele>
        <time>2016-05-07T06:29:37Z</time>
      </trkpt>
      <trkpt lat="44.30783" lon="5.72344">
        <ele>708.40002441406</ele>
        <time>2016-05-07T06:29:38Z</time>
      </trkpt>
      <trkpt lat="44.30779" lon="5.72344">
        <ele>709.20001220703</ele>
        <time>2016-05-07T06:29:40Z</time>
      </trkpt>
      <trkpt lat="44.30777" lon="5.72343">
        <ele>709.59997558594</ele>
        <time>2016-05-07T06:29:41Z</time>
      </trkpt>
      <trkpt lat="44.30775" lon="5.72343">
        <ele>709.59997558594</ele>
        <time>2016-05-07T06:29:42Z</time>
      </trkpt>
      <trkpt lat="44.30759" lon="5.72341">
        <ele>710</ele>
        <time>2016-05-07T06:29:50Z</time>
      </trkpt>
      <trkpt lat="44.30756" lon="5.72341">
        <ele>710.40002441406</ele>
        <time>2016-05-07T06:29:51Z</time>
      </trkpt>
      <trkpt lat="44.30754" lon="5.7234">
        <ele>710.79998779297</ele>
        <time>2016-05-07T06:29:52Z</time>
      </trkpt>
      <trkpt lat="44.30752" lon="5.7234">
        <ele>711.40002441406</ele>
        <time>2016-05-07T06:29:53Z</time>
      </trkpt>
      <trkpt lat="44.3075" lon="5.7234">
        <ele>711.79998779297</ele>
        <time>2016-05-07T06:29:54Z</time>
      </trkpt>
      <trkpt lat="44.30737" lon="5.72338">
        <ele>712.20001220703</ele>
        <time>2016-05-07T06:30:00Z</time>
      </trkpt>
      <trkpt lat="44.30735" lon="5.72338">
        <ele>712.59997558594</ele>
        <time>2016-05-07T06:30:01Z</time>
      </trkpt>
      <trkpt lat="44.30733" lon="5.72337">
        <ele>713</ele>
        <time>2016-05-07T06:30:02Z</time>
      </trkpt>
      <trkpt lat="44.30731" lon="5.72336">
        <ele>713.40002441406</ele>
        <time>2016-05-07T06:30:03Z</time>
      </trkpt>
      <trkpt lat="44.30729" lon="5.72336">
        <ele>713.79998779297</ele>
        <time>2016-05-07T06:30:04Z</time>
      </trkpt>
      <trkpt lat="44.30717" lon="5.72334">
        <ele>713.79998779297</ele>
        <time>2016-05-07T06:30:09Z</time>
      </trkpt>
      <trkpt lat="44.3071" lon="5.72333">
        <ele>714.20001220703</ele>
        <time>2016-05-07T06:30:12Z</time>
      </trkpt>
      <trkpt lat="44.30708" lon="5.72332">
        <ele>714.59997558594</ele>
        <time>2016-05-07T06:30:13Z</time>
      </trkpt>
      <trkpt lat="44.30707" lon="5.72331">
        <ele>715</ele>
        <time>2016-05-07T06:30:14Z</time>
      </trkpt>
      <trkpt lat="44.30705" lon="5.72331">
        <ele>715.40002441406</ele>
        <time>2016-05-07T06:30:15Z</time>
      </trkpt>
      <trkpt lat="44.30703" lon="5.72329">
        <ele>715.79998779297</ele>
        <time>2016-05-07T06:30:16Z</time>
      </trkpt>
      <trkpt lat="44.30693" lon="5.72314">
        <ele>715.79998779297</ele>
        <time>2016-05-07T06:30:22Z</time>
      </trkpt>
      <trkpt lat="44.30693" lon="5.72311">
        <ele>716.20001220703</ele>
        <time>2016-05-07T06:30:23Z</time>
      </trkpt>
      <trkpt lat="44.30693" lon="5.72308">
        <ele>716.59997558594</ele>
        <time>2016-05-07T06:30:24Z</time>
      </trkpt>
      <trkpt lat="44.30693" lon="5.72305">
        <ele>717</ele>
        <time>2016-05-07T06:30:25Z</time>
      </trkpt>
      <trkpt lat="44.30693" lon="5.72301">
        <ele>717.59997558594</ele>
        <time>2016-05-07T06:30:26Z</time>
      </trkpt>
      <trkpt lat="44.30693" lon="5.72298">
        <ele>718</ele>
        <time>2016-05-07T06:30:27Z</time>
      </trkpt>
      <trkpt lat="44.30692" lon="5.7229">
        <ele>718</ele>
        <time>2016-05-07T06:30:29Z</time>
      </trkpt>
      <trkpt lat="44.30686" lon="5.72262">
        <ele>718</ele>
        <time>2016-05-07T06:30:36Z</time>
      </trkpt>
      <trkpt lat="44.3067" lon="5.72229">
        <ele>718</ele>
        <time>2016-05-07T06:30:44Z</time>
      </trkpt>
      <trkpt lat="44.30645" lon="5.72196">
        <ele>718</ele>
        <time>2016-05-07T06:30:53Z</time>
      </trkpt>
      <trkpt lat="44.30626" lon="5.72177">
        <ele>718.79998779297</ele>
        <time>2016-05-07T06:30:59Z</time>
      </trkpt>
      <trkpt lat="44.30622" lon="5.72174">
        <ele>719.20001220703</ele>
        <time>2016-05-07T06:31:00Z</time>
      </trkpt>
      <trkpt lat="44.30619" lon="5.72171">
        <ele>719.59997558594</ele>
        <time>2016-05-07T06:31:01Z</time>
      </trkpt>
      <trkpt lat="44.30616" lon="5.72168">
        <ele>720</ele>
        <time>2016-05-07T06:31:02Z</time>
      </trkpt>
      <trkpt lat="44.30587" lon="5.72149">
        <ele>720</ele>
        <time>2016-05-07T06:31:10Z</time>
      </trkpt>
      <trkpt lat="44.30584" lon="5.72148">
        <ele>720</ele>
        <time>2016-05-07T06:31:11Z</time>
      </trkpt>
      <trkpt lat="44.30576" lon="5.72148">
        <ele>720</ele>
        <time>2016-05-07T06:31:13Z</time>
      </trkpt>
      <trkpt lat="44.30564" lon="5.7215">
        <ele>720</ele>
        <time>2016-05-07T06:31:16Z</time>
      </trkpt>
      <trkpt lat="44.30554" lon="5.72158">
        <ele>720</ele>
        <time>2016-05-07T06:31:19Z</time>
      </trkpt>
      <trkpt lat="44.30547" lon="5.72165">
        <ele>720</ele>
        <time>2016-05-07T06:31:21Z</time>
      </trkpt>
      <trkpt lat="44.30527" lon="5.72188">
        <ele>720</ele>
        <time>2016-05-07T06:31:26Z</time>
      </trkpt>
      <trkpt lat="44.30521" lon="5.72191">
        <ele>720</ele>
        <time>2016-05-07T06:31:27Z</time>
      </trkpt>
      <trkpt lat="44.30508" lon="5.72184">
        <ele>720</ele>
        <time>2016-05-07T06:31:30Z</time>
      </trkpt>
      <trkpt lat="44.30503" lon="5.72165">
        <ele>720</ele>
        <time>2016-05-07T06:31:33Z</time>
      </trkpt>
      <trkpt lat="44.30496" lon="5.72142">
        <ele>720</ele>
        <time>2016-05-07T06:31:38Z</time>
      </trkpt>
      <trkpt lat="44.30492" lon="5.72133">
        <ele>720.40002441406</ele>
        <time>2016-05-07T06:31:40Z</time>
      </trkpt>
      <trkpt lat="44.3049" lon="5.7213">
        <ele>720.79998779297</ele>
        <time>2016-05-07T06:31:41Z</time>
      </trkpt>
      <trkpt lat="44.30486" lon="5.72123">
        <ele>721.59997558594</ele>
        <time>2016-05-07T06:31:43Z</time>
      </trkpt>
      <trkpt lat="44.30484" lon="5.7212">
        <ele>722</ele>
        <time>2016-05-07T06:31:44Z</time>
      </trkpt>
      <trkpt lat="44.30468" lon="5.72102">
        <ele>722</ele>
        <time>2016-05-07T06:31:50Z</time>
      </trkpt>
      <trkpt lat="44.30452" lon="5.72084">
        <ele>722</ele>
        <time>2016-05-07T06:31:56Z</time>
      </trkpt>
      <trkpt lat="44.30431" lon="5.7206">
        <ele>722</ele>
        <time>2016-05-07T06:32:04Z</time>
      </trkpt>
      <trkpt lat="44.30419" lon="5.7205">
        <ele>722.40002441406</ele>
        <time>2016-05-07T06:32:08Z</time>
      </trkpt>
      <trkpt lat="44.30413" lon="5.72045">
        <ele>722.79998779297</ele>
        <time>2016-05-07T06:32:10Z</time>
      </trkpt>
      <trkpt lat="44.30409" lon="5.72042">
        <ele>723.59997558594</ele>
        <time>2016-05-07T06:32:11Z</time>
      </trkpt>
      <trkpt lat="44.30406" lon="5.7204">
        <ele>724</ele>
        <time>2016-05-07T06:32:12Z</time>
      </trkpt>
      <trkpt lat="44.30375" lon="5.72018">
        <ele>724</ele>
        <time>2016-05-07T06:32:23Z</time>
      </trkpt>
      <trkpt lat="44.30355" lon="5.72003">
        <ele>724</ele>
        <time>2016-05-07T06:32:30Z</time>
      </trkpt>
      <trkpt lat="44.30344" lon="5.71995">
        <ele>725</ele>
        <time>2016-05-07T06:32:34Z</time>
      </trkpt>
      <trkpt lat="44.30342" lon="5.71992">
        <ele>725.40002441406</ele>
        <time>2016-05-07T06:32:35Z</time>
      </trkpt>
      <trkpt lat="44.3034" lon="5.7199">
        <ele>725.79998779297</ele>
        <time>2016-05-07T06:32:36Z</time>
      </trkpt>
      <trkpt lat="44.30338" lon="5.7198">
        <ele>726.40002441406</ele>
        <time>2016-05-07T06:32:38Z</time>
      </trkpt>
      <trkpt lat="44.30338" lon="5.71975">
        <ele>726.40002441406</ele>
        <time>2016-05-07T06:32:39Z</time>
      </trkpt>
      <trkpt lat="44.30336" lon="5.71962">
        <ele>726.40002441406</ele>
        <time>2016-05-07T06:32:42Z</time>
      </trkpt>
      <trkpt lat="44.30331" lon="5.71955">
        <ele>726.40002441406</ele>
        <time>2016-05-07T06:32:44Z</time>
      </trkpt>
      <trkpt lat="44.3032" lon="5.71948">
        <ele>726.40002441406</ele>
        <time>2016-05-07T06:32:47Z</time>
      </trkpt>
      <trkpt lat="44.30313" lon="5.71943">
        <ele>726.40002441406</ele>
        <time>2016-05-07T06:32:49Z</time>
      </trkpt>
      <trkpt lat="44.30308" lon="5.71939">
        <ele>726.79998779297</ele>
        <time>2016-05-07T06:32:51Z</time>
      </trkpt>
      <trkpt lat="44.30306" lon="5.71937">
        <ele>727.20001220703</ele>
        <time>2016-05-07T06:32:52Z</time>
      </trkpt>
      <trkpt lat="44.30304" lon="5.71935">
        <ele>727.59997558594</ele>
        <time>2016-05-07T06:32:53Z</time>
      </trkpt>
      <trkpt lat="44.30302" lon="5.71933">
        <ele>728.40002441406</ele>
        <time>2016-05-07T06:32:54Z</time>
      </trkpt>
      <trkpt lat="44.30295" lon="5.71927">
        <ele>728.40002441406</ele>
        <time>2016-05-07T06:32:57Z</time>
      </trkpt>
      <trkpt lat="44.30286" lon="5.71919">
        <ele>729.20001220703</ele>
        <time>2016-05-07T06:33:01Z</time>
      </trkpt>
      <trkpt lat="44.30282" lon="5.71913">
        <ele>729.59997558594</ele>
        <time>2016-05-07T06:33:03Z</time>
      </trkpt>
      <trkpt lat="44.30281" lon="5.7191">
        <ele>730</ele>
        <time>2016-05-07T06:33:04Z</time>
      </trkpt>
      <trkpt lat="44.3028" lon="5.71907">
        <ele>730.40002441406</ele>
        <time>2016-05-07T06:33:05Z</time>
      </trkpt>
      <trkpt lat="44.30278" lon="5.71904">
        <ele>730.79998779297</ele>
        <time>2016-05-07T06:33:06Z</time>
      </trkpt>
      <trkpt lat="44.30277" lon="5.71901">
        <ele>731.40002441406</ele>
        <time>2016-05-07T06:33:07Z</time>
      </trkpt>
      <trkpt lat="44.30275" lon="5.71898">
        <ele>731.79998779297</ele>
        <time>2016-05-07T06:33:08Z</time>
      </trkpt>
      <trkpt lat="44.30273" lon="5.71892">
        <ele>732.20001220703</ele>
        <time>2016-05-07T06:33:10Z</time>
      </trkpt>
      <trkpt lat="44.30272" lon="5.71889">
        <ele>732.59997558594</ele>
        <time>2016-05-07T06:33:11Z</time>
      </trkpt>
      <trkpt lat="44.30271" lon="5.71885">
        <ele>732.59997558594</ele>
        <time>2016-05-07T06:33:12Z</time>
      </trkpt>
      <trkpt lat="44.3027" lon="5.71879">
        <ele>733</ele>
        <time>2016-05-07T06:33:14Z</time>
      </trkpt>
      <trkpt lat="44.30268" lon="5.71877">
        <ele>733.59997558594</ele>
        <time>2016-05-07T06:33:15Z</time>
      </trkpt>
      <trkpt lat="44.30267" lon="5.71871">
        <ele>734</ele>
        <time>2016-05-07T06:33:17Z</time>
      </trkpt>
      <trkpt lat="44.30266" lon="5.71868">
        <ele>734.40002441406</ele>
        <time>2016-05-07T06:33:18Z</time>
      </trkpt>
      <trkpt lat="44.30265" lon="5.71865">
        <ele>734.79998779297</ele>
        <time>2016-05-07T06:33:19Z</time>
      </trkpt>
      <trkpt lat="44.30259" lon="5.71848">
        <ele>734.79998779297</ele>
        <time>2016-05-07T06:33:26Z</time>
      </trkpt>
      <trkpt lat="44.30256" lon="5.71844">
        <ele>735.59997558594</ele>
        <time>2016-05-07T06:33:28Z</time>
      </trkpt>
      <trkpt lat="44.30254" lon="5.71842">
        <ele>736.20001220703</ele>
        <time>2016-05-07T06:33:29Z</time>
      </trkpt>
      <trkpt lat="44.30252" lon="5.7184">
        <ele>736.59997558594</ele>
        <time>2016-05-07T06:33:30Z</time>
      </trkpt>
      <trkpt lat="44.30249" lon="5.71836">
        <ele>737</ele>
        <time>2016-05-07T06:33:32Z</time>
      </trkpt>
      <trkpt lat="44.30243" lon="5.71818">
        <ele>737.40002441406</ele>
        <time>2016-05-07T06:33:39Z</time>
      </trkpt>
      <trkpt lat="44.30243" lon="5.71814">
        <ele>737.79998779297</ele>
        <time>2016-05-07T06:33:40Z</time>
      </trkpt>
      <trkpt lat="44.30243" lon="5.71812">
        <ele>738.59997558594</ele>
        <time>2016-05-07T06:33:41Z</time>
      </trkpt>
      <trkpt lat="44.30244" lon="5.7181">
        <ele>739.20001220703</ele>
        <time>2016-05-07T06:33:42Z</time>
      </trkpt>
      <trkpt lat="44.30249" lon="5.71805">
        <ele>739.20001220703</ele>
        <time>2016-05-07T06:33:45Z</time>
      </trkpt>
      <trkpt lat="44.30256" lon="5.71812">
        <ele>739.20001220703</ele>
        <time>2016-05-07T06:33:50Z</time>
      </trkpt>
      <trkpt lat="44.30259" lon="5.71816">
        <ele>739.59997558594</ele>
        <time>2016-05-07T06:33:52Z</time>
      </trkpt>
      <trkpt lat="44.3026" lon="5.71819">
        <ele>740</ele>
        <time>2016-05-07T06:33:53Z</time>
      </trkpt>
      <trkpt lat="44.30261" lon="5.71822">
        <ele>740.40002441406</ele>
        <time>2016-05-07T06:33:54Z</time>
      </trkpt>
      <trkpt lat="44.30262" lon="5.71824">
        <ele>741.20001220703</ele>
        <time>2016-05-07T06:33:55Z</time>
      </trkpt>
      <trkpt lat="44.30264" lon="5.71826">
        <ele>741.20001220703</ele>
        <time>2016-05-07T06:33:56Z</time>
      </trkpt>
      <trkpt lat="44.30275" lon="5.7184">
        <ele>741.79998779297</ele>
        <time>2016-05-07T06:34:03Z</time>
      </trkpt>
      <trkpt lat="44.30277" lon="5.71842">
        <ele>741.79998779297</ele>
        <time>2016-05-07T06:34:04Z</time>
      </trkpt>
      <trkpt lat="44.30278" lon="5.71844">
        <ele>742.20001220703</ele>
        <time>2016-05-07T06:34:05Z</time>
      </trkpt>
      <trkpt lat="44.3028" lon="5.71845">
        <ele>742.59997558594</ele>
        <time>2016-05-07T06:34:06Z</time>
      </trkpt>
      <trkpt lat="44.30281" lon="5.71847">
        <ele>743.40002441406</ele>
        <time>2016-05-07T06:34:07Z</time>
      </trkpt>
      <trkpt lat="44.30291" lon="5.7186">
        <ele>744.40002441406</ele>
        <time>2016-05-07T06:34:13Z</time>
      </trkpt>
      <trkpt lat="44.30293" lon="5.71861">
        <ele>744.79998779297</ele>
        <time>2016-05-07T06:34:14Z</time>
      </trkpt>
      <trkpt lat="44.30294" lon="5.71863">
        <ele>745.20001220703</ele>
        <time>2016-05-07T06:34:15Z</time>
      </trkpt>
      <trkpt lat="44.30298" lon="5.71865">
        <ele>745.59997558594</ele>
        <time>2016-05-07T06:34:17Z</time>
      </trkpt>
      <trkpt lat="44.30306" lon="5.71869">
        <ele>746</ele>
        <time>2016-05-07T06:34:21Z</time>
      </trkpt>
      <trkpt lat="44.30308" lon="5.71869">
        <ele>746.40002441406</ele>
        <time>2016-05-07T06:34:22Z</time>
      </trkpt>
      <trkpt lat="44.3031" lon="5.71869">
        <ele>746.40002441406</ele>
        <time>2016-05-07T06:34:23Z</time>
      </trkpt>
      <trkpt lat="44.30312" lon="5.71869">
        <ele>746.79998779297</ele>
        <time>2016-05-07T06:34:24Z</time>
      </trkpt>
      <trkpt lat="44.30314" lon="5.7187">
        <ele>747.20001220703</ele>
        <time>2016-05-07T06:34:25Z</time>
      </trkpt>
      <trkpt lat="44.30316" lon="5.7187">
        <ele>747.59997558594</ele>
        <time>2016-05-07T06:34:26Z</time>
      </trkpt>
      <trkpt lat="44.30329" lon="5.71872">
        <ele>748</ele>
        <time>2016-05-07T06:34:33Z</time>
      </trkpt>
      <trkpt lat="44.30333" lon="5.71871">
        <ele>748.40002441406</ele>
        <time>2016-05-07T06:34:35Z</time>
      </trkpt>
      <trkpt lat="44.30335" lon="5.7187">
        <ele>749.20001220703</ele>
        <time>2016-05-07T06:34:36Z</time>
      </trkpt>
      <trkpt lat="44.30337" lon="5.71869">
        <ele>749.59997558594</ele>
        <time>2016-05-07T06:34:37Z</time>
      </trkpt>
      <trkpt lat="44.30346" lon="5.71861">
        <ele>750</ele>
        <time>2016-05-07T06:34:41Z</time>
      </trkpt>
      <trkpt lat="44.30347" lon="5.71858">
        <ele>750.59997558594</ele>
        <time>2016-05-07T06:34:42Z</time>
      </trkpt>
      <trkpt lat="44.30349" lon="5.71854">
        <ele>751</ele>
        <time>2016-05-07T06:34:43Z</time>
      </trkpt>
      <trkpt lat="44.30352" lon="5.71849">
        <ele>751.40002441406</ele>
        <time>2016-05-07T06:34:45Z</time>
      </trkpt>
      <trkpt lat="44.30353" lon="5.71847">
        <ele>751.79998779297</ele>
        <time>2016-05-07T06:34:46Z</time>
      </trkpt>
      <trkpt lat="44.30358" lon="5.71841">
        <ele>751.79998779297</ele>
        <time>2016-05-07T06:34:49Z</time>
      </trkpt>
      <trkpt lat="44.3036" lon="5.71836">
        <ele>752.59997558594</ele>
        <time>2016-05-07T06:34:51Z</time>
      </trkpt>
      <trkpt lat="44.30361" lon="5.71834">
        <ele>753</ele>
        <time>2016-05-07T06:34:52Z</time>
      </trkpt>
      <trkpt lat="44.30362" lon="5.71832">
        <ele>753.40002441406</ele>
        <time>2016-05-07T06:34:53Z</time>
      </trkpt>
      <trkpt lat="44.30363" lon="5.71827">
        <ele>753.79998779297</ele>
        <time>2016-05-07T06:34:55Z</time>
      </trkpt>
      <trkpt lat="44.30364" lon="5.71817">
        <ele>753.79998779297</ele>
        <time>2016-05-07T06:34:59Z</time>
      </trkpt>
      <trkpt lat="44.30363" lon="5.71811">
        <ele>754.79998779297</ele>
        <time>2016-05-07T06:35:01Z</time>
      </trkpt>
      <trkpt lat="44.30363" lon="5.71809">
        <ele>755.20001220703</ele>
        <time>2016-05-07T06:35:02Z</time>
      </trkpt>
      <trkpt lat="44.30362" lon="5.71806">
        <ele>755.59997558594</ele>
        <time>2016-05-07T06:35:03Z</time>
      </trkpt>
      <trkpt lat="44.30359" lon="5.71802">
        <ele>756</ele>
        <time>2016-05-07T06:35:05Z</time>
      </trkpt>
      <trkpt lat="44.30358" lon="5.718">
        <ele>756</ele>
        <time>2016-05-07T06:35:06Z</time>
      </trkpt>
      <trkpt lat="44.30345" lon="5.71794">
        <ele>756</ele>
        <time>2016-05-07T06:35:12Z</time>
      </trkpt>
      <trkpt lat="44.30342" lon="5.71794">
        <ele>756.59997558594</ele>
        <time>2016-05-07T06:35:13Z</time>
      </trkpt>
      <trkpt lat="44.3034" lon="5.71794">
        <ele>757</ele>
        <time>2016-05-07T06:35:14Z</time>
      </trkpt>
      <trkpt lat="44.30338" lon="5.71793">
        <ele>757.40002441406</ele>
        <time>2016-05-07T06:35:15Z</time>
      </trkpt>
      <trkpt lat="44.30333" lon="5.71792">
        <ele>758</ele>
        <time>2016-05-07T06:35:17Z</time>
      </trkpt>
      <trkpt lat="44.30331" lon="5.71791">
        <ele>758.40002441406</ele>
        <time>2016-05-07T06:35:18Z</time>
      </trkpt>
      <trkpt lat="44.30328" lon="5.7179">
        <ele>758.40002441406</ele>
        <time>2016-05-07T06:35:19Z</time>
      </trkpt>
      <trkpt lat="44.30316" lon="5.71774">
        <ele>758.40002441406</ele>
        <time>2016-05-07T06:35:26Z</time>
      </trkpt>
      <trkpt lat="44.30313" lon="5.71769">
        <ele>759.20001220703</ele>
        <time>2016-05-07T06:35:28Z</time>
      </trkpt>
      <trkpt lat="44.30312" lon="5.71766">
        <ele>759.59997558594</ele>
        <time>2016-05-07T06:35:29Z</time>
      </trkpt>
      <trkpt lat="44.30311" lon="5.71763">
        <ele>760.20001220703</ele>
        <time>2016-05-07T06:35:30Z</time>
      </trkpt>
      <trkpt lat="44.3031" lon="5.71758">
        <ele>760.59997558594</ele>
        <time>2016-05-07T06:35:32Z</time>
      </trkpt>
      <trkpt lat="44.3031" lon="5.71755">
        <ele>760.59997558594</ele>
        <time>2016-05-07T06:35:33Z</time>
      </trkpt>
      <trkpt lat="44.30309" lon="5.71743">
        <ele>761</ele>
        <time>2016-05-07T06:35:37Z</time>
      </trkpt>
      <trkpt lat="44.30309" lon="5.71741">
        <ele>761.59997558594</ele>
        <time>2016-05-07T06:35:38Z</time>
      </trkpt>
      <trkpt lat="44.30309" lon="5.71738">
        <ele>762</ele>
        <time>2016-05-07T06:35:39Z</time>
      </trkpt>
      <trkpt lat="44.30309" lon="5.71735">
        <ele>762.59997558594</ele>
        <time>2016-05-07T06:35:40Z</time>
      </trkpt>
      <trkpt lat="44.30308" lon="5.71729">
        <ele>763</ele>
        <time>2016-05-07T06:35:42Z</time>
      </trkpt>
      <trkpt lat="44.30307" lon="5.71723">
        <ele>763</ele>
        <time>2016-05-07T06:35:44Z</time>
      </trkpt>
      <trkpt lat="44.30305" lon="5.71704">
        <ele>763.40002441406</ele>
        <time>2016-05-07T06:35:50Z</time>
      </trkpt>
      <trkpt lat="44.30304" lon="5.71698">
        <ele>764.20001220703</ele>
        <time>2016-05-07T06:35:52Z</time>
      </trkpt>
      <trkpt lat="44.30304" lon="5.71695">
        <ele>764.59997558594</ele>
        <time>2016-05-07T06:35:53Z</time>
      </trkpt>
      <trkpt lat="44.30303" lon="5.71692">
        <ele>765</ele>
        <time>2016-05-07T06:35:54Z</time>
      </trkpt>
      <trkpt lat="44.30297" lon="5.71669">
        <ele>765</ele>
        <time>2016-05-07T06:36:02Z</time>
      </trkpt>
      <trkpt lat="44.30293" lon="5.71662">
        <ele>765.59997558594</ele>
        <time>2016-05-07T06:36:05Z</time>
      </trkpt>
      <trkpt lat="44.30289" lon="5.71659">
        <ele>766.59997558594</ele>
        <time>2016-05-07T06:36:07Z</time>
      </trkpt>
      <trkpt lat="44.30287" lon="5.71657">
        <ele>767</ele>
        <time>2016-05-07T06:36:08Z</time>
      </trkpt>
      <trkpt lat="44.30285" lon="5.71656">
        <ele>767.59997558594</ele>
        <time>2016-05-07T06:36:09Z</time>
      </trkpt>
      <trkpt lat="44.3027" lon="5.71651">
        <ele>767.59997558594</ele>
        <time>2016-05-07T06:36:15Z</time>
      </trkpt>
      <trkpt lat="44.30255" lon="5.71643">
        <ele>768</ele>
        <time>2016-05-07T06:36:21Z</time>
      </trkpt>
      <trkpt lat="44.30252" lon="5.71641">
        <ele>768.40002441406</ele>
        <time>2016-05-07T06:36:22Z</time>
      </trkpt>
      <trkpt lat="44.3025" lon="5.7164">
        <ele>768.79998779297</ele>
        <time>2016-05-07T06:36:23Z</time>
      </trkpt>
      <trkpt lat="44.30247" lon="5.71638">
        <ele>769.20001220703</ele>
        <time>2016-05-07T06:36:24Z</time>
      </trkpt>
      <trkpt lat="44.30243" lon="5.71634">
        <ele>769.59997558594</ele>
        <time>2016-05-07T06:36:26Z</time>
      </trkpt>
      <trkpt lat="44.30228" lon="5.71624">
        <ele>769.59997558594</ele>
        <time>2016-05-07T06:36:32Z</time>
      </trkpt>
      <trkpt lat="44.30206" lon="5.71617">
        <ele>769.59997558594</ele>
        <time>2016-05-07T06:36:39Z</time>
      </trkpt>
      <trkpt lat="44.3018" lon="5.71625">
        <ele>769.59997558594</ele>
        <time>2016-05-07T06:36:47Z</time>
      </trkpt>
      <trkpt lat="44.30157" lon="5.71632">
        <ele>769.59997558594</ele>
        <time>2016-05-07T06:36:53Z</time>
      </trkpt>
      <trkpt lat="44.30138" lon="5.71639">
        <ele>770</ele>
        <time>2016-05-07T06:36:59Z</time>
      </trkpt>
      <trkpt lat="44.30131" lon="5.71641">
        <ele>770.79998779297</ele>
        <time>2016-05-07T06:37:01Z</time>
      </trkpt>
      <trkpt lat="44.30127" lon="5.71643">
        <ele>771.20001220703</ele>
        <time>2016-05-07T06:37:02Z</time>
      </trkpt>
      <trkpt lat="44.30124" lon="5.71644">
        <ele>771.79998779297</ele>
        <time>2016-05-07T06:37:03Z</time>
      </trkpt>
      <trkpt lat="44.30107" lon="5.71649">
        <ele>771.79998779297</ele>
        <time>2016-05-07T06:37:08Z</time>
      </trkpt>
      <trkpt lat="44.30085" lon="5.71649">
        <ele>771.79998779297</ele>
        <time>2016-05-07T06:37:14Z</time>
      </trkpt>
      <trkpt lat="44.30058" lon="5.71635">
        <ele>771.79998779297</ele>
        <time>2016-05-07T06:37:22Z</time>
      </trkpt>
      <trkpt lat="44.30046" lon="5.71628">
        <ele>772.59997558594</ele>
        <time>2016-05-07T06:37:26Z</time>
      </trkpt>
      <trkpt lat="44.30043" lon="5.71625">
        <ele>773</ele>
        <time>2016-05-07T06:37:27Z</time>
      </trkpt>
      <trkpt lat="44.3004" lon="5.71623">
        <ele>773.40002441406</ele>
        <time>2016-05-07T06:37:28Z</time>
      </trkpt>
      <trkpt lat="44.30034" lon="5.71619">
        <ele>773.79998779297</ele>
        <time>2016-05-07T06:37:30Z</time>
      </trkpt>
      <trkpt lat="44.30031" lon="5.71617">
        <ele>773.79998779297</ele>
        <time>2016-05-07T06:37:31Z</time>
      </trkpt>
      <trkpt lat="44.30012" lon="5.71611">
        <ele>774.59997558594</ele>
        <time>2016-05-07T06:37:37Z</time>
      </trkpt>
      <trkpt lat="44.30009" lon="5.7161">
        <ele>775</ele>
        <time>2016-05-07T06:37:38Z</time>
      </trkpt>
      <trkpt lat="44.30006" lon="5.71609">
        <ele>775.40002441406</ele>
        <time>2016-05-07T06:37:39Z</time>
      </trkpt>
      <trkpt lat="44.30003" lon="5.71607">
        <ele>775.40002441406</ele>
        <time>2016-05-07T06:37:40Z</time>
      </trkpt>
      <trkpt lat="44.3" lon="5.71605">
        <ele>775.79998779297</ele>
        <time>2016-05-07T06:37:41Z</time>
      </trkpt>
      <trkpt lat="44.29987" lon="5.71592">
        <ele>775.79998779297</ele>
        <time>2016-05-07T06:37:46Z</time>
      </trkpt>
      <trkpt lat="44.29976" lon="5.71578">
        <ele>776.20001220703</ele>
        <time>2016-05-07T06:37:51Z</time>
      </trkpt>
      <trkpt lat="44.29973" lon="5.71576">
        <ele>777.20001220703</ele>
        <time>2016-05-07T06:37:52Z</time>
      </trkpt>
      <trkpt lat="44.2997" lon="5.71574">
        <ele>777.59997558594</ele>
        <time>2016-05-07T06:37:53Z</time>
      </trkpt>
      <trkpt lat="44.29967" lon="5.71572">
        <ele>778</ele>
        <time>2016-05-07T06:37:54Z</time>
      </trkpt>
      <trkpt lat="44.29955" lon="5.71571">
        <ele>778</ele>
        <time>2016-05-07T06:37:58Z</time>
      </trkpt>
      <trkpt lat="44.29919" lon="5.71573">
        <ele>778</ele>
        <time>2016-05-07T06:38:08Z</time>
      </trkpt>
      <trkpt lat="44.29909" lon="5.71573">
        <ele>778.40002441406</ele>
        <time>2016-05-07T06:38:11Z</time>
      </trkpt>
      <trkpt lat="44.29906" lon="5.71573">
        <ele>778.79998779297</ele>
        <time>2016-05-07T06:38:12Z</time>
      </trkpt>
      <trkpt lat="44.29902" lon="5.71574">
        <ele>779.79998779297</ele>
        <time>2016-05-07T06:38:13Z</time>
      </trkpt>
      <trkpt lat="44.29898" lon="5.71574">
        <ele>780.20001220703</ele>
        <time>2016-05-07T06:38:14Z</time>
      </trkpt>
      <trkpt lat="44.29895" lon="5.71575">
        <ele>780.20001220703</ele>
        <time>2016-05-07T06:38:15Z</time>
      </trkpt>
      <trkpt lat="44.2987" lon="5.71574">
        <ele>780.20001220703</ele>
        <time>2016-05-07T06:38:22Z</time>
      </trkpt>
      <trkpt lat="44.29853" lon="5.71563">
        <ele>780.20001220703</ele>
        <time>2016-05-07T06:38:27Z</time>
      </trkpt>
      <trkpt lat="44.29844" lon="5.71542">
        <ele>780.20001220703</ele>
        <time>2016-05-07T06:38:32Z</time>
      </trkpt>
      <trkpt lat="44.29843" lon="5.71507">
        <ele>780.20001220703</ele>
        <time>2016-05-07T06:38:39Z</time>
      </trkpt>
      <trkpt lat="44.29842" lon="5.71502">
        <ele>780.59997558594</ele>
        <time>2016-05-07T06:38:40Z</time>
      </trkpt>
      <trkpt lat="44.29842" lon="5.71497">
        <ele>781</ele>
        <time>2016-05-07T06:38:41Z</time>
      </trkpt>
      <trkpt lat="44.29841" lon="5.71493">
        <ele>781.40002441406</ele>
        <time>2016-05-07T06:38:42Z</time>
      </trkpt>
      <trkpt lat="44.2984" lon="5.71488">
        <ele>781.79998779297</ele>
        <time>2016-05-07T06:38:43Z</time>
      </trkpt>
      <trkpt lat="44.29838" lon="5.71485">
        <ele>782.20001220703</ele>
        <time>2016-05-07T06:38:44Z</time>
      </trkpt>
      <trkpt lat="44.29826" lon="5.71473">
        <ele>782.20001220703</ele>
        <time>2016-05-07T06:38:49Z</time>
      </trkpt>
      <trkpt lat="44.29817" lon="5.71472">
        <ele>782.59997558594</ele>
        <time>2016-05-07T06:38:52Z</time>
      </trkpt>
      <trkpt lat="44.29814" lon="5.71472">
        <ele>783.20001220703</ele>
        <time>2016-05-07T06:38:53Z</time>
      </trkpt>
      <trkpt lat="44.29811" lon="5.71472">
        <ele>783.59997558594</ele>
        <time>2016-05-07T06:38:54Z</time>
      </trkpt>
      <trkpt lat="44.29809" lon="5.71472">
        <ele>784.40002441406</ele>
        <time>2016-05-07T06:38:55Z</time>
      </trkpt>
      <trkpt lat="44.29792" lon="5.71468">
        <ele>784.79998779297</ele>
        <time>2016-05-07T06:39:03Z</time>
      </trkpt>
      <trkpt lat="44.2979" lon="5.71467">
        <ele>785.20001220703</ele>
        <time>2016-05-07T06:39:04Z</time>
      </trkpt>
      <trkpt lat="44.29788" lon="5.71465">
        <ele>786</ele>
        <time>2016-05-07T06:39:05Z</time>
      </trkpt>
      <trkpt lat="44.29784" lon="5.71462">
        <ele>786.40002441406</ele>
        <time>2016-05-07T06:39:07Z</time>
      </trkpt>
      <trkpt lat="44.29779" lon="5.71456">
        <ele>786.79998779297</ele>
        <time>2016-05-07T06:39:11Z</time>
      </trkpt>
      <trkpt lat="44.29777" lon="5.71454">
        <ele>787.40002441406</ele>
        <time>2016-05-07T06:39:12Z</time>
      </trkpt>
      <trkpt lat="44.29776" lon="5.71453">
        <ele>787.79998779297</ele>
        <time>2016-05-07T06:39:13Z</time>
      </trkpt>
      <trkpt lat="44.29774" lon="5.71451">
        <ele>788.20001220703</ele>
        <time>2016-05-07T06:39:14Z</time>
      </trkpt>
      <trkpt lat="44.29773" lon="5.7145">
        <ele>788.59997558594</ele>
        <time>2016-05-07T06:39:15Z</time>
      </trkpt>
      <trkpt lat="44.29763" lon="5.71445">
        <ele>788.59997558594</ele>
        <time>2016-05-07T06:39:20Z</time>
      </trkpt>
      <trkpt lat="44.29757" lon="5.71444">
        <ele>789.20001220703</ele>
        <time>2016-05-07T06:39:23Z</time>
      </trkpt>
      <trkpt lat="44.29755" lon="5.71444">
        <ele>789.59997558594</ele>
        <time>2016-05-07T06:39:24Z</time>
      </trkpt>
      <trkpt lat="44.29753" lon="5.71444">
        <ele>790</ele>
        <time>2016-05-07T06:39:25Z</time>
      </trkpt>
      <trkpt lat="44.29752" lon="5.71444">
        <ele>790.59997558594</ele>
        <time>2016-05-07T06:39:26Z</time>
      </trkpt>
      <trkpt lat="44.2975" lon="5.71444">
        <ele>791</ele>
        <time>2016-05-07T06:39:27Z</time>
      </trkpt>
      <trkpt lat="44.29741" lon="5.71446">
        <ele>791.40002441406</ele>
        <time>2016-05-07T06:39:32Z</time>
      </trkpt>
      <trkpt lat="44.29738" lon="5.71447">
        <ele>791.79998779297</ele>
        <time>2016-05-07T06:39:33Z</time>
      </trkpt>
      <trkpt lat="44.29736" lon="5.71447">
        <ele>792.20001220703</ele>
        <time>2016-05-07T06:39:34Z</time>
      </trkpt>
      <trkpt lat="44.29734" lon="5.71447">
        <ele>792.59997558594</ele>
        <time>2016-05-07T06:39:35Z</time>
      </trkpt>
      <trkpt lat="44.29732" lon="5.71447">
        <ele>793</ele>
        <time>2016-05-07T06:39:36Z</time>
      </trkpt>
      <trkpt lat="44.29723" lon="5.71444">
        <ele>793</ele>
        <time>2016-05-07T06:39:40Z</time>
      </trkpt>
      <trkpt lat="44.29718" lon="5.71443">
        <ele>793.40002441406</ele>
        <time>2016-05-07T06:39:42Z</time>
      </trkpt>
      <trkpt lat="44.29715" lon="5.71442">
        <ele>793.79998779297</ele>
        <time>2016-05-07T06:39:44Z</time>
      </trkpt>
      <trkpt lat="44.29713" lon="5.71441">
        <ele>794.20001220703</ele>
        <time>2016-05-07T06:39:45Z</time>
      </trkpt>
      <trkpt lat="44.29711" lon="5.7144">
        <ele>794.59997558594</ele>
        <time>2016-05-07T06:39:46Z</time>
      </trkpt>
      <trkpt lat="44.29709" lon="5.71439">
        <ele>795</ele>
        <time>2016-05-07T06:39:47Z</time>
      </trkpt>
      <trkpt lat="44.29706" lon="5.71437">
        <ele>795</ele>
        <time>2016-05-07T06:39:49Z</time>
      </trkpt>
      <trkpt lat="44.29699" lon="5.71433">
        <ele>795.40002441406</ele>
        <time>2016-05-07T06:39:53Z</time>
      </trkpt>
      <trkpt lat="44.29697" lon="5.71431">
        <ele>795.79998779297</ele>
        <time>2016-05-07T06:39:54Z</time>
      </trkpt>
      <trkpt lat="44.29696" lon="5.71429">
        <ele>796.20001220703</ele>
        <time>2016-05-07T06:39:55Z</time>
      </trkpt>
      <trkpt lat="44.29693" lon="5.71428">
        <ele>796.59997558594</ele>
        <time>2016-05-07T06:39:56Z</time>
      </trkpt>
      <trkpt lat="44.29691" lon="5.71427">
        <ele>797</ele>
        <time>2016-05-07T06:39:57Z</time>
      </trkpt>
      <trkpt lat="44.29681" lon="5.71415">
        <ele>797</ele>
        <time>2016-05-07T06:40:03Z</time>
      </trkpt>
      <trkpt lat="44.29678" lon="5.7141">
        <ele>797.59997558594</ele>
        <time>2016-05-07T06:40:05Z</time>
      </trkpt>
      <trkpt lat="44.29677" lon="5.71408">
        <ele>798</ele>
        <time>2016-05-07T06:40:06Z</time>
      </trkpt>
      <trkpt lat="44.29675" lon="5.71406">
        <ele>798.40002441406</ele>
        <time>2016-05-07T06:40:07Z</time>
      </trkpt>
      <trkpt lat="44.29674" lon="5.71404">
        <ele>799.20001220703</ele>
        <time>2016-05-07T06:40:08Z</time>
      </trkpt>
      <trkpt lat="44.29668" lon="5.71396">
        <ele>799.20001220703</ele>
        <time>2016-05-07T06:40:12Z</time>
      </trkpt>
      <trkpt lat="44.29659" lon="5.7138">
        <ele>800.20001220703</ele>
        <time>2016-05-07T06:40:19Z</time>
      </trkpt>
      <trkpt lat="44.29659" lon="5.71377">
        <ele>800.59997558594</ele>
        <time>2016-05-07T06:40:20Z</time>
      </trkpt>
      <trkpt lat="44.2966" lon="5.71374">
        <ele>800.59997558594</ele>
        <time>2016-05-07T06:40:21Z</time>
      </trkpt>
      <trkpt lat="44.2966" lon="5.71371">
        <ele>801</ele>
        <time>2016-05-07T06:40:22Z</time>
      </trkpt>
      <trkpt lat="44.2966" lon="5.71368">
        <ele>801.40002441406</ele>
        <time>2016-05-07T06:40:23Z</time>
      </trkpt>
      <trkpt lat="44.29663" lon="5.7136">
        <ele>801.40002441406</ele>
        <time>2016-05-07T06:40:26Z</time>
      </trkpt>
      <trkpt lat="44.29666" lon="5.71357">
        <ele>802</ele>
        <time>2016-05-07T06:40:28Z</time>
      </trkpt>
      <trkpt lat="44.29669" lon="5.71356">
        <ele>802.40002441406</ele>
        <time>2016-05-07T06:40:29Z</time>
      </trkpt>
      <trkpt lat="44.29671" lon="5.71355">
        <ele>803.20001220703</ele>
        <time>2016-05-07T06:40:30Z</time>
      </trkpt>
      <trkpt lat="44.29673" lon="5.71354">
        <ele>803.59997558594</ele>
        <time>2016-05-07T06:40:31Z</time>
      </trkpt>
      <trkpt lat="44.29688" lon="5.71357">
        <ele>803.59997558594</ele>
        <time>2016-05-07T06:40:37Z</time>
      </trkpt>
      <trkpt lat="44.29702" lon="5.71361">
        <ele>804</ele>
        <time>2016-05-07T06:40:43Z</time>
      </trkpt>
      <trkpt lat="44.29707" lon="5.71362">
        <ele>804.40002441406</ele>
        <time>2016-05-07T06:40:45Z</time>
      </trkpt>
      <trkpt lat="44.2971" lon="5.71363">
        <ele>804.79998779297</ele>
        <time>2016-05-07T06:40:46Z</time>
      </trkpt>
      <trkpt lat="44.29712" lon="5.71363">
        <ele>805.59997558594</ele>
        <time>2016-05-07T06:40:47Z</time>
      </trkpt>
      <trkpt lat="44.29728" lon="5.71359">
        <ele>805.59997558594</ele>
        <time>2016-05-07T06:40:53Z</time>
      </trkpt>
      <trkpt lat="44.29733" lon="5.71341">
        <ele>806</ele>
        <time>2016-05-07T06:40:58Z</time>
      </trkpt>
      <trkpt lat="44.29732" lon="5.71338">
        <ele>806.59997558594</ele>
        <time>2016-05-07T06:40:59Z</time>
      </trkpt>
      <trkpt lat="44.2973" lon="5.71334">
        <ele>807</ele>
        <time>2016-05-07T06:41:00Z</time>
      </trkpt>
      <trkpt lat="44.29726" lon="5.71328">
        <ele>807.40002441406</ele>
        <time>2016-05-07T06:41:02Z</time>
      </trkpt>
      <trkpt lat="44.29725" lon="5.71326">
        <ele>807.79998779297</ele>
        <time>2016-05-07T06:41:03Z</time>
      </trkpt>
      <trkpt lat="44.29717" lon="5.71323">
        <ele>808.20001220703</ele>
        <time>2016-05-07T06:41:06Z</time>
      </trkpt>
      <trkpt lat="44.29715" lon="5.71322">
        <ele>808.20001220703</ele>
        <time>2016-05-07T06:41:07Z</time>
      </trkpt>
      <trkpt lat="44.29713" lon="5.71321">
        <ele>808.59997558594</ele>
        <time>2016-05-07T06:41:08Z</time>
      </trkpt>
      <trkpt lat="44.2971" lon="5.71321">
        <ele>809.59997558594</ele>
        <time>2016-05-07T06:41:09Z</time>
      </trkpt>
      <trkpt lat="44.29708" lon="5.7132">
        <ele>810</ele>
        <time>2016-05-07T06:41:10Z</time>
      </trkpt>
      <trkpt lat="44.29699" lon="5.71315">
        <ele>810</ele>
        <time>2016-05-07T06:41:14Z</time>
      </trkpt>
      <trkpt lat="44.29688" lon="5.71309">
        <ele>810.40002441406</ele>
        <time>2016-05-07T06:41:19Z</time>
      </trkpt>
      <trkpt lat="44.29686" lon="5.71308">
        <ele>810.79998779297</ele>
        <time>2016-05-07T06:41:20Z</time>
      </trkpt>
      <trkpt lat="44.29684" lon="5.71307">
        <ele>811.79998779297</ele>
        <time>2016-05-07T06:41:21Z</time>
      </trkpt>
      <trkpt lat="44.29681" lon="5.71306">
        <ele>812.20001220703</ele>
        <time>2016-05-07T06:41:22Z</time>
      </trkpt>
      <trkpt lat="44.29679" lon="5.71305">
        <ele>812.20001220703</ele>
        <time>2016-05-07T06:41:23Z</time>
      </trkpt>
      <trkpt lat="44.2967" lon="5.71301">
        <ele>812.79998779297</ele>
        <time>2016-05-07T06:41:27Z</time>
      </trkpt>
      <trkpt lat="44.29666" lon="5.713">
        <ele>813.20001220703</ele>
        <time>2016-05-07T06:41:29Z</time>
      </trkpt>
      <trkpt lat="44.29663" lon="5.71299">
        <ele>813.59997558594</ele>
        <time>2016-05-07T06:41:30Z</time>
      </trkpt>
      <trkpt lat="44.29661" lon="5.71299">
        <ele>814.40002441406</ele>
        <time>2016-05-07T06:41:31Z</time>
      </trkpt>
      <trkpt lat="44.29642" lon="5.71293">
        <ele>815</ele>
        <time>2016-05-07T06:41:40Z</time>
      </trkpt>
      <trkpt lat="44.2964" lon="5.71293">
        <ele>815.40002441406</ele>
        <time>2016-05-07T06:41:41Z</time>
      </trkpt>
      <trkpt lat="44.29638" lon="5.71293">
        <ele>816.20001220703</ele>
        <time>2016-05-07T06:41:42Z</time>
      </trkpt>
      <trkpt lat="44.29636" lon="5.71292">
        <ele>816.59997558594</ele>
        <time>2016-05-07T06:41:43Z</time>
      </trkpt>
      <trkpt lat="44.29626" lon="5.71288">
        <ele>816.59997558594</ele>
        <time>2016-05-07T06:41:49Z</time>
      </trkpt>
      <trkpt lat="44.29623" lon="5.71287">
        <ele>817</ele>
        <time>2016-05-07T06:41:51Z</time>
      </trkpt>
      <trkpt lat="44.29622" lon="5.71286">
        <ele>817.40002441406</ele>
        <time>2016-05-07T06:41:52Z</time>
      </trkpt>
      <trkpt lat="44.2962" lon="5.71285">
        <ele>818.40002441406</ele>
        <time>2016-05-07T06:41:53Z</time>
      </trkpt>
      <trkpt lat="44.29617" lon="5.71286">
        <ele>818.79998779297</ele>
        <time>2016-05-07T06:41:54Z</time>
      </trkpt>
      <trkpt lat="44.29613" lon="5.71285">
        <ele>818.79998779297</ele>
        <time>2016-05-07T06:41:56Z</time>
      </trkpt>
      <trkpt lat="44.29602" lon="5.71282">
        <ele>818.79998779297</ele>
        <time>2016-05-07T06:42:02Z</time>
      </trkpt>
      <trkpt lat="44.29598" lon="5.7128">
        <ele>819.20001220703</ele>
        <time>2016-05-07T06:42:04Z</time>
      </trkpt>
      <trkpt lat="44.29596" lon="5.71279">
        <ele>819.79998779297</ele>
        <time>2016-05-07T06:42:05Z</time>
      </trkpt>
      <trkpt lat="44.29594" lon="5.71278">
        <ele>820.20001220703</ele>
        <time>2016-05-07T06:42:06Z</time>
      </trkpt>
      <trkpt lat="44.29591" lon="5.71275">
        <ele>820.59997558594</ele>
        <time>2016-05-07T06:42:08Z</time>
      </trkpt>
      <trkpt lat="44.29589" lon="5.71274">
        <ele>821.20001220703</ele>
        <time>2016-05-07T06:42:09Z</time>
      </trkpt>
      <trkpt lat="44.29584" lon="5.71267">
        <ele>821.20001220703</ele>
        <time>2016-05-07T06:42:13Z</time>
      </trkpt>
      <trkpt lat="44.29583" lon="5.71265">
        <ele>821.59997558594</ele>
        <time>2016-05-07T06:42:14Z</time>
      </trkpt>
      <trkpt lat="44.29581" lon="5.71263">
        <ele>822</ele>
        <time>2016-05-07T06:42:15Z</time>
      </trkpt>
      <trkpt lat="44.2958" lon="5.71261">
        <ele>822.40002441406</ele>
        <time>2016-05-07T06:42:16Z</time>
      </trkpt>
      <trkpt lat="44.29578" lon="5.71257">
        <ele>822.79998779297</ele>
        <time>2016-05-07T06:42:18Z</time>
      </trkpt>
      <trkpt lat="44.29576" lon="5.71255">
        <ele>823.20001220703</ele>
        <time>2016-05-07T06:42:19Z</time>
      </trkpt>
      <trkpt lat="44.29576" lon="5.71253">
        <ele>823.20001220703</ele>
        <time>2016-05-07T06:42:20Z</time>
      </trkpt>
      <trkpt lat="44.29573" lon="5.71249">
        <ele>823.59997558594</ele>
        <time>2016-05-07T06:42:22Z</time>
      </trkpt>
      <trkpt lat="44.29571" lon="5.71245">
        <ele>824</ele>
        <time>2016-05-07T06:42:24Z</time>
      </trkpt>
      <trkpt lat="44.29569" lon="5.71243">
        <ele>824.79998779297</ele>
        <time>2016-05-07T06:42:25Z</time>
      </trkpt>
      <trkpt lat="44.29568" lon="5.71241">
        <ele>825.20001220703</ele>
        <time>2016-05-07T06:42:26Z</time>
      </trkpt>
      <trkpt lat="44.29565" lon="5.71237">
        <ele>825.20001220703</ele>
        <time>2016-05-07T06:42:28Z</time>
      </trkpt>
      <trkpt lat="44.29557" lon="5.71221">
        <ele>825.59997558594</ele>
        <time>2016-05-07T06:42:36Z</time>
      </trkpt>
      <trkpt lat="44.29556" lon="5.71219">
        <ele>826.40002441406</ele>
        <time>2016-05-07T06:42:37Z</time>
      </trkpt>
      <trkpt lat="44.29555" lon="5.71217">
        <ele>826.79998779297</ele>
        <time>2016-05-07T06:42:38Z</time>
      </trkpt>
      <trkpt lat="44.29554" lon="5.71213">
        <ele>827.40002441406</ele>
        <time>2016-05-07T06:42:40Z</time>
      </trkpt>
      <trkpt lat="44.29552" lon="5.71204">
        <ele>827.40002441406</ele>
        <time>2016-05-07T06:42:44Z</time>
      </trkpt>
      <trkpt lat="44.29553" lon="5.71197">
        <ele>827.79998779297</ele>
        <time>2016-05-07T06:42:47Z</time>
      </trkpt>
      <trkpt lat="44.29554" lon="5.71195">
        <ele>828.59997558594</ele>
        <time>2016-05-07T06:42:48Z</time>
      </trkpt>
      <trkpt lat="44.29554" lon="5.71193">
        <ele>829</ele>
        <time>2016-05-07T06:42:49Z</time>
      </trkpt>
      <trkpt lat="44.29556" lon="5.71191">
        <ele>829</ele>
        <time>2016-05-07T06:42:50Z</time>
      </trkpt>
      <trkpt lat="44.29557" lon="5.71189">
        <ele>829.40002441406</ele>
        <time>2016-05-07T06:42:51Z</time>
      </trkpt>
      <trkpt lat="44.29564" lon="5.71185">
        <ele>829.40002441406</ele>
        <time>2016-05-07T06:42:55Z</time>
      </trkpt>
      <trkpt lat="44.29567" lon="5.71184">
        <ele>829.79998779297</ele>
        <time>2016-05-07T06:42:57Z</time>
      </trkpt>
      <trkpt lat="44.29569" lon="5.71184">
        <ele>830.20001220703</ele>
        <time>2016-05-07T06:42:58Z</time>
      </trkpt>
      <trkpt lat="44.29571" lon="5.71183">
        <ele>830.59997558594</ele>
        <time>2016-05-07T06:42:59Z</time>
      </trkpt>
      <trkpt lat="44.29573" lon="5.71183">
        <ele>831.59997558594</ele>
        <time>2016-05-07T06:43:00Z</time>
      </trkpt>
      <trkpt lat="44.29582" lon="5.71184">
        <ele>831.59997558594</ele>
        <time>2016-05-07T06:43:04Z</time>
      </trkpt>
      <trkpt lat="44.29598" lon="5.71187">
        <ele>831.59997558594</ele>
        <time>2016-05-07T06:43:11Z</time>
      </trkpt>
      <trkpt lat="44.29602" lon="5.71187">
        <ele>832</ele>
        <time>2016-05-07T06:43:13Z</time>
      </trkpt>
      <trkpt lat="44.29607" lon="5.71188">
        <ele>832.40002441406</ele>
        <time>2016-05-07T06:43:15Z</time>
      </trkpt>
      <trkpt lat="44.29609" lon="5.71188">
        <ele>832.79998779297</ele>
        <time>2016-05-07T06:43:16Z</time>
      </trkpt>
      <trkpt lat="44.2961" lon="5.71189">
        <ele>833.59997558594</ele>
        <time>2016-05-07T06:43:17Z</time>
      </trkpt>
      <trkpt lat="44.29615" lon="5.7119">
        <ele>833.59997558594</ele>
        <time>2016-05-07T06:43:19Z</time>
      </trkpt>
      <trkpt lat="44.29633" lon="5.71195">
        <ele>834</ele>
        <time>2016-05-07T06:43:27Z</time>
      </trkpt>
      <trkpt lat="44.29635" lon="5.71196">
        <ele>835</ele>
        <time>2016-05-07T06:43:28Z</time>
      </trkpt>
      <trkpt lat="44.29638" lon="5.71197">
        <ele>835.40002441406</ele>
        <time>2016-05-07T06:43:29Z</time>
      </trkpt>
      <trkpt lat="44.29642" lon="5.712">
        <ele>835.79998779297</ele>
        <time>2016-05-07T06:43:31Z</time>
      </trkpt>
      <trkpt lat="44.29647" lon="5.71206">
        <ele>835.79998779297</ele>
        <time>2016-05-07T06:43:34Z</time>
      </trkpt>
      <trkpt lat="44.29654" lon="5.71219">
        <ele>836.20001220703</ele>
        <time>2016-05-07T06:43:39Z</time>
      </trkpt>
      <trkpt lat="44.29656" lon="5.71222">
        <ele>836.59997558594</ele>
        <time>2016-05-07T06:43:40Z</time>
      </trkpt>
      <trkpt lat="44.29657" lon="5.71224">
        <ele>837</ele>
        <time>2016-05-07T06:43:41Z</time>
      </trkpt>
      <trkpt lat="44.2966" lon="5.71228">
        <ele>837.40002441406</ele>
        <time>2016-05-07T06:43:43Z</time>
      </trkpt>
      <trkpt lat="44.29662" lon="5.7123">
        <ele>837.79998779297</ele>
        <time>2016-05-07T06:43:44Z</time>
      </trkpt>
      <trkpt lat="44.29669" lon="5.71232">
        <ele>837.79998779297</ele>
        <time>2016-05-07T06:43:47Z</time>
      </trkpt>
      <trkpt lat="44.29676" lon="5.71222">
        <ele>837.79998779297</ele>
        <time>2016-05-07T06:43:52Z</time>
      </trkpt>
      <trkpt lat="44.29677" lon="5.71212">
        <ele>838.79998779297</ele>
        <time>2016-05-07T06:43:55Z</time>
      </trkpt>
      <trkpt lat="44.29676" lon="5.71208">
        <ele>839.20001220703</ele>
        <time>2016-05-07T06:43:56Z</time>
      </trkpt>
      <trkpt lat="44.29675" lon="5.71205">
        <ele>839.20001220703</ele>
        <time>2016-05-07T06:43:57Z</time>
      </trkpt>
      <trkpt lat="44.29673" lon="5.71199">
        <ele>839.59997558594</ele>
        <time>2016-05-07T06:43:59Z</time>
      </trkpt>
      <trkpt lat="44.29672" lon="5.71196">
        <ele>840</ele>
        <time>2016-05-07T06:44:00Z</time>
      </trkpt>
      <trkpt lat="44.29667" lon="5.71188">
        <ele>840.79998779297</ele>
        <time>2016-05-07T06:44:04Z</time>
      </trkpt>
      <trkpt lat="44.29666" lon="5.71185">
        <ele>841.20001220703</ele>
        <time>2016-05-07T06:44:05Z</time>
      </trkpt>
      <trkpt lat="44.29661" lon="5.71179">
        <ele>842</ele>
        <time>2016-05-07T06:44:08Z</time>
      </trkpt>
      <trkpt lat="44.29656" lon="5.71172">
        <ele>842</ele>
        <time>2016-05-07T06:44:11Z</time>
      </trkpt>
      <trkpt lat="44.29647" lon="5.71162">
        <ele>842.59997558594</ele>
        <time>2016-05-07T06:44:16Z</time>
      </trkpt>
      <trkpt lat="44.29642" lon="5.7116">
        <ele>843</ele>
        <time>2016-05-07T06:44:18Z</time>
      </trkpt>
      <trkpt lat="44.2964" lon="5.71158">
        <ele>843.40002441406</ele>
        <time>2016-05-07T06:44:19Z</time>
      </trkpt>
      <trkpt lat="44.29638" lon="5.71157">
        <ele>844.40002441406</ele>
        <time>2016-05-07T06:44:20Z</time>
      </trkpt>
      <trkpt lat="44.29626" lon="5.71148">
        <ele>844.40002441406</ele>
        <time>2016-05-07T06:44:26Z</time>
      </trkpt>
      <trkpt lat="44.29616" lon="5.71142">
        <ele>844.79998779297</ele>
        <time>2016-05-07T06:44:31Z</time>
      </trkpt>
      <trkpt lat="44.29614" lon="5.71141">
        <ele>845.20001220703</ele>
        <time>2016-05-07T06:44:32Z</time>
      </trkpt>
      <trkpt lat="44.2961" lon="5.71139">
        <ele>845.59997558594</ele>
        <time>2016-05-07T06:44:34Z</time>
      </trkpt>
      <trkpt lat="44.29608" lon="5.71138">
        <ele>846</ele>
        <time>2016-05-07T06:44:35Z</time>
      </trkpt>
      <trkpt lat="44.29606" lon="5.71136">
        <ele>846.40002441406</ele>
        <time>2016-05-07T06:44:36Z</time>
      </trkpt>
      <trkpt lat="44.29596" lon="5.71129">
        <ele>847.20001220703</ele>
        <time>2016-05-07T06:44:41Z</time>
      </trkpt>
      <trkpt lat="44.29593" lon="5.71127">
        <ele>847.59997558594</ele>
        <time>2016-05-07T06:44:42Z</time>
      </trkpt>
      <trkpt lat="44.29591" lon="5.71126">
        <ele>848</ele>
        <time>2016-05-07T06:44:43Z</time>
      </trkpt>
      <trkpt lat="44.29589" lon="5.71125">
        <ele>848</ele>
        <time>2016-05-07T06:44:44Z</time>
      </trkpt>
      <trkpt lat="44.29587" lon="5.71123">
        <ele>848.59997558594</ele>
        <time>2016-05-07T06:44:45Z</time>
      </trkpt>
      <trkpt lat="44.29572" lon="5.71115">
        <ele>848.59997558594</ele>
        <time>2016-05-07T06:44:52Z</time>
      </trkpt>
      <trkpt lat="44.29557" lon="5.71108">
        <ele>849</ele>
        <time>2016-05-07T06:44:59Z</time>
      </trkpt>
      <trkpt lat="44.29555" lon="5.71106">
        <ele>849.79998779297</ele>
        <time>2016-05-07T06:45:00Z</time>
      </trkpt>
      <trkpt lat="44.29554" lon="5.71106">
        <ele>850.20001220703</ele>
        <time>2016-05-07T06:45:01Z</time>
      </trkpt>
      <trkpt lat="44.29552" lon="5.71104">
        <ele>850.59997558594</ele>
        <time>2016-05-07T06:45:02Z</time>
      </trkpt>
      <trkpt lat="44.29548" lon="5.71094">
        <ele>851.40002441406</ele>
        <time>2016-05-07T06:45:06Z</time>
      </trkpt>
      <trkpt lat="44.29548" lon="5.71091">
        <ele>851.79998779297</ele>
        <time>2016-05-07T06:45:07Z</time>
      </trkpt>
      <trkpt lat="44.29548" lon="5.71089">
        <ele>852.20001220703</ele>
        <time>2016-05-07T06:45:09Z</time>
      </trkpt>
      <trkpt lat="44.29548" lon="5.71088">
        <ele>852.59997558594</ele>
        <time>2016-05-07T06:45:10Z</time>
      </trkpt>
      <trkpt lat="44.29548" lon="5.71088">
        <ele>852.59997558594</ele>
        <time>2016-05-07T06:45:11Z</time>
      </trkpt>
      <trkpt lat="44.29548" lon="5.71086">
        <ele>853.59997558594</ele>
        <time>2016-05-07T06:46:12Z</time>
      </trkpt>
      <trkpt lat="44.29548" lon="5.71085">
        <ele>854</ele>
        <time>2016-05-07T06:46:13Z</time>
      </trkpt>
      <trkpt lat="44.2955" lon="5.71085">
        <ele>854.40002441406</ele>
        <time>2016-05-07T06:46:15Z</time>
      </trkpt>
      <trkpt lat="44.29551" lon="5.71084">
        <ele>854.79998779297</ele>
        <time>2016-05-07T06:46:16Z</time>
      </trkpt>
      <trkpt lat="44.29553" lon="5.71082">
        <ele>854.79998779297</ele>
        <time>2016-05-07T06:46:17Z</time>
      </trkpt>
      <trkpt lat="44.29569" lon="5.71074">
        <ele>854.79998779297</ele>
        <time>2016-05-07T06:46:23Z</time>
      </trkpt>
      <trkpt lat="44.29577" lon="5.71075">
        <ele>854.79998779297</ele>
        <time>2016-05-07T06:46:25Z</time>
      </trkpt>
      <trkpt lat="44.2958" lon="5.71075">
        <ele>855.20001220703</ele>
        <time>2016-05-07T06:46:26Z</time>
      </trkpt>
      <trkpt lat="44.29583" lon="5.71075">
        <ele>855.59997558594</ele>
        <time>2016-05-07T06:46:27Z</time>
      </trkpt>
      <trkpt lat="44.29587" lon="5.71075">
        <ele>856.59997558594</ele>
        <time>2016-05-07T06:46:28Z</time>
      </trkpt>
      <trkpt lat="44.2959" lon="5.71075">
        <ele>857</ele>
        <time>2016-05-07T06:46:29Z</time>
      </trkpt>
      <trkpt lat="44.29608" lon="5.71076">
        <ele>857.40002441406</ele>
        <time>2016-05-07T06:46:34Z</time>
      </trkpt>
      <trkpt lat="44.29611" lon="5.71076">
        <ele>857.79998779297</ele>
        <time>2016-05-07T06:46:35Z</time>
      </trkpt>
      <trkpt lat="44.29614" lon="5.71076">
        <ele>858.20001220703</ele>
        <time>2016-05-07T06:46:36Z</time>
      </trkpt>
      <trkpt lat="44.2962" lon="5.71075">
        <ele>858.79998779297</ele>
        <time>2016-05-07T06:46:38Z</time>
      </trkpt>
      <trkpt lat="44.29623" lon="5.71075">
        <ele>859.20001220703</ele>
        <time>2016-05-07T06:46:39Z</time>
      </trkpt>
      <trkpt lat="44.2964" lon="5.71073">
        <ele>859.20001220703</ele>
        <time>2016-05-07T06:46:44Z</time>
      </trkpt>
      <trkpt lat="44.29646" lon="5.71073">
        <ele>859.59997558594</ele>
        <time>2016-05-07T06:46:46Z</time>
      </trkpt>
      <trkpt lat="44.29652" lon="5.71073">
        <ele>860</ele>
        <time>2016-05-07T06:46:48Z</time>
      </trkpt>
      <trkpt lat="44.29654" lon="5.71073">
        <ele>860.40002441406</ele>
        <time>2016-05-07T06:46:49Z</time>
      </trkpt>
      <trkpt lat="44.29657" lon="5.71072">
        <ele>861</ele>
        <time>2016-05-07T06:46:50Z</time>
      </trkpt>
      <trkpt lat="44.29659" lon="5.71071">
        <ele>861.40002441406</ele>
        <time>2016-05-07T06:46:51Z</time>
      </trkpt>
      <trkpt lat="44.29662" lon="5.71071">
        <ele>861.40002441406</ele>
        <time>2016-05-07T06:46:52Z</time>
      </trkpt>
      <trkpt lat="44.29684" lon="5.71063">
        <ele>861.40002441406</ele>
        <time>2016-05-07T06:47:00Z</time>
      </trkpt>
      <trkpt lat="44.29687" lon="5.71062">
        <ele>861.79998779297</ele>
        <time>2016-05-07T06:47:01Z</time>
      </trkpt>
      <trkpt lat="44.29689" lon="5.7106">
        <ele>862.59997558594</ele>
        <time>2016-05-07T06:47:02Z</time>
      </trkpt>
      <trkpt lat="44.29691" lon="5.71059">
        <ele>863</ele>
        <time>2016-05-07T06:47:03Z</time>
      </trkpt>
      <trkpt lat="44.29693" lon="5.71058">
        <ele>863.40002441406</ele>
        <time>2016-05-07T06:47:04Z</time>
      </trkpt>
      <trkpt lat="44.29702" lon="5.71049">
        <ele>863.40002441406</ele>
        <time>2016-05-07T06:47:08Z</time>
      </trkpt>
      <trkpt lat="44.29703" lon="5.71045">
        <ele>863.79998779297</ele>
        <time>2016-05-07T06:47:09Z</time>
      </trkpt>
      <trkpt lat="44.29705" lon="5.71038">
        <ele>864.40002441406</ele>
        <time>2016-05-07T06:47:11Z</time>
      </trkpt>
      <trkpt lat="44.29705" lon="5.71034">
        <ele>864.79998779297</ele>
        <time>2016-05-07T06:47:12Z</time>
      </trkpt>
      <trkpt lat="44.29704" lon="5.7103">
        <ele>865.59997558594</ele>
        <time>2016-05-07T06:47:13Z</time>
      </trkpt>
      <trkpt lat="44.29691" lon="5.71023">
        <ele>865.59997558594</ele>
        <time>2016-05-07T06:47:19Z</time>
      </trkpt>
      <trkpt lat="44.29688" lon="5.71026">
        <ele>866</ele>
        <time>2016-05-07T06:47:20Z</time>
      </trkpt>
      <trkpt lat="44.29686" lon="5.71027">
        <ele>866.40002441406</ele>
        <time>2016-05-07T06:47:21Z</time>
      </trkpt>
      <trkpt lat="44.29682" lon="5.7103">
        <ele>866.79998779297</ele>
        <time>2016-05-07T06:47:23Z</time>
      </trkpt>
      <trkpt lat="44.29679" lon="5.71031">
        <ele>867.20001220703</ele>
        <time>2016-05-07T06:47:24Z</time>
      </trkpt>
      <trkpt lat="44.29678" lon="5.71032">
        <ele>867.59997558594</ele>
        <time>2016-05-07T06:47:25Z</time>
      </trkpt>
      <trkpt lat="44.29674" lon="5.71035">
        <ele>868.20001220703</ele>
        <time>2016-05-07T06:47:27Z</time>
      </trkpt>
      <trkpt lat="44.29668" lon="5.71036">
        <ele>868.59997558594</ele>
        <time>2016-05-07T06:47:29Z</time>
      </trkpt>
      <trkpt lat="44.29666" lon="5.71035">
        <ele>869</ele>
        <time>2016-05-07T06:47:30Z</time>
      </trkpt>
      <trkpt lat="44.29663" lon="5.71034">
        <ele>869.79998779297</ele>
        <time>2016-05-07T06:47:31Z</time>
      </trkpt>
      <trkpt lat="44.29659" lon="5.71028">
        <ele>869.79998779297</ele>
        <time>2016-05-07T06:47:33Z</time>
      </trkpt>
      <trkpt lat="44.29659" lon="5.71024">
        <ele>869.79998779297</ele>
        <time>2016-05-07T06:47:34Z</time>
      </trkpt>
      <trkpt lat="44.29662" lon="5.71016">
        <ele>869.79998779297</ele>
        <time>2016-05-07T06:47:37Z</time>
      </trkpt>
      <trkpt lat="44.29664" lon="5.71015">
        <ele>870.79998779297</ele>
        <time>2016-05-07T06:47:38Z</time>
      </trkpt>
      <trkpt lat="44.29667" lon="5.71015">
        <ele>871.20001220703</ele>
        <time>2016-05-07T06:47:39Z</time>
      </trkpt>
      <trkpt lat="44.29668" lon="5.71015">
        <ele>871.59997558594</ele>
        <time>2016-05-07T06:47:40Z</time>
      </trkpt>
      <trkpt lat="44.29672" lon="5.71015">
        <ele>872</ele>
        <time>2016-05-07T06:47:42Z</time>
      </trkpt>
      <trkpt lat="44.29673" lon="5.71014">
        <ele>872</ele>
        <time>2016-05-07T06:47:43Z</time>
      </trkpt>
      <trkpt lat="44.29678" lon="5.71007">
        <ele>872.40002441406</ele>
        <time>2016-05-07T06:47:47Z</time>
      </trkpt>
      <trkpt lat="44.29679" lon="5.71005">
        <ele>873</ele>
        <time>2016-05-07T06:47:48Z</time>
      </trkpt>
      <trkpt lat="44.2968" lon="5.71003">
        <ele>873.40002441406</ele>
        <time>2016-05-07T06:47:49Z</time>
      </trkpt>
      <trkpt lat="44.29681" lon="5.71001">
        <ele>874.20001220703</ele>
        <time>2016-05-07T06:47:50Z</time>
      </trkpt>
      <trkpt lat="44.29682" lon="5.70999">
        <ele>874.20001220703</ele>
        <time>2016-05-07T06:47:51Z</time>
      </trkpt>
      <trkpt lat="44.29691" lon="5.7099">
        <ele>874.79998779297</ele>
        <time>2016-05-07T06:47:57Z</time>
      </trkpt>
      <trkpt lat="44.29692" lon="5.70989">
        <ele>875.20001220703</ele>
        <time>2016-05-07T06:47:58Z</time>
      </trkpt>
      <trkpt lat="44.29693" lon="5.70988">
        <ele>875.20001220703</ele>
        <time>2016-05-07T06:47:59Z</time>
      </trkpt>
      <trkpt lat="44.29694" lon="5.70987">
        <ele>875.59997558594</ele>
        <time>2016-05-07T06:48:00Z</time>
      </trkpt>
      <trkpt lat="44.29696" lon="5.70985">
        <ele>876</ele>
        <time>2016-05-07T06:48:01Z</time>
      </trkpt>
      <trkpt lat="44.29697" lon="5.70984">
        <ele>876.40002441406</ele>
        <time>2016-05-07T06:48:02Z</time>
      </trkpt>
      <trkpt lat="44.29704" lon="5.70976">
        <ele>877.40002441406</ele>
        <time>2016-05-07T06:48:08Z</time>
      </trkpt>
      <trkpt lat="44.29705" lon="5.70975">
        <ele>877.79998779297</ele>
        <time>2016-05-07T06:48:09Z</time>
      </trkpt>
      <trkpt lat="44.29706" lon="5.70974">
        <ele>878.20001220703</ele>
        <time>2016-05-07T06:48:10Z</time>
      </trkpt>
      <trkpt lat="44.29707" lon="5.70973">
        <ele>878.79998779297</ele>
        <time>2016-05-07T06:48:11Z</time>
      </trkpt>
      <trkpt lat="44.29716" lon="5.70963">
        <ele>879.20001220703</ele>
        <time>2016-05-07T06:48:19Z</time>
      </trkpt>
      <trkpt lat="44.29717" lon="5.70961">
        <ele>879.59997558594</ele>
        <time>2016-05-07T06:48:20Z</time>
      </trkpt>
      <trkpt lat="44.29719" lon="5.7096">
        <ele>880.40002441406</ele>
        <time>2016-05-07T06:48:21Z</time>
      </trkpt>
      <trkpt lat="44.2972" lon="5.70958">
        <ele>880.79998779297</ele>
        <time>2016-05-07T06:48:22Z</time>
      </trkpt>
      <trkpt lat="44.29723" lon="5.70952">
        <ele>881.40002441406</ele>
        <time>2016-05-07T06:48:25Z</time>
      </trkpt>
      <trkpt lat="44.29724" lon="5.7095">
        <ele>882.20001220703</ele>
        <time>2016-05-07T06:48:26Z</time>
      </trkpt>
      <trkpt lat="44.29725" lon="5.70948">
        <ele>882.59997558594</ele>
        <time>2016-05-07T06:48:27Z</time>
      </trkpt>
      <trkpt lat="44.29726" lon="5.70947">
        <ele>883</ele>
        <time>2016-05-07T06:48:28Z</time>
      </trkpt>
      <trkpt lat="44.29727" lon="5.70945">
        <ele>883</ele>
        <time>2016-05-07T06:48:29Z</time>
      </trkpt>
      <trkpt lat="44.29731" lon="5.70933">
        <ele>883.40002441406</ele>
        <time>2016-05-07T06:48:36Z</time>
      </trkpt>
      <trkpt lat="44.29731" lon="5.70929">
        <ele>884.20001220703</ele>
        <time>2016-05-07T06:48:38Z</time>
      </trkpt>
      <trkpt lat="44.29731" lon="5.70926">
        <ele>884.20001220703</ele>
        <time>2016-05-07T06:48:40Z</time>
      </trkpt>
      <trkpt lat="44.2973" lon="5.70924">
        <ele>884.59997558594</ele>
        <time>2016-05-07T06:48:41Z</time>
      </trkpt>
      <trkpt lat="44.29729" lon="5.70923">
        <ele>885</ele>
        <time>2016-05-07T06:48:42Z</time>
      </trkpt>
      <trkpt lat="44.29725" lon="5.70918">
        <ele>885.40002441406</ele>
        <time>2016-05-07T06:48:46Z</time>
      </trkpt>
      <trkpt lat="44.29722" lon="5.70917">
        <ele>885.79998779297</ele>
        <time>2016-05-07T06:48:48Z</time>
      </trkpt>
      <trkpt lat="44.29721" lon="5.70916">
        <ele>886.40002441406</ele>
        <time>2016-05-07T06:48:49Z</time>
      </trkpt>
      <trkpt lat="44.2972" lon="5.70916">
        <ele>887.20001220703</ele>
        <time>2016-05-07T06:48:50Z</time>
      </trkpt>
      <trkpt lat="44.29716" lon="5.70915">
        <ele>887.20001220703</ele>
        <time>2016-05-07T06:48:52Z</time>
      </trkpt>
      <trkpt lat="44.29713" lon="5.70913">
        <ele>887.20001220703</ele>
        <time>2016-05-07T06:48:54Z</time>
      </trkpt>
      <trkpt lat="44.29711" lon="5.7091">
        <ele>888.20001220703</ele>
        <time>2016-05-07T06:48:56Z</time>
      </trkpt>
      <trkpt lat="44.29709" lon="5.70909">
        <ele>888.59997558594</ele>
        <time>2016-05-07T06:48:57Z</time>
      </trkpt>
      <trkpt lat="44.29708" lon="5.70908">
        <ele>889</ele>
        <time>2016-05-07T06:48:58Z</time>
      </trkpt>
      <trkpt lat="44.29707" lon="5.70907">
        <ele>889</ele>
        <time>2016-05-07T06:48:59Z</time>
      </trkpt>
      <trkpt lat="44.29706" lon="5.70905">
        <ele>889.59997558594</ele>
        <time>2016-05-07T06:49:00Z</time>
      </trkpt>
      <trkpt lat="44.29702" lon="5.70902">
        <ele>889.59997558594</ele>
        <time>2016-05-07T06:49:03Z</time>
      </trkpt>
      <trkpt lat="44.29694" lon="5.70894">
        <ele>890</ele>
        <time>2016-05-07T06:49:09Z</time>
      </trkpt>
      <trkpt lat="44.29692" lon="5.70892">
        <ele>890.40002441406</ele>
        <time>2016-05-07T06:49:11Z</time>
      </trkpt>
      <trkpt lat="44.29691" lon="5.7089">
        <ele>890.79998779297</ele>
        <time>2016-05-07T06:49:12Z</time>
      </trkpt>
      <trkpt lat="44.2969" lon="5.70889">
        <ele>891.79998779297</ele>
        <time>2016-05-07T06:49:13Z</time>
      </trkpt>
      <trkpt lat="44.29689" lon="5.70887">
        <ele>891.79998779297</ele>
        <time>2016-05-07T06:49:14Z</time>
      </trkpt>
      <trkpt lat="44.29681" lon="5.70873">
        <ele>892.20001220703</ele>
        <time>2016-05-07T06:49:23Z</time>
      </trkpt>
      <trkpt lat="44.2968" lon="5.70871">
        <ele>893.20001220703</ele>
        <time>2016-05-07T06:49:24Z</time>
      </trkpt>
      <trkpt lat="44.29679" lon="5.7087">
        <ele>893.59997558594</ele>
        <time>2016-05-07T06:49:25Z</time>
      </trkpt>
      <trkpt lat="44.29678" lon="5.70866">
        <ele>894</ele>
        <time>2016-05-07T06:49:27Z</time>
      </trkpt>
      <trkpt lat="44.29673" lon="5.70858">
        <ele>894.40002441406</ele>
        <time>2016-05-07T06:49:32Z</time>
      </trkpt>
      <trkpt lat="44.29672" lon="5.70854">
        <ele>895</ele>
        <time>2016-05-07T06:49:34Z</time>
      </trkpt>
      <trkpt lat="44.29672" lon="5.70852">
        <ele>895.40002441406</ele>
        <time>2016-05-07T06:49:35Z</time>
      </trkpt>
      <trkpt lat="44.29671" lon="5.70851">
        <ele>896.20001220703</ele>
        <time>2016-05-07T06:49:36Z</time>
      </trkpt>
      <trkpt lat="44.29668" lon="5.7084">
        <ele>896.59997558594</ele>
        <time>2016-05-07T06:49:42Z</time>
      </trkpt>
      <trkpt lat="44.29667" lon="5.70838">
        <ele>897</ele>
        <time>2016-05-07T06:49:43Z</time>
      </trkpt>
      <trkpt lat="44.29665" lon="5.70836">
        <ele>897.40002441406</ele>
        <time>2016-05-07T06:49:44Z</time>
      </trkpt>
      <trkpt lat="44.29663" lon="5.70832">
        <ele>897.79998779297</ele>
        <time>2016-05-07T06:49:46Z</time>
      </trkpt>
      <trkpt lat="44.29662" lon="5.7083">
        <ele>898.20001220703</ele>
        <time>2016-05-07T06:49:47Z</time>
      </trkpt>
      <trkpt lat="44.2966" lon="5.7082">
        <ele>898.20001220703</ele>
        <time>2016-05-07T06:49:52Z</time>
      </trkpt>
      <trkpt lat="44.29658" lon="5.70814">
        <ele>898.59997558594</ele>
        <time>2016-05-07T06:49:55Z</time>
      </trkpt>
      <trkpt lat="44.29655" lon="5.7081">
        <ele>899</ele>
        <time>2016-05-07T06:49:57Z</time>
      </trkpt>
      <trkpt lat="44.29655" lon="5.70808">
        <ele>899.79998779297</ele>
        <time>2016-05-07T06:49:58Z</time>
      </trkpt>
      <trkpt lat="44.29654" lon="5.70806">
        <ele>900.20001220703</ele>
        <time>2016-05-07T06:49:59Z</time>
      </trkpt>
      <trkpt lat="44.29653" lon="5.70804">
        <ele>900.20001220703</ele>
        <time>2016-05-07T06:50:00Z</time>
      </trkpt>
      <trkpt lat="44.29646" lon="5.70789">
        <ele>900.59997558594</ele>
        <time>2016-05-07T06:50:08Z</time>
      </trkpt>
      <trkpt lat="44.29645" lon="5.70787">
        <ele>901</ele>
        <time>2016-05-07T06:50:09Z</time>
      </trkpt>
      <trkpt lat="44.29644" lon="5.70786">
        <ele>901.79998779297</ele>
        <time>2016-05-07T06:50:10Z</time>
      </trkpt>
      <trkpt lat="44.29644" lon="5.70785">
        <ele>902.20001220703</ele>
        <time>2016-05-07T06:50:11Z</time>
      </trkpt>
      <trkpt lat="44.29636" lon="5.70776">
        <ele>902.20001220703</ele>
        <time>2016-05-07T06:50:18Z</time>
      </trkpt>
      <trkpt lat="44.29633" lon="5.70773">
        <ele>903</ele>
        <time>2016-05-07T06:50:21Z</time>
      </trkpt>
      <trkpt lat="44.29631" lon="5.70772">
        <ele>903.59997558594</ele>
        <time>2016-05-07T06:50:22Z</time>
      </trkpt>
      <trkpt lat="44.2963" lon="5.70771">
        <ele>904</ele>
        <time>2016-05-07T06:50:23Z</time>
      </trkpt>
      <trkpt lat="44.29628" lon="5.70769">
        <ele>904.40002441406</ele>
        <time>2016-05-07T06:50:25Z</time>
      </trkpt>
      <trkpt lat="44.29624" lon="5.70766">
        <ele>904.40002441406</ele>
        <time>2016-05-07T06:50:28Z</time>
      </trkpt>
      <trkpt lat="44.2962" lon="5.70761">
        <ele>904.79998779297</ele>
        <time>2016-05-07T06:50:31Z</time>
      </trkpt>
      <trkpt lat="44.29618" lon="5.70759">
        <ele>905.20001220703</ele>
        <time>2016-05-07T06:50:32Z</time>
      </trkpt>
      <trkpt lat="44.29617" lon="5.70757">
        <ele>906</ele>
        <time>2016-05-07T06:50:33Z</time>
      </trkpt>
      <trkpt lat="44.29617" lon="5.70755">
        <ele>906.40002441406</ele>
        <time>2016-05-07T06:50:34Z</time>
      </trkpt>
      <trkpt lat="44.29617" lon="5.70753">
        <ele>906.40002441406</ele>
        <time>2016-05-07T06:50:35Z</time>
      </trkpt>
      <trkpt lat="44.2962" lon="5.70742">
        <ele>906.40002441406</ele>
        <time>2016-05-07T06:50:41Z</time>
      </trkpt>
      <trkpt lat="44.29622" lon="5.70741">
        <ele>906.40002441406</ele>
        <time>2016-05-07T06:50:42Z</time>
      </trkpt>
      <trkpt lat="44.29631" lon="5.7074">
        <ele>907.40002441406</ele>
        <time>2016-05-07T06:50:46Z</time>
      </trkpt>
      <trkpt lat="44.29634" lon="5.70743">
        <ele>907.79998779297</ele>
        <time>2016-05-07T06:50:48Z</time>
      </trkpt>
      <trkpt lat="44.29636" lon="5.70744">
        <ele>908.40002441406</ele>
        <time>2016-05-07T06:50:49Z</time>
      </trkpt>
      <trkpt lat="44.29638" lon="5.70746">
        <ele>908.79998779297</ele>
        <time>2016-05-07T06:50:50Z</time>
      </trkpt>
      <trkpt lat="44.29643" lon="5.7075">
        <ele>908.79998779297</ele>
        <time>2016-05-07T06:50:53Z</time>
      </trkpt>
      <trkpt lat="44.29659" lon="5.70757">
        <ele>908.79998779297</ele>
        <time>2016-05-07T06:51:02Z</time>
      </trkpt>
      <trkpt lat="44.29666" lon="5.7076">
        <ele>909.20001220703</ele>
        <time>2016-05-07T06:51:06Z</time>
      </trkpt>
      <trkpt lat="44.29668" lon="5.7076">
        <ele>909.79998779297</ele>
        <time>2016-05-07T06:51:07Z</time>
      </trkpt>
      <trkpt lat="44.2967" lon="5.7076">
        <ele>910.59997558594</ele>
        <time>2016-05-07T06:51:08Z</time>
      </trkpt>
      <trkpt lat="44.29671" lon="5.7076">
        <ele>911.20001220703</ele>
        <time>2016-05-07T06:51:09Z</time>
      </trkpt>
      <trkpt lat="44.29684" lon="5.70757">
        <ele>911.20001220703</ele>
        <time>2016-05-07T06:51:17Z</time>
      </trkpt>
      <trkpt lat="44.29692" lon="5.70757">
        <ele>911.59997558594</ele>
        <time>2016-05-07T06:51:21Z</time>
      </trkpt>
      <trkpt lat="44.29694" lon="5.70757">
        <ele>912</ele>
        <time>2016-05-07T06:51:22Z</time>
      </trkpt>
      <trkpt lat="44.29696" lon="5.70757">
        <ele>912.79998779297</ele>
        <time>2016-05-07T06:51:23Z</time>
      </trkpt>
      <trkpt lat="44.29697" lon="5.70757">
        <ele>913.20001220703</ele>
        <time>2016-05-07T06:51:24Z</time>
      </trkpt>
      <trkpt lat="44.29709" lon="5.70763">
        <ele>913.20001220703</ele>
        <time>2016-05-07T06:51:30Z</time>
      </trkpt>
      <trkpt lat="44.29713" lon="5.70768">
        <ele>913.59997558594</ele>
        <time>2016-05-07T06:51:33Z</time>
      </trkpt>
      <trkpt lat="44.29715" lon="5.70769">
        <ele>914.40002441406</ele>
        <time>2016-05-07T06:51:34Z</time>
      </trkpt>
      <trkpt lat="44.29716" lon="5.7077">
        <ele>914.79998779297</ele>
        <time>2016-05-07T06:51:35Z</time>
      </trkpt>
      <trkpt lat="44.29718" lon="5.70771">
        <ele>915.20001220703</ele>
        <time>2016-05-07T06:51:36Z</time>
      </trkpt>
      <trkpt lat="44.29721" lon="5.70772">
        <ele>915.20001220703</ele>
        <time>2016-05-07T06:51:37Z</time>
      </trkpt>
      <trkpt lat="44.29737" lon="5.70773">
        <ele>915.20001220703</ele>
        <time>2016-05-07T06:51:45Z</time>
      </trkpt>
      <trkpt lat="44.29746" lon="5.70771">
        <ele>916.20001220703</ele>
        <time>2016-05-07T06:51:50Z</time>
      </trkpt>
      <trkpt lat="44.29747" lon="5.7077">
        <ele>916.59997558594</ele>
        <time>2016-05-07T06:51:51Z</time>
      </trkpt>
      <trkpt lat="44.29749" lon="5.70769">
        <ele>916.59997558594</ele>
        <time>2016-05-07T06:51:52Z</time>
      </trkpt>
      <trkpt lat="44.2975" lon="5.70768">
        <ele>917</ele>
        <time>2016-05-07T06:51:53Z</time>
      </trkpt>
      <trkpt lat="44.29752" lon="5.70766">
        <ele>917.40002441406</ele>
        <time>2016-05-07T06:51:54Z</time>
      </trkpt>
      <trkpt lat="44.29756" lon="5.70756">
        <ele>917.40002441406</ele>
        <time>2016-05-07T06:51:58Z</time>
      </trkpt>
      <trkpt lat="44.29754" lon="5.70743">
        <ele>918</ele>
        <time>2016-05-07T06:52:03Z</time>
      </trkpt>
      <trkpt lat="44.29753" lon="5.70741">
        <ele>918</ele>
        <time>2016-05-07T06:52:04Z</time>
      </trkpt>
      <trkpt lat="44.29752" lon="5.70739">
        <ele>918.40002441406</ele>
        <time>2016-05-07T06:52:05Z</time>
      </trkpt>
      <trkpt lat="44.2975" lon="5.70737">
        <ele>918.79998779297</ele>
        <time>2016-05-07T06:52:06Z</time>
      </trkpt>
      <trkpt lat="44.29749" lon="5.70736">
        <ele>919.59997558594</ele>
        <time>2016-05-07T06:52:07Z</time>
      </trkpt>
      <trkpt lat="44.29744" lon="5.70732">
        <ele>919.59997558594</ele>
        <time>2016-05-07T06:52:10Z</time>
      </trkpt>
      <trkpt lat="44.29741" lon="5.7073">
        <ele>920.20001220703</ele>
        <time>2016-05-07T06:52:12Z</time>
      </trkpt>
      <trkpt lat="44.29739" lon="5.70729">
        <ele>921</ele>
        <time>2016-05-07T06:52:13Z</time>
      </trkpt>
      <trkpt lat="44.29738" lon="5.70727">
        <ele>921.40002441406</ele>
        <time>2016-05-07T06:52:14Z</time>
      </trkpt>
      <trkpt lat="44.29735" lon="5.70724">
        <ele>921.79998779297</ele>
        <time>2016-05-07T06:52:16Z</time>
      </trkpt>
      <trkpt lat="44.29733" lon="5.7072">
        <ele>921.79998779297</ele>
        <time>2016-05-07T06:52:18Z</time>
      </trkpt>
      <trkpt lat="44.29729" lon="5.70709">
        <ele>921.79998779297</ele>
        <time>2016-05-07T06:52:23Z</time>
      </trkpt>
      <trkpt lat="44.29729" lon="5.70704">
        <ele>921.79998779297</ele>
        <time>2016-05-07T06:52:25Z</time>
      </trkpt>
      <trkpt lat="44.29726" lon="5.70694">
        <ele>922.20001220703</ele>
        <time>2016-05-07T06:52:29Z</time>
      </trkpt>
      <trkpt lat="44.29725" lon="5.70692">
        <ele>922.59997558594</ele>
        <time>2016-05-07T06:52:30Z</time>
      </trkpt>
      <trkpt lat="44.29723" lon="5.70689">
        <ele>923.59997558594</ele>
        <time>2016-05-07T06:52:31Z</time>
      </trkpt>
      <trkpt lat="44.29721" lon="5.70687">
        <ele>924</ele>
        <time>2016-05-07T06:52:32Z</time>
      </trkpt>
      <trkpt lat="44.2972" lon="5.70685">
        <ele>924</ele>
        <time>2016-05-07T06:52:33Z</time>
      </trkpt>
      <trkpt lat="44.29711" lon="5.70666">
        <ele>924.79998779297</ele>
        <time>2016-05-07T06:52:42Z</time>
      </trkpt>
      <trkpt lat="44.2971" lon="5.70664">
        <ele>925.20001220703</ele>
        <time>2016-05-07T06:52:43Z</time>
      </trkpt>
      <trkpt lat="44.29709" lon="5.70662">
        <ele>925.79998779297</ele>
        <time>2016-05-07T06:52:44Z</time>
      </trkpt>
      <trkpt lat="44.29707" lon="5.70659">
        <ele>926.20001220703</ele>
        <time>2016-05-07T06:52:46Z</time>
      </trkpt>
      <trkpt lat="44.29702" lon="5.70652">
        <ele>926.20001220703</ele>
        <time>2016-05-07T06:52:50Z</time>
      </trkpt>
      <trkpt lat="44.29695" lon="5.70644">
        <ele>926.59997558594</ele>
        <time>2016-05-07T06:52:55Z</time>
      </trkpt>
      <trkpt lat="44.29694" lon="5.70642">
        <ele>927.20001220703</ele>
        <time>2016-05-07T06:52:56Z</time>
      </trkpt>
      <trkpt lat="44.29691" lon="5.70639">
        <ele>927.59997558594</ele>
        <time>2016-05-07T06:52:58Z</time>
      </trkpt>
      <trkpt lat="44.2969" lon="5.70638">
        <ele>928</ele>
        <time>2016-05-07T06:52:59Z</time>
      </trkpt>
      <trkpt lat="44.29689" lon="5.70637">
        <ele>928.59997558594</ele>
        <time>2016-05-07T06:53:00Z</time>
      </trkpt>
      <trkpt lat="44.29678" lon="5.70631">
        <ele>928.59997558594</ele>
        <time>2016-05-07T06:53:06Z</time>
      </trkpt>
      <trkpt lat="44.29673" lon="5.70627">
        <ele>929</ele>
        <time>2016-05-07T06:53:09Z</time>
      </trkpt>
      <trkpt lat="44.2967" lon="5.70626">
        <ele>929.79998779297</ele>
        <time>2016-05-07T06:53:11Z</time>
      </trkpt>
      <trkpt lat="44.29668" lon="5.70625">
        <ele>930.20001220703</ele>
        <time>2016-05-07T06:53:12Z</time>
      </trkpt>
      <trkpt lat="44.29667" lon="5.70624">
        <ele>930.79998779297</ele>
        <time>2016-05-07T06:53:13Z</time>
      </trkpt>
      <trkpt lat="44.29657" lon="5.70621">
        <ele>931.20001220703</ele>
        <time>2016-05-07T06:53:19Z</time>
      </trkpt>
      <trkpt lat="44.29654" lon="5.70621">
        <ele>931.59997558594</ele>
        <time>2016-05-07T06:53:21Z</time>
      </trkpt>
      <trkpt lat="44.29652" lon="5.70621">
        <ele>932</ele>
        <time>2016-05-07T06:53:22Z</time>
      </trkpt>
      <trkpt lat="44.2965" lon="5.70621">
        <ele>932.59997558594</ele>
        <time>2016-05-07T06:53:23Z</time>
      </trkpt>
      <trkpt lat="44.29649" lon="5.70621">
        <ele>933</ele>
        <time>2016-05-07T06:53:24Z</time>
      </trkpt>
      <trkpt lat="44.29638" lon="5.70618">
        <ele>933.40002441406</ele>
        <time>2016-05-07T06:53:31Z</time>
      </trkpt>
      <trkpt lat="44.29634" lon="5.70618">
        <ele>934</ele>
        <time>2016-05-07T06:53:33Z</time>
      </trkpt>
      <trkpt lat="44.29633" lon="5.70617">
        <ele>934.40002441406</ele>
        <time>2016-05-07T06:53:34Z</time>
      </trkpt>
      <trkpt lat="44.29632" lon="5.70616">
        <ele>935.40002441406</ele>
        <time>2016-05-07T06:53:35Z</time>
      </trkpt>
      <trkpt lat="44.29629" lon="5.70614">
        <ele>935.40002441406</ele>
        <time>2016-05-07T06:53:38Z</time>
      </trkpt>
      <trkpt lat="44.29623" lon="5.70607">
        <ele>935.79998779297</ele>
        <time>2016-05-07T06:53:43Z</time>
      </trkpt>
      <trkpt lat="44.29621" lon="5.70604">
        <ele>936.20001220703</ele>
        <time>2016-05-07T06:53:45Z</time>
      </trkpt>
      <trkpt lat="44.2962" lon="5.70602">
        <ele>937.20001220703</ele>
        <time>2016-05-07T06:53:46Z</time>
      </trkpt>
      <trkpt lat="44.29619" lon="5.70601">
        <ele>937.59997558594</ele>
        <time>2016-05-07T06:53:47Z</time>
      </trkpt>
      <trkpt lat="44.29618" lon="5.70599">
        <ele>937.59997558594</ele>
        <time>2016-05-07T06:53:48Z</time>
      </trkpt>
      <trkpt lat="44.29614" lon="5.7059">
        <ele>938</ele>
        <time>2016-05-07T06:53:54Z</time>
      </trkpt>
      <trkpt lat="44.29612" lon="5.70588">
        <ele>938.40002441406</ele>
        <time>2016-05-07T06:53:56Z</time>
      </trkpt>
      <trkpt lat="44.29611" lon="5.70587">
        <ele>939.20001220703</ele>
        <time>2016-05-07T06:53:57Z</time>
      </trkpt>
      <trkpt lat="44.2961" lon="5.70585">
        <ele>939.59997558594</ele>
        <time>2016-05-07T06:53:58Z</time>
      </trkpt>
      <trkpt lat="44.29603" lon="5.70575">
        <ele>939.59997558594</ele>
        <time>2016-05-07T06:54:05Z</time>
      </trkpt>
      <trkpt lat="44.296" lon="5.70569">
        <ele>940</ele>
        <time>2016-05-07T06:54:08Z</time>
      </trkpt>
      <trkpt lat="44.29599" lon="5.70567">
        <ele>940.40002441406</ele>
        <time>2016-05-07T06:54:09Z</time>
      </trkpt>
      <trkpt lat="44.29598" lon="5.70565">
        <ele>940.79998779297</ele>
        <time>2016-05-07T06:54:10Z</time>
      </trkpt>
      <trkpt lat="44.29597" lon="5.70563">
        <ele>941.20001220703</ele>
        <time>2016-05-07T06:54:11Z</time>
      </trkpt>
      <trkpt lat="44.29594" lon="5.7056">
        <ele>941.59997558594</ele>
        <time>2016-05-07T06:54:13Z</time>
      </trkpt>
      <trkpt lat="44.29593" lon="5.70558">
        <ele>941.59997558594</ele>
        <time>2016-05-07T06:54:14Z</time>
      </trkpt>
      <trkpt lat="44.29583" lon="5.70549">
        <ele>942</ele>
        <time>2016-05-07T06:54:22Z</time>
      </trkpt>
      <trkpt lat="44.29581" lon="5.70548">
        <ele>942</ele>
        <time>2016-05-07T06:54:23Z</time>
      </trkpt>
      <trkpt lat="44.2958" lon="5.70548">
        <ele>942.59997558594</ele>
        <time>2016-05-07T06:54:24Z</time>
      </trkpt>
      <trkpt lat="44.29578" lon="5.70547">
        <ele>943.40002441406</ele>
        <time>2016-05-07T06:54:25Z</time>
      </trkpt>
      <trkpt lat="44.29576" lon="5.70546">
        <ele>943.79998779297</ele>
        <time>2016-05-07T06:54:26Z</time>
      </trkpt>
      <trkpt lat="44.29562" lon="5.70541">
        <ele>943.79998779297</ele>
        <time>2016-05-07T06:54:34Z</time>
      </trkpt>
      <trkpt lat="44.2956" lon="5.70541">
        <ele>944.20001220703</ele>
        <time>2016-05-07T06:54:35Z</time>
      </trkpt>
      <trkpt lat="44.29558" lon="5.70541">
        <ele>945</ele>
        <time>2016-05-07T06:54:36Z</time>
      </trkpt>
      <trkpt lat="44.29556" lon="5.7054">
        <ele>945.40002441406</ele>
        <time>2016-05-07T06:54:37Z</time>
      </trkpt>
      <trkpt lat="44.29555" lon="5.7054">
        <ele>945.79998779297</ele>
        <time>2016-05-07T06:54:38Z</time>
      </trkpt>
      <trkpt lat="44.29549" lon="5.70538">
        <ele>945.79998779297</ele>
        <time>2016-05-07T06:54:42Z</time>
      </trkpt>
      <trkpt lat="44.29544" lon="5.70537">
        <ele>946.20001220703</ele>
        <time>2016-05-07T06:54:46Z</time>
      </trkpt>
      <trkpt lat="44.29542" lon="5.70537">
        <ele>947.20001220703</ele>
        <time>2016-05-07T06:54:47Z</time>
      </trkpt>
      <trkpt lat="44.29541" lon="5.70536">
        <ele>947.59997558594</ele>
        <time>2016-05-07T06:54:48Z</time>
      </trkpt>
      <trkpt lat="44.29539" lon="5.70536">
        <ele>948</ele>
        <time>2016-05-07T06:54:49Z</time>
      </trkpt>
      <trkpt lat="44.29538" lon="5.70536">
        <ele>948</ele>
        <time>2016-05-07T06:54:50Z</time>
      </trkpt>
      <trkpt lat="44.29525" lon="5.70536">
        <ele>948.79998779297</ele>
        <time>2016-05-07T06:54:58Z</time>
      </trkpt>
      <trkpt lat="44.29524" lon="5.70536">
        <ele>949.20001220703</ele>
        <time>2016-05-07T06:54:59Z</time>
      </trkpt>
      <trkpt lat="44.29522" lon="5.70537">
        <ele>949.20001220703</ele>
        <time>2016-05-07T06:55:00Z</time>
      </trkpt>
      <trkpt lat="44.29521" lon="5.70538">
        <ele>949.59997558594</ele>
        <time>2016-05-07T06:55:01Z</time>
      </trkpt>
      <trkpt lat="44.2952" lon="5.70539">
        <ele>950</ele>
        <time>2016-05-07T06:55:02Z</time>
      </trkpt>
      <trkpt lat="44.2951" lon="5.70546">
        <ele>951</ele>
        <time>2016-05-07T06:55:09Z</time>
      </trkpt>
      <trkpt lat="44.2951" lon="5.70547">
        <ele>951.40002441406</ele>
        <time>2016-05-07T06:55:10Z</time>
      </trkpt>
      <trkpt lat="44.29509" lon="5.70548">
        <ele>951.79998779297</ele>
        <time>2016-05-07T06:55:11Z</time>
      </trkpt>
      <trkpt lat="44.29506" lon="5.7055">
        <ele>952.20001220703</ele>
        <time>2016-05-07T06:55:13Z</time>
      </trkpt>
      <trkpt lat="44.29498" lon="5.70551">
        <ele>952.20001220703</ele>
        <time>2016-05-07T06:55:18Z</time>
      </trkpt>
      <trkpt lat="44.2949" lon="5.70552">
        <ele>952.59997558594</ele>
        <time>2016-05-07T06:55:23Z</time>
      </trkpt>
      <trkpt lat="44.29489" lon="5.70552">
        <ele>953.40002441406</ele>
        <time>2016-05-07T06:55:24Z</time>
      </trkpt>
      <trkpt lat="44.29488" lon="5.70552">
        <ele>953.79998779297</ele>
        <time>2016-05-07T06:55:25Z</time>
      </trkpt>
      <trkpt lat="44.29486" lon="5.70552">
        <ele>954.40002441406</ele>
        <time>2016-05-07T06:55:26Z</time>
      </trkpt>
      <trkpt lat="44.2948" lon="5.70552">
        <ele>954.40002441406</ele>
        <time>2016-05-07T06:55:30Z</time>
      </trkpt>
      <trkpt lat="44.29475" lon="5.70551">
        <ele>954.79998779297</ele>
        <time>2016-05-07T06:55:33Z</time>
      </trkpt>
      <trkpt lat="44.29472" lon="5.7055">
        <ele>955.59997558594</ele>
        <time>2016-05-07T06:55:35Z</time>
      </trkpt>
      <trkpt lat="44.29471" lon="5.7055">
        <ele>956</ele>
        <time>2016-05-07T06:55:36Z</time>
      </trkpt>
      <trkpt lat="44.29468" lon="5.70549">
        <ele>956.40002441406</ele>
        <time>2016-05-07T06:55:38Z</time>
      </trkpt>
      <trkpt lat="44.29467" lon="5.70549">
        <ele>956.40002441406</ele>
        <time>2016-05-07T06:55:39Z</time>
      </trkpt>
      <trkpt lat="44.29459" lon="5.70539">
        <ele>956.40002441406</ele>
        <time>2016-05-07T06:55:45Z</time>
      </trkpt>
      <trkpt lat="44.29457" lon="5.70533">
        <ele>956.79998779297</ele>
        <time>2016-05-07T06:55:48Z</time>
      </trkpt>
      <trkpt lat="44.29456" lon="5.70531">
        <ele>957.20001220703</ele>
        <time>2016-05-07T06:55:49Z</time>
      </trkpt>
      <trkpt lat="44.29455" lon="5.70529">
        <ele>958.20001220703</ele>
        <time>2016-05-07T06:55:50Z</time>
      </trkpt>
      <trkpt lat="44.29454" lon="5.70527">
        <ele>958.59997558594</ele>
        <time>2016-05-07T06:55:51Z</time>
      </trkpt>
      <trkpt lat="44.29453" lon="5.70526">
        <ele>958.59997558594</ele>
        <time>2016-05-07T06:55:52Z</time>
      </trkpt>
      <trkpt lat="44.29448" lon="5.70519">
        <ele>958.59997558594</ele>
        <time>2016-05-07T06:55:56Z</time>
      </trkpt>
      <trkpt lat="44.29443" lon="5.70514">
        <ele>959</ele>
        <time>2016-05-07T06:55:59Z</time>
      </trkpt>
      <trkpt lat="44.29442" lon="5.70513">
        <ele>959.79998779297</ele>
        <time>2016-05-07T06:56:00Z</time>
      </trkpt>
      <trkpt lat="44.2944" lon="5.70511">
        <ele>960.20001220703</ele>
        <time>2016-05-07T06:56:01Z</time>
      </trkpt>
      <trkpt lat="44.29439" lon="5.7051">
        <ele>960.59997558594</ele>
        <time>2016-05-07T06:56:02Z</time>
      </trkpt>
      <trkpt lat="44.29435" lon="5.70508">
        <ele>960.59997558594</ele>
        <time>2016-05-07T06:56:05Z</time>
      </trkpt>
      <trkpt lat="44.29426" lon="5.70505">
        <ele>961</ele>
        <time>2016-05-07T06:56:11Z</time>
      </trkpt>
      <trkpt lat="44.29424" lon="5.70505">
        <ele>961.40002441406</ele>
        <time>2016-05-07T06:56:12Z</time>
      </trkpt>
      <trkpt lat="44.29422" lon="5.70505">
        <ele>962.20001220703</ele>
        <time>2016-05-07T06:56:14Z</time>
      </trkpt>
      <trkpt lat="44.2942" lon="5.70504">
        <ele>962.59997558594</ele>
        <time>2016-05-07T06:56:15Z</time>
      </trkpt>
      <trkpt lat="44.29419" lon="5.70504">
        <ele>962.59997558594</ele>
        <time>2016-05-07T06:56:16Z</time>
      </trkpt>
      <trkpt lat="44.29407" lon="5.70503">
        <ele>962.59997558594</ele>
        <time>2016-05-07T06:56:24Z</time>
      </trkpt>
      <trkpt lat="44.29405" lon="5.70504">
        <ele>963.20001220703</ele>
        <time>2016-05-07T06:56:25Z</time>
      </trkpt>
      <trkpt lat="44.29404" lon="5.70505">
        <ele>963.59997558594</ele>
        <time>2016-05-07T06:56:26Z</time>
      </trkpt>
      <trkpt lat="44.29402" lon="5.70505">
        <ele>964</ele>
        <time>2016-05-07T06:56:27Z</time>
      </trkpt>
      <trkpt lat="44.29399" lon="5.70506">
        <ele>965</ele>
        <time>2016-05-07T06:56:29Z</time>
      </trkpt>
      <trkpt lat="44.29395" lon="5.70506">
        <ele>965</ele>
        <time>2016-05-07T06:56:31Z</time>
      </trkpt>
      <trkpt lat="44.29388" lon="5.70508">
        <ele>965.40002441406</ele>
        <time>2016-05-07T06:56:36Z</time>
      </trkpt>
      <trkpt lat="44.29386" lon="5.70508">
        <ele>965.79998779297</ele>
        <time>2016-05-07T06:56:37Z</time>
      </trkpt>
      <trkpt lat="44.29384" lon="5.70508">
        <ele>966.59997558594</ele>
        <time>2016-05-07T06:56:39Z</time>
      </trkpt>
      <trkpt lat="44.29383" lon="5.70508">
        <ele>967</ele>
        <time>2016-05-07T06:56:40Z</time>
      </trkpt>
      <trkpt lat="44.29374" lon="5.70508">
        <ele>967.40002441406</ele>
        <time>2016-05-07T06:56:47Z</time>
      </trkpt>
      <trkpt lat="44.29371" lon="5.70508">
        <ele>968.40002441406</ele>
        <time>2016-05-07T06:56:49Z</time>
      </trkpt>
      <trkpt lat="44.29369" lon="5.70507">
        <ele>968.79998779297</ele>
        <time>2016-05-07T06:56:50Z</time>
      </trkpt>
      <trkpt lat="44.29367" lon="5.70506">
        <ele>969.40002441406</ele>
        <time>2016-05-07T06:56:51Z</time>
      </trkpt>
      <trkpt lat="44.29353" lon="5.70501">
        <ele>969.40002441406</ele>
        <time>2016-05-07T06:57:01Z</time>
      </trkpt>
      <trkpt lat="44.29352" lon="5.70501">
        <ele>969.79998779297</ele>
        <time>2016-05-07T06:57:02Z</time>
      </trkpt>
      <trkpt lat="44.29349" lon="5.70498">
        <ele>970.59997558594</ele>
        <time>2016-05-07T06:57:04Z</time>
      </trkpt>
      <trkpt lat="44.29348" lon="5.70497">
        <ele>971</ele>
        <time>2016-05-07T06:57:05Z</time>
      </trkpt>
      <trkpt lat="44.29347" lon="5.70495">
        <ele>971.59997558594</ele>
        <time>2016-05-07T06:57:06Z</time>
      </trkpt>
      <trkpt lat="44.29344" lon="5.7049">
        <ele>971.59997558594</ele>
        <time>2016-05-07T06:57:09Z</time>
      </trkpt>
      <trkpt lat="44.2934" lon="5.70482">
        <ele>972.40002441406</ele>
        <time>2016-05-07T06:57:14Z</time>
      </trkpt>
      <trkpt lat="44.29339" lon="5.7048">
        <ele>972.79998779297</ele>
        <time>2016-05-07T06:57:15Z</time>
      </trkpt>
      <trkpt lat="44.29338" lon="5.70479">
        <ele>973.20001220703</ele>
        <time>2016-05-07T06:57:16Z</time>
      </trkpt>
      <trkpt lat="44.29337" lon="5.70478">
        <ele>973.59997558594</ele>
        <time>2016-05-07T06:57:17Z</time>
      </trkpt>
      <trkpt lat="44.29335" lon="5.70475">
        <ele>973.59997558594</ele>
        <time>2016-05-07T06:57:19Z</time>
      </trkpt>
      <trkpt lat="44.29324" lon="5.7046">
        <ele>974.40002441406</ele>
        <time>2016-05-07T06:57:29Z</time>
      </trkpt>
      <trkpt lat="44.29323" lon="5.70458">
        <ele>974.79998779297</ele>
        <time>2016-05-07T06:57:30Z</time>
      </trkpt>
      <trkpt lat="44.29322" lon="5.70457">
        <ele>975.20001220703</ele>
        <time>2016-05-07T06:57:31Z</time>
      </trkpt>
      <trkpt lat="44.29321" lon="5.70455">
        <ele>975.59997558594</ele>
        <time>2016-05-07T06:57:32Z</time>
      </trkpt>
      <trkpt lat="44.29314" lon="5.70445">
        <ele>976.20001220703</ele>
        <time>2016-05-07T06:57:42Z</time>
      </trkpt>
      <trkpt lat="44.29314" lon="5.70444">
        <ele>976.20001220703</ele>
        <time>2016-05-07T06:57:43Z</time>
      </trkpt>
      <trkpt lat="44.29313" lon="5.70444">
        <ele>976.59997558594</ele>
        <time>2016-05-07T06:57:44Z</time>
      </trkpt>
      <trkpt lat="44.29312" lon="5.70444">
        <ele>977.40002441406</ele>
        <time>2016-05-07T06:57:45Z</time>
      </trkpt>
      <trkpt lat="44.2931" lon="5.70444">
        <ele>978</ele>
        <time>2016-05-07T06:57:46Z</time>
      </trkpt>
      <trkpt lat="44.29303" lon="5.70437">
        <ele>978.40002441406</ele>
        <time>2016-05-07T06:57:52Z</time>
      </trkpt>
      <trkpt lat="44.29302" lon="5.70436">
        <ele>978.40002441406</ele>
        <time>2016-05-07T06:57:53Z</time>
      </trkpt>
      <trkpt lat="44.29301" lon="5.70434">
        <ele>978.79998779297</ele>
        <time>2016-05-07T06:57:54Z</time>
      </trkpt>
      <trkpt lat="44.293" lon="5.70433">
        <ele>979.59997558594</ele>
        <time>2016-05-07T06:57:55Z</time>
      </trkpt>
      <trkpt lat="44.29299" lon="5.70431">
        <ele>980</ele>
        <time>2016-05-07T06:57:56Z</time>
      </trkpt>
      <trkpt lat="44.29291" lon="5.70421">
        <ele>980</ele>
        <time>2016-05-07T06:58:03Z</time>
      </trkpt>
      <trkpt lat="44.29289" lon="5.70418">
        <ele>980.40002441406</ele>
        <time>2016-05-07T06:58:05Z</time>
      </trkpt>
      <trkpt lat="44.29288" lon="5.70416">
        <ele>981</ele>
        <time>2016-05-07T06:58:06Z</time>
      </trkpt>
      <trkpt lat="44.29287" lon="5.70415">
        <ele>981.40002441406</ele>
        <time>2016-05-07T06:58:07Z</time>
      </trkpt>
      <trkpt lat="44.29285" lon="5.70413">
        <ele>981.79998779297</ele>
        <time>2016-05-07T06:58:08Z</time>
      </trkpt>
      <trkpt lat="44.29283" lon="5.7041">
        <ele>982.20001220703</ele>
        <time>2016-05-07T06:58:10Z</time>
      </trkpt>
      <trkpt lat="44.29277" lon="5.70403">
        <ele>982.20001220703</ele>
        <time>2016-05-07T06:58:15Z</time>
      </trkpt>
      <trkpt lat="44.29271" lon="5.70394">
        <ele>983</ele>
        <time>2016-05-07T06:58:20Z</time>
      </trkpt>
      <trkpt lat="44.29271" lon="5.70392">
        <ele>983.40002441406</ele>
        <time>2016-05-07T06:58:21Z</time>
      </trkpt>
      <trkpt lat="44.29269" lon="5.7039">
        <ele>983.79998779297</ele>
        <time>2016-05-07T06:58:22Z</time>
      </trkpt>
      <trkpt lat="44.29268" lon="5.70386">
        <ele>984.40002441406</ele>
        <time>2016-05-07T06:58:24Z</time>
      </trkpt>
      <trkpt lat="44.29266" lon="5.70381">
        <ele>984.40002441406</ele>
        <time>2016-05-07T06:58:27Z</time>
      </trkpt>
      <trkpt lat="44.29262" lon="5.70368">
        <ele>984.79998779297</ele>
        <time>2016-05-07T06:58:34Z</time>
      </trkpt>
      <trkpt lat="44.29261" lon="5.70366">
        <ele>985.59997558594</ele>
        <time>2016-05-07T06:58:35Z</time>
      </trkpt>
      <trkpt lat="44.29261" lon="5.70364">
        <ele>986</ele>
        <time>2016-05-07T06:58:36Z</time>
      </trkpt>
      <trkpt lat="44.2926" lon="5.70362">
        <ele>986.40002441406</ele>
        <time>2016-05-07T06:58:37Z</time>
      </trkpt>
      <trkpt lat="44.29259" lon="5.7036">
        <ele>986.40002441406</ele>
        <time>2016-05-07T06:58:38Z</time>
      </trkpt>
      <trkpt lat="44.29255" lon="5.7035">
        <ele>986.40002441406</ele>
        <time>2016-05-07T06:58:43Z</time>
      </trkpt>
      <trkpt lat="44.29253" lon="5.70346">
        <ele>987.40002441406</ele>
        <time>2016-05-07T06:58:45Z</time>
      </trkpt>
      <trkpt lat="44.29252" lon="5.70344">
        <ele>987.79998779297</ele>
        <time>2016-05-07T06:58:46Z</time>
      </trkpt>
      <trkpt lat="44.29251" lon="5.70342">
        <ele>988.20001220703</ele>
        <time>2016-05-07T06:58:47Z</time>
      </trkpt>
      <trkpt lat="44.2925" lon="5.70341">
        <ele>988.59997558594</ele>
        <time>2016-05-07T06:58:48Z</time>
      </trkpt>
      <trkpt lat="44.29249" lon="5.70339">
        <ele>988.59997558594</ele>
        <time>2016-05-07T06:58:49Z</time>
      </trkpt>
      <trkpt lat="44.29242" lon="5.70332">
        <ele>989</ele>
        <time>2016-05-07T06:58:55Z</time>
      </trkpt>
      <trkpt lat="44.2924" lon="5.70331">
        <ele>989.40002441406</ele>
        <time>2016-05-07T06:58:56Z</time>
      </trkpt>
      <trkpt lat="44.29239" lon="5.70329">
        <ele>989.79998779297</ele>
        <time>2016-05-07T06:58:57Z</time>
      </trkpt>
      <trkpt lat="44.29237" lon="5.70326">
        <ele>990.20001220703</ele>
        <time>2016-05-07T06:58:59Z</time>
      </trkpt>
      <trkpt lat="44.29236" lon="5.70325">
        <ele>990.59997558594</ele>
        <time>2016-05-07T06:59:00Z</time>
      </trkpt>
      <trkpt lat="44.29232" lon="5.70319">
        <ele>990.59997558594</ele>
        <time>2016-05-07T06:59:04Z</time>
      </trkpt>
      <trkpt lat="44.29229" lon="5.70317">
        <ele>991.40002441406</ele>
        <time>2016-05-07T06:59:06Z</time>
      </trkpt>
      <trkpt lat="44.29227" lon="5.70315">
        <ele>991.79998779297</ele>
        <time>2016-05-07T06:59:07Z</time>
      </trkpt>
      <trkpt lat="44.29226" lon="5.70314">
        <ele>992.20001220703</ele>
        <time>2016-05-07T06:59:08Z</time>
      </trkpt>
      <trkpt lat="44.29224" lon="5.70311">
        <ele>992.59997558594</ele>
        <time>2016-05-07T06:59:10Z</time>
      </trkpt>
      <trkpt lat="44.29222" lon="5.70308">
        <ele>992.59997558594</ele>
        <time>2016-05-07T06:59:12Z</time>
      </trkpt>
      <trkpt lat="44.29217" lon="5.70301">
        <ele>993.40002441406</ele>
        <time>2016-05-07T06:59:16Z</time>
      </trkpt>
      <trkpt lat="44.29216" lon="5.70299">
        <ele>994</ele>
        <time>2016-05-07T06:59:17Z</time>
      </trkpt>
      <trkpt lat="44.29215" lon="5.70297">
        <ele>994.40002441406</ele>
        <time>2016-05-07T06:59:18Z</time>
      </trkpt>
      <trkpt lat="44.29213" lon="5.70294">
        <ele>994.79998779297</ele>
        <time>2016-05-07T06:59:20Z</time>
      </trkpt>
      <trkpt lat="44.29212" lon="5.70292">
        <ele>994.79998779297</ele>
        <time>2016-05-07T06:59:21Z</time>
      </trkpt>
      <trkpt lat="44.29203" lon="5.70281">
        <ele>994.79998779297</ele>
        <time>2016-05-07T06:59:28Z</time>
      </trkpt>
      <trkpt lat="44.29202" lon="5.70279">
        <ele>995.20001220703</ele>
        <time>2016-05-07T06:59:29Z</time>
      </trkpt>
      <trkpt lat="44.29199" lon="5.70276">
        <ele>995.59997558594</ele>
        <time>2016-05-07T06:59:31Z</time>
      </trkpt>
      <trkpt lat="44.29198" lon="5.70275">
        <ele>996.40002441406</ele>
        <time>2016-05-07T06:59:32Z</time>
      </trkpt>
      <trkpt lat="44.29197" lon="5.70274">
        <ele>997</ele>
        <time>2016-05-07T06:59:33Z</time>
      </trkpt>
      <trkpt lat="44.29194" lon="5.70272">
        <ele>997</ele>
        <time>2016-05-07T06:59:35Z</time>
      </trkpt>
      <trkpt lat="44.29184" lon="5.70266">
        <ele>997.40002441406</ele>
        <time>2016-05-07T06:59:42Z</time>
      </trkpt>
      <trkpt lat="44.29182" lon="5.70265">
        <ele>998.20001220703</ele>
        <time>2016-05-07T06:59:43Z</time>
      </trkpt>
      <trkpt lat="44.29181" lon="5.70264">
        <ele>998.59997558594</ele>
        <time>2016-05-07T06:59:44Z</time>
      </trkpt>
      <trkpt lat="44.29179" lon="5.70264">
        <ele>999</ele>
        <time>2016-05-07T06:59:45Z</time>
      </trkpt>
      <trkpt lat="44.29164" lon="5.70259">
        <ele>999.40002441406</ele>
        <time>2016-05-07T06:59:55Z</time>
      </trkpt>
      <trkpt lat="44.29162" lon="5.70258">
        <ele>999.79998779297</ele>
        <time>2016-05-07T06:59:56Z</time>
      </trkpt>
      <trkpt lat="44.29159" lon="5.70256">
        <ele>1000.4000244141</ele>
        <time>2016-05-07T06:59:58Z</time>
      </trkpt>
      <trkpt lat="44.29158" lon="5.70255">
        <ele>1001.200012207</ele>
        <time>2016-05-07T06:59:59Z</time>
      </trkpt>
      <trkpt lat="44.2915" lon="5.70247">
        <ele>1001.200012207</ele>
        <time>2016-05-07T07:00:05Z</time>
      </trkpt>
      <trkpt lat="44.29144" lon="5.70238">
        <ele>1001.5999755859</ele>
        <time>2016-05-07T07:00:11Z</time>
      </trkpt>
      <trkpt lat="44.29143" lon="5.70237">
        <ele>1002.200012207</ele>
        <time>2016-05-07T07:00:12Z</time>
      </trkpt>
      <trkpt lat="44.29141" lon="5.70234">
        <ele>1002.5999755859</ele>
        <time>2016-05-07T07:00:14Z</time>
      </trkpt>
      <trkpt lat="44.29138" lon="5.70231">
        <ele>1003</ele>
        <time>2016-05-07T07:00:16Z</time>
      </trkpt>
      <trkpt lat="44.29136" lon="5.7023">
        <ele>1003.5999755859</ele>
        <time>2016-05-07T07:00:17Z</time>
      </trkpt>
      <trkpt lat="44.2913" lon="5.70218">
        <ele>1004</ele>
        <time>2016-05-07T07:00:23Z</time>
      </trkpt>
      <trkpt lat="44.2913" lon="5.70217">
        <ele>1004.4000244141</ele>
        <time>2016-05-07T07:00:24Z</time>
      </trkpt>
      <trkpt lat="44.29129" lon="5.70215">
        <ele>1004.799987793</ele>
        <time>2016-05-07T07:00:25Z</time>
      </trkpt>
      <trkpt lat="44.29128" lon="5.70213">
        <ele>1005.200012207</ele>
        <time>2016-05-07T07:00:26Z</time>
      </trkpt>
      <trkpt lat="44.29128" lon="5.70211">
        <ele>1005.799987793</ele>
        <time>2016-05-07T07:00:27Z</time>
      </trkpt>
      <trkpt lat="44.29121" lon="5.70198">
        <ele>1005.799987793</ele>
        <time>2016-05-07T07:00:34Z</time>
      </trkpt>
      <trkpt lat="44.2912" lon="5.70196">
        <ele>1006.200012207</ele>
        <time>2016-05-07T07:00:35Z</time>
      </trkpt>
      <trkpt lat="44.29119" lon="5.70195">
        <ele>1006.5999755859</ele>
        <time>2016-05-07T07:00:36Z</time>
      </trkpt>
      <trkpt lat="44.29119" lon="5.70193">
        <ele>1007</ele>
        <time>2016-05-07T07:00:37Z</time>
      </trkpt>
      <trkpt lat="44.29118" lon="5.70191">
        <ele>1007.4000244141</ele>
        <time>2016-05-07T07:00:38Z</time>
      </trkpt>
      <trkpt lat="44.29117" lon="5.70189">
        <ele>1007.799987793</ele>
        <time>2016-05-07T07:00:39Z</time>
      </trkpt>
      <trkpt lat="44.29115" lon="5.70184">
        <ele>1007.799987793</ele>
        <time>2016-05-07T07:00:42Z</time>
      </trkpt>
      <trkpt lat="44.29111" lon="5.70177">
        <ele>1008.4000244141</ele>
        <time>2016-05-07T07:00:46Z</time>
      </trkpt>
      <trkpt lat="44.2911" lon="5.70176">
        <ele>1008.799987793</ele>
        <time>2016-05-07T07:00:47Z</time>
      </trkpt>
      <trkpt lat="44.2911" lon="5.70174">
        <ele>1009.200012207</ele>
        <time>2016-05-07T07:00:48Z</time>
      </trkpt>
      <trkpt lat="44.2911" lon="5.70172">
        <ele>1009.5999755859</ele>
        <time>2016-05-07T07:00:49Z</time>
      </trkpt>
      <trkpt lat="44.29109" lon="5.70171">
        <ele>1010.200012207</ele>
        <time>2016-05-07T07:00:50Z</time>
      </trkpt>
      <trkpt lat="44.29104" lon="5.70155">
        <ele>1010.5999755859</ele>
        <time>2016-05-07T07:00:58Z</time>
      </trkpt>
      <trkpt lat="44.29103" lon="5.70153">
        <ele>1011</ele>
        <time>2016-05-07T07:00:59Z</time>
      </trkpt>
      <trkpt lat="44.29103" lon="5.70152">
        <ele>1011.4000244141</ele>
        <time>2016-05-07T07:01:00Z</time>
      </trkpt>
      <trkpt lat="44.29102" lon="5.7015">
        <ele>1011.799987793</ele>
        <time>2016-05-07T07:01:01Z</time>
      </trkpt>
      <trkpt lat="44.29101" lon="5.70148">
        <ele>1012.200012207</ele>
        <time>2016-05-07T07:01:02Z</time>
      </trkpt>
      <trkpt lat="44.29099" lon="5.70141">
        <ele>1012.200012207</ele>
        <time>2016-05-07T07:01:06Z</time>
      </trkpt>
      <trkpt lat="44.29095" lon="5.70136">
        <ele>1012.5999755859</ele>
        <time>2016-05-07T07:01:10Z</time>
      </trkpt>
      <trkpt lat="44.29094" lon="5.70134">
        <ele>1013</ele>
        <time>2016-05-07T07:01:11Z</time>
      </trkpt>
      <trkpt lat="44.29093" lon="5.70133">
        <ele>1013.4000244141</ele>
        <time>2016-05-07T07:01:12Z</time>
      </trkpt>
      <trkpt lat="44.29092" lon="5.70132">
        <ele>1013.799987793</ele>
        <time>2016-05-07T07:01:13Z</time>
      </trkpt>
      <trkpt lat="44.29091" lon="5.7013">
        <ele>1014.200012207</ele>
        <time>2016-05-07T07:01:14Z</time>
      </trkpt>
      <trkpt lat="44.29083" lon="5.70123">
        <ele>1014.799987793</ele>
        <time>2016-05-07T07:01:21Z</time>
      </trkpt>
      <trkpt lat="44.29082" lon="5.70122">
        <ele>1015.200012207</ele>
        <time>2016-05-07T07:01:22Z</time>
      </trkpt>
      <trkpt lat="44.29081" lon="5.70121">
        <ele>1015.5999755859</ele>
        <time>2016-05-07T07:01:23Z</time>
      </trkpt>
      <trkpt lat="44.2908" lon="5.7012">
        <ele>1016</ele>
        <time>2016-05-07T07:01:24Z</time>
      </trkpt>
      <trkpt lat="44.29078" lon="5.70119">
        <ele>1016.5999755859</ele>
        <time>2016-05-07T07:01:25Z</time>
      </trkpt>
      <trkpt lat="44.29072" lon="5.70115">
        <ele>1016.5999755859</ele>
        <time>2016-05-07T07:01:29Z</time>
      </trkpt>
      <trkpt lat="44.29065" lon="5.7011">
        <ele>1017</ele>
        <time>2016-05-07T07:01:34Z</time>
      </trkpt>
      <trkpt lat="44.29064" lon="5.70109">
        <ele>1017.4000244141</ele>
        <time>2016-05-07T07:01:35Z</time>
      </trkpt>
      <trkpt lat="44.29063" lon="5.70108">
        <ele>1017.799987793</ele>
        <time>2016-05-07T07:01:36Z</time>
      </trkpt>
      <trkpt lat="44.29062" lon="5.70107">
        <ele>1018.200012207</ele>
        <time>2016-05-07T07:01:37Z</time>
      </trkpt>
      <trkpt lat="44.2906" lon="5.70106">
        <ele>1018.5999755859</ele>
        <time>2016-05-07T07:01:38Z</time>
      </trkpt>
      <trkpt lat="44.29058" lon="5.70105">
        <ele>1018.5999755859</ele>
        <time>2016-05-07T07:01:40Z</time>
      </trkpt>
      <trkpt lat="44.29053" lon="5.70104">
        <ele>1018.5999755859</ele>
        <time>2016-05-07T07:01:44Z</time>
      </trkpt>
      <trkpt lat="44.29042" lon="5.70102">
        <ele>1019</ele>
        <time>2016-05-07T07:01:49Z</time>
      </trkpt>
      <trkpt lat="44.29041" lon="5.70103">
        <ele>1019.4000244141</ele>
        <time>2016-05-07T07:01:50Z</time>
      </trkpt>
      <trkpt lat="44.29039" lon="5.70103">
        <ele>1019.799987793</ele>
        <time>2016-05-07T07:01:51Z</time>
      </trkpt>
      <trkpt lat="44.29037" lon="5.70104">
        <ele>1020.4000244141</ele>
        <time>2016-05-07T07:01:52Z</time>
      </trkpt>
      <trkpt lat="44.29036" lon="5.70104">
        <ele>1020.799987793</ele>
        <time>2016-05-07T07:01:53Z</time>
      </trkpt>
      <trkpt lat="44.29027" lon="5.70115">
        <ele>1020.799987793</ele>
        <time>2016-05-07T07:02:00Z</time>
      </trkpt>
      <trkpt lat="44.29025" lon="5.70119">
        <ele>1020.799987793</ele>
        <time>2016-05-07T07:02:02Z</time>
      </trkpt>
      <trkpt lat="44.29023" lon="5.70129">
        <ele>1021.200012207</ele>
        <time>2016-05-07T07:02:06Z</time>
      </trkpt>
      <trkpt lat="44.29022" lon="5.70131">
        <ele>1021.5999755859</ele>
        <time>2016-05-07T07:02:07Z</time>
      </trkpt>
      <trkpt lat="44.29022" lon="5.70134">
        <ele>1022.200012207</ele>
        <time>2016-05-07T07:02:08Z</time>
      </trkpt>
      <trkpt lat="44.29022" lon="5.70136">
        <ele>1022.5999755859</ele>
        <time>2016-05-07T07:02:09Z</time>
      </trkpt>
      <trkpt lat="44.29021" lon="5.70139">
        <ele>1023</ele>
        <time>2016-05-07T07:02:10Z</time>
      </trkpt>
      <trkpt lat="44.2902" lon="5.7016">
        <ele>1023.5999755859</ele>
        <time>2016-05-07T07:02:19Z</time>
      </trkpt>
      <trkpt lat="44.2902" lon="5.70163">
        <ele>1024</ele>
        <time>2016-05-07T07:02:20Z</time>
      </trkpt>
      <trkpt lat="44.2902" lon="5.70166">
        <ele>1024.4000244141</ele>
        <time>2016-05-07T07:02:22Z</time>
      </trkpt>
      <trkpt lat="44.2902" lon="5.70168">
        <ele>1024.8000488281</ele>
        <time>2016-05-07T07:02:23Z</time>
      </trkpt>
      <trkpt lat="44.2902" lon="5.70171">
        <ele>1025.1999511719</ele>
        <time>2016-05-07T07:02:24Z</time>
      </trkpt>
      <trkpt lat="44.29017" lon="5.70189">
        <ele>1025.1999511719</ele>
        <time>2016-05-07T07:02:31Z</time>
      </trkpt>
      <trkpt lat="44.29016" lon="5.70191">
        <ele>1025.8000488281</ele>
        <time>2016-05-07T07:02:32Z</time>
      </trkpt>
      <trkpt lat="44.29015" lon="5.70194">
        <ele>1026.1999511719</ele>
        <time>2016-05-07T07:02:33Z</time>
      </trkpt>
      <trkpt lat="44.29014" lon="5.70196">
        <ele>1026.5999755859</ele>
        <time>2016-05-07T07:02:34Z</time>
      </trkpt>
      <trkpt lat="44.29013" lon="5.70201">
        <ele>1027.1999511719</ele>
        <time>2016-05-07T07:02:36Z</time>
      </trkpt>
      <trkpt lat="44.29012" lon="5.70203">
        <ele>1027.5999755859</ele>
        <time>2016-05-07T07:02:37Z</time>
      </trkpt>
      <trkpt lat="44.29008" lon="5.70206">
        <ele>1027.5999755859</ele>
        <time>2016-05-07T07:02:39Z</time>
      </trkpt>
      <trkpt lat="44.29005" lon="5.70209">
        <ele>1028</ele>
        <time>2016-05-07T07:02:41Z</time>
      </trkpt>
      <trkpt lat="44.29004" lon="5.7021">
        <ele>1028.4000244141</ele>
        <time>2016-05-07T07:02:42Z</time>
      </trkpt>
      <trkpt lat="44.29002" lon="5.70211">
        <ele>1029</ele>
        <time>2016-05-07T07:02:43Z</time>
      </trkpt>
      <trkpt lat="44.29" lon="5.70212">
        <ele>1029.4000244141</ele>
        <time>2016-05-07T07:02:44Z</time>
      </trkpt>
      <trkpt lat="44.28998" lon="5.70212">
        <ele>1029.8000488281</ele>
        <time>2016-05-07T07:02:45Z</time>
      </trkpt>
      <trkpt lat="44.28995" lon="5.70212">
        <ele>1029.8000488281</ele>
        <time>2016-05-07T07:02:47Z</time>
      </trkpt>
      <trkpt lat="44.28989" lon="5.7021">
        <ele>1029.8000488281</ele>
        <time>2016-05-07T07:02:50Z</time>
      </trkpt>
      <trkpt lat="44.28988" lon="5.70209">
        <ele>1030.1999511719</ele>
        <time>2016-05-07T07:02:51Z</time>
      </trkpt>
      <trkpt lat="44.28986" lon="5.70207">
        <ele>1030.5999755859</ele>
        <time>2016-05-07T07:02:52Z</time>
      </trkpt>
      <trkpt lat="44.28984" lon="5.70206">
        <ele>1031</ele>
        <time>2016-05-07T07:02:53Z</time>
      </trkpt>
      <trkpt lat="44.28983" lon="5.70205">
        <ele>1031.4000244141</ele>
        <time>2016-05-07T07:02:54Z</time>
      </trkpt>
      <trkpt lat="44.28981" lon="5.70204">
        <ele>1031.8000488281</ele>
        <time>2016-05-07T07:02:55Z</time>
      </trkpt>
      <trkpt lat="44.28974" lon="5.70199">
        <ele>1031.8000488281</ele>
        <time>2016-05-07T07:03:01Z</time>
      </trkpt>
      <trkpt lat="44.28967" lon="5.70195">
        <ele>1032.1999511719</ele>
        <time>2016-05-07T07:03:05Z</time>
      </trkpt>
      <trkpt lat="44.28965" lon="5.70194">
        <ele>1032.8000488281</ele>
        <time>2016-05-07T07:03:06Z</time>
      </trkpt>
      <trkpt lat="44.28963" lon="5.70193">
        <ele>1033.1999511719</ele>
        <time>2016-05-07T07:03:07Z</time>
      </trkpt>
      <trkpt lat="44.28962" lon="5.70192">
        <ele>1033.5999755859</ele>
        <time>2016-05-07T07:03:08Z</time>
      </trkpt>
      <trkpt lat="44.2896" lon="5.70191">
        <ele>1034</ele>
        <time>2016-05-07T07:03:09Z</time>
      </trkpt>
      <trkpt lat="44.28954" lon="5.70188">
        <ele>1034</ele>
        <time>2016-05-07T07:03:15Z</time>
      </trkpt>
      <trkpt lat="44.28944" lon="5.70184">
        <ele>1034.4000244141</ele>
        <time>2016-05-07T07:03:22Z</time>
      </trkpt>
      <trkpt lat="44.28942" lon="5.70184">
        <ele>1034.8000488281</ele>
        <time>2016-05-07T07:03:23Z</time>
      </trkpt>
      <trkpt lat="44.2894" lon="5.70183">
        <ele>1035.1999511719</ele>
        <time>2016-05-07T07:03:24Z</time>
      </trkpt>
      <trkpt lat="44.28938" lon="5.70183">
        <ele>1035.5999755859</ele>
        <time>2016-05-07T07:03:25Z</time>
      </trkpt>
      <trkpt lat="44.28936" lon="5.70182">
        <ele>1036</ele>
        <time>2016-05-07T07:03:26Z</time>
      </trkpt>
      <trkpt lat="44.28925" lon="5.7018">
        <ele>1036</ele>
        <time>2016-05-07T07:03:32Z</time>
      </trkpt>
      <trkpt lat="44.28921" lon="5.7018">
        <ele>1036.4000244141</ele>
        <time>2016-05-07T07:03:35Z</time>
      </trkpt>
      <trkpt lat="44.28919" lon="5.7018">
        <ele>1036.8000488281</ele>
        <time>2016-05-07T07:03:36Z</time>
      </trkpt>
      <trkpt lat="44.28917" lon="5.7018">
        <ele>1037.4000244141</ele>
        <time>2016-05-07T07:03:37Z</time>
      </trkpt>
      <trkpt lat="44.28916" lon="5.7018">
        <ele>1037.8000488281</ele>
        <time>2016-05-07T07:03:38Z</time>
      </trkpt>
      <trkpt lat="44.28914" lon="5.70181">
        <ele>1038.1999511719</ele>
        <time>2016-05-07T07:03:39Z</time>
      </trkpt>
      <trkpt lat="44.28904" lon="5.70183">
        <ele>1038.5999755859</ele>
        <time>2016-05-07T07:03:46Z</time>
      </trkpt>
      <trkpt lat="44.28902" lon="5.70183">
        <ele>1039</ele>
        <time>2016-05-07T07:03:47Z</time>
      </trkpt>
      <trkpt lat="44.28901" lon="5.70184">
        <ele>1039.4000244141</ele>
        <time>2016-05-07T07:03:48Z</time>
      </trkpt>
      <trkpt lat="44.28899" lon="5.70184">
        <ele>1039.8000488281</ele>
        <time>2016-05-07T07:03:49Z</time>
      </trkpt>
      <trkpt lat="44.28898" lon="5.70185">
        <ele>1040.1999511719</ele>
        <time>2016-05-07T07:03:50Z</time>
      </trkpt>
      <trkpt lat="44.28887" lon="5.7019">
        <ele>1040.1999511719</ele>
        <time>2016-05-07T07:03:57Z</time>
      </trkpt>
      <trkpt lat="44.28879" lon="5.70197">
        <ele>1040.8000488281</ele>
        <time>2016-05-07T07:04:03Z</time>
      </trkpt>
      <trkpt lat="44.28877" lon="5.70198">
        <ele>1041.1999511719</ele>
        <time>2016-05-07T07:04:04Z</time>
      </trkpt>
      <trkpt lat="44.28876" lon="5.70198">
        <ele>1041.8000488281</ele>
        <time>2016-05-07T07:04:05Z</time>
      </trkpt>
      <trkpt lat="44.28874" lon="5.70198">
        <ele>1042.4000244141</ele>
        <time>2016-05-07T07:04:06Z</time>
      </trkpt>
      <trkpt lat="44.28873" lon="5.70197">
        <ele>1042.8000488281</ele>
        <time>2016-05-07T07:04:07Z</time>
      </trkpt>
      <trkpt lat="44.28866" lon="5.70189">
        <ele>1042.8000488281</ele>
        <time>2016-05-07T07:04:12Z</time>
      </trkpt>
      <trkpt lat="44.28867" lon="5.70179">
        <ele>1042.8000488281</ele>
        <time>2016-05-07T07:04:16Z</time>
      </trkpt>
      <trkpt lat="44.28868" lon="5.70177">
        <ele>1042.8000488281</ele>
        <time>2016-05-07T07:04:17Z</time>
      </trkpt>
      <trkpt lat="44.28868" lon="5.70174">
        <ele>1043.1999511719</ele>
        <time>2016-05-07T07:04:18Z</time>
      </trkpt>
      <trkpt lat="44.2887" lon="5.70172">
        <ele>1043.5999755859</ele>
        <time>2016-05-07T07:04:19Z</time>
      </trkpt>
      <trkpt lat="44.28871" lon="5.7017">
        <ele>1044</ele>
        <time>2016-05-07T07:04:20Z</time>
      </trkpt>
      <trkpt lat="44.28872" lon="5.70169">
        <ele>1044.5999755859</ele>
        <time>2016-05-07T07:04:21Z</time>
      </trkpt>
      <trkpt lat="44.28873" lon="5.70168">
        <ele>1045</ele>
        <time>2016-05-07T07:04:22Z</time>
      </trkpt>
      <trkpt lat="44.28879" lon="5.70162">
        <ele>1045</ele>
        <time>2016-05-07T07:04:26Z</time>
      </trkpt>
      <trkpt lat="44.28894" lon="5.70154">
        <ele>1045.4000244141</ele>
        <time>2016-05-07T07:04:34Z</time>
      </trkpt>
      <trkpt lat="44.28896" lon="5.70153">
        <ele>1045.8000488281</ele>
        <time>2016-05-07T07:04:35Z</time>
      </trkpt>
      <trkpt lat="44.28897" lon="5.70152">
        <ele>1046.1999511719</ele>
        <time>2016-05-07T07:04:36Z</time>
      </trkpt>
      <trkpt lat="44.28899" lon="5.70151">
        <ele>1046.5999755859</ele>
        <time>2016-05-07T07:04:37Z</time>
      </trkpt>
      <trkpt lat="44.28903" lon="5.70149">
        <ele>1047</ele>
        <time>2016-05-07T07:04:39Z</time>
      </trkpt>
      <trkpt lat="44.2891" lon="5.70144">
        <ele>1047</ele>
        <time>2016-05-07T07:04:43Z</time>
      </trkpt>
      <trkpt lat="44.28923" lon="5.70136">
        <ele>1047</ele>
        <time>2016-05-07T07:04:51Z</time>
      </trkpt>
      <trkpt lat="44.28925" lon="5.70135">
        <ele>1047.4000244141</ele>
        <time>2016-05-07T07:04:52Z</time>
      </trkpt>
      <trkpt lat="44.28926" lon="5.70133">
        <ele>1047.8000488281</ele>
        <time>2016-05-07T07:04:53Z</time>
      </trkpt>
      <trkpt lat="44.28927" lon="5.70131">
        <ele>1048.1999511719</ele>
        <time>2016-05-07T07:04:54Z</time>
      </trkpt>
      <trkpt lat="44.28928" lon="5.70128">
        <ele>1048.5999755859</ele>
        <time>2016-05-07T07:04:55Z</time>
      </trkpt>
      <trkpt lat="44.28928" lon="5.70126">
        <ele>1049</ele>
        <time>2016-05-07T07:04:56Z</time>
      </trkpt>
      <trkpt lat="44.2893" lon="5.7012">
        <ele>1049</ele>
        <time>2016-05-07T07:04:59Z</time>
      </trkpt>
      <trkpt lat="44.28931" lon="5.70118">
        <ele>1049</ele>
        <time>2016-05-07T07:05:00Z</time>
      </trkpt>
      <trkpt lat="44.28931" lon="5.70105">
        <ele>1049.4000244141</ele>
        <time>2016-05-07T07:05:05Z</time>
      </trkpt>
      <trkpt lat="44.28931" lon="5.70103">
        <ele>1050</ele>
        <time>2016-05-07T07:05:06Z</time>
      </trkpt>
      <trkpt lat="44.2893" lon="5.701">
        <ele>1050.4000244141</ele>
        <time>2016-05-07T07:05:07Z</time>
      </trkpt>
      <trkpt lat="44.2893" lon="5.70097">
        <ele>1050.8000488281</ele>
        <time>2016-05-07T07:05:08Z</time>
      </trkpt>
      <trkpt lat="44.2893" lon="5.70095">
        <ele>1051.4000244141</ele>
        <time>2016-05-07T07:05:09Z</time>
      </trkpt>
      <trkpt lat="44.2893" lon="5.70092">
        <ele>1051.4000244141</ele>
        <time>2016-05-07T07:05:10Z</time>
      </trkpt>
      <trkpt lat="44.28928" lon="5.70066">
        <ele>1051.8000488281</ele>
        <time>2016-05-07T07:05:22Z</time>
      </trkpt>
      <trkpt lat="44.28928" lon="5.70064">
        <ele>1052.1999511719</ele>
        <time>2016-05-07T07:05:23Z</time>
      </trkpt>
      <trkpt lat="44.28929" lon="5.70062">
        <ele>1052.5999755859</ele>
        <time>2016-05-07T07:05:24Z</time>
      </trkpt>
      <trkpt lat="44.28928" lon="5.70061">
        <ele>1053</ele>
        <time>2016-05-07T07:05:25Z</time>
      </trkpt>
      <trkpt lat="44.28927" lon="5.70058">
        <ele>1053.5999755859</ele>
        <time>2016-05-07T07:05:26Z</time>
      </trkpt>
      <trkpt lat="44.28922" lon="5.70047">
        <ele>1053.5999755859</ele>
        <time>2016-05-07T07:05:31Z</time>
      </trkpt>
      <trkpt lat="44.28921" lon="5.70044">
        <ele>1054</ele>
        <time>2016-05-07T07:05:33Z</time>
      </trkpt>
      <trkpt lat="44.28921" lon="5.70042">
        <ele>1054.4000244141</ele>
        <time>2016-05-07T07:05:34Z</time>
      </trkpt>
      <trkpt lat="44.28921" lon="5.7004">
        <ele>1054.8000488281</ele>
        <time>2016-05-07T07:05:35Z</time>
      </trkpt>
      <trkpt lat="44.2892" lon="5.70037">
        <ele>1055.1999511719</ele>
        <time>2016-05-07T07:05:36Z</time>
      </trkpt>
      <trkpt lat="44.2892" lon="5.70035">
        <ele>1055.5999755859</ele>
        <time>2016-05-07T07:05:37Z</time>
      </trkpt>
      <trkpt lat="44.28918" lon="5.70027">
        <ele>1056</ele>
        <time>2016-05-07T07:05:41Z</time>
      </trkpt>
      <trkpt lat="44.28918" lon="5.70025">
        <ele>1056.4000244141</ele>
        <time>2016-05-07T07:05:42Z</time>
      </trkpt>
      <trkpt lat="44.28917" lon="5.70023">
        <ele>1056.8000488281</ele>
        <time>2016-05-07T07:05:43Z</time>
      </trkpt>
      <trkpt lat="44.28916" lon="5.70021">
        <ele>1057.1999511719</ele>
        <time>2016-05-07T07:05:44Z</time>
      </trkpt>
      <trkpt lat="44.28915" lon="5.70019">
        <ele>1057.5999755859</ele>
        <time>2016-05-07T07:05:45Z</time>
      </trkpt>
      <trkpt lat="44.28909" lon="5.70007">
        <ele>1057.5999755859</ele>
        <time>2016-05-07T07:05:51Z</time>
      </trkpt>
      <trkpt lat="44.28901" lon="5.69997">
        <ele>1058</ele>
        <time>2016-05-07T07:05:57Z</time>
      </trkpt>
      <trkpt lat="44.289" lon="5.69995">
        <ele>1058.5999755859</ele>
        <time>2016-05-07T07:05:58Z</time>
      </trkpt>
      <trkpt lat="44.28899" lon="5.69993">
        <ele>1059</ele>
        <time>2016-05-07T07:05:59Z</time>
      </trkpt>
      <trkpt lat="44.28897" lon="5.69992">
        <ele>1059.4000244141</ele>
        <time>2016-05-07T07:06:00Z</time>
      </trkpt>
      <trkpt lat="44.28896" lon="5.6999">
        <ele>1059.8000488281</ele>
        <time>2016-05-07T07:06:01Z</time>
      </trkpt>
      <trkpt lat="44.28894" lon="5.69987">
        <ele>1059.8000488281</ele>
        <time>2016-05-07T07:06:03Z</time>
      </trkpt>
      <trkpt lat="44.28887" lon="5.69978">
        <ele>1060.1999511719</ele>
        <time>2016-05-07T07:06:10Z</time>
      </trkpt>
      <trkpt lat="44.28886" lon="5.69977">
        <ele>1060.8000488281</ele>
        <time>2016-05-07T07:06:11Z</time>
      </trkpt>
      <trkpt lat="44.28885" lon="5.69975">
        <ele>1061.1999511719</ele>
        <time>2016-05-07T07:06:12Z</time>
      </trkpt>
      <trkpt lat="44.28883" lon="5.69974">
        <ele>1061.5999755859</ele>
        <time>2016-05-07T07:06:13Z</time>
      </trkpt>
      <trkpt lat="44.28882" lon="5.69973">
        <ele>1062</ele>
        <time>2016-05-07T07:06:14Z</time>
      </trkpt>
      <trkpt lat="44.28874" lon="5.69966">
        <ele>1062.4000244141</ele>
        <time>2016-05-07T07:06:20Z</time>
      </trkpt>
      <trkpt lat="44.28873" lon="5.69964">
        <ele>1062.8000488281</ele>
        <time>2016-05-07T07:06:21Z</time>
      </trkpt>
      <trkpt lat="44.28872" lon="5.69963">
        <ele>1063.1999511719</ele>
        <time>2016-05-07T07:06:22Z</time>
      </trkpt>
      <trkpt lat="44.2887" lon="5.69962">
        <ele>1063.5999755859</ele>
        <time>2016-05-07T07:06:23Z</time>
      </trkpt>
      <trkpt lat="44.28869" lon="5.6996">
        <ele>1064</ele>
        <time>2016-05-07T07:06:24Z</time>
      </trkpt>
      <trkpt lat="44.2886" lon="5.69953">
        <ele>1064</ele>
        <time>2016-05-07T07:06:29Z</time>
      </trkpt>
      <trkpt lat="44.28857" lon="5.69947">
        <ele>1064</ele>
        <time>2016-05-07T07:06:33Z</time>
      </trkpt>
      <trkpt lat="44.28854" lon="5.69941">
        <ele>1064.4000244141</ele>
        <time>2016-05-07T07:06:37Z</time>
      </trkpt>
      <trkpt lat="44.28853" lon="5.6994">
        <ele>1064.8000488281</ele>
        <time>2016-05-07T07:06:38Z</time>
      </trkpt>
      <trkpt lat="44.28852" lon="5.69938">
        <ele>1065.1999511719</ele>
        <time>2016-05-07T07:06:39Z</time>
      </trkpt>
      <trkpt lat="44.28852" lon="5.69937">
        <ele>1065.5999755859</ele>
        <time>2016-05-07T07:06:40Z</time>
      </trkpt>
      <trkpt lat="44.28851" lon="5.69935">
        <ele>1066</ele>
        <time>2016-05-07T07:06:41Z</time>
      </trkpt>
      <trkpt lat="44.28846" lon="5.69924">
        <ele>1066.4000244141</ele>
        <time>2016-05-07T07:06:48Z</time>
      </trkpt>
      <trkpt lat="44.28846" lon="5.69922">
        <ele>1066.8000488281</ele>
        <time>2016-05-07T07:06:49Z</time>
      </trkpt>
      <trkpt lat="44.28845" lon="5.69921">
        <ele>1067.1999511719</ele>
        <time>2016-05-07T07:06:50Z</time>
      </trkpt>
      <trkpt lat="44.28844" lon="5.69919">
        <ele>1067.8000488281</ele>
        <time>2016-05-07T07:06:51Z</time>
      </trkpt>
      <trkpt lat="44.28843" lon="5.69918">
        <ele>1068.1999511719</ele>
        <time>2016-05-07T07:06:52Z</time>
      </trkpt>
      <trkpt lat="44.28835" lon="5.69903">
        <ele>1068.5999755859</ele>
        <time>2016-05-07T07:07:00Z</time>
      </trkpt>
      <trkpt lat="44.28834" lon="5.69901">
        <ele>1069</ele>
        <time>2016-05-07T07:07:01Z</time>
      </trkpt>
      <trkpt lat="44.28833" lon="5.69898">
        <ele>1069.4000244141</ele>
        <time>2016-05-07T07:07:02Z</time>
      </trkpt>
      <trkpt lat="44.28832" lon="5.69896">
        <ele>1069.8000488281</ele>
        <time>2016-05-07T07:07:03Z</time>
      </trkpt>
      <trkpt lat="44.28831" lon="5.69895">
        <ele>1070.1999511719</ele>
        <time>2016-05-07T07:07:04Z</time>
      </trkpt>
      <trkpt lat="44.28825" lon="5.6988">
        <ele>1070.5999755859</ele>
        <time>2016-05-07T07:07:12Z</time>
      </trkpt>
      <trkpt lat="44.28824" lon="5.69879">
        <ele>1071</ele>
        <time>2016-05-07T07:07:13Z</time>
      </trkpt>
      <trkpt lat="44.28824" lon="5.69877">
        <ele>1071.4000244141</ele>
        <time>2016-05-07T07:07:14Z</time>
      </trkpt>
      <trkpt lat="44.28823" lon="5.69876">
        <ele>1071.8000488281</ele>
        <time>2016-05-07T07:07:15Z</time>
      </trkpt>
      <trkpt lat="44.28822" lon="5.69874">
        <ele>1072.1999511719</ele>
        <time>2016-05-07T07:07:16Z</time>
      </trkpt>
      <trkpt lat="44.28816" lon="5.69863">
        <ele>1072.1999511719</ele>
        <time>2016-05-07T07:07:24Z</time>
      </trkpt>
      <trkpt lat="44.28806" lon="5.69856">
        <ele>1072.8000488281</ele>
        <time>2016-05-07T07:07:31Z</time>
      </trkpt>
      <trkpt lat="44.28805" lon="5.69856">
        <ele>1073.1999511719</ele>
        <time>2016-05-07T07:07:32Z</time>
      </trkpt>
      <trkpt lat="44.28803" lon="5.69856">
        <ele>1073.5999755859</ele>
        <time>2016-05-07T07:07:33Z</time>
      </trkpt>
      <trkpt lat="44.28802" lon="5.69855">
        <ele>1074</ele>
        <time>2016-05-07T07:07:34Z</time>
      </trkpt>
      <trkpt lat="44.28802" lon="5.69853">
        <ele>1074.4000244141</ele>
        <time>2016-05-07T07:07:35Z</time>
      </trkpt>
      <trkpt lat="44.28799" lon="5.69846">
        <ele>1074.4000244141</ele>
        <time>2016-05-07T07:07:40Z</time>
      </trkpt>
      <trkpt lat="44.28786" lon="5.69837">
        <ele>1074.8000488281</ele>
        <time>2016-05-07T07:07:47Z</time>
      </trkpt>
      <trkpt lat="44.28783" lon="5.69836">
        <ele>1075.4000244141</ele>
        <time>2016-05-07T07:07:48Z</time>
      </trkpt>
      <trkpt lat="44.28781" lon="5.69835">
        <ele>1075.8000488281</ele>
        <time>2016-05-07T07:07:49Z</time>
      </trkpt>
      <trkpt lat="44.2878" lon="5.69833">
        <ele>1076.1999511719</ele>
        <time>2016-05-07T07:07:50Z</time>
      </trkpt>
      <trkpt lat="44.28778" lon="5.69832">
        <ele>1076.5999755859</ele>
        <time>2016-05-07T07:07:51Z</time>
      </trkpt>
      <trkpt lat="44.28772" lon="5.69824">
        <ele>1076.5999755859</ele>
        <time>2016-05-07T07:07:56Z</time>
      </trkpt>
      <trkpt lat="44.28771" lon="5.69816">
        <ele>1077</ele>
        <time>2016-05-07T07:08:01Z</time>
      </trkpt>
      <trkpt lat="44.2877" lon="5.69814">
        <ele>1077.4000244141</ele>
        <time>2016-05-07T07:08:02Z</time>
      </trkpt>
      <trkpt lat="44.28769" lon="5.69812">
        <ele>1077.8000488281</ele>
        <time>2016-05-07T07:08:03Z</time>
      </trkpt>
      <trkpt lat="44.28769" lon="5.69811">
        <ele>1078.4000244141</ele>
        <time>2016-05-07T07:08:04Z</time>
      </trkpt>
      <trkpt lat="44.28769" lon="5.6981">
        <ele>1078.8000488281</ele>
        <time>2016-05-07T07:08:05Z</time>
      </trkpt>
      <trkpt lat="44.28758" lon="5.69797">
        <ele>1078.8000488281</ele>
        <time>2016-05-07T07:08:13Z</time>
      </trkpt>
      <trkpt lat="44.28755" lon="5.69786">
        <ele>1079.1999511719</ele>
        <time>2016-05-07T07:08:18Z</time>
      </trkpt>
      <trkpt lat="44.28755" lon="5.69783">
        <ele>1079.5999755859</ele>
        <time>2016-05-07T07:08:19Z</time>
      </trkpt>
      <trkpt lat="44.28756" lon="5.69781">
        <ele>1080.1999511719</ele>
        <time>2016-05-07T07:08:20Z</time>
      </trkpt>
      <trkpt lat="44.28756" lon="5.69779">
        <ele>1080.5999755859</ele>
        <time>2016-05-07T07:08:21Z</time>
      </trkpt>
      <trkpt lat="44.28755" lon="5.69777">
        <ele>1081.1999511719</ele>
        <time>2016-05-07T07:08:22Z</time>
      </trkpt>
      <trkpt lat="44.28754" lon="5.69763">
        <ele>1081.1999511719</ele>
        <time>2016-05-07T07:08:30Z</time>
      </trkpt>
      <trkpt lat="44.28754" lon="5.69758">
        <ele>1081.5999755859</ele>
        <time>2016-05-07T07:08:33Z</time>
      </trkpt>
      <trkpt lat="44.28753" lon="5.69756">
        <ele>1082</ele>
        <time>2016-05-07T07:08:34Z</time>
      </trkpt>
      <trkpt lat="44.28754" lon="5.69752">
        <ele>1082.4000244141</ele>
        <time>2016-05-07T07:08:35Z</time>
      </trkpt>
      <trkpt lat="44.28754" lon="5.69749">
        <ele>1083</ele>
        <time>2016-05-07T07:08:36Z</time>
      </trkpt>
      <trkpt lat="44.28754" lon="5.69747">
        <ele>1083.4000244141</ele>
        <time>2016-05-07T07:08:37Z</time>
      </trkpt>
      <trkpt lat="44.28757" lon="5.69736">
        <ele>1083.4000244141</ele>
        <time>2016-05-07T07:08:41Z</time>
      </trkpt>
      <trkpt lat="44.28761" lon="5.69719">
        <ele>1083.8000488281</ele>
        <time>2016-05-07T07:08:48Z</time>
      </trkpt>
      <trkpt lat="44.28762" lon="5.69717">
        <ele>1084.1999511719</ele>
        <time>2016-05-07T07:08:49Z</time>
      </trkpt>
      <trkpt lat="44.28762" lon="5.69714">
        <ele>1084.8000488281</ele>
        <time>2016-05-07T07:08:50Z</time>
      </trkpt>
      <trkpt lat="44.28762" lon="5.69711">
        <ele>1085.1999511719</ele>
        <time>2016-05-07T07:08:51Z</time>
      </trkpt>
      <trkpt lat="44.28762" lon="5.69708">
        <ele>1085.5999755859</ele>
        <time>2016-05-07T07:08:52Z</time>
      </trkpt>
      <trkpt lat="44.28759" lon="5.69692">
        <ele>1085.5999755859</ele>
        <time>2016-05-07T07:08:58Z</time>
      </trkpt>
      <trkpt lat="44.28758" lon="5.69689">
        <ele>1085.5999755859</ele>
        <time>2016-05-07T07:08:59Z</time>
      </trkpt>
      <trkpt lat="44.28746" lon="5.69672">
        <ele>1085.5999755859</ele>
        <time>2016-05-07T07:09:05Z</time>
      </trkpt>
      <trkpt lat="44.2873" lon="5.69653">
        <ele>1085.5999755859</ele>
        <time>2016-05-07T07:09:12Z</time>
      </trkpt>
      <trkpt lat="44.2872" lon="5.6964">
        <ele>1085.5999755859</ele>
        <time>2016-05-07T07:09:17Z</time>
      </trkpt>
      <trkpt lat="44.28718" lon="5.69637">
        <ele>1085.5999755859</ele>
        <time>2016-05-07T07:09:18Z</time>
      </trkpt>
      <trkpt lat="44.28705" lon="5.69617">
        <ele>1085.5999755859</ele>
        <time>2016-05-07T07:09:24Z</time>
      </trkpt>
      <trkpt lat="44.28694" lon="5.69595">
        <ele>1085.5999755859</ele>
        <time>2016-05-07T07:09:30Z</time>
      </trkpt>
      <trkpt lat="44.28689" lon="5.69585">
        <ele>1086</ele>
        <time>2016-05-07T07:09:33Z</time>
      </trkpt>
      <trkpt lat="44.28687" lon="5.69582">
        <ele>1086.4000244141</ele>
        <time>2016-05-07T07:09:34Z</time>
      </trkpt>
      <trkpt lat="44.28686" lon="5.69578">
        <ele>1086.8000488281</ele>
        <time>2016-05-07T07:09:35Z</time>
      </trkpt>
      <trkpt lat="44.28685" lon="5.69575">
        <ele>1087.1999511719</ele>
        <time>2016-05-07T07:09:36Z</time>
      </trkpt>
      <trkpt lat="44.28684" lon="5.69557">
        <ele>1087.5999755859</ele>
        <time>2016-05-07T07:09:41Z</time>
      </trkpt>
      <trkpt lat="44.28682" lon="5.69547">
        <ele>1088.1999511719</ele>
        <time>2016-05-07T07:09:44Z</time>
      </trkpt>
      <trkpt lat="44.28681" lon="5.69544">
        <ele>1088.5999755859</ele>
        <time>2016-05-07T07:09:45Z</time>
      </trkpt>
      <trkpt lat="44.2868" lon="5.69541">
        <ele>1089</ele>
        <time>2016-05-07T07:09:46Z</time>
      </trkpt>
      <trkpt lat="44.28677" lon="5.69535">
        <ele>1089.8000488281</ele>
        <time>2016-05-07T07:09:48Z</time>
      </trkpt>
      <trkpt lat="44.28675" lon="5.69532">
        <ele>1089.8000488281</ele>
        <time>2016-05-07T07:09:49Z</time>
      </trkpt>
      <trkpt lat="44.28673" lon="5.69529">
        <ele>1089.8000488281</ele>
        <time>2016-05-07T07:09:50Z</time>
      </trkpt>
      <trkpt lat="44.28662" lon="5.69518">
        <ele>1089.8000488281</ele>
        <time>2016-05-07T07:09:56Z</time>
      </trkpt>
      <trkpt lat="44.28658" lon="5.69514">
        <ele>1090.1999511719</ele>
        <time>2016-05-07T07:09:59Z</time>
      </trkpt>
      <trkpt lat="44.28656" lon="5.69513">
        <ele>1090.5999755859</ele>
        <time>2016-05-07T07:10:00Z</time>
      </trkpt>
      <trkpt lat="44.28655" lon="5.69512">
        <ele>1091</ele>
        <time>2016-05-07T07:10:01Z</time>
      </trkpt>
      <trkpt lat="44.28654" lon="5.6951">
        <ele>1091.4000244141</ele>
        <time>2016-05-07T07:10:02Z</time>
      </trkpt>
      <trkpt lat="44.2865" lon="5.69509">
        <ele>1092</ele>
        <time>2016-05-07T07:10:04Z</time>
      </trkpt>
      <trkpt lat="44.28642" lon="5.69503">
        <ele>1092</ele>
        <time>2016-05-07T07:10:08Z</time>
      </trkpt>
      <trkpt lat="44.28637" lon="5.69499">
        <ele>1092.4000244141</ele>
        <time>2016-05-07T07:10:11Z</time>
      </trkpt>
      <trkpt lat="44.28635" lon="5.69496">
        <ele>1092.8000488281</ele>
        <time>2016-05-07T07:10:13Z</time>
      </trkpt>
      <trkpt lat="44.28634" lon="5.69494">
        <ele>1093.5999755859</ele>
        <time>2016-05-07T07:10:14Z</time>
      </trkpt>
      <trkpt lat="44.28633" lon="5.69493">
        <ele>1094</ele>
        <time>2016-05-07T07:10:15Z</time>
      </trkpt>
      <trkpt lat="44.28617" lon="5.69482">
        <ele>1094</ele>
        <time>2016-05-07T07:10:23Z</time>
      </trkpt>
      <trkpt lat="44.28612" lon="5.69477">
        <ele>1095</ele>
        <time>2016-05-07T07:10:26Z</time>
      </trkpt>
      <trkpt lat="44.2861" lon="5.69475">
        <ele>1095.4000244141</ele>
        <time>2016-05-07T07:10:27Z</time>
      </trkpt>
      <trkpt lat="44.28608" lon="5.69473">
        <ele>1095.8000488281</ele>
        <time>2016-05-07T07:10:28Z</time>
      </trkpt>
      <trkpt lat="44.28605" lon="5.69468">
        <ele>1096.1999511719</ele>
        <time>2016-05-07T07:10:30Z</time>
      </trkpt>
      <trkpt lat="44.28592" lon="5.69443">
        <ele>1096.1999511719</ele>
        <time>2016-05-07T07:10:37Z</time>
      </trkpt>
      <trkpt lat="44.28589" lon="5.69439">
        <ele>1096.1999511719</ele>
        <time>2016-05-07T07:10:38Z</time>
      </trkpt>
      <trkpt lat="44.28584" lon="5.6943">
        <ele>1096.1999511719</ele>
        <time>2016-05-07T07:10:41Z</time>
      </trkpt>
      <trkpt lat="44.28584" lon="5.69427">
        <ele>1096.5999755859</ele>
        <time>2016-05-07T07:10:42Z</time>
      </trkpt>
      <trkpt lat="44.28582" lon="5.69423">
        <ele>1097</ele>
        <time>2016-05-07T07:10:43Z</time>
      </trkpt>
      <trkpt lat="44.28582" lon="5.69417">
        <ele>1097.8000488281</ele>
        <time>2016-05-07T07:10:45Z</time>
      </trkpt>
      <trkpt lat="44.28582" lon="5.69414">
        <ele>1098.1999511719</ele>
        <time>2016-05-07T07:10:46Z</time>
      </trkpt>
      <trkpt lat="44.28583" lon="5.69409">
        <ele>1098.1999511719</ele>
        <time>2016-05-07T07:10:48Z</time>
      </trkpt>
      <trkpt lat="44.28591" lon="5.69395">
        <ele>1098.1999511719</ele>
        <time>2016-05-07T07:10:56Z</time>
      </trkpt>
      <trkpt lat="44.28591" lon="5.69393">
        <ele>1098.5999755859</ele>
        <time>2016-05-07T07:10:57Z</time>
      </trkpt>
      <trkpt lat="44.28592" lon="5.6939">
        <ele>1099</ele>
        <time>2016-05-07T07:10:58Z</time>
      </trkpt>
      <trkpt lat="44.28595" lon="5.69384">
        <ele>1099.8000488281</ele>
        <time>2016-05-07T07:11:00Z</time>
      </trkpt>
      <trkpt lat="44.28596" lon="5.6938">
        <ele>1100.1999511719</ele>
        <time>2016-05-07T07:11:01Z</time>
      </trkpt>
      <trkpt lat="44.28598" lon="5.69374">
        <ele>1100.1999511719</ele>
        <time>2016-05-07T07:11:03Z</time>
      </trkpt>
      <trkpt lat="44.28605" lon="5.69349">
        <ele>1100.1999511719</ele>
        <time>2016-05-07T07:11:10Z</time>
      </trkpt>
      <trkpt lat="44.28604" lon="5.69345">
        <ele>1100.5999755859</ele>
        <time>2016-05-07T07:11:11Z</time>
      </trkpt>
      <trkpt lat="44.28605" lon="5.69342">
        <ele>1101.1999511719</ele>
        <time>2016-05-07T07:11:12Z</time>
      </trkpt>
      <trkpt lat="44.28605" lon="5.69339">
        <ele>1101.5999755859</ele>
        <time>2016-05-07T07:11:13Z</time>
      </trkpt>
      <trkpt lat="44.28605" lon="5.69336">
        <ele>1102</ele>
        <time>2016-05-07T07:11:14Z</time>
      </trkpt>
      <trkpt lat="44.28604" lon="5.69329">
        <ele>1102.4000244141</ele>
        <time>2016-05-07T07:11:16Z</time>
      </trkpt>
      <trkpt lat="44.28598" lon="5.69313">
        <ele>1102.4000244141</ele>
        <time>2016-05-07T07:11:21Z</time>
      </trkpt>
      <trkpt lat="44.2859" lon="5.69295">
        <ele>1102.4000244141</ele>
        <time>2016-05-07T07:11:25Z</time>
      </trkpt>
      <trkpt lat="44.28578" lon="5.69274">
        <ele>1102.4000244141</ele>
        <time>2016-05-07T07:11:30Z</time>
      </trkpt>
      <trkpt lat="44.28576" lon="5.6927">
        <ele>1102.4000244141</ele>
        <time>2016-05-07T07:11:31Z</time>
      </trkpt>
      <trkpt lat="44.28559" lon="5.69245">
        <ele>1102.4000244141</ele>
        <time>2016-05-07T07:11:37Z</time>
      </trkpt>
      <trkpt lat="44.28552" lon="5.69215">
        <ele>1102.8000488281</ele>
        <time>2016-05-07T07:11:43Z</time>
      </trkpt>
      <trkpt lat="44.28552" lon="5.69211">
        <ele>1103.1999511719</ele>
        <time>2016-05-07T07:11:44Z</time>
      </trkpt>
      <trkpt lat="44.28554" lon="5.69207">
        <ele>1103.5999755859</ele>
        <time>2016-05-07T07:11:45Z</time>
      </trkpt>
      <trkpt lat="44.28555" lon="5.692">
        <ele>1104.4000244141</ele>
        <time>2016-05-07T07:11:47Z</time>
      </trkpt>
      <trkpt lat="44.28555" lon="5.69197">
        <ele>1104.4000244141</ele>
        <time>2016-05-07T07:11:48Z</time>
      </trkpt>
      <trkpt lat="44.2856" lon="5.69184">
        <ele>1104.4000244141</ele>
        <time>2016-05-07T07:11:53Z</time>
      </trkpt>
      <trkpt lat="44.28563" lon="5.69178">
        <ele>1105</ele>
        <time>2016-05-07T07:11:56Z</time>
      </trkpt>
      <trkpt lat="44.28563" lon="5.69174">
        <ele>1105.8000488281</ele>
        <time>2016-05-07T07:11:58Z</time>
      </trkpt>
      <trkpt lat="44.28564" lon="5.69172">
        <ele>1106.1999511719</ele>
        <time>2016-05-07T07:11:59Z</time>
      </trkpt>
      <trkpt lat="44.28564" lon="5.6917">
        <ele>1106.8000488281</ele>
        <time>2016-05-07T07:12:00Z</time>
      </trkpt>
      <trkpt lat="44.28568" lon="5.69161">
        <ele>1106.8000488281</ele>
        <time>2016-05-07T07:12:05Z</time>
      </trkpt>
      <trkpt lat="44.2858" lon="5.69149">
        <ele>1106.8000488281</ele>
        <time>2016-05-07T07:12:10Z</time>
      </trkpt>
      <trkpt lat="44.28586" lon="5.69146">
        <ele>1107.1999511719</ele>
        <time>2016-05-07T07:12:12Z</time>
      </trkpt>
      <trkpt lat="44.28588" lon="5.69145">
        <ele>1107.1999511719</ele>
        <time>2016-05-07T07:12:13Z</time>
      </trkpt>
      <trkpt lat="44.28591" lon="5.69143">
        <ele>1108</ele>
        <time>2016-05-07T07:12:14Z</time>
      </trkpt>
      <trkpt lat="44.28593" lon="5.69142">
        <ele>1108.4000244141</ele>
        <time>2016-05-07T07:12:15Z</time>
      </trkpt>
      <trkpt lat="44.28596" lon="5.6914">
        <ele>1108.8000488281</ele>
        <time>2016-05-07T07:12:16Z</time>
      </trkpt>
      <trkpt lat="44.28606" lon="5.69132">
        <ele>1109.1999511719</ele>
        <time>2016-05-07T07:12:22Z</time>
      </trkpt>
      <trkpt lat="44.28607" lon="5.69131">
        <ele>1109.5999755859</ele>
        <time>2016-05-07T07:12:23Z</time>
      </trkpt>
      <trkpt lat="44.2861" lon="5.69127">
        <ele>1110.1999511719</ele>
        <time>2016-05-07T07:12:25Z</time>
      </trkpt>
      <trkpt lat="44.28612" lon="5.69126">
        <ele>1111</ele>
        <time>2016-05-07T07:12:26Z</time>
      </trkpt>
      <trkpt lat="44.28621" lon="5.69112">
        <ele>1111</ele>
        <time>2016-05-07T07:12:33Z</time>
      </trkpt>
      <trkpt lat="44.28623" lon="5.69104">
        <ele>1111.8000488281</ele>
        <time>2016-05-07T07:12:37Z</time>
      </trkpt>
      <trkpt lat="44.28623" lon="5.69102">
        <ele>1112.1999511719</ele>
        <time>2016-05-07T07:12:38Z</time>
      </trkpt>
      <trkpt lat="44.28623" lon="5.69099">
        <ele>1112.5999755859</ele>
        <time>2016-05-07T07:12:39Z</time>
      </trkpt>
      <trkpt lat="44.28623" lon="5.69096">
        <ele>1113</ele>
        <time>2016-05-07T07:12:40Z</time>
      </trkpt>
      <trkpt lat="44.2862" lon="5.69078">
        <ele>1113</ele>
        <time>2016-05-07T07:12:48Z</time>
      </trkpt>
      <trkpt lat="44.28619" lon="5.69076">
        <ele>1113.4000244141</ele>
        <time>2016-05-07T07:12:49Z</time>
      </trkpt>
      <trkpt lat="44.28618" lon="5.69073">
        <ele>1114</ele>
        <time>2016-05-07T07:12:50Z</time>
      </trkpt>
      <trkpt lat="44.28617" lon="5.69069">
        <ele>1114.8000488281</ele>
        <time>2016-05-07T07:12:52Z</time>
      </trkpt>
      <trkpt lat="44.28616" lon="5.69067">
        <ele>1115.1999511719</ele>
        <time>2016-05-07T07:12:53Z</time>
      </trkpt>
      <trkpt lat="44.28615" lon="5.69063">
        <ele>1115.1999511719</ele>
        <time>2016-05-07T07:12:55Z</time>
      </trkpt>
      <trkpt lat="44.28609" lon="5.69041">
        <ele>1115.1999511719</ele>
        <time>2016-05-07T07:13:04Z</time>
      </trkpt>
      <trkpt lat="44.28607" lon="5.69039">
        <ele>1115.5999755859</ele>
        <time>2016-05-07T07:13:05Z</time>
      </trkpt>
      <trkpt lat="44.28606" lon="5.69033">
        <ele>1116.4000244141</ele>
        <time>2016-05-07T07:13:07Z</time>
      </trkpt>
      <trkpt lat="44.28605" lon="5.6903">
        <ele>1116.8000488281</ele>
        <time>2016-05-07T07:13:08Z</time>
      </trkpt>
      <trkpt lat="44.28604" lon="5.69028">
        <ele>1117.1999511719</ele>
        <time>2016-05-07T07:13:09Z</time>
      </trkpt>
      <trkpt lat="44.28601" lon="5.69012">
        <ele>1117.1999511719</ele>
        <time>2016-05-07T07:13:13Z</time>
      </trkpt>
      <trkpt lat="44.28597" lon="5.68995">
        <ele>1117.1999511719</ele>
        <time>2016-05-07T07:13:18Z</time>
      </trkpt>
      <trkpt lat="44.28594" lon="5.68984">
        <ele>1118.1999511719</ele>
        <time>2016-05-07T07:13:22Z</time>
      </trkpt>
      <trkpt lat="44.28594" lon="5.68982">
        <ele>1118.5999755859</ele>
        <time>2016-05-07T07:13:23Z</time>
      </trkpt>
      <trkpt lat="44.28594" lon="5.68979">
        <ele>1119</ele>
        <time>2016-05-07T07:13:24Z</time>
      </trkpt>
      <trkpt lat="44.28593" lon="5.68976">
        <ele>1119.5999755859</ele>
        <time>2016-05-07T07:13:25Z</time>
      </trkpt>
      <trkpt lat="44.28594" lon="5.68974">
        <ele>1119.5999755859</ele>
        <time>2016-05-07T07:13:26Z</time>
      </trkpt>
      <trkpt lat="44.28593" lon="5.68952">
        <ele>1119.5999755859</ele>
        <time>2016-05-07T07:13:33Z</time>
      </trkpt>
      <trkpt lat="44.28592" lon="5.68945">
        <ele>1120.4000244141</ele>
        <time>2016-05-07T07:13:35Z</time>
      </trkpt>
      <trkpt lat="44.28592" lon="5.68938">
        <ele>1120.8000488281</ele>
        <time>2016-05-07T07:13:37Z</time>
      </trkpt>
      <trkpt lat="44.28591" lon="5.68934">
        <ele>1121.8000488281</ele>
        <time>2016-05-07T07:13:38Z</time>
      </trkpt>
      <trkpt lat="44.2859" lon="5.68927">
        <ele>1121.8000488281</ele>
        <time>2016-05-07T07:13:40Z</time>
      </trkpt>
      <trkpt lat="44.28587" lon="5.68906">
        <ele>1121.8000488281</ele>
        <time>2016-05-07T07:13:47Z</time>
      </trkpt>
      <trkpt lat="44.28582" lon="5.68886">
        <ele>1121.8000488281</ele>
        <time>2016-05-07T07:13:54Z</time>
      </trkpt>
      <trkpt lat="44.28576" lon="5.6887">
        <ele>1121.8000488281</ele>
        <time>2016-05-07T07:13:57Z</time>
      </trkpt>
      <trkpt lat="44.28571" lon="5.68857">
        <ele>1121.8000488281</ele>
        <time>2016-05-07T07:13:59Z</time>
      </trkpt>
      <trkpt lat="44.28564" lon="5.68844">
        <ele>1121.8000488281</ele>
        <time>2016-05-07T07:14:01Z</time>
      </trkpt>
      <trkpt lat="44.28553" lon="5.68834">
        <ele>1121.1999511719</ele>
        <time>2016-05-07T07:14:03Z</time>
      </trkpt>
      <trkpt lat="44.28547" lon="5.68833">
        <ele>1120.8000488281</ele>
        <time>2016-05-07T07:14:04Z</time>
      </trkpt>
      <trkpt lat="44.28539" lon="5.68833">
        <ele>1120.4000244141</ele>
        <time>2016-05-07T07:14:05Z</time>
      </trkpt>
      <trkpt lat="44.28531" lon="5.68834">
        <ele>1119.8000488281</ele>
        <time>2016-05-07T07:14:06Z</time>
      </trkpt>
      <trkpt lat="44.28522" lon="5.68837">
        <ele>1119.1999511719</ele>
        <time>2016-05-07T07:14:07Z</time>
      </trkpt>
      <trkpt lat="44.28514" lon="5.6884">
        <ele>1119.1999511719</ele>
        <time>2016-05-07T07:14:08Z</time>
      </trkpt>
      <trkpt lat="44.28506" lon="5.68842">
        <ele>1117.8000488281</ele>
        <time>2016-05-07T07:14:09Z</time>
      </trkpt>
      <trkpt lat="44.28499" lon="5.68841">
        <ele>1117.1999511719</ele>
        <time>2016-05-07T07:14:10Z</time>
      </trkpt>
      <trkpt lat="44.28492" lon="5.68839">
        <ele>1116.8000488281</ele>
        <time>2016-05-07T07:14:11Z</time>
      </trkpt>
      <trkpt lat="44.28485" lon="5.68834">
        <ele>1116.4000244141</ele>
        <time>2016-05-07T07:14:12Z</time>
      </trkpt>
      <trkpt lat="44.28481" lon="5.68827">
        <ele>1116.4000244141</ele>
        <time>2016-05-07T07:14:13Z</time>
      </trkpt>
      <trkpt lat="44.28477" lon="5.68819">
        <ele>1115.4000244141</ele>
        <time>2016-05-07T07:14:14Z</time>
      </trkpt>
      <trkpt lat="44.28476" lon="5.68812">
        <ele>1115</ele>
        <time>2016-05-07T07:14:15Z</time>
      </trkpt>
      <trkpt lat="44.28475" lon="5.68803">
        <ele>1115</ele>
        <time>2016-05-07T07:14:16Z</time>
      </trkpt>
      <trkpt lat="44.28475" lon="5.68794">
        <ele>1115</ele>
        <time>2016-05-07T07:14:17Z</time>
      </trkpt>
      <trkpt lat="44.28472" lon="5.68767">
        <ele>1114.5999755859</ele>
        <time>2016-05-07T07:14:20Z</time>
      </trkpt>
      <trkpt lat="44.2847" lon="5.68757">
        <ele>1114</ele>
        <time>2016-05-07T07:14:21Z</time>
      </trkpt>
      <trkpt lat="44.28469" lon="5.68749">
        <ele>1113.5999755859</ele>
        <time>2016-05-07T07:14:22Z</time>
      </trkpt>
      <trkpt lat="44.28465" lon="5.6874">
        <ele>1113.1999511719</ele>
        <time>2016-05-07T07:14:23Z</time>
      </trkpt>
      <trkpt lat="44.28455" lon="5.68724">
        <ele>1112</ele>
        <time>2016-05-07T07:14:25Z</time>
      </trkpt>
      <trkpt lat="44.28448" lon="5.68719">
        <ele>1111.5999755859</ele>
        <time>2016-05-07T07:14:26Z</time>
      </trkpt>
      <trkpt lat="44.2844" lon="5.68715">
        <ele>1111</ele>
        <time>2016-05-07T07:14:27Z</time>
      </trkpt>
      <trkpt lat="44.28432" lon="5.6871">
        <ele>1110.4000244141</ele>
        <time>2016-05-07T07:14:28Z</time>
      </trkpt>
      <trkpt lat="44.28423" lon="5.68705">
        <ele>1110.4000244141</ele>
        <time>2016-05-07T07:14:29Z</time>
      </trkpt>
      <trkpt lat="44.28416" lon="5.68698">
        <ele>1109.4000244141</ele>
        <time>2016-05-07T07:14:30Z</time>
      </trkpt>
      <trkpt lat="44.2841" lon="5.68692">
        <ele>1109</ele>
        <time>2016-05-07T07:14:31Z</time>
      </trkpt>
      <trkpt lat="44.28403" lon="5.68683">
        <ele>1108.4000244141</ele>
        <time>2016-05-07T07:14:32Z</time>
      </trkpt>
      <trkpt lat="44.284" lon="5.68673">
        <ele>1108</ele>
        <time>2016-05-07T07:14:33Z</time>
      </trkpt>
      <trkpt lat="44.28397" lon="5.68664">
        <ele>1107.4000244141</ele>
        <time>2016-05-07T07:14:34Z</time>
      </trkpt>
      <trkpt lat="44.28395" lon="5.68655">
        <ele>1107.4000244141</ele>
        <time>2016-05-07T07:14:35Z</time>
      </trkpt>
      <trkpt lat="44.28394" lon="5.68647">
        <ele>1106.1999511719</ele>
        <time>2016-05-07T07:14:36Z</time>
      </trkpt>
      <trkpt lat="44.28392" lon="5.68639">
        <ele>1105.5999755859</ele>
        <time>2016-05-07T07:14:37Z</time>
      </trkpt>
      <trkpt lat="44.2839" lon="5.6863">
        <ele>1105</ele>
        <time>2016-05-07T07:14:38Z</time>
      </trkpt>
      <trkpt lat="44.28389" lon="5.6862">
        <ele>1104.4000244141</ele>
        <time>2016-05-07T07:14:39Z</time>
      </trkpt>
      <trkpt lat="44.28389" lon="5.68611">
        <ele>1103.8000488281</ele>
        <time>2016-05-07T07:14:40Z</time>
      </trkpt>
      <trkpt lat="44.28389" lon="5.68602">
        <ele>1103.8000488281</ele>
        <time>2016-05-07T07:14:41Z</time>
      </trkpt>
      <trkpt lat="44.28387" lon="5.68594">
        <ele>1102.5999755859</ele>
        <time>2016-05-07T07:14:42Z</time>
      </trkpt>
      <trkpt lat="44.28386" lon="5.68588">
        <ele>1102</ele>
        <time>2016-05-07T07:14:43Z</time>
      </trkpt>
      <trkpt lat="44.28384" lon="5.68585">
        <ele>1101.4000244141</ele>
        <time>2016-05-07T07:14:44Z</time>
      </trkpt>
      <trkpt lat="44.28381" lon="5.68581">
        <ele>1101.4000244141</ele>
        <time>2016-05-07T07:14:46Z</time>
      </trkpt>
      <trkpt lat="44.28374" lon="5.68573">
        <ele>1101.4000244141</ele>
        <time>2016-05-07T07:14:50Z</time>
      </trkpt>
      <trkpt lat="44.28372" lon="5.68571">
        <ele>1101.8000488281</ele>
        <time>2016-05-07T07:14:51Z</time>
      </trkpt>
      <trkpt lat="44.28369" lon="5.68567">
        <ele>1102.1999511719</ele>
        <time>2016-05-07T07:14:52Z</time>
      </trkpt>
      <trkpt lat="44.28362" lon="5.68559">
        <ele>1102.5999755859</ele>
        <time>2016-05-07T07:14:54Z</time>
      </trkpt>
      <trkpt lat="44.28358" lon="5.68555">
        <ele>1103.4000244141</ele>
        <time>2016-05-07T07:14:55Z</time>
      </trkpt>
      <trkpt lat="44.28347" lon="5.68545">
        <ele>1103.4000244141</ele>
        <time>2016-05-07T07:14:59Z</time>
      </trkpt>
      <trkpt lat="44.28342" lon="5.68527">
        <ele>1103.4000244141</ele>
        <time>2016-05-07T07:15:06Z</time>
      </trkpt>
      <trkpt lat="44.28335" lon="5.68509">
        <ele>1103.4000244141</ele>
        <time>2016-05-07T07:15:13Z</time>
      </trkpt>
      <trkpt lat="44.28328" lon="5.68492">
        <ele>1103.8000488281</ele>
        <time>2016-05-07T07:15:19Z</time>
      </trkpt>
      <trkpt lat="44.28328" lon="5.6849">
        <ele>1104.1999511719</ele>
        <time>2016-05-07T07:15:20Z</time>
      </trkpt>
      <trkpt lat="44.28326" lon="5.68488">
        <ele>1105.1999511719</ele>
        <time>2016-05-07T07:15:21Z</time>
      </trkpt>
      <trkpt lat="44.28325" lon="5.68485">
        <ele>1105.5999755859</ele>
        <time>2016-05-07T07:15:22Z</time>
      </trkpt>
      <trkpt lat="44.28323" lon="5.68478">
        <ele>1105.5999755859</ele>
        <time>2016-05-07T07:15:25Z</time>
      </trkpt>
      <trkpt lat="44.2832" lon="5.6847">
        <ele>1106</ele>
        <time>2016-05-07T07:15:29Z</time>
      </trkpt>
      <trkpt lat="44.28318" lon="5.68468">
        <ele>1106.4000244141</ele>
        <time>2016-05-07T07:15:30Z</time>
      </trkpt>
      <trkpt lat="44.28316" lon="5.68466">
        <ele>1106.8000488281</ele>
        <time>2016-05-07T07:15:31Z</time>
      </trkpt>
      <trkpt lat="44.28314" lon="5.68465">
        <ele>1107.1999511719</ele>
        <time>2016-05-07T07:15:32Z</time>
      </trkpt>
      <trkpt lat="44.28311" lon="5.68463">
        <ele>1107.8000488281</ele>
        <time>2016-05-07T07:15:34Z</time>
      </trkpt>
      <trkpt lat="44.28302" lon="5.68462">
        <ele>1107.8000488281</ele>
        <time>2016-05-07T07:15:39Z</time>
      </trkpt>
      <trkpt lat="44.28291" lon="5.6846">
        <ele>1108.1999511719</ele>
        <time>2016-05-07T07:15:45Z</time>
      </trkpt>
      <trkpt lat="44.28286" lon="5.6846">
        <ele>1108.5999755859</ele>
        <time>2016-05-07T07:15:47Z</time>
      </trkpt>
      <trkpt lat="44.28284" lon="5.6846">
        <ele>1109</ele>
        <time>2016-05-07T07:15:48Z</time>
      </trkpt>
      <trkpt lat="44.28282" lon="5.68459">
        <ele>1109.4000244141</ele>
        <time>2016-05-07T07:15:49Z</time>
      </trkpt>
      <trkpt lat="44.2828" lon="5.68459">
        <ele>1109.8000488281</ele>
        <time>2016-05-07T07:15:50Z</time>
      </trkpt>
      <trkpt lat="44.28275" lon="5.68455">
        <ele>1109.8000488281</ele>
        <time>2016-05-07T07:15:53Z</time>
      </trkpt>
      <trkpt lat="44.28272" lon="5.68452">
        <ele>1109.8000488281</ele>
        <time>2016-05-07T07:15:55Z</time>
      </trkpt>
      <trkpt lat="44.28262" lon="5.6844">
        <ele>1109.8000488281</ele>
        <time>2016-05-07T07:16:01Z</time>
      </trkpt>
      <trkpt lat="44.28256" lon="5.68427">
        <ele>1110.1999511719</ele>
        <time>2016-05-07T07:16:05Z</time>
      </trkpt>
      <trkpt lat="44.28254" lon="5.68425">
        <ele>1110.8000488281</ele>
        <time>2016-05-07T07:16:06Z</time>
      </trkpt>
      <trkpt lat="44.28251" lon="5.68423">
        <ele>1111.1999511719</ele>
        <time>2016-05-07T07:16:07Z</time>
      </trkpt>
      <trkpt lat="44.28249" lon="5.68421">
        <ele>1111.5999755859</ele>
        <time>2016-05-07T07:16:08Z</time>
      </trkpt>
      <trkpt lat="44.28247" lon="5.68418">
        <ele>1112.1999511719</ele>
        <time>2016-05-07T07:16:09Z</time>
      </trkpt>
      <trkpt lat="44.2824" lon="5.68409">
        <ele>1112.1999511719</ele>
        <time>2016-05-07T07:16:13Z</time>
      </trkpt>
      <trkpt lat="44.28228" lon="5.68394">
        <ele>1112.1999511719</ele>
        <time>2016-05-07T07:16:19Z</time>
      </trkpt>
      <trkpt lat="44.28225" lon="5.68384">
        <ele>1112.5999755859</ele>
        <time>2016-05-07T07:16:22Z</time>
      </trkpt>
      <trkpt lat="44.28224" lon="5.68381">
        <ele>1113.4000244141</ele>
        <time>2016-05-07T07:16:23Z</time>
      </trkpt>
      <trkpt lat="44.28224" lon="5.68378">
        <ele>1113.8000488281</ele>
        <time>2016-05-07T07:16:24Z</time>
      </trkpt>
      <trkpt lat="44.28224" lon="5.68376">
        <ele>1114.1999511719</ele>
        <time>2016-05-07T07:16:25Z</time>
      </trkpt>
      <trkpt lat="44.28223" lon="5.68365">
        <ele>1114.5999755859</ele>
        <time>2016-05-07T07:16:30Z</time>
      </trkpt>
      <trkpt lat="44.28222" lon="5.68363">
        <ele>1115</ele>
        <time>2016-05-07T07:16:31Z</time>
      </trkpt>
      <trkpt lat="44.28222" lon="5.68361">
        <ele>1115.4000244141</ele>
        <time>2016-05-07T07:16:32Z</time>
      </trkpt>
      <trkpt lat="44.28222" lon="5.68359">
        <ele>1116</ele>
        <time>2016-05-07T07:16:33Z</time>
      </trkpt>
      <trkpt lat="44.28222" lon="5.68355">
        <ele>1116.4000244141</ele>
        <time>2016-05-07T07:16:35Z</time>
      </trkpt>
      <trkpt lat="44.28223" lon="5.68353">
        <ele>1116.4000244141</ele>
        <time>2016-05-07T07:16:36Z</time>
      </trkpt>
      <trkpt lat="44.28223" lon="5.68346">
        <ele>1116.4000244141</ele>
        <time>2016-05-07T07:16:39Z</time>
      </trkpt>
      <trkpt lat="44.28223" lon="5.68338">
        <ele>1116.4000244141</ele>
        <time>2016-05-07T07:16:42Z</time>
      </trkpt>
      <trkpt lat="44.28223" lon="5.68328">
        <ele>1116.4000244141</ele>
        <time>2016-05-07T07:16:46Z</time>
      </trkpt>
      <trkpt lat="44.2822" lon="5.68307">
        <ele>1116.4000244141</ele>
        <time>2016-05-07T07:16:51Z</time>
      </trkpt>
      <trkpt lat="44.2822" lon="5.68304">
        <ele>1116.8000488281</ele>
        <time>2016-05-07T07:16:52Z</time>
      </trkpt>
      <trkpt lat="44.2822" lon="5.68302">
        <ele>1117.1999511719</ele>
        <time>2016-05-07T07:16:53Z</time>
      </trkpt>
      <trkpt lat="44.2822" lon="5.683">
        <ele>1117.5999755859</ele>
        <time>2016-05-07T07:16:54Z</time>
      </trkpt>
      <trkpt lat="44.2822" lon="5.68297">
        <ele>1118</ele>
        <time>2016-05-07T07:16:55Z</time>
      </trkpt>
      <trkpt lat="44.28222" lon="5.68292">
        <ele>1118.4000244141</ele>
        <time>2016-05-07T07:16:57Z</time>
      </trkpt>
      <trkpt lat="44.28224" lon="5.68281">
        <ele>1118.8000488281</ele>
        <time>2016-05-07T07:17:02Z</time>
      </trkpt>
      <trkpt lat="44.28225" lon="5.68277">
        <ele>1119.5999755859</ele>
        <time>2016-05-07T07:17:04Z</time>
      </trkpt>
      <trkpt lat="44.28225" lon="5.68275">
        <ele>1120</ele>
        <time>2016-05-07T07:17:05Z</time>
      </trkpt>
      <trkpt lat="44.28225" lon="5.68273">
        <ele>1120.4000244141</ele>
        <time>2016-05-07T07:17:06Z</time>
      </trkpt>
      <trkpt lat="44.28219" lon="5.68265">
        <ele>1120.4000244141</ele>
        <time>2016-05-07T07:17:10Z</time>
      </trkpt>
      <trkpt lat="44.28215" lon="5.68263">
        <ele>1120.4000244141</ele>
        <time>2016-05-07T07:17:12Z</time>
      </trkpt>
      <trkpt lat="44.28213" lon="5.6826">
        <ele>1120.4000244141</ele>
        <time>2016-05-07T07:17:14Z</time>
      </trkpt>
      <trkpt lat="44.28212" lon="5.68258">
        <ele>1120.8000488281</ele>
        <time>2016-05-07T07:17:15Z</time>
      </trkpt>
      <trkpt lat="44.28211" lon="5.68257">
        <ele>1121.5999755859</ele>
        <time>2016-05-07T07:17:16Z</time>
      </trkpt>
      <trkpt lat="44.28209" lon="5.68256">
        <ele>1122</ele>
        <time>2016-05-07T07:17:17Z</time>
      </trkpt>
      <trkpt lat="44.28207" lon="5.68254">
        <ele>1122.4000244141</ele>
        <time>2016-05-07T07:17:18Z</time>
      </trkpt>
      <trkpt lat="44.28204" lon="5.68253">
        <ele>1122.4000244141</ele>
        <time>2016-05-07T07:17:19Z</time>
      </trkpt>
      <trkpt lat="44.28191" lon="5.68251">
        <ele>1122.4000244141</ele>
        <time>2016-05-07T07:17:25Z</time>
      </trkpt>
      <trkpt lat="44.28173" lon="5.68255">
        <ele>1122.4000244141</ele>
        <time>2016-05-07T07:17:33Z</time>
      </trkpt>
      <trkpt lat="44.28167" lon="5.68257">
        <ele>1122.8000488281</ele>
        <time>2016-05-07T07:17:38Z</time>
      </trkpt>
      <trkpt lat="44.28167" lon="5.68257">
        <ele>1123.1999511719</ele>
        <time>2016-05-07T07:17:39Z</time>
      </trkpt>
      <trkpt lat="44.28167" lon="5.68257">
        <ele>1123.5999755859</ele>
        <time>2016-05-07T07:17:40Z</time>
      </trkpt>
      <trkpt lat="44.28167" lon="5.68257">
        <ele>1124.1999511719</ele>
        <time>2016-05-07T07:17:41Z</time>
      </trkpt>
      <trkpt lat="44.28166" lon="5.68257">
        <ele>1124.5999755859</ele>
        <time>2016-05-07T07:17:42Z</time>
      </trkpt>
      <trkpt lat="44.28165" lon="5.68255">
        <ele>1125</ele>
        <time>2016-05-07T07:17:46Z</time>
      </trkpt>
      <trkpt lat="44.28165" lon="5.68255">
        <ele>1125.4000244141</ele>
        <time>2016-05-07T07:17:47Z</time>
      </trkpt>
      <trkpt lat="44.28165" lon="5.68254">
        <ele>1125.8000488281</ele>
        <time>2016-05-07T07:17:48Z</time>
      </trkpt>
      <trkpt lat="44.28165" lon="5.68253">
        <ele>1126.1999511719</ele>
        <time>2016-05-07T07:17:50Z</time>
      </trkpt>
      <trkpt lat="44.28166" lon="5.68252">
        <ele>1126.5999755859</ele>
        <time>2016-05-07T07:17:51Z</time>
      </trkpt>
      <trkpt lat="44.28149" lon="5.68233">
        <ele>1127.4000244141</ele>
        <time>2016-05-07T07:18:02Z</time>
      </trkpt>
      <trkpt lat="44.28147" lon="5.68232">
        <ele>1127.8000488281</ele>
        <time>2016-05-07T07:18:03Z</time>
      </trkpt>
      <trkpt lat="44.28146" lon="5.6823">
        <ele>1128.1999511719</ele>
        <time>2016-05-07T07:18:04Z</time>
      </trkpt>
      <trkpt lat="44.28144" lon="5.68229">
        <ele>1128.5999755859</ele>
        <time>2016-05-07T07:18:05Z</time>
      </trkpt>
      <trkpt lat="44.28141" lon="5.68226">
        <ele>1128.5999755859</ele>
        <time>2016-05-07T07:18:07Z</time>
      </trkpt>
      <trkpt lat="44.2814" lon="5.68224">
        <ele>1128.5999755859</ele>
        <time>2016-05-07T07:18:08Z</time>
      </trkpt>
      <trkpt lat="44.28135" lon="5.68217">
        <ele>1128.5999755859</ele>
        <time>2016-05-07T07:18:12Z</time>
      </trkpt>
      <trkpt lat="44.28132" lon="5.68215">
        <ele>1129.1999511719</ele>
        <time>2016-05-07T07:18:14Z</time>
      </trkpt>
      <trkpt lat="44.28132" lon="5.68214">
        <ele>1129.5999755859</ele>
        <time>2016-05-07T07:18:15Z</time>
      </trkpt>
      <trkpt lat="44.28129" lon="5.68211">
        <ele>1130.4000244141</ele>
        <time>2016-05-07T07:18:17Z</time>
      </trkpt>
      <trkpt lat="44.28128" lon="5.6821">
        <ele>1131</ele>
        <time>2016-05-07T07:18:18Z</time>
      </trkpt>
      <trkpt lat="44.28118" lon="5.68199">
        <ele>1131</ele>
        <time>2016-05-07T07:18:24Z</time>
      </trkpt>
      <trkpt lat="44.28112" lon="5.68189">
        <ele>1131</ele>
        <time>2016-05-07T07:18:29Z</time>
      </trkpt>
      <trkpt lat="44.28108" lon="5.68183">
        <ele>1131</ele>
        <time>2016-05-07T07:18:33Z</time>
      </trkpt>
      <trkpt lat="44.28101" lon="5.68173">
        <ele>1131</ele>
        <time>2016-05-07T07:18:37Z</time>
      </trkpt>
      <trkpt lat="44.281" lon="5.68171">
        <ele>1131</ele>
        <time>2016-05-07T07:18:38Z</time>
      </trkpt>
      <trkpt lat="44.28093" lon="5.68154">
        <ele>1131</ele>
        <time>2016-05-07T07:18:43Z</time>
      </trkpt>
      <trkpt lat="44.2809" lon="5.6815">
        <ele>1130.5999755859</ele>
        <time>2016-05-07T07:18:44Z</time>
      </trkpt>
      <trkpt lat="44.28088" lon="5.68147">
        <ele>1130</ele>
        <time>2016-05-07T07:18:45Z</time>
      </trkpt>
      <trkpt lat="44.28087" lon="5.68145">
        <ele>1129.5999755859</ele>
        <time>2016-05-07T07:18:46Z</time>
      </trkpt>
      <trkpt lat="44.28086" lon="5.68143">
        <ele>1129.1999511719</ele>
        <time>2016-05-07T07:18:47Z</time>
      </trkpt>
      <trkpt lat="44.28085" lon="5.68141">
        <ele>1128.8000488281</ele>
        <time>2016-05-07T07:18:48Z</time>
      </trkpt>
      <trkpt lat="44.2808" lon="5.68132">
        <ele>1129.1999511719</ele>
        <time>2016-05-07T07:18:53Z</time>
      </trkpt>
      <trkpt lat="44.28079" lon="5.6813">
        <ele>1129.5999755859</ele>
        <time>2016-05-07T07:18:54Z</time>
      </trkpt>
      <trkpt lat="44.28078" lon="5.68128">
        <ele>1130.5999755859</ele>
        <time>2016-05-07T07:18:55Z</time>
      </trkpt>
      <trkpt lat="44.28076" lon="5.68123">
        <ele>1131</ele>
        <time>2016-05-07T07:18:57Z</time>
      </trkpt>
      <trkpt lat="44.28073" lon="5.68119">
        <ele>1131.4000244141</ele>
        <time>2016-05-07T07:18:59Z</time>
      </trkpt>
      <trkpt lat="44.28071" lon="5.68117">
        <ele>1131.8000488281</ele>
        <time>2016-05-07T07:19:00Z</time>
      </trkpt>
      <trkpt lat="44.28071" lon="5.68116">
        <ele>1132.4000244141</ele>
        <time>2016-05-07T07:19:01Z</time>
      </trkpt>
      <trkpt lat="44.2807" lon="5.68115">
        <ele>1132.8000488281</ele>
        <time>2016-05-07T07:19:02Z</time>
      </trkpt>
      <trkpt lat="44.28069" lon="5.68114">
        <ele>1133.1999511719</ele>
        <time>2016-05-07T07:19:03Z</time>
      </trkpt>
      <trkpt lat="44.28062" lon="5.68107">
        <ele>1133.5999755859</ele>
        <time>2016-05-07T07:19:09Z</time>
      </trkpt>
      <trkpt lat="44.28061" lon="5.68105">
        <ele>1134</ele>
        <time>2016-05-07T07:19:10Z</time>
      </trkpt>
      <trkpt lat="44.2806" lon="5.68104">
        <ele>1134.4000244141</ele>
        <time>2016-05-07T07:19:11Z</time>
      </trkpt>
      <trkpt lat="44.28059" lon="5.68103">
        <ele>1134.8000488281</ele>
        <time>2016-05-07T07:19:12Z</time>
      </trkpt>
      <trkpt lat="44.28057" lon="5.68102">
        <ele>1135.1999511719</ele>
        <time>2016-05-07T07:19:13Z</time>
      </trkpt>
      <trkpt lat="44.28056" lon="5.68094">
        <ele>1135.1999511719</ele>
        <time>2016-05-07T07:19:16Z</time>
      </trkpt>
      <trkpt lat="44.28051" lon="5.68067">
        <ele>1135.1999511719</ele>
        <time>2016-05-07T07:19:22Z</time>
      </trkpt>
      <trkpt lat="44.2805" lon="5.68043">
        <ele>1135.1999511719</ele>
        <time>2016-05-07T07:19:27Z</time>
      </trkpt>
      <trkpt lat="44.28049" lon="5.68018">
        <ele>1135.1999511719</ele>
        <time>2016-05-07T07:19:33Z</time>
      </trkpt>
      <trkpt lat="44.28039" lon="5.67998">
        <ele>1134.8000488281</ele>
        <time>2016-05-07T07:19:37Z</time>
      </trkpt>
      <trkpt lat="44.28034" lon="5.67991">
        <ele>1134.4000244141</ele>
        <time>2016-05-07T07:19:38Z</time>
      </trkpt>
      <trkpt lat="44.28032" lon="5.67986">
        <ele>1134</ele>
        <time>2016-05-07T07:19:39Z</time>
      </trkpt>
      <trkpt lat="44.2803" lon="5.67982">
        <ele>1133.4000244141</ele>
        <time>2016-05-07T07:19:40Z</time>
      </trkpt>
      <trkpt lat="44.28025" lon="5.6798">
        <ele>1133</ele>
        <time>2016-05-07T07:19:41Z</time>
      </trkpt>
      <trkpt lat="44.28021" lon="5.67965">
        <ele>1133</ele>
        <time>2016-05-07T07:19:46Z</time>
      </trkpt>
      <trkpt lat="44.28011" lon="5.67956">
        <ele>1133</ele>
        <time>2016-05-07T07:19:51Z</time>
      </trkpt>
      <trkpt lat="44.28006" lon="5.67954">
        <ele>1134</ele>
        <time>2016-05-07T07:19:52Z</time>
      </trkpt>
      <trkpt lat="44.28" lon="5.67952">
        <ele>1134.4000244141</ele>
        <time>2016-05-07T07:19:54Z</time>
      </trkpt>
      <trkpt lat="44.27999" lon="5.6795">
        <ele>1135</ele>
        <time>2016-05-07T07:19:55Z</time>
      </trkpt>
      <trkpt lat="44.28" lon="5.67949">
        <ele>1135.4000244141</ele>
        <time>2016-05-07T07:19:56Z</time>
      </trkpt>
      <trkpt lat="44.28" lon="5.67947">
        <ele>1136.1999511719</ele>
        <time>2016-05-07T07:19:57Z</time>
      </trkpt>
      <trkpt lat="44.28" lon="5.67945">
        <ele>1136.5999755859</ele>
        <time>2016-05-07T07:19:59Z</time>
      </trkpt>
      <trkpt lat="44.28" lon="5.67943">
        <ele>1137</ele>
        <time>2016-05-07T07:20:00Z</time>
      </trkpt>
      <trkpt lat="44.27999" lon="5.67942">
        <ele>1137.4000244141</ele>
        <time>2016-05-07T07:20:01Z</time>
      </trkpt>
      <trkpt lat="44.27999" lon="5.67933">
        <ele>1137.8000488281</ele>
        <time>2016-05-07T07:20:05Z</time>
      </trkpt>
      <trkpt lat="44.27999" lon="5.67931">
        <ele>1138.1999511719</ele>
        <time>2016-05-07T07:20:06Z</time>
      </trkpt>
      <trkpt lat="44.28" lon="5.67928">
        <ele>1138.8000488281</ele>
        <time>2016-05-07T07:20:07Z</time>
      </trkpt>
      <trkpt lat="44.28001" lon="5.67925">
        <ele>1139.1999511719</ele>
        <time>2016-05-07T07:20:08Z</time>
      </trkpt>
      <trkpt lat="44.27994" lon="5.67923">
        <ele>1139.5999755859</ele>
        <time>2016-05-07T07:20:09Z</time>
      </trkpt>
      <trkpt lat="44.27992" lon="5.67911">
        <ele>1139.5999755859</ele>
        <time>2016-05-07T07:20:14Z</time>
      </trkpt>
      <trkpt lat="44.27991" lon="5.67909">
        <ele>1140</ele>
        <time>2016-05-07T07:20:15Z</time>
      </trkpt>
      <trkpt lat="44.2799" lon="5.67906">
        <ele>1140.4000244141</ele>
        <time>2016-05-07T07:20:16Z</time>
      </trkpt>
      <trkpt lat="44.27991" lon="5.67905">
        <ele>1140.8000488281</ele>
        <time>2016-05-07T07:20:17Z</time>
      </trkpt>
      <trkpt lat="44.2799" lon="5.67903">
        <ele>1141.1999511719</ele>
        <time>2016-05-07T07:20:18Z</time>
      </trkpt>
      <trkpt lat="44.2799" lon="5.67901">
        <ele>1141.5999755859</ele>
        <time>2016-05-07T07:20:19Z</time>
      </trkpt>
      <trkpt lat="44.27989" lon="5.67898">
        <ele>1141.5999755859</ele>
        <time>2016-05-07T07:20:20Z</time>
      </trkpt>
      <trkpt lat="44.27977" lon="5.67879">
        <ele>1141.5999755859</ele>
        <time>2016-05-07T07:20:25Z</time>
      </trkpt>
      <trkpt lat="44.27963" lon="5.6786">
        <ele>1141.1999511719</ele>
        <time>2016-05-07T07:20:29Z</time>
      </trkpt>
      <trkpt lat="44.27961" lon="5.67854">
        <ele>1140.8000488281</ele>
        <time>2016-05-07T07:20:30Z</time>
      </trkpt>
      <trkpt lat="44.27958" lon="5.67849">
        <ele>1140</ele>
        <time>2016-05-07T07:20:31Z</time>
      </trkpt>
      <trkpt lat="44.27952" lon="5.67843">
        <ele>1139.4000244141</ele>
        <time>2016-05-07T07:20:32Z</time>
      </trkpt>
      <trkpt lat="44.27947" lon="5.67836">
        <ele>1138.5999755859</ele>
        <time>2016-05-07T07:20:33Z</time>
      </trkpt>
      <trkpt lat="44.27938" lon="5.67828">
        <ele>1137.5999755859</ele>
        <time>2016-05-07T07:20:34Z</time>
      </trkpt>
      <trkpt lat="44.27932" lon="5.67821">
        <ele>1136</ele>
        <time>2016-05-07T07:20:35Z</time>
      </trkpt>
      <trkpt lat="44.27923" lon="5.67807">
        <ele>1135.1999511719</ele>
        <time>2016-05-07T07:20:37Z</time>
      </trkpt>
      <trkpt lat="44.27922" lon="5.67801">
        <ele>1133.5999755859</ele>
        <time>2016-05-07T07:20:38Z</time>
      </trkpt>
      <trkpt lat="44.2792" lon="5.67793">
        <ele>1133.5999755859</ele>
        <time>2016-05-07T07:20:39Z</time>
      </trkpt>
      <trkpt lat="44.2792" lon="5.67786">
        <ele>1132.8000488281</ele>
        <time>2016-05-07T07:20:40Z</time>
      </trkpt>
      <trkpt lat="44.27921" lon="5.67768">
        <ele>1132.4000244141</ele>
        <time>2016-05-07T07:20:43Z</time>
      </trkpt>
      <trkpt lat="44.27921" lon="5.67762">
        <ele>1132</ele>
        <time>2016-05-07T07:20:44Z</time>
      </trkpt>
      <trkpt lat="44.27921" lon="5.67756">
        <ele>1131.5999755859</ele>
        <time>2016-05-07T07:20:45Z</time>
      </trkpt>
      <trkpt lat="44.27921" lon="5.6775">
        <ele>1131.1999511719</ele>
        <time>2016-05-07T07:20:46Z</time>
      </trkpt>
      <trkpt lat="44.27921" lon="5.67743">
        <ele>1130.8000488281</ele>
        <time>2016-05-07T07:20:47Z</time>
      </trkpt>
      <trkpt lat="44.27913" lon="5.67727">
        <ele>1130.8000488281</ele>
        <time>2016-05-07T07:20:51Z</time>
      </trkpt>
      <trkpt lat="44.27904" lon="5.67705">
        <ele>1130.8000488281</ele>
        <time>2016-05-07T07:20:56Z</time>
      </trkpt>
      <trkpt lat="44.27899" lon="5.67699">
        <ele>1130.8000488281</ele>
        <time>2016-05-07T07:20:58Z</time>
      </trkpt>
      <trkpt lat="44.27897" lon="5.67696">
        <ele>1130.8000488281</ele>
        <time>2016-05-07T07:21:00Z</time>
      </trkpt>
      <trkpt lat="44.27892" lon="5.67683">
        <ele>1131.5999755859</ele>
        <time>2016-05-07T07:21:07Z</time>
      </trkpt>
      <trkpt lat="44.27891" lon="5.6768">
        <ele>1131.5999755859</ele>
        <time>2016-05-07T07:21:08Z</time>
      </trkpt>
      <trkpt lat="44.27889" lon="5.67677">
        <ele>1132.1999511719</ele>
        <time>2016-05-07T07:21:09Z</time>
      </trkpt>
      <trkpt lat="44.27888" lon="5.67674">
        <ele>1133</ele>
        <time>2016-05-07T07:21:10Z</time>
      </trkpt>
      <trkpt lat="44.27888" lon="5.67656">
        <ele>1133</ele>
        <time>2016-05-07T07:21:14Z</time>
      </trkpt>
      <trkpt lat="44.27884" lon="5.67631">
        <ele>1133</ele>
        <time>2016-05-07T07:21:18Z</time>
      </trkpt>
      <trkpt lat="44.27879" lon="5.67622">
        <ele>1133</ele>
        <time>2016-05-07T07:21:22Z</time>
      </trkpt>
      <trkpt lat="44.27863" lon="5.67602">
        <ele>1133</ele>
        <time>2016-05-07T07:21:28Z</time>
      </trkpt>
      <trkpt lat="44.27856" lon="5.67594">
        <ele>1132.1999511719</ele>
        <time>2016-05-07T07:21:30Z</time>
      </trkpt>
      <trkpt lat="44.27853" lon="5.67591">
        <ele>1131.8000488281</ele>
        <time>2016-05-07T07:21:31Z</time>
      </trkpt>
      <trkpt lat="44.27847" lon="5.67584">
        <ele>1131.1999511719</ele>
        <time>2016-05-07T07:21:33Z</time>
      </trkpt>
      <trkpt lat="44.27844" lon="5.6758">
        <ele>1130.8000488281</ele>
        <time>2016-05-07T07:21:34Z</time>
      </trkpt>
      <trkpt lat="44.27838" lon="5.67563">
        <ele>1130.4000244141</ele>
        <time>2016-05-07T07:21:37Z</time>
      </trkpt>
      <trkpt lat="44.27837" lon="5.67558">
        <ele>1130.4000244141</ele>
        <time>2016-05-07T07:21:38Z</time>
      </trkpt>
      <trkpt lat="44.27836" lon="5.67554">
        <ele>1130</ele>
        <time>2016-05-07T07:21:39Z</time>
      </trkpt>
      <trkpt lat="44.27835" lon="5.67551">
        <ele>1129</ele>
        <time>2016-05-07T07:21:40Z</time>
      </trkpt>
      <trkpt lat="44.27833" lon="5.67549">
        <ele>1128.5999755859</ele>
        <time>2016-05-07T07:21:41Z</time>
      </trkpt>
      <trkpt lat="44.27831" lon="5.67544">
        <ele>1128.5999755859</ele>
        <time>2016-05-07T07:21:43Z</time>
      </trkpt>
      <trkpt lat="44.27827" lon="5.67534">
        <ele>1129</ele>
        <time>2016-05-07T07:21:47Z</time>
      </trkpt>
      <trkpt lat="44.27825" lon="5.67531">
        <ele>1129.4000244141</ele>
        <time>2016-05-07T07:21:49Z</time>
      </trkpt>
      <trkpt lat="44.27824" lon="5.67531">
        <ele>1129.8000488281</ele>
        <time>2016-05-07T07:21:50Z</time>
      </trkpt>
      <trkpt lat="44.27824" lon="5.67528">
        <ele>1130.1999511719</ele>
        <time>2016-05-07T07:21:51Z</time>
      </trkpt>
      <trkpt lat="44.27823" lon="5.67527">
        <ele>1130.5999755859</ele>
        <time>2016-05-07T07:21:52Z</time>
      </trkpt>
      <trkpt lat="44.27824" lon="5.67521">
        <ele>1131</ele>
        <time>2016-05-07T07:21:54Z</time>
      </trkpt>
      <trkpt lat="44.27825" lon="5.67519">
        <ele>1131.4000244141</ele>
        <time>2016-05-07T07:21:55Z</time>
      </trkpt>
      <trkpt lat="44.27826" lon="5.67517">
        <ele>1132.1999511719</ele>
        <time>2016-05-07T07:21:56Z</time>
      </trkpt>
      <trkpt lat="44.27825" lon="5.67515">
        <ele>1132.5999755859</ele>
        <time>2016-05-07T07:21:57Z</time>
      </trkpt>
      <trkpt lat="44.27823" lon="5.67511">
        <ele>1133</ele>
        <time>2016-05-07T07:22:00Z</time>
      </trkpt>
      <trkpt lat="44.27823" lon="5.6751">
        <ele>1133.5999755859</ele>
        <time>2016-05-07T07:22:01Z</time>
      </trkpt>
      <trkpt lat="44.27823" lon="5.6751">
        <ele>1134</ele>
        <time>2016-05-07T07:22:02Z</time>
      </trkpt>
      <trkpt lat="44.27823" lon="5.67509">
        <ele>1134.4000244141</ele>
        <time>2016-05-07T07:22:03Z</time>
      </trkpt>
      <trkpt lat="44.27823" lon="5.67509">
        <ele>1134.8000488281</ele>
        <time>2016-05-07T07:22:04Z</time>
      </trkpt>
      <trkpt lat="44.27823" lon="5.67509">
        <ele>1135.1999511719</ele>
        <time>2016-05-07T07:22:18Z</time>
      </trkpt>
      <trkpt lat="44.27823" lon="5.67509">
        <ele>1135.5999755859</ele>
        <time>2016-05-07T07:22:19Z</time>
      </trkpt>
      <trkpt lat="44.27823" lon="5.67509">
        <ele>1136</ele>
        <time>2016-05-07T07:22:20Z</time>
      </trkpt>
      <trkpt lat="44.27823" lon="5.67509">
        <ele>1136.4000244141</ele>
        <time>2016-05-07T07:22:21Z</time>
      </trkpt>
      <trkpt lat="44.27823" lon="5.67509">
        <ele>1137</ele>
        <time>2016-05-07T07:22:22Z</time>
      </trkpt>
      <trkpt lat="44.27823" lon="5.67509">
        <ele>1137.4000244141</ele>
        <time>2016-05-07T07:22:30Z</time>
      </trkpt>
      <trkpt lat="44.27823" lon="5.67509">
        <ele>1137.8000488281</ele>
        <time>2016-05-07T07:22:32Z</time>
      </trkpt>
      <trkpt lat="44.27823" lon="5.67509">
        <ele>1138.1999511719</ele>
        <time>2016-05-07T07:22:33Z</time>
      </trkpt>
      <trkpt lat="44.27823" lon="5.67509">
        <ele>1138.5999755859</ele>
        <time>2016-05-07T07:22:34Z</time>
      </trkpt>
      <trkpt lat="44.27823" lon="5.67509">
        <ele>1139</ele>
        <time>2016-05-07T07:22:35Z</time>
      </trkpt>
      <trkpt lat="44.27822" lon="5.67509">
        <ele>1139.4000244141</ele>
        <time>2016-05-07T07:23:03Z</time>
      </trkpt>
      <trkpt lat="44.27822" lon="5.67509">
        <ele>1139.8000488281</ele>
        <time>2016-05-07T07:23:04Z</time>
      </trkpt>
      <trkpt lat="44.27822" lon="5.67509">
        <ele>1140.1999511719</ele>
        <time>2016-05-07T07:23:05Z</time>
      </trkpt>
      <trkpt lat="44.27822" lon="5.67509">
        <ele>1140.8000488281</ele>
        <time>2016-05-07T07:23:06Z</time>
      </trkpt>
      <trkpt lat="44.27822" lon="5.67509">
        <ele>1141.1999511719</ele>
        <time>2016-05-07T07:23:07Z</time>
      </trkpt>
      <trkpt lat="44.27821" lon="5.67509">
        <ele>1141.5999755859</ele>
        <time>2016-05-07T07:23:17Z</time>
      </trkpt>
      <trkpt lat="44.27821" lon="5.67509">
        <ele>1142</ele>
        <time>2016-05-07T07:23:18Z</time>
      </trkpt>
      <trkpt lat="44.27821" lon="5.67509">
        <ele>1142.4000244141</ele>
        <time>2016-05-07T07:23:19Z</time>
      </trkpt>
      <trkpt lat="44.27821" lon="5.67509">
        <ele>1143</ele>
        <time>2016-05-07T07:23:20Z</time>
      </trkpt>
      <trkpt lat="44.27821" lon="5.67509">
        <ele>1143.4000244141</ele>
        <time>2016-05-07T07:23:21Z</time>
      </trkpt>
      <trkpt lat="44.2782" lon="5.67509">
        <ele>1143.4000244141</ele>
        <time>2016-05-07T07:23:31Z</time>
      </trkpt>
      <trkpt lat="44.27818" lon="5.67507">
        <ele>1143.8000488281</ele>
        <time>2016-05-07T07:23:41Z</time>
      </trkpt>
      <trkpt lat="44.27818" lon="5.67507">
        <ele>1144.1999511719</ele>
        <time>2016-05-07T07:23:42Z</time>
      </trkpt>
      <trkpt lat="44.27818" lon="5.67506">
        <ele>1144.5999755859</ele>
        <time>2016-05-07T07:23:43Z</time>
      </trkpt>
      <trkpt lat="44.27817" lon="5.67505">
        <ele>1145</ele>
        <time>2016-05-07T07:23:44Z</time>
      </trkpt>
      <trkpt lat="44.27816" lon="5.67504">
        <ele>1145.4000244141</ele>
        <time>2016-05-07T07:23:45Z</time>
      </trkpt>
      <trkpt lat="44.27785" lon="5.67488">
        <ele>1145.4000244141</ele>
        <time>2016-05-07T07:23:51Z</time>
      </trkpt>
      <trkpt lat="44.27765" lon="5.67474">
        <ele>1145.4000244141</ele>
        <time>2016-05-07T07:23:56Z</time>
      </trkpt>
      <trkpt lat="44.27752" lon="5.67467">
        <ele>1145.8000488281</ele>
        <time>2016-05-07T07:24:00Z</time>
      </trkpt>
      <trkpt lat="44.2775" lon="5.67466">
        <ele>1146.4000244141</ele>
        <time>2016-05-07T07:24:01Z</time>
      </trkpt>
      <trkpt lat="44.27748" lon="5.67464">
        <ele>1146.8000488281</ele>
        <time>2016-05-07T07:24:02Z</time>
      </trkpt>
      <trkpt lat="44.27745" lon="5.67461">
        <ele>1147.1999511719</ele>
        <time>2016-05-07T07:24:03Z</time>
      </trkpt>
      <trkpt lat="44.27742" lon="5.67459">
        <ele>1147.5999755859</ele>
        <time>2016-05-07T07:24:04Z</time>
      </trkpt>
      <trkpt lat="44.27736" lon="5.67453">
        <ele>1147.5999755859</ele>
        <time>2016-05-07T07:24:08Z</time>
      </trkpt>
      <trkpt lat="44.27727" lon="5.67445">
        <ele>1147.5999755859</ele>
        <time>2016-05-07T07:24:13Z</time>
      </trkpt>
      <trkpt lat="44.27725" lon="5.67443">
        <ele>1148</ele>
        <time>2016-05-07T07:24:15Z</time>
      </trkpt>
      <trkpt lat="44.27724" lon="5.67443">
        <ele>1148.5999755859</ele>
        <time>2016-05-07T07:24:16Z</time>
      </trkpt>
      <trkpt lat="44.27723" lon="5.67442">
        <ele>1149</ele>
        <time>2016-05-07T07:24:17Z</time>
      </trkpt>
      <trkpt lat="44.27721" lon="5.67441">
        <ele>1149.4000244141</ele>
        <time>2016-05-07T07:24:18Z</time>
      </trkpt>
      <trkpt lat="44.27718" lon="5.67439">
        <ele>1149.8000488281</ele>
        <time>2016-05-07T07:24:19Z</time>
      </trkpt>
      <trkpt lat="44.27704" lon="5.67427">
        <ele>1149.8000488281</ele>
        <time>2016-05-07T07:24:24Z</time>
      </trkpt>
      <trkpt lat="44.27695" lon="5.67405">
        <ele>1149.8000488281</ele>
        <time>2016-05-07T07:24:30Z</time>
      </trkpt>
      <trkpt lat="44.27686" lon="5.67381">
        <ele>1149.8000488281</ele>
        <time>2016-05-07T07:24:38Z</time>
      </trkpt>
      <trkpt lat="44.27679" lon="5.67365">
        <ele>1149.8000488281</ele>
        <time>2016-05-07T07:24:43Z</time>
      </trkpt>
      <trkpt lat="44.27675" lon="5.67352">
        <ele>1150.1999511719</ele>
        <time>2016-05-07T07:24:48Z</time>
      </trkpt>
      <trkpt lat="44.27674" lon="5.67349">
        <ele>1150.8000488281</ele>
        <time>2016-05-07T07:24:49Z</time>
      </trkpt>
      <trkpt lat="44.27671" lon="5.67345">
        <ele>1151.1999511719</ele>
        <time>2016-05-07T07:24:51Z</time>
      </trkpt>
      <trkpt lat="44.2767" lon="5.67343">
        <ele>1151.5999755859</ele>
        <time>2016-05-07T07:24:52Z</time>
      </trkpt>
      <trkpt lat="44.2767" lon="5.6734">
        <ele>1152</ele>
        <time>2016-05-07T07:24:53Z</time>
      </trkpt>
      <trkpt lat="44.27665" lon="5.67325">
        <ele>1152</ele>
        <time>2016-05-07T07:24:59Z</time>
      </trkpt>
      <trkpt lat="44.27663" lon="5.67312">
        <ele>1152</ele>
        <time>2016-05-07T07:25:04Z</time>
      </trkpt>
      <trkpt lat="44.27663" lon="5.67311">
        <ele>1152.4000244141</ele>
        <time>2016-05-07T07:25:05Z</time>
      </trkpt>
      <trkpt lat="44.27664" lon="5.67309">
        <ele>1152.8000488281</ele>
        <time>2016-05-07T07:25:06Z</time>
      </trkpt>
      <trkpt lat="44.27664" lon="5.67307">
        <ele>1153.1999511719</ele>
        <time>2016-05-07T07:25:07Z</time>
      </trkpt>
      <trkpt lat="44.27664" lon="5.67305">
        <ele>1153.8000488281</ele>
        <time>2016-05-07T07:25:08Z</time>
      </trkpt>
      <trkpt lat="44.27663" lon="5.67304">
        <ele>1154.1999511719</ele>
        <time>2016-05-07T07:25:09Z</time>
      </trkpt>
      <trkpt lat="44.27662" lon="5.67301">
        <ele>1154.1999511719</ele>
        <time>2016-05-07T07:25:11Z</time>
      </trkpt>
      <trkpt lat="44.27658" lon="5.67283">
        <ele>1154.1999511719</ele>
        <time>2016-05-07T07:25:21Z</time>
      </trkpt>
      <trkpt lat="44.27658" lon="5.67276">
        <ele>1154.5999755859</ele>
        <time>2016-05-07T07:25:24Z</time>
      </trkpt>
      <trkpt lat="44.27657" lon="5.67273">
        <ele>1154.5999755859</ele>
        <time>2016-05-07T07:25:26Z</time>
      </trkpt>
      <trkpt lat="44.27657" lon="5.67256">
        <ele>1154.5999755859</ele>
        <time>2016-05-07T07:25:34Z</time>
      </trkpt>
      <trkpt lat="44.27656" lon="5.67248">
        <ele>1155.1999511719</ele>
        <time>2016-05-07T07:25:39Z</time>
      </trkpt>
      <trkpt lat="44.27656" lon="5.67242">
        <ele>1155.1999511719</ele>
        <time>2016-05-07T07:25:44Z</time>
      </trkpt>
      <trkpt lat="44.2765" lon="5.67221">
        <ele>1155.1999511719</ele>
        <time>2016-05-07T07:25:56Z</time>
      </trkpt>
      <trkpt lat="44.27649" lon="5.67219">
        <ele>1155.1999511719</ele>
        <time>2016-05-07T07:25:57Z</time>
      </trkpt>
      <trkpt lat="44.27644" lon="5.67207">
        <ele>1155.1999511719</ele>
        <time>2016-05-07T07:26:04Z</time>
      </trkpt>
      <trkpt lat="44.27638" lon="5.67193">
        <ele>1155.1999511719</ele>
        <time>2016-05-07T07:26:10Z</time>
      </trkpt>
      <trkpt lat="44.27634" lon="5.67174">
        <ele>1155.1999511719</ele>
        <time>2016-05-07T07:26:18Z</time>
      </trkpt>
      <trkpt lat="44.27637" lon="5.67155">
        <ele>1155.1999511719</ele>
        <time>2016-05-07T07:26:24Z</time>
      </trkpt>
      <trkpt lat="44.27636" lon="5.67147">
        <ele>1157.8000488281</ele>
        <time>2016-05-07T07:26:26Z</time>
      </trkpt>
      <trkpt lat="44.27633" lon="5.67135">
        <ele>1157.8000488281</ele>
        <time>2016-05-07T07:26:30Z</time>
      </trkpt>
      <trkpt lat="44.27634" lon="5.67115">
        <ele>1157.8000488281</ele>
        <time>2016-05-07T07:26:37Z</time>
      </trkpt>
      <trkpt lat="44.27634" lon="5.67101">
        <ele>1159.1999511719</ele>
        <time>2016-05-07T07:26:41Z</time>
      </trkpt>
      <trkpt lat="44.27634" lon="5.67094">
        <ele>1159.1999511719</ele>
        <time>2016-05-07T07:26:44Z</time>
      </trkpt>
      <trkpt lat="44.2763" lon="5.67075">
        <ele>1159.1999511719</ele>
        <time>2016-05-07T07:26:50Z</time>
      </trkpt>
      <trkpt lat="44.27629" lon="5.67061">
        <ele>1159.1999511719</ele>
        <time>2016-05-07T07:26:56Z</time>
      </trkpt>
      <trkpt lat="44.27626" lon="5.67039">
        <ele>1159.1999511719</ele>
        <time>2016-05-07T07:27:03Z</time>
      </trkpt>
      <trkpt lat="44.27623" lon="5.67022">
        <ele>1159.1999511719</ele>
        <time>2016-05-07T07:27:09Z</time>
      </trkpt>
      <trkpt lat="44.27622" lon="5.67004">
        <ele>1159.1999511719</ele>
        <time>2016-05-07T07:27:16Z</time>
      </trkpt>
      <trkpt lat="44.27619" lon="5.66989">
        <ele>1159.1999511719</ele>
        <time>2016-05-07T07:27:22Z</time>
      </trkpt>
      <trkpt lat="44.27618" lon="5.66983">
        <ele>1161</ele>
        <time>2016-05-07T07:27:25Z</time>
      </trkpt>
      <trkpt lat="44.27617" lon="5.66974">
        <ele>1161</ele>
        <time>2016-05-07T07:27:29Z</time>
      </trkpt>
      <trkpt lat="44.27617" lon="5.66956">
        <ele>1161</ele>
        <time>2016-05-07T07:27:34Z</time>
      </trkpt>
      <trkpt lat="44.27608" lon="5.66932">
        <ele>1162.8000488281</ele>
        <time>2016-05-07T07:27:42Z</time>
      </trkpt>
      <trkpt lat="44.27607" lon="5.66928">
        <ele>1162.8000488281</ele>
        <time>2016-05-07T07:27:43Z</time>
      </trkpt>
      <trkpt lat="44.27605" lon="5.66908">
        <ele>1162.8000488281</ele>
        <time>2016-05-07T07:27:48Z</time>
      </trkpt>
      <trkpt lat="44.27604" lon="5.66882">
        <ele>1162.8000488281</ele>
        <time>2016-05-07T07:27:52Z</time>
      </trkpt>
      <trkpt lat="44.27599" lon="5.6686">
        <ele>1162.8000488281</ele>
        <time>2016-05-07T07:27:57Z</time>
      </trkpt>
      <trkpt lat="44.27599" lon="5.66851">
        <ele>1164.8000488281</ele>
        <time>2016-05-07T07:27:59Z</time>
      </trkpt>
      <trkpt lat="44.27597" lon="5.66838">
        <ele>1164.8000488281</ele>
        <time>2016-05-07T07:28:03Z</time>
      </trkpt>
      <trkpt lat="44.27597" lon="5.66816">
        <ele>1164.8000488281</ele>
        <time>2016-05-07T07:28:08Z</time>
      </trkpt>
      <trkpt lat="44.27602" lon="5.66791">
        <ele>1164.8000488281</ele>
        <time>2016-05-07T07:28:14Z</time>
      </trkpt>
      <trkpt lat="44.2762" lon="5.66765">
        <ele>1164.8000488281</ele>
        <time>2016-05-07T07:28:21Z</time>
      </trkpt>
      <trkpt lat="44.27636" lon="5.6675">
        <ele>1164.8000488281</ele>
        <time>2016-05-07T07:28:25Z</time>
      </trkpt>
      <trkpt lat="44.27651" lon="5.66721">
        <ele>1164.8000488281</ele>
        <time>2016-05-07T07:28:29Z</time>
      </trkpt>
      <trkpt lat="44.27666" lon="5.66699">
        <ele>1165</ele>
        <time>2016-05-07T07:28:33Z</time>
      </trkpt>
      <trkpt lat="44.27666" lon="5.66694">
        <ele>1165</ele>
        <time>2016-05-07T07:28:34Z</time>
      </trkpt>
      <trkpt lat="44.27661" lon="5.66675">
        <ele>1165</ele>
        <time>2016-05-07T07:28:40Z</time>
      </trkpt>
      <trkpt lat="44.2766" lon="5.66673">
        <ele>1165</ele>
        <time>2016-05-07T07:28:41Z</time>
      </trkpt>
      <trkpt lat="44.27658" lon="5.66664">
        <ele>1165</ele>
        <time>2016-05-07T07:28:44Z</time>
      </trkpt>
      <trkpt lat="44.27655" lon="5.66651">
        <ele>1164.5999755859</ele>
        <time>2016-05-07T07:28:50Z</time>
      </trkpt>
      <trkpt lat="44.27654" lon="5.6665">
        <ele>1164.5999755859</ele>
        <time>2016-05-07T07:28:51Z</time>
      </trkpt>
      <trkpt lat="44.27656" lon="5.66636">
        <ele>1164.5999755859</ele>
        <time>2016-05-07T07:28:59Z</time>
      </trkpt>
      <trkpt lat="44.27652" lon="5.66623">
        <ele>1164.5999755859</ele>
        <time>2016-05-07T07:29:06Z</time>
      </trkpt>
      <trkpt lat="44.27652" lon="5.66612">
        <ele>1164.5999755859</ele>
        <time>2016-05-07T07:29:13Z</time>
      </trkpt>
      <trkpt lat="44.2765" lon="5.66598">
        <ele>1164.4000244141</ele>
        <time>2016-05-07T07:29:21Z</time>
      </trkpt>
      <trkpt lat="44.27647" lon="5.66588">
        <ele>1164.4000244141</ele>
        <time>2016-05-07T07:29:27Z</time>
      </trkpt>
      <trkpt lat="44.27643" lon="5.66575">
        <ele>1164.4000244141</ele>
        <time>2016-05-07T07:29:36Z</time>
      </trkpt>
      <trkpt lat="44.27642" lon="5.66569">
        <ele>1165.1999511719</ele>
        <time>2016-05-07T07:29:44Z</time>
      </trkpt>
      <trkpt lat="44.27642" lon="5.66569">
        <ele>1165.1999511719</ele>
        <time>2016-05-07T07:29:46Z</time>
      </trkpt>
      <trkpt lat="44.27642" lon="5.66569">
        <ele>1168.1999511719</ele>
        <time>2016-05-07T07:30:07Z</time>
      </trkpt>
      <trkpt lat="44.27642" lon="5.66569">
        <ele>1169.8000488281</ele>
        <time>2016-05-07T07:30:30Z</time>
      </trkpt>
      <trkpt lat="44.27642" lon="5.6657">
        <ele>1169.8000488281</ele>
        <time>2016-05-07T07:30:39Z</time>
      </trkpt>
      <trkpt lat="44.27641" lon="5.66569">
        <ele>1171.4000244141</ele>
        <time>2016-05-07T07:30:53Z</time>
      </trkpt>
      <trkpt lat="44.27641" lon="5.66568">
        <ele>1171.4000244141</ele>
        <time>2016-05-07T07:31:13Z</time>
      </trkpt>
      <trkpt lat="44.27641" lon="5.66567">
        <ele>1173.4000244141</ele>
        <time>2016-05-07T07:31:14Z</time>
      </trkpt>
      <trkpt lat="44.2764" lon="5.66565">
        <ele>1175.5999755859</ele>
        <time>2016-05-07T07:31:45Z</time>
      </trkpt>
      <trkpt lat="44.2764" lon="5.66565">
        <ele>1178.1999511719</ele>
        <time>2016-05-07T07:32:07Z</time>
      </trkpt>
      <trkpt lat="44.2764" lon="5.66565">
        <ele>1178.1999511719</ele>
        <time>2016-05-07T07:32:10Z</time>
      </trkpt>
      <trkpt lat="44.27639" lon="5.66564">
        <ele>1178.1999511719</ele>
        <time>2016-05-07T07:32:22Z</time>
      </trkpt>
      <trkpt lat="44.27639" lon="5.66563">
        <ele>1181.1999511719</ele>
        <time>2016-05-07T07:32:29Z</time>
      </trkpt>
      <trkpt lat="44.2764" lon="5.66561">
        <ele>1181.1999511719</ele>
        <time>2016-05-07T07:32:44Z</time>
      </trkpt>
      <trkpt lat="44.27637" lon="5.66543">
        <ele>1184</ele>
        <time>2016-05-07T07:32:51Z</time>
      </trkpt>
      <trkpt lat="44.27638" lon="5.66528">
        <ele>1184</ele>
        <time>2016-05-07T07:32:54Z</time>
      </trkpt>
      <trkpt lat="44.27653" lon="5.6649">
        <ele>1184</ele>
        <time>2016-05-07T07:33:02Z</time>
      </trkpt>
      <trkpt lat="44.27663" lon="5.66473">
        <ele>1184</ele>
        <time>2016-05-07T07:33:04Z</time>
      </trkpt>
      <trkpt lat="44.27668" lon="5.66465">
        <ele>1184</ele>
        <time>2016-05-07T07:33:05Z</time>
      </trkpt>
      <trkpt lat="44.27674" lon="5.66443">
        <ele>1184</ele>
        <time>2016-05-07T07:33:09Z</time>
      </trkpt>
      <trkpt lat="44.27665" lon="5.6643">
        <ele>1187</ele>
        <time>2016-05-07T07:33:13Z</time>
      </trkpt>
      <trkpt lat="44.27662" lon="5.66429">
        <ele>1187</ele>
        <time>2016-05-07T07:33:14Z</time>
      </trkpt>
      <trkpt lat="44.27658" lon="5.66425">
        <ele>1187</ele>
        <time>2016-05-07T07:33:16Z</time>
      </trkpt>
      <trkpt lat="44.27655" lon="5.66423">
        <ele>1187</ele>
        <time>2016-05-07T07:33:18Z</time>
      </trkpt>
      <trkpt lat="44.27641" lon="5.66413">
        <ele>1187</ele>
        <time>2016-05-07T07:33:25Z</time>
      </trkpt>
      <trkpt lat="44.27631" lon="5.66405">
        <ele>1187</ele>
        <time>2016-05-07T07:33:31Z</time>
      </trkpt>
      <trkpt lat="44.27618" lon="5.66393">
        <ele>1187</ele>
        <time>2016-05-07T07:33:39Z</time>
      </trkpt>
      <trkpt lat="44.2761" lon="5.6637">
        <ele>1187</ele>
        <time>2016-05-07T07:33:47Z</time>
      </trkpt>
      <trkpt lat="44.2761" lon="5.66366">
        <ele>1189.8000488281</ele>
        <time>2016-05-07T07:33:49Z</time>
      </trkpt>
      <trkpt lat="44.27611" lon="5.66356">
        <ele>1189.8000488281</ele>
        <time>2016-05-07T07:33:54Z</time>
      </trkpt>
      <trkpt lat="44.27611" lon="5.66337">
        <ele>1189.8000488281</ele>
        <time>2016-05-07T07:34:04Z</time>
      </trkpt>
      <trkpt lat="44.27612" lon="5.66318">
        <ele>1189.8000488281</ele>
        <time>2016-05-07T07:34:15Z</time>
      </trkpt>
      <trkpt lat="44.27617" lon="5.66296">
        <ele>1189.8000488281</ele>
        <time>2016-05-07T07:34:28Z</time>
      </trkpt>
      <trkpt lat="44.27613" lon="5.66279">
        <ele>1189.8000488281</ele>
        <time>2016-05-07T07:34:39Z</time>
      </trkpt>
      <trkpt lat="44.27611" lon="5.66259">
        <ele>1191.8000488281</ele>
        <time>2016-05-07T07:34:50Z</time>
      </trkpt>
      <trkpt lat="44.27614" lon="5.66241">
        <ele>1191.8000488281</ele>
        <time>2016-05-07T07:34:59Z</time>
      </trkpt>
      <trkpt lat="44.27618" lon="5.66231">
        <ele>1191.8000488281</ele>
        <time>2016-05-07T07:35:07Z</time>
      </trkpt>
      <trkpt lat="44.2762" lon="5.6622">
        <ele>1191.8000488281</ele>
        <time>2016-05-07T07:35:13Z</time>
      </trkpt>
      <trkpt lat="44.27625" lon="5.662">
        <ele>1191.8000488281</ele>
        <time>2016-05-07T07:35:22Z</time>
      </trkpt>
      <trkpt lat="44.27628" lon="5.66186">
        <ele>1191.8000488281</ele>
        <time>2016-05-07T07:35:29Z</time>
      </trkpt>
      <trkpt lat="44.27628" lon="5.66169">
        <ele>1191.8000488281</ele>
        <time>2016-05-07T07:35:37Z</time>
      </trkpt>
      <trkpt lat="44.27627" lon="5.66162">
        <ele>1195</ele>
        <time>2016-05-07T07:35:41Z</time>
      </trkpt>
      <trkpt lat="44.27621" lon="5.66144">
        <ele>1195</ele>
        <time>2016-05-07T07:35:47Z</time>
      </trkpt>
      <trkpt lat="44.27617" lon="5.66135">
        <ele>1195</ele>
        <time>2016-05-07T07:35:51Z</time>
      </trkpt>
      <trkpt lat="44.27613" lon="5.6613">
        <ele>1195</ele>
        <time>2016-05-07T07:35:54Z</time>
      </trkpt>
      <trkpt lat="44.27608" lon="5.66113">
        <ele>1195</ele>
        <time>2016-05-07T07:36:03Z</time>
      </trkpt>
      <trkpt lat="44.2761" lon="5.66099">
        <ele>1195</ele>
        <time>2016-05-07T07:36:10Z</time>
      </trkpt>
      <trkpt lat="44.27615" lon="5.66076">
        <ele>1195</ele>
        <time>2016-05-07T07:36:19Z</time>
      </trkpt>
      <trkpt lat="44.27617" lon="5.6605">
        <ele>1195</ele>
        <time>2016-05-07T07:36:29Z</time>
      </trkpt>
      <trkpt lat="44.2762" lon="5.66029">
        <ele>1195</ele>
        <time>2016-05-07T07:36:36Z</time>
      </trkpt>
      <trkpt lat="44.27623" lon="5.66015">
        <ele>1195</ele>
        <time>2016-05-07T07:36:42Z</time>
      </trkpt>
      <trkpt lat="44.27621" lon="5.6599">
        <ele>1199.5999755859</ele>
        <time>2016-05-07T07:36:51Z</time>
      </trkpt>
      <trkpt lat="44.27618" lon="5.65985">
        <ele>1199.5999755859</ele>
        <time>2016-05-07T07:36:56Z</time>
      </trkpt>
      <trkpt lat="44.27613" lon="5.6597">
        <ele>1199.5999755859</ele>
        <time>2016-05-07T07:37:39Z</time>
      </trkpt>
      <trkpt lat="44.27613" lon="5.65969">
        <ele>1204.4000244141</ele>
        <time>2016-05-07T07:37:51Z</time>
      </trkpt>
      <trkpt lat="44.27609" lon="5.65967">
        <ele>1204.4000244141</ele>
        <time>2016-05-07T07:38:23Z</time>
      </trkpt>
      <trkpt lat="44.27602" lon="5.65964">
        <ele>1204.4000244141</ele>
        <time>2016-05-07T07:38:58Z</time>
      </trkpt>
      <trkpt lat="44.27589" lon="5.65958">
        <ele>1204.4000244141</ele>
        <time>2016-05-07T07:39:04Z</time>
      </trkpt>
      <trkpt lat="44.27578" lon="5.65956">
        <ele>1204.4000244141</ele>
        <time>2016-05-07T07:39:10Z</time>
      </trkpt>
      <trkpt lat="44.27566" lon="5.65953">
        <ele>1209.4000244141</ele>
        <time>2016-05-07T07:39:16Z</time>
      </trkpt>
      <trkpt lat="44.27563" lon="5.65952">
        <ele>1209.4000244141</ele>
        <time>2016-05-07T07:39:18Z</time>
      </trkpt>
      <trkpt lat="44.27546" lon="5.65953">
        <ele>1209.4000244141</ele>
        <time>2016-05-07T07:39:29Z</time>
      </trkpt>
      <trkpt lat="44.27542" lon="5.65954">
        <ele>1209.4000244141</ele>
        <time>2016-05-07T07:39:31Z</time>
      </trkpt>
      <trkpt lat="44.27534" lon="5.65956">
        <ele>1209.4000244141</ele>
        <time>2016-05-07T07:39:36Z</time>
      </trkpt>
      <trkpt lat="44.27524" lon="5.65952">
        <ele>1209.4000244141</ele>
        <time>2016-05-07T07:39:44Z</time>
      </trkpt>
      <trkpt lat="44.27516" lon="5.65952">
        <ele>1209.4000244141</ele>
        <time>2016-05-07T07:39:50Z</time>
      </trkpt>
      <trkpt lat="44.27505" lon="5.6595">
        <ele>1209.4000244141</ele>
        <time>2016-05-07T07:39:59Z</time>
      </trkpt>
      <trkpt lat="44.27489" lon="5.65958">
        <ele>1209.4000244141</ele>
        <time>2016-05-07T07:40:08Z</time>
      </trkpt>
      <trkpt lat="44.27487" lon="5.6596">
        <ele>1209.4000244141</ele>
        <time>2016-05-07T07:40:10Z</time>
      </trkpt>
      <trkpt lat="44.27484" lon="5.65958">
        <ele>1209.4000244141</ele>
        <time>2016-05-07T07:40:12Z</time>
      </trkpt>
      <trkpt lat="44.2748" lon="5.65957">
        <ele>1209.4000244141</ele>
        <time>2016-05-07T07:40:14Z</time>
      </trkpt>
      <trkpt lat="44.27466" lon="5.65948">
        <ele>1209.4000244141</ele>
        <time>2016-05-07T07:40:23Z</time>
      </trkpt>
      <trkpt lat="44.27455" lon="5.6594">
        <ele>1209.4000244141</ele>
        <time>2016-05-07T07:40:31Z</time>
      </trkpt>
      <trkpt lat="44.27449" lon="5.65932">
        <ele>1209.4000244141</ele>
        <time>2016-05-07T07:40:37Z</time>
      </trkpt>
      <trkpt lat="44.27439" lon="5.65922">
        <ele>1209.4000244141</ele>
        <time>2016-05-07T07:40:46Z</time>
      </trkpt>
      <trkpt lat="44.27426" lon="5.65915">
        <ele>1209.4000244141</ele>
        <time>2016-05-07T07:40:55Z</time>
      </trkpt>
      <trkpt lat="44.2742" lon="5.65905">
        <ele>1209.4000244141</ele>
        <time>2016-05-07T07:41:03Z</time>
      </trkpt>
      <trkpt lat="44.27412" lon="5.65893">
        <ele>1209.4000244141</ele>
        <time>2016-05-07T07:41:10Z</time>
      </trkpt>
      <trkpt lat="44.27409" lon="5.65891">
        <ele>1209.4000244141</ele>
        <time>2016-05-07T07:41:11Z</time>
      </trkpt>
      <trkpt lat="44.27395" lon="5.65887">
        <ele>1209.4000244141</ele>
        <time>2016-05-07T07:41:17Z</time>
      </trkpt>
      <trkpt lat="44.27388" lon="5.65888">
        <ele>1209.4000244141</ele>
        <time>2016-05-07T07:41:22Z</time>
      </trkpt>
      <trkpt lat="44.27386" lon="5.65887">
        <ele>1215</ele>
        <time>2016-05-07T07:41:23Z</time>
      </trkpt>
      <trkpt lat="44.27381" lon="5.65889">
        <ele>1215</ele>
        <time>2016-05-07T07:41:29Z</time>
      </trkpt>
      <trkpt lat="44.27375" lon="5.65889">
        <ele>1215</ele>
        <time>2016-05-07T07:41:34Z</time>
      </trkpt>
      <trkpt lat="44.27366" lon="5.65887">
        <ele>1215</ele>
        <time>2016-05-07T07:41:44Z</time>
      </trkpt>
      <trkpt lat="44.27353" lon="5.65889">
        <ele>1215</ele>
        <time>2016-05-07T07:41:58Z</time>
      </trkpt>
      <trkpt lat="44.27346" lon="5.65889">
        <ele>1229.4000244141</ele>
        <time>2016-05-07T07:42:06Z</time>
      </trkpt>
      <trkpt lat="44.27339" lon="5.6589">
        <ele>1229.4000244141</ele>
        <time>2016-05-07T07:42:15Z</time>
      </trkpt>
      <trkpt lat="44.27325" lon="5.65888">
        <ele>1229.4000244141</ele>
        <time>2016-05-07T07:42:28Z</time>
      </trkpt>
      <trkpt lat="44.27315" lon="5.65885">
        <ele>1229.4000244141</ele>
        <time>2016-05-07T07:42:34Z</time>
      </trkpt>
      <trkpt lat="44.27303" lon="5.65881">
        <ele>1229.4000244141</ele>
        <time>2016-05-07T07:42:42Z</time>
      </trkpt>
      <trkpt lat="44.27293" lon="5.65874">
        <ele>1229.4000244141</ele>
        <time>2016-05-07T07:42:49Z</time>
      </trkpt>
      <trkpt lat="44.27286" lon="5.65875">
        <ele>1229.4000244141</ele>
        <time>2016-05-07T07:42:57Z</time>
      </trkpt>
      <trkpt lat="44.27278" lon="5.65873">
        <ele>1229.4000244141</ele>
        <time>2016-05-07T07:43:06Z</time>
      </trkpt>
      <trkpt lat="44.27273" lon="5.65867">
        <ele>1236.5999755859</ele>
        <time>2016-05-07T07:43:12Z</time>
      </trkpt>
      <trkpt lat="44.27266" lon="5.65861">
        <ele>1236.5999755859</ele>
        <time>2016-05-07T07:43:19Z</time>
      </trkpt>
      <trkpt lat="44.27259" lon="5.65859">
        <ele>1236.5999755859</ele>
        <time>2016-05-07T07:43:30Z</time>
      </trkpt>
      <trkpt lat="44.27251" lon="5.65853">
        <ele>1236.5999755859</ele>
        <time>2016-05-07T07:43:43Z</time>
      </trkpt>
      <trkpt lat="44.27249" lon="5.65853">
        <ele>1249.5999755859</ele>
        <time>2016-05-07T07:43:46Z</time>
      </trkpt>
      <trkpt lat="44.27243" lon="5.65845">
        <ele>1249.5999755859</ele>
        <time>2016-05-07T07:43:55Z</time>
      </trkpt>
      <trkpt lat="44.27237" lon="5.65836">
        <ele>1249.5999755859</ele>
        <time>2016-05-07T07:44:08Z</time>
      </trkpt>
      <trkpt lat="44.27232" lon="5.65832">
        <ele>1255.1999511719</ele>
        <time>2016-05-07T07:44:17Z</time>
      </trkpt>
      <trkpt lat="44.27231" lon="5.65832">
        <ele>1255.1999511719</ele>
        <time>2016-05-07T07:44:18Z</time>
      </trkpt>
      <trkpt lat="44.27223" lon="5.65829">
        <ele>1255.1999511719</ele>
        <time>2016-05-07T07:44:29Z</time>
      </trkpt>
      <trkpt lat="44.27217" lon="5.65831">
        <ele>1255.1999511719</ele>
        <time>2016-05-07T07:44:43Z</time>
      </trkpt>
      <trkpt lat="44.27214" lon="5.65833">
        <ele>1264.8000488281</ele>
        <time>2016-05-07T07:44:49Z</time>
      </trkpt>
      <trkpt lat="44.27209" lon="5.65835">
        <ele>1264.8000488281</ele>
        <time>2016-05-07T07:44:55Z</time>
      </trkpt>
      <trkpt lat="44.27206" lon="5.65835">
        <ele>1264.8000488281</ele>
        <time>2016-05-07T07:45:03Z</time>
      </trkpt>
      <trkpt lat="44.27196" lon="5.6583">
        <ele>1264.8000488281</ele>
        <time>2016-05-07T07:45:08Z</time>
      </trkpt>
      <trkpt lat="44.27185" lon="5.65829">
        <ele>1264.8000488281</ele>
        <time>2016-05-07T07:45:14Z</time>
      </trkpt>
      <trkpt lat="44.27171" lon="5.6583">
        <ele>1264.8000488281</ele>
        <time>2016-05-07T07:45:22Z</time>
      </trkpt>
      <trkpt lat="44.27158" lon="5.6582">
        <ele>1264.8000488281</ele>
        <time>2016-05-07T07:45:28Z</time>
      </trkpt>
      <trkpt lat="44.27148" lon="5.65806">
        <ele>1264.8000488281</ele>
        <time>2016-05-07T07:45:34Z</time>
      </trkpt>
      <trkpt lat="44.27147" lon="5.65805">
        <ele>1269.1999511719</ele>
        <time>2016-05-07T07:45:35Z</time>
      </trkpt>
      <trkpt lat="44.27137" lon="5.65799">
        <ele>1269.1999511719</ele>
        <time>2016-05-07T07:45:42Z</time>
      </trkpt>
      <trkpt lat="44.27123" lon="5.65786">
        <ele>1269.1999511719</ele>
        <time>2016-05-07T07:45:49Z</time>
      </trkpt>
      <trkpt lat="44.27113" lon="5.65779">
        <ele>1269.1999511719</ele>
        <time>2016-05-07T07:45:54Z</time>
      </trkpt>
      <trkpt lat="44.27102" lon="5.6577">
        <ele>1269.1999511719</ele>
        <time>2016-05-07T07:45:59Z</time>
      </trkpt>
      <trkpt lat="44.27085" lon="5.65763">
        <ele>1269.1999511719</ele>
        <time>2016-05-07T07:46:05Z</time>
      </trkpt>
      <trkpt lat="44.27075" lon="5.65742">
        <ele>1269.1999511719</ele>
        <time>2016-05-07T07:46:12Z</time>
      </trkpt>
      <trkpt lat="44.27073" lon="5.65723">
        <ele>1269.1999511719</ele>
        <time>2016-05-07T07:46:19Z</time>
      </trkpt>
      <trkpt lat="44.27069" lon="5.65696">
        <ele>1269.1999511719</ele>
        <time>2016-05-07T07:46:28Z</time>
      </trkpt>
      <trkpt lat="44.27064" lon="5.65678">
        <ele>1269.1999511719</ele>
        <time>2016-05-07T07:46:34Z</time>
      </trkpt>
      <trkpt lat="44.27056" lon="5.6565">
        <ele>1269.1999511719</ele>
        <time>2016-05-07T07:46:41Z</time>
      </trkpt>
      <trkpt lat="44.27052" lon="5.65639">
        <ele>1271.5999755859</ele>
        <time>2016-05-07T07:46:44Z</time>
      </trkpt>
      <trkpt lat="44.27047" lon="5.65631">
        <ele>1271.5999755859</ele>
        <time>2016-05-07T07:46:46Z</time>
      </trkpt>
      <trkpt lat="44.27039" lon="5.65624">
        <ele>1271.5999755859</ele>
        <time>2016-05-07T07:46:49Z</time>
      </trkpt>
      <trkpt lat="44.27035" lon="5.65619">
        <ele>1271.5999755859</ele>
        <time>2016-05-07T07:46:53Z</time>
      </trkpt>
      <trkpt lat="44.27031" lon="5.65608">
        <ele>1271.5999755859</ele>
        <time>2016-05-07T07:47:00Z</time>
      </trkpt>
      <trkpt lat="44.27028" lon="5.65602">
        <ele>1271.5999755859</ele>
        <time>2016-05-07T07:47:06Z</time>
      </trkpt>
      <trkpt lat="44.27027" lon="5.65597">
        <ele>1275</ele>
        <time>2016-05-07T07:47:18Z</time>
      </trkpt>
      <trkpt lat="44.27027" lon="5.65597">
        <ele>1275</ele>
        <time>2016-05-07T07:47:46Z</time>
      </trkpt>
      <trkpt lat="44.27027" lon="5.65597">
        <ele>1278.5999755859</ele>
        <time>2016-05-07T07:48:04Z</time>
      </trkpt>
      <trkpt lat="44.27027" lon="5.65597">
        <ele>1280.4000244141</ele>
        <time>2016-05-07T07:48:36Z</time>
      </trkpt>
      <trkpt lat="44.27027" lon="5.65595">
        <ele>1280.4000244141</ele>
        <time>2016-05-07T07:48:43Z</time>
      </trkpt>
      <trkpt lat="44.27026" lon="5.65594">
        <ele>1280.4000244141</ele>
        <time>2016-05-07T07:49:33Z</time>
      </trkpt>
      <trkpt lat="44.27026" lon="5.65593">
        <ele>1280.4000244141</ele>
        <time>2016-05-07T07:49:48Z</time>
      </trkpt>
      <trkpt lat="44.27025" lon="5.65593">
        <ele>1282.8000488281</ele>
        <time>2016-05-07T07:49:53Z</time>
      </trkpt>
      <trkpt lat="44.27025" lon="5.65593">
        <ele>1285.5999755859</ele>
        <time>2016-05-07T07:50:25Z</time>
      </trkpt>
      <trkpt lat="44.27024" lon="5.65592">
        <ele>1285.5999755859</ele>
        <time>2016-05-07T07:50:39Z</time>
      </trkpt>
      <trkpt lat="44.27024" lon="5.65592">
        <ele>1289.1999511719</ele>
        <time>2016-05-07T07:50:57Z</time>
      </trkpt>
      <trkpt lat="44.2701" lon="5.65582">
        <ele>1289.1999511719</ele>
        <time>2016-05-07T07:51:15Z</time>
      </trkpt>
      <trkpt lat="44.26983" lon="5.65563">
        <ele>1289.1999511719</ele>
        <time>2016-05-07T07:51:24Z</time>
      </trkpt>
      <trkpt lat="44.26968" lon="5.65556">
        <ele>1292.4000244141</ele>
        <time>2016-05-07T07:51:30Z</time>
      </trkpt>
      <trkpt lat="44.2696" lon="5.65551">
        <ele>1292.4000244141</ele>
        <time>2016-05-07T07:51:34Z</time>
      </trkpt>
      <trkpt lat="44.26936" lon="5.65533">
        <ele>1292.4000244141</ele>
        <time>2016-05-07T07:51:43Z</time>
      </trkpt>
      <trkpt lat="44.26916" lon="5.65509">
        <ele>1292.4000244141</ele>
        <time>2016-05-07T07:51:56Z</time>
      </trkpt>
      <trkpt lat="44.26915" lon="5.65493">
        <ele>1292.4000244141</ele>
        <time>2016-05-07T07:52:03Z</time>
      </trkpt>
      <trkpt lat="44.26902" lon="5.65472">
        <ele>1292.4000244141</ele>
        <time>2016-05-07T07:52:12Z</time>
      </trkpt>
      <trkpt lat="44.26902" lon="5.6547">
        <ele>1292.4000244141</ele>
        <time>2016-05-07T07:52:13Z</time>
      </trkpt>
      <trkpt lat="44.269" lon="5.65464">
        <ele>1292.4000244141</ele>
        <time>2016-05-07T07:52:17Z</time>
      </trkpt>
      <trkpt lat="44.269" lon="5.65454">
        <ele>1292.4000244141</ele>
        <time>2016-05-07T07:52:28Z</time>
      </trkpt>
      <trkpt lat="44.269" lon="5.65444">
        <ele>1292.4000244141</ele>
        <time>2016-05-07T07:52:31Z</time>
      </trkpt>
      <trkpt lat="44.26896" lon="5.65437">
        <ele>1292.4000244141</ele>
        <time>2016-05-07T07:52:36Z</time>
      </trkpt>
      <trkpt lat="44.26894" lon="5.65436">
        <ele>1295.8000488281</ele>
        <time>2016-05-07T07:52:57Z</time>
      </trkpt>
      <trkpt lat="44.26895" lon="5.65426">
        <ele>1295.8000488281</ele>
        <time>2016-05-07T07:53:06Z</time>
      </trkpt>
      <trkpt lat="44.26895" lon="5.65417">
        <ele>1295.8000488281</ele>
        <time>2016-05-07T07:53:16Z</time>
      </trkpt>
      <trkpt lat="44.26897" lon="5.6541">
        <ele>1295.8000488281</ele>
        <time>2016-05-07T07:53:21Z</time>
      </trkpt>
      <trkpt lat="44.26901" lon="5.65394">
        <ele>1295.8000488281</ele>
        <time>2016-05-07T07:53:29Z</time>
      </trkpt>
      <trkpt lat="44.26903" lon="5.65383">
        <ele>1295.8000488281</ele>
        <time>2016-05-07T07:53:34Z</time>
      </trkpt>
      <trkpt lat="44.26907" lon="5.65365">
        <ele>1295.8000488281</ele>
        <time>2016-05-07T07:53:39Z</time>
      </trkpt>
      <trkpt lat="44.2691" lon="5.65349">
        <ele>1295.8000488281</ele>
        <time>2016-05-07T07:53:44Z</time>
      </trkpt>
      <trkpt lat="44.26909" lon="5.65324">
        <ele>1295.8000488281</ele>
        <time>2016-05-07T07:53:50Z</time>
      </trkpt>
      <trkpt lat="44.2691" lon="5.65301">
        <ele>1295.8000488281</ele>
        <time>2016-05-07T07:53:56Z</time>
      </trkpt>
      <trkpt lat="44.2691" lon="5.65296">
        <ele>1295.8000488281</ele>
        <time>2016-05-07T07:53:58Z</time>
      </trkpt>
      <trkpt lat="44.26909" lon="5.65279">
        <ele>1299.1999511719</ele>
        <time>2016-05-07T07:54:04Z</time>
      </trkpt>
      <trkpt lat="44.2691" lon="5.65274">
        <ele>1299.1999511719</ele>
        <time>2016-05-07T07:54:06Z</time>
      </trkpt>
      <trkpt lat="44.2691" lon="5.65265">
        <ele>1299.1999511719</ele>
        <time>2016-05-07T07:54:11Z</time>
      </trkpt>
      <trkpt lat="44.2691" lon="5.65249">
        <ele>1299.1999511719</ele>
        <time>2016-05-07T07:54:22Z</time>
      </trkpt>
      <trkpt lat="44.26909" lon="5.65224">
        <ele>1299.1999511719</ele>
        <time>2016-05-07T07:54:34Z</time>
      </trkpt>
      <trkpt lat="44.26909" lon="5.65201">
        <ele>1299.1999511719</ele>
        <time>2016-05-07T07:54:44Z</time>
      </trkpt>
      <trkpt lat="44.26909" lon="5.65185">
        <ele>1306</ele>
        <time>2016-05-07T07:54:51Z</time>
      </trkpt>
      <trkpt lat="44.26908" lon="5.65179">
        <ele>1306</ele>
        <time>2016-05-07T07:54:55Z</time>
      </trkpt>
      <trkpt lat="44.26907" lon="5.65174">
        <ele>1309.4000244141</ele>
        <time>2016-05-07T07:54:58Z</time>
      </trkpt>
      <trkpt lat="44.26905" lon="5.65162">
        <ele>1309.4000244141</ele>
        <time>2016-05-07T07:55:04Z</time>
      </trkpt>
      <trkpt lat="44.26894" lon="5.65146">
        <ele>1309.4000244141</ele>
        <time>2016-05-07T07:55:12Z</time>
      </trkpt>
      <trkpt lat="44.26889" lon="5.65141">
        <ele>1310</ele>
        <time>2016-05-07T07:55:17Z</time>
      </trkpt>
      <trkpt lat="44.26889" lon="5.6514">
        <ele>1310.4000244141</ele>
        <time>2016-05-07T07:55:18Z</time>
      </trkpt>
      <trkpt lat="44.26888" lon="5.65139">
        <ele>1311.4000244141</ele>
        <time>2016-05-07T07:55:19Z</time>
      </trkpt>
      <trkpt lat="44.26887" lon="5.65139">
        <ele>1311.8000488281</ele>
        <time>2016-05-07T07:55:20Z</time>
      </trkpt>
      <trkpt lat="44.26886" lon="5.65136">
        <ele>1311.8000488281</ele>
        <time>2016-05-07T07:55:22Z</time>
      </trkpt>
      <trkpt lat="44.26882" lon="5.65128">
        <ele>1311.8000488281</ele>
        <time>2016-05-07T07:55:32Z</time>
      </trkpt>
      <trkpt lat="44.26881" lon="5.65127">
        <ele>1311.8000488281</ele>
        <time>2016-05-07T07:55:34Z</time>
      </trkpt>
      <trkpt lat="44.26878" lon="5.65119">
        <ele>1312.8000488281</ele>
        <time>2016-05-07T07:55:41Z</time>
      </trkpt>
      <trkpt lat="44.26878" lon="5.65118">
        <ele>1313.1999511719</ele>
        <time>2016-05-07T07:55:42Z</time>
      </trkpt>
      <trkpt lat="44.26879" lon="5.65117">
        <ele>1313.5999755859</ele>
        <time>2016-05-07T07:55:44Z</time>
      </trkpt>
      <trkpt lat="44.26879" lon="5.65117">
        <ele>1314.1999511719</ele>
        <time>2016-05-07T07:55:45Z</time>
      </trkpt>
      <trkpt lat="44.26872" lon="5.65107">
        <ele>1314.1999511719</ele>
        <time>2016-05-07T07:56:05Z</time>
      </trkpt>
      <trkpt lat="44.26867" lon="5.65095">
        <ele>1314.5999755859</ele>
        <time>2016-05-07T07:56:13Z</time>
      </trkpt>
      <trkpt lat="44.26867" lon="5.65094">
        <ele>1315</ele>
        <time>2016-05-07T07:56:14Z</time>
      </trkpt>
      <trkpt lat="44.26865" lon="5.65092">
        <ele>1315.4000244141</ele>
        <time>2016-05-07T07:56:15Z</time>
      </trkpt>
      <trkpt lat="44.26865" lon="5.65092">
        <ele>1315.8000488281</ele>
        <time>2016-05-07T07:56:16Z</time>
      </trkpt>
      <trkpt lat="44.26862" lon="5.65086">
        <ele>1316.1999511719</ele>
        <time>2016-05-07T07:56:18Z</time>
      </trkpt>
      <trkpt lat="44.26859" lon="5.65084">
        <ele>1316.5999755859</ele>
        <time>2016-05-07T07:56:23Z</time>
      </trkpt>
      <trkpt lat="44.26859" lon="5.65083">
        <ele>1317</ele>
        <time>2016-05-07T07:56:24Z</time>
      </trkpt>
      <trkpt lat="44.26858" lon="5.65081">
        <ele>1317.5999755859</ele>
        <time>2016-05-07T07:56:25Z</time>
      </trkpt>
      <trkpt lat="44.26857" lon="5.65079">
        <ele>1318</ele>
        <time>2016-05-07T07:56:26Z</time>
      </trkpt>
      <trkpt lat="44.26857" lon="5.65079">
        <ele>1318</ele>
        <time>2016-05-07T07:56:27Z</time>
      </trkpt>
      <trkpt lat="44.26857" lon="5.65078">
        <ele>1318.4000244141</ele>
        <time>2016-05-07T07:56:28Z</time>
      </trkpt>
      <trkpt lat="44.26854" lon="5.65072">
        <ele>1318.8000488281</ele>
        <time>2016-05-07T07:56:34Z</time>
      </trkpt>
      <trkpt lat="44.26854" lon="5.65071">
        <ele>1319.5999755859</ele>
        <time>2016-05-07T07:56:35Z</time>
      </trkpt>
      <trkpt lat="44.26854" lon="5.6507">
        <ele>1320</ele>
        <time>2016-05-07T07:56:36Z</time>
      </trkpt>
      <trkpt lat="44.26854" lon="5.65068">
        <ele>1320.4000244141</ele>
        <time>2016-05-07T07:56:38Z</time>
      </trkpt>
      <trkpt lat="44.26855" lon="5.65067">
        <ele>1320.4000244141</ele>
        <time>2016-05-07T07:56:42Z</time>
      </trkpt>
      <trkpt lat="44.26854" lon="5.65062">
        <ele>1320.4000244141</ele>
        <time>2016-05-07T07:56:49Z</time>
      </trkpt>
      <trkpt lat="44.26855" lon="5.65058">
        <ele>1319.4000244141</ele>
        <time>2016-05-07T07:56:51Z</time>
      </trkpt>
      <trkpt lat="44.26855" lon="5.65056">
        <ele>1319</ele>
        <time>2016-05-07T07:56:52Z</time>
      </trkpt>
      <trkpt lat="44.26854" lon="5.65048">
        <ele>1318.5999755859</ele>
        <time>2016-05-07T07:56:55Z</time>
      </trkpt>
      <trkpt lat="44.26854" lon="5.65046">
        <ele>1318</ele>
        <time>2016-05-07T07:56:56Z</time>
      </trkpt>
      <trkpt lat="44.26854" lon="5.65037">
        <ele>1318</ele>
        <time>2016-05-07T07:57:02Z</time>
      </trkpt>
      <trkpt lat="44.26856" lon="5.65017">
        <ele>1317.5999755859</ele>
        <time>2016-05-07T07:57:09Z</time>
      </trkpt>
      <trkpt lat="44.26856" lon="5.65014">
        <ele>1317.1999511719</ele>
        <time>2016-05-07T07:57:10Z</time>
      </trkpt>
      <trkpt lat="44.26856" lon="5.65012">
        <ele>1316.5999755859</ele>
        <time>2016-05-07T07:57:11Z</time>
      </trkpt>
      <trkpt lat="44.26857" lon="5.6501">
        <ele>1316.1999511719</ele>
        <time>2016-05-07T07:57:12Z</time>
      </trkpt>
      <trkpt lat="44.26855" lon="5.65005">
        <ele>1315.5999755859</ele>
        <time>2016-05-07T07:57:14Z</time>
      </trkpt>
      <trkpt lat="44.26856" lon="5.64997">
        <ele>1315.5999755859</ele>
        <time>2016-05-07T07:57:19Z</time>
      </trkpt>
      <trkpt lat="44.26852" lon="5.64989">
        <ele>1315.5999755859</ele>
        <time>2016-05-07T07:57:25Z</time>
      </trkpt>
      <trkpt lat="44.26851" lon="5.6497">
        <ele>1315.5999755859</ele>
        <time>2016-05-07T07:57:37Z</time>
      </trkpt>
      <trkpt lat="44.26847" lon="5.64961">
        <ele>1315.5999755859</ele>
        <time>2016-05-07T07:57:43Z</time>
      </trkpt>
      <trkpt lat="44.26842" lon="5.64953">
        <ele>1315.5999755859</ele>
        <time>2016-05-07T07:57:50Z</time>
      </trkpt>
      <trkpt lat="44.26839" lon="5.64939">
        <ele>1315.5999755859</ele>
        <time>2016-05-07T07:58:00Z</time>
      </trkpt>
      <trkpt lat="44.26841" lon="5.64926">
        <ele>1315.5999755859</ele>
        <time>2016-05-07T07:58:07Z</time>
      </trkpt>
      <trkpt lat="44.26849" lon="5.64906">
        <ele>1315.5999755859</ele>
        <time>2016-05-07T07:58:11Z</time>
      </trkpt>
      <trkpt lat="44.26865" lon="5.64876">
        <ele>1315.5999755859</ele>
        <time>2016-05-07T07:58:17Z</time>
      </trkpt>
      <trkpt lat="44.26871" lon="5.64856">
        <ele>1315.5999755859</ele>
        <time>2016-05-07T07:58:22Z</time>
      </trkpt>
      <trkpt lat="44.26878" lon="5.6482">
        <ele>1315.5999755859</ele>
        <time>2016-05-07T07:58:29Z</time>
      </trkpt>
      <trkpt lat="44.26865" lon="5.64786">
        <ele>1315.5999755859</ele>
        <time>2016-05-07T07:58:35Z</time>
      </trkpt>
      <trkpt lat="44.26851" lon="5.64763">
        <ele>1315.1999511719</ele>
        <time>2016-05-07T07:58:41Z</time>
      </trkpt>
      <trkpt lat="44.26849" lon="5.64758">
        <ele>1314.4000244141</ele>
        <time>2016-05-07T07:58:42Z</time>
      </trkpt>
      <trkpt lat="44.26848" lon="5.64752">
        <ele>1314</ele>
        <time>2016-05-07T07:58:43Z</time>
      </trkpt>
      <trkpt lat="44.26846" lon="5.64739">
        <ele>1313.5999755859</ele>
        <time>2016-05-07T07:58:45Z</time>
      </trkpt>
      <trkpt lat="44.26844" lon="5.64733">
        <ele>1313.1999511719</ele>
        <time>2016-05-07T07:58:46Z</time>
      </trkpt>
      <trkpt lat="44.26842" lon="5.64728">
        <ele>1312.5999755859</ele>
        <time>2016-05-07T07:58:47Z</time>
      </trkpt>
      <trkpt lat="44.26839" lon="5.64722">
        <ele>1312.5999755859</ele>
        <time>2016-05-07T07:58:48Z</time>
      </trkpt>
      <trkpt lat="44.26836" lon="5.64718">
        <ele>1311.8000488281</ele>
        <time>2016-05-07T07:58:49Z</time>
      </trkpt>
      <trkpt lat="44.26834" lon="5.64714">
        <ele>1311</ele>
        <time>2016-05-07T07:58:50Z</time>
      </trkpt>
      <trkpt lat="44.26832" lon="5.64709">
        <ele>1310</ele>
        <time>2016-05-07T07:58:51Z</time>
      </trkpt>
      <trkpt lat="44.26829" lon="5.64703">
        <ele>1309.1999511719</ele>
        <time>2016-05-07T07:58:52Z</time>
      </trkpt>
      <trkpt lat="44.26826" lon="5.64695">
        <ele>1309.1999511719</ele>
        <time>2016-05-07T07:58:53Z</time>
      </trkpt>
      <trkpt lat="44.26823" lon="5.64688">
        <ele>1308.4000244141</ele>
        <time>2016-05-07T07:58:54Z</time>
      </trkpt>
      <trkpt lat="44.26819" lon="5.64681">
        <ele>1307.4000244141</ele>
        <time>2016-05-07T07:58:55Z</time>
      </trkpt>
      <trkpt lat="44.26815" lon="5.64676">
        <ele>1305.5999755859</ele>
        <time>2016-05-07T07:58:56Z</time>
      </trkpt>
      <trkpt lat="44.26812" lon="5.6467">
        <ele>1304.5999755859</ele>
        <time>2016-05-07T07:58:57Z</time>
      </trkpt>
      <trkpt lat="44.26806" lon="5.64657">
        <ele>1303.8000488281</ele>
        <time>2016-05-07T07:58:59Z</time>
      </trkpt>
      <trkpt lat="44.26802" lon="5.6465">
        <ele>1302</ele>
        <time>2016-05-07T07:59:00Z</time>
      </trkpt>
      <trkpt lat="44.26798" lon="5.64643">
        <ele>1302</ele>
        <time>2016-05-07T07:59:01Z</time>
      </trkpt>
      <trkpt lat="44.26791" lon="5.64627">
        <ele>1300.5999755859</ele>
        <time>2016-05-07T07:59:03Z</time>
      </trkpt>
      <trkpt lat="44.26785" lon="5.6461">
        <ele>1299.1999511719</ele>
        <time>2016-05-07T07:59:05Z</time>
      </trkpt>
      <trkpt lat="44.26783" lon="5.64601">
        <ele>1299.1999511719</ele>
        <time>2016-05-07T07:59:06Z</time>
      </trkpt>
      <trkpt lat="44.26782" lon="5.64593">
        <ele>1298.4000244141</ele>
        <time>2016-05-07T07:59:07Z</time>
      </trkpt>
      <trkpt lat="44.26784" lon="5.64579">
        <ele>1297.8000488281</ele>
        <time>2016-05-07T07:59:09Z</time>
      </trkpt>
      <trkpt lat="44.26785" lon="5.64566">
        <ele>1297.8000488281</ele>
        <time>2016-05-07T07:59:11Z</time>
      </trkpt>
      <trkpt lat="44.26783" lon="5.64555">
        <ele>1297.8000488281</ele>
        <time>2016-05-07T07:59:14Z</time>
      </trkpt>
      <trkpt lat="44.26782" lon="5.64549">
        <ele>1297.8000488281</ele>
        <time>2016-05-07T07:59:18Z</time>
      </trkpt>
      <trkpt lat="44.26781" lon="5.64547">
        <ele>1298.5999755859</ele>
        <time>2016-05-07T07:59:21Z</time>
      </trkpt>
      <trkpt lat="44.26781" lon="5.64547">
        <ele>1299.1999511719</ele>
        <time>2016-05-07T07:59:23Z</time>
      </trkpt>
      <trkpt lat="44.26781" lon="5.64547">
        <ele>1299.5999755859</ele>
        <time>2016-05-07T07:59:24Z</time>
      </trkpt>
      <trkpt lat="44.26782" lon="5.64546">
        <ele>1300</ele>
        <time>2016-05-07T07:59:25Z</time>
      </trkpt>
      <trkpt lat="44.26782" lon="5.64546">
        <ele>1300.5999755859</ele>
        <time>2016-05-07T07:59:32Z</time>
      </trkpt>
      <trkpt lat="44.26782" lon="5.64546">
        <ele>1301</ele>
        <time>2016-05-07T07:59:33Z</time>
      </trkpt>
      <trkpt lat="44.26782" lon="5.64546">
        <ele>1301.4000244141</ele>
        <time>2016-05-07T07:59:34Z</time>
      </trkpt>
      <trkpt lat="44.26782" lon="5.64545">
        <ele>1301.4000244141</ele>
        <time>2016-05-07T07:59:46Z</time>
      </trkpt>
      <trkpt lat="44.26781" lon="5.64544">
        <ele>1302.1999511719</ele>
        <time>2016-05-07T08:00:23Z</time>
      </trkpt>
      <trkpt lat="44.26778" lon="5.64534">
        <ele>1302.1999511719</ele>
        <time>2016-05-07T08:00:58Z</time>
      </trkpt>
      <trkpt lat="44.26766" lon="5.6452">
        <ele>1302.1999511719</ele>
        <time>2016-05-07T08:01:02Z</time>
      </trkpt>
      <trkpt lat="44.26762" lon="5.64516">
        <ele>1302.1999511719</ele>
        <time>2016-05-07T08:01:03Z</time>
      </trkpt>
      <trkpt lat="44.26738" lon="5.64494">
        <ele>1302.1999511719</ele>
        <time>2016-05-07T08:01:10Z</time>
      </trkpt>
      <trkpt lat="44.26732" lon="5.64488">
        <ele>1303.4000244141</ele>
        <time>2016-05-07T08:01:12Z</time>
      </trkpt>
      <trkpt lat="44.26715" lon="5.6446">
        <ele>1303.4000244141</ele>
        <time>2016-05-07T08:01:17Z</time>
      </trkpt>
      <trkpt lat="44.26702" lon="5.64427">
        <ele>1303.4000244141</ele>
        <time>2016-05-07T08:01:23Z</time>
      </trkpt>
      <trkpt lat="44.26693" lon="5.64394">
        <ele>1303.4000244141</ele>
        <time>2016-05-07T08:01:28Z</time>
      </trkpt>
      <trkpt lat="44.26687" lon="5.64364">
        <ele>1303.4000244141</ele>
        <time>2016-05-07T08:01:34Z</time>
      </trkpt>
      <trkpt lat="44.26668" lon="5.64345">
        <ele>1303.4000244141</ele>
        <time>2016-05-07T08:01:41Z</time>
      </trkpt>
      <trkpt lat="44.26653" lon="5.64352">
        <ele>1303.4000244141</ele>
        <time>2016-05-07T08:01:46Z</time>
      </trkpt>
      <trkpt lat="44.26646" lon="5.64361">
        <ele>1303.4000244141</ele>
        <time>2016-05-07T08:01:49Z</time>
      </trkpt>
      <trkpt lat="44.26641" lon="5.64362">
        <ele>1303.4000244141</ele>
        <time>2016-05-07T08:01:50Z</time>
      </trkpt>
      <trkpt lat="44.2663" lon="5.64362">
        <ele>1303.4000244141</ele>
        <time>2016-05-07T08:01:53Z</time>
      </trkpt>
      <trkpt lat="44.26622" lon="5.64358">
        <ele>1303.4000244141</ele>
        <time>2016-05-07T08:01:55Z</time>
      </trkpt>
      <trkpt lat="44.266" lon="5.64339">
        <ele>1303.4000244141</ele>
        <time>2016-05-07T08:02:00Z</time>
      </trkpt>
      <trkpt lat="44.26585" lon="5.6431">
        <ele>1303.4000244141</ele>
        <time>2016-05-07T08:02:05Z</time>
      </trkpt>
      <trkpt lat="44.26579" lon="5.64299">
        <ele>1304</ele>
        <time>2016-05-07T08:02:07Z</time>
      </trkpt>
      <trkpt lat="44.26574" lon="5.6429">
        <ele>1304</ele>
        <time>2016-05-07T08:02:08Z</time>
      </trkpt>
      <trkpt lat="44.26561" lon="5.64262">
        <ele>1304</ele>
        <time>2016-05-07T08:02:11Z</time>
      </trkpt>
      <trkpt lat="44.2655" lon="5.64231">
        <ele>1304</ele>
        <time>2016-05-07T08:02:15Z</time>
      </trkpt>
      <trkpt lat="44.26545" lon="5.642">
        <ele>1304</ele>
        <time>2016-05-07T08:02:19Z</time>
      </trkpt>
      <trkpt lat="44.26545" lon="5.6419">
        <ele>1304</ele>
        <time>2016-05-07T08:02:20Z</time>
      </trkpt>
      <trkpt lat="44.26539" lon="5.6417">
        <ele>1304</ele>
        <time>2016-05-07T08:02:22Z</time>
      </trkpt>
      <trkpt lat="44.26533" lon="5.64156">
        <ele>1304</ele>
        <time>2016-05-07T08:02:24Z</time>
      </trkpt>
      <trkpt lat="44.26529" lon="5.64142">
        <ele>1304</ele>
        <time>2016-05-07T08:02:26Z</time>
      </trkpt>
      <trkpt lat="44.26516" lon="5.64109">
        <ele>1304</ele>
        <time>2016-05-07T08:02:30Z</time>
      </trkpt>
      <trkpt lat="44.26514" lon="5.64094">
        <ele>1304</ele>
        <time>2016-05-07T08:02:32Z</time>
      </trkpt>
      <trkpt lat="44.26514" lon="5.64085">
        <ele>1304</ele>
        <time>2016-05-07T08:02:33Z</time>
      </trkpt>
      <trkpt lat="44.2651" lon="5.64064">
        <ele>1304</ele>
        <time>2016-05-07T08:02:35Z</time>
      </trkpt>
      <trkpt lat="44.265" lon="5.6404">
        <ele>1304</ele>
        <time>2016-05-07T08:02:38Z</time>
      </trkpt>
      <trkpt lat="44.26498" lon="5.64035">
        <ele>1301.8000488281</ele>
        <time>2016-05-07T08:02:39Z</time>
      </trkpt>
      <trkpt lat="44.26493" lon="5.6403">
        <ele>1301.8000488281</ele>
        <time>2016-05-07T08:02:40Z</time>
      </trkpt>
      <trkpt lat="44.26484" lon="5.64018">
        <ele>1301.8000488281</ele>
        <time>2016-05-07T08:02:42Z</time>
      </trkpt>
      <trkpt lat="44.26461" lon="5.63994">
        <ele>1301.8000488281</ele>
        <time>2016-05-07T08:02:47Z</time>
      </trkpt>
      <trkpt lat="44.26458" lon="5.63989">
        <ele>1301.8000488281</ele>
        <time>2016-05-07T08:02:48Z</time>
      </trkpt>
      <trkpt lat="44.26452" lon="5.63974">
        <ele>1301.8000488281</ele>
        <time>2016-05-07T08:02:51Z</time>
      </trkpt>
      <trkpt lat="44.26452" lon="5.63969">
        <ele>1301.8000488281</ele>
        <time>2016-05-07T08:02:52Z</time>
      </trkpt>
      <trkpt lat="44.26459" lon="5.63963">
        <ele>1301.8000488281</ele>
        <time>2016-05-07T08:02:56Z</time>
      </trkpt>
      <trkpt lat="44.26474" lon="5.63952">
        <ele>1301.8000488281</ele>
        <time>2016-05-07T08:03:00Z</time>
      </trkpt>
      <trkpt lat="44.26476" lon="5.63947">
        <ele>1301.8000488281</ele>
        <time>2016-05-07T08:03:01Z</time>
      </trkpt>
      <trkpt lat="44.26478" lon="5.6394">
        <ele>1301.8000488281</ele>
        <time>2016-05-07T08:03:03Z</time>
      </trkpt>
      <trkpt lat="44.26472" lon="5.63932">
        <ele>1301.8000488281</ele>
        <time>2016-05-07T08:03:07Z</time>
      </trkpt>
      <trkpt lat="44.26464" lon="5.63929">
        <ele>1301.8000488281</ele>
        <time>2016-05-07T08:03:09Z</time>
      </trkpt>
      <trkpt lat="44.26456" lon="5.63919">
        <ele>1301.8000488281</ele>
        <time>2016-05-07T08:03:11Z</time>
      </trkpt>
      <trkpt lat="44.26446" lon="5.63903">
        <ele>1301.8000488281</ele>
        <time>2016-05-07T08:03:14Z</time>
      </trkpt>
      <trkpt lat="44.26442" lon="5.63898">
        <ele>1301.8000488281</ele>
        <time>2016-05-07T08:03:15Z</time>
      </trkpt>
      <trkpt lat="44.26432" lon="5.63884">
        <ele>1301.8000488281</ele>
        <time>2016-05-07T08:03:17Z</time>
      </trkpt>
      <trkpt lat="44.26422" lon="5.6387">
        <ele>1301.8000488281</ele>
        <time>2016-05-07T08:03:19Z</time>
      </trkpt>
      <trkpt lat="44.26416" lon="5.63862">
        <ele>1301.8000488281</ele>
        <time>2016-05-07T08:03:20Z</time>
      </trkpt>
      <trkpt lat="44.26397" lon="5.63833">
        <ele>1301.8000488281</ele>
        <time>2016-05-07T08:03:24Z</time>
      </trkpt>
      <trkpt lat="44.26369" lon="5.63777">
        <ele>1301.8000488281</ele>
        <time>2016-05-07T08:03:31Z</time>
      </trkpt>
      <trkpt lat="44.26357" lon="5.63752">
        <ele>1301.8000488281</ele>
        <time>2016-05-07T08:03:34Z</time>
      </trkpt>
      <trkpt lat="44.2635" lon="5.63735">
        <ele>1301.8000488281</ele>
        <time>2016-05-07T08:03:36Z</time>
      </trkpt>
      <trkpt lat="44.26345" lon="5.63717">
        <ele>1301.8000488281</ele>
        <time>2016-05-07T08:03:38Z</time>
      </trkpt>
      <trkpt lat="44.26336" lon="5.63682">
        <ele>1301.8000488281</ele>
        <time>2016-05-07T08:03:42Z</time>
      </trkpt>
      <trkpt lat="44.26332" lon="5.6366">
        <ele>1301.8000488281</ele>
        <time>2016-05-07T08:03:45Z</time>
      </trkpt>
      <trkpt lat="44.26329" lon="5.63641">
        <ele>1301.8000488281</ele>
        <time>2016-05-07T08:03:47Z</time>
      </trkpt>
      <trkpt lat="44.26321" lon="5.63604">
        <ele>1301.8000488281</ele>
        <time>2016-05-07T08:03:51Z</time>
      </trkpt>
      <trkpt lat="44.26318" lon="5.63594">
        <ele>1301.8000488281</ele>
        <time>2016-05-07T08:03:52Z</time>
      </trkpt>
      <trkpt lat="44.26309" lon="5.63567">
        <ele>1301.8000488281</ele>
        <time>2016-05-07T08:03:55Z</time>
      </trkpt>
      <trkpt lat="44.26308" lon="5.63558">
        <ele>1301.8000488281</ele>
        <time>2016-05-07T08:03:56Z</time>
      </trkpt>
      <trkpt lat="44.26307" lon="5.63538">
        <ele>1293</ele>
        <time>2016-05-07T08:03:58Z</time>
      </trkpt>
      <trkpt lat="44.26311" lon="5.63519">
        <ele>1293</ele>
        <time>2016-05-07T08:04:00Z</time>
      </trkpt>
      <trkpt lat="44.26312" lon="5.63511">
        <ele>1293</ele>
        <time>2016-05-07T08:04:01Z</time>
      </trkpt>
      <trkpt lat="44.26315" lon="5.63465">
        <ele>1293</ele>
        <time>2016-05-07T08:04:06Z</time>
      </trkpt>
      <trkpt lat="44.26315" lon="5.63456">
        <ele>1279</ele>
        <time>2016-05-07T08:04:07Z</time>
      </trkpt>
      <trkpt lat="44.26313" lon="5.63436">
        <ele>1262.1999511719</ele>
        <time>2016-05-07T08:04:09Z</time>
      </trkpt>
      <trkpt lat="44.26308" lon="5.63417">
        <ele>1247.5999755859</ele>
        <time>2016-05-07T08:04:11Z</time>
      </trkpt>
      <trkpt lat="44.26305" lon="5.63406">
        <ele>1247.5999755859</ele>
        <time>2016-05-07T08:04:12Z</time>
      </trkpt>
      <trkpt lat="44.26302" lon="5.63397">
        <ele>1233</ele>
        <time>2016-05-07T08:04:13Z</time>
      </trkpt>
      <trkpt lat="44.26297" lon="5.63389">
        <ele>1223.5999755859</ele>
        <time>2016-05-07T08:04:14Z</time>
      </trkpt>
      <trkpt lat="44.26294" lon="5.6338">
        <ele>1223.5999755859</ele>
        <time>2016-05-07T08:04:15Z</time>
      </trkpt>
      <trkpt lat="44.26292" lon="5.63373">
        <ele>1214</ele>
        <time>2016-05-07T08:04:16Z</time>
      </trkpt>
      <trkpt lat="44.2629" lon="5.63365">
        <ele>1208</ele>
        <time>2016-05-07T08:04:17Z</time>
      </trkpt>
      <trkpt lat="44.26293" lon="5.63357">
        <ele>1201.8000488281</ele>
        <time>2016-05-07T08:04:18Z</time>
      </trkpt>
      <trkpt lat="44.26294" lon="5.63346">
        <ele>1195.5999755859</ele>
        <time>2016-05-07T08:04:19Z</time>
      </trkpt>
      <trkpt lat="44.26299" lon="5.6333">
        <ele>1189.8000488281</ele>
        <time>2016-05-07T08:04:21Z</time>
      </trkpt>
      <trkpt lat="44.26303" lon="5.63322">
        <ele>1187</ele>
        <time>2016-05-07T08:04:22Z</time>
      </trkpt>
      <trkpt lat="44.26306" lon="5.63312">
        <ele>1184</ele>
        <time>2016-05-07T08:04:23Z</time>
      </trkpt>
      <trkpt lat="44.26313" lon="5.63293">
        <ele>1183</ele>
        <time>2016-05-07T08:04:25Z</time>
      </trkpt>
      <trkpt lat="44.26316" lon="5.63284">
        <ele>1182</ele>
        <time>2016-05-07T08:04:26Z</time>
      </trkpt>
      <trkpt lat="44.26318" lon="5.63273">
        <ele>1181</ele>
        <time>2016-05-07T08:04:27Z</time>
      </trkpt>
      <trkpt lat="44.26319" lon="5.6326">
        <ele>1180</ele>
        <time>2016-05-07T08:04:28Z</time>
      </trkpt>
      <trkpt lat="44.26319" lon="5.63248">
        <ele>1180</ele>
        <time>2016-05-07T08:04:29Z</time>
      </trkpt>
      <trkpt lat="44.26317" lon="5.63241">
        <ele>1179</ele>
        <time>2016-05-07T08:04:30Z</time>
      </trkpt>
      <trkpt lat="44.26313" lon="5.63227">
        <ele>1179</ele>
        <time>2016-05-07T08:04:32Z</time>
      </trkpt>
      <trkpt lat="44.26307" lon="5.63183">
        <ele>1178.5999755859</ele>
        <time>2016-05-07T08:04:38Z</time>
      </trkpt>
      <trkpt lat="44.26305" lon="5.63159">
        <ele>1178.1999511719</ele>
        <time>2016-05-07T08:04:40Z</time>
      </trkpt>
      <trkpt lat="44.26306" lon="5.63148">
        <ele>1177.5999755859</ele>
        <time>2016-05-07T08:04:41Z</time>
      </trkpt>
      <trkpt lat="44.26308" lon="5.63139">
        <ele>1177</ele>
        <time>2016-05-07T08:04:42Z</time>
      </trkpt>
      <trkpt lat="44.26311" lon="5.63129">
        <ele>1176.1999511719</ele>
        <time>2016-05-07T08:04:43Z</time>
      </trkpt>
      <trkpt lat="44.26323" lon="5.63114">
        <ele>1175.5999755859</ele>
        <time>2016-05-07T08:04:45Z</time>
      </trkpt>
      <trkpt lat="44.26328" lon="5.63107">
        <ele>1174.1999511719</ele>
        <time>2016-05-07T08:04:46Z</time>
      </trkpt>
      <trkpt lat="44.26333" lon="5.6309">
        <ele>1174.1999511719</ele>
        <time>2016-05-07T08:04:48Z</time>
      </trkpt>
      <trkpt lat="44.26334" lon="5.63081">
        <ele>1174.1999511719</ele>
        <time>2016-05-07T08:04:49Z</time>
      </trkpt>
      <trkpt lat="44.26331" lon="5.63051">
        <ele>1174.1999511719</ele>
        <time>2016-05-07T08:04:52Z</time>
      </trkpt>
      <trkpt lat="44.26322" lon="5.63017">
        <ele>1174.1999511719</ele>
        <time>2016-05-07T08:04:55Z</time>
      </trkpt>
      <trkpt lat="44.26319" lon="5.63004">
        <ele>1173.1999511719</ele>
        <time>2016-05-07T08:04:56Z</time>
      </trkpt>
      <trkpt lat="44.26317" lon="5.62991">
        <ele>1172.5999755859</ele>
        <time>2016-05-07T08:04:57Z</time>
      </trkpt>
      <trkpt lat="44.26316" lon="5.62927">
        <ele>1172.5999755859</ele>
        <time>2016-05-07T08:05:02Z</time>
      </trkpt>
      <trkpt lat="44.26312" lon="5.6291">
        <ele>1172.5999755859</ele>
        <time>2016-05-07T08:05:04Z</time>
      </trkpt>
      <trkpt lat="44.26307" lon="5.62896">
        <ele>1172.5999755859</ele>
        <time>2016-05-07T08:05:06Z</time>
      </trkpt>
      <trkpt lat="44.26305" lon="5.62885">
        <ele>1172.5999755859</ele>
        <time>2016-05-07T08:05:07Z</time>
      </trkpt>
      <trkpt lat="44.26302" lon="5.62859">
        <ele>1172.5999755859</ele>
        <time>2016-05-07T08:05:10Z</time>
      </trkpt>
      <trkpt lat="44.26302" lon="5.6285">
        <ele>1172</ele>
        <time>2016-05-07T08:05:11Z</time>
      </trkpt>
      <trkpt lat="44.263" lon="5.62841">
        <ele>1171.4000244141</ele>
        <time>2016-05-07T08:05:12Z</time>
      </trkpt>
      <trkpt lat="44.26298" lon="5.62817">
        <ele>1171.4000244141</ele>
        <time>2016-05-07T08:05:15Z</time>
      </trkpt>
      <trkpt lat="44.26294" lon="5.62782">
        <ele>1171.4000244141</ele>
        <time>2016-05-07T08:05:19Z</time>
      </trkpt>
      <trkpt lat="44.26291" lon="5.62773">
        <ele>1171.4000244141</ele>
        <time>2016-05-07T08:05:20Z</time>
      </trkpt>
      <trkpt lat="44.26287" lon="5.62765">
        <ele>1171</ele>
        <time>2016-05-07T08:05:21Z</time>
      </trkpt>
      <trkpt lat="44.26284" lon="5.62756">
        <ele>1170.5999755859</ele>
        <time>2016-05-07T08:05:22Z</time>
      </trkpt>
      <trkpt lat="44.26287" lon="5.62737">
        <ele>1169.8000488281</ele>
        <time>2016-05-07T08:05:24Z</time>
      </trkpt>
      <trkpt lat="44.2629" lon="5.62727">
        <ele>1168.4000244141</ele>
        <time>2016-05-07T08:05:25Z</time>
      </trkpt>
      <trkpt lat="44.26292" lon="5.62717">
        <ele>1167.8000488281</ele>
        <time>2016-05-07T08:05:26Z</time>
      </trkpt>
      <trkpt lat="44.26293" lon="5.62708">
        <ele>1167</ele>
        <time>2016-05-07T08:05:27Z</time>
      </trkpt>
      <trkpt lat="44.26294" lon="5.62687">
        <ele>1167</ele>
        <time>2016-05-07T08:05:29Z</time>
      </trkpt>
      <trkpt lat="44.26296" lon="5.62634">
        <ele>1167</ele>
        <time>2016-05-07T08:05:34Z</time>
      </trkpt>
      <trkpt lat="44.26296" lon="5.62625">
        <ele>1167</ele>
        <time>2016-05-07T08:05:35Z</time>
      </trkpt>
      <trkpt lat="44.26294" lon="5.62617">
        <ele>1167</ele>
        <time>2016-05-07T08:05:36Z</time>
      </trkpt>
      <trkpt lat="44.26287" lon="5.62595">
        <ele>1167</ele>
        <time>2016-05-07T08:05:39Z</time>
      </trkpt>
      <trkpt lat="44.2628" lon="5.62569">
        <ele>1167</ele>
        <time>2016-05-07T08:05:45Z</time>
      </trkpt>
      <trkpt lat="44.26278" lon="5.62558">
        <ele>1168</ele>
        <time>2016-05-07T08:05:49Z</time>
      </trkpt>
      <trkpt lat="44.26278" lon="5.62554">
        <ele>1168.4000244141</ele>
        <time>2016-05-07T08:05:50Z</time>
      </trkpt>
      <trkpt lat="44.26278" lon="5.62551">
        <ele>1168.8000488281</ele>
        <time>2016-05-07T08:05:51Z</time>
      </trkpt>
      <trkpt lat="44.26275" lon="5.62546">
        <ele>1169.1999511719</ele>
        <time>2016-05-07T08:05:53Z</time>
      </trkpt>
      <trkpt lat="44.26275" lon="5.62541">
        <ele>1169.1999511719</ele>
        <time>2016-05-07T08:05:55Z</time>
      </trkpt>
      <trkpt lat="44.26277" lon="5.62523">
        <ele>1169.1999511719</ele>
        <time>2016-05-07T08:06:00Z</time>
      </trkpt>
      <trkpt lat="44.26277" lon="5.62521">
        <ele>1169.1999511719</ele>
        <time>2016-05-07T08:06:01Z</time>
      </trkpt>
      <trkpt lat="44.26277" lon="5.62519">
        <ele>1170</ele>
        <time>2016-05-07T08:06:02Z</time>
      </trkpt>
      <trkpt lat="44.26276" lon="5.62513">
        <ele>1170.4000244141</ele>
        <time>2016-05-07T08:06:03Z</time>
      </trkpt>
      <trkpt lat="44.26275" lon="5.62507">
        <ele>1170.8000488281</ele>
        <time>2016-05-07T08:06:04Z</time>
      </trkpt>
      <trkpt lat="44.26274" lon="5.62497">
        <ele>1170.8000488281</ele>
        <time>2016-05-07T08:06:06Z</time>
      </trkpt>
      <trkpt lat="44.26273" lon="5.62492">
        <ele>1171.1999511719</ele>
        <time>2016-05-07T08:06:07Z</time>
      </trkpt>
      <trkpt lat="44.26269" lon="5.62463">
        <ele>1171.1999511719</ele>
        <time>2016-05-07T08:06:12Z</time>
      </trkpt>
      <trkpt lat="44.26258" lon="5.62408">
        <ele>1171.1999511719</ele>
        <time>2016-05-07T08:06:20Z</time>
      </trkpt>
      <trkpt lat="44.26254" lon="5.6237">
        <ele>1171.1999511719</ele>
        <time>2016-05-07T08:06:26Z</time>
      </trkpt>
      <trkpt lat="44.26252" lon="5.62355">
        <ele>1171.1999511719</ele>
        <time>2016-05-07T08:06:30Z</time>
      </trkpt>
      <trkpt lat="44.26249" lon="5.62355">
        <ele>1171.1999511719</ele>
        <time>2016-05-07T08:06:38Z</time>
      </trkpt>
      <trkpt lat="44.26249" lon="5.62355">
        <ele>1170.8000488281</ele>
        <time>2016-05-07T08:06:42Z</time>
      </trkpt>
      <trkpt lat="44.26249" lon="5.62355">
        <ele>1170.4000244141</ele>
        <time>2016-05-07T08:06:44Z</time>
      </trkpt>
      <trkpt lat="44.26249" lon="5.62355">
        <ele>1169.8000488281</ele>
        <time>2016-05-07T08:06:45Z</time>
      </trkpt>
      <trkpt lat="44.26249" lon="5.62355">
        <ele>1169.4000244141</ele>
        <time>2016-05-07T08:06:46Z</time>
      </trkpt>
      <trkpt lat="44.26249" lon="5.62355">
        <ele>1169</ele>
        <time>2016-05-07T08:06:47Z</time>
      </trkpt>
      <trkpt lat="44.26249" lon="5.62355">
        <ele>1169</ele>
        <time>2016-05-07T08:09:25Z</time>
      </trkpt>
      <trkpt lat="44.26248" lon="5.62356">
        <ele>1169</ele>
        <time>2016-05-07T08:10:58Z</time>
      </trkpt>
      <trkpt lat="44.26246" lon="5.62358">
        <ele>1169.4000244141</ele>
        <time>2016-05-07T08:12:18Z</time>
      </trkpt>
      <trkpt lat="44.26246" lon="5.62358">
        <ele>1170.4000244141</ele>
        <time>2016-05-07T08:12:19Z</time>
      </trkpt>
      <trkpt lat="44.26246" lon="5.62358">
        <ele>1170.8000488281</ele>
        <time>2016-05-07T08:12:21Z</time>
      </trkpt>
      <trkpt lat="44.26246" lon="5.62358">
        <ele>1171.1999511719</ele>
        <time>2016-05-07T08:12:22Z</time>
      </trkpt>
      <trkpt lat="44.26246" lon="5.62359">
        <ele>1171.1999511719</ele>
        <time>2016-05-07T08:12:44Z</time>
      </trkpt>
      <trkpt lat="44.26247" lon="5.62359">
        <ele>1171.1999511719</ele>
        <time>2016-05-07T08:14:37Z</time>
      </trkpt>
      <trkpt lat="44.26247" lon="5.62359">
        <ele>1171.1999511719</ele>
        <time>2016-05-07T08:14:38Z</time>
      </trkpt>
      <trkpt lat="44.26247" lon="5.6236">
        <ele>1171.1999511719</ele>
        <time>2016-05-07T08:14:45Z</time>
      </trkpt>
      <trkpt lat="44.26242" lon="5.62352">
        <ele>1171.1999511719</ele>
        <time>2016-05-07T08:14:54Z</time>
      </trkpt>
      <trkpt lat="44.26239" lon="5.62351">
        <ele>1171.1999511719</ele>
        <time>2016-05-07T08:14:56Z</time>
      </trkpt>
      <trkpt lat="44.26236" lon="5.62353">
        <ele>1171.1999511719</ele>
        <time>2016-05-07T08:14:58Z</time>
      </trkpt>
      <trkpt lat="44.26234" lon="5.62353">
        <ele>1171.1999511719</ele>
        <time>2016-05-07T08:15:04Z</time>
      </trkpt>
      <trkpt lat="44.26244" lon="5.62352">
        <ele>1171.1999511719</ele>
        <time>2016-05-07T08:15:14Z</time>
      </trkpt>
      <trkpt lat="44.26242" lon="5.62337">
        <ele>1171.1999511719</ele>
        <time>2016-05-07T08:15:47Z</time>
      </trkpt>
      <trkpt lat="44.26229" lon="5.62321">
        <ele>1170.8000488281</ele>
        <time>2016-05-07T08:15:52Z</time>
      </trkpt>
      <trkpt lat="44.26221" lon="5.62315">
        <ele>1170</ele>
        <time>2016-05-07T08:15:54Z</time>
      </trkpt>
      <trkpt lat="44.26206" lon="5.62304">
        <ele>1169.5999755859</ele>
        <time>2016-05-07T08:15:57Z</time>
      </trkpt>
      <trkpt lat="44.26201" lon="5.62299">
        <ele>1169.5999755859</ele>
        <time>2016-05-07T08:15:58Z</time>
      </trkpt>
      <trkpt lat="44.26186" lon="5.62287">
        <ele>1169.1999511719</ele>
        <time>2016-05-07T08:16:01Z</time>
      </trkpt>
      <trkpt lat="44.26184" lon="5.62281">
        <ele>1169.1999511719</ele>
        <time>2016-05-07T08:16:02Z</time>
      </trkpt>
      <trkpt lat="44.26191" lon="5.62273">
        <ele>1168.4000244141</ele>
        <time>2016-05-07T08:16:04Z</time>
      </trkpt>
      <trkpt lat="44.26204" lon="5.62272">
        <ele>1168.4000244141</ele>
        <time>2016-05-07T08:16:07Z</time>
      </trkpt>
      <trkpt lat="44.26208" lon="5.62274">
        <ele>1168.4000244141</ele>
        <time>2016-05-07T08:16:08Z</time>
      </trkpt>
      <trkpt lat="44.26218" lon="5.62273">
        <ele>1168.4000244141</ele>
        <time>2016-05-07T08:16:10Z</time>
      </trkpt>
      <trkpt lat="44.26223" lon="5.6227">
        <ele>1167.8000488281</ele>
        <time>2016-05-07T08:16:11Z</time>
      </trkpt>
      <trkpt lat="44.26231" lon="5.62258">
        <ele>1166.1999511719</ele>
        <time>2016-05-07T08:16:13Z</time>
      </trkpt>
      <trkpt lat="44.26234" lon="5.6225">
        <ele>1166.1999511719</ele>
        <time>2016-05-07T08:16:14Z</time>
      </trkpt>
      <trkpt lat="44.26238" lon="5.62234">
        <ele>1165.4000244141</ele>
        <time>2016-05-07T08:16:16Z</time>
      </trkpt>
      <trkpt lat="44.26242" lon="5.62218">
        <ele>1163.8000488281</ele>
        <time>2016-05-07T08:16:18Z</time>
      </trkpt>
      <trkpt lat="44.26244" lon="5.62209">
        <ele>1163.8000488281</ele>
        <time>2016-05-07T08:16:19Z</time>
      </trkpt>
      <trkpt lat="44.26245" lon="5.62199">
        <ele>1163.8000488281</ele>
        <time>2016-05-07T08:16:20Z</time>
      </trkpt>
      <trkpt lat="44.26246" lon="5.62189">
        <ele>1163</ele>
        <time>2016-05-07T08:16:21Z</time>
      </trkpt>
      <trkpt lat="44.2625" lon="5.62169">
        <ele>1161.1999511719</ele>
        <time>2016-05-07T08:16:23Z</time>
      </trkpt>
      <trkpt lat="44.26253" lon="5.62151">
        <ele>1159.1999511719</ele>
        <time>2016-05-07T08:16:25Z</time>
      </trkpt>
      <trkpt lat="44.26257" lon="5.62132">
        <ele>1158.1999511719</ele>
        <time>2016-05-07T08:16:28Z</time>
      </trkpt>
      <trkpt lat="44.26258" lon="5.62126">
        <ele>1158.1999511719</ele>
        <time>2016-05-07T08:16:29Z</time>
      </trkpt>
      <trkpt lat="44.26258" lon="5.6212">
        <ele>1157.4000244141</ele>
        <time>2016-05-07T08:16:30Z</time>
      </trkpt>
      <trkpt lat="44.2626" lon="5.62103">
        <ele>1157.8000488281</ele>
        <time>2016-05-07T08:16:33Z</time>
      </trkpt>
      <trkpt lat="44.2626" lon="5.62094">
        <ele>1158.5999755859</ele>
        <time>2016-05-07T08:16:35Z</time>
      </trkpt>
      <trkpt lat="44.26257" lon="5.6208">
        <ele>1159</ele>
        <time>2016-05-07T08:16:38Z</time>
      </trkpt>
      <trkpt lat="44.26256" lon="5.62069">
        <ele>1160</ele>
        <time>2016-05-07T08:16:40Z</time>
      </trkpt>
      <trkpt lat="44.26256" lon="5.62065">
        <ele>1160</ele>
        <time>2016-05-07T08:16:41Z</time>
      </trkpt>
      <trkpt lat="44.26257" lon="5.62055">
        <ele>1160.5999755859</ele>
        <time>2016-05-07T08:16:43Z</time>
      </trkpt>
      <trkpt lat="44.26257" lon="5.62046">
        <ele>1161.5999755859</ele>
        <time>2016-05-07T08:16:45Z</time>
      </trkpt>
      <trkpt lat="44.26257" lon="5.62038">
        <ele>1161.5999755859</ele>
        <time>2016-05-07T08:16:47Z</time>
      </trkpt>
      <trkpt lat="44.26257" lon="5.62034">
        <ele>1162</ele>
        <time>2016-05-07T08:16:48Z</time>
      </trkpt>
      <trkpt lat="44.26257" lon="5.62027">
        <ele>1163.1999511719</ele>
        <time>2016-05-07T08:16:50Z</time>
      </trkpt>
      <trkpt lat="44.26258" lon="5.6202">
        <ele>1164</ele>
        <time>2016-05-07T08:16:52Z</time>
      </trkpt>
      <trkpt lat="44.26258" lon="5.6201">
        <ele>1164.4000244141</ele>
        <time>2016-05-07T08:16:55Z</time>
      </trkpt>
      <trkpt lat="44.26258" lon="5.62007">
        <ele>1164.4000244141</ele>
        <time>2016-05-07T08:16:56Z</time>
      </trkpt>
      <trkpt lat="44.26258" lon="5.62004">
        <ele>1165.1999511719</ele>
        <time>2016-05-07T08:16:57Z</time>
      </trkpt>
      <trkpt lat="44.26257" lon="5.61996">
        <ele>1165.5999755859</ele>
        <time>2016-05-07T08:17:00Z</time>
      </trkpt>
      <trkpt lat="44.26257" lon="5.61991">
        <ele>1166.1999511719</ele>
        <time>2016-05-07T08:17:02Z</time>
      </trkpt>
      <trkpt lat="44.26257" lon="5.61989">
        <ele>1166.1999511719</ele>
        <time>2016-05-07T08:17:03Z</time>
      </trkpt>
      <trkpt lat="44.26257" lon="5.61987">
        <ele>1167</ele>
        <time>2016-05-07T08:17:04Z</time>
      </trkpt>
      <trkpt lat="44.26256" lon="5.61981">
        <ele>1167.4000244141</ele>
        <time>2016-05-07T08:17:07Z</time>
      </trkpt>
      <trkpt lat="44.26257" lon="5.61976">
        <ele>1167.8000488281</ele>
        <time>2016-05-07T08:17:09Z</time>
      </trkpt>
      <trkpt lat="44.26257" lon="5.61973">
        <ele>1167.8000488281</ele>
        <time>2016-05-07T08:17:10Z</time>
      </trkpt>
      <trkpt lat="44.26255" lon="5.61964">
        <ele>1167.8000488281</ele>
        <time>2016-05-07T08:17:13Z</time>
      </trkpt>
      <trkpt lat="44.26254" lon="5.61956">
        <ele>1168.8000488281</ele>
        <time>2016-05-07T08:17:16Z</time>
      </trkpt>
      <trkpt lat="44.26252" lon="5.6195">
        <ele>1169.1999511719</ele>
        <time>2016-05-07T08:17:19Z</time>
      </trkpt>
      <trkpt lat="44.2625" lon="5.61946">
        <ele>1170</ele>
        <time>2016-05-07T08:17:21Z</time>
      </trkpt>
      <trkpt lat="44.26248" lon="5.6194">
        <ele>1170.4000244141</ele>
        <time>2016-05-07T08:17:24Z</time>
      </trkpt>
      <trkpt lat="44.26247" lon="5.61934">
        <ele>1171.4000244141</ele>
        <time>2016-05-07T08:17:26Z</time>
      </trkpt>
      <trkpt lat="44.26246" lon="5.61928">
        <ele>1172.1999511719</ele>
        <time>2016-05-07T08:17:28Z</time>
      </trkpt>
      <trkpt lat="44.26245" lon="5.61919">
        <ele>1172.1999511719</ele>
        <time>2016-05-07T08:17:31Z</time>
      </trkpt>
      <trkpt lat="44.26246" lon="5.61917">
        <ele>1172.1999511719</ele>
        <time>2016-05-07T08:17:32Z</time>
      </trkpt>
      <trkpt lat="44.26246" lon="5.61899">
        <ele>1172.5999755859</ele>
        <time>2016-05-07T08:17:38Z</time>
      </trkpt>
      <trkpt lat="44.26245" lon="5.61893">
        <ele>1173.4000244141</ele>
        <time>2016-05-07T08:17:40Z</time>
      </trkpt>
      <trkpt lat="44.26245" lon="5.6189">
        <ele>1173.4000244141</ele>
        <time>2016-05-07T08:17:41Z</time>
      </trkpt>
      <trkpt lat="44.26245" lon="5.61885">
        <ele>1173.8000488281</ele>
        <time>2016-05-07T08:17:43Z</time>
      </trkpt>
      <trkpt lat="44.26245" lon="5.61879">
        <ele>1174.1999511719</ele>
        <time>2016-05-07T08:17:45Z</time>
      </trkpt>
      <trkpt lat="44.26245" lon="5.61873">
        <ele>1174.8000488281</ele>
        <time>2016-05-07T08:17:47Z</time>
      </trkpt>
      <trkpt lat="44.26245" lon="5.61865">
        <ele>1175.1999511719</ele>
        <time>2016-05-07T08:17:50Z</time>
      </trkpt>
      <trkpt lat="44.26245" lon="5.61862">
        <ele>1175.1999511719</ele>
        <time>2016-05-07T08:17:51Z</time>
      </trkpt>
      <trkpt lat="44.26244" lon="5.61859">
        <ele>1176</ele>
        <time>2016-05-07T08:17:52Z</time>
      </trkpt>
      <trkpt lat="44.26244" lon="5.61853">
        <ele>1176.4000244141</ele>
        <time>2016-05-07T08:17:54Z</time>
      </trkpt>
      <trkpt lat="44.26244" lon="5.61839">
        <ele>1177.1999511719</ele>
        <time>2016-05-07T08:17:59Z</time>
      </trkpt>
      <trkpt lat="44.26243" lon="5.61834">
        <ele>1177.1999511719</ele>
        <time>2016-05-07T08:18:01Z</time>
      </trkpt>
      <trkpt lat="44.26242" lon="5.61831">
        <ele>1177.5999755859</ele>
        <time>2016-05-07T08:18:02Z</time>
      </trkpt>
      <trkpt lat="44.26242" lon="5.61826">
        <ele>1178.4000244141</ele>
        <time>2016-05-07T08:18:04Z</time>
      </trkpt>
      <trkpt lat="44.26242" lon="5.61804">
        <ele>1178.4000244141</ele>
        <time>2016-05-07T08:18:12Z</time>
      </trkpt>
      <trkpt lat="44.26242" lon="5.6179">
        <ele>1179</ele>
        <time>2016-05-07T08:18:17Z</time>
      </trkpt>
      <trkpt lat="44.26242" lon="5.61785">
        <ele>1179.4000244141</ele>
        <time>2016-05-07T08:18:19Z</time>
      </trkpt>
      <trkpt lat="44.26242" lon="5.61779">
        <ele>1180.1999511719</ele>
        <time>2016-05-07T08:18:21Z</time>
      </trkpt>
      <trkpt lat="44.26242" lon="5.61776">
        <ele>1180.1999511719</ele>
        <time>2016-05-07T08:18:22Z</time>
      </trkpt>
      <trkpt lat="44.26242" lon="5.61774">
        <ele>1180.5999755859</ele>
        <time>2016-05-07T08:18:23Z</time>
      </trkpt>
      <trkpt lat="44.26242" lon="5.61763">
        <ele>1181</ele>
        <time>2016-05-07T08:18:28Z</time>
      </trkpt>
      <trkpt lat="44.26243" lon="5.61757">
        <ele>1182</ele>
        <time>2016-05-07T08:18:30Z</time>
      </trkpt>
      <trkpt lat="44.26242" lon="5.61749">
        <ele>1182.4000244141</ele>
        <time>2016-05-07T08:18:33Z</time>
      </trkpt>
      <trkpt lat="44.26242" lon="5.61744">
        <ele>1182.8000488281</ele>
        <time>2016-05-07T08:18:35Z</time>
      </trkpt>
      <trkpt lat="44.26241" lon="5.61732">
        <ele>1182.8000488281</ele>
        <time>2016-05-07T08:18:39Z</time>
      </trkpt>
      <trkpt lat="44.26241" lon="5.61719">
        <ele>1183.1999511719</ele>
        <time>2016-05-07T08:18:44Z</time>
      </trkpt>
      <trkpt lat="44.26241" lon="5.61712">
        <ele>1184</ele>
        <time>2016-05-07T08:18:47Z</time>
      </trkpt>
      <trkpt lat="44.26241" lon="5.61709">
        <ele>1184</ele>
        <time>2016-05-07T08:18:48Z</time>
      </trkpt>
      <trkpt lat="44.26241" lon="5.61704">
        <ele>1185</ele>
        <time>2016-05-07T08:18:50Z</time>
      </trkpt>
      <trkpt lat="44.2624" lon="5.61685">
        <ele>1185.4000244141</ele>
        <time>2016-05-07T08:18:57Z</time>
      </trkpt>
      <trkpt lat="44.26241" lon="5.61683">
        <ele>1185.4000244141</ele>
        <time>2016-05-07T08:18:58Z</time>
      </trkpt>
      <trkpt lat="44.26241" lon="5.6168">
        <ele>1185.8000488281</ele>
        <time>2016-05-07T08:18:59Z</time>
      </trkpt>
      <trkpt lat="44.26241" lon="5.61678">
        <ele>1186.4000244141</ele>
        <time>2016-05-07T08:19:00Z</time>
      </trkpt>
      <trkpt lat="44.26241" lon="5.61673">
        <ele>1187.1999511719</ele>
        <time>2016-05-07T08:19:02Z</time>
      </trkpt>
      <trkpt lat="44.26238" lon="5.6166">
        <ele>1187.8000488281</ele>
        <time>2016-05-07T08:19:07Z</time>
      </trkpt>
      <trkpt lat="44.26237" lon="5.6165">
        <ele>1188.1999511719</ele>
        <time>2016-05-07T08:19:09Z</time>
      </trkpt>
      <trkpt lat="44.26236" lon="5.61639">
        <ele>1188.5999755859</ele>
        <time>2016-05-07T08:19:11Z</time>
      </trkpt>
      <trkpt lat="44.26235" lon="5.61634">
        <ele>1189</ele>
        <time>2016-05-07T08:19:12Z</time>
      </trkpt>
      <trkpt lat="44.26234" lon="5.61627">
        <ele>1189.5999755859</ele>
        <time>2016-05-07T08:19:14Z</time>
      </trkpt>
      <trkpt lat="44.2623" lon="5.61611">
        <ele>1189.5999755859</ele>
        <time>2016-05-07T08:19:18Z</time>
      </trkpt>
      <trkpt lat="44.26229" lon="5.61608">
        <ele>1190.4000244141</ele>
        <time>2016-05-07T08:19:19Z</time>
      </trkpt>
      <trkpt lat="44.26224" lon="5.61586">
        <ele>1191.1999511719</ele>
        <time>2016-05-07T08:19:26Z</time>
      </trkpt>
      <trkpt lat="44.26223" lon="5.61581">
        <ele>1191.5999755859</ele>
        <time>2016-05-07T08:19:28Z</time>
      </trkpt>
      <trkpt lat="44.2622" lon="5.61569">
        <ele>1191.5999755859</ele>
        <time>2016-05-07T08:19:33Z</time>
      </trkpt>
      <trkpt lat="44.26219" lon="5.61567">
        <ele>1192.4000244141</ele>
        <time>2016-05-07T08:19:34Z</time>
      </trkpt>
      <trkpt lat="44.26218" lon="5.61565">
        <ele>1192.8000488281</ele>
        <time>2016-05-07T08:19:35Z</time>
      </trkpt>
      <trkpt lat="44.26218" lon="5.61563">
        <ele>1193.1999511719</ele>
        <time>2016-05-07T08:19:36Z</time>
      </trkpt>
      <trkpt lat="44.26217" lon="5.61561">
        <ele>1193.5999755859</ele>
        <time>2016-05-07T08:19:37Z</time>
      </trkpt>
      <trkpt lat="44.26214" lon="5.61548">
        <ele>1193.5999755859</ele>
        <time>2016-05-07T08:19:44Z</time>
      </trkpt>
      <trkpt lat="44.26212" lon="5.61539">
        <ele>1194</ele>
        <time>2016-05-07T08:19:49Z</time>
      </trkpt>
      <trkpt lat="44.26212" lon="5.61537">
        <ele>1194.4000244141</ele>
        <time>2016-05-07T08:19:50Z</time>
      </trkpt>
      <trkpt lat="44.26212" lon="5.61533">
        <ele>1194.8000488281</ele>
        <time>2016-05-07T08:19:52Z</time>
      </trkpt>
      <trkpt lat="44.26212" lon="5.61531">
        <ele>1195.1999511719</ele>
        <time>2016-05-07T08:19:53Z</time>
      </trkpt>
      <trkpt lat="44.26211" lon="5.61529">
        <ele>1195.1999511719</ele>
        <time>2016-05-07T08:19:54Z</time>
      </trkpt>
      <trkpt lat="44.2621" lon="5.61527">
        <ele>1195.5999755859</ele>
        <time>2016-05-07T08:19:55Z</time>
      </trkpt>
      <trkpt lat="44.26209" lon="5.61518">
        <ele>1196.1999511719</ele>
        <time>2016-05-07T08:19:59Z</time>
      </trkpt>
      <trkpt lat="44.26208" lon="5.61515">
        <ele>1196.5999755859</ele>
        <time>2016-05-07T08:20:00Z</time>
      </trkpt>
      <trkpt lat="44.26208" lon="5.6151">
        <ele>1197.1999511719</ele>
        <time>2016-05-07T08:20:02Z</time>
      </trkpt>
      <trkpt lat="44.26208" lon="5.61506">
        <ele>1197.5999755859</ele>
        <time>2016-05-07T08:20:04Z</time>
      </trkpt>
      <trkpt lat="44.26208" lon="5.61504">
        <ele>1198.1999511719</ele>
        <time>2016-05-07T08:20:05Z</time>
      </trkpt>
      <trkpt lat="44.26213" lon="5.61482">
        <ele>1198.5999755859</ele>
        <time>2016-05-07T08:20:14Z</time>
      </trkpt>
      <trkpt lat="44.26214" lon="5.6148">
        <ele>1198.5999755859</ele>
        <time>2016-05-07T08:20:15Z</time>
      </trkpt>
      <trkpt lat="44.26215" lon="5.61477">
        <ele>1199</ele>
        <time>2016-05-07T08:20:16Z</time>
      </trkpt>
      <trkpt lat="44.26216" lon="5.61475">
        <ele>1199.4000244141</ele>
        <time>2016-05-07T08:20:17Z</time>
      </trkpt>
      <trkpt lat="44.26217" lon="5.61472">
        <ele>1199.8000488281</ele>
        <time>2016-05-07T08:20:18Z</time>
      </trkpt>
      <trkpt lat="44.26218" lon="5.61469">
        <ele>1200.1999511719</ele>
        <time>2016-05-07T08:20:19Z</time>
      </trkpt>
      <trkpt lat="44.26218" lon="5.61466">
        <ele>1200.1999511719</ele>
        <time>2016-05-07T08:20:20Z</time>
      </trkpt>
      <trkpt lat="44.26222" lon="5.61451">
        <ele>1200.5999755859</ele>
        <time>2016-05-07T08:20:26Z</time>
      </trkpt>
      <trkpt lat="44.26223" lon="5.61449">
        <ele>1201</ele>
        <time>2016-05-07T08:20:27Z</time>
      </trkpt>
      <trkpt lat="44.26223" lon="5.61446">
        <ele>1201.4000244141</ele>
        <time>2016-05-07T08:20:28Z</time>
      </trkpt>
      <trkpt lat="44.26223" lon="5.61443">
        <ele>1202</ele>
        <time>2016-05-07T08:20:29Z</time>
      </trkpt>
      <trkpt lat="44.26223" lon="5.61441">
        <ele>1202</ele>
        <time>2016-05-07T08:20:30Z</time>
      </trkpt>
      <trkpt lat="44.26223" lon="5.61438">
        <ele>1202.4000244141</ele>
        <time>2016-05-07T08:20:31Z</time>
      </trkpt>
      <trkpt lat="44.26225" lon="5.61424">
        <ele>1202.8000488281</ele>
        <time>2016-05-07T08:20:37Z</time>
      </trkpt>
      <trkpt lat="44.26225" lon="5.61417">
        <ele>1203.1999511719</ele>
        <time>2016-05-07T08:20:40Z</time>
      </trkpt>
      <trkpt lat="44.26226" lon="5.61413">
        <ele>1203.5999755859</ele>
        <time>2016-05-07T08:20:42Z</time>
      </trkpt>
      <trkpt lat="44.26227" lon="5.61409">
        <ele>1204</ele>
        <time>2016-05-07T08:20:44Z</time>
      </trkpt>
      <trkpt lat="44.26227" lon="5.61406">
        <ele>1204.4000244141</ele>
        <time>2016-05-07T08:20:45Z</time>
      </trkpt>
      <trkpt lat="44.26228" lon="5.61395">
        <ele>1204.4000244141</ele>
        <time>2016-05-07T08:20:50Z</time>
      </trkpt>
      <trkpt lat="44.26228" lon="5.6139">
        <ele>1205</ele>
        <time>2016-05-07T08:20:52Z</time>
      </trkpt>
      <trkpt lat="44.26228" lon="5.61388">
        <ele>1205.4000244141</ele>
        <time>2016-05-07T08:20:53Z</time>
      </trkpt>
      <trkpt lat="44.26228" lon="5.61385">
        <ele>1205.8000488281</ele>
        <time>2016-05-07T08:20:54Z</time>
      </trkpt>
      <trkpt lat="44.26228" lon="5.6138">
        <ele>1206.1999511719</ele>
        <time>2016-05-07T08:20:56Z</time>
      </trkpt>
      <trkpt lat="44.26228" lon="5.61374">
        <ele>1206.8000488281</ele>
        <time>2016-05-07T08:20:58Z</time>
      </trkpt>
      <trkpt lat="44.26227" lon="5.61371">
        <ele>1206.8000488281</ele>
        <time>2016-05-07T08:20:59Z</time>
      </trkpt>
      <trkpt lat="44.26226" lon="5.61362">
        <ele>1207.1999511719</ele>
        <time>2016-05-07T08:21:03Z</time>
      </trkpt>
      <trkpt lat="44.26226" lon="5.61359">
        <ele>1207.5999755859</ele>
        <time>2016-05-07T08:21:04Z</time>
      </trkpt>
      <trkpt lat="44.26225" lon="5.61354">
        <ele>1208</ele>
        <time>2016-05-07T08:21:06Z</time>
      </trkpt>
      <trkpt lat="44.26224" lon="5.61351">
        <ele>1208</ele>
        <time>2016-05-07T08:21:07Z</time>
      </trkpt>
      <trkpt lat="44.26223" lon="5.61348">
        <ele>1208.4000244141</ele>
        <time>2016-05-07T08:21:08Z</time>
      </trkpt>
      <trkpt lat="44.26221" lon="5.61343">
        <ele>1208.8000488281</ele>
        <time>2016-05-07T08:21:10Z</time>
      </trkpt>
      <trkpt lat="44.26216" lon="5.6133">
        <ele>1208.8000488281</ele>
        <time>2016-05-07T08:21:15Z</time>
      </trkpt>
      <trkpt lat="44.26213" lon="5.61322">
        <ele>1209.1999511719</ele>
        <time>2016-05-07T08:21:18Z</time>
      </trkpt>
      <trkpt lat="44.2621" lon="5.61316">
        <ele>1209.5999755859</ele>
        <time>2016-05-07T08:21:20Z</time>
      </trkpt>
      <trkpt lat="44.26207" lon="5.6131">
        <ele>1210</ele>
        <time>2016-05-07T08:21:22Z</time>
      </trkpt>
      <trkpt lat="44.26206" lon="5.61304">
        <ele>1210.4000244141</ele>
        <time>2016-05-07T08:21:24Z</time>
      </trkpt>
      <trkpt lat="44.26205" lon="5.61301">
        <ele>1210.8000488281</ele>
        <time>2016-05-07T08:21:25Z</time>
      </trkpt>
      <trkpt lat="44.26202" lon="5.61282">
        <ele>1211.1999511719</ele>
        <time>2016-05-07T08:21:31Z</time>
      </trkpt>
      <trkpt lat="44.26202" lon="5.61279">
        <ele>1211.5999755859</ele>
        <time>2016-05-07T08:21:32Z</time>
      </trkpt>
      <trkpt lat="44.26202" lon="5.61272">
        <ele>1212</ele>
        <time>2016-05-07T08:21:34Z</time>
      </trkpt>
      <trkpt lat="44.26203" lon="5.61265">
        <ele>1212.4000244141</ele>
        <time>2016-05-07T08:21:36Z</time>
      </trkpt>
      <trkpt lat="44.26203" lon="5.61261">
        <ele>1212.8000488281</ele>
        <time>2016-05-07T08:21:37Z</time>
      </trkpt>
      <trkpt lat="44.26204" lon="5.61255">
        <ele>1212.8000488281</ele>
        <time>2016-05-07T08:21:39Z</time>
      </trkpt>
      <trkpt lat="44.262" lon="5.61227">
        <ele>1212.8000488281</ele>
        <time>2016-05-07T08:21:47Z</time>
      </trkpt>
      <trkpt lat="44.26199" lon="5.61224">
        <ele>1213.4000244141</ele>
        <time>2016-05-07T08:21:48Z</time>
      </trkpt>
      <trkpt lat="44.26196" lon="5.61219">
        <ele>1213.8000488281</ele>
        <time>2016-05-07T08:21:50Z</time>
      </trkpt>
      <trkpt lat="44.26191" lon="5.6121">
        <ele>1214.5999755859</ele>
        <time>2016-05-07T08:21:53Z</time>
      </trkpt>
      <trkpt lat="44.26189" lon="5.61205">
        <ele>1215</ele>
        <time>2016-05-07T08:21:55Z</time>
      </trkpt>
      <trkpt lat="44.26188" lon="5.61202">
        <ele>1215</ele>
        <time>2016-05-07T08:21:56Z</time>
      </trkpt>
      <trkpt lat="44.26181" lon="5.61176">
        <ele>1215</ele>
        <time>2016-05-07T08:22:04Z</time>
      </trkpt>
      <trkpt lat="44.26179" lon="5.61173">
        <ele>1215.4000244141</ele>
        <time>2016-05-07T08:22:05Z</time>
      </trkpt>
      <trkpt lat="44.26176" lon="5.61168">
        <ele>1216.1999511719</ele>
        <time>2016-05-07T08:22:07Z</time>
      </trkpt>
      <trkpt lat="44.26173" lon="5.61163">
        <ele>1217.1999511719</ele>
        <time>2016-05-07T08:22:09Z</time>
      </trkpt>
      <trkpt lat="44.26167" lon="5.61153">
        <ele>1217.1999511719</ele>
        <time>2016-05-07T08:22:13Z</time>
      </trkpt>
      <trkpt lat="44.26157" lon="5.61125">
        <ele>1217.1999511719</ele>
        <time>2016-05-07T08:22:22Z</time>
      </trkpt>
      <trkpt lat="44.26155" lon="5.61118">
        <ele>1218</ele>
        <time>2016-05-07T08:22:24Z</time>
      </trkpt>
      <trkpt lat="44.26154" lon="5.61112">
        <ele>1218.4000244141</ele>
        <time>2016-05-07T08:22:26Z</time>
      </trkpt>
      <trkpt lat="44.26152" lon="5.61103">
        <ele>1219.1999511719</ele>
        <time>2016-05-07T08:22:29Z</time>
      </trkpt>
      <trkpt lat="44.26152" lon="5.61096">
        <ele>1220</ele>
        <time>2016-05-07T08:22:31Z</time>
      </trkpt>
      <trkpt lat="44.26153" lon="5.61089">
        <ele>1220.4000244141</ele>
        <time>2016-05-07T08:22:33Z</time>
      </trkpt>
      <trkpt lat="44.26155" lon="5.61079">
        <ele>1221.1999511719</ele>
        <time>2016-05-07T08:22:36Z</time>
      </trkpt>
      <trkpt lat="44.26158" lon="5.61074">
        <ele>1221.1999511719</ele>
        <time>2016-05-07T08:22:38Z</time>
      </trkpt>
      <trkpt lat="44.2617" lon="5.61067">
        <ele>1222.1999511719</ele>
        <time>2016-05-07T08:22:43Z</time>
      </trkpt>
      <trkpt lat="44.26172" lon="5.61067">
        <ele>1222.1999511719</ele>
        <time>2016-05-07T08:22:44Z</time>
      </trkpt>
      <trkpt lat="44.26175" lon="5.61068">
        <ele>1222.5999755859</ele>
        <time>2016-05-07T08:22:45Z</time>
      </trkpt>
      <trkpt lat="44.26185" lon="5.61071">
        <ele>1223.4000244141</ele>
        <time>2016-05-07T08:22:48Z</time>
      </trkpt>
      <trkpt lat="44.26195" lon="5.61068">
        <ele>1223.4000244141</ele>
        <time>2016-05-07T08:22:51Z</time>
      </trkpt>
      <trkpt lat="44.26199" lon="5.61066">
        <ele>1223.4000244141</ele>
        <time>2016-05-07T08:22:52Z</time>
      </trkpt>
      <trkpt lat="44.26207" lon="5.61051">
        <ele>1223.4000244141</ele>
        <time>2016-05-07T08:22:55Z</time>
      </trkpt>
      <trkpt lat="44.26212" lon="5.61038">
        <ele>1223.4000244141</ele>
        <time>2016-05-07T08:22:57Z</time>
      </trkpt>
      <trkpt lat="44.26222" lon="5.61008">
        <ele>1223.4000244141</ele>
        <time>2016-05-07T08:23:01Z</time>
      </trkpt>
      <trkpt lat="44.26239" lon="5.60974">
        <ele>1222.5999755859</ele>
        <time>2016-05-07T08:23:05Z</time>
      </trkpt>
      <trkpt lat="44.26244" lon="5.60964">
        <ele>1222.5999755859</ele>
        <time>2016-05-07T08:23:06Z</time>
      </trkpt>
      <trkpt lat="44.26249" lon="5.60955">
        <ele>1222</ele>
        <time>2016-05-07T08:23:07Z</time>
      </trkpt>
      <trkpt lat="44.26266" lon="5.60925">
        <ele>1221.1999511719</ele>
        <time>2016-05-07T08:23:10Z</time>
      </trkpt>
      <trkpt lat="44.26279" lon="5.60905">
        <ele>1220.5999755859</ele>
        <time>2016-05-07T08:23:12Z</time>
      </trkpt>
      <trkpt lat="44.26299" lon="5.60874">
        <ele>1219.5999755859</ele>
        <time>2016-05-07T08:23:15Z</time>
      </trkpt>
      <trkpt lat="44.26312" lon="5.60852">
        <ele>1218.5999755859</ele>
        <time>2016-05-07T08:23:17Z</time>
      </trkpt>
      <trkpt lat="44.26324" lon="5.60809">
        <ele>1217.1999511719</ele>
        <time>2016-05-07T08:23:20Z</time>
      </trkpt>
      <trkpt lat="44.26328" lon="5.60794">
        <ele>1217.1999511719</ele>
        <time>2016-05-07T08:23:21Z</time>
      </trkpt>
      <trkpt lat="44.26332" lon="5.60778">
        <ele>1213.8000488281</ele>
        <time>2016-05-07T08:23:22Z</time>
      </trkpt>
      <trkpt lat="44.2634" lon="5.60749">
        <ele>1212.1999511719</ele>
        <time>2016-05-07T08:23:24Z</time>
      </trkpt>
      <trkpt lat="44.26346" lon="5.60735">
        <ele>1212.1999511719</ele>
        <time>2016-05-07T08:23:25Z</time>
      </trkpt>
      <trkpt lat="44.26352" lon="5.60721">
        <ele>1212.1999511719</ele>
        <time>2016-05-07T08:23:26Z</time>
      </trkpt>
      <trkpt lat="44.26359" lon="5.60708">
        <ele>1209.1999511719</ele>
        <time>2016-05-07T08:23:27Z</time>
      </trkpt>
      <trkpt lat="44.26366" lon="5.60694">
        <ele>1209.1999511719</ele>
        <time>2016-05-07T08:23:28Z</time>
      </trkpt>
      <trkpt lat="44.26374" lon="5.60682">
        <ele>1207.8000488281</ele>
        <time>2016-05-07T08:23:29Z</time>
      </trkpt>
      <trkpt lat="44.26393" lon="5.60658">
        <ele>1207.8000488281</ele>
        <time>2016-05-07T08:23:31Z</time>
      </trkpt>
      <trkpt lat="44.26403" lon="5.60646">
        <ele>1206.4000244141</ele>
        <time>2016-05-07T08:23:32Z</time>
      </trkpt>
      <trkpt lat="44.26422" lon="5.60621">
        <ele>1203</ele>
        <time>2016-05-07T08:23:34Z</time>
      </trkpt>
      <trkpt lat="44.26431" lon="5.60607">
        <ele>1203</ele>
        <time>2016-05-07T08:23:35Z</time>
      </trkpt>
      <trkpt lat="44.26438" lon="5.60591">
        <ele>1201.1999511719</ele>
        <time>2016-05-07T08:23:36Z</time>
      </trkpt>
      <trkpt lat="44.2645" lon="5.6056">
        <ele>1197.8000488281</ele>
        <time>2016-05-07T08:23:38Z</time>
      </trkpt>
      <trkpt lat="44.26455" lon="5.60548">
        <ele>1196.1999511719</ele>
        <time>2016-05-07T08:23:39Z</time>
      </trkpt>
      <trkpt lat="44.26461" lon="5.6054">
        <ele>1196.1999511719</ele>
        <time>2016-05-07T08:23:40Z</time>
      </trkpt>
      <trkpt lat="44.26467" lon="5.60534">
        <ele>1194.5999755859</ele>
        <time>2016-05-07T08:23:41Z</time>
      </trkpt>
      <trkpt lat="44.26474" lon="5.6053">
        <ele>1193.1999511719</ele>
        <time>2016-05-07T08:23:42Z</time>
      </trkpt>
      <trkpt lat="44.26482" lon="5.60527">
        <ele>1191.5999755859</ele>
        <time>2016-05-07T08:23:43Z</time>
      </trkpt>
      <trkpt lat="44.26492" lon="5.60524">
        <ele>1191.5999755859</ele>
        <time>2016-05-07T08:23:44Z</time>
      </trkpt>
      <trkpt lat="44.26502" lon="5.6052">
        <ele>1190.5999755859</ele>
        <time>2016-05-07T08:23:45Z</time>
      </trkpt>
      <trkpt lat="44.26511" lon="5.60515">
        <ele>1189.5999755859</ele>
        <time>2016-05-07T08:23:46Z</time>
      </trkpt>
      <trkpt lat="44.26519" lon="5.60507">
        <ele>1187.4000244141</ele>
        <time>2016-05-07T08:23:47Z</time>
      </trkpt>
      <trkpt lat="44.26524" lon="5.60497">
        <ele>1186.1999511719</ele>
        <time>2016-05-07T08:23:48Z</time>
      </trkpt>
      <trkpt lat="44.26529" lon="5.60485">
        <ele>1186.1999511719</ele>
        <time>2016-05-07T08:23:49Z</time>
      </trkpt>
      <trkpt lat="44.26532" lon="5.60473">
        <ele>1185.4000244141</ele>
        <time>2016-05-07T08:23:50Z</time>
      </trkpt>
      <trkpt lat="44.26534" lon="5.60461">
        <ele>1184.5999755859</ele>
        <time>2016-05-07T08:23:51Z</time>
      </trkpt>
      <trkpt lat="44.26536" lon="5.60449">
        <ele>1182.8000488281</ele>
        <time>2016-05-07T08:23:52Z</time>
      </trkpt>
      <trkpt lat="44.26538" lon="5.60438">
        <ele>1182</ele>
        <time>2016-05-07T08:23:53Z</time>
      </trkpt>
      <trkpt lat="44.26556" lon="5.6038">
        <ele>1181.4000244141</ele>
        <time>2016-05-07T08:23:58Z</time>
      </trkpt>
      <trkpt lat="44.26558" lon="5.60368">
        <ele>1181.4000244141</ele>
        <time>2016-05-07T08:23:59Z</time>
      </trkpt>
      <trkpt lat="44.26559" lon="5.60355">
        <ele>1180.8000488281</ele>
        <time>2016-05-07T08:24:00Z</time>
      </trkpt>
      <trkpt lat="44.26561" lon="5.60344">
        <ele>1180.1999511719</ele>
        <time>2016-05-07T08:24:01Z</time>
      </trkpt>
      <trkpt lat="44.26564" lon="5.60334">
        <ele>1179</ele>
        <time>2016-05-07T08:24:02Z</time>
      </trkpt>
      <trkpt lat="44.26569" lon="5.60325">
        <ele>1179</ele>
        <time>2016-05-07T08:24:03Z</time>
      </trkpt>
      <trkpt lat="44.2659" lon="5.60304">
        <ele>1179</ele>
        <time>2016-05-07T08:24:06Z</time>
      </trkpt>
      <trkpt lat="44.26597" lon="5.60296">
        <ele>1178</ele>
        <time>2016-05-07T08:24:07Z</time>
      </trkpt>
      <trkpt lat="44.26605" lon="5.60287">
        <ele>1177.5999755859</ele>
        <time>2016-05-07T08:24:08Z</time>
      </trkpt>
      <trkpt lat="44.26619" lon="5.60265">
        <ele>1176.8000488281</ele>
        <time>2016-05-07T08:24:10Z</time>
      </trkpt>
      <trkpt lat="44.26625" lon="5.60255">
        <ele>1175.1999511719</ele>
        <time>2016-05-07T08:24:11Z</time>
      </trkpt>
      <trkpt lat="44.26632" lon="5.60242">
        <ele>1174.4000244141</ele>
        <time>2016-05-07T08:24:12Z</time>
      </trkpt>
      <trkpt lat="44.26637" lon="5.60229">
        <ele>1173.5999755859</ele>
        <time>2016-05-07T08:24:13Z</time>
      </trkpt>
      <trkpt lat="44.26648" lon="5.60203">
        <ele>1172.8000488281</ele>
        <time>2016-05-07T08:24:15Z</time>
      </trkpt>
      <trkpt lat="44.26651" lon="5.60189">
        <ele>1171.4000244141</ele>
        <time>2016-05-07T08:24:16Z</time>
      </trkpt>
      <trkpt lat="44.26653" lon="5.60176">
        <ele>1171</ele>
        <time>2016-05-07T08:24:17Z</time>
      </trkpt>
      <trkpt lat="44.26655" lon="5.60165">
        <ele>1170.4000244141</ele>
        <time>2016-05-07T08:24:18Z</time>
      </trkpt>
      <trkpt lat="44.26658" lon="5.60156">
        <ele>1170.4000244141</ele>
        <time>2016-05-07T08:24:19Z</time>
      </trkpt>
      <trkpt lat="44.26663" lon="5.60148">
        <ele>1169.8000488281</ele>
        <time>2016-05-07T08:24:20Z</time>
      </trkpt>
      <trkpt lat="44.26669" lon="5.60141">
        <ele>1169</ele>
        <time>2016-05-07T08:24:21Z</time>
      </trkpt>
      <trkpt lat="44.26675" lon="5.60133">
        <ele>1168.1999511719</ele>
        <time>2016-05-07T08:24:22Z</time>
      </trkpt>
      <trkpt lat="44.26682" lon="5.60124">
        <ele>1167.5999755859</ele>
        <time>2016-05-07T08:24:23Z</time>
      </trkpt>
      <trkpt lat="44.26696" lon="5.60104">
        <ele>1166.8000488281</ele>
        <time>2016-05-07T08:24:25Z</time>
      </trkpt>
      <trkpt lat="44.26701" lon="5.60093">
        <ele>1166</ele>
        <time>2016-05-07T08:24:26Z</time>
      </trkpt>
      <trkpt lat="44.26706" lon="5.60082">
        <ele>1164.4000244141</ele>
        <time>2016-05-07T08:24:27Z</time>
      </trkpt>
      <trkpt lat="44.26709" lon="5.60069">
        <ele>1163.5999755859</ele>
        <time>2016-05-07T08:24:28Z</time>
      </trkpt>
      <trkpt lat="44.26711" lon="5.60056">
        <ele>1163.5999755859</ele>
        <time>2016-05-07T08:24:29Z</time>
      </trkpt>
      <trkpt lat="44.26711" lon="5.60042">
        <ele>1163</ele>
        <time>2016-05-07T08:24:30Z</time>
      </trkpt>
      <trkpt lat="44.26711" lon="5.60027">
        <ele>1162.1999511719</ele>
        <time>2016-05-07T08:24:31Z</time>
      </trkpt>
      <trkpt lat="44.2671" lon="5.60013">
        <ele>1160.8000488281</ele>
        <time>2016-05-07T08:24:32Z</time>
      </trkpt>
      <trkpt lat="44.26708" lon="5.59999">
        <ele>1160</ele>
        <time>2016-05-07T08:24:33Z</time>
      </trkpt>
      <trkpt lat="44.26704" lon="5.59986">
        <ele>1159.1999511719</ele>
        <time>2016-05-07T08:24:34Z</time>
      </trkpt>
      <trkpt lat="44.26701" lon="5.59973">
        <ele>1159.1999511719</ele>
        <time>2016-05-07T08:24:35Z</time>
      </trkpt>
      <trkpt lat="44.26698" lon="5.59961">
        <ele>1158.5999755859</ele>
        <time>2016-05-07T08:24:36Z</time>
      </trkpt>
      <trkpt lat="44.26695" lon="5.59948">
        <ele>1158.5999755859</ele>
        <time>2016-05-07T08:24:37Z</time>
      </trkpt>
      <trkpt lat="44.26693" lon="5.59935">
        <ele>1157.8000488281</ele>
        <time>2016-05-07T08:24:38Z</time>
      </trkpt>
      <trkpt lat="44.2669" lon="5.59922">
        <ele>1157.1999511719</ele>
        <time>2016-05-07T08:24:39Z</time>
      </trkpt>
      <trkpt lat="44.26685" lon="5.59897">
        <ele>1156.8000488281</ele>
        <time>2016-05-07T08:24:41Z</time>
      </trkpt>
      <trkpt lat="44.26683" lon="5.59884">
        <ele>1156.4000244141</ele>
        <time>2016-05-07T08:24:42Z</time>
      </trkpt>
      <trkpt lat="44.26682" lon="5.59871">
        <ele>1156.4000244141</ele>
        <time>2016-05-07T08:24:43Z</time>
      </trkpt>
      <trkpt lat="44.26682" lon="5.59858">
        <ele>1156.4000244141</ele>
        <time>2016-05-07T08:24:44Z</time>
      </trkpt>
      <trkpt lat="44.26682" lon="5.59817">
        <ele>1156</ele>
        <time>2016-05-07T08:24:47Z</time>
      </trkpt>
      <trkpt lat="44.26683" lon="5.59804">
        <ele>1155</ele>
        <time>2016-05-07T08:24:48Z</time>
      </trkpt>
      <trkpt lat="44.26685" lon="5.59791">
        <ele>1154.5999755859</ele>
        <time>2016-05-07T08:24:49Z</time>
      </trkpt>
      <trkpt lat="44.26688" lon="5.59778">
        <ele>1154</ele>
        <time>2016-05-07T08:24:50Z</time>
      </trkpt>
      <trkpt lat="44.26698" lon="5.59752">
        <ele>1153.4000244141</ele>
        <time>2016-05-07T08:24:52Z</time>
      </trkpt>
      <trkpt lat="44.26702" lon="5.59737">
        <ele>1152.1999511719</ele>
        <time>2016-05-07T08:24:53Z</time>
      </trkpt>
      <trkpt lat="44.26705" lon="5.59722">
        <ele>1151.5999755859</ele>
        <time>2016-05-07T08:24:54Z</time>
      </trkpt>
      <trkpt lat="44.26706" lon="5.59707">
        <ele>1151</ele>
        <time>2016-05-07T08:24:55Z</time>
      </trkpt>
      <trkpt lat="44.26704" lon="5.59677">
        <ele>1150.4000244141</ele>
        <time>2016-05-07T08:24:57Z</time>
      </trkpt>
      <trkpt lat="44.26704" lon="5.59661">
        <ele>1148.8000488281</ele>
        <time>2016-05-07T08:24:58Z</time>
      </trkpt>
      <trkpt lat="44.26702" lon="5.59646">
        <ele>1148.1999511719</ele>
        <time>2016-05-07T08:24:59Z</time>
      </trkpt>
      <trkpt lat="44.267" lon="5.59631">
        <ele>1147.4000244141</ele>
        <time>2016-05-07T08:25:00Z</time>
      </trkpt>
      <trkpt lat="44.26694" lon="5.59602">
        <ele>1146.5999755859</ele>
        <time>2016-05-07T08:25:02Z</time>
      </trkpt>
      <trkpt lat="44.26694" lon="5.59588">
        <ele>1146.1999511719</ele>
        <time>2016-05-07T08:25:03Z</time>
      </trkpt>
      <trkpt lat="44.26695" lon="5.59573">
        <ele>1145.1999511719</ele>
        <time>2016-05-07T08:25:04Z</time>
      </trkpt>
      <trkpt lat="44.26696" lon="5.59559">
        <ele>1144.5999755859</ele>
        <time>2016-05-07T08:25:05Z</time>
      </trkpt>
      <trkpt lat="44.26689" lon="5.59534">
        <ele>1144</ele>
        <time>2016-05-07T08:25:07Z</time>
      </trkpt>
      <trkpt lat="44.26683" lon="5.59523">
        <ele>1143.1999511719</ele>
        <time>2016-05-07T08:25:08Z</time>
      </trkpt>
      <trkpt lat="44.26678" lon="5.59513">
        <ele>1142</ele>
        <time>2016-05-07T08:25:09Z</time>
      </trkpt>
      <trkpt lat="44.26674" lon="5.59504">
        <ele>1141.4000244141</ele>
        <time>2016-05-07T08:25:10Z</time>
      </trkpt>
      <trkpt lat="44.26673" lon="5.59494">
        <ele>1141.4000244141</ele>
        <time>2016-05-07T08:25:11Z</time>
      </trkpt>
      <trkpt lat="44.26678" lon="5.59476">
        <ele>1140.8000488281</ele>
        <time>2016-05-07T08:25:13Z</time>
      </trkpt>
      <trkpt lat="44.26685" lon="5.59468">
        <ele>1140.1999511719</ele>
        <time>2016-05-07T08:25:14Z</time>
      </trkpt>
      <trkpt lat="44.26691" lon="5.5946">
        <ele>1139.5999755859</ele>
        <time>2016-05-07T08:25:15Z</time>
      </trkpt>
      <trkpt lat="44.26697" lon="5.59451">
        <ele>1139.5999755859</ele>
        <time>2016-05-07T08:25:16Z</time>
      </trkpt>
      <trkpt lat="44.26702" lon="5.59441">
        <ele>1139</ele>
        <time>2016-05-07T08:25:17Z</time>
      </trkpt>
      <trkpt lat="44.26707" lon="5.5943">
        <ele>1138.4000244141</ele>
        <time>2016-05-07T08:25:18Z</time>
      </trkpt>
      <trkpt lat="44.26709" lon="5.59418">
        <ele>1137.1999511719</ele>
        <time>2016-05-07T08:25:19Z</time>
      </trkpt>
      <trkpt lat="44.26707" lon="5.59406">
        <ele>1136.4000244141</ele>
        <time>2016-05-07T08:25:20Z</time>
      </trkpt>
      <trkpt lat="44.26703" lon="5.59394">
        <ele>1135.8000488281</ele>
        <time>2016-05-07T08:25:21Z</time>
      </trkpt>
      <trkpt lat="44.26693" lon="5.5937">
        <ele>1135.1999511719</ele>
        <time>2016-05-07T08:25:23Z</time>
      </trkpt>
      <trkpt lat="44.26688" lon="5.59359">
        <ele>1133.8000488281</ele>
        <time>2016-05-07T08:25:24Z</time>
      </trkpt>
      <trkpt lat="44.26684" lon="5.59347">
        <ele>1133.8000488281</ele>
        <time>2016-05-07T08:25:25Z</time>
      </trkpt>
      <trkpt lat="44.2668" lon="5.59335">
        <ele>1133.4000244141</ele>
        <time>2016-05-07T08:25:26Z</time>
      </trkpt>
      <trkpt lat="44.26673" lon="5.59311">
        <ele>1133</ele>
        <time>2016-05-07T08:25:28Z</time>
      </trkpt>
      <trkpt lat="44.26669" lon="5.593">
        <ele>1132.5999755859</ele>
        <time>2016-05-07T08:25:29Z</time>
      </trkpt>
      <trkpt lat="44.26665" lon="5.59289">
        <ele>1131.8000488281</ele>
        <time>2016-05-07T08:25:30Z</time>
      </trkpt>
      <trkpt lat="44.26661" lon="5.59276">
        <ele>1131.8000488281</ele>
        <time>2016-05-07T08:25:31Z</time>
      </trkpt>
      <trkpt lat="44.26659" lon="5.59263">
        <ele>1131.8000488281</ele>
        <time>2016-05-07T08:25:32Z</time>
      </trkpt>
      <trkpt lat="44.26656" lon="5.59237">
        <ele>1131.1999511719</ele>
        <time>2016-05-07T08:25:34Z</time>
      </trkpt>
      <trkpt lat="44.26655" lon="5.59225">
        <ele>1130.1999511719</ele>
        <time>2016-05-07T08:25:35Z</time>
      </trkpt>
      <trkpt lat="44.26653" lon="5.59214">
        <ele>1129.5999755859</ele>
        <time>2016-05-07T08:25:36Z</time>
      </trkpt>
      <trkpt lat="44.26649" lon="5.59192">
        <ele>1128.8000488281</ele>
        <time>2016-05-07T08:25:38Z</time>
      </trkpt>
      <trkpt lat="44.26649" lon="5.59175">
        <ele>1127.5999755859</ele>
        <time>2016-05-07T08:25:40Z</time>
      </trkpt>
      <trkpt lat="44.26649" lon="5.59168">
        <ele>1126.8000488281</ele>
        <time>2016-05-07T08:25:41Z</time>
      </trkpt>
      <trkpt lat="44.26649" lon="5.59162">
        <ele>1126.8000488281</ele>
        <time>2016-05-07T08:25:42Z</time>
      </trkpt>
      <trkpt lat="44.26649" lon="5.59131">
        <ele>1127.1999511719</ele>
        <time>2016-05-07T08:25:48Z</time>
      </trkpt>
      <trkpt lat="44.26649" lon="5.59123">
        <ele>1127.5999755859</ele>
        <time>2016-05-07T08:25:50Z</time>
      </trkpt>
      <trkpt lat="44.2665" lon="5.59119">
        <ele>1128.5999755859</ele>
        <time>2016-05-07T08:25:51Z</time>
      </trkpt>
      <trkpt lat="44.2665" lon="5.59115">
        <ele>1129</ele>
        <time>2016-05-07T08:25:52Z</time>
      </trkpt>
      <trkpt lat="44.2665" lon="5.59102">
        <ele>1129.4000244141</ele>
        <time>2016-05-07T08:25:55Z</time>
      </trkpt>
      <trkpt lat="44.2665" lon="5.59097">
        <ele>1129.4000244141</ele>
        <time>2016-05-07T08:25:56Z</time>
      </trkpt>
      <trkpt lat="44.26649" lon="5.59093">
        <ele>1130.1999511719</ele>
        <time>2016-05-07T08:25:57Z</time>
      </trkpt>
      <trkpt lat="44.26648" lon="5.59088">
        <ele>1130.8000488281</ele>
        <time>2016-05-07T08:25:58Z</time>
      </trkpt>
      <trkpt lat="44.26647" lon="5.59079">
        <ele>1131.1999511719</ele>
        <time>2016-05-07T08:26:00Z</time>
      </trkpt>
      <trkpt lat="44.26644" lon="5.59058">
        <ele>1131.1999511719</ele>
        <time>2016-05-07T08:26:04Z</time>
      </trkpt>
      <trkpt lat="44.26651" lon="5.59029">
        <ele>1131.1999511719</ele>
        <time>2016-05-07T08:26:08Z</time>
      </trkpt>
      <trkpt lat="44.26654" lon="5.59015">
        <ele>1131.1999511719</ele>
        <time>2016-05-07T08:26:10Z</time>
      </trkpt>
      <trkpt lat="44.26659" lon="5.58994">
        <ele>1131.1999511719</ele>
        <time>2016-05-07T08:26:13Z</time>
      </trkpt>
      <trkpt lat="44.26664" lon="5.58949">
        <ele>1131.1999511719</ele>
        <time>2016-05-07T08:26:19Z</time>
      </trkpt>
      <trkpt lat="44.26661" lon="5.58917">
        <ele>1131.1999511719</ele>
        <time>2016-05-07T08:26:24Z</time>
      </trkpt>
      <trkpt lat="44.26661" lon="5.58884">
        <ele>1131.1999511719</ele>
        <time>2016-05-07T08:26:30Z</time>
      </trkpt>
      <trkpt lat="44.26665" lon="5.58844">
        <ele>1131.1999511719</ele>
        <time>2016-05-07T08:26:36Z</time>
      </trkpt>
      <trkpt lat="44.26673" lon="5.58798">
        <ele>1131.1999511719</ele>
        <time>2016-05-07T08:26:44Z</time>
      </trkpt>
      <trkpt lat="44.2669" lon="5.58751">
        <ele>1131.1999511719</ele>
        <time>2016-05-07T08:26:53Z</time>
      </trkpt>
      <trkpt lat="44.26696" lon="5.58722">
        <ele>1131.1999511719</ele>
        <time>2016-05-07T08:26:59Z</time>
      </trkpt>
      <trkpt lat="44.26703" lon="5.58688">
        <ele>1131.1999511719</ele>
        <time>2016-05-07T08:27:06Z</time>
      </trkpt>
      <trkpt lat="44.26707" lon="5.58672">
        <ele>1131.1999511719</ele>
        <time>2016-05-07T08:27:09Z</time>
      </trkpt>
      <trkpt lat="44.26707" lon="5.5866">
        <ele>1131.1999511719</ele>
        <time>2016-05-07T08:27:11Z</time>
      </trkpt>
      <trkpt lat="44.26706" lon="5.58601">
        <ele>1131.1999511719</ele>
        <time>2016-05-07T08:27:20Z</time>
      </trkpt>
      <trkpt lat="44.26705" lon="5.58594">
        <ele>1131.1999511719</ele>
        <time>2016-05-07T08:27:21Z</time>
      </trkpt>
      <trkpt lat="44.26698" lon="5.58569">
        <ele>1131.1999511719</ele>
        <time>2016-05-07T08:27:25Z</time>
      </trkpt>
      <trkpt lat="44.26696" lon="5.58544">
        <ele>1131.1999511719</ele>
        <time>2016-05-07T08:27:29Z</time>
      </trkpt>
      <trkpt lat="44.26696" lon="5.58536">
        <ele>1131.1999511719</ele>
        <time>2016-05-07T08:27:30Z</time>
      </trkpt>
      <trkpt lat="44.26697" lon="5.58519">
        <ele>1131.1999511719</ele>
        <time>2016-05-07T08:27:32Z</time>
      </trkpt>
      <trkpt lat="44.26696" lon="5.58503">
        <ele>1131.1999511719</ele>
        <time>2016-05-07T08:27:34Z</time>
      </trkpt>
      <trkpt lat="44.26696" lon="5.58496">
        <ele>1131.1999511719</ele>
        <time>2016-05-07T08:27:35Z</time>
      </trkpt>
      <trkpt lat="44.26696" lon="5.58487">
        <ele>1131.1999511719</ele>
        <time>2016-05-07T08:27:37Z</time>
      </trkpt>
      <trkpt lat="44.26694" lon="5.58477">
        <ele>1131.1999511719</ele>
        <time>2016-05-07T08:27:42Z</time>
      </trkpt>
      <trkpt lat="44.26693" lon="5.58477">
        <ele>1131.1999511719</ele>
        <time>2016-05-07T08:27:50Z</time>
      </trkpt>
      <trkpt lat="44.26694" lon="5.58475">
        <ele>1131.1999511719</ele>
        <time>2016-05-07T08:28:21Z</time>
      </trkpt>
      <trkpt lat="44.26694" lon="5.58474">
        <ele>1131.5999755859</ele>
        <time>2016-05-07T08:28:29Z</time>
      </trkpt>
      <trkpt lat="44.26694" lon="5.58474">
        <ele>1132</ele>
        <time>2016-05-07T08:28:30Z</time>
      </trkpt>
      <trkpt lat="44.26694" lon="5.58474">
        <ele>1132.4000244141</ele>
        <time>2016-05-07T08:28:31Z</time>
      </trkpt>
      <trkpt lat="44.26694" lon="5.58474">
        <ele>1132.8000488281</ele>
        <time>2016-05-07T08:28:32Z</time>
      </trkpt>
      <trkpt lat="44.26694" lon="5.58474">
        <ele>1133.1999511719</ele>
        <time>2016-05-07T08:28:33Z</time>
      </trkpt>
      <trkpt lat="44.26694" lon="5.58474">
        <ele>1133.1999511719</ele>
        <time>2016-05-07T08:28:42Z</time>
      </trkpt>
      <trkpt lat="44.26694" lon="5.58474">
        <ele>1133.5999755859</ele>
        <time>2016-05-07T08:28:44Z</time>
      </trkpt>
      <trkpt lat="44.26694" lon="5.58474">
        <ele>1134</ele>
        <time>2016-05-07T08:28:45Z</time>
      </trkpt>
      <trkpt lat="44.26694" lon="5.58474">
        <ele>1134.8000488281</ele>
        <time>2016-05-07T08:28:47Z</time>
      </trkpt>
      <trkpt lat="44.26694" lon="5.58474">
        <ele>1135.1999511719</ele>
        <time>2016-05-07T08:28:48Z</time>
      </trkpt>
      <trkpt lat="44.26694" lon="5.58473">
        <ele>1135.1999511719</ele>
        <time>2016-05-07T08:28:55Z</time>
      </trkpt>
      <trkpt lat="44.26694" lon="5.58473">
        <ele>1135.8000488281</ele>
        <time>2016-05-07T08:28:58Z</time>
      </trkpt>
      <trkpt lat="44.26694" lon="5.58473">
        <ele>1136.1999511719</ele>
        <time>2016-05-07T08:28:59Z</time>
      </trkpt>
      <trkpt lat="44.26694" lon="5.58473">
        <ele>1136.8000488281</ele>
        <time>2016-05-07T08:29:00Z</time>
      </trkpt>
      <trkpt lat="44.26694" lon="5.58473">
        <ele>1137.5999755859</ele>
        <time>2016-05-07T08:29:02Z</time>
      </trkpt>
      <trkpt lat="44.26694" lon="5.58473">
        <ele>1138</ele>
        <time>2016-05-07T08:29:05Z</time>
      </trkpt>
      <trkpt lat="44.26694" lon="5.58473">
        <ele>1138.4000244141</ele>
        <time>2016-05-07T08:29:07Z</time>
      </trkpt>
      <trkpt lat="44.26694" lon="5.58473">
        <ele>1138.8000488281</ele>
        <time>2016-05-07T08:29:08Z</time>
      </trkpt>
      <trkpt lat="44.26694" lon="5.58473">
        <ele>1139.1999511719</ele>
        <time>2016-05-07T08:29:09Z</time>
      </trkpt>
      <trkpt lat="44.26694" lon="5.58472">
        <ele>1139.5999755859</ele>
        <time>2016-05-07T08:29:10Z</time>
      </trkpt>
      <trkpt lat="44.26694" lon="5.58472">
        <ele>1139.5999755859</ele>
        <time>2016-05-07T08:29:13Z</time>
      </trkpt>
      <trkpt lat="44.26699" lon="5.58461">
        <ele>1139.5999755859</ele>
        <time>2016-05-07T08:29:26Z</time>
      </trkpt>
      <trkpt lat="44.26708" lon="5.58449">
        <ele>1139.5999755859</ele>
        <time>2016-05-07T08:29:29Z</time>
      </trkpt>
      <trkpt lat="44.26711" lon="5.58445">
        <ele>1139.5999755859</ele>
        <time>2016-05-07T08:29:30Z</time>
      </trkpt>
      <trkpt lat="44.26731" lon="5.58424">
        <ele>1139.1999511719</ele>
        <time>2016-05-07T08:29:38Z</time>
      </trkpt>
      <trkpt lat="44.26733" lon="5.5842">
        <ele>1138.8000488281</ele>
        <time>2016-05-07T08:29:39Z</time>
      </trkpt>
      <trkpt lat="44.26735" lon="5.58413">
        <ele>1138.4000244141</ele>
        <time>2016-05-07T08:29:41Z</time>
      </trkpt>
      <trkpt lat="44.26736" lon="5.58411">
        <ele>1138</ele>
        <time>2016-05-07T08:29:42Z</time>
      </trkpt>
      <trkpt lat="44.26735" lon="5.58406">
        <ele>1137.5999755859</ele>
        <time>2016-05-07T08:29:43Z</time>
      </trkpt>
      <trkpt lat="44.26735" lon="5.58403">
        <ele>1137.1999511719</ele>
        <time>2016-05-07T08:29:44Z</time>
      </trkpt>
      <trkpt lat="44.26736" lon="5.58401">
        <ele>1136.5999755859</ele>
        <time>2016-05-07T08:29:45Z</time>
      </trkpt>
      <trkpt lat="44.26736" lon="5.584">
        <ele>1136.1999511719</ele>
        <time>2016-05-07T08:29:46Z</time>
      </trkpt>
      <trkpt lat="44.26737" lon="5.58399">
        <ele>1135.5999755859</ele>
        <time>2016-05-07T08:29:47Z</time>
      </trkpt>
      <trkpt lat="44.26743" lon="5.58395">
        <ele>1135.5999755859</ele>
        <time>2016-05-07T08:29:54Z</time>
      </trkpt>
      <trkpt lat="44.2675" lon="5.58392">
        <ele>1135.5999755859</ele>
        <time>2016-05-07T08:30:04Z</time>
      </trkpt>
      <trkpt lat="44.26754" lon="5.58391">
        <ele>1136.1999511719</ele>
        <time>2016-05-07T08:30:10Z</time>
      </trkpt>
      <trkpt lat="44.26755" lon="5.58391">
        <ele>1136.5999755859</ele>
        <time>2016-05-07T08:30:11Z</time>
      </trkpt>
      <trkpt lat="44.26756" lon="5.5839">
        <ele>1137</ele>
        <time>2016-05-07T08:30:12Z</time>
      </trkpt>
      <trkpt lat="44.26757" lon="5.5839">
        <ele>1137.5999755859</ele>
        <time>2016-05-07T08:30:13Z</time>
      </trkpt>
      <trkpt lat="44.26758" lon="5.58389">
        <ele>1138</ele>
        <time>2016-05-07T08:30:14Z</time>
      </trkpt>
      <trkpt lat="44.26759" lon="5.58389">
        <ele>1138</ele>
        <time>2016-05-07T08:30:15Z</time>
      </trkpt>
      <trkpt lat="44.26765" lon="5.58388">
        <ele>1138.4000244141</ele>
        <time>2016-05-07T08:30:24Z</time>
      </trkpt>
      <trkpt lat="44.26766" lon="5.58389">
        <ele>1138.8000488281</ele>
        <time>2016-05-07T08:30:25Z</time>
      </trkpt>
      <trkpt lat="44.26768" lon="5.58388">
        <ele>1139.4000244141</ele>
        <time>2016-05-07T08:30:27Z</time>
      </trkpt>
      <trkpt lat="44.26768" lon="5.58388">
        <ele>1139.8000488281</ele>
        <time>2016-05-07T08:30:28Z</time>
      </trkpt>
      <trkpt lat="44.26769" lon="5.58388">
        <ele>1140.1999511719</ele>
        <time>2016-05-07T08:30:29Z</time>
      </trkpt>
      <trkpt lat="44.26774" lon="5.58389">
        <ele>1140.1999511719</ele>
        <time>2016-05-07T08:30:35Z</time>
      </trkpt>
      <trkpt lat="44.26775" lon="5.58389">
        <ele>1140.5999755859</ele>
        <time>2016-05-07T08:30:36Z</time>
      </trkpt>
      <trkpt lat="44.26776" lon="5.58389">
        <ele>1141</ele>
        <time>2016-05-07T08:30:37Z</time>
      </trkpt>
      <trkpt lat="44.26777" lon="5.5839">
        <ele>1141.4000244141</ele>
        <time>2016-05-07T08:30:39Z</time>
      </trkpt>
      <trkpt lat="44.26778" lon="5.5839">
        <ele>1142</ele>
        <time>2016-05-07T08:30:41Z</time>
      </trkpt>
      <trkpt lat="44.26779" lon="5.5839">
        <ele>1142.4000244141</ele>
        <time>2016-05-07T08:30:42Z</time>
      </trkpt>
      <trkpt lat="44.2678" lon="5.58389">
        <ele>1142.4000244141</ele>
        <time>2016-05-07T08:30:45Z</time>
      </trkpt>
      <trkpt lat="44.26787" lon="5.58387">
        <ele>1142.8000488281</ele>
        <time>2016-05-07T08:30:54Z</time>
      </trkpt>
      <trkpt lat="44.26787" lon="5.58386">
        <ele>1143.1999511719</ele>
        <time>2016-05-07T08:30:55Z</time>
      </trkpt>
      <trkpt lat="44.26787" lon="5.58386">
        <ele>1143.5999755859</ele>
        <time>2016-05-07T08:30:56Z</time>
      </trkpt>
      <trkpt lat="44.26787" lon="5.58386">
        <ele>1144.1999511719</ele>
        <time>2016-05-07T08:30:57Z</time>
      </trkpt>
      <trkpt lat="44.26788" lon="5.58386">
        <ele>1144.5999755859</ele>
        <time>2016-05-07T08:30:58Z</time>
      </trkpt>
      <trkpt lat="44.26789" lon="5.58385">
        <ele>1144.5999755859</ele>
        <time>2016-05-07T08:31:01Z</time>
      </trkpt>
      <trkpt lat="44.26793" lon="5.58384">
        <ele>1144.5999755859</ele>
        <time>2016-05-07T08:31:07Z</time>
      </trkpt>
      <trkpt lat="44.26798" lon="5.58382">
        <ele>1144.5999755859</ele>
        <time>2016-05-07T08:31:10Z</time>
      </trkpt>
      <trkpt lat="44.26809" lon="5.58378">
        <ele>1144.5999755859</ele>
        <time>2016-05-07T08:31:17Z</time>
      </trkpt>
      <trkpt lat="44.26811" lon="5.58378">
        <ele>1145</ele>
        <time>2016-05-07T08:31:18Z</time>
      </trkpt>
      <trkpt lat="44.26812" lon="5.58377">
        <ele>1145.4000244141</ele>
        <time>2016-05-07T08:31:19Z</time>
      </trkpt>
      <trkpt lat="44.26814" lon="5.58377">
        <ele>1145.8000488281</ele>
        <time>2016-05-07T08:31:20Z</time>
      </trkpt>
      <trkpt lat="44.26816" lon="5.58377">
        <ele>1146.4000244141</ele>
        <time>2016-05-07T08:31:21Z</time>
      </trkpt>
      <trkpt lat="44.26818" lon="5.58377">
        <ele>1146.8000488281</ele>
        <time>2016-05-07T08:31:22Z</time>
      </trkpt>
      <trkpt lat="44.2682" lon="5.58375">
        <ele>1147.1999511719</ele>
        <time>2016-05-07T08:31:24Z</time>
      </trkpt>
      <trkpt lat="44.26821" lon="5.58375">
        <ele>1147.5999755859</ele>
        <time>2016-05-07T08:31:25Z</time>
      </trkpt>
      <trkpt lat="44.26822" lon="5.58374">
        <ele>1148.1999511719</ele>
        <time>2016-05-07T08:31:26Z</time>
      </trkpt>
      <trkpt lat="44.26823" lon="5.58374">
        <ele>1148.5999755859</ele>
        <time>2016-05-07T08:31:27Z</time>
      </trkpt>
      <trkpt lat="44.26825" lon="5.58373">
        <ele>1149</ele>
        <time>2016-05-07T08:31:28Z</time>
      </trkpt>
      <trkpt lat="44.2683" lon="5.58372">
        <ele>1149</ele>
        <time>2016-05-07T08:31:32Z</time>
      </trkpt>
      <trkpt lat="44.26834" lon="5.58372">
        <ele>1149.4000244141</ele>
        <time>2016-05-07T08:31:36Z</time>
      </trkpt>
      <trkpt lat="44.26834" lon="5.58372">
        <ele>1150</ele>
        <time>2016-05-07T08:31:37Z</time>
      </trkpt>
      <trkpt lat="44.26836" lon="5.58372">
        <ele>1150.4000244141</ele>
        <time>2016-05-07T08:31:38Z</time>
      </trkpt>
      <trkpt lat="44.26838" lon="5.58372">
        <ele>1151</ele>
        <time>2016-05-07T08:31:39Z</time>
      </trkpt>
      <trkpt lat="44.26839" lon="5.58372">
        <ele>1151.4000244141</ele>
        <time>2016-05-07T08:31:40Z</time>
      </trkpt>
      <trkpt lat="44.26848" lon="5.58371">
        <ele>1151.4000244141</ele>
        <time>2016-05-07T08:31:46Z</time>
      </trkpt>
      <trkpt lat="44.2685" lon="5.58372">
        <ele>1151.8000488281</ele>
        <time>2016-05-07T08:31:48Z</time>
      </trkpt>
      <trkpt lat="44.26851" lon="5.58372">
        <ele>1152.1999511719</ele>
        <time>2016-05-07T08:31:49Z</time>
      </trkpt>
      <trkpt lat="44.26853" lon="5.58372">
        <ele>1152.8000488281</ele>
        <time>2016-05-07T08:31:50Z</time>
      </trkpt>
      <trkpt lat="44.26855" lon="5.58372">
        <ele>1153.1999511719</ele>
        <time>2016-05-07T08:31:51Z</time>
      </trkpt>
      <trkpt lat="44.26857" lon="5.58372">
        <ele>1153.5999755859</ele>
        <time>2016-05-07T08:31:52Z</time>
      </trkpt>
      <trkpt lat="44.26862" lon="5.58373">
        <ele>1154</ele>
        <time>2016-05-07T08:31:57Z</time>
      </trkpt>
      <trkpt lat="44.26863" lon="5.58373">
        <ele>1154.4000244141</ele>
        <time>2016-05-07T08:31:58Z</time>
      </trkpt>
      <trkpt lat="44.26863" lon="5.58374">
        <ele>1154.8000488281</ele>
        <time>2016-05-07T08:31:59Z</time>
      </trkpt>
      <trkpt lat="44.26863" lon="5.58375">
        <ele>1155.1999511719</ele>
        <time>2016-05-07T08:32:00Z</time>
      </trkpt>
      <trkpt lat="44.26865" lon="5.58376">
        <ele>1155.5999755859</ele>
        <time>2016-05-07T08:32:02Z</time>
      </trkpt>
      <trkpt lat="44.26868" lon="5.58378">
        <ele>1155.5999755859</ele>
        <time>2016-05-07T08:32:11Z</time>
      </trkpt>
      <trkpt lat="44.26872" lon="5.58379">
        <ele>1156.1999511719</ele>
        <time>2016-05-07T08:32:16Z</time>
      </trkpt>
      <trkpt lat="44.26873" lon="5.58379">
        <ele>1156.5999755859</ele>
        <time>2016-05-07T08:32:17Z</time>
      </trkpt>
      <trkpt lat="44.26873" lon="5.5838">
        <ele>1157</ele>
        <time>2016-05-07T08:32:18Z</time>
      </trkpt>
      <trkpt lat="44.26874" lon="5.5838">
        <ele>1157.4000244141</ele>
        <time>2016-05-07T08:32:19Z</time>
      </trkpt>
      <trkpt lat="44.26874" lon="5.58381">
        <ele>1157.8000488281</ele>
        <time>2016-05-07T08:32:20Z</time>
      </trkpt>
      <trkpt lat="44.26875" lon="5.58381">
        <ele>1157.8000488281</ele>
        <time>2016-05-07T08:32:21Z</time>
      </trkpt>
      <trkpt lat="44.26879" lon="5.58382">
        <ele>1158.1999511719</ele>
        <time>2016-05-07T08:32:25Z</time>
      </trkpt>
      <trkpt lat="44.2688" lon="5.58382">
        <ele>1159</ele>
        <time>2016-05-07T08:32:27Z</time>
      </trkpt>
      <trkpt lat="44.26881" lon="5.58382">
        <ele>1159.4000244141</ele>
        <time>2016-05-07T08:32:28Z</time>
      </trkpt>
      <trkpt lat="44.26881" lon="5.58383">
        <ele>1159.8000488281</ele>
        <time>2016-05-07T08:32:29Z</time>
      </trkpt>
      <trkpt lat="44.26884" lon="5.58383">
        <ele>1160.1999511719</ele>
        <time>2016-05-07T08:32:34Z</time>
      </trkpt>
      <trkpt lat="44.26885" lon="5.58383">
        <ele>1160.8000488281</ele>
        <time>2016-05-07T08:32:35Z</time>
      </trkpt>
      <trkpt lat="44.26886" lon="5.58383">
        <ele>1161.1999511719</ele>
        <time>2016-05-07T08:32:36Z</time>
      </trkpt>
      <trkpt lat="44.26886" lon="5.58383">
        <ele>1161.5999755859</ele>
        <time>2016-05-07T08:32:37Z</time>
      </trkpt>
      <trkpt lat="44.26887" lon="5.58383">
        <ele>1162</ele>
        <time>2016-05-07T08:32:38Z</time>
      </trkpt>
      <trkpt lat="44.26891" lon="5.58382">
        <ele>1162</ele>
        <time>2016-05-07T08:32:43Z</time>
      </trkpt>
      <trkpt lat="44.26894" lon="5.5838">
        <ele>1162.5999755859</ele>
        <time>2016-05-07T08:32:48Z</time>
      </trkpt>
      <trkpt lat="44.26895" lon="5.58379">
        <ele>1163</ele>
        <time>2016-05-07T08:32:49Z</time>
      </trkpt>
      <trkpt lat="44.26896" lon="5.58379">
        <ele>1163.4000244141</ele>
        <time>2016-05-07T08:32:50Z</time>
      </trkpt>
      <trkpt lat="44.26897" lon="5.58377">
        <ele>1164</ele>
        <time>2016-05-07T08:32:51Z</time>
      </trkpt>
      <trkpt lat="44.26898" lon="5.58377">
        <ele>1164.4000244141</ele>
        <time>2016-05-07T08:32:52Z</time>
      </trkpt>
      <trkpt lat="44.269" lon="5.58376">
        <ele>1164.4000244141</ele>
        <time>2016-05-07T08:32:54Z</time>
      </trkpt>
      <trkpt lat="44.26907" lon="5.58372">
        <ele>1164.4000244141</ele>
        <time>2016-05-07T08:33:01Z</time>
      </trkpt>
      <trkpt lat="44.26908" lon="5.58373">
        <ele>1164.4000244141</ele>
        <time>2016-05-07T08:33:02Z</time>
      </trkpt>
      <trkpt lat="44.26913" lon="5.58374">
        <ele>1164.4000244141</ele>
        <time>2016-05-07T08:33:08Z</time>
      </trkpt>
      <trkpt lat="44.26915" lon="5.58375">
        <ele>1164.8000488281</ele>
        <time>2016-05-07T08:33:10Z</time>
      </trkpt>
      <trkpt lat="44.26915" lon="5.58376">
        <ele>1165.4000244141</ele>
        <time>2016-05-07T08:33:11Z</time>
      </trkpt>
      <trkpt lat="44.26916" lon="5.58377">
        <ele>1165.8000488281</ele>
        <time>2016-05-07T08:33:12Z</time>
      </trkpt>
      <trkpt lat="44.26917" lon="5.58377">
        <ele>1166.1999511719</ele>
        <time>2016-05-07T08:33:13Z</time>
      </trkpt>
      <trkpt lat="44.26919" lon="5.58378">
        <ele>1166.8000488281</ele>
        <time>2016-05-07T08:33:15Z</time>
      </trkpt>
      <trkpt lat="44.2692" lon="5.58377">
        <ele>1166.8000488281</ele>
        <time>2016-05-07T08:33:16Z</time>
      </trkpt>
      <trkpt lat="44.26922" lon="5.58377">
        <ele>1166.8000488281</ele>
        <time>2016-05-07T08:33:19Z</time>
      </trkpt>
      <trkpt lat="44.26924" lon="5.58378">
        <ele>1167.1999511719</ele>
        <time>2016-05-07T08:33:29Z</time>
      </trkpt>
      <trkpt lat="44.26924" lon="5.58378">
        <ele>1167.5999755859</ele>
        <time>2016-05-07T08:33:30Z</time>
      </trkpt>
      <trkpt lat="44.26925" lon="5.58379">
        <ele>1168</ele>
        <time>2016-05-07T08:33:31Z</time>
      </trkpt>
      <trkpt lat="44.26925" lon="5.58379">
        <ele>1168.4000244141</ele>
        <time>2016-05-07T08:33:32Z</time>
      </trkpt>
      <trkpt lat="44.26926" lon="5.58379">
        <ele>1168.8000488281</ele>
        <time>2016-05-07T08:33:33Z</time>
      </trkpt>
      <trkpt lat="44.26927" lon="5.58381">
        <ele>1168.8000488281</ele>
        <time>2016-05-07T08:33:37Z</time>
      </trkpt>
      <trkpt lat="44.26931" lon="5.58388">
        <ele>1168.8000488281</ele>
        <time>2016-05-07T08:33:54Z</time>
      </trkpt>
      <trkpt lat="44.26933" lon="5.58391">
        <ele>1169.5999755859</ele>
        <time>2016-05-07T08:33:59Z</time>
      </trkpt>
      <trkpt lat="44.26934" lon="5.58392">
        <ele>1170</ele>
        <time>2016-05-07T08:34:00Z</time>
      </trkpt>
      <trkpt lat="44.26935" lon="5.58394">
        <ele>1170.4000244141</ele>
        <time>2016-05-07T08:34:01Z</time>
      </trkpt>
      <trkpt lat="44.26935" lon="5.58395">
        <ele>1170.8000488281</ele>
        <time>2016-05-07T08:34:02Z</time>
      </trkpt>
      <trkpt lat="44.26936" lon="5.584">
        <ele>1170.8000488281</ele>
        <time>2016-05-07T08:34:09Z</time>
      </trkpt>
      <trkpt lat="44.26939" lon="5.58403">
        <ele>1171.1999511719</ele>
        <time>2016-05-07T08:34:12Z</time>
      </trkpt>
      <trkpt lat="44.26941" lon="5.58405">
        <ele>1172</ele>
        <time>2016-05-07T08:34:14Z</time>
      </trkpt>
      <trkpt lat="44.26942" lon="5.58405">
        <ele>1172.5999755859</ele>
        <time>2016-05-07T08:34:15Z</time>
      </trkpt>
      <trkpt lat="44.26942" lon="5.58406">
        <ele>1173</ele>
        <time>2016-05-07T08:34:16Z</time>
      </trkpt>
      <trkpt lat="44.26942" lon="5.58407">
        <ele>1173</ele>
        <time>2016-05-07T08:34:17Z</time>
      </trkpt>
      <trkpt lat="44.26945" lon="5.58413">
        <ele>1173.4000244141</ele>
        <time>2016-05-07T08:34:22Z</time>
      </trkpt>
      <trkpt lat="44.26947" lon="5.58414">
        <ele>1174.1999511719</ele>
        <time>2016-05-07T08:34:24Z</time>
      </trkpt>
      <trkpt lat="44.26947" lon="5.58415">
        <ele>1174.5999755859</ele>
        <time>2016-05-07T08:34:25Z</time>
      </trkpt>
      <trkpt lat="44.26949" lon="5.58415">
        <ele>1175</ele>
        <time>2016-05-07T08:34:26Z</time>
      </trkpt>
      <trkpt lat="44.2695" lon="5.58417">
        <ele>1175.4000244141</ele>
        <time>2016-05-07T08:34:29Z</time>
      </trkpt>
      <trkpt lat="44.26951" lon="5.58417">
        <ele>1175.8000488281</ele>
        <time>2016-05-07T08:34:30Z</time>
      </trkpt>
      <trkpt lat="44.26951" lon="5.58418">
        <ele>1176.1999511719</ele>
        <time>2016-05-07T08:34:31Z</time>
      </trkpt>
      <trkpt lat="44.26952" lon="5.58418">
        <ele>1176.5999755859</ele>
        <time>2016-05-07T08:34:32Z</time>
      </trkpt>
      <trkpt lat="44.26952" lon="5.58419">
        <ele>1177</ele>
        <time>2016-05-07T08:34:34Z</time>
      </trkpt>
      <trkpt lat="44.26954" lon="5.58421">
        <ele>1177</ele>
        <time>2016-05-07T08:34:40Z</time>
      </trkpt>
      <trkpt lat="44.2696" lon="5.58422">
        <ele>1177.4000244141</ele>
        <time>2016-05-07T08:35:09Z</time>
      </trkpt>
      <trkpt lat="44.26961" lon="5.58423">
        <ele>1177.8000488281</ele>
        <time>2016-05-07T08:35:10Z</time>
      </trkpt>
      <trkpt lat="44.26962" lon="5.58423">
        <ele>1178.1999511719</ele>
        <time>2016-05-07T08:35:11Z</time>
      </trkpt>
      <trkpt lat="44.26962" lon="5.58423">
        <ele>1178.1999511719</ele>
        <time>2016-05-07T08:35:12Z</time>
      </trkpt>
      <trkpt lat="44.26963" lon="5.58424">
        <ele>1179</ele>
        <time>2016-05-07T08:35:13Z</time>
      </trkpt>
      <trkpt lat="44.26966" lon="5.58426">
        <ele>1179</ele>
        <time>2016-05-07T08:35:20Z</time>
      </trkpt>
      <trkpt lat="44.26968" lon="5.58427">
        <ele>1179.5999755859</ele>
        <time>2016-05-07T08:35:25Z</time>
      </trkpt>
      <trkpt lat="44.2697" lon="5.58427">
        <ele>1180.4000244141</ele>
        <time>2016-05-07T08:35:28Z</time>
      </trkpt>
      <trkpt lat="44.2697" lon="5.58428">
        <ele>1181.1999511719</ele>
        <time>2016-05-07T08:35:30Z</time>
      </trkpt>
      <trkpt lat="44.2697" lon="5.58428">
        <ele>1181.1999511719</ele>
        <time>2016-05-07T08:35:32Z</time>
      </trkpt>
      <trkpt lat="44.26972" lon="5.58431">
        <ele>1181.5999755859</ele>
        <time>2016-05-07T08:35:40Z</time>
      </trkpt>
      <trkpt lat="44.26973" lon="5.58432">
        <ele>1182</ele>
        <time>2016-05-07T08:35:41Z</time>
      </trkpt>
      <trkpt lat="44.26973" lon="5.58432">
        <ele>1182.4000244141</ele>
        <time>2016-05-07T08:35:42Z</time>
      </trkpt>
      <trkpt lat="44.26973" lon="5.58432">
        <ele>1182.8000488281</ele>
        <time>2016-05-07T08:35:44Z</time>
      </trkpt>
      <trkpt lat="44.26974" lon="5.58431">
        <ele>1183.1999511719</ele>
        <time>2016-05-07T08:35:46Z</time>
      </trkpt>
      <trkpt lat="44.26976" lon="5.58433">
        <ele>1183.8000488281</ele>
        <time>2016-05-07T08:35:52Z</time>
      </trkpt>
      <trkpt lat="44.26976" lon="5.58433">
        <ele>1184.1999511719</ele>
        <time>2016-05-07T08:35:53Z</time>
      </trkpt>
      <trkpt lat="44.26977" lon="5.58434">
        <ele>1185.1999511719</ele>
        <time>2016-05-07T08:35:55Z</time>
      </trkpt>
      <trkpt lat="44.26977" lon="5.58434">
        <ele>1185.5999755859</ele>
        <time>2016-05-07T08:35:56Z</time>
      </trkpt>
      <trkpt lat="44.26977" lon="5.58435">
        <ele>1185.5999755859</ele>
        <time>2016-05-07T08:35:57Z</time>
      </trkpt>
      <trkpt lat="44.26979" lon="5.58436">
        <ele>1186</ele>
        <time>2016-05-07T08:36:04Z</time>
      </trkpt>
      <trkpt lat="44.26979" lon="5.58436">
        <ele>1186.5999755859</ele>
        <time>2016-05-07T08:36:05Z</time>
      </trkpt>
      <trkpt lat="44.2698" lon="5.58436">
        <ele>1187</ele>
        <time>2016-05-07T08:36:06Z</time>
      </trkpt>
      <trkpt lat="44.2698" lon="5.58436">
        <ele>1187.4000244141</ele>
        <time>2016-05-07T08:36:07Z</time>
      </trkpt>
      <trkpt lat="44.26981" lon="5.58436">
        <ele>1188</ele>
        <time>2016-05-07T08:36:09Z</time>
      </trkpt>
      <trkpt lat="44.26981" lon="5.58437">
        <ele>1188</ele>
        <time>2016-05-07T08:36:10Z</time>
      </trkpt>
      <trkpt lat="44.26983" lon="5.58439">
        <ele>1188.4000244141</ele>
        <time>2016-05-07T08:36:16Z</time>
      </trkpt>
      <trkpt lat="44.26983" lon="5.5844">
        <ele>1188.8000488281</ele>
        <time>2016-05-07T08:36:17Z</time>
      </trkpt>
      <trkpt lat="44.26983" lon="5.5844">
        <ele>1188.8000488281</ele>
        <time>2016-05-07T08:36:18Z</time>
      </trkpt>
      <trkpt lat="44.26984" lon="5.58441">
        <ele>1189.5999755859</ele>
        <time>2016-05-07T08:36:19Z</time>
      </trkpt>
      <trkpt lat="44.26984" lon="5.58441">
        <ele>1190</ele>
        <time>2016-05-07T08:36:20Z</time>
      </trkpt>
      <trkpt lat="44.26987" lon="5.58443">
        <ele>1190</ele>
        <time>2016-05-07T08:36:27Z</time>
      </trkpt>
      <trkpt lat="44.2699" lon="5.58445">
        <ele>1190.4000244141</ele>
        <time>2016-05-07T08:36:38Z</time>
      </trkpt>
      <trkpt lat="44.26991" lon="5.58445">
        <ele>1191.4000244141</ele>
        <time>2016-05-07T08:36:39Z</time>
      </trkpt>
      <trkpt lat="44.26991" lon="5.58445">
        <ele>1191.8000488281</ele>
        <time>2016-05-07T08:36:40Z</time>
      </trkpt>
      <trkpt lat="44.26991" lon="5.58445">
        <ele>1192.1999511719</ele>
        <time>2016-05-07T08:36:41Z</time>
      </trkpt>
      <trkpt lat="44.26992" lon="5.58446">
        <ele>1192.5999755859</ele>
        <time>2016-05-07T08:36:44Z</time>
      </trkpt>
      <trkpt lat="44.26992" lon="5.58447">
        <ele>1193.1999511719</ele>
        <time>2016-05-07T08:36:45Z</time>
      </trkpt>
      <trkpt lat="44.26992" lon="5.58447">
        <ele>1193.5999755859</ele>
        <time>2016-05-07T08:36:46Z</time>
      </trkpt>
      <trkpt lat="44.26992" lon="5.58448">
        <ele>1193.5999755859</ele>
        <time>2016-05-07T08:36:47Z</time>
      </trkpt>
      <trkpt lat="44.26992" lon="5.58448">
        <ele>1194.4000244141</ele>
        <time>2016-05-07T08:36:48Z</time>
      </trkpt>
      <trkpt lat="44.26994" lon="5.58451">
        <ele>1194.4000244141</ele>
        <time>2016-05-07T08:36:54Z</time>
      </trkpt>
      <trkpt lat="44.26995" lon="5.58451">
        <ele>1194.8000488281</ele>
        <time>2016-05-07T08:36:56Z</time>
      </trkpt>
      <trkpt lat="44.26995" lon="5.58452">
        <ele>1195.8000488281</ele>
        <time>2016-05-07T08:36:58Z</time>
      </trkpt>
      <trkpt lat="44.26996" lon="5.58453">
        <ele>1196.1999511719</ele>
        <time>2016-05-07T08:36:59Z</time>
      </trkpt>
      <trkpt lat="44.26996" lon="5.58454">
        <ele>1196.5999755859</ele>
        <time>2016-05-07T08:37:00Z</time>
      </trkpt>
      <trkpt lat="44.26997" lon="5.58456">
        <ele>1197</ele>
        <time>2016-05-07T08:37:05Z</time>
      </trkpt>
      <trkpt lat="44.26998" lon="5.58458">
        <ele>1197.4000244141</ele>
        <time>2016-05-07T08:37:07Z</time>
      </trkpt>
      <trkpt lat="44.26998" lon="5.58458">
        <ele>1198.4000244141</ele>
        <time>2016-05-07T08:37:08Z</time>
      </trkpt>
      <trkpt lat="44.26998" lon="5.58459">
        <ele>1198.8000488281</ele>
        <time>2016-05-07T08:37:09Z</time>
      </trkpt>
      <trkpt lat="44.27001" lon="5.5846">
        <ele>1199.1999511719</ele>
        <time>2016-05-07T08:37:15Z</time>
      </trkpt>
      <trkpt lat="44.27001" lon="5.58461">
        <ele>1199.5999755859</ele>
        <time>2016-05-07T08:37:16Z</time>
      </trkpt>
      <trkpt lat="44.27001" lon="5.58461">
        <ele>1199.5999755859</ele>
        <time>2016-05-07T08:37:17Z</time>
      </trkpt>
      <trkpt lat="44.27002" lon="5.58461">
        <ele>1200.4000244141</ele>
        <time>2016-05-07T08:37:18Z</time>
      </trkpt>
      <trkpt lat="44.27002" lon="5.58462">
        <ele>1200.8000488281</ele>
        <time>2016-05-07T08:37:19Z</time>
      </trkpt>
      <trkpt lat="44.27003" lon="5.58463">
        <ele>1201.1999511719</ele>
        <time>2016-05-07T08:37:26Z</time>
      </trkpt>
      <trkpt lat="44.27003" lon="5.58463">
        <ele>1201.5999755859</ele>
        <time>2016-05-07T08:37:27Z</time>
      </trkpt>
      <trkpt lat="44.27004" lon="5.58464">
        <ele>1202.5999755859</ele>
        <time>2016-05-07T08:37:29Z</time>
      </trkpt>
      <trkpt lat="44.27004" lon="5.58465">
        <ele>1203</ele>
        <time>2016-05-07T08:37:30Z</time>
      </trkpt>
      <trkpt lat="44.27005" lon="5.58466">
        <ele>1203</ele>
        <time>2016-05-07T08:37:33Z</time>
      </trkpt>
      <trkpt lat="44.27007" lon="5.58467">
        <ele>1203.4000244141</ele>
        <time>2016-05-07T08:37:37Z</time>
      </trkpt>
      <trkpt lat="44.27008" lon="5.58467">
        <ele>1203.8000488281</ele>
        <time>2016-05-07T08:37:39Z</time>
      </trkpt>
      <trkpt lat="44.27008" lon="5.58468">
        <ele>1204.1999511719</ele>
        <time>2016-05-07T08:37:40Z</time>
      </trkpt>
      <trkpt lat="44.27009" lon="5.58468">
        <ele>1205.1999511719</ele>
        <time>2016-05-07T08:37:42Z</time>
      </trkpt>
      <trkpt lat="44.27009" lon="5.58469">
        <ele>1205.1999511719</ele>
        <time>2016-05-07T08:37:43Z</time>
      </trkpt>
      <trkpt lat="44.2701" lon="5.5847">
        <ele>1205.5999755859</ele>
        <time>2016-05-07T08:37:47Z</time>
      </trkpt>
      <trkpt lat="44.2701" lon="5.58471">
        <ele>1206</ele>
        <time>2016-05-07T08:37:49Z</time>
      </trkpt>
      <trkpt lat="44.2701" lon="5.58472">
        <ele>1206.4000244141</ele>
        <time>2016-05-07T08:37:52Z</time>
      </trkpt>
      <trkpt lat="44.27011" lon="5.58473">
        <ele>1206.8000488281</ele>
        <time>2016-05-07T08:37:54Z</time>
      </trkpt>
      <trkpt lat="44.27012" lon="5.58474">
        <ele>1207.1999511719</ele>
        <time>2016-05-07T08:37:56Z</time>
      </trkpt>
      <trkpt lat="44.27014" lon="5.58476">
        <ele>1207.5999755859</ele>
        <time>2016-05-07T08:38:03Z</time>
      </trkpt>
      <trkpt lat="44.27014" lon="5.58476">
        <ele>1208</ele>
        <time>2016-05-07T08:38:04Z</time>
      </trkpt>
      <trkpt lat="44.27015" lon="5.58477">
        <ele>1209</ele>
        <time>2016-05-07T08:38:06Z</time>
      </trkpt>
      <trkpt lat="44.27015" lon="5.58476">
        <ele>1209</ele>
        <time>2016-05-07T08:38:07Z</time>
      </trkpt>
      <trkpt lat="44.27015" lon="5.58476">
        <ele>1209.4000244141</ele>
        <time>2016-05-07T08:38:08Z</time>
      </trkpt>
      <trkpt lat="44.27017" lon="5.58479">
        <ele>1209.4000244141</ele>
        <time>2016-05-07T08:38:17Z</time>
      </trkpt>
      <trkpt lat="44.27024" lon="5.58477">
        <ele>1209.4000244141</ele>
        <time>2016-05-07T08:38:59Z</time>
      </trkpt>
      <trkpt lat="44.27037" lon="5.58473">
        <ele>1209.4000244141</ele>
        <time>2016-05-07T08:39:04Z</time>
      </trkpt>
      <trkpt lat="44.27052" lon="5.58468">
        <ele>1209.4000244141</ele>
        <time>2016-05-07T08:39:08Z</time>
      </trkpt>
      <trkpt lat="44.27057" lon="5.58462">
        <ele>1209.4000244141</ele>
        <time>2016-05-07T08:39:11Z</time>
      </trkpt>
      <trkpt lat="44.27065" lon="5.58452">
        <ele>1209.4000244141</ele>
        <time>2016-05-07T08:39:16Z</time>
      </trkpt>
      <trkpt lat="44.27073" lon="5.58445">
        <ele>1209</ele>
        <time>2016-05-07T08:39:19Z</time>
      </trkpt>
      <trkpt lat="44.27076" lon="5.58443">
        <ele>1208.5999755859</ele>
        <time>2016-05-07T08:39:20Z</time>
      </trkpt>
      <trkpt lat="44.27079" lon="5.5844">
        <ele>1208.1999511719</ele>
        <time>2016-05-07T08:39:21Z</time>
      </trkpt>
      <trkpt lat="44.2708" lon="5.58436">
        <ele>1207.8000488281</ele>
        <time>2016-05-07T08:39:22Z</time>
      </trkpt>
      <trkpt lat="44.27084" lon="5.58428">
        <ele>1207.4000244141</ele>
        <time>2016-05-07T08:39:24Z</time>
      </trkpt>
      <trkpt lat="44.27085" lon="5.58424">
        <ele>1207.4000244141</ele>
        <time>2016-05-07T08:39:25Z</time>
      </trkpt>
      <trkpt lat="44.27086" lon="5.58419">
        <ele>1207.4000244141</ele>
        <time>2016-05-07T08:39:26Z</time>
      </trkpt>
      <trkpt lat="44.27088" lon="5.58404">
        <ele>1207.4000244141</ele>
        <time>2016-05-07T08:39:30Z</time>
      </trkpt>
      <trkpt lat="44.27089" lon="5.58394">
        <ele>1207.4000244141</ele>
        <time>2016-05-07T08:39:32Z</time>
      </trkpt>
      <trkpt lat="44.27098" lon="5.58371">
        <ele>1207.4000244141</ele>
        <time>2016-05-07T08:39:38Z</time>
      </trkpt>
      <trkpt lat="44.27102" lon="5.58351">
        <ele>1207.4000244141</ele>
        <time>2016-05-07T08:39:44Z</time>
      </trkpt>
      <trkpt lat="44.27106" lon="5.5833">
        <ele>1207.4000244141</ele>
        <time>2016-05-07T08:39:51Z</time>
      </trkpt>
      <trkpt lat="44.2711" lon="5.58313">
        <ele>1207.8000488281</ele>
        <time>2016-05-07T08:39:57Z</time>
      </trkpt>
      <trkpt lat="44.27111" lon="5.5831">
        <ele>1208.1999511719</ele>
        <time>2016-05-07T08:39:58Z</time>
      </trkpt>
      <trkpt lat="44.27111" lon="5.58308">
        <ele>1208.1999511719</ele>
        <time>2016-05-07T08:39:59Z</time>
      </trkpt>
      <trkpt lat="44.27111" lon="5.58306">
        <ele>1209</ele>
        <time>2016-05-07T08:40:00Z</time>
      </trkpt>
      <trkpt lat="44.27112" lon="5.583">
        <ele>1209.4000244141</ele>
        <time>2016-05-07T08:40:02Z</time>
      </trkpt>
      <trkpt lat="44.27114" lon="5.58291">
        <ele>1209.4000244141</ele>
        <time>2016-05-07T08:40:06Z</time>
      </trkpt>
      <trkpt lat="44.27114" lon="5.58273">
        <ele>1209.8000488281</ele>
        <time>2016-05-07T08:40:14Z</time>
      </trkpt>
      <trkpt lat="44.27114" lon="5.58271">
        <ele>1209.8000488281</ele>
        <time>2016-05-07T08:40:15Z</time>
      </trkpt>
      <trkpt lat="44.27114" lon="5.58269">
        <ele>1210.4000244141</ele>
        <time>2016-05-07T08:40:16Z</time>
      </trkpt>
      <trkpt lat="44.27113" lon="5.58265">
        <ele>1211</ele>
        <time>2016-05-07T08:40:18Z</time>
      </trkpt>
      <trkpt lat="44.27113" lon="5.58264">
        <ele>1211.4000244141</ele>
        <time>2016-05-07T08:40:19Z</time>
      </trkpt>
      <trkpt lat="44.27113" lon="5.58264">
        <ele>1212</ele>
        <time>2016-05-07T08:40:20Z</time>
      </trkpt>
      <trkpt lat="44.27113" lon="5.58264">
        <ele>1212</ele>
        <time>2016-05-07T08:40:21Z</time>
      </trkpt>
      <trkpt lat="44.27114" lon="5.5825">
        <ele>1212</ele>
        <time>2016-05-07T08:40:53Z</time>
      </trkpt>
      <trkpt lat="44.27118" lon="5.58237">
        <ele>1212.4000244141</ele>
        <time>2016-05-07T08:40:57Z</time>
      </trkpt>
      <trkpt lat="44.27118" lon="5.58236">
        <ele>1212.4000244141</ele>
        <time>2016-05-07T08:40:58Z</time>
      </trkpt>
      <trkpt lat="44.27119" lon="5.58234">
        <ele>1213</ele>
        <time>2016-05-07T08:40:59Z</time>
      </trkpt>
      <trkpt lat="44.2712" lon="5.5823">
        <ele>1213.8000488281</ele>
        <time>2016-05-07T08:41:02Z</time>
      </trkpt>
      <trkpt lat="44.27121" lon="5.58229">
        <ele>1214.1999511719</ele>
        <time>2016-05-07T08:41:04Z</time>
      </trkpt>
      <trkpt lat="44.27121" lon="5.58229">
        <ele>1214.1999511719</ele>
        <time>2016-05-07T08:41:05Z</time>
      </trkpt>
      <trkpt lat="44.27123" lon="5.58222">
        <ele>1214.1999511719</ele>
        <time>2016-05-07T08:41:14Z</time>
      </trkpt>
      <trkpt lat="44.27126" lon="5.58213">
        <ele>1214.5999755859</ele>
        <time>2016-05-07T08:41:19Z</time>
      </trkpt>
      <trkpt lat="44.27126" lon="5.58209">
        <ele>1215</ele>
        <time>2016-05-07T08:41:21Z</time>
      </trkpt>
      <trkpt lat="44.27127" lon="5.58208">
        <ele>1215</ele>
        <time>2016-05-07T08:41:22Z</time>
      </trkpt>
      <trkpt lat="44.27127" lon="5.58206">
        <ele>1215.4000244141</ele>
        <time>2016-05-07T08:41:23Z</time>
      </trkpt>
      <trkpt lat="44.27127" lon="5.58203">
        <ele>1216.4000244141</ele>
        <time>2016-05-07T08:41:26Z</time>
      </trkpt>
      <trkpt lat="44.27128" lon="5.58202">
        <ele>1216.4000244141</ele>
        <time>2016-05-07T08:41:29Z</time>
      </trkpt>
      <trkpt lat="44.27133" lon="5.58194">
        <ele>1216.4000244141</ele>
        <time>2016-05-07T08:41:38Z</time>
      </trkpt>
      <trkpt lat="44.27134" lon="5.58184">
        <ele>1216.4000244141</ele>
        <time>2016-05-07T08:41:44Z</time>
      </trkpt>
      <trkpt lat="44.27135" lon="5.58182">
        <ele>1216.8000488281</ele>
        <time>2016-05-07T08:41:45Z</time>
      </trkpt>
      <trkpt lat="44.27135" lon="5.5818">
        <ele>1217.1999511719</ele>
        <time>2016-05-07T08:41:47Z</time>
      </trkpt>
      <trkpt lat="44.27134" lon="5.58177">
        <ele>1218</ele>
        <time>2016-05-07T08:41:50Z</time>
      </trkpt>
      <trkpt lat="44.27134" lon="5.58176">
        <ele>1218</ele>
        <time>2016-05-07T08:41:51Z</time>
      </trkpt>
      <trkpt lat="44.27134" lon="5.58176">
        <ele>1218.4000244141</ele>
        <time>2016-05-07T08:41:52Z</time>
      </trkpt>
      <trkpt lat="44.27136" lon="5.58171">
        <ele>1218.4000244141</ele>
        <time>2016-05-07T08:42:00Z</time>
      </trkpt>
      <trkpt lat="44.27136" lon="5.58169">
        <ele>1219</ele>
        <time>2016-05-07T08:42:02Z</time>
      </trkpt>
      <trkpt lat="44.27137" lon="5.58165">
        <ele>1219.8000488281</ele>
        <time>2016-05-07T08:42:04Z</time>
      </trkpt>
      <trkpt lat="44.27138" lon="5.58162">
        <ele>1220.1999511719</ele>
        <time>2016-05-07T08:42:07Z</time>
      </trkpt>
      <trkpt lat="44.27139" lon="5.5816">
        <ele>1220.5999755859</ele>
        <time>2016-05-07T08:42:09Z</time>
      </trkpt>
      <trkpt lat="44.2714" lon="5.58154">
        <ele>1221</ele>
        <time>2016-05-07T08:42:14Z</time>
      </trkpt>
      <trkpt lat="44.2714" lon="5.58151">
        <ele>1222</ele>
        <time>2016-05-07T08:42:16Z</time>
      </trkpt>
      <trkpt lat="44.27142" lon="5.58147">
        <ele>1222.4000244141</ele>
        <time>2016-05-07T08:42:19Z</time>
      </trkpt>
      <trkpt lat="44.27142" lon="5.58146">
        <ele>1222.4000244141</ele>
        <time>2016-05-07T08:42:20Z</time>
      </trkpt>
      <trkpt lat="44.27143" lon="5.58144">
        <ele>1222.8000488281</ele>
        <time>2016-05-07T08:42:21Z</time>
      </trkpt>
      <trkpt lat="44.2715" lon="5.58132">
        <ele>1222.8000488281</ele>
        <time>2016-05-07T08:42:35Z</time>
      </trkpt>
      <trkpt lat="44.27151" lon="5.58128">
        <ele>1222.8000488281</ele>
        <time>2016-05-07T08:42:46Z</time>
      </trkpt>
      <trkpt lat="44.27155" lon="5.58125">
        <ele>1223.5999755859</ele>
        <time>2016-05-07T08:42:54Z</time>
      </trkpt>
      <trkpt lat="44.27155" lon="5.58124">
        <ele>1224.4000244141</ele>
        <time>2016-05-07T08:42:56Z</time>
      </trkpt>
      <trkpt lat="44.27155" lon="5.58123">
        <ele>1224.8000488281</ele>
        <time>2016-05-07T08:42:58Z</time>
      </trkpt>
      <trkpt lat="44.27155" lon="5.58124">
        <ele>1224.8000488281</ele>
        <time>2016-05-07T08:43:08Z</time>
      </trkpt>
      <trkpt lat="44.27151" lon="5.58118">
        <ele>1224.8000488281</ele>
        <time>2016-05-07T08:43:22Z</time>
      </trkpt>
      <trkpt lat="44.2715" lon="5.58116">
        <ele>1224.8000488281</ele>
        <time>2016-05-07T08:43:30Z</time>
      </trkpt>
      <trkpt lat="44.27151" lon="5.58109">
        <ele>1224.8000488281</ele>
        <time>2016-05-07T08:43:38Z</time>
      </trkpt>
      <trkpt lat="44.27153" lon="5.58098">
        <ele>1225.4000244141</ele>
        <time>2016-05-07T08:43:48Z</time>
      </trkpt>
      <trkpt lat="44.27153" lon="5.58094">
        <ele>1225.8000488281</ele>
        <time>2016-05-07T08:43:51Z</time>
      </trkpt>
      <trkpt lat="44.27153" lon="5.58092">
        <ele>1226.5999755859</ele>
        <time>2016-05-07T08:43:53Z</time>
      </trkpt>
      <trkpt lat="44.27153" lon="5.58088">
        <ele>1227.1999511719</ele>
        <time>2016-05-07T08:43:56Z</time>
      </trkpt>
      <trkpt lat="44.27153" lon="5.58085">
        <ele>1227.5999755859</ele>
        <time>2016-05-07T08:43:58Z</time>
      </trkpt>
      <trkpt lat="44.27153" lon="5.58083">
        <ele>1228.4000244141</ele>
        <time>2016-05-07T08:44:00Z</time>
      </trkpt>
      <trkpt lat="44.27153" lon="5.5808">
        <ele>1229.1999511719</ele>
        <time>2016-05-07T08:44:03Z</time>
      </trkpt>
      <trkpt lat="44.27152" lon="5.58074">
        <ele>1229.1999511719</ele>
        <time>2016-05-07T08:44:08Z</time>
      </trkpt>
      <trkpt lat="44.27152" lon="5.58071">
        <ele>1230.1999511719</ele>
        <time>2016-05-07T08:44:10Z</time>
      </trkpt>
      <trkpt lat="44.27153" lon="5.58069">
        <ele>1231</ele>
        <time>2016-05-07T08:44:12Z</time>
      </trkpt>
      <trkpt lat="44.27153" lon="5.58066">
        <ele>1231.4000244141</ele>
        <time>2016-05-07T08:44:14Z</time>
      </trkpt>
      <trkpt lat="44.27154" lon="5.58063">
        <ele>1231.4000244141</ele>
        <time>2016-05-07T08:44:17Z</time>
      </trkpt>
      <trkpt lat="44.27155" lon="5.58054">
        <ele>1231.4000244141</ele>
        <time>2016-05-07T08:44:25Z</time>
      </trkpt>
      <trkpt lat="44.27156" lon="5.58048">
        <ele>1231.4000244141</ele>
        <time>2016-05-07T08:44:28Z</time>
      </trkpt>
      <trkpt lat="44.27159" lon="5.58037">
        <ele>1231.4000244141</ele>
        <time>2016-05-07T08:44:32Z</time>
      </trkpt>
      <trkpt lat="44.2716" lon="5.58033">
        <ele>1231.8000488281</ele>
        <time>2016-05-07T08:44:33Z</time>
      </trkpt>
      <trkpt lat="44.27162" lon="5.58023">
        <ele>1232.1999511719</ele>
        <time>2016-05-07T08:44:36Z</time>
      </trkpt>
      <trkpt lat="44.27163" lon="5.58015">
        <ele>1233</ele>
        <time>2016-05-07T08:44:38Z</time>
      </trkpt>
      <trkpt lat="44.27167" lon="5.58004">
        <ele>1233.4000244141</ele>
        <time>2016-05-07T08:44:41Z</time>
      </trkpt>
      <trkpt lat="44.27168" lon="5.57989">
        <ele>1233.4000244141</ele>
        <time>2016-05-07T08:44:46Z</time>
      </trkpt>
      <trkpt lat="44.27166" lon="5.57984">
        <ele>1233.4000244141</ele>
        <time>2016-05-07T08:44:47Z</time>
      </trkpt>
      <trkpt lat="44.27155" lon="5.57972">
        <ele>1233.4000244141</ele>
        <time>2016-05-07T08:44:50Z</time>
      </trkpt>
      <trkpt lat="44.27151" lon="5.57967">
        <ele>1233</ele>
        <time>2016-05-07T08:44:51Z</time>
      </trkpt>
      <trkpt lat="44.27142" lon="5.57956">
        <ele>1231.4000244141</ele>
        <time>2016-05-07T08:44:53Z</time>
      </trkpt>
      <trkpt lat="44.27132" lon="5.57941">
        <ele>1229.1999511719</ele>
        <time>2016-05-07T08:44:55Z</time>
      </trkpt>
      <trkpt lat="44.27115" lon="5.57919">
        <ele>1228</ele>
        <time>2016-05-07T08:44:58Z</time>
      </trkpt>
      <trkpt lat="44.27106" lon="5.57906">
        <ele>1225.5999755859</ele>
        <time>2016-05-07T08:45:00Z</time>
      </trkpt>
      <trkpt lat="44.27102" lon="5.57901">
        <ele>1225.5999755859</ele>
        <time>2016-05-07T08:45:01Z</time>
      </trkpt>
      <trkpt lat="44.271" lon="5.57898">
        <ele>1223</ele>
        <time>2016-05-07T08:45:02Z</time>
      </trkpt>
      <trkpt lat="44.27094" lon="5.57892">
        <ele>1221.5999755859</ele>
        <time>2016-05-07T08:45:05Z</time>
      </trkpt>
      <trkpt lat="44.27081" lon="5.57885">
        <ele>1221.5999755859</ele>
        <time>2016-05-07T08:45:11Z</time>
      </trkpt>
      <trkpt lat="44.27079" lon="5.57884">
        <ele>1221</ele>
        <time>2016-05-07T08:45:12Z</time>
      </trkpt>
      <trkpt lat="44.27073" lon="5.57882">
        <ele>1219.8000488281</ele>
        <time>2016-05-07T08:45:14Z</time>
      </trkpt>
      <trkpt lat="44.27061" lon="5.57879">
        <ele>1219</ele>
        <time>2016-05-07T08:45:17Z</time>
      </trkpt>
      <trkpt lat="44.27055" lon="5.57879">
        <ele>1217</ele>
        <time>2016-05-07T08:45:19Z</time>
      </trkpt>
      <trkpt lat="44.27045" lon="5.57881">
        <ele>1216</ele>
        <time>2016-05-07T08:45:22Z</time>
      </trkpt>
      <trkpt lat="44.2704" lon="5.57882">
        <ele>1214.1999511719</ele>
        <time>2016-05-07T08:45:24Z</time>
      </trkpt>
      <trkpt lat="44.27021" lon="5.57882">
        <ele>1214.1999511719</ele>
        <time>2016-05-07T08:45:32Z</time>
      </trkpt>
      <trkpt lat="44.27007" lon="5.57879">
        <ele>1214.1999511719</ele>
        <time>2016-05-07T08:45:36Z</time>
      </trkpt>
      <trkpt lat="44.27002" lon="5.57878">
        <ele>1214.1999511719</ele>
        <time>2016-05-07T08:45:37Z</time>
      </trkpt>
      <trkpt lat="44.26987" lon="5.57871">
        <ele>1214.1999511719</ele>
        <time>2016-05-07T08:45:42Z</time>
      </trkpt>
      <trkpt lat="44.26973" lon="5.57872">
        <ele>1214.1999511719</ele>
        <time>2016-05-07T08:45:48Z</time>
      </trkpt>
      <trkpt lat="44.2695" lon="5.57865">
        <ele>1214.1999511719</ele>
        <time>2016-05-07T08:45:57Z</time>
      </trkpt>
      <trkpt lat="44.26931" lon="5.57858">
        <ele>1214.1999511719</ele>
        <time>2016-05-07T08:46:01Z</time>
      </trkpt>
      <trkpt lat="44.26913" lon="5.5786">
        <ele>1213.5999755859</ele>
        <time>2016-05-07T08:46:05Z</time>
      </trkpt>
      <trkpt lat="44.26909" lon="5.57861">
        <ele>1213.5999755859</ele>
        <time>2016-05-07T08:46:06Z</time>
      </trkpt>
      <trkpt lat="44.26906" lon="5.57863">
        <ele>1213.1999511719</ele>
        <time>2016-05-07T08:46:07Z</time>
      </trkpt>
      <trkpt lat="44.26903" lon="5.57866">
        <ele>1212.8000488281</ele>
        <time>2016-05-07T08:46:08Z</time>
      </trkpt>
      <trkpt lat="44.26895" lon="5.57873">
        <ele>1212.4000244141</ele>
        <time>2016-05-07T08:46:10Z</time>
      </trkpt>
      <trkpt lat="44.26889" lon="5.57875">
        <ele>1212.4000244141</ele>
        <time>2016-05-07T08:46:11Z</time>
      </trkpt>
      <trkpt lat="44.26884" lon="5.57874">
        <ele>1211.8000488281</ele>
        <time>2016-05-07T08:46:12Z</time>
      </trkpt>
      <trkpt lat="44.26878" lon="5.57873">
        <ele>1211.4000244141</ele>
        <time>2016-05-07T08:46:13Z</time>
      </trkpt>
      <trkpt lat="44.26867" lon="5.5787">
        <ele>1209.8000488281</ele>
        <time>2016-05-07T08:46:15Z</time>
      </trkpt>
      <trkpt lat="44.26856" lon="5.57871">
        <ele>1209</ele>
        <time>2016-05-07T08:46:17Z</time>
      </trkpt>
      <trkpt lat="44.26852" lon="5.57873">
        <ele>1208.1999511719</ele>
        <time>2016-05-07T08:46:18Z</time>
      </trkpt>
      <trkpt lat="44.26848" lon="5.57874">
        <ele>1207.5999755859</ele>
        <time>2016-05-07T08:46:19Z</time>
      </trkpt>
      <trkpt lat="44.2683" lon="5.57879">
        <ele>1207.5999755859</ele>
        <time>2016-05-07T08:46:24Z</time>
      </trkpt>
      <trkpt lat="44.26808" lon="5.57881">
        <ele>1207</ele>
        <time>2016-05-07T08:46:29Z</time>
      </trkpt>
      <trkpt lat="44.26804" lon="5.57879">
        <ele>1206.5999755859</ele>
        <time>2016-05-07T08:46:30Z</time>
      </trkpt>
      <trkpt lat="44.26795" lon="5.57875">
        <ele>1206.1999511719</ele>
        <time>2016-05-07T08:46:32Z</time>
      </trkpt>
      <trkpt lat="44.26787" lon="5.57873">
        <ele>1205.8000488281</ele>
        <time>2016-05-07T08:46:34Z</time>
      </trkpt>
      <trkpt lat="44.26784" lon="5.57873">
        <ele>1205.1999511719</ele>
        <time>2016-05-07T08:46:35Z</time>
      </trkpt>
      <trkpt lat="44.26759" lon="5.57873">
        <ele>1205.1999511719</ele>
        <time>2016-05-07T08:46:42Z</time>
      </trkpt>
      <trkpt lat="44.26738" lon="5.57858">
        <ele>1204.8000488281</ele>
        <time>2016-05-07T08:46:46Z</time>
      </trkpt>
      <trkpt lat="44.26734" lon="5.57855">
        <ele>1204.1999511719</ele>
        <time>2016-05-07T08:46:47Z</time>
      </trkpt>
      <trkpt lat="44.26726" lon="5.57849">
        <ele>1203</ele>
        <time>2016-05-07T08:46:49Z</time>
      </trkpt>
      <trkpt lat="44.26719" lon="5.57848">
        <ele>1202.5999755859</ele>
        <time>2016-05-07T08:46:51Z</time>
      </trkpt>
      <trkpt lat="44.26696" lon="5.57841">
        <ele>1202.5999755859</ele>
        <time>2016-05-07T08:46:57Z</time>
      </trkpt>
      <trkpt lat="44.26685" lon="5.57838">
        <ele>1203</ele>
        <time>2016-05-07T08:47:01Z</time>
      </trkpt>
      <trkpt lat="44.26679" lon="5.57835">
        <ele>1203.5999755859</ele>
        <time>2016-05-07T08:47:03Z</time>
      </trkpt>
      <trkpt lat="44.26677" lon="5.57833">
        <ele>1203.5999755859</ele>
        <time>2016-05-07T08:47:04Z</time>
      </trkpt>
      <trkpt lat="44.26672" lon="5.57828">
        <ele>1204</ele>
        <time>2016-05-07T08:47:06Z</time>
      </trkpt>
      <trkpt lat="44.26666" lon="5.57823">
        <ele>1204.4000244141</ele>
        <time>2016-05-07T08:47:08Z</time>
      </trkpt>
      <trkpt lat="44.26664" lon="5.57821">
        <ele>1205</ele>
        <time>2016-05-07T08:47:09Z</time>
      </trkpt>
      <trkpt lat="44.26659" lon="5.57819">
        <ele>1205</ele>
        <time>2016-05-07T08:47:11Z</time>
      </trkpt>
      <trkpt lat="44.26652" lon="5.57814">
        <ele>1205.8000488281</ele>
        <time>2016-05-07T08:47:14Z</time>
      </trkpt>
      <trkpt lat="44.26648" lon="5.57812">
        <ele>1206.1999511719</ele>
        <time>2016-05-07T08:47:16Z</time>
      </trkpt>
      <trkpt lat="44.26643" lon="5.5781">
        <ele>1206.5999755859</ele>
        <time>2016-05-07T08:47:18Z</time>
      </trkpt>
      <trkpt lat="44.26641" lon="5.57809">
        <ele>1207</ele>
        <time>2016-05-07T08:47:19Z</time>
      </trkpt>
      <trkpt lat="44.26624" lon="5.57806">
        <ele>1207</ele>
        <time>2016-05-07T08:47:25Z</time>
      </trkpt>
      <trkpt lat="44.26605" lon="5.57797">
        <ele>1207</ele>
        <time>2016-05-07T08:47:31Z</time>
      </trkpt>
      <trkpt lat="44.26599" lon="5.578">
        <ele>1207</ele>
        <time>2016-05-07T08:47:36Z</time>
      </trkpt>
      <trkpt lat="44.26598" lon="5.57809">
        <ele>1207</ele>
        <time>2016-05-07T08:47:42Z</time>
      </trkpt>
      <trkpt lat="44.26598" lon="5.57813">
        <ele>1207</ele>
        <time>2016-05-07T08:47:44Z</time>
      </trkpt>
      <trkpt lat="44.26597" lon="5.57819">
        <ele>1207</ele>
        <time>2016-05-07T08:47:49Z</time>
      </trkpt>
      <trkpt lat="44.26594" lon="5.57831">
        <ele>1207</ele>
        <time>2016-05-07T08:47:53Z</time>
      </trkpt>
      <trkpt lat="44.26594" lon="5.57833">
        <ele>1207</ele>
        <time>2016-05-07T08:47:54Z</time>
      </trkpt>
      <trkpt lat="44.26584" lon="5.57848">
        <ele>1207.4000244141</ele>
        <time>2016-05-07T08:48:01Z</time>
      </trkpt>
      <trkpt lat="44.26581" lon="5.5785">
        <ele>1208</ele>
        <time>2016-05-07T08:48:03Z</time>
      </trkpt>
      <trkpt lat="44.2658" lon="5.5785">
        <ele>1208.4000244141</ele>
        <time>2016-05-07T08:48:04Z</time>
      </trkpt>
      <trkpt lat="44.26576" lon="5.57849">
        <ele>1209.1999511719</ele>
        <time>2016-05-07T08:48:06Z</time>
      </trkpt>
      <trkpt lat="44.26568" lon="5.57848">
        <ele>1209.1999511719</ele>
        <time>2016-05-07T08:48:10Z</time>
      </trkpt>
      <trkpt lat="44.26566" lon="5.57847">
        <ele>1209.5999755859</ele>
        <time>2016-05-07T08:48:11Z</time>
      </trkpt>
      <trkpt lat="44.26562" lon="5.57846">
        <ele>1210.4000244141</ele>
        <time>2016-05-07T08:48:13Z</time>
      </trkpt>
      <trkpt lat="44.26559" lon="5.57844">
        <ele>1210.8000488281</ele>
        <time>2016-05-07T08:48:15Z</time>
      </trkpt>
      <trkpt lat="44.26558" lon="5.57843">
        <ele>1211.1999511719</ele>
        <time>2016-05-07T08:48:16Z</time>
      </trkpt>
      <trkpt lat="44.26556" lon="5.57842">
        <ele>1211.1999511719</ele>
        <time>2016-05-07T08:48:18Z</time>
      </trkpt>
      <trkpt lat="44.26552" lon="5.57838">
        <ele>1211.1999511719</ele>
        <time>2016-05-07T08:48:22Z</time>
      </trkpt>
      <trkpt lat="44.26548" lon="5.57833">
        <ele>1212</ele>
        <time>2016-05-07T08:48:25Z</time>
      </trkpt>
      <trkpt lat="44.26546" lon="5.5783">
        <ele>1212.4000244141</ele>
        <time>2016-05-07T08:48:27Z</time>
      </trkpt>
      <trkpt lat="44.26544" lon="5.57827">
        <ele>1212.8000488281</ele>
        <time>2016-05-07T08:48:29Z</time>
      </trkpt>
      <trkpt lat="44.26543" lon="5.57826">
        <ele>1213.4000244141</ele>
        <time>2016-05-07T08:48:30Z</time>
      </trkpt>
      <trkpt lat="44.26537" lon="5.57829">
        <ele>1213.4000244141</ele>
        <time>2016-05-07T08:48:33Z</time>
      </trkpt>
      <trkpt lat="44.26526" lon="5.57841">
        <ele>1212.4000244141</ele>
        <time>2016-05-07T08:48:37Z</time>
      </trkpt>
      <trkpt lat="44.26523" lon="5.57842">
        <ele>1212.4000244141</ele>
        <time>2016-05-07T08:48:38Z</time>
      </trkpt>
      <trkpt lat="44.26521" lon="5.57841">
        <ele>1212</ele>
        <time>2016-05-07T08:48:39Z</time>
      </trkpt>
      <trkpt lat="44.26518" lon="5.5784">
        <ele>1211.5999755859</ele>
        <time>2016-05-07T08:48:40Z</time>
      </trkpt>
      <trkpt lat="44.26514" lon="5.57839">
        <ele>1210.4000244141</ele>
        <time>2016-05-07T08:48:42Z</time>
      </trkpt>
      <trkpt lat="44.26514" lon="5.5784">
        <ele>1210.4000244141</ele>
        <time>2016-05-07T08:48:43Z</time>
      </trkpt>
      <trkpt lat="44.26514" lon="5.57841">
        <ele>1210</ele>
        <time>2016-05-07T08:48:44Z</time>
      </trkpt>
      <trkpt lat="44.26514" lon="5.57841">
        <ele>1209.4000244141</ele>
        <time>2016-05-07T08:48:46Z</time>
      </trkpt>
      <trkpt lat="44.26513" lon="5.57842">
        <ele>1208.8000488281</ele>
        <time>2016-05-07T08:48:47Z</time>
      </trkpt>
      <trkpt lat="44.26513" lon="5.57842">
        <ele>1208.8000488281</ele>
        <time>2016-05-07T08:48:48Z</time>
      </trkpt>
      <trkpt lat="44.26509" lon="5.57846">
        <ele>1208.8000488281</ele>
        <time>2016-05-07T08:49:02Z</time>
      </trkpt>
      <trkpt lat="44.26498" lon="5.5786">
        <ele>1208.8000488281</ele>
        <time>2016-05-07T08:49:13Z</time>
      </trkpt>
      <trkpt lat="44.26491" lon="5.57866">
        <ele>1208.8000488281</ele>
        <time>2016-05-07T08:49:17Z</time>
      </trkpt>
      <trkpt lat="44.26487" lon="5.57868">
        <ele>1208.8000488281</ele>
        <time>2016-05-07T08:49:19Z</time>
      </trkpt>
      <trkpt lat="44.26485" lon="5.57869">
        <ele>1209.8000488281</ele>
        <time>2016-05-07T08:49:20Z</time>
      </trkpt>
      <trkpt lat="44.26484" lon="5.57869">
        <ele>1209.8000488281</ele>
        <time>2016-05-07T08:49:21Z</time>
      </trkpt>
      <trkpt lat="44.26483" lon="5.57869">
        <ele>1210.1999511719</ele>
        <time>2016-05-07T08:49:22Z</time>
      </trkpt>
      <trkpt lat="44.2648" lon="5.5787">
        <ele>1210.1999511719</ele>
        <time>2016-05-07T08:49:24Z</time>
      </trkpt>
      <trkpt lat="44.26479" lon="5.57871">
        <ele>1211</ele>
        <time>2016-05-07T08:49:25Z</time>
      </trkpt>
      <trkpt lat="44.26468" lon="5.57872">
        <ele>1211</ele>
        <time>2016-05-07T08:49:30Z</time>
      </trkpt>
      <trkpt lat="44.26453" lon="5.57881">
        <ele>1211</ele>
        <time>2016-05-07T08:49:36Z</time>
      </trkpt>
      <trkpt lat="44.26445" lon="5.57886">
        <ele>1211</ele>
        <time>2016-05-07T08:49:40Z</time>
      </trkpt>
      <trkpt lat="44.2643" lon="5.57898">
        <ele>1211</ele>
        <time>2016-05-07T08:49:48Z</time>
      </trkpt>
      <trkpt lat="44.26414" lon="5.57909">
        <ele>1211</ele>
        <time>2016-05-07T08:49:55Z</time>
      </trkpt>
      <trkpt lat="44.26412" lon="5.57911">
        <ele>1211</ele>
        <time>2016-05-07T08:49:56Z</time>
      </trkpt>
      <trkpt lat="44.26404" lon="5.57913">
        <ele>1211</ele>
        <time>2016-05-07T08:49:59Z</time>
      </trkpt>
      <trkpt lat="44.26391" lon="5.57916">
        <ele>1211.4000244141</ele>
        <time>2016-05-07T08:50:03Z</time>
      </trkpt>
      <trkpt lat="44.2639" lon="5.57918">
        <ele>1211.8000488281</ele>
        <time>2016-05-07T08:50:04Z</time>
      </trkpt>
      <trkpt lat="44.26387" lon="5.57923">
        <ele>1212.1999511719</ele>
        <time>2016-05-07T08:50:06Z</time>
      </trkpt>
      <trkpt lat="44.26384" lon="5.57929">
        <ele>1212.5999755859</ele>
        <time>2016-05-07T08:50:08Z</time>
      </trkpt>
      <trkpt lat="44.26382" lon="5.57934">
        <ele>1213</ele>
        <time>2016-05-07T08:50:10Z</time>
      </trkpt>
      <trkpt lat="44.26376" lon="5.57939">
        <ele>1213</ele>
        <time>2016-05-07T08:50:16Z</time>
      </trkpt>
      <trkpt lat="44.26374" lon="5.5794">
        <ele>1213</ele>
        <time>2016-05-07T08:50:17Z</time>
      </trkpt>
      <trkpt lat="44.26366" lon="5.57944">
        <ele>1213</ele>
        <time>2016-05-07T08:50:21Z</time>
      </trkpt>
      <trkpt lat="44.2636" lon="5.57951">
        <ele>1213</ele>
        <time>2016-05-07T08:50:27Z</time>
      </trkpt>
      <trkpt lat="44.26347" lon="5.57958">
        <ele>1214</ele>
        <time>2016-05-07T08:50:35Z</time>
      </trkpt>
      <trkpt lat="44.2634" lon="5.57958">
        <ele>1215</ele>
        <time>2016-05-07T08:50:37Z</time>
      </trkpt>
      <trkpt lat="44.26335" lon="5.57959">
        <ele>1215.4000244141</ele>
        <time>2016-05-07T08:50:39Z</time>
      </trkpt>
      <trkpt lat="44.26333" lon="5.57959">
        <ele>1215.8000488281</ele>
        <time>2016-05-07T08:50:40Z</time>
      </trkpt>
      <trkpt lat="44.26328" lon="5.57959">
        <ele>1216.5999755859</ele>
        <time>2016-05-07T08:50:42Z</time>
      </trkpt>
      <trkpt lat="44.26326" lon="5.57959">
        <ele>1216.5999755859</ele>
        <time>2016-05-07T08:50:43Z</time>
      </trkpt>
      <trkpt lat="44.26324" lon="5.5796">
        <ele>1217</ele>
        <time>2016-05-07T08:50:44Z</time>
      </trkpt>
      <trkpt lat="44.26322" lon="5.5796">
        <ele>1217.4000244141</ele>
        <time>2016-05-07T08:50:45Z</time>
      </trkpt>
      <trkpt lat="44.26305" lon="5.57961">
        <ele>1217.4000244141</ele>
        <time>2016-05-07T08:50:51Z</time>
      </trkpt>
      <trkpt lat="44.263" lon="5.57966">
        <ele>1217.4000244141</ele>
        <time>2016-05-07T08:50:55Z</time>
      </trkpt>
      <trkpt lat="44.26299" lon="5.57964">
        <ele>1217.4000244141</ele>
        <time>2016-05-07T08:51:01Z</time>
      </trkpt>
      <trkpt lat="44.26295" lon="5.57963">
        <ele>1217.4000244141</ele>
        <time>2016-05-07T08:51:07Z</time>
      </trkpt>
      <trkpt lat="44.26291" lon="5.57972">
        <ele>1217.4000244141</ele>
        <time>2016-05-07T08:51:17Z</time>
      </trkpt>
      <trkpt lat="44.26289" lon="5.57972">
        <ele>1217.4000244141</ele>
        <time>2016-05-07T08:51:23Z</time>
      </trkpt>
      <trkpt lat="44.26288" lon="5.57972">
        <ele>1217.4000244141</ele>
        <time>2016-05-07T08:51:24Z</time>
      </trkpt>
      <trkpt lat="44.26281" lon="5.57978">
        <ele>1217.4000244141</ele>
        <time>2016-05-07T08:51:28Z</time>
      </trkpt>
      <trkpt lat="44.26278" lon="5.5798">
        <ele>1216.5999755859</ele>
        <time>2016-05-07T08:51:29Z</time>
      </trkpt>
      <trkpt lat="44.26273" lon="5.57982">
        <ele>1216.1999511719</ele>
        <time>2016-05-07T08:51:31Z</time>
      </trkpt>
      <trkpt lat="44.26271" lon="5.57984">
        <ele>1215.8000488281</ele>
        <time>2016-05-07T08:51:32Z</time>
      </trkpt>
      <trkpt lat="44.26271" lon="5.57985">
        <ele>1215.1999511719</ele>
        <time>2016-05-07T08:51:34Z</time>
      </trkpt>
      <trkpt lat="44.26271" lon="5.57985">
        <ele>1215.1999511719</ele>
        <time>2016-05-07T08:51:36Z</time>
      </trkpt>
      <trkpt lat="44.26271" lon="5.57986">
        <ele>1215.1999511719</ele>
        <time>2016-05-07T08:51:50Z</time>
      </trkpt>
      <trkpt lat="44.26271" lon="5.57985">
        <ele>1215.5999755859</ele>
        <time>2016-05-07T08:52:02Z</time>
      </trkpt>
      <trkpt lat="44.2627" lon="5.57985">
        <ele>1216.1999511719</ele>
        <time>2016-05-07T08:52:03Z</time>
      </trkpt>
      <trkpt lat="44.2627" lon="5.57985">
        <ele>1216.5999755859</ele>
        <time>2016-05-07T08:52:05Z</time>
      </trkpt>
      <trkpt lat="44.2627" lon="5.57985">
        <ele>1217</ele>
        <time>2016-05-07T08:52:07Z</time>
      </trkpt>
      <trkpt lat="44.2627" lon="5.57985">
        <ele>1217.4000244141</ele>
        <time>2016-05-07T08:52:08Z</time>
      </trkpt>
      <trkpt lat="44.26267" lon="5.57981">
        <ele>1217.4000244141</ele>
        <time>2016-05-07T08:52:20Z</time>
      </trkpt>
      <trkpt lat="44.26265" lon="5.57979">
        <ele>1217.4000244141</ele>
        <time>2016-05-07T08:52:21Z</time>
      </trkpt>
      <trkpt lat="44.26252" lon="5.57964">
        <ele>1217.4000244141</ele>
        <time>2016-05-07T08:52:28Z</time>
      </trkpt>
      <trkpt lat="44.26251" lon="5.57966">
        <ele>1217.4000244141</ele>
        <time>2016-05-07T08:52:29Z</time>
      </trkpt>
      <trkpt lat="44.2625" lon="5.57967">
        <ele>1217.8000488281</ele>
        <time>2016-05-07T08:52:30Z</time>
      </trkpt>
      <trkpt lat="44.2625" lon="5.57966">
        <ele>1218.5999755859</ele>
        <time>2016-05-07T08:52:32Z</time>
      </trkpt>
      <trkpt lat="44.26248" lon="5.57966">
        <ele>1219</ele>
        <time>2016-05-07T08:52:34Z</time>
      </trkpt>
      <trkpt lat="44.26247" lon="5.57967">
        <ele>1219.4000244141</ele>
        <time>2016-05-07T08:52:35Z</time>
      </trkpt>
      <trkpt lat="44.26244" lon="5.5797">
        <ele>1219.4000244141</ele>
        <time>2016-05-07T08:52:38Z</time>
      </trkpt>
      <trkpt lat="44.2624" lon="5.57973">
        <ele>1219.4000244141</ele>
        <time>2016-05-07T08:52:45Z</time>
      </trkpt>
      <trkpt lat="44.26237" lon="5.57974">
        <ele>1219.4000244141</ele>
        <time>2016-05-07T08:52:49Z</time>
      </trkpt>
      <trkpt lat="44.26236" lon="5.57974">
        <ele>1219.4000244141</ele>
        <time>2016-05-07T08:52:50Z</time>
      </trkpt>
      <trkpt lat="44.26226" lon="5.57976">
        <ele>1219.8000488281</ele>
        <time>2016-05-07T08:52:54Z</time>
      </trkpt>
      <trkpt lat="44.26223" lon="5.57978">
        <ele>1220.1999511719</ele>
        <time>2016-05-07T08:52:56Z</time>
      </trkpt>
      <trkpt lat="44.26221" lon="5.57979">
        <ele>1220.5999755859</ele>
        <time>2016-05-07T08:52:57Z</time>
      </trkpt>
      <trkpt lat="44.2622" lon="5.57981">
        <ele>1221.4000244141</ele>
        <time>2016-05-07T08:52:59Z</time>
      </trkpt>
      <trkpt lat="44.2621" lon="5.57986">
        <ele>1221.4000244141</ele>
        <time>2016-05-07T08:53:03Z</time>
      </trkpt>
      <trkpt lat="44.26194" lon="5.5798">
        <ele>1221.4000244141</ele>
        <time>2016-05-07T08:53:09Z</time>
      </trkpt>
      <trkpt lat="44.26184" lon="5.57981">
        <ele>1221.8000488281</ele>
        <time>2016-05-07T08:53:15Z</time>
      </trkpt>
      <trkpt lat="44.26184" lon="5.57982">
        <ele>1222.4000244141</ele>
        <time>2016-05-07T08:53:16Z</time>
      </trkpt>
      <trkpt lat="44.26183" lon="5.57983">
        <ele>1223.1999511719</ele>
        <time>2016-05-07T08:53:18Z</time>
      </trkpt>
      <trkpt lat="44.26179" lon="5.57983">
        <ele>1223.5999755859</ele>
        <time>2016-05-07T08:53:20Z</time>
      </trkpt>
      <trkpt lat="44.26176" lon="5.57984">
        <ele>1223.5999755859</ele>
        <time>2016-05-07T08:53:22Z</time>
      </trkpt>
      <trkpt lat="44.26168" lon="5.57985">
        <ele>1224.5999755859</ele>
        <time>2016-05-07T08:53:28Z</time>
      </trkpt>
      <trkpt lat="44.26167" lon="5.57985">
        <ele>1225</ele>
        <time>2016-05-07T08:53:30Z</time>
      </trkpt>
      <trkpt lat="44.26166" lon="5.57986">
        <ele>1225.4000244141</ele>
        <time>2016-05-07T08:53:32Z</time>
      </trkpt>
      <trkpt lat="44.26165" lon="5.57986">
        <ele>1226</ele>
        <time>2016-05-07T08:53:33Z</time>
      </trkpt>
      <trkpt lat="44.26159" lon="5.57984">
        <ele>1226</ele>
        <time>2016-05-07T08:53:36Z</time>
      </trkpt>
      <trkpt lat="44.26152" lon="5.57985">
        <ele>1226</ele>
        <time>2016-05-07T08:53:42Z</time>
      </trkpt>
      <trkpt lat="44.26152" lon="5.57986">
        <ele>1226</ele>
        <time>2016-05-07T08:53:44Z</time>
      </trkpt>
      <trkpt lat="44.26152" lon="5.57988">
        <ele>1225.4000244141</ele>
        <time>2016-05-07T08:53:48Z</time>
      </trkpt>
      <trkpt lat="44.26152" lon="5.5799">
        <ele>1224.5999755859</ele>
        <time>2016-05-07T08:53:50Z</time>
      </trkpt>
      <trkpt lat="44.26152" lon="5.5799">
        <ele>1224.5999755859</ele>
        <time>2016-05-07T08:53:51Z</time>
      </trkpt>
      <trkpt lat="44.26152" lon="5.57991">
        <ele>1224.1999511719</ele>
        <time>2016-05-07T08:53:52Z</time>
      </trkpt>
      <trkpt lat="44.26152" lon="5.57992">
        <ele>1223.8000488281</ele>
        <time>2016-05-07T08:53:54Z</time>
      </trkpt>
      <trkpt lat="44.26153" lon="5.57997">
        <ele>1224.1999511719</ele>
        <time>2016-05-07T08:53:59Z</time>
      </trkpt>
      <trkpt lat="44.26153" lon="5.57998">
        <ele>1224.8000488281</ele>
        <time>2016-05-07T08:54:01Z</time>
      </trkpt>
      <trkpt lat="44.26153" lon="5.57999">
        <ele>1225.1999511719</ele>
        <time>2016-05-07T08:54:02Z</time>
      </trkpt>
      <trkpt lat="44.26153" lon="5.58001">
        <ele>1225.1999511719</ele>
        <time>2016-05-07T08:54:03Z</time>
      </trkpt>
      <trkpt lat="44.26153" lon="5.58002">
        <ele>1226.1999511719</ele>
        <time>2016-05-07T08:54:04Z</time>
      </trkpt>
      <trkpt lat="44.26154" lon="5.58006">
        <ele>1226.5999755859</ele>
        <time>2016-05-07T08:54:08Z</time>
      </trkpt>
      <trkpt lat="44.26154" lon="5.58007">
        <ele>1227</ele>
        <time>2016-05-07T08:54:09Z</time>
      </trkpt>
      <trkpt lat="44.26155" lon="5.58007">
        <ele>1227.4000244141</ele>
        <time>2016-05-07T08:54:10Z</time>
      </trkpt>
      <trkpt lat="44.26155" lon="5.58008">
        <ele>1228.1999511719</ele>
        <time>2016-05-07T08:54:13Z</time>
      </trkpt>
      <trkpt lat="44.26155" lon="5.5801">
        <ele>1228.1999511719</ele>
        <time>2016-05-07T08:54:14Z</time>
      </trkpt>
      <trkpt lat="44.26153" lon="5.58017">
        <ele>1228.1999511719</ele>
        <time>2016-05-07T08:54:25Z</time>
      </trkpt>
      <trkpt lat="44.26149" lon="5.58025">
        <ele>1228.1999511719</ele>
        <time>2016-05-07T08:54:32Z</time>
      </trkpt>
      <trkpt lat="44.26147" lon="5.58028">
        <ele>1228.8000488281</ele>
        <time>2016-05-07T08:54:34Z</time>
      </trkpt>
      <trkpt lat="44.26146" lon="5.58029">
        <ele>1229.1999511719</ele>
        <time>2016-05-07T08:54:35Z</time>
      </trkpt>
      <trkpt lat="44.26145" lon="5.58032">
        <ele>1230.1999511719</ele>
        <time>2016-05-07T08:54:37Z</time>
      </trkpt>
      <trkpt lat="44.26144" lon="5.58035">
        <ele>1230.5999755859</ele>
        <time>2016-05-07T08:54:39Z</time>
      </trkpt>
      <trkpt lat="44.26135" lon="5.58046">
        <ele>1231</ele>
        <time>2016-05-07T08:54:46Z</time>
      </trkpt>
      <trkpt lat="44.26133" lon="5.58047">
        <ele>1232</ele>
        <time>2016-05-07T08:54:49Z</time>
      </trkpt>
      <trkpt lat="44.26132" lon="5.58049">
        <ele>1232.4000244141</ele>
        <time>2016-05-07T08:54:51Z</time>
      </trkpt>
      <trkpt lat="44.2613" lon="5.5805">
        <ele>1232.8000488281</ele>
        <time>2016-05-07T08:54:53Z</time>
      </trkpt>
      <trkpt lat="44.26131" lon="5.58051">
        <ele>1233.1999511719</ele>
        <time>2016-05-07T08:54:56Z</time>
      </trkpt>
      <trkpt lat="44.26131" lon="5.58052">
        <ele>1233.5999755859</ele>
        <time>2016-05-07T08:54:58Z</time>
      </trkpt>
      <trkpt lat="44.26131" lon="5.58052">
        <ele>1234.1999511719</ele>
        <time>2016-05-07T08:55:00Z</time>
      </trkpt>
      <trkpt lat="44.2613" lon="5.58052">
        <ele>1234.5999755859</ele>
        <time>2016-05-07T08:55:01Z</time>
      </trkpt>
      <trkpt lat="44.2613" lon="5.58053">
        <ele>1235</ele>
        <time>2016-05-07T08:55:03Z</time>
      </trkpt>
      <trkpt lat="44.26127" lon="5.58054">
        <ele>1235</ele>
        <time>2016-05-07T08:55:06Z</time>
      </trkpt>
      <trkpt lat="44.26127" lon="5.58054">
        <ele>1235.4000244141</ele>
        <time>2016-05-07T08:55:09Z</time>
      </trkpt>
      <trkpt lat="44.26127" lon="5.58054">
        <ele>1235.8000488281</ele>
        <time>2016-05-07T08:55:10Z</time>
      </trkpt>
      <trkpt lat="44.26127" lon="5.58055">
        <ele>1236.1999511719</ele>
        <time>2016-05-07T08:55:12Z</time>
      </trkpt>
      <trkpt lat="44.26127" lon="5.58055">
        <ele>1236.8000488281</ele>
        <time>2016-05-07T08:55:14Z</time>
      </trkpt>
      <trkpt lat="44.26127" lon="5.58056">
        <ele>1237.1999511719</ele>
        <time>2016-05-07T08:55:16Z</time>
      </trkpt>
      <trkpt lat="44.26127" lon="5.58056">
        <ele>1237.8000488281</ele>
        <time>2016-05-07T08:55:17Z</time>
      </trkpt>
      <trkpt lat="44.26126" lon="5.58056">
        <ele>1238.1999511719</ele>
        <time>2016-05-07T08:55:19Z</time>
      </trkpt>
      <trkpt lat="44.26126" lon="5.58057">
        <ele>1238.8000488281</ele>
        <time>2016-05-07T08:55:21Z</time>
      </trkpt>
      <trkpt lat="44.26126" lon="5.58057">
        <ele>1239.1999511719</ele>
        <time>2016-05-07T08:55:22Z</time>
      </trkpt>
      <trkpt lat="44.26123" lon="5.58057">
        <ele>1239.5999755859</ele>
        <time>2016-05-07T08:55:33Z</time>
      </trkpt>
      <trkpt lat="44.26122" lon="5.58058">
        <ele>1240</ele>
        <time>2016-05-07T08:55:35Z</time>
      </trkpt>
      <trkpt lat="44.26122" lon="5.58058">
        <ele>1240.4000244141</ele>
        <time>2016-05-07T08:55:36Z</time>
      </trkpt>
      <trkpt lat="44.2612" lon="5.58058">
        <ele>1241.1999511719</ele>
        <time>2016-05-07T08:55:38Z</time>
      </trkpt>
      <trkpt lat="44.26112" lon="5.58062">
        <ele>1241.1999511719</ele>
        <time>2016-05-07T08:55:48Z</time>
      </trkpt>
      <trkpt lat="44.26109" lon="5.58062">
        <ele>1241.5999755859</ele>
        <time>2016-05-07T08:55:55Z</time>
      </trkpt>
      <trkpt lat="44.26108" lon="5.58062">
        <ele>1242</ele>
        <time>2016-05-07T08:55:57Z</time>
      </trkpt>
      <trkpt lat="44.26108" lon="5.58061">
        <ele>1242.4000244141</ele>
        <time>2016-05-07T08:55:59Z</time>
      </trkpt>
      <trkpt lat="44.26108" lon="5.58061">
        <ele>1242.8000488281</ele>
        <time>2016-05-07T08:56:01Z</time>
      </trkpt>
      <trkpt lat="44.26107" lon="5.58061">
        <ele>1243.1999511719</ele>
        <time>2016-05-07T08:56:02Z</time>
      </trkpt>
      <trkpt lat="44.26098" lon="5.58061">
        <ele>1243.5999755859</ele>
        <time>2016-05-07T08:56:09Z</time>
      </trkpt>
      <trkpt lat="44.26097" lon="5.58061">
        <ele>1244.4000244141</ele>
        <time>2016-05-07T08:56:12Z</time>
      </trkpt>
      <trkpt lat="44.26096" lon="5.58061">
        <ele>1245.4000244141</ele>
        <time>2016-05-07T08:56:14Z</time>
      </trkpt>
      <trkpt lat="44.26086" lon="5.58061">
        <ele>1245.4000244141</ele>
        <time>2016-05-07T08:56:25Z</time>
      </trkpt>
      <trkpt lat="44.26082" lon="5.58061">
        <ele>1245.8000488281</ele>
        <time>2016-05-07T08:56:29Z</time>
      </trkpt>
      <trkpt lat="44.2608" lon="5.58058">
        <ele>1246.5999755859</ele>
        <time>2016-05-07T08:56:32Z</time>
      </trkpt>
      <trkpt lat="44.26078" lon="5.58057">
        <ele>1247</ele>
        <time>2016-05-07T08:56:34Z</time>
      </trkpt>
      <trkpt lat="44.26076" lon="5.58057">
        <ele>1247.4000244141</ele>
        <time>2016-05-07T08:56:36Z</time>
      </trkpt>
      <trkpt lat="44.26075" lon="5.58057">
        <ele>1247.4000244141</ele>
        <time>2016-05-07T08:56:37Z</time>
      </trkpt>
      <trkpt lat="44.26071" lon="5.58053">
        <ele>1248.1999511719</ele>
        <time>2016-05-07T08:56:44Z</time>
      </trkpt>
      <trkpt lat="44.26069" lon="5.58052">
        <ele>1248.5999755859</ele>
        <time>2016-05-07T08:56:46Z</time>
      </trkpt>
      <trkpt lat="44.26068" lon="5.58052">
        <ele>1248.5999755859</ele>
        <time>2016-05-07T08:56:47Z</time>
      </trkpt>
      <trkpt lat="44.26067" lon="5.58051">
        <ele>1249</ele>
        <time>2016-05-07T08:56:48Z</time>
      </trkpt>
      <trkpt lat="44.26067" lon="5.58051">
        <ele>1249.4000244141</ele>
        <time>2016-05-07T08:56:49Z</time>
      </trkpt>
      <trkpt lat="44.26062" lon="5.58051">
        <ele>1249.8000488281</ele>
        <time>2016-05-07T08:56:53Z</time>
      </trkpt>
      <trkpt lat="44.26061" lon="5.58051">
        <ele>1250.4000244141</ele>
        <time>2016-05-07T08:56:55Z</time>
      </trkpt>
      <trkpt lat="44.2606" lon="5.58051">
        <ele>1250.8000488281</ele>
        <time>2016-05-07T08:56:56Z</time>
      </trkpt>
      <trkpt lat="44.26059" lon="5.58051">
        <ele>1251.5999755859</ele>
        <time>2016-05-07T08:56:58Z</time>
      </trkpt>
      <trkpt lat="44.26059" lon="5.58051">
        <ele>1251.5999755859</ele>
        <time>2016-05-07T08:57:00Z</time>
      </trkpt>
      <trkpt lat="44.26046" lon="5.58056">
        <ele>1252.4000244141</ele>
        <time>2016-05-07T08:57:22Z</time>
      </trkpt>
      <trkpt lat="44.26046" lon="5.58056">
        <ele>1252.4000244141</ele>
        <time>2016-05-07T08:57:23Z</time>
      </trkpt>
      <trkpt lat="44.26045" lon="5.58056">
        <ele>1252.8000488281</ele>
        <time>2016-05-07T08:57:24Z</time>
      </trkpt>
      <trkpt lat="44.26044" lon="5.58056">
        <ele>1253.1999511719</ele>
        <time>2016-05-07T08:57:25Z</time>
      </trkpt>
      <trkpt lat="44.26043" lon="5.58056">
        <ele>1253.5999755859</ele>
        <time>2016-05-07T08:57:27Z</time>
      </trkpt>
      <trkpt lat="44.26043" lon="5.58053">
        <ele>1254</ele>
        <time>2016-05-07T08:57:32Z</time>
      </trkpt>
      <trkpt lat="44.26042" lon="5.58053">
        <ele>1254.8000488281</ele>
        <time>2016-05-07T08:57:34Z</time>
      </trkpt>
      <trkpt lat="44.2604" lon="5.58053">
        <ele>1255.1999511719</ele>
        <time>2016-05-07T08:57:36Z</time>
      </trkpt>
      <trkpt lat="44.2604" lon="5.58053">
        <ele>1255.5999755859</ele>
        <time>2016-05-07T08:57:37Z</time>
      </trkpt>
      <trkpt lat="44.26034" lon="5.58054">
        <ele>1255.5999755859</ele>
        <time>2016-05-07T08:57:41Z</time>
      </trkpt>
      <trkpt lat="44.26029" lon="5.58055">
        <ele>1256.1999511719</ele>
        <time>2016-05-07T08:57:46Z</time>
      </trkpt>
      <trkpt lat="44.26029" lon="5.58055">
        <ele>1256.5999755859</ele>
        <time>2016-05-07T08:57:48Z</time>
      </trkpt>
      <trkpt lat="44.26028" lon="5.58055">
        <ele>1257</ele>
        <time>2016-05-07T08:57:49Z</time>
      </trkpt>
      <trkpt lat="44.26027" lon="5.58055">
        <ele>1258</ele>
        <time>2016-05-07T08:57:51Z</time>
      </trkpt>
      <trkpt lat="44.26022" lon="5.58053">
        <ele>1258.4000244141</ele>
        <time>2016-05-07T08:57:58Z</time>
      </trkpt>
      <trkpt lat="44.26019" lon="5.58054">
        <ele>1258.8000488281</ele>
        <time>2016-05-07T08:58:00Z</time>
      </trkpt>
      <trkpt lat="44.26018" lon="5.58055">
        <ele>1259.1999511719</ele>
        <time>2016-05-07T08:58:01Z</time>
      </trkpt>
      <trkpt lat="44.26015" lon="5.58055">
        <ele>1259.8000488281</ele>
        <time>2016-05-07T08:58:03Z</time>
      </trkpt>
      <trkpt lat="44.26014" lon="5.58054">
        <ele>1260.1999511719</ele>
        <time>2016-05-07T08:58:05Z</time>
      </trkpt>
      <trkpt lat="44.26012" lon="5.58054">
        <ele>1260.1999511719</ele>
        <time>2016-05-07T08:58:06Z</time>
      </trkpt>
      <trkpt lat="44.26007" lon="5.58053">
        <ele>1260.5999755859</ele>
        <time>2016-05-07T08:58:13Z</time>
      </trkpt>
      <trkpt lat="44.26005" lon="5.58053">
        <ele>1261.4000244141</ele>
        <time>2016-05-07T08:58:15Z</time>
      </trkpt>
      <trkpt lat="44.26004" lon="5.58053">
        <ele>1261.8000488281</ele>
        <time>2016-05-07T08:58:17Z</time>
      </trkpt>
      <trkpt lat="44.26002" lon="5.58053">
        <ele>1262.1999511719</ele>
        <time>2016-05-07T08:58:19Z</time>
      </trkpt>
      <trkpt lat="44.25996" lon="5.58053">
        <ele>1262.5999755859</ele>
        <time>2016-05-07T08:58:25Z</time>
      </trkpt>
      <trkpt lat="44.25994" lon="5.58052">
        <ele>1263.5999755859</ele>
        <time>2016-05-07T08:58:27Z</time>
      </trkpt>
      <trkpt lat="44.25993" lon="5.58053">
        <ele>1264</ele>
        <time>2016-05-07T08:58:29Z</time>
      </trkpt>
      <trkpt lat="44.25992" lon="5.58052">
        <ele>1264.4000244141</ele>
        <time>2016-05-07T08:58:31Z</time>
      </trkpt>
      <trkpt lat="44.25985" lon="5.58051">
        <ele>1264.8000488281</ele>
        <time>2016-05-07T08:58:39Z</time>
      </trkpt>
      <trkpt lat="44.25983" lon="5.58051">
        <ele>1265.1999511719</ele>
        <time>2016-05-07T08:58:41Z</time>
      </trkpt>
      <trkpt lat="44.25982" lon="5.58051">
        <ele>1265.8000488281</ele>
        <time>2016-05-07T08:58:43Z</time>
      </trkpt>
      <trkpt lat="44.25981" lon="5.5805">
        <ele>1266.1999511719</ele>
        <time>2016-05-07T08:58:46Z</time>
      </trkpt>
      <trkpt lat="44.2598" lon="5.5805">
        <ele>1266.5999755859</ele>
        <time>2016-05-07T08:58:48Z</time>
      </trkpt>
      <trkpt lat="44.25978" lon="5.5805">
        <ele>1266.5999755859</ele>
        <time>2016-05-07T08:58:53Z</time>
      </trkpt>
      <trkpt lat="44.25977" lon="5.58048">
        <ele>1267.1999511719</ele>
        <time>2016-05-07T08:58:55Z</time>
      </trkpt>
      <trkpt lat="44.25975" lon="5.58049">
        <ele>1267.5999755859</ele>
        <time>2016-05-07T08:58:57Z</time>
      </trkpt>
      <trkpt lat="44.25975" lon="5.58048">
        <ele>1268.1999511719</ele>
        <time>2016-05-07T08:58:58Z</time>
      </trkpt>
      <trkpt lat="44.25975" lon="5.58047">
        <ele>1268.5999755859</ele>
        <time>2016-05-07T08:59:00Z</time>
      </trkpt>
      <trkpt lat="44.25975" lon="5.58047">
        <ele>1269.1999511719</ele>
        <time>2016-05-07T08:59:02Z</time>
      </trkpt>
      <trkpt lat="44.25973" lon="5.58047">
        <ele>1269.1999511719</ele>
        <time>2016-05-07T08:59:09Z</time>
      </trkpt>
      <trkpt lat="44.25973" lon="5.58046">
        <ele>1269.5999755859</ele>
        <time>2016-05-07T08:59:10Z</time>
      </trkpt>
      <trkpt lat="44.25973" lon="5.58046">
        <ele>1270.4000244141</ele>
        <time>2016-05-07T08:59:12Z</time>
      </trkpt>
      <trkpt lat="44.25973" lon="5.58045">
        <ele>1270.8000488281</ele>
        <time>2016-05-07T08:59:14Z</time>
      </trkpt>
      <trkpt lat="44.25973" lon="5.58045">
        <ele>1271.4000244141</ele>
        <time>2016-05-07T08:59:15Z</time>
      </trkpt>
      <trkpt lat="44.25972" lon="5.58042">
        <ele>1271.8000488281</ele>
        <time>2016-05-07T08:59:19Z</time>
      </trkpt>
      <trkpt lat="44.25972" lon="5.58041">
        <ele>1272.1999511719</ele>
        <time>2016-05-07T08:59:21Z</time>
      </trkpt>
      <trkpt lat="44.25971" lon="5.5804">
        <ele>1272.5999755859</ele>
        <time>2016-05-07T08:59:22Z</time>
      </trkpt>
      <trkpt lat="44.25971" lon="5.58039">
        <ele>1273.4000244141</ele>
        <time>2016-05-07T08:59:24Z</time>
      </trkpt>
      <trkpt lat="44.25972" lon="5.58028">
        <ele>1273.8000488281</ele>
        <time>2016-05-07T08:59:35Z</time>
      </trkpt>
      <trkpt lat="44.25972" lon="5.58027">
        <ele>1274.1999511719</ele>
        <time>2016-05-07T08:59:36Z</time>
      </trkpt>
      <trkpt lat="44.25971" lon="5.58026">
        <ele>1275</ele>
        <time>2016-05-07T08:59:38Z</time>
      </trkpt>
      <trkpt lat="44.25971" lon="5.58025">
        <ele>1275.5999755859</ele>
        <time>2016-05-07T08:59:40Z</time>
      </trkpt>
      <trkpt lat="44.2597" lon="5.58024">
        <ele>1275.5999755859</ele>
        <time>2016-05-07T08:59:41Z</time>
      </trkpt>
      <trkpt lat="44.25966" lon="5.58014">
        <ele>1276</ele>
        <time>2016-05-07T08:59:53Z</time>
      </trkpt>
      <trkpt lat="44.25965" lon="5.58013">
        <ele>1276.8000488281</ele>
        <time>2016-05-07T08:59:55Z</time>
      </trkpt>
      <trkpt lat="44.25965" lon="5.58012">
        <ele>1277.1999511719</ele>
        <time>2016-05-07T08:59:57Z</time>
      </trkpt>
      <trkpt lat="44.25964" lon="5.58011">
        <ele>1278.1999511719</ele>
        <time>2016-05-07T09:00:00Z</time>
      </trkpt>
      <trkpt lat="44.25964" lon="5.58012">
        <ele>1278.5999755859</ele>
        <time>2016-05-07T09:00:02Z</time>
      </trkpt>
      <trkpt lat="44.25962" lon="5.58013">
        <ele>1279</ele>
        <time>2016-05-07T09:00:04Z</time>
      </trkpt>
      <trkpt lat="44.25962" lon="5.58013">
        <ele>1279.4000244141</ele>
        <time>2016-05-07T09:00:05Z</time>
      </trkpt>
      <trkpt lat="44.25962" lon="5.58014">
        <ele>1279.8000488281</ele>
        <time>2016-05-07T09:00:07Z</time>
      </trkpt>
      <trkpt lat="44.25962" lon="5.58014">
        <ele>1279.8000488281</ele>
        <time>2016-05-07T09:00:09Z</time>
      </trkpt>
      <trkpt lat="44.25954" lon="5.58015">
        <ele>1279.8000488281</ele>
        <time>2016-05-07T09:00:17Z</time>
      </trkpt>
      <trkpt lat="44.2595" lon="5.58016">
        <ele>1280.5999755859</ele>
        <time>2016-05-07T09:00:24Z</time>
      </trkpt>
      <trkpt lat="44.25949" lon="5.58017">
        <ele>1281</ele>
        <time>2016-05-07T09:00:26Z</time>
      </trkpt>
      <trkpt lat="44.25948" lon="5.58018">
        <ele>1281</ele>
        <time>2016-05-07T09:00:28Z</time>
      </trkpt>
      <trkpt lat="44.25947" lon="5.58019">
        <ele>1281.8000488281</ele>
        <time>2016-05-07T09:00:29Z</time>
      </trkpt>
      <trkpt lat="44.25942" lon="5.58023">
        <ele>1282.1999511719</ele>
        <time>2016-05-07T09:00:34Z</time>
      </trkpt>
      <trkpt lat="44.25941" lon="5.58024">
        <ele>1282.1999511719</ele>
        <time>2016-05-07T09:00:35Z</time>
      </trkpt>
      <trkpt lat="44.25941" lon="5.58024">
        <ele>1283.1999511719</ele>
        <time>2016-05-07T09:00:36Z</time>
      </trkpt>
      <trkpt lat="44.2594" lon="5.58025">
        <ele>1283.5999755859</ele>
        <time>2016-05-07T09:00:38Z</time>
      </trkpt>
      <trkpt lat="44.25937" lon="5.58026">
        <ele>1284</ele>
        <time>2016-05-07T09:00:41Z</time>
      </trkpt>
      <trkpt lat="44.25933" lon="5.58024">
        <ele>1284.4000244141</ele>
        <time>2016-05-07T09:00:48Z</time>
      </trkpt>
      <trkpt lat="44.25932" lon="5.58023">
        <ele>1285</ele>
        <time>2016-05-07T09:00:50Z</time>
      </trkpt>
      <trkpt lat="44.25929" lon="5.58023">
        <ele>1285.8000488281</ele>
        <time>2016-05-07T09:00:53Z</time>
      </trkpt>
      <trkpt lat="44.25927" lon="5.58023">
        <ele>1286.1999511719</ele>
        <time>2016-05-07T09:00:55Z</time>
      </trkpt>
      <trkpt lat="44.25924" lon="5.58021">
        <ele>1287</ele>
        <time>2016-05-07T09:01:00Z</time>
      </trkpt>
      <trkpt lat="44.25924" lon="5.5802">
        <ele>1287.4000244141</ele>
        <time>2016-05-07T09:01:02Z</time>
      </trkpt>
      <trkpt lat="44.25923" lon="5.5802">
        <ele>1287.8000488281</ele>
        <time>2016-05-07T09:01:04Z</time>
      </trkpt>
      <trkpt lat="44.25923" lon="5.5802">
        <ele>1288.1999511719</ele>
        <time>2016-05-07T09:01:07Z</time>
      </trkpt>
      <trkpt lat="44.25923" lon="5.58021">
        <ele>1288.1999511719</ele>
        <time>2016-05-07T09:01:10Z</time>
      </trkpt>
      <trkpt lat="44.25922" lon="5.58022">
        <ele>1288.1999511719</ele>
        <time>2016-05-07T09:01:32Z</time>
      </trkpt>
      <trkpt lat="44.25925" lon="5.58013">
        <ele>1288.1999511719</ele>
        <time>2016-05-07T09:03:00Z</time>
      </trkpt>
      <trkpt lat="44.25924" lon="5.58009">
        <ele>1288.1999511719</ele>
        <time>2016-05-07T09:03:01Z</time>
      </trkpt>
      <trkpt lat="44.2592" lon="5.58004">
        <ele>1288.1999511719</ele>
        <time>2016-05-07T09:03:03Z</time>
      </trkpt>
      <trkpt lat="44.25914" lon="5.57989">
        <ele>1288.1999511719</ele>
        <time>2016-05-07T09:03:08Z</time>
      </trkpt>
      <trkpt lat="44.25914" lon="5.57985">
        <ele>1288.1999511719</ele>
        <time>2016-05-07T09:03:09Z</time>
      </trkpt>
      <trkpt lat="44.25908" lon="5.57973">
        <ele>1288.1999511719</ele>
        <time>2016-05-07T09:03:13Z</time>
      </trkpt>
      <trkpt lat="44.25905" lon="5.57952">
        <ele>1288.1999511719</ele>
        <time>2016-05-07T09:03:20Z</time>
      </trkpt>
      <trkpt lat="44.25905" lon="5.57941">
        <ele>1288.1999511719</ele>
        <time>2016-05-07T09:03:25Z</time>
      </trkpt>
      <trkpt lat="44.25901" lon="5.57923">
        <ele>1288.1999511719</ele>
        <time>2016-05-07T09:03:32Z</time>
      </trkpt>
      <trkpt lat="44.25897" lon="5.57915">
        <ele>1288.1999511719</ele>
        <time>2016-05-07T09:03:39Z</time>
      </trkpt>
      <trkpt lat="44.25888" lon="5.57908">
        <ele>1288.1999511719</ele>
        <time>2016-05-07T09:03:45Z</time>
      </trkpt>
      <trkpt lat="44.25885" lon="5.57906">
        <ele>1288.1999511719</ele>
        <time>2016-05-07T09:03:51Z</time>
      </trkpt>
      <trkpt lat="44.25878" lon="5.57897">
        <ele>1288.1999511719</ele>
        <time>2016-05-07T09:03:59Z</time>
      </trkpt>
      <trkpt lat="44.25865" lon="5.57887">
        <ele>1288.1999511719</ele>
        <time>2016-05-07T09:04:05Z</time>
      </trkpt>
      <trkpt lat="44.25857" lon="5.57869">
        <ele>1288.1999511719</ele>
        <time>2016-05-07T09:04:12Z</time>
      </trkpt>
      <trkpt lat="44.25857" lon="5.57853">
        <ele>1288.1999511719</ele>
        <time>2016-05-07T09:04:18Z</time>
      </trkpt>
      <trkpt lat="44.25858" lon="5.57853">
        <ele>1288.1999511719</ele>
        <time>2016-05-07T09:04:23Z</time>
      </trkpt>
      <trkpt lat="44.25856" lon="5.57845">
        <ele>1288.5999755859</ele>
        <time>2016-05-07T09:04:27Z</time>
      </trkpt>
      <trkpt lat="44.25857" lon="5.57839">
        <ele>1288.5999755859</ele>
        <time>2016-05-07T09:04:29Z</time>
      </trkpt>
      <trkpt lat="44.25858" lon="5.57835">
        <ele>1289.4000244141</ele>
        <time>2016-05-07T09:04:30Z</time>
      </trkpt>
      <trkpt lat="44.25859" lon="5.57832">
        <ele>1289.4000244141</ele>
        <time>2016-05-07T09:04:31Z</time>
      </trkpt>
      <trkpt lat="44.2586" lon="5.5783">
        <ele>1290.1999511719</ele>
        <time>2016-05-07T09:04:32Z</time>
      </trkpt>
      <trkpt lat="44.25863" lon="5.57822">
        <ele>1290.1999511719</ele>
        <time>2016-05-07T09:04:34Z</time>
      </trkpt>
      <trkpt lat="44.25864" lon="5.57791">
        <ele>1290.1999511719</ele>
        <time>2016-05-07T09:04:39Z</time>
      </trkpt>
      <trkpt lat="44.25864" lon="5.57783">
        <ele>1289.8000488281</ele>
        <time>2016-05-07T09:04:41Z</time>
      </trkpt>
      <trkpt lat="44.25861" lon="5.57776">
        <ele>1289.8000488281</ele>
        <time>2016-05-07T09:04:43Z</time>
      </trkpt>
      <trkpt lat="44.25859" lon="5.57772">
        <ele>1288.8000488281</ele>
        <time>2016-05-07T09:04:44Z</time>
      </trkpt>
      <trkpt lat="44.25854" lon="5.57764">
        <ele>1288</ele>
        <time>2016-05-07T09:04:46Z</time>
      </trkpt>
      <trkpt lat="44.25846" lon="5.57759">
        <ele>1288</ele>
        <time>2016-05-07T09:04:48Z</time>
      </trkpt>
      <trkpt lat="44.25832" lon="5.57744">
        <ele>1288</ele>
        <time>2016-05-07T09:04:53Z</time>
      </trkpt>
      <trkpt lat="44.25818" lon="5.57719">
        <ele>1288</ele>
        <time>2016-05-07T09:04:59Z</time>
      </trkpt>
      <trkpt lat="44.25808" lon="5.57703">
        <ele>1288</ele>
        <time>2016-05-07T09:05:05Z</time>
      </trkpt>
      <trkpt lat="44.25791" lon="5.57703">
        <ele>1288</ele>
        <time>2016-05-07T09:05:10Z</time>
      </trkpt>
      <trkpt lat="44.25768" lon="5.5769">
        <ele>1288</ele>
        <time>2016-05-07T09:05:15Z</time>
      </trkpt>
      <trkpt lat="44.25764" lon="5.57687">
        <ele>1288</ele>
        <time>2016-05-07T09:05:16Z</time>
      </trkpt>
      <trkpt lat="44.25745" lon="5.57667">
        <ele>1288</ele>
        <time>2016-05-07T09:05:21Z</time>
      </trkpt>
      <trkpt lat="44.25727" lon="5.57649">
        <ele>1288</ele>
        <time>2016-05-07T09:05:26Z</time>
      </trkpt>
      <trkpt lat="44.25719" lon="5.57642">
        <ele>1288</ele>
        <time>2016-05-07T09:05:28Z</time>
      </trkpt>
      <trkpt lat="44.25705" lon="5.57636">
        <ele>1288</ele>
        <time>2016-05-07T09:05:31Z</time>
      </trkpt>
      <trkpt lat="44.25686" lon="5.57631">
        <ele>1287.4000244141</ele>
        <time>2016-05-07T09:05:34Z</time>
      </trkpt>
      <trkpt lat="44.25675" lon="5.57628">
        <ele>1287.4000244141</ele>
        <time>2016-05-07T09:05:35Z</time>
      </trkpt>
      <trkpt lat="44.25665" lon="5.57625">
        <ele>1286.5999755859</ele>
        <time>2016-05-07T09:05:36Z</time>
      </trkpt>
      <trkpt lat="44.25634" lon="5.57619">
        <ele>1285.8000488281</ele>
        <time>2016-05-07T09:05:39Z</time>
      </trkpt>
      <trkpt lat="44.25618" lon="5.57625">
        <ele>1284</ele>
        <time>2016-05-07T09:05:41Z</time>
      </trkpt>
      <trkpt lat="44.25613" lon="5.5763">
        <ele>1284</ele>
        <time>2016-05-07T09:05:42Z</time>
      </trkpt>
      <trkpt lat="44.25608" lon="5.57634">
        <ele>1282.1999511719</ele>
        <time>2016-05-07T09:05:43Z</time>
      </trkpt>
      <trkpt lat="44.25594" lon="5.57641">
        <ele>1280.1999511719</ele>
        <time>2016-05-07T09:05:46Z</time>
      </trkpt>
      <trkpt lat="44.2557" lon="5.57644">
        <ele>1279.8000488281</ele>
        <time>2016-05-07T09:05:50Z</time>
      </trkpt>
      <trkpt lat="44.25549" lon="5.5764">
        <ele>1278.5999755859</ele>
        <time>2016-05-07T09:05:53Z</time>
      </trkpt>
      <trkpt lat="44.25545" lon="5.57643">
        <ele>1278.5999755859</ele>
        <time>2016-05-07T09:05:54Z</time>
      </trkpt>
      <trkpt lat="44.25538" lon="5.57646">
        <ele>1278.5999755859</ele>
        <time>2016-05-07T09:05:55Z</time>
      </trkpt>
      <trkpt lat="44.25532" lon="5.57648">
        <ele>1278</ele>
        <time>2016-05-07T09:05:56Z</time>
      </trkpt>
      <trkpt lat="44.2552" lon="5.57648">
        <ele>1276.5999755859</ele>
        <time>2016-05-07T09:05:58Z</time>
      </trkpt>
      <trkpt lat="44.25514" lon="5.57639">
        <ele>1276.5999755859</ele>
        <time>2016-05-07T09:05:59Z</time>
      </trkpt>
      <trkpt lat="44.2551" lon="5.57633">
        <ele>1275.1999511719</ele>
        <time>2016-05-07T09:06:00Z</time>
      </trkpt>
      <trkpt lat="44.25494" lon="5.57615">
        <ele>1274</ele>
        <time>2016-05-07T09:06:03Z</time>
      </trkpt>
      <trkpt lat="44.25483" lon="5.57602">
        <ele>1272.4000244141</ele>
        <time>2016-05-07T09:06:05Z</time>
      </trkpt>
      <trkpt lat="44.25478" lon="5.57589">
        <ele>1272.4000244141</ele>
        <time>2016-05-07T09:06:07Z</time>
      </trkpt>
      <trkpt lat="44.25472" lon="5.5758">
        <ele>1270.8000488281</ele>
        <time>2016-05-07T09:06:10Z</time>
      </trkpt>
      <trkpt lat="44.25465" lon="5.57574">
        <ele>1270</ele>
        <time>2016-05-07T09:06:12Z</time>
      </trkpt>
      <trkpt lat="44.25462" lon="5.57569">
        <ele>1270</ele>
        <time>2016-05-07T09:06:14Z</time>
      </trkpt>
      <trkpt lat="44.25458" lon="5.57562">
        <ele>1270</ele>
        <time>2016-05-07T09:06:19Z</time>
      </trkpt>
      <trkpt lat="44.25447" lon="5.57549">
        <ele>1269.1999511719</ele>
        <time>2016-05-07T09:06:24Z</time>
      </trkpt>
      <trkpt lat="44.25445" lon="5.57547">
        <ele>1269.1999511719</ele>
        <time>2016-05-07T09:06:25Z</time>
      </trkpt>
      <trkpt lat="44.25439" lon="5.57541">
        <ele>1268.4000244141</ele>
        <time>2016-05-07T09:06:27Z</time>
      </trkpt>
      <trkpt lat="44.25429" lon="5.57526">
        <ele>1268</ele>
        <time>2016-05-07T09:06:31Z</time>
      </trkpt>
      <trkpt lat="44.25424" lon="5.57518">
        <ele>1268</ele>
        <time>2016-05-07T09:06:33Z</time>
      </trkpt>
      <trkpt lat="44.25407" lon="5.57496">
        <ele>1268</ele>
        <time>2016-05-07T09:06:39Z</time>
      </trkpt>
      <trkpt lat="44.25391" lon="5.57466">
        <ele>1268</ele>
        <time>2016-05-07T09:06:46Z</time>
      </trkpt>
      <trkpt lat="44.2538" lon="5.57447">
        <ele>1268</ele>
        <time>2016-05-07T09:06:50Z</time>
      </trkpt>
      <trkpt lat="44.25376" lon="5.57442">
        <ele>1268</ele>
        <time>2016-05-07T09:06:51Z</time>
      </trkpt>
      <trkpt lat="44.2534" lon="5.57398">
        <ele>1268</ele>
        <time>2016-05-07T09:07:00Z</time>
      </trkpt>
      <trkpt lat="44.25325" lon="5.57378">
        <ele>1268</ele>
        <time>2016-05-07T09:07:04Z</time>
      </trkpt>
      <trkpt lat="44.2532" lon="5.57375">
        <ele>1268</ele>
        <time>2016-05-07T09:07:05Z</time>
      </trkpt>
      <trkpt lat="44.25283" lon="5.57352">
        <ele>1268</ele>
        <time>2016-05-07T09:07:11Z</time>
      </trkpt>
      <trkpt lat="44.25279" lon="5.57348">
        <ele>1267.5999755859</ele>
        <time>2016-05-07T09:07:12Z</time>
      </trkpt>
      <trkpt lat="44.25276" lon="5.57344">
        <ele>1267</ele>
        <time>2016-05-07T09:07:13Z</time>
      </trkpt>
      <trkpt lat="44.25274" lon="5.57339">
        <ele>1266.5999755859</ele>
        <time>2016-05-07T09:07:14Z</time>
      </trkpt>
      <trkpt lat="44.25271" lon="5.57335">
        <ele>1266.5999755859</ele>
        <time>2016-05-07T09:07:16Z</time>
      </trkpt>
      <trkpt lat="44.25271" lon="5.57331">
        <ele>1266.1999511719</ele>
        <time>2016-05-07T09:07:17Z</time>
      </trkpt>
      <trkpt lat="44.2527" lon="5.57325">
        <ele>1266.5999755859</ele>
        <time>2016-05-07T09:07:19Z</time>
      </trkpt>
      <trkpt lat="44.25269" lon="5.57321">
        <ele>1267</ele>
        <time>2016-05-07T09:07:20Z</time>
      </trkpt>
      <trkpt lat="44.2527" lon="5.57318">
        <ele>1267</ele>
        <time>2016-05-07T09:07:21Z</time>
      </trkpt>
      <trkpt lat="44.2527" lon="5.57315">
        <ele>1267.5999755859</ele>
        <time>2016-05-07T09:07:22Z</time>
      </trkpt>
      <trkpt lat="44.25271" lon="5.5731">
        <ele>1268</ele>
        <time>2016-05-07T09:07:24Z</time>
      </trkpt>
      <trkpt lat="44.25272" lon="5.57303">
        <ele>1268.5999755859</ele>
        <time>2016-05-07T09:07:27Z</time>
      </trkpt>
      <trkpt lat="44.25274" lon="5.573">
        <ele>1269.5999755859</ele>
        <time>2016-05-07T09:07:29Z</time>
      </trkpt>
      <trkpt lat="44.25275" lon="5.57296">
        <ele>1270</ele>
        <time>2016-05-07T09:07:31Z</time>
      </trkpt>
      <trkpt lat="44.25275" lon="5.57294">
        <ele>1270.5999755859</ele>
        <time>2016-05-07T09:07:32Z</time>
      </trkpt>
      <trkpt lat="44.25276" lon="5.57292">
        <ele>1270.5999755859</ele>
        <time>2016-05-07T09:07:33Z</time>
      </trkpt>
      <trkpt lat="44.25278" lon="5.57286">
        <ele>1271</ele>
        <time>2016-05-07T09:07:36Z</time>
      </trkpt>
      <trkpt lat="44.25279" lon="5.57284">
        <ele>1271.4000244141</ele>
        <time>2016-05-07T09:07:37Z</time>
      </trkpt>
      <trkpt lat="44.25281" lon="5.57279">
        <ele>1272.4000244141</ele>
        <time>2016-05-07T09:07:39Z</time>
      </trkpt>
      <trkpt lat="44.25284" lon="5.57275">
        <ele>1272.8000488281</ele>
        <time>2016-05-07T09:07:41Z</time>
      </trkpt>
      <trkpt lat="44.25286" lon="5.57268">
        <ele>1272.8000488281</ele>
        <time>2016-05-07T09:07:45Z</time>
      </trkpt>
      <trkpt lat="44.25286" lon="5.57266">
        <ele>1273.1999511719</ele>
        <time>2016-05-07T09:07:46Z</time>
      </trkpt>
      <trkpt lat="44.25286" lon="5.57262">
        <ele>1273.8000488281</ele>
        <time>2016-05-07T09:07:48Z</time>
      </trkpt>
      <trkpt lat="44.25286" lon="5.57256">
        <ele>1274.5999755859</ele>
        <time>2016-05-07T09:07:51Z</time>
      </trkpt>
      <trkpt lat="44.25286" lon="5.57254">
        <ele>1274.5999755859</ele>
        <time>2016-05-07T09:07:52Z</time>
      </trkpt>
      <trkpt lat="44.25286" lon="5.57251">
        <ele>1275</ele>
        <time>2016-05-07T09:07:53Z</time>
      </trkpt>
      <trkpt lat="44.25283" lon="5.57238">
        <ele>1275.8000488281</ele>
        <time>2016-05-07T09:08:00Z</time>
      </trkpt>
      <trkpt lat="44.25283" lon="5.57236">
        <ele>1275.8000488281</ele>
        <time>2016-05-07T09:08:01Z</time>
      </trkpt>
      <trkpt lat="44.25282" lon="5.57233">
        <ele>1276.4000244141</ele>
        <time>2016-05-07T09:08:02Z</time>
      </trkpt>
      <trkpt lat="44.25283" lon="5.57229">
        <ele>1276.4000244141</ele>
        <time>2016-05-07T09:08:04Z</time>
      </trkpt>
      <trkpt lat="44.25283" lon="5.57226">
        <ele>1277.1999511719</ele>
        <time>2016-05-07T09:08:05Z</time>
      </trkpt>
      <trkpt lat="44.25285" lon="5.57218">
        <ele>1277.1999511719</ele>
        <time>2016-05-07T09:08:09Z</time>
      </trkpt>
      <trkpt lat="44.25287" lon="5.57199">
        <ele>1277.1999511719</ele>
        <time>2016-05-07T09:08:17Z</time>
      </trkpt>
      <trkpt lat="44.25286" lon="5.57194">
        <ele>1278.1999511719</ele>
        <time>2016-05-07T09:08:19Z</time>
      </trkpt>
      <trkpt lat="44.25286" lon="5.57189">
        <ele>1279.1999511719</ele>
        <time>2016-05-07T09:08:21Z</time>
      </trkpt>
      <trkpt lat="44.25286" lon="5.57185">
        <ele>1279.5999755859</ele>
        <time>2016-05-07T09:08:23Z</time>
      </trkpt>
      <trkpt lat="44.25285" lon="5.57176">
        <ele>1279.5999755859</ele>
        <time>2016-05-07T09:08:27Z</time>
      </trkpt>
      <trkpt lat="44.25281" lon="5.5715">
        <ele>1279.5999755859</ele>
        <time>2016-05-07T09:08:37Z</time>
      </trkpt>
      <trkpt lat="44.2528" lon="5.57123">
        <ele>1279.5999755859</ele>
        <time>2016-05-07T09:08:48Z</time>
      </trkpt>
      <trkpt lat="44.2528" lon="5.5712">
        <ele>1280</ele>
        <time>2016-05-07T09:08:49Z</time>
      </trkpt>
      <trkpt lat="44.25281" lon="5.57118">
        <ele>1280.4000244141</ele>
        <time>2016-05-07T09:08:50Z</time>
      </trkpt>
      <trkpt lat="44.25282" lon="5.57113">
        <ele>1281.1999511719</ele>
        <time>2016-05-07T09:08:52Z</time>
      </trkpt>
      <trkpt lat="44.25282" lon="5.57108">
        <ele>1281.8000488281</ele>
        <time>2016-05-07T09:08:54Z</time>
      </trkpt>
      <trkpt lat="44.25282" lon="5.57098">
        <ele>1282.1999511719</ele>
        <time>2016-05-07T09:08:59Z</time>
      </trkpt>
      <trkpt lat="44.25283" lon="5.57096">
        <ele>1282.1999511719</ele>
        <time>2016-05-07T09:09:00Z</time>
      </trkpt>
      <trkpt lat="44.25284" lon="5.57094">
        <ele>1282.5999755859</ele>
        <time>2016-05-07T09:09:01Z</time>
      </trkpt>
      <trkpt lat="44.25284" lon="5.57087">
        <ele>1283.4000244141</ele>
        <time>2016-05-07T09:09:04Z</time>
      </trkpt>
      <trkpt lat="44.25285" lon="5.57082">
        <ele>1283.8000488281</ele>
        <time>2016-05-07T09:09:06Z</time>
      </trkpt>
      <trkpt lat="44.25285" lon="5.57066">
        <ele>1283.8000488281</ele>
        <time>2016-05-07T09:09:11Z</time>
      </trkpt>
      <trkpt lat="44.25282" lon="5.57041">
        <ele>1283.8000488281</ele>
        <time>2016-05-07T09:09:17Z</time>
      </trkpt>
      <trkpt lat="44.25279" lon="5.57003">
        <ele>1283.8000488281</ele>
        <time>2016-05-07T09:09:25Z</time>
      </trkpt>
      <trkpt lat="44.25279" lon="5.5698">
        <ele>1283.8000488281</ele>
        <time>2016-05-07T09:09:28Z</time>
      </trkpt>
      <trkpt lat="44.2528" lon="5.56972">
        <ele>1283.8000488281</ele>
        <time>2016-05-07T09:09:29Z</time>
      </trkpt>
      <trkpt lat="44.25282" lon="5.56964">
        <ele>1283.8000488281</ele>
        <time>2016-05-07T09:09:30Z</time>
      </trkpt>
      <trkpt lat="44.25287" lon="5.56938">
        <ele>1283.8000488281</ele>
        <time>2016-05-07T09:09:34Z</time>
      </trkpt>
      <trkpt lat="44.25291" lon="5.56918">
        <ele>1283.8000488281</ele>
        <time>2016-05-07T09:09:39Z</time>
      </trkpt>
      <trkpt lat="44.25292" lon="5.56912">
        <ele>1284.1999511719</ele>
        <time>2016-05-07T09:09:41Z</time>
      </trkpt>
      <trkpt lat="44.25292" lon="5.56909">
        <ele>1284.8000488281</ele>
        <time>2016-05-07T09:09:42Z</time>
      </trkpt>
      <trkpt lat="44.25291" lon="5.56901">
        <ele>1285.8000488281</ele>
        <time>2016-05-07T09:09:44Z</time>
      </trkpt>
      <trkpt lat="44.25292" lon="5.56895">
        <ele>1286.4000244141</ele>
        <time>2016-05-07T09:09:46Z</time>
      </trkpt>
      <trkpt lat="44.25297" lon="5.56874">
        <ele>1287.4000244141</ele>
        <time>2016-05-07T09:09:51Z</time>
      </trkpt>
      <trkpt lat="44.25299" lon="5.56864">
        <ele>1287.8000488281</ele>
        <time>2016-05-07T09:09:53Z</time>
      </trkpt>
      <trkpt lat="44.253" lon="5.5686">
        <ele>1288.1999511719</ele>
        <time>2016-05-07T09:09:54Z</time>
      </trkpt>
      <trkpt lat="44.25301" lon="5.5685">
        <ele>1288.5999755859</ele>
        <time>2016-05-07T09:09:56Z</time>
      </trkpt>
      <trkpt lat="44.25303" lon="5.56822">
        <ele>1288.5999755859</ele>
        <time>2016-05-07T09:10:01Z</time>
      </trkpt>
      <trkpt lat="44.25309" lon="5.56796">
        <ele>1288.5999755859</ele>
        <time>2016-05-07T09:10:06Z</time>
      </trkpt>
      <trkpt lat="44.25318" lon="5.5677">
        <ele>1288.5999755859</ele>
        <time>2016-05-07T09:10:13Z</time>
      </trkpt>
      <trkpt lat="44.25325" lon="5.56744">
        <ele>1289.1999511719</ele>
        <time>2016-05-07T09:10:18Z</time>
      </trkpt>
      <trkpt lat="44.25326" lon="5.5674">
        <ele>1289.1999511719</ele>
        <time>2016-05-07T09:10:19Z</time>
      </trkpt>
      <trkpt lat="44.25328" lon="5.56737">
        <ele>1290</ele>
        <time>2016-05-07T09:10:20Z</time>
      </trkpt>
      <trkpt lat="44.25331" lon="5.56731">
        <ele>1290.4000244141</ele>
        <time>2016-05-07T09:10:22Z</time>
      </trkpt>
      <trkpt lat="44.25331" lon="5.56728">
        <ele>1291</ele>
        <time>2016-05-07T09:10:23Z</time>
      </trkpt>
      <trkpt lat="44.25336" lon="5.56721">
        <ele>1291</ele>
        <time>2016-05-07T09:10:26Z</time>
      </trkpt>
      <trkpt lat="44.25346" lon="5.56698">
        <ele>1291.8000488281</ele>
        <time>2016-05-07T09:10:35Z</time>
      </trkpt>
      <trkpt lat="44.25346" lon="5.56695">
        <ele>1291.8000488281</ele>
        <time>2016-05-07T09:10:36Z</time>
      </trkpt>
      <trkpt lat="44.25349" lon="5.5669">
        <ele>1292.1999511719</ele>
        <time>2016-05-07T09:10:38Z</time>
      </trkpt>
      <trkpt lat="44.25351" lon="5.56686">
        <ele>1292.5999755859</ele>
        <time>2016-05-07T09:10:40Z</time>
      </trkpt>
      <trkpt lat="44.25352" lon="5.56681">
        <ele>1293</ele>
        <time>2016-05-07T09:10:42Z</time>
      </trkpt>
      <trkpt lat="44.25355" lon="5.56673">
        <ele>1293</ele>
        <time>2016-05-07T09:10:45Z</time>
      </trkpt>
      <trkpt lat="44.25362" lon="5.56658">
        <ele>1293.4000244141</ele>
        <time>2016-05-07T09:10:52Z</time>
      </trkpt>
      <trkpt lat="44.25364" lon="5.56654">
        <ele>1294.1999511719</ele>
        <time>2016-05-07T09:10:54Z</time>
      </trkpt>
      <trkpt lat="44.25365" lon="5.5665">
        <ele>1295.1999511719</ele>
        <time>2016-05-07T09:10:56Z</time>
      </trkpt>
      <trkpt lat="44.25369" lon="5.5664">
        <ele>1295.1999511719</ele>
        <time>2016-05-07T09:11:00Z</time>
      </trkpt>
      <trkpt lat="44.25375" lon="5.56628">
        <ele>1295.5999755859</ele>
        <time>2016-05-07T09:11:06Z</time>
      </trkpt>
      <trkpt lat="44.25377" lon="5.56623">
        <ele>1296</ele>
        <time>2016-05-07T09:11:08Z</time>
      </trkpt>
      <trkpt lat="44.25378" lon="5.56621">
        <ele>1296.4000244141</ele>
        <time>2016-05-07T09:11:09Z</time>
      </trkpt>
      <trkpt lat="44.2538" lon="5.56618">
        <ele>1297</ele>
        <time>2016-05-07T09:11:11Z</time>
      </trkpt>
      <trkpt lat="44.25382" lon="5.56614">
        <ele>1297.4000244141</ele>
        <time>2016-05-07T09:11:13Z</time>
      </trkpt>
      <trkpt lat="44.25385" lon="5.56609">
        <ele>1297.8000488281</ele>
        <time>2016-05-07T09:11:16Z</time>
      </trkpt>
      <trkpt lat="44.25387" lon="5.56605">
        <ele>1298.1999511719</ele>
        <time>2016-05-07T09:11:18Z</time>
      </trkpt>
      <trkpt lat="44.25388" lon="5.56603">
        <ele>1298.5999755859</ele>
        <time>2016-05-07T09:11:19Z</time>
      </trkpt>
      <trkpt lat="44.25388" lon="5.56601">
        <ele>1299.1999511719</ele>
        <time>2016-05-07T09:11:20Z</time>
      </trkpt>
      <trkpt lat="44.25389" lon="5.56598">
        <ele>1299.5999755859</ele>
        <time>2016-05-07T09:11:21Z</time>
      </trkpt>
      <trkpt lat="44.25394" lon="5.5659">
        <ele>1299.5999755859</ele>
        <time>2016-05-07T09:11:26Z</time>
      </trkpt>
      <trkpt lat="44.25399" lon="5.56576">
        <ele>1300</ele>
        <time>2016-05-07T09:11:33Z</time>
      </trkpt>
      <trkpt lat="44.25401" lon="5.56572">
        <ele>1300.4000244141</ele>
        <time>2016-05-07T09:11:35Z</time>
      </trkpt>
      <trkpt lat="44.25403" lon="5.56568">
        <ele>1300.8000488281</ele>
        <time>2016-05-07T09:11:37Z</time>
      </trkpt>
      <trkpt lat="44.25404" lon="5.56567">
        <ele>1301.1999511719</ele>
        <time>2016-05-07T09:11:38Z</time>
      </trkpt>
      <trkpt lat="44.25406" lon="5.56563">
        <ele>1301.8000488281</ele>
        <time>2016-05-07T09:11:40Z</time>
      </trkpt>
      <trkpt lat="44.2541" lon="5.56553">
        <ele>1301.8000488281</ele>
        <time>2016-05-07T09:11:44Z</time>
      </trkpt>
      <trkpt lat="44.25415" lon="5.56534">
        <ele>1301.8000488281</ele>
        <time>2016-05-07T09:11:50Z</time>
      </trkpt>
      <trkpt lat="44.25427" lon="5.56516">
        <ele>1301.8000488281</ele>
        <time>2016-05-07T09:11:59Z</time>
      </trkpt>
      <trkpt lat="44.25429" lon="5.56512">
        <ele>1302.1999511719</ele>
        <time>2016-05-07T09:12:01Z</time>
      </trkpt>
      <trkpt lat="44.2543" lon="5.56508">
        <ele>1302.5999755859</ele>
        <time>2016-05-07T09:12:02Z</time>
      </trkpt>
      <trkpt lat="44.25431" lon="5.56503">
        <ele>1303</ele>
        <time>2016-05-07T09:12:04Z</time>
      </trkpt>
      <trkpt lat="44.25433" lon="5.56498">
        <ele>1303.4000244141</ele>
        <time>2016-05-07T09:12:06Z</time>
      </trkpt>
      <trkpt lat="44.25434" lon="5.56495">
        <ele>1303.8000488281</ele>
        <time>2016-05-07T09:12:07Z</time>
      </trkpt>
      <trkpt lat="44.25442" lon="5.56471">
        <ele>1303.8000488281</ele>
        <time>2016-05-07T09:12:16Z</time>
      </trkpt>
      <trkpt lat="44.25446" lon="5.56455">
        <ele>1304.5999755859</ele>
        <time>2016-05-07T09:12:21Z</time>
      </trkpt>
      <trkpt lat="44.25447" lon="5.56453">
        <ele>1305</ele>
        <time>2016-05-07T09:12:22Z</time>
      </trkpt>
      <trkpt lat="44.25449" lon="5.56448">
        <ele>1305.4000244141</ele>
        <time>2016-05-07T09:12:24Z</time>
      </trkpt>
      <trkpt lat="44.25453" lon="5.5644">
        <ele>1305.8000488281</ele>
        <time>2016-05-07T09:12:27Z</time>
      </trkpt>
      <trkpt lat="44.25461" lon="5.56418">
        <ele>1305.8000488281</ele>
        <time>2016-05-07T09:12:36Z</time>
      </trkpt>
      <trkpt lat="44.25462" lon="5.56416">
        <ele>1306.1999511719</ele>
        <time>2016-05-07T09:12:37Z</time>
      </trkpt>
      <trkpt lat="44.25463" lon="5.56413">
        <ele>1307.1999511719</ele>
        <time>2016-05-07T09:12:39Z</time>
      </trkpt>
      <trkpt lat="44.25465" lon="5.56409">
        <ele>1307.5999755859</ele>
        <time>2016-05-07T09:12:41Z</time>
      </trkpt>
      <trkpt lat="44.25468" lon="5.56402">
        <ele>1307.5999755859</ele>
        <time>2016-05-07T09:12:45Z</time>
      </trkpt>
      <trkpt lat="44.25474" lon="5.5638">
        <ele>1307.5999755859</ele>
        <time>2016-05-07T09:12:59Z</time>
      </trkpt>
      <trkpt lat="44.25476" lon="5.56374">
        <ele>1309.4000244141</ele>
        <time>2016-05-07T09:13:03Z</time>
      </trkpt>
      <trkpt lat="44.25477" lon="5.56371">
        <ele>1311.8000488281</ele>
        <time>2016-05-07T09:13:05Z</time>
      </trkpt>
      <trkpt lat="44.25478" lon="5.56366">
        <ele>1314.1999511719</ele>
        <time>2016-05-07T09:13:08Z</time>
      </trkpt>
      <trkpt lat="44.25478" lon="5.56364">
        <ele>1314.1999511719</ele>
        <time>2016-05-07T09:13:09Z</time>
      </trkpt>
      <trkpt lat="44.25478" lon="5.56362">
        <ele>1315.4000244141</ele>
        <time>2016-05-07T09:13:10Z</time>
      </trkpt>
      <trkpt lat="44.2548" lon="5.56351">
        <ele>1315.4000244141</ele>
        <time>2016-05-07T09:13:15Z</time>
      </trkpt>
      <trkpt lat="44.25479" lon="5.56344">
        <ele>1315.4000244141</ele>
        <time>2016-05-07T09:13:18Z</time>
      </trkpt>
      <trkpt lat="44.25481" lon="5.56324">
        <ele>1315.8000488281</ele>
        <time>2016-05-07T09:13:27Z</time>
      </trkpt>
      <trkpt lat="44.25482" lon="5.5632">
        <ele>1316.4000244141</ele>
        <time>2016-05-07T09:13:29Z</time>
      </trkpt>
      <trkpt lat="44.25482" lon="5.56317">
        <ele>1316.8000488281</ele>
        <time>2016-05-07T09:13:30Z</time>
      </trkpt>
      <trkpt lat="44.25483" lon="5.56315">
        <ele>1317.1999511719</ele>
        <time>2016-05-07T09:13:31Z</time>
      </trkpt>
      <trkpt lat="44.25484" lon="5.56312">
        <ele>1317.5999755859</ele>
        <time>2016-05-07T09:13:32Z</time>
      </trkpt>
      <trkpt lat="44.25486" lon="5.563">
        <ele>1317.5999755859</ele>
        <time>2016-05-07T09:13:36Z</time>
      </trkpt>
      <trkpt lat="44.25489" lon="5.5627">
        <ele>1317.5999755859</ele>
        <time>2016-05-07T09:13:45Z</time>
      </trkpt>
      <trkpt lat="44.25494" lon="5.56241">
        <ele>1317.5999755859</ele>
        <time>2016-05-07T09:13:51Z</time>
      </trkpt>
      <trkpt lat="44.25499" lon="5.56229">
        <ele>1317.5999755859</ele>
        <time>2016-05-07T09:13:55Z</time>
      </trkpt>
      <trkpt lat="44.25503" lon="5.56218">
        <ele>1318.1999511719</ele>
        <time>2016-05-07T09:14:01Z</time>
      </trkpt>
      <trkpt lat="44.25504" lon="5.56217">
        <ele>1318.1999511719</ele>
        <time>2016-05-07T09:14:02Z</time>
      </trkpt>
      <trkpt lat="44.25505" lon="5.56215">
        <ele>1318.5999755859</ele>
        <time>2016-05-07T09:14:03Z</time>
      </trkpt>
      <trkpt lat="44.25506" lon="5.56212">
        <ele>1319</ele>
        <time>2016-05-07T09:14:05Z</time>
      </trkpt>
      <trkpt lat="44.25507" lon="5.56211">
        <ele>1319.5999755859</ele>
        <time>2016-05-07T09:14:06Z</time>
      </trkpt>
      <trkpt lat="44.25508" lon="5.56207">
        <ele>1320</ele>
        <time>2016-05-07T09:14:08Z</time>
      </trkpt>
      <trkpt lat="44.2551" lon="5.56204">
        <ele>1320.4000244141</ele>
        <time>2016-05-07T09:14:10Z</time>
      </trkpt>
      <trkpt lat="44.25511" lon="5.56201">
        <ele>1320.8000488281</ele>
        <time>2016-05-07T09:14:12Z</time>
      </trkpt>
      <trkpt lat="44.25512" lon="5.56199">
        <ele>1321.1999511719</ele>
        <time>2016-05-07T09:14:13Z</time>
      </trkpt>
      <trkpt lat="44.25513" lon="5.56198">
        <ele>1321.8000488281</ele>
        <time>2016-05-07T09:14:14Z</time>
      </trkpt>
      <trkpt lat="44.25513" lon="5.56196">
        <ele>1322.1999511719</ele>
        <time>2016-05-07T09:14:15Z</time>
      </trkpt>
      <trkpt lat="44.25516" lon="5.5619">
        <ele>1322.1999511719</ele>
        <time>2016-05-07T09:14:18Z</time>
      </trkpt>
      <trkpt lat="44.25517" lon="5.56185">
        <ele>1322.5999755859</ele>
        <time>2016-05-07T09:14:21Z</time>
      </trkpt>
      <trkpt lat="44.25518" lon="5.56183">
        <ele>1323</ele>
        <time>2016-05-07T09:14:22Z</time>
      </trkpt>
      <trkpt lat="44.25518" lon="5.56181">
        <ele>1323.4000244141</ele>
        <time>2016-05-07T09:14:23Z</time>
      </trkpt>
      <trkpt lat="44.2552" lon="5.56178">
        <ele>1324</ele>
        <time>2016-05-07T09:14:25Z</time>
      </trkpt>
      <trkpt lat="44.25521" lon="5.56175">
        <ele>1324.4000244141</ele>
        <time>2016-05-07T09:14:27Z</time>
      </trkpt>
      <trkpt lat="44.25521" lon="5.56173">
        <ele>1324.4000244141</ele>
        <time>2016-05-07T09:14:28Z</time>
      </trkpt>
      <trkpt lat="44.25524" lon="5.56168">
        <ele>1324.8000488281</ele>
        <time>2016-05-07T09:14:32Z</time>
      </trkpt>
      <trkpt lat="44.25525" lon="5.56166">
        <ele>1325.1999511719</ele>
        <time>2016-05-07T09:14:34Z</time>
      </trkpt>
      <trkpt lat="44.25526" lon="5.56165">
        <ele>1325.5999755859</ele>
        <time>2016-05-07T09:14:35Z</time>
      </trkpt>
      <trkpt lat="44.25527" lon="5.56162">
        <ele>1326</ele>
        <time>2016-05-07T09:14:37Z</time>
      </trkpt>
      <trkpt lat="44.25527" lon="5.56161">
        <ele>1326</ele>
        <time>2016-05-07T09:14:38Z</time>
      </trkpt>
      <trkpt lat="44.25528" lon="5.5616">
        <ele>1326.4000244141</ele>
        <time>2016-05-07T09:14:39Z</time>
      </trkpt>
      <trkpt lat="44.2553" lon="5.56156">
        <ele>1326.8000488281</ele>
        <time>2016-05-07T09:14:42Z</time>
      </trkpt>
      <trkpt lat="44.25531" lon="5.56154">
        <ele>1327.1999511719</ele>
        <time>2016-05-07T09:14:44Z</time>
      </trkpt>
      <trkpt lat="44.25533" lon="5.56151">
        <ele>1327.5999755859</ele>
        <time>2016-05-07T09:14:46Z</time>
      </trkpt>
      <trkpt lat="44.25533" lon="5.5615">
        <ele>1328</ele>
        <time>2016-05-07T09:14:47Z</time>
      </trkpt>
      <trkpt lat="44.25534" lon="5.56148">
        <ele>1328.5999755859</ele>
        <time>2016-05-07T09:14:48Z</time>
      </trkpt>
      <trkpt lat="44.25536" lon="5.56137">
        <ele>1329</ele>
        <time>2016-05-07T09:14:56Z</time>
      </trkpt>
      <trkpt lat="44.25537" lon="5.56134">
        <ele>1329.8000488281</ele>
        <time>2016-05-07T09:14:58Z</time>
      </trkpt>
      <trkpt lat="44.25538" lon="5.56131">
        <ele>1330.1999511719</ele>
        <time>2016-05-07T09:15:00Z</time>
      </trkpt>
      <trkpt lat="44.25538" lon="5.56129">
        <ele>1330.5999755859</ele>
        <time>2016-05-07T09:15:01Z</time>
      </trkpt>
      <trkpt lat="44.25541" lon="5.56113">
        <ele>1331</ele>
        <time>2016-05-07T09:15:10Z</time>
      </trkpt>
      <trkpt lat="44.25542" lon="5.56112">
        <ele>1331.4000244141</ele>
        <time>2016-05-07T09:15:11Z</time>
      </trkpt>
      <trkpt lat="44.25542" lon="5.5611">
        <ele>1332.1999511719</ele>
        <time>2016-05-07T09:15:12Z</time>
      </trkpt>
      <trkpt lat="44.25542" lon="5.56108">
        <ele>1332.5999755859</ele>
        <time>2016-05-07T09:15:13Z</time>
      </trkpt>
      <trkpt lat="44.25545" lon="5.56096">
        <ele>1332.5999755859</ele>
        <time>2016-05-07T09:15:19Z</time>
      </trkpt>
      <trkpt lat="44.25554" lon="5.56076">
        <ele>1332.5999755859</ele>
        <time>2016-05-07T09:15:29Z</time>
      </trkpt>
      <trkpt lat="44.25558" lon="5.56059">
        <ele>1333</ele>
        <time>2016-05-07T09:15:36Z</time>
      </trkpt>
      <trkpt lat="44.25559" lon="5.56054">
        <ele>1333.8000488281</ele>
        <time>2016-05-07T09:15:38Z</time>
      </trkpt>
      <trkpt lat="44.25559" lon="5.5605">
        <ele>1334.8000488281</ele>
        <time>2016-05-07T09:15:40Z</time>
      </trkpt>
      <trkpt lat="44.2556" lon="5.56032">
        <ele>1334.8000488281</ele>
        <time>2016-05-07T09:15:47Z</time>
      </trkpt>
      <trkpt lat="44.25559" lon="5.56008">
        <ele>1334.8000488281</ele>
        <time>2016-05-07T09:15:56Z</time>
      </trkpt>
      <trkpt lat="44.25558" lon="5.56005">
        <ele>1335.5999755859</ele>
        <time>2016-05-07T09:15:57Z</time>
      </trkpt>
      <trkpt lat="44.25558" lon="5.56003">
        <ele>1336</ele>
        <time>2016-05-07T09:16:00Z</time>
      </trkpt>
      <trkpt lat="44.25558" lon="5.56002">
        <ele>1337</ele>
        <time>2016-05-07T09:16:02Z</time>
      </trkpt>
      <trkpt lat="44.25558" lon="5.56001">
        <ele>1337</ele>
        <time>2016-05-07T09:16:56Z</time>
      </trkpt>
      <trkpt lat="44.25558" lon="5.56001">
        <ele>1337</ele>
        <time>2016-05-07T09:17:48Z</time>
      </trkpt>
      <trkpt lat="44.25558" lon="5.56001">
        <ele>1337.4000244141</ele>
        <time>2016-05-07T09:18:01Z</time>
      </trkpt>
      <trkpt lat="44.25558" lon="5.56001">
        <ele>1337.8000488281</ele>
        <time>2016-05-07T09:18:02Z</time>
      </trkpt>
      <trkpt lat="44.25558" lon="5.56">
        <ele>1338.1999511719</ele>
        <time>2016-05-07T09:18:04Z</time>
      </trkpt>
      <trkpt lat="44.25558" lon="5.56">
        <ele>1338.1999511719</ele>
        <time>2016-05-07T09:18:05Z</time>
      </trkpt>
      <trkpt lat="44.25558" lon="5.56">
        <ele>1338.5999755859</ele>
        <time>2016-05-07T09:18:06Z</time>
      </trkpt>
      <trkpt lat="44.25558" lon="5.56001">
        <ele>1339</ele>
        <time>2016-05-07T09:18:07Z</time>
      </trkpt>
      <trkpt lat="44.25563" lon="5.55982">
        <ele>1339</ele>
        <time>2016-05-07T09:18:13Z</time>
      </trkpt>
      <trkpt lat="44.25565" lon="5.55961">
        <ele>1339.5999755859</ele>
        <time>2016-05-07T09:18:18Z</time>
      </trkpt>
      <trkpt lat="44.25564" lon="5.55959">
        <ele>1340</ele>
        <time>2016-05-07T09:18:19Z</time>
      </trkpt>
      <trkpt lat="44.25565" lon="5.55954">
        <ele>1340</ele>
        <time>2016-05-07T09:18:20Z</time>
      </trkpt>
      <trkpt lat="44.25565" lon="5.5595">
        <ele>1340.4000244141</ele>
        <time>2016-05-07T09:18:21Z</time>
      </trkpt>
      <trkpt lat="44.25566" lon="5.55944">
        <ele>1341</ele>
        <time>2016-05-07T09:18:23Z</time>
      </trkpt>
      <trkpt lat="44.25566" lon="5.5594">
        <ele>1341.4000244141</ele>
        <time>2016-05-07T09:18:24Z</time>
      </trkpt>
      <trkpt lat="44.25566" lon="5.55927">
        <ele>1341.4000244141</ele>
        <time>2016-05-07T09:18:28Z</time>
      </trkpt>
      <trkpt lat="44.25566" lon="5.55924">
        <ele>1341.8000488281</ele>
        <time>2016-05-07T09:18:29Z</time>
      </trkpt>
      <trkpt lat="44.25566" lon="5.55922">
        <ele>1342.1999511719</ele>
        <time>2016-05-07T09:18:30Z</time>
      </trkpt>
      <trkpt lat="44.25567" lon="5.55919">
        <ele>1342.8000488281</ele>
        <time>2016-05-07T09:18:31Z</time>
      </trkpt>
      <trkpt lat="44.25568" lon="5.55915">
        <ele>1343.1999511719</ele>
        <time>2016-05-07T09:18:33Z</time>
      </trkpt>
      <trkpt lat="44.25568" lon="5.55909">
        <ele>1343.5999755859</ele>
        <time>2016-05-07T09:18:35Z</time>
      </trkpt>
      <trkpt lat="44.25568" lon="5.55903">
        <ele>1343.5999755859</ele>
        <time>2016-05-07T09:18:37Z</time>
      </trkpt>
      <trkpt lat="44.25569" lon="5.55882">
        <ele>1343.5999755859</ele>
        <time>2016-05-07T09:18:44Z</time>
      </trkpt>
      <trkpt lat="44.25569" lon="5.55878">
        <ele>1344</ele>
        <time>2016-05-07T09:18:45Z</time>
      </trkpt>
      <trkpt lat="44.2557" lon="5.55871">
        <ele>1344.4000244141</ele>
        <time>2016-05-07T09:18:47Z</time>
      </trkpt>
      <trkpt lat="44.2557" lon="5.55869">
        <ele>1344.8000488281</ele>
        <time>2016-05-07T09:18:48Z</time>
      </trkpt>
      <trkpt lat="44.25571" lon="5.55865">
        <ele>1345.1999511719</ele>
        <time>2016-05-07T09:18:50Z</time>
      </trkpt>
      <trkpt lat="44.25573" lon="5.55862">
        <ele>1345.8000488281</ele>
        <time>2016-05-07T09:18:52Z</time>
      </trkpt>
      <trkpt lat="44.25576" lon="5.5585">
        <ele>1346.1999511719</ele>
        <time>2016-05-07T09:18:57Z</time>
      </trkpt>
      <trkpt lat="44.25577" lon="5.55846">
        <ele>1346.5999755859</ele>
        <time>2016-05-07T09:18:59Z</time>
      </trkpt>
      <trkpt lat="44.25578" lon="5.55844">
        <ele>1347</ele>
        <time>2016-05-07T09:19:00Z</time>
      </trkpt>
      <trkpt lat="44.25579" lon="5.55841">
        <ele>1347.4000244141</ele>
        <time>2016-05-07T09:19:01Z</time>
      </trkpt>
      <trkpt lat="44.25579" lon="5.55839">
        <ele>1347.8000488281</ele>
        <time>2016-05-07T09:19:02Z</time>
      </trkpt>
      <trkpt lat="44.25587" lon="5.55819">
        <ele>1347.8000488281</ele>
        <time>2016-05-07T09:19:11Z</time>
      </trkpt>
      <trkpt lat="44.25588" lon="5.55817">
        <ele>1348.1999511719</ele>
        <time>2016-05-07T09:19:12Z</time>
      </trkpt>
      <trkpt lat="44.25589" lon="5.55813">
        <ele>1349</ele>
        <time>2016-05-07T09:19:14Z</time>
      </trkpt>
      <trkpt lat="44.25591" lon="5.55805">
        <ele>1349.8000488281</ele>
        <time>2016-05-07T09:19:17Z</time>
      </trkpt>
      <trkpt lat="44.25592" lon="5.55802">
        <ele>1349.8000488281</ele>
        <time>2016-05-07T09:19:18Z</time>
      </trkpt>
      <trkpt lat="44.25596" lon="5.55797">
        <ele>1349.8000488281</ele>
        <time>2016-05-07T09:19:20Z</time>
      </trkpt>
      <trkpt lat="44.25603" lon="5.5579">
        <ele>1349.8000488281</ele>
        <time>2016-05-07T09:19:23Z</time>
      </trkpt>
      <trkpt lat="44.25612" lon="5.55778">
        <ele>1350.1999511719</ele>
        <time>2016-05-07T09:19:28Z</time>
      </trkpt>
      <trkpt lat="44.25618" lon="5.5577">
        <ele>1351</ele>
        <time>2016-05-07T09:19:31Z</time>
      </trkpt>
      <trkpt lat="44.25623" lon="5.55766">
        <ele>1352</ele>
        <time>2016-05-07T09:19:33Z</time>
      </trkpt>
      <trkpt lat="44.25637" lon="5.55747">
        <ele>1352</ele>
        <time>2016-05-07T09:19:40Z</time>
      </trkpt>
      <trkpt lat="44.25652" lon="5.55727">
        <ele>1352</ele>
        <time>2016-05-07T09:19:46Z</time>
      </trkpt>
      <trkpt lat="44.2567" lon="5.55699">
        <ele>1352</ele>
        <time>2016-05-07T09:19:53Z</time>
      </trkpt>
      <trkpt lat="44.25683" lon="5.55673">
        <ele>1352</ele>
        <time>2016-05-07T09:19:59Z</time>
      </trkpt>
      <trkpt lat="44.25691" lon="5.55657">
        <ele>1352.4000244141</ele>
        <time>2016-05-07T09:20:04Z</time>
      </trkpt>
      <trkpt lat="44.25693" lon="5.55654">
        <ele>1352.8000488281</ele>
        <time>2016-05-07T09:20:05Z</time>
      </trkpt>
      <trkpt lat="44.25695" lon="5.5565">
        <ele>1352.8000488281</ele>
        <time>2016-05-07T09:20:06Z</time>
      </trkpt>
      <trkpt lat="44.25697" lon="5.55646">
        <ele>1353.1999511719</ele>
        <time>2016-05-07T09:20:07Z</time>
      </trkpt>
      <trkpt lat="44.25702" lon="5.55638">
        <ele>1353.5999755859</ele>
        <time>2016-05-07T09:20:09Z</time>
      </trkpt>
      <trkpt lat="44.25708" lon="5.55631">
        <ele>1354</ele>
        <time>2016-05-07T09:20:11Z</time>
      </trkpt>
      <trkpt lat="44.25716" lon="5.55623">
        <ele>1354</ele>
        <time>2016-05-07T09:20:14Z</time>
      </trkpt>
      <trkpt lat="44.25738" lon="5.55593">
        <ele>1354</ele>
        <time>2016-05-07T09:20:22Z</time>
      </trkpt>
      <trkpt lat="44.25751" lon="5.55575">
        <ele>1354</ele>
        <time>2016-05-07T09:20:28Z</time>
      </trkpt>
      <trkpt lat="44.25753" lon="5.55568">
        <ele>1354</ele>
        <time>2016-05-07T09:20:30Z</time>
      </trkpt>
      <trkpt lat="44.2575" lon="5.55561">
        <ele>1354</ele>
        <time>2016-05-07T09:20:32Z</time>
      </trkpt>
      <trkpt lat="44.25743" lon="5.55548">
        <ele>1354</ele>
        <time>2016-05-07T09:20:35Z</time>
      </trkpt>
      <trkpt lat="44.25742" lon="5.55538">
        <ele>1354.4000244141</ele>
        <time>2016-05-07T09:20:37Z</time>
      </trkpt>
      <trkpt lat="44.25742" lon="5.55533">
        <ele>1354.8000488281</ele>
        <time>2016-05-07T09:20:38Z</time>
      </trkpt>
      <trkpt lat="44.25741" lon="5.55525">
        <ele>1355.8000488281</ele>
        <time>2016-05-07T09:20:40Z</time>
      </trkpt>
      <trkpt lat="44.25741" lon="5.55518">
        <ele>1356.1999511719</ele>
        <time>2016-05-07T09:20:42Z</time>
      </trkpt>
      <trkpt lat="44.2574" lon="5.55516">
        <ele>1356.5999755859</ele>
        <time>2016-05-07T09:20:43Z</time>
      </trkpt>
      <trkpt lat="44.25739" lon="5.55511">
        <ele>1357.5999755859</ele>
        <time>2016-05-07T09:20:45Z</time>
      </trkpt>
      <trkpt lat="44.25738" lon="5.55511">
        <ele>1358.1999511719</ele>
        <time>2016-05-07T09:20:47Z</time>
      </trkpt>
      <trkpt lat="44.25738" lon="5.55511">
        <ele>1358.1999511719</ele>
        <time>2016-05-07T09:20:48Z</time>
      </trkpt>
      <trkpt lat="44.25738" lon="5.55511">
        <ele>1358.5999755859</ele>
        <time>2016-05-07T09:20:50Z</time>
      </trkpt>
      <trkpt lat="44.25738" lon="5.55511">
        <ele>1358.5999755859</ele>
        <time>2016-05-07T09:22:37Z</time>
      </trkpt>
      <trkpt lat="44.25739" lon="5.55509">
        <ele>1358.5999755859</ele>
        <time>2016-05-07T09:23:55Z</time>
      </trkpt>
      <trkpt lat="44.2574" lon="5.55504">
        <ele>1358.5999755859</ele>
        <time>2016-05-07T09:23:57Z</time>
      </trkpt>
      <trkpt lat="44.2574" lon="5.55492">
        <ele>1359.4000244141</ele>
        <time>2016-05-07T09:24:01Z</time>
      </trkpt>
      <trkpt lat="44.25739" lon="5.55489">
        <ele>1359.4000244141</ele>
        <time>2016-05-07T09:24:02Z</time>
      </trkpt>
      <trkpt lat="44.25739" lon="5.55486">
        <ele>1360.4000244141</ele>
        <time>2016-05-07T09:24:03Z</time>
      </trkpt>
      <trkpt lat="44.25735" lon="5.55479">
        <ele>1360.8000488281</ele>
        <time>2016-05-07T09:24:06Z</time>
      </trkpt>
      <trkpt lat="44.25733" lon="5.55475">
        <ele>1360.8000488281</ele>
        <time>2016-05-07T09:24:08Z</time>
      </trkpt>
      <trkpt lat="44.25731" lon="5.55471">
        <ele>1361.1999511719</ele>
        <time>2016-05-07T09:24:10Z</time>
      </trkpt>
      <trkpt lat="44.25727" lon="5.55466">
        <ele>1362.1999511719</ele>
        <time>2016-05-07T09:24:13Z</time>
      </trkpt>
      <trkpt lat="44.25726" lon="5.55464">
        <ele>1362.1999511719</ele>
        <time>2016-05-07T09:24:14Z</time>
      </trkpt>
      <trkpt lat="44.25724" lon="5.55463">
        <ele>1363.1999511719</ele>
        <time>2016-05-07T09:24:15Z</time>
      </trkpt>
      <trkpt lat="44.25724" lon="5.55462">
        <ele>1363.1999511719</ele>
        <time>2016-05-07T09:24:16Z</time>
      </trkpt>
      <trkpt lat="44.25719" lon="5.55452">
        <ele>1364.1999511719</ele>
        <time>2016-05-07T09:24:22Z</time>
      </trkpt>
      <trkpt lat="44.25716" lon="5.55447">
        <ele>1364.5999755859</ele>
        <time>2016-05-07T09:24:25Z</time>
      </trkpt>
      <trkpt lat="44.25714" lon="5.55444">
        <ele>1365.5999755859</ele>
        <time>2016-05-07T09:24:27Z</time>
      </trkpt>
      <trkpt lat="44.25706" lon="5.55433">
        <ele>1366.4000244141</ele>
        <time>2016-05-07T09:24:35Z</time>
      </trkpt>
      <trkpt lat="44.25704" lon="5.55428">
        <ele>1366.8000488281</ele>
        <time>2016-05-07T09:24:38Z</time>
      </trkpt>
      <trkpt lat="44.25703" lon="5.55425">
        <ele>1367.8000488281</ele>
        <time>2016-05-07T09:24:40Z</time>
      </trkpt>
      <trkpt lat="44.257" lon="5.55421">
        <ele>1367.8000488281</ele>
        <time>2016-05-07T09:24:43Z</time>
      </trkpt>
      <trkpt lat="44.25692" lon="5.55409">
        <ele>1367.8000488281</ele>
        <time>2016-05-07T09:24:51Z</time>
      </trkpt>
      <trkpt lat="44.25692" lon="5.55408">
        <ele>1368.1999511719</ele>
        <time>2016-05-07T09:24:52Z</time>
      </trkpt>
      <trkpt lat="44.25689" lon="5.55404">
        <ele>1369.4000244141</ele>
        <time>2016-05-07T09:24:55Z</time>
      </trkpt>
      <trkpt lat="44.25687" lon="5.55402">
        <ele>1369.8000488281</ele>
        <time>2016-05-07T09:24:57Z</time>
      </trkpt>
      <trkpt lat="44.25685" lon="5.554">
        <ele>1370.4000244141</ele>
        <time>2016-05-07T09:24:59Z</time>
      </trkpt>
      <trkpt lat="44.25677" lon="5.55389">
        <ele>1371.1999511719</ele>
        <time>2016-05-07T09:25:07Z</time>
      </trkpt>
      <trkpt lat="44.25676" lon="5.55388">
        <ele>1371.1999511719</ele>
        <time>2016-05-07T09:25:08Z</time>
      </trkpt>
      <trkpt lat="44.25676" lon="5.55387">
        <ele>1371.5999755859</ele>
        <time>2016-05-07T09:25:09Z</time>
      </trkpt>
      <trkpt lat="44.25674" lon="5.55384">
        <ele>1372.1999511719</ele>
        <time>2016-05-07T09:25:11Z</time>
      </trkpt>
      <trkpt lat="44.25673" lon="5.55383">
        <ele>1372.5999755859</ele>
        <time>2016-05-07T09:25:12Z</time>
      </trkpt>
      <trkpt lat="44.25671" lon="5.55377">
        <ele>1372.5999755859</ele>
        <time>2016-05-07T09:25:16Z</time>
      </trkpt>
      <trkpt lat="44.25667" lon="5.55371">
        <ele>1373</ele>
        <time>2016-05-07T09:25:21Z</time>
      </trkpt>
      <trkpt lat="44.25665" lon="5.55369">
        <ele>1373.4000244141</ele>
        <time>2016-05-07T09:25:23Z</time>
      </trkpt>
      <trkpt lat="44.25664" lon="5.55368">
        <ele>1373.8000488281</ele>
        <time>2016-05-07T09:25:24Z</time>
      </trkpt>
      <trkpt lat="44.25663" lon="5.55366">
        <ele>1374.4000244141</ele>
        <time>2016-05-07T09:25:26Z</time>
      </trkpt>
      <trkpt lat="44.25661" lon="5.55364">
        <ele>1374.8000488281</ele>
        <time>2016-05-07T09:25:28Z</time>
      </trkpt>
      <trkpt lat="44.2566" lon="5.55362">
        <ele>1375.1999511719</ele>
        <time>2016-05-07T09:25:30Z</time>
      </trkpt>
      <trkpt lat="44.2566" lon="5.55361">
        <ele>1375.5999755859</ele>
        <time>2016-05-07T09:25:31Z</time>
      </trkpt>
      <trkpt lat="44.25658" lon="5.5536">
        <ele>1375.5999755859</ele>
        <time>2016-05-07T09:25:32Z</time>
      </trkpt>
      <trkpt lat="44.25657" lon="5.55359">
        <ele>1376.1999511719</ele>
        <time>2016-05-07T09:25:33Z</time>
      </trkpt>
      <trkpt lat="44.25655" lon="5.55357">
        <ele>1376.5999755859</ele>
        <time>2016-05-07T09:25:35Z</time>
      </trkpt>
      <trkpt lat="44.25654" lon="5.55356">
        <ele>1377</ele>
        <time>2016-05-07T09:25:36Z</time>
      </trkpt>
      <trkpt lat="44.25652" lon="5.55353">
        <ele>1377.8000488281</ele>
        <time>2016-05-07T09:25:38Z</time>
      </trkpt>
      <trkpt lat="44.25652" lon="5.5535">
        <ele>1378.1999511719</ele>
        <time>2016-05-07T09:25:40Z</time>
      </trkpt>
      <trkpt lat="44.25652" lon="5.55349">
        <ele>1378.5999755859</ele>
        <time>2016-05-07T09:25:41Z</time>
      </trkpt>
      <trkpt lat="44.25651" lon="5.55346">
        <ele>1379</ele>
        <time>2016-05-07T09:25:43Z</time>
      </trkpt>
      <trkpt lat="44.2565" lon="5.55345">
        <ele>1379</ele>
        <time>2016-05-07T09:25:44Z</time>
      </trkpt>
      <trkpt lat="44.25649" lon="5.55338">
        <ele>1379.4000244141</ele>
        <time>2016-05-07T09:25:48Z</time>
      </trkpt>
      <trkpt lat="44.25651" lon="5.55334">
        <ele>1380.4000244141</ele>
        <time>2016-05-07T09:25:51Z</time>
      </trkpt>
      <trkpt lat="44.25653" lon="5.5533">
        <ele>1380.8000488281</ele>
        <time>2016-05-07T09:25:53Z</time>
      </trkpt>
      <trkpt lat="44.25653" lon="5.55329">
        <ele>1381.1999511719</ele>
        <time>2016-05-07T09:25:54Z</time>
      </trkpt>
      <trkpt lat="44.25653" lon="5.55327">
        <ele>1381.1999511719</ele>
        <time>2016-05-07T09:25:55Z</time>
      </trkpt>
      <trkpt lat="44.25654" lon="5.55309">
        <ele>1381.5999755859</ele>
        <time>2016-05-07T09:26:04Z</time>
      </trkpt>
      <trkpt lat="44.25654" lon="5.55306">
        <ele>1381.5999755859</ele>
        <time>2016-05-07T09:26:06Z</time>
      </trkpt>
      <trkpt lat="44.25653" lon="5.55305">
        <ele>1382</ele>
        <time>2016-05-07T09:26:07Z</time>
      </trkpt>
      <trkpt lat="44.25653" lon="5.55303">
        <ele>1382.4000244141</ele>
        <time>2016-05-07T09:26:08Z</time>
      </trkpt>
      <trkpt lat="44.2565" lon="5.55299">
        <ele>1383.4000244141</ele>
        <time>2016-05-07T09:26:11Z</time>
      </trkpt>
      <trkpt lat="44.25649" lon="5.55299">
        <ele>1383.4000244141</ele>
        <time>2016-05-07T09:26:12Z</time>
      </trkpt>
      <trkpt lat="44.25648" lon="5.55297">
        <ele>1383.4000244141</ele>
        <time>2016-05-07T09:26:13Z</time>
      </trkpt>
      <trkpt lat="44.25645" lon="5.55291">
        <ele>1384.1999511719</ele>
        <time>2016-05-07T09:26:18Z</time>
      </trkpt>
      <trkpt lat="44.25643" lon="5.55287">
        <ele>1384.8000488281</ele>
        <time>2016-05-07T09:26:21Z</time>
      </trkpt>
      <trkpt lat="44.25637" lon="5.55286">
        <ele>1385.8000488281</ele>
        <time>2016-05-07T09:26:25Z</time>
      </trkpt>
      <trkpt lat="44.25634" lon="5.55287">
        <ele>1386.4000244141</ele>
        <time>2016-05-07T09:26:28Z</time>
      </trkpt>
      <trkpt lat="44.25632" lon="5.55288">
        <ele>1386.8000488281</ele>
        <time>2016-05-07T09:26:29Z</time>
      </trkpt>
      <trkpt lat="44.2563" lon="5.55285">
        <ele>1387.8000488281</ele>
        <time>2016-05-07T09:26:32Z</time>
      </trkpt>
      <trkpt lat="44.25631" lon="5.55283">
        <ele>1387.8000488281</ele>
        <time>2016-05-07T09:26:33Z</time>
      </trkpt>
      <trkpt lat="44.25631" lon="5.55282">
        <ele>1387.8000488281</ele>
        <time>2016-05-07T09:26:39Z</time>
      </trkpt>
      <trkpt lat="44.25631" lon="5.55282">
        <ele>1387.8000488281</ele>
        <time>2016-05-07T09:28:28Z</time>
      </trkpt>
      <trkpt lat="44.25629" lon="5.55281">
        <ele>1387.8000488281</ele>
        <time>2016-05-07T09:29:13Z</time>
      </trkpt>
      <trkpt lat="44.25628" lon="5.55278">
        <ele>1387.8000488281</ele>
        <time>2016-05-07T09:29:15Z</time>
      </trkpt>
      <trkpt lat="44.25628" lon="5.55275">
        <ele>1387.8000488281</ele>
        <time>2016-05-07T09:29:17Z</time>
      </trkpt>
      <trkpt lat="44.25624" lon="5.55262">
        <ele>1387.8000488281</ele>
        <time>2016-05-07T09:29:24Z</time>
      </trkpt>
      <trkpt lat="44.25619" lon="5.55248">
        <ele>1387.8000488281</ele>
        <time>2016-05-07T09:29:30Z</time>
      </trkpt>
      <trkpt lat="44.25617" lon="5.55244">
        <ele>1388.4000244141</ele>
        <time>2016-05-07T09:29:32Z</time>
      </trkpt>
      <trkpt lat="44.25616" lon="5.55242">
        <ele>1389</ele>
        <time>2016-05-07T09:29:33Z</time>
      </trkpt>
      <trkpt lat="44.25614" lon="5.55236">
        <ele>1389.4000244141</ele>
        <time>2016-05-07T09:29:36Z</time>
      </trkpt>
      <trkpt lat="44.25611" lon="5.5523">
        <ele>1390</ele>
        <time>2016-05-07T09:29:39Z</time>
      </trkpt>
      <trkpt lat="44.2561" lon="5.55228">
        <ele>1390.4000244141</ele>
        <time>2016-05-07T09:29:40Z</time>
      </trkpt>
      <trkpt lat="44.25608" lon="5.55224">
        <ele>1390.8000488281</ele>
        <time>2016-05-07T09:29:43Z</time>
      </trkpt>
      <trkpt lat="44.25607" lon="5.55218">
        <ele>1391.1999511719</ele>
        <time>2016-05-07T09:29:46Z</time>
      </trkpt>
      <trkpt lat="44.25605" lon="5.55217">
        <ele>1391.8000488281</ele>
        <time>2016-05-07T09:29:47Z</time>
      </trkpt>
      <trkpt lat="44.25605" lon="5.55215">
        <ele>1391.8000488281</ele>
        <time>2016-05-07T09:29:48Z</time>
      </trkpt>
      <trkpt lat="44.25604" lon="5.55212">
        <ele>1392.1999511719</ele>
        <time>2016-05-07T09:29:50Z</time>
      </trkpt>
      <trkpt lat="44.25603" lon="5.55207">
        <ele>1392.8000488281</ele>
        <time>2016-05-07T09:29:53Z</time>
      </trkpt>
      <trkpt lat="44.25602" lon="5.55206">
        <ele>1393.1999511719</ele>
        <time>2016-05-07T09:29:54Z</time>
      </trkpt>
      <trkpt lat="44.256" lon="5.55201">
        <ele>1393.8000488281</ele>
        <time>2016-05-07T09:29:57Z</time>
      </trkpt>
      <trkpt lat="44.25598" lon="5.55197">
        <ele>1394.1999511719</ele>
        <time>2016-05-07T09:30:00Z</time>
      </trkpt>
      <trkpt lat="44.25597" lon="5.55196">
        <ele>1394.8000488281</ele>
        <time>2016-05-07T09:30:01Z</time>
      </trkpt>
      <trkpt lat="44.25592" lon="5.55187">
        <ele>1394.8000488281</ele>
        <time>2016-05-07T09:30:07Z</time>
      </trkpt>
      <trkpt lat="44.25591" lon="5.55185">
        <ele>1395.1999511719</ele>
        <time>2016-05-07T09:30:08Z</time>
      </trkpt>
      <trkpt lat="44.25591" lon="5.5518">
        <ele>1395.5999755859</ele>
        <time>2016-05-07T09:30:11Z</time>
      </trkpt>
      <trkpt lat="44.25591" lon="5.55178">
        <ele>1395.5999755859</ele>
        <time>2016-05-07T09:30:12Z</time>
      </trkpt>
      <trkpt lat="44.25591" lon="5.55175">
        <ele>1396.1999511719</ele>
        <time>2016-05-07T09:30:14Z</time>
      </trkpt>
      <trkpt lat="44.2559" lon="5.55173">
        <ele>1396.5999755859</ele>
        <time>2016-05-07T09:30:15Z</time>
      </trkpt>
      <trkpt lat="44.25591" lon="5.55167">
        <ele>1397</ele>
        <time>2016-05-07T09:30:18Z</time>
      </trkpt>
      <trkpt lat="44.2559" lon="5.55163">
        <ele>1397.4000244141</ele>
        <time>2016-05-07T09:30:21Z</time>
      </trkpt>
      <trkpt lat="44.2559" lon="5.55161">
        <ele>1397.8000488281</ele>
        <time>2016-05-07T09:30:22Z</time>
      </trkpt>
      <trkpt lat="44.2559" lon="5.55159">
        <ele>1397.8000488281</ele>
        <time>2016-05-07T09:30:23Z</time>
      </trkpt>
      <trkpt lat="44.25589" lon="5.55156">
        <ele>1398.8000488281</ele>
        <time>2016-05-07T09:30:25Z</time>
      </trkpt>
      <trkpt lat="44.2559" lon="5.55151">
        <ele>1399.1999511719</ele>
        <time>2016-05-07T09:30:28Z</time>
      </trkpt>
      <trkpt lat="44.25589" lon="5.5514">
        <ele>1399.1999511719</ele>
        <time>2016-05-07T09:30:35Z</time>
      </trkpt>
      <trkpt lat="44.25591" lon="5.55134">
        <ele>1400</ele>
        <time>2016-05-07T09:30:39Z</time>
      </trkpt>
      <trkpt lat="44.25591" lon="5.5513">
        <ele>1400.5999755859</ele>
        <time>2016-05-07T09:30:42Z</time>
      </trkpt>
      <trkpt lat="44.25591" lon="5.55128">
        <ele>1401.4000244141</ele>
        <time>2016-05-07T09:30:43Z</time>
      </trkpt>
      <trkpt lat="44.25591" lon="5.55123">
        <ele>1402.4000244141</ele>
        <time>2016-05-07T09:30:46Z</time>
      </trkpt>
      <trkpt lat="44.25591" lon="5.55119">
        <ele>1403.1999511719</ele>
        <time>2016-05-07T09:30:49Z</time>
      </trkpt>
      <trkpt lat="44.25591" lon="5.55117">
        <ele>1404</ele>
        <time>2016-05-07T09:30:50Z</time>
      </trkpt>
      <trkpt lat="44.25591" lon="5.55113">
        <ele>1405</ele>
        <time>2016-05-07T09:30:53Z</time>
      </trkpt>
      <trkpt lat="44.25591" lon="5.55094">
        <ele>1405</ele>
        <time>2016-05-07T09:31:04Z</time>
      </trkpt>
      <trkpt lat="44.25589" lon="5.55082">
        <ele>1405.4000244141</ele>
        <time>2016-05-07T09:31:11Z</time>
      </trkpt>
      <trkpt lat="44.25588" lon="5.55077">
        <ele>1405.8000488281</ele>
        <time>2016-05-07T09:31:14Z</time>
      </trkpt>
      <trkpt lat="44.25587" lon="5.55076">
        <ele>1406.4000244141</ele>
        <time>2016-05-07T09:31:15Z</time>
      </trkpt>
      <trkpt lat="44.25588" lon="5.55071">
        <ele>1406.8000488281</ele>
        <time>2016-05-07T09:31:18Z</time>
      </trkpt>
      <trkpt lat="44.25589" lon="5.55066">
        <ele>1407.4000244141</ele>
        <time>2016-05-07T09:31:21Z</time>
      </trkpt>
      <trkpt lat="44.25589" lon="5.55064">
        <ele>1408</ele>
        <time>2016-05-07T09:31:22Z</time>
      </trkpt>
      <trkpt lat="44.25589" lon="5.55061">
        <ele>1408</ele>
        <time>2016-05-07T09:31:24Z</time>
      </trkpt>
      <trkpt lat="44.25589" lon="5.5506">
        <ele>1409</ele>
        <time>2016-05-07T09:31:25Z</time>
      </trkpt>
      <trkpt lat="44.25588" lon="5.55055">
        <ele>1409.5999755859</ele>
        <time>2016-05-07T09:31:28Z</time>
      </trkpt>
      <trkpt lat="44.25589" lon="5.55054">
        <ele>1410.1999511719</ele>
        <time>2016-05-07T09:31:29Z</time>
      </trkpt>
      <trkpt lat="44.25589" lon="5.55049">
        <ele>1411.1999511719</ele>
        <time>2016-05-07T09:31:32Z</time>
      </trkpt>
      <trkpt lat="44.2559" lon="5.55044">
        <ele>1411.8000488281</ele>
        <time>2016-05-07T09:31:35Z</time>
      </trkpt>
      <trkpt lat="44.2559" lon="5.55043">
        <ele>1411.8000488281</ele>
        <time>2016-05-07T09:31:36Z</time>
      </trkpt>
      <trkpt lat="44.25591" lon="5.55027">
        <ele>1411.8000488281</ele>
        <time>2016-05-07T09:31:46Z</time>
      </trkpt>
      <trkpt lat="44.25591" lon="5.55025">
        <ele>1412.1999511719</ele>
        <time>2016-05-07T09:31:47Z</time>
      </trkpt>
      <trkpt lat="44.25591" lon="5.5502">
        <ele>1412.5999755859</ele>
        <time>2016-05-07T09:31:50Z</time>
      </trkpt>
      <trkpt lat="44.25591" lon="5.55014">
        <ele>1413</ele>
        <time>2016-05-07T09:31:54Z</time>
      </trkpt>
      <trkpt lat="44.25591" lon="5.55009">
        <ele>1413</ele>
        <time>2016-05-07T09:31:56Z</time>
      </trkpt>
      <trkpt lat="44.2559" lon="5.55007">
        <ele>1413.4000244141</ele>
        <time>2016-05-07T09:31:57Z</time>
      </trkpt>
      <trkpt lat="44.2559" lon="5.54997">
        <ele>1413.8000488281</ele>
        <time>2016-05-07T09:32:01Z</time>
      </trkpt>
      <trkpt lat="44.25591" lon="5.54987">
        <ele>1413.8000488281</ele>
        <time>2016-05-07T09:32:04Z</time>
      </trkpt>
      <trkpt lat="44.25588" lon="5.54962">
        <ele>1413.8000488281</ele>
        <time>2016-05-07T09:32:13Z</time>
      </trkpt>
      <trkpt lat="44.25588" lon="5.54962">
        <ele>1413.8000488281</ele>
        <time>2016-05-07T09:32:18Z</time>
      </trkpt>
      <trkpt lat="44.25587" lon="5.54962">
        <ele>1412.8000488281</ele>
        <time>2016-05-07T09:36:10Z</time>
      </trkpt>
      <trkpt lat="44.25587" lon="5.54962">
        <ele>1412</ele>
        <time>2016-05-07T09:36:13Z</time>
      </trkpt>
      <trkpt lat="44.25587" lon="5.54962">
        <ele>1411.5999755859</ele>
        <time>2016-05-07T09:36:16Z</time>
      </trkpt>
      <trkpt lat="44.25587" lon="5.54962">
        <ele>1412</ele>
        <time>2016-05-07T09:36:17Z</time>
      </trkpt>
      <trkpt lat="44.25587" lon="5.54962">
        <ele>1412.8000488281</ele>
        <time>2016-05-07T09:36:20Z</time>
      </trkpt>
      <trkpt lat="44.25587" lon="5.54962">
        <ele>1413.5999755859</ele>
        <time>2016-05-07T09:36:24Z</time>
      </trkpt>
      <trkpt lat="44.25587" lon="5.54962">
        <ele>1414.1999511719</ele>
        <time>2016-05-07T09:36:34Z</time>
      </trkpt>
      <trkpt lat="44.25587" lon="5.54962">
        <ele>1415</ele>
        <time>2016-05-07T09:36:38Z</time>
      </trkpt>
      <trkpt lat="44.25587" lon="5.54962">
        <ele>1415.4000244141</ele>
        <time>2016-05-07T09:36:41Z</time>
      </trkpt>
      <trkpt lat="44.25587" lon="5.54962">
        <ele>1415.8000488281</ele>
        <time>2016-05-07T09:36:45Z</time>
      </trkpt>
      <trkpt lat="44.2559" lon="5.54957">
        <ele>1415.8000488281</ele>
        <time>2016-05-07T09:37:00Z</time>
      </trkpt>
      <trkpt lat="44.2559" lon="5.54957">
        <ele>1415.8000488281</ele>
        <time>2016-05-07T09:37:07Z</time>
      </trkpt>
      <trkpt lat="44.25592" lon="5.54945">
        <ele>1415.8000488281</ele>
        <time>2016-05-07T09:37:51Z</time>
      </trkpt>
      <trkpt lat="44.25592" lon="5.54913">
        <ele>1415.8000488281</ele>
        <time>2016-05-07T09:37:59Z</time>
      </trkpt>
      <trkpt lat="44.25584" lon="5.54883">
        <ele>1415.4000244141</ele>
        <time>2016-05-07T09:38:05Z</time>
      </trkpt>
      <trkpt lat="44.2557" lon="5.54859">
        <ele>1414.5999755859</ele>
        <time>2016-05-07T09:38:08Z</time>
      </trkpt>
      <trkpt lat="44.25552" lon="5.54827">
        <ele>1412</ele>
        <time>2016-05-07T09:38:12Z</time>
      </trkpt>
      <trkpt lat="44.2555" lon="5.54819">
        <ele>1412</ele>
        <time>2016-05-07T09:38:13Z</time>
      </trkpt>
      <trkpt lat="44.25547" lon="5.54803">
        <ele>1410.5999755859</ele>
        <time>2016-05-07T09:38:15Z</time>
      </trkpt>
      <trkpt lat="44.25542" lon="5.5478">
        <ele>1410.5999755859</ele>
        <time>2016-05-07T09:38:18Z</time>
      </trkpt>
      <trkpt lat="44.25541" lon="5.54775">
        <ele>1408</ele>
        <time>2016-05-07T09:38:19Z</time>
      </trkpt>
      <trkpt lat="44.25538" lon="5.54765">
        <ele>1408</ele>
        <time>2016-05-07T09:38:21Z</time>
      </trkpt>
      <trkpt lat="44.25537" lon="5.54761">
        <ele>1406.4000244141</ele>
        <time>2016-05-07T09:38:22Z</time>
      </trkpt>
      <trkpt lat="44.25534" lon="5.54749">
        <ele>1403.1999511719</ele>
        <time>2016-05-07T09:38:26Z</time>
      </trkpt>
      <trkpt lat="44.25533" lon="5.54747">
        <ele>1403.1999511719</ele>
        <time>2016-05-07T09:38:27Z</time>
      </trkpt>
      <trkpt lat="44.25532" lon="5.54742">
        <ele>1401.5999755859</ele>
        <time>2016-05-07T09:38:29Z</time>
      </trkpt>
      <trkpt lat="44.25529" lon="5.54732">
        <ele>1398.8000488281</ele>
        <time>2016-05-07T09:38:33Z</time>
      </trkpt>
      <trkpt lat="44.25529" lon="5.54726">
        <ele>1398.8000488281</ele>
        <time>2016-05-07T09:38:35Z</time>
      </trkpt>
      <trkpt lat="44.25529" lon="5.54723">
        <ele>1397.4000244141</ele>
        <time>2016-05-07T09:38:36Z</time>
      </trkpt>
      <trkpt lat="44.25533" lon="5.54705">
        <ele>1394.5999755859</ele>
        <time>2016-05-07T09:38:40Z</time>
      </trkpt>
      <trkpt lat="44.25534" lon="5.54699">
        <ele>1394.5999755859</ele>
        <time>2016-05-07T09:38:41Z</time>
      </trkpt>
      <trkpt lat="44.25538" lon="5.54684">
        <ele>1391.5999755859</ele>
        <time>2016-05-07T09:38:43Z</time>
      </trkpt>
      <trkpt lat="44.25546" lon="5.54659">
        <ele>1391.5999755859</ele>
        <time>2016-05-07T09:38:46Z</time>
      </trkpt>
      <trkpt lat="44.25548" lon="5.54649">
        <ele>1388.8000488281</ele>
        <time>2016-05-07T09:38:47Z</time>
      </trkpt>
      <trkpt lat="44.25553" lon="5.54621">
        <ele>1385.5999755859</ele>
        <time>2016-05-07T09:38:50Z</time>
      </trkpt>
      <trkpt lat="44.25558" lon="5.54602">
        <ele>1385.5999755859</ele>
        <time>2016-05-07T09:38:52Z</time>
      </trkpt>
      <trkpt lat="44.25563" lon="5.54581">
        <ele>1382</ele>
        <time>2016-05-07T09:38:54Z</time>
      </trkpt>
      <trkpt lat="44.25569" lon="5.54553">
        <ele>1379.8000488281</ele>
        <time>2016-05-07T09:38:57Z</time>
      </trkpt>
      <trkpt lat="44.25571" lon="5.54546">
        <ele>1379.8000488281</ele>
        <time>2016-05-07T09:38:58Z</time>
      </trkpt>
      <trkpt lat="44.25575" lon="5.54526">
        <ele>1375.5999755859</ele>
        <time>2016-05-07T09:39:02Z</time>
      </trkpt>
      <trkpt lat="44.25572" lon="5.54511">
        <ele>1373.5999755859</ele>
        <time>2016-05-07T09:39:05Z</time>
      </trkpt>
      <trkpt lat="44.25569" lon="5.54503">
        <ele>1373.5999755859</ele>
        <time>2016-05-07T09:39:07Z</time>
      </trkpt>
      <trkpt lat="44.25567" lon="5.54494">
        <ele>1371.4000244141</ele>
        <time>2016-05-07T09:39:09Z</time>
      </trkpt>
      <trkpt lat="44.25563" lon="5.54479">
        <ele>1369.1999511719</ele>
        <time>2016-05-07T09:39:12Z</time>
      </trkpt>
      <trkpt lat="44.2556" lon="5.54474">
        <ele>1369.1999511719</ele>
        <time>2016-05-07T09:39:13Z</time>
      </trkpt>
      <trkpt lat="44.25552" lon="5.54465">
        <ele>1369.1999511719</ele>
        <time>2016-05-07T09:39:15Z</time>
      </trkpt>
      <trkpt lat="44.25549" lon="5.54459">
        <ele>1365</ele>
        <time>2016-05-07T09:39:16Z</time>
      </trkpt>
      <trkpt lat="44.25542" lon="5.54446">
        <ele>1365</ele>
        <time>2016-05-07T09:39:18Z</time>
      </trkpt>
      <trkpt lat="44.25539" lon="5.5444">
        <ele>1363.5999755859</ele>
        <time>2016-05-07T09:39:19Z</time>
      </trkpt>
      <trkpt lat="44.2553" lon="5.54428">
        <ele>1363.5999755859</ele>
        <time>2016-05-07T09:39:21Z</time>
      </trkpt>
      <trkpt lat="44.25518" lon="5.54414">
        <ele>1361</ele>
        <time>2016-05-07T09:39:23Z</time>
      </trkpt>
      <trkpt lat="44.25495" lon="5.54392">
        <ele>1359.5999755859</ele>
        <time>2016-05-07T09:39:27Z</time>
      </trkpt>
      <trkpt lat="44.25483" lon="5.54383">
        <ele>1359.5999755859</ele>
        <time>2016-05-07T09:39:29Z</time>
      </trkpt>
      <trkpt lat="44.25476" lon="5.54377">
        <ele>1358.1999511719</ele>
        <time>2016-05-07T09:39:30Z</time>
      </trkpt>
      <trkpt lat="44.25471" lon="5.5437">
        <ele>1358.1999511719</ele>
        <time>2016-05-07T09:39:31Z</time>
      </trkpt>
      <trkpt lat="44.25465" lon="5.54352">
        <ele>1358.1999511719</ele>
        <time>2016-05-07T09:39:33Z</time>
      </trkpt>
      <trkpt lat="44.25463" lon="5.54319">
        <ele>1358.1999511719</ele>
        <time>2016-05-07T09:39:37Z</time>
      </trkpt>
      <trkpt lat="44.25464" lon="5.54311">
        <ele>1358.1999511719</ele>
        <time>2016-05-07T09:39:38Z</time>
      </trkpt>
      <trkpt lat="44.25463" lon="5.54278">
        <ele>1358.1999511719</ele>
        <time>2016-05-07T09:39:42Z</time>
      </trkpt>
      <trkpt lat="44.25458" lon="5.5424">
        <ele>1358.1999511719</ele>
        <time>2016-05-07T09:39:47Z</time>
      </trkpt>
      <trkpt lat="44.25458" lon="5.54232">
        <ele>1358.1999511719</ele>
        <time>2016-05-07T09:39:48Z</time>
      </trkpt>
      <trkpt lat="44.25457" lon="5.54207">
        <ele>1357.1999511719</ele>
        <time>2016-05-07T09:39:51Z</time>
      </trkpt>
      <trkpt lat="44.25455" lon="5.542">
        <ele>1357.1999511719</ele>
        <time>2016-05-07T09:39:52Z</time>
      </trkpt>
      <trkpt lat="44.25454" lon="5.54186">
        <ele>1357.1999511719</ele>
        <time>2016-05-07T09:39:54Z</time>
      </trkpt>
      <trkpt lat="44.25454" lon="5.54179">
        <ele>1356.5999755859</ele>
        <time>2016-05-07T09:39:55Z</time>
      </trkpt>
      <trkpt lat="44.25452" lon="5.54159">
        <ele>1356.1999511719</ele>
        <time>2016-05-07T09:39:58Z</time>
      </trkpt>
      <trkpt lat="44.25451" lon="5.54153">
        <ele>1355.5999755859</ele>
        <time>2016-05-07T09:39:59Z</time>
      </trkpt>
      <trkpt lat="44.25451" lon="5.54141">
        <ele>1355.5999755859</ele>
        <time>2016-05-07T09:40:01Z</time>
      </trkpt>
      <trkpt lat="44.25449" lon="5.5411">
        <ele>1355.5999755859</ele>
        <time>2016-05-07T09:40:07Z</time>
      </trkpt>
      <trkpt lat="44.25449" lon="5.54088">
        <ele>1356</ele>
        <time>2016-05-07T09:40:12Z</time>
      </trkpt>
      <trkpt lat="44.25449" lon="5.5408">
        <ele>1356</ele>
        <time>2016-05-07T09:40:14Z</time>
      </trkpt>
      <trkpt lat="44.25449" lon="5.54071">
        <ele>1356.4000244141</ele>
        <time>2016-05-07T09:40:16Z</time>
      </trkpt>
      <trkpt lat="44.25451" lon="5.54058">
        <ele>1357.1999511719</ele>
        <time>2016-05-07T09:40:19Z</time>
      </trkpt>
      <trkpt lat="44.25453" lon="5.54045">
        <ele>1357.1999511719</ele>
        <time>2016-05-07T09:40:22Z</time>
      </trkpt>
      <trkpt lat="44.25454" lon="5.5404">
        <ele>1357.5999755859</ele>
        <time>2016-05-07T09:40:23Z</time>
      </trkpt>
      <trkpt lat="44.25454" lon="5.54008">
        <ele>1357.5999755859</ele>
        <time>2016-05-07T09:40:31Z</time>
      </trkpt>
      <trkpt lat="44.25454" lon="5.54006">
        <ele>1357.5999755859</ele>
        <time>2016-05-07T09:40:32Z</time>
      </trkpt>
      <trkpt lat="44.25454" lon="5.53986">
        <ele>1357.5999755859</ele>
        <time>2016-05-07T09:40:38Z</time>
      </trkpt>
      <trkpt lat="44.25454" lon="5.53951">
        <ele>1357.5999755859</ele>
        <time>2016-05-07T09:40:46Z</time>
      </trkpt>
      <trkpt lat="44.25452" lon="5.53922">
        <ele>1357.5999755859</ele>
        <time>2016-05-07T09:40:51Z</time>
      </trkpt>
      <trkpt lat="44.25453" lon="5.53895">
        <ele>1357.1999511719</ele>
        <time>2016-05-07T09:40:55Z</time>
      </trkpt>
      <trkpt lat="44.25454" lon="5.5388">
        <ele>1357.1999511719</ele>
        <time>2016-05-07T09:40:57Z</time>
      </trkpt>
      <trkpt lat="44.25454" lon="5.53872">
        <ele>1356.8000488281</ele>
        <time>2016-05-07T09:40:58Z</time>
      </trkpt>
      <trkpt lat="44.25453" lon="5.53851">
        <ele>1356</ele>
        <time>2016-05-07T09:41:00Z</time>
      </trkpt>
      <trkpt lat="44.25452" lon="5.53831">
        <ele>1356</ele>
        <time>2016-05-07T09:41:02Z</time>
      </trkpt>
      <trkpt lat="44.2545" lon="5.5382">
        <ele>1355.1999511719</ele>
        <time>2016-05-07T09:41:03Z</time>
      </trkpt>
      <trkpt lat="44.25446" lon="5.53779">
        <ele>1352.8000488281</ele>
        <time>2016-05-07T09:41:07Z</time>
      </trkpt>
      <trkpt lat="44.25445" lon="5.53753">
        <ele>1349.5999755859</ele>
        <time>2016-05-07T09:41:10Z</time>
      </trkpt>
      <trkpt lat="44.25444" lon="5.53737">
        <ele>1349.5999755859</ele>
        <time>2016-05-07T09:41:12Z</time>
      </trkpt>
      <trkpt lat="44.25442" lon="5.53719">
        <ele>1346.5999755859</ele>
        <time>2016-05-07T09:41:14Z</time>
      </trkpt>
      <trkpt lat="44.25439" lon="5.53689">
        <ele>1346.5999755859</ele>
        <time>2016-05-07T09:41:17Z</time>
      </trkpt>
      <trkpt lat="44.25439" lon="5.5368">
        <ele>1345</ele>
        <time>2016-05-07T09:41:18Z</time>
      </trkpt>
      <trkpt lat="44.25438" lon="5.53673">
        <ele>1345</ele>
        <time>2016-05-07T09:41:19Z</time>
      </trkpt>
      <trkpt lat="44.25437" lon="5.5366">
        <ele>1341.1999511719</ele>
        <time>2016-05-07T09:41:21Z</time>
      </trkpt>
      <trkpt lat="44.25436" lon="5.53646">
        <ele>1341.1999511719</ele>
        <time>2016-05-07T09:41:23Z</time>
      </trkpt>
      <trkpt lat="44.25436" lon="5.53638">
        <ele>1338</ele>
        <time>2016-05-07T09:41:24Z</time>
      </trkpt>
      <trkpt lat="44.25436" lon="5.5363">
        <ele>1338</ele>
        <time>2016-05-07T09:41:25Z</time>
      </trkpt>
      <trkpt lat="44.25436" lon="5.53598">
        <ele>1336.4000244141</ele>
        <time>2016-05-07T09:41:29Z</time>
      </trkpt>
      <trkpt lat="44.25435" lon="5.53578">
        <ele>1336.4000244141</ele>
        <time>2016-05-07T09:41:31Z</time>
      </trkpt>
      <trkpt lat="44.25435" lon="5.53568">
        <ele>1332.1999511719</ele>
        <time>2016-05-07T09:41:32Z</time>
      </trkpt>
      <trkpt lat="44.25433" lon="5.53534">
        <ele>1329.5999755859</ele>
        <time>2016-05-07T09:41:36Z</time>
      </trkpt>
      <trkpt lat="44.25432" lon="5.5352">
        <ele>1329.5999755859</ele>
        <time>2016-05-07T09:41:38Z</time>
      </trkpt>
      <trkpt lat="44.2543" lon="5.53514">
        <ele>1327.1999511719</ele>
        <time>2016-05-07T09:41:39Z</time>
      </trkpt>
      <trkpt lat="44.2543" lon="5.53509">
        <ele>1324.5999755859</ele>
        <time>2016-05-07T09:41:40Z</time>
      </trkpt>
      <trkpt lat="44.25429" lon="5.53504">
        <ele>1324.5999755859</ele>
        <time>2016-05-07T09:41:41Z</time>
      </trkpt>
      <trkpt lat="44.25427" lon="5.53492">
        <ele>1322</ele>
        <time>2016-05-07T09:41:43Z</time>
      </trkpt>
      <trkpt lat="44.25425" lon="5.53481">
        <ele>1322</ele>
        <time>2016-05-07T09:41:45Z</time>
      </trkpt>
      <trkpt lat="44.25425" lon="5.53475">
        <ele>1319.5999755859</ele>
        <time>2016-05-07T09:41:46Z</time>
      </trkpt>
      <trkpt lat="44.25426" lon="5.53469">
        <ele>1319.5999755859</ele>
        <time>2016-05-07T09:41:47Z</time>
      </trkpt>
      <trkpt lat="44.25426" lon="5.53456">
        <ele>1317.4000244141</ele>
        <time>2016-05-07T09:41:49Z</time>
      </trkpt>
      <trkpt lat="44.25427" lon="5.53449">
        <ele>1315</ele>
        <time>2016-05-07T09:41:50Z</time>
      </trkpt>
      <trkpt lat="44.25428" lon="5.53432">
        <ele>1315</ele>
        <time>2016-05-07T09:41:52Z</time>
      </trkpt>
      <trkpt lat="44.25429" lon="5.53423">
        <ele>1312.8000488281</ele>
        <time>2016-05-07T09:41:53Z</time>
      </trkpt>
      <trkpt lat="44.2543" lon="5.53405">
        <ele>1310.5999755859</ele>
        <time>2016-05-07T09:41:55Z</time>
      </trkpt>
      <trkpt lat="44.2543" lon="5.53396">
        <ele>1308.1999511719</ele>
        <time>2016-05-07T09:41:56Z</time>
      </trkpt>
      <trkpt lat="44.25429" lon="5.53378">
        <ele>1308.1999511719</ele>
        <time>2016-05-07T09:41:58Z</time>
      </trkpt>
      <trkpt lat="44.25428" lon="5.5337">
        <ele>1305.5999755859</ele>
        <time>2016-05-07T09:41:59Z</time>
      </trkpt>
      <trkpt lat="44.25426" lon="5.53361">
        <ele>1303</ele>
        <time>2016-05-07T09:42:00Z</time>
      </trkpt>
      <trkpt lat="44.25423" lon="5.53337">
        <ele>1298.4000244141</ele>
        <time>2016-05-07T09:42:03Z</time>
      </trkpt>
      <trkpt lat="44.25422" lon="5.53329">
        <ele>1298.4000244141</ele>
        <time>2016-05-07T09:42:04Z</time>
      </trkpt>
      <trkpt lat="44.25423" lon="5.53313">
        <ele>1296.4000244141</ele>
        <time>2016-05-07T09:42:06Z</time>
      </trkpt>
      <trkpt lat="44.25425" lon="5.53301">
        <ele>1296.4000244141</ele>
        <time>2016-05-07T09:42:08Z</time>
      </trkpt>
      <trkpt lat="44.25425" lon="5.53294">
        <ele>1292.5999755859</ele>
        <time>2016-05-07T09:42:10Z</time>
      </trkpt>
      <trkpt lat="44.25425" lon="5.53292">
        <ele>1292.5999755859</ele>
        <time>2016-05-07T09:42:11Z</time>
      </trkpt>
      <trkpt lat="44.25425" lon="5.53292">
        <ele>1290.8000488281</ele>
        <time>2016-05-07T09:42:13Z</time>
      </trkpt>
      <trkpt lat="44.25423" lon="5.53292">
        <ele>1290.8000488281</ele>
        <time>2016-05-07T09:42:16Z</time>
      </trkpt>
      <trkpt lat="44.25422" lon="5.53292">
        <ele>1287.1999511719</ele>
        <time>2016-05-07T09:42:17Z</time>
      </trkpt>
      <trkpt lat="44.25418" lon="5.53291">
        <ele>1287.1999511719</ele>
        <time>2016-05-07T09:42:19Z</time>
      </trkpt>
      <trkpt lat="44.25416" lon="5.5329">
        <ele>1283.8000488281</ele>
        <time>2016-05-07T09:42:20Z</time>
      </trkpt>
      <trkpt lat="44.25412" lon="5.53279">
        <ele>1283.8000488281</ele>
        <time>2016-05-07T09:42:23Z</time>
      </trkpt>
      <trkpt lat="44.2541" lon="5.53275">
        <ele>1282.4000244141</ele>
        <time>2016-05-07T09:42:24Z</time>
      </trkpt>
      <trkpt lat="44.25407" lon="5.53261">
        <ele>1280.5999755859</ele>
        <time>2016-05-07T09:42:27Z</time>
      </trkpt>
      <trkpt lat="44.25406" lon="5.53255">
        <ele>1280.5999755859</ele>
        <time>2016-05-07T09:42:28Z</time>
      </trkpt>
      <trkpt lat="44.25403" lon="5.53238">
        <ele>1277.8000488281</ele>
        <time>2016-05-07T09:42:31Z</time>
      </trkpt>
      <trkpt lat="44.254" lon="5.53226">
        <ele>1277.8000488281</ele>
        <time>2016-05-07T09:42:33Z</time>
      </trkpt>
      <trkpt lat="44.25399" lon="5.53219">
        <ele>1274.5999755859</ele>
        <time>2016-05-07T09:42:34Z</time>
      </trkpt>
      <trkpt lat="44.25397" lon="5.53201">
        <ele>1274.5999755859</ele>
        <time>2016-05-07T09:42:37Z</time>
      </trkpt>
      <trkpt lat="44.25396" lon="5.53194">
        <ele>1271.1999511719</ele>
        <time>2016-05-07T09:42:38Z</time>
      </trkpt>
      <trkpt lat="44.25399" lon="5.53175">
        <ele>1267.8000488281</ele>
        <time>2016-05-07T09:42:41Z</time>
      </trkpt>
      <trkpt lat="44.25402" lon="5.53162">
        <ele>1267.8000488281</ele>
        <time>2016-05-07T09:42:43Z</time>
      </trkpt>
      <trkpt lat="44.25404" lon="5.53148">
        <ele>1264.5999755859</ele>
        <time>2016-05-07T09:42:45Z</time>
      </trkpt>
      <trkpt lat="44.25409" lon="5.53118">
        <ele>1262.8000488281</ele>
        <time>2016-05-07T09:42:49Z</time>
      </trkpt>
      <trkpt lat="44.25412" lon="5.53076">
        <ele>1262.8000488281</ele>
        <time>2016-05-07T09:42:55Z</time>
      </trkpt>
      <trkpt lat="44.25412" lon="5.5307">
        <ele>1262.8000488281</ele>
        <time>2016-05-07T09:42:56Z</time>
      </trkpt>
      <trkpt lat="44.2541" lon="5.53052">
        <ele>1262.8000488281</ele>
        <time>2016-05-07T09:42:59Z</time>
      </trkpt>
      <trkpt lat="44.25408" lon="5.53031">
        <ele>1262.8000488281</ele>
        <time>2016-05-07T09:43:03Z</time>
      </trkpt>
      <trkpt lat="44.25408" lon="5.53">
        <ele>1262.8000488281</ele>
        <time>2016-05-07T09:43:08Z</time>
      </trkpt>
      <trkpt lat="44.25408" lon="5.52953">
        <ele>1262.4000244141</ele>
        <time>2016-05-07T09:43:14Z</time>
      </trkpt>
      <trkpt lat="44.25407" lon="5.52945">
        <ele>1262.4000244141</ele>
        <time>2016-05-07T09:43:15Z</time>
      </trkpt>
      <trkpt lat="44.25406" lon="5.52935">
        <ele>1262.4000244141</ele>
        <time>2016-05-07T09:43:17Z</time>
      </trkpt>
      <trkpt lat="44.25406" lon="5.52928">
        <ele>1261.5999755859</ele>
        <time>2016-05-07T09:43:18Z</time>
      </trkpt>
      <trkpt lat="44.25402" lon="5.5291">
        <ele>1261.1999511719</ele>
        <time>2016-05-07T09:43:21Z</time>
      </trkpt>
      <trkpt lat="44.25401" lon="5.52904">
        <ele>1260.8000488281</ele>
        <time>2016-05-07T09:43:22Z</time>
      </trkpt>
      <trkpt lat="44.25389" lon="5.52861">
        <ele>1260.8000488281</ele>
        <time>2016-05-07T09:43:29Z</time>
      </trkpt>
      <trkpt lat="44.2538" lon="5.52828">
        <ele>1260.8000488281</ele>
        <time>2016-05-07T09:43:35Z</time>
      </trkpt>
      <trkpt lat="44.25379" lon="5.52822">
        <ele>1260.8000488281</ele>
        <time>2016-05-07T09:43:36Z</time>
      </trkpt>
      <trkpt lat="44.25374" lon="5.5279">
        <ele>1260.8000488281</ele>
        <time>2016-05-07T09:43:41Z</time>
      </trkpt>
      <trkpt lat="44.25374" lon="5.52754">
        <ele>1260.8000488281</ele>
        <time>2016-05-07T09:43:46Z</time>
      </trkpt>
      <trkpt lat="44.25375" lon="5.52748">
        <ele>1260.8000488281</ele>
        <time>2016-05-07T09:43:47Z</time>
      </trkpt>
      <trkpt lat="44.25377" lon="5.52694">
        <ele>1260.4000244141</ele>
        <time>2016-05-07T09:43:54Z</time>
      </trkpt>
      <trkpt lat="44.25378" lon="5.52669">
        <ele>1259.4000244141</ele>
        <time>2016-05-07T09:43:57Z</time>
      </trkpt>
      <trkpt lat="44.25379" lon="5.5264">
        <ele>1259.4000244141</ele>
        <time>2016-05-07T09:44:00Z</time>
      </trkpt>
      <trkpt lat="44.25379" lon="5.5263">
        <ele>1258.8000488281</ele>
        <time>2016-05-07T09:44:01Z</time>
      </trkpt>
      <trkpt lat="44.2538" lon="5.52613">
        <ele>1258.8000488281</ele>
        <time>2016-05-07T09:44:03Z</time>
      </trkpt>
      <trkpt lat="44.25381" lon="5.52605">
        <ele>1258</ele>
        <time>2016-05-07T09:44:04Z</time>
      </trkpt>
      <trkpt lat="44.25381" lon="5.52596">
        <ele>1258</ele>
        <time>2016-05-07T09:44:05Z</time>
      </trkpt>
      <trkpt lat="44.25381" lon="5.52571">
        <ele>1256.5999755859</ele>
        <time>2016-05-07T09:44:08Z</time>
      </trkpt>
      <trkpt lat="44.25381" lon="5.52553">
        <ele>1255.1999511719</ele>
        <time>2016-05-07T09:44:10Z</time>
      </trkpt>
      <trkpt lat="44.25381" lon="5.52544">
        <ele>1254.4000244141</ele>
        <time>2016-05-07T09:44:11Z</time>
      </trkpt>
      <trkpt lat="44.25382" lon="5.52535">
        <ele>1254.4000244141</ele>
        <time>2016-05-07T09:44:12Z</time>
      </trkpt>
      <trkpt lat="44.25384" lon="5.52516">
        <ele>1253.5999755859</ele>
        <time>2016-05-07T09:44:15Z</time>
      </trkpt>
      <trkpt lat="44.25383" lon="5.5251">
        <ele>1253.5999755859</ele>
        <time>2016-05-07T09:44:16Z</time>
      </trkpt>
      <trkpt lat="44.25376" lon="5.52495">
        <ele>1251.8000488281</ele>
        <time>2016-05-07T09:44:19Z</time>
      </trkpt>
      <trkpt lat="44.25374" lon="5.5249">
        <ele>1251.8000488281</ele>
        <time>2016-05-07T09:44:20Z</time>
      </trkpt>
      <trkpt lat="44.25371" lon="5.52472">
        <ele>1250.1999511719</ele>
        <time>2016-05-07T09:44:23Z</time>
      </trkpt>
      <trkpt lat="44.25369" lon="5.52455">
        <ele>1246.8000488281</ele>
        <time>2016-05-07T09:44:26Z</time>
      </trkpt>
      <trkpt lat="44.25368" lon="5.52444">
        <ele>1246.8000488281</ele>
        <time>2016-05-07T09:44:28Z</time>
      </trkpt>
      <trkpt lat="44.25368" lon="5.52434">
        <ele>1245</ele>
        <time>2016-05-07T09:44:30Z</time>
      </trkpt>
      <trkpt lat="44.25367" lon="5.52417">
        <ele>1243.1999511719</ele>
        <time>2016-05-07T09:44:33Z</time>
      </trkpt>
      <trkpt lat="44.25367" lon="5.52412">
        <ele>1241.4000244141</ele>
        <time>2016-05-07T09:44:34Z</time>
      </trkpt>
      <trkpt lat="44.25367" lon="5.52395">
        <ele>1237.8000488281</ele>
        <time>2016-05-07T09:44:37Z</time>
      </trkpt>
      <trkpt lat="44.25365" lon="5.52373">
        <ele>1236.1999511719</ele>
        <time>2016-05-07T09:44:40Z</time>
      </trkpt>
      <trkpt lat="44.25366" lon="5.52364">
        <ele>1234.4000244141</ele>
        <time>2016-05-07T09:44:41Z</time>
      </trkpt>
      <trkpt lat="44.25368" lon="5.52337">
        <ele>1231</ele>
        <time>2016-05-07T09:44:44Z</time>
      </trkpt>
      <trkpt lat="44.25368" lon="5.52327">
        <ele>1231</ele>
        <time>2016-05-07T09:44:45Z</time>
      </trkpt>
      <trkpt lat="44.25371" lon="5.52311">
        <ele>1229.1999511719</ele>
        <time>2016-05-07T09:44:47Z</time>
      </trkpt>
      <trkpt lat="44.25371" lon="5.52304">
        <ele>1227.5999755859</ele>
        <time>2016-05-07T09:44:48Z</time>
      </trkpt>
      <trkpt lat="44.2537" lon="5.52295">
        <ele>1227.5999755859</ele>
        <time>2016-05-07T09:44:49Z</time>
      </trkpt>
      <trkpt lat="44.2537" lon="5.52275">
        <ele>1224.1999511719</ele>
        <time>2016-05-07T09:44:51Z</time>
      </trkpt>
      <trkpt lat="44.25371" lon="5.52252">
        <ele>1224.1999511719</ele>
        <time>2016-05-07T09:44:53Z</time>
      </trkpt>
      <trkpt lat="44.25372" lon="5.52239">
        <ele>1222.5999755859</ele>
        <time>2016-05-07T09:44:54Z</time>
      </trkpt>
      <trkpt lat="44.25372" lon="5.52205">
        <ele>1219</ele>
        <time>2016-05-07T09:44:57Z</time>
      </trkpt>
      <trkpt lat="44.25372" lon="5.52176">
        <ele>1217.1999511719</ele>
        <time>2016-05-07T09:45:00Z</time>
      </trkpt>
      <trkpt lat="44.25373" lon="5.52166">
        <ele>1215.5999755859</ele>
        <time>2016-05-07T09:45:01Z</time>
      </trkpt>
      <trkpt lat="44.25375" lon="5.52158">
        <ele>1215.5999755859</ele>
        <time>2016-05-07T09:45:02Z</time>
      </trkpt>
      <trkpt lat="44.25375" lon="5.5214">
        <ele>1214</ele>
        <time>2016-05-07T09:45:04Z</time>
      </trkpt>
      <trkpt lat="44.25375" lon="5.52105">
        <ele>1210.4000244141</ele>
        <time>2016-05-07T09:45:08Z</time>
      </trkpt>
      <trkpt lat="44.25373" lon="5.52092">
        <ele>1210.4000244141</ele>
        <time>2016-05-07T09:45:10Z</time>
      </trkpt>
      <trkpt lat="44.25372" lon="5.52085">
        <ele>1206.8000488281</ele>
        <time>2016-05-07T09:45:11Z</time>
      </trkpt>
      <trkpt lat="44.25371" lon="5.5208">
        <ele>1206.8000488281</ele>
        <time>2016-05-07T09:45:12Z</time>
      </trkpt>
      <trkpt lat="44.25375" lon="5.52056">
        <ele>1203.5999755859</ele>
        <time>2016-05-07T09:45:15Z</time>
      </trkpt>
      <trkpt lat="44.25377" lon="5.52048">
        <ele>1203.5999755859</ele>
        <time>2016-05-07T09:45:16Z</time>
      </trkpt>
      <trkpt lat="44.25381" lon="5.5203">
        <ele>1201</ele>
        <time>2016-05-07T09:45:18Z</time>
      </trkpt>
      <trkpt lat="44.25384" lon="5.52006">
        <ele>1201</ele>
        <time>2016-05-07T09:45:20Z</time>
      </trkpt>
      <trkpt lat="44.25388" lon="5.51982">
        <ele>1198.4000244141</ele>
        <time>2016-05-07T09:45:22Z</time>
      </trkpt>
      <trkpt lat="44.25395" lon="5.5195">
        <ele>1195.8000488281</ele>
        <time>2016-05-07T09:45:25Z</time>
      </trkpt>
      <trkpt lat="44.25399" lon="5.51909">
        <ele>1194.4000244141</ele>
        <time>2016-05-07T09:45:29Z</time>
      </trkpt>
      <trkpt lat="44.25399" lon="5.51899">
        <ele>1194.4000244141</ele>
        <time>2016-05-07T09:45:30Z</time>
      </trkpt>
      <trkpt lat="44.254" lon="5.51881">
        <ele>1191.5999755859</ele>
        <time>2016-05-07T09:45:32Z</time>
      </trkpt>
      <trkpt lat="44.25402" lon="5.51855">
        <ele>1191.5999755859</ele>
        <time>2016-05-07T09:45:35Z</time>
      </trkpt>
      <trkpt lat="44.25404" lon="5.51846">
        <ele>1188.4000244141</ele>
        <time>2016-05-07T09:45:36Z</time>
      </trkpt>
      <trkpt lat="44.25405" lon="5.51818">
        <ele>1185.5999755859</ele>
        <time>2016-05-07T09:45:39Z</time>
      </trkpt>
      <trkpt lat="44.25405" lon="5.51811">
        <ele>1185.5999755859</ele>
        <time>2016-05-07T09:45:40Z</time>
      </trkpt>
      <trkpt lat="44.25406" lon="5.518">
        <ele>1185.5999755859</ele>
        <time>2016-05-07T09:45:42Z</time>
      </trkpt>
      <trkpt lat="44.25406" lon="5.51796">
        <ele>1184.1999511719</ele>
        <time>2016-05-07T09:45:43Z</time>
      </trkpt>
      <trkpt lat="44.25406" lon="5.51791">
        <ele>1182.8000488281</ele>
        <time>2016-05-07T09:45:44Z</time>
      </trkpt>
      <trkpt lat="44.25406" lon="5.51774">
        <ele>1180.4000244141</ele>
        <time>2016-05-07T09:45:47Z</time>
      </trkpt>
      <trkpt lat="44.25407" lon="5.51766">
        <ele>1180.4000244141</ele>
        <time>2016-05-07T09:45:48Z</time>
      </trkpt>
      <trkpt lat="44.25407" lon="5.5175">
        <ele>1179</ele>
        <time>2016-05-07T09:45:50Z</time>
      </trkpt>
      <trkpt lat="44.25407" lon="5.51742">
        <ele>1177.5999755859</ele>
        <time>2016-05-07T09:45:51Z</time>
      </trkpt>
      <trkpt lat="44.25408" lon="5.51733">
        <ele>1177.5999755859</ele>
        <time>2016-05-07T09:45:52Z</time>
      </trkpt>
      <trkpt lat="44.25409" lon="5.51724">
        <ele>1177.5999755859</ele>
        <time>2016-05-07T09:45:53Z</time>
      </trkpt>
      <trkpt lat="44.25409" lon="5.51716">
        <ele>1175.1999511719</ele>
        <time>2016-05-07T09:45:54Z</time>
      </trkpt>
      <trkpt lat="44.25412" lon="5.51686">
        <ele>1174</ele>
        <time>2016-05-07T09:45:57Z</time>
      </trkpt>
      <trkpt lat="44.25413" lon="5.51676">
        <ele>1172.5999755859</ele>
        <time>2016-05-07T09:45:58Z</time>
      </trkpt>
      <trkpt lat="44.25414" lon="5.51666">
        <ele>1172.5999755859</ele>
        <time>2016-05-07T09:45:59Z</time>
      </trkpt>
      <trkpt lat="44.25414" lon="5.51647">
        <ele>1169.4000244141</ele>
        <time>2016-05-07T09:46:01Z</time>
      </trkpt>
      <trkpt lat="44.25412" lon="5.51626">
        <ele>1169.4000244141</ele>
        <time>2016-05-07T09:46:03Z</time>
      </trkpt>
      <trkpt lat="44.25411" lon="5.51603">
        <ele>1165.5999755859</ele>
        <time>2016-05-07T09:46:05Z</time>
      </trkpt>
      <trkpt lat="44.25412" lon="5.51568">
        <ele>1161.5999755859</ele>
        <time>2016-05-07T09:46:08Z</time>
      </trkpt>
      <trkpt lat="44.25412" lon="5.51559">
        <ele>1161.5999755859</ele>
        <time>2016-05-07T09:46:09Z</time>
      </trkpt>
      <trkpt lat="44.25413" lon="5.51536">
        <ele>1158.1999511719</ele>
        <time>2016-05-07T09:46:12Z</time>
      </trkpt>
      <trkpt lat="44.25414" lon="5.51529">
        <ele>1158.1999511719</ele>
        <time>2016-05-07T09:46:13Z</time>
      </trkpt>
      <trkpt lat="44.25414" lon="5.51518">
        <ele>1155.4000244141</ele>
        <time>2016-05-07T09:46:15Z</time>
      </trkpt>
      <trkpt lat="44.25412" lon="5.51513">
        <ele>1155.4000244141</ele>
        <time>2016-05-07T09:46:16Z</time>
      </trkpt>
      <trkpt lat="44.25409" lon="5.5151">
        <ele>1155.4000244141</ele>
        <time>2016-05-07T09:46:17Z</time>
      </trkpt>
      <trkpt lat="44.25399" lon="5.515">
        <ele>1152.8000488281</ele>
        <time>2016-05-07T09:46:19Z</time>
      </trkpt>
      <trkpt lat="44.25394" lon="5.51493">
        <ele>1152.8000488281</ele>
        <time>2016-05-07T09:46:20Z</time>
      </trkpt>
      <trkpt lat="44.2538" lon="5.51466">
        <ele>1151</ele>
        <time>2016-05-07T09:46:23Z</time>
      </trkpt>
      <trkpt lat="44.25377" lon="5.51457">
        <ele>1151</ele>
        <time>2016-05-07T09:46:24Z</time>
      </trkpt>
      <trkpt lat="44.25371" lon="5.51441">
        <ele>1147</ele>
        <time>2016-05-07T09:46:26Z</time>
      </trkpt>
      <trkpt lat="44.25362" lon="5.5143">
        <ele>1147</ele>
        <time>2016-05-07T09:46:28Z</time>
      </trkpt>
      <trkpt lat="44.25357" lon="5.51425">
        <ele>1142.8000488281</ele>
        <time>2016-05-07T09:46:29Z</time>
      </trkpt>
      <trkpt lat="44.25342" lon="5.51405">
        <ele>1140.5999755859</ele>
        <time>2016-05-07T09:46:33Z</time>
      </trkpt>
      <trkpt lat="44.2534" lon="5.514">
        <ele>1140.5999755859</ele>
        <time>2016-05-07T09:46:34Z</time>
      </trkpt>
      <trkpt lat="44.25336" lon="5.51393">
        <ele>1140.5999755859</ele>
        <time>2016-05-07T09:46:35Z</time>
      </trkpt>
      <trkpt lat="44.25332" lon="5.51385">
        <ele>1138.1999511719</ele>
        <time>2016-05-07T09:46:36Z</time>
      </trkpt>
      <trkpt lat="44.2533" lon="5.51375">
        <ele>1136</ele>
        <time>2016-05-07T09:46:37Z</time>
      </trkpt>
      <trkpt lat="44.25331" lon="5.51366">
        <ele>1136</ele>
        <time>2016-05-07T09:46:38Z</time>
      </trkpt>
      <trkpt lat="44.25335" lon="5.51353">
        <ele>1133.5999755859</ele>
        <time>2016-05-07T09:46:40Z</time>
      </trkpt>
      <trkpt lat="44.25338" lon="5.51348">
        <ele>1133.5999755859</ele>
        <time>2016-05-07T09:46:41Z</time>
      </trkpt>
      <trkpt lat="44.25344" lon="5.51342">
        <ele>1131.1999511719</ele>
        <time>2016-05-07T09:46:43Z</time>
      </trkpt>
      <trkpt lat="44.25346" lon="5.51338">
        <ele>1129</ele>
        <time>2016-05-07T09:46:44Z</time>
      </trkpt>
      <trkpt lat="44.25351" lon="5.51327">
        <ele>1126.5999755859</ele>
        <time>2016-05-07T09:46:47Z</time>
      </trkpt>
      <trkpt lat="44.25357" lon="5.51312">
        <ele>1126.5999755859</ele>
        <time>2016-05-07T09:46:51Z</time>
      </trkpt>
      <trkpt lat="44.25351" lon="5.51291">
        <ele>1126.5999755859</ele>
        <time>2016-05-07T09:46:58Z</time>
      </trkpt>
      <trkpt lat="44.25341" lon="5.51282">
        <ele>1127</ele>
        <time>2016-05-07T09:47:04Z</time>
      </trkpt>
      <trkpt lat="44.25336" lon="5.51278">
        <ele>1128</ele>
        <time>2016-05-07T09:47:07Z</time>
      </trkpt>
      <trkpt lat="44.25331" lon="5.51275">
        <ele>1128.4000244141</ele>
        <time>2016-05-07T09:47:10Z</time>
      </trkpt>
      <trkpt lat="44.2533" lon="5.51274">
        <ele>1128.4000244141</ele>
        <time>2016-05-07T09:47:11Z</time>
      </trkpt>
      <trkpt lat="44.25327" lon="5.51272">
        <ele>1128.8000488281</ele>
        <time>2016-05-07T09:47:13Z</time>
      </trkpt>
      <trkpt lat="44.25323" lon="5.51267">
        <ele>1129.4000244141</ele>
        <time>2016-05-07T09:47:17Z</time>
      </trkpt>
      <trkpt lat="44.25322" lon="5.51261">
        <ele>1129.8000488281</ele>
        <time>2016-05-07T09:47:20Z</time>
      </trkpt>
      <trkpt lat="44.25322" lon="5.51258">
        <ele>1130.4000244141</ele>
        <time>2016-05-07T09:47:21Z</time>
      </trkpt>
      <trkpt lat="44.25323" lon="5.51252">
        <ele>1130.8000488281</ele>
        <time>2016-05-07T09:47:24Z</time>
      </trkpt>
      <trkpt lat="44.25323" lon="5.51246">
        <ele>1131.4000244141</ele>
        <time>2016-05-07T09:47:27Z</time>
      </trkpt>
      <trkpt lat="44.25324" lon="5.5124">
        <ele>1131.4000244141</ele>
        <time>2016-05-07T09:47:30Z</time>
      </trkpt>
      <trkpt lat="44.25323" lon="5.51238">
        <ele>1131.8000488281</ele>
        <time>2016-05-07T09:47:31Z</time>
      </trkpt>
      <trkpt lat="44.25323" lon="5.51236">
        <ele>1132.1999511719</ele>
        <time>2016-05-07T09:47:32Z</time>
      </trkpt>
      <trkpt lat="44.25322" lon="5.51229">
        <ele>1133.1999511719</ele>
        <time>2016-05-07T09:47:35Z</time>
      </trkpt>
      <trkpt lat="44.25322" lon="5.51223">
        <ele>1133.5999755859</ele>
        <time>2016-05-07T09:47:38Z</time>
      </trkpt>
      <trkpt lat="44.25322" lon="5.5122">
        <ele>1133.5999755859</ele>
        <time>2016-05-07T09:47:39Z</time>
      </trkpt>
      <trkpt lat="44.25333" lon="5.5121">
        <ele>1133.5999755859</ele>
        <time>2016-05-07T09:47:47Z</time>
      </trkpt>
      <trkpt lat="44.25334" lon="5.51209">
        <ele>1134</ele>
        <time>2016-05-07T09:47:48Z</time>
      </trkpt>
      <trkpt lat="44.25338" lon="5.51205">
        <ele>1134.4000244141</ele>
        <time>2016-05-07T09:47:51Z</time>
      </trkpt>
      <trkpt lat="44.25338" lon="5.51204">
        <ele>1135</ele>
        <time>2016-05-07T09:47:52Z</time>
      </trkpt>
      <trkpt lat="44.25338" lon="5.51197">
        <ele>1135.4000244141</ele>
        <time>2016-05-07T09:47:55Z</time>
      </trkpt>
      <trkpt lat="44.25337" lon="5.51191">
        <ele>1135.8000488281</ele>
        <time>2016-05-07T09:47:58Z</time>
      </trkpt>
      <trkpt lat="44.25337" lon="5.51189">
        <ele>1136.1999511719</ele>
        <time>2016-05-07T09:47:59Z</time>
      </trkpt>
      <trkpt lat="44.25337" lon="5.51183">
        <ele>1136.8000488281</ele>
        <time>2016-05-07T09:48:02Z</time>
      </trkpt>
      <trkpt lat="44.2534" lon="5.51181">
        <ele>1137.1999511719</ele>
        <time>2016-05-07T09:48:05Z</time>
      </trkpt>
      <trkpt lat="44.25342" lon="5.51182">
        <ele>1137.8000488281</ele>
        <time>2016-05-07T09:48:06Z</time>
      </trkpt>
      <trkpt lat="44.25346" lon="5.51183">
        <ele>1138.1999511719</ele>
        <time>2016-05-07T09:48:09Z</time>
      </trkpt>
      <trkpt lat="44.25351" lon="5.5118">
        <ele>1138.5999755859</ele>
        <time>2016-05-07T09:48:16Z</time>
      </trkpt>
      <trkpt lat="44.25351" lon="5.51179">
        <ele>1139.4000244141</ele>
        <time>2016-05-07T09:48:20Z</time>
      </trkpt>
      <trkpt lat="44.25352" lon="5.51179">
        <ele>1140.1999511719</ele>
        <time>2016-05-07T09:48:23Z</time>
      </trkpt>
      <trkpt lat="44.25352" lon="5.51179">
        <ele>1140.5999755859</ele>
        <time>2016-05-07T09:48:30Z</time>
      </trkpt>
      <trkpt lat="44.25352" lon="5.51179">
        <ele>1141</ele>
        <time>2016-05-07T09:48:33Z</time>
      </trkpt>
      <trkpt lat="44.25352" lon="5.51179">
        <ele>1141.4000244141</ele>
        <time>2016-05-07T09:48:34Z</time>
      </trkpt>
      <trkpt lat="44.25352" lon="5.51179">
        <ele>1142.1999511719</ele>
        <time>2016-05-07T09:48:37Z</time>
      </trkpt>
      <trkpt lat="44.25352" lon="5.51179">
        <ele>1142.1999511719</ele>
        <time>2016-05-07T09:48:39Z</time>
      </trkpt>
      <trkpt lat="44.25352" lon="5.51179">
        <ele>1143.1999511719</ele>
        <time>2016-05-07T09:48:44Z</time>
      </trkpt>
      <trkpt lat="44.25352" lon="5.51179">
        <ele>1143.5999755859</ele>
        <time>2016-05-07T09:48:48Z</time>
      </trkpt>
      <trkpt lat="44.25352" lon="5.51178">
        <ele>1144</ele>
        <time>2016-05-07T09:48:51Z</time>
      </trkpt>
      <trkpt lat="44.25352" lon="5.51178">
        <ele>1144</ele>
        <time>2016-05-07T09:48:54Z</time>
      </trkpt>
      <trkpt lat="44.25352" lon="5.51178">
        <ele>1144.4000244141</ele>
        <time>2016-05-07T09:48:55Z</time>
      </trkpt>
      <trkpt lat="44.25352" lon="5.51178">
        <ele>1144.8000488281</ele>
        <time>2016-05-07T09:48:58Z</time>
      </trkpt>
      <trkpt lat="44.25352" lon="5.51178">
        <ele>1145.5999755859</ele>
        <time>2016-05-07T09:49:02Z</time>
      </trkpt>
      <trkpt lat="44.25352" lon="5.51178">
        <ele>1146.5999755859</ele>
        <time>2016-05-07T09:49:05Z</time>
      </trkpt>
      <trkpt lat="44.25352" lon="5.51178">
        <ele>1147.5999755859</ele>
        <time>2016-05-07T09:49:12Z</time>
      </trkpt>
      <trkpt lat="44.25352" lon="5.51178">
        <ele>1148</ele>
        <time>2016-05-07T09:49:15Z</time>
      </trkpt>
      <trkpt lat="44.25352" lon="5.51178">
        <ele>1148.5999755859</ele>
        <time>2016-05-07T09:49:16Z</time>
      </trkpt>
      <trkpt lat="44.25352" lon="5.51178">
        <ele>1149</ele>
        <time>2016-05-07T09:49:19Z</time>
      </trkpt>
      <trkpt lat="44.25353" lon="5.51177">
        <ele>1149</ele>
        <time>2016-05-07T09:49:25Z</time>
      </trkpt>
      <trkpt lat="44.25352" lon="5.51175">
        <ele>1150</ele>
        <time>2016-05-07T09:49:30Z</time>
      </trkpt>
      <trkpt lat="44.25352" lon="5.51174">
        <ele>1151</ele>
        <time>2016-05-07T09:49:33Z</time>
      </trkpt>
      <trkpt lat="44.25352" lon="5.51173">
        <ele>1151.4000244141</ele>
        <time>2016-05-07T09:49:37Z</time>
      </trkpt>
      <trkpt lat="44.25354" lon="5.51148">
        <ele>1151.4000244141</ele>
        <time>2016-05-07T09:49:49Z</time>
      </trkpt>
      <trkpt lat="44.25353" lon="5.51138">
        <ele>1151.4000244141</ele>
        <time>2016-05-07T09:49:52Z</time>
      </trkpt>
      <trkpt lat="44.25353" lon="5.51132">
        <ele>1152.4000244141</ele>
        <time>2016-05-07T09:49:54Z</time>
      </trkpt>
      <trkpt lat="44.25354" lon="5.51121">
        <ele>1152.8000488281</ele>
        <time>2016-05-07T09:49:58Z</time>
      </trkpt>
      <trkpt lat="44.25354" lon="5.51118">
        <ele>1153.5999755859</ele>
        <time>2016-05-07T09:50:01Z</time>
      </trkpt>
      <trkpt lat="44.25356" lon="5.51088">
        <ele>1153.5999755859</ele>
        <time>2016-05-07T09:50:10Z</time>
      </trkpt>
      <trkpt lat="44.25346" lon="5.51059">
        <ele>1153.5999755859</ele>
        <time>2016-05-07T09:50:22Z</time>
      </trkpt>
      <trkpt lat="44.25343" lon="5.51051">
        <ele>1153.5999755859</ele>
        <time>2016-05-07T09:50:29Z</time>
      </trkpt>
      <trkpt lat="44.25342" lon="5.5105">
        <ele>1153.5999755859</ele>
        <time>2016-05-07T09:51:07Z</time>
      </trkpt>
      <trkpt lat="44.2534" lon="5.51046">
        <ele>1153.5999755859</ele>
        <time>2016-05-07T09:51:21Z</time>
      </trkpt>
      <trkpt lat="44.2534" lon="5.51045">
        <ele>1153.5999755859</ele>
        <time>2016-05-07T09:51:30Z</time>
      </trkpt>
      <trkpt lat="44.25337" lon="5.51039">
        <ele>1153.5999755859</ele>
        <time>2016-05-07T09:53:53Z</time>
      </trkpt>
      <trkpt lat="44.25333" lon="5.51034">
        <ele>1153.5999755859</ele>
        <time>2016-05-07T09:55:00Z</time>
      </trkpt>
      <trkpt lat="44.2533" lon="5.51027">
        <ele>1153.5999755859</ele>
        <time>2016-05-07T09:56:42Z</time>
      </trkpt>
      <trkpt lat="44.2533" lon="5.51025">
        <ele>1153.5999755859</ele>
        <time>2016-05-07T09:56:47Z</time>
      </trkpt>
      <trkpt lat="44.25326" lon="5.51021">
        <ele>1153.5999755859</ele>
        <time>2016-05-07T09:58:12Z</time>
      </trkpt>
      <trkpt lat="44.25325" lon="5.51019">
        <ele>1153.5999755859</ele>
        <time>2016-05-07T09:58:30Z</time>
      </trkpt>
      <trkpt lat="44.25325" lon="5.51017">
        <ele>1153.5999755859</ele>
        <time>2016-05-07T09:58:33Z</time>
      </trkpt>
      <trkpt lat="44.25326" lon="5.51016">
        <ele>1154</ele>
        <time>2016-05-07T09:59:25Z</time>
      </trkpt>
      <trkpt lat="44.25326" lon="5.51016">
        <ele>1154.4000244141</ele>
        <time>2016-05-07T09:59:28Z</time>
      </trkpt>
      <trkpt lat="44.25326" lon="5.51016">
        <ele>1155.1999511719</ele>
        <time>2016-05-07T09:59:32Z</time>
      </trkpt>
      <trkpt lat="44.25326" lon="5.51016">
        <ele>1155.5999755859</ele>
        <time>2016-05-07T09:59:35Z</time>
      </trkpt>
      <trkpt lat="44.25326" lon="5.51016">
        <ele>1155.5999755859</ele>
        <time>2016-05-07T09:59:49Z</time>
      </trkpt>
      <trkpt lat="44.25327" lon="5.51016">
        <ele>1155.5999755859</ele>
        <time>2016-05-07T10:00:22Z</time>
      </trkpt>
      <trkpt lat="44.2533" lon="5.51017">
        <ele>1156</ele>
        <time>2016-05-07T10:00:39Z</time>
      </trkpt>
      <trkpt lat="44.2533" lon="5.51017">
        <ele>1156.4000244141</ele>
        <time>2016-05-07T10:00:40Z</time>
      </trkpt>
      <trkpt lat="44.2533" lon="5.51017">
        <ele>1156.8000488281</ele>
        <time>2016-05-07T10:00:43Z</time>
      </trkpt>
      <trkpt lat="44.2533" lon="5.51017">
        <ele>1157.1999511719</ele>
        <time>2016-05-07T10:00:44Z</time>
      </trkpt>
      <trkpt lat="44.2533" lon="5.51017">
        <ele>1157.8000488281</ele>
        <time>2016-05-07T10:00:47Z</time>
      </trkpt>
      <trkpt lat="44.2533" lon="5.51017">
        <ele>1157.8000488281</ele>
        <time>2016-05-07T10:01:14Z</time>
      </trkpt>
      <trkpt lat="44.25331" lon="5.51016">
        <ele>1158.1999511719</ele>
        <time>2016-05-07T10:01:52Z</time>
      </trkpt>
      <trkpt lat="44.25331" lon="5.51016">
        <ele>1159</ele>
        <time>2016-05-07T10:01:56Z</time>
      </trkpt>
      <trkpt lat="44.25331" lon="5.51016">
        <ele>1159.4000244141</ele>
        <time>2016-05-07T10:01:59Z</time>
      </trkpt>
      <trkpt lat="44.25331" lon="5.51016">
        <ele>1160</ele>
        <time>2016-05-07T10:02:03Z</time>
      </trkpt>
      <trkpt lat="44.25334" lon="5.51009">
        <ele>1160.4000244141</ele>
        <time>2016-05-07T10:02:34Z</time>
      </trkpt>
      <trkpt lat="44.25335" lon="5.51009">
        <ele>1160.4000244141</ele>
        <time>2016-05-07T10:02:36Z</time>
      </trkpt>
      <trkpt lat="44.25335" lon="5.51008">
        <ele>1161.1999511719</ele>
        <time>2016-05-07T10:02:38Z</time>
      </trkpt>
      <trkpt lat="44.25335" lon="5.51008">
        <ele>1161.5999755859</ele>
        <time>2016-05-07T10:02:41Z</time>
      </trkpt>
      <trkpt lat="44.25335" lon="5.51008">
        <ele>1162</ele>
        <time>2016-05-07T10:02:44Z</time>
      </trkpt>
      <trkpt lat="44.25335" lon="5.51008">
        <ele>1162</ele>
        <time>2016-05-07T10:03:01Z</time>
      </trkpt>
      <trkpt lat="44.25335" lon="5.51008">
        <ele>1162.5999755859</ele>
        <time>2016-05-07T10:03:21Z</time>
      </trkpt>
      <trkpt lat="44.25335" lon="5.51008">
        <ele>1163</ele>
        <time>2016-05-07T10:03:22Z</time>
      </trkpt>
      <trkpt lat="44.25335" lon="5.51008">
        <ele>1163.5999755859</ele>
        <time>2016-05-07T10:03:23Z</time>
      </trkpt>
      <trkpt lat="44.25335" lon="5.51008">
        <ele>1164</ele>
        <time>2016-05-07T10:03:24Z</time>
      </trkpt>
      <trkpt lat="44.25335" lon="5.51008">
        <ele>1164.5999755859</ele>
        <time>2016-05-07T10:03:26Z</time>
      </trkpt>
      <trkpt lat="44.25336" lon="5.51007">
        <ele>1164.5999755859</ele>
        <time>2016-05-07T10:03:43Z</time>
      </trkpt>
      <trkpt lat="44.25338" lon="5.51005">
        <ele>1165</ele>
        <time>2016-05-07T10:04:20Z</time>
      </trkpt>
      <trkpt lat="44.25338" lon="5.51005">
        <ele>1165.4000244141</ele>
        <time>2016-05-07T10:04:21Z</time>
      </trkpt>
      <trkpt lat="44.25339" lon="5.51004">
        <ele>1166.4000244141</ele>
        <time>2016-05-07T10:04:24Z</time>
      </trkpt>
      <trkpt lat="44.25339" lon="5.51004">
        <ele>1166.8000488281</ele>
        <time>2016-05-07T10:04:27Z</time>
      </trkpt>
      <trkpt lat="44.2534" lon="5.51002">
        <ele>1167.4000244141</ele>
        <time>2016-05-07T10:04:34Z</time>
      </trkpt>
      <trkpt lat="44.2534" lon="5.51002">
        <ele>1167.8000488281</ele>
        <time>2016-05-07T10:04:35Z</time>
      </trkpt>
      <trkpt lat="44.2534" lon="5.51001">
        <ele>1168.4000244141</ele>
        <time>2016-05-07T10:04:38Z</time>
      </trkpt>
      <trkpt lat="44.2534" lon="5.51001">
        <ele>1169</ele>
        <time>2016-05-07T10:04:39Z</time>
      </trkpt>
      <trkpt lat="44.2534" lon="5.51001">
        <ele>1169.5999755859</ele>
        <time>2016-05-07T10:04:41Z</time>
      </trkpt>
      <trkpt lat="44.2534" lon="5.50994">
        <ele>1169.5999755859</ele>
        <time>2016-05-07T10:05:05Z</time>
      </trkpt>
      <trkpt lat="44.25342" lon="5.50993">
        <ele>1170</ele>
        <time>2016-05-07T10:06:27Z</time>
      </trkpt>
      <trkpt lat="44.25342" lon="5.50993">
        <ele>1170.5999755859</ele>
        <time>2016-05-07T10:06:30Z</time>
      </trkpt>
      <trkpt lat="44.25342" lon="5.50993">
        <ele>1171.4000244141</ele>
        <time>2016-05-07T10:06:33Z</time>
      </trkpt>
      <trkpt lat="44.25343" lon="5.50993">
        <ele>1172</ele>
        <time>2016-05-07T10:06:36Z</time>
      </trkpt>
      <trkpt lat="44.25343" lon="5.50993">
        <ele>1172.4000244141</ele>
        <time>2016-05-07T10:06:37Z</time>
      </trkpt>
      <trkpt lat="44.25344" lon="5.50993">
        <ele>1173.4000244141</ele>
        <time>2016-05-07T10:06:40Z</time>
      </trkpt>
      <trkpt lat="44.25345" lon="5.50993">
        <ele>1174</ele>
        <time>2016-05-07T10:06:44Z</time>
      </trkpt>
      <trkpt lat="44.25351" lon="5.50994">
        <ele>1174</ele>
        <time>2016-05-07T10:06:55Z</time>
      </trkpt>
      <trkpt lat="44.25352" lon="5.50996">
        <ele>1174.8000488281</ele>
        <time>2016-05-07T10:06:58Z</time>
      </trkpt>
      <trkpt lat="44.25355" lon="5.50998">
        <ele>1175.4000244141</ele>
        <time>2016-05-07T10:07:01Z</time>
      </trkpt>
      <trkpt lat="44.2536" lon="5.51001">
        <ele>1176.1999511719</ele>
        <time>2016-05-07T10:07:05Z</time>
      </trkpt>
      <trkpt lat="44.25366" lon="5.51006">
        <ele>1176.1999511719</ele>
        <time>2016-05-07T10:07:12Z</time>
      </trkpt>
      <trkpt lat="44.25368" lon="5.51008">
        <ele>1176.8000488281</ele>
        <time>2016-05-07T10:07:15Z</time>
      </trkpt>
      <trkpt lat="44.2537" lon="5.5101">
        <ele>1177.1999511719</ele>
        <time>2016-05-07T10:07:18Z</time>
      </trkpt>
      <trkpt lat="44.25371" lon="5.51011">
        <ele>1177.1999511719</ele>
        <time>2016-05-07T10:07:20Z</time>
      </trkpt>
      <trkpt lat="44.25371" lon="5.51012">
        <ele>1178.4000244141</ele>
        <time>2016-05-07T10:07:21Z</time>
      </trkpt>
      <trkpt lat="44.25371" lon="5.51013">
        <ele>1179</ele>
        <time>2016-05-07T10:07:24Z</time>
      </trkpt>
      <trkpt lat="44.25372" lon="5.51014">
        <ele>1179</ele>
        <time>2016-05-07T10:07:27Z</time>
      </trkpt>
      <trkpt lat="44.25374" lon="5.51022">
        <ele>1179</ele>
        <time>2016-05-07T10:07:46Z</time>
      </trkpt>
      <trkpt lat="44.2538" lon="5.51031">
        <ele>1179</ele>
        <time>2016-05-07T10:07:55Z</time>
      </trkpt>
      <trkpt lat="44.25381" lon="5.51032">
        <ele>1179.4000244141</ele>
        <time>2016-05-07T10:07:57Z</time>
      </trkpt>
      <trkpt lat="44.25384" lon="5.51034">
        <ele>1180</ele>
        <time>2016-05-07T10:08:00Z</time>
      </trkpt>
      <trkpt lat="44.25385" lon="5.51035">
        <ele>1180</ele>
        <time>2016-05-07T10:08:02Z</time>
      </trkpt>
      <trkpt lat="44.25386" lon="5.51036">
        <ele>1180</ele>
        <time>2016-05-07T10:08:03Z</time>
      </trkpt>
      <trkpt lat="44.25386" lon="5.51036">
        <ele>1180.4000244141</ele>
        <time>2016-05-07T10:08:04Z</time>
      </trkpt>
      <trkpt lat="44.25387" lon="5.51037">
        <ele>1181</ele>
        <time>2016-05-07T10:08:05Z</time>
      </trkpt>
      <trkpt lat="44.25389" lon="5.51038">
        <ele>1181.4000244141</ele>
        <time>2016-05-07T10:08:08Z</time>
      </trkpt>
      <trkpt lat="44.25391" lon="5.51039">
        <ele>1182.1999511719</ele>
        <time>2016-05-07T10:08:10Z</time>
      </trkpt>
      <trkpt lat="44.25391" lon="5.51039">
        <ele>1182.5999755859</ele>
        <time>2016-05-07T10:08:11Z</time>
      </trkpt>
      <trkpt lat="44.25394" lon="5.51041">
        <ele>1183.4000244141</ele>
        <time>2016-05-07T10:08:15Z</time>
      </trkpt>
      <trkpt lat="44.25397" lon="5.51042">
        <ele>1184</ele>
        <time>2016-05-07T10:08:18Z</time>
      </trkpt>
      <trkpt lat="44.254" lon="5.51044">
        <ele>1185</ele>
        <time>2016-05-07T10:08:22Z</time>
      </trkpt>
      <trkpt lat="44.25402" lon="5.51044">
        <ele>1186</ele>
        <time>2016-05-07T10:08:25Z</time>
      </trkpt>
      <trkpt lat="44.25405" lon="5.51045">
        <ele>1186.8000488281</ele>
        <time>2016-05-07T10:08:29Z</time>
      </trkpt>
      <trkpt lat="44.25406" lon="5.51046">
        <ele>1187.5999755859</ele>
        <time>2016-05-07T10:08:32Z</time>
      </trkpt>
      <trkpt lat="44.25407" lon="5.51046">
        <ele>1187.5999755859</ele>
        <time>2016-05-07T10:08:34Z</time>
      </trkpt>
      <trkpt lat="44.25408" lon="5.51045">
        <ele>1188</ele>
        <time>2016-05-07T10:08:36Z</time>
      </trkpt>
      <trkpt lat="44.25413" lon="5.51045">
        <ele>1188</ele>
        <time>2016-05-07T10:08:45Z</time>
      </trkpt>
      <trkpt lat="44.25416" lon="5.51047">
        <ele>1188.5999755859</ele>
        <time>2016-05-07T10:08:52Z</time>
      </trkpt>
      <trkpt lat="44.25418" lon="5.51047">
        <ele>1189</ele>
        <time>2016-05-07T10:08:55Z</time>
      </trkpt>
      <trkpt lat="44.25419" lon="5.51047">
        <ele>1189.5999755859</ele>
        <time>2016-05-07T10:08:56Z</time>
      </trkpt>
      <trkpt lat="44.2542" lon="5.51048">
        <ele>1189.5999755859</ele>
        <time>2016-05-07T10:08:58Z</time>
      </trkpt>
      <trkpt lat="44.25421" lon="5.51048">
        <ele>1190.4000244141</ele>
        <time>2016-05-07T10:08:59Z</time>
      </trkpt>
      <trkpt lat="44.25421" lon="5.51048">
        <ele>1191.1999511719</ele>
        <time>2016-05-07T10:09:00Z</time>
      </trkpt>
      <trkpt lat="44.25422" lon="5.51048">
        <ele>1191.8000488281</ele>
        <time>2016-05-07T10:09:02Z</time>
      </trkpt>
      <trkpt lat="44.25423" lon="5.51048">
        <ele>1192.5999755859</ele>
        <time>2016-05-07T10:09:03Z</time>
      </trkpt>
      <trkpt lat="44.25428" lon="5.51047">
        <ele>1192.5999755859</ele>
        <time>2016-05-07T10:09:09Z</time>
      </trkpt>
      <trkpt lat="44.2543" lon="5.51046">
        <ele>1192.5999755859</ele>
        <time>2016-05-07T10:09:15Z</time>
      </trkpt>
      <trkpt lat="44.25434" lon="5.51047">
        <ele>1193</ele>
        <time>2016-05-07T10:09:20Z</time>
      </trkpt>
      <trkpt lat="44.25435" lon="5.51046">
        <ele>1193.4000244141</ele>
        <time>2016-05-07T10:09:21Z</time>
      </trkpt>
      <trkpt lat="44.25438" lon="5.51047">
        <ele>1193.8000488281</ele>
        <time>2016-05-07T10:09:24Z</time>
      </trkpt>
      <trkpt lat="44.25439" lon="5.51045">
        <ele>1193.8000488281</ele>
        <time>2016-05-07T10:09:26Z</time>
      </trkpt>
      <trkpt lat="44.25439" lon="5.51045">
        <ele>1194.1999511719</ele>
        <time>2016-05-07T10:09:27Z</time>
      </trkpt>
      <trkpt lat="44.2544" lon="5.51044">
        <ele>1194.5999755859</ele>
        <time>2016-05-07T10:09:28Z</time>
      </trkpt>
      <trkpt lat="44.25441" lon="5.51041">
        <ele>1195.1999511719</ele>
        <time>2016-05-07T10:09:31Z</time>
      </trkpt>
      <trkpt lat="44.25442" lon="5.51038">
        <ele>1195.8000488281</ele>
        <time>2016-05-07T10:09:34Z</time>
      </trkpt>
      <trkpt lat="44.25443" lon="5.51037">
        <ele>1196.1999511719</ele>
        <time>2016-05-07T10:09:35Z</time>
      </trkpt>
      <trkpt lat="44.25442" lon="5.51034">
        <ele>1196.8000488281</ele>
        <time>2016-05-07T10:09:38Z</time>
      </trkpt>
      <trkpt lat="44.25441" lon="5.51033">
        <ele>1196.8000488281</ele>
        <time>2016-05-07T10:09:40Z</time>
      </trkpt>
      <trkpt lat="44.25439" lon="5.51024">
        <ele>1197.1999511719</ele>
        <time>2016-05-07T10:09:48Z</time>
      </trkpt>
      <trkpt lat="44.25439" lon="5.51023">
        <ele>1197.8000488281</ele>
        <time>2016-05-07T10:09:49Z</time>
      </trkpt>
      <trkpt lat="44.25439" lon="5.51022">
        <ele>1197.8000488281</ele>
        <time>2016-05-07T10:09:50Z</time>
      </trkpt>
      <trkpt lat="44.25439" lon="5.5102">
        <ele>1198.1999511719</ele>
        <time>2016-05-07T10:09:52Z</time>
      </trkpt>
      <trkpt lat="44.25439" lon="5.51016">
        <ele>1198.8000488281</ele>
        <time>2016-05-07T10:09:55Z</time>
      </trkpt>
      <trkpt lat="44.25438" lon="5.51015">
        <ele>1199.1999511719</ele>
        <time>2016-05-07T10:09:56Z</time>
      </trkpt>
      <trkpt lat="44.25438" lon="5.51009">
        <ele>1199.1999511719</ele>
        <time>2016-05-07T10:10:01Z</time>
      </trkpt>
      <trkpt lat="44.25438" lon="5.51008">
        <ele>1199.5999755859</ele>
        <time>2016-05-07T10:10:02Z</time>
      </trkpt>
      <trkpt lat="44.25438" lon="5.51007">
        <ele>1200.1999511719</ele>
        <time>2016-05-07T10:10:03Z</time>
      </trkpt>
      <trkpt lat="44.25438" lon="5.51003">
        <ele>1200.5999755859</ele>
        <time>2016-05-07T10:10:06Z</time>
      </trkpt>
      <trkpt lat="44.25437" lon="5.51001">
        <ele>1201</ele>
        <time>2016-05-07T10:10:07Z</time>
      </trkpt>
      <trkpt lat="44.25437" lon="5.50998">
        <ele>1201.4000244141</ele>
        <time>2016-05-07T10:10:10Z</time>
      </trkpt>
      <trkpt lat="44.25436" lon="5.50997">
        <ele>1201.4000244141</ele>
        <time>2016-05-07T10:10:11Z</time>
      </trkpt>
      <trkpt lat="44.25433" lon="5.50991">
        <ele>1201.4000244141</ele>
        <time>2016-05-07T10:10:20Z</time>
      </trkpt>
      <trkpt lat="44.2543" lon="5.50984">
        <ele>1201.4000244141</ele>
        <time>2016-05-07T10:10:25Z</time>
      </trkpt>
      <trkpt lat="44.25429" lon="5.50969">
        <ele>1202</ele>
        <time>2016-05-07T10:10:31Z</time>
      </trkpt>
      <trkpt lat="44.2543" lon="5.50964">
        <ele>1202</ele>
        <time>2016-05-07T10:10:33Z</time>
      </trkpt>
      <trkpt lat="44.25431" lon="5.50958">
        <ele>1202.4000244141</ele>
        <time>2016-05-07T10:10:35Z</time>
      </trkpt>
      <trkpt lat="44.25433" lon="5.5095">
        <ele>1203</ele>
        <time>2016-05-07T10:10:38Z</time>
      </trkpt>
      <trkpt lat="44.25432" lon="5.50944">
        <ele>1203</ele>
        <time>2016-05-07T10:10:40Z</time>
      </trkpt>
      <trkpt lat="44.25431" lon="5.50939">
        <ele>1204</ele>
        <time>2016-05-07T10:10:42Z</time>
      </trkpt>
      <trkpt lat="44.25429" lon="5.50931">
        <ele>1204</ele>
        <time>2016-05-07T10:10:46Z</time>
      </trkpt>
      <trkpt lat="44.25421" lon="5.50919">
        <ele>1204.4000244141</ele>
        <time>2016-05-07T10:10:52Z</time>
      </trkpt>
      <trkpt lat="44.25416" lon="5.50912">
        <ele>1204.8000488281</ele>
        <time>2016-05-07T10:10:55Z</time>
      </trkpt>
      <trkpt lat="44.25414" lon="5.50909">
        <ele>1205.1999511719</ele>
        <time>2016-05-07T10:10:56Z</time>
      </trkpt>
      <trkpt lat="44.25409" lon="5.50897">
        <ele>1205.8000488281</ele>
        <time>2016-05-07T10:10:59Z</time>
      </trkpt>
      <trkpt lat="44.25398" lon="5.50875">
        <ele>1206.1999511719</ele>
        <time>2016-05-07T10:11:03Z</time>
      </trkpt>
      <trkpt lat="44.25394" lon="5.5087">
        <ele>1206.1999511719</ele>
        <time>2016-05-07T10:11:04Z</time>
      </trkpt>
      <trkpt lat="44.25391" lon="5.50863">
        <ele>1206.1999511719</ele>
        <time>2016-05-07T10:11:05Z</time>
      </trkpt>
      <trkpt lat="44.25388" lon="5.50855">
        <ele>1205.4000244141</ele>
        <time>2016-05-07T10:11:06Z</time>
      </trkpt>
      <trkpt lat="44.25379" lon="5.50832">
        <ele>1205.4000244141</ele>
        <time>2016-05-07T10:11:09Z</time>
      </trkpt>
      <trkpt lat="44.25377" lon="5.50826">
        <ele>1202.5999755859</ele>
        <time>2016-05-07T10:11:10Z</time>
      </trkpt>
      <trkpt lat="44.2537" lon="5.50806">
        <ele>1200.8000488281</ele>
        <time>2016-05-07T10:11:13Z</time>
      </trkpt>
      <trkpt lat="44.25368" lon="5.50799">
        <ele>1200.8000488281</ele>
        <time>2016-05-07T10:11:14Z</time>
      </trkpt>
      <trkpt lat="44.25367" lon="5.50792">
        <ele>1200.8000488281</ele>
        <time>2016-05-07T10:11:15Z</time>
      </trkpt>
      <trkpt lat="44.25365" lon="5.50783">
        <ele>1198.8000488281</ele>
        <time>2016-05-07T10:11:16Z</time>
      </trkpt>
      <trkpt lat="44.25363" lon="5.50775">
        <ele>1196.5999755859</ele>
        <time>2016-05-07T10:11:17Z</time>
      </trkpt>
      <trkpt lat="44.2536" lon="5.50768">
        <ele>1196.5999755859</ele>
        <time>2016-05-07T10:11:18Z</time>
      </trkpt>
      <trkpt lat="44.25354" lon="5.50755">
        <ele>1194.4000244141</ele>
        <time>2016-05-07T10:11:20Z</time>
      </trkpt>
      <trkpt lat="44.25349" lon="5.50741">
        <ele>1194.4000244141</ele>
        <time>2016-05-07T10:11:22Z</time>
      </trkpt>
      <trkpt lat="44.25347" lon="5.50734">
        <ele>1191.8000488281</ele>
        <time>2016-05-07T10:11:23Z</time>
      </trkpt>
      <trkpt lat="44.25345" lon="5.50724">
        <ele>1189.1999511719</ele>
        <time>2016-05-07T10:11:24Z</time>
      </trkpt>
      <trkpt lat="44.25338" lon="5.50696">
        <ele>1186.4000244141</ele>
        <time>2016-05-07T10:11:27Z</time>
      </trkpt>
      <trkpt lat="44.25326" lon="5.50656">
        <ele>1180</ele>
        <time>2016-05-07T10:11:31Z</time>
      </trkpt>
      <trkpt lat="44.2532" lon="5.50633">
        <ele>1180</ele>
        <time>2016-05-07T10:11:33Z</time>
      </trkpt>
      <trkpt lat="44.25317" lon="5.5062">
        <ele>1176.5999755859</ele>
        <time>2016-05-07T10:11:34Z</time>
      </trkpt>
      <trkpt lat="44.25315" lon="5.50607">
        <ele>1173.1999511719</ele>
        <time>2016-05-07T10:11:35Z</time>
      </trkpt>
      <trkpt lat="44.25315" lon="5.50581">
        <ele>1173.1999511719</ele>
        <time>2016-05-07T10:11:37Z</time>
      </trkpt>
      <trkpt lat="44.25316" lon="5.50569">
        <ele>1167.8000488281</ele>
        <time>2016-05-07T10:11:38Z</time>
      </trkpt>
      <trkpt lat="44.25318" lon="5.50528">
        <ele>1163.5999755859</ele>
        <time>2016-05-07T10:11:42Z</time>
      </trkpt>
      <trkpt lat="44.25326" lon="5.50501">
        <ele>1160.4000244141</ele>
        <time>2016-05-07T10:11:45Z</time>
      </trkpt>
      <trkpt lat="44.25331" lon="5.50484">
        <ele>1160.4000244141</ele>
        <time>2016-05-07T10:11:47Z</time>
      </trkpt>
      <trkpt lat="44.25336" lon="5.50467">
        <ele>1157.1999511719</ele>
        <time>2016-05-07T10:11:49Z</time>
      </trkpt>
      <trkpt lat="44.25342" lon="5.50438">
        <ele>1156.8000488281</ele>
        <time>2016-05-07T10:11:52Z</time>
      </trkpt>
      <trkpt lat="44.25345" lon="5.50429">
        <ele>1156.8000488281</ele>
        <time>2016-05-07T10:11:53Z</time>
      </trkpt>
      <trkpt lat="44.25348" lon="5.5042">
        <ele>1156.8000488281</ele>
        <time>2016-05-07T10:11:54Z</time>
      </trkpt>
      <trkpt lat="44.25355" lon="5.50405">
        <ele>1155.4000244141</ele>
        <time>2016-05-07T10:11:56Z</time>
      </trkpt>
      <trkpt lat="44.25362" lon="5.5039">
        <ele>1155.4000244141</ele>
        <time>2016-05-07T10:11:58Z</time>
      </trkpt>
      <trkpt lat="44.25364" lon="5.50373">
        <ele>1154.1999511719</ele>
        <time>2016-05-07T10:12:00Z</time>
      </trkpt>
      <trkpt lat="44.25361" lon="5.50342">
        <ele>1153</ele>
        <time>2016-05-07T10:12:03Z</time>
      </trkpt>
      <trkpt lat="44.25359" lon="5.50332">
        <ele>1151.4000244141</ele>
        <time>2016-05-07T10:12:04Z</time>
      </trkpt>
      <trkpt lat="44.25353" lon="5.50306">
        <ele>1149.5999755859</ele>
        <time>2016-05-07T10:12:07Z</time>
      </trkpt>
      <trkpt lat="44.25351" lon="5.50297">
        <ele>1149.5999755859</ele>
        <time>2016-05-07T10:12:08Z</time>
      </trkpt>
      <trkpt lat="44.25346" lon="5.50288">
        <ele>1149.5999755859</ele>
        <time>2016-05-07T10:12:09Z</time>
      </trkpt>
      <trkpt lat="44.25342" lon="5.50278">
        <ele>1149.5999755859</ele>
        <time>2016-05-07T10:12:10Z</time>
      </trkpt>
      <trkpt lat="44.25339" lon="5.50269">
        <ele>1145.4000244141</ele>
        <time>2016-05-07T10:12:11Z</time>
      </trkpt>
      <trkpt lat="44.25331" lon="5.50253">
        <ele>1145.4000244141</ele>
        <time>2016-05-07T10:12:13Z</time>
      </trkpt>
      <trkpt lat="44.25328" lon="5.50245">
        <ele>1143</ele>
        <time>2016-05-07T10:12:14Z</time>
      </trkpt>
      <trkpt lat="44.25318" lon="5.50205">
        <ele>1138.1999511719</ele>
        <time>2016-05-07T10:12:18Z</time>
      </trkpt>
      <trkpt lat="44.25315" lon="5.50185">
        <ele>1138.1999511719</ele>
        <time>2016-05-07T10:12:20Z</time>
      </trkpt>
      <trkpt lat="44.25313" lon="5.50177">
        <ele>1135.5999755859</ele>
        <time>2016-05-07T10:12:21Z</time>
      </trkpt>
      <trkpt lat="44.25306" lon="5.50152">
        <ele>1135.5999755859</ele>
        <time>2016-05-07T10:12:24Z</time>
      </trkpt>
      <trkpt lat="44.25304" lon="5.50142">
        <ele>1131</ele>
        <time>2016-05-07T10:12:25Z</time>
      </trkpt>
      <trkpt lat="44.25303" lon="5.50112">
        <ele>1128.5999755859</ele>
        <time>2016-05-07T10:12:28Z</time>
      </trkpt>
      <trkpt lat="44.253" lon="5.50102">
        <ele>1128.5999755859</ele>
        <time>2016-05-07T10:12:29Z</time>
      </trkpt>
      <trkpt lat="44.25293" lon="5.50081">
        <ele>1128.5999755859</ele>
        <time>2016-05-07T10:12:31Z</time>
      </trkpt>
      <trkpt lat="44.25289" lon="5.50071">
        <ele>1123.8000488281</ele>
        <time>2016-05-07T10:12:32Z</time>
      </trkpt>
      <trkpt lat="44.25278" lon="5.50036">
        <ele>1121.1999511719</ele>
        <time>2016-05-07T10:12:35Z</time>
      </trkpt>
      <trkpt lat="44.25277" lon="5.50024">
        <ele>1121.1999511719</ele>
        <time>2016-05-07T10:12:36Z</time>
      </trkpt>
      <trkpt lat="44.25269" lon="5.49994">
        <ele>1116.1999511719</ele>
        <time>2016-05-07T10:12:39Z</time>
      </trkpt>
      <trkpt lat="44.25266" lon="5.49987">
        <ele>1116.1999511719</ele>
        <time>2016-05-07T10:12:40Z</time>
      </trkpt>
      <trkpt lat="44.25259" lon="5.49979">
        <ele>1113.8000488281</ele>
        <time>2016-05-07T10:12:42Z</time>
      </trkpt>
      <trkpt lat="44.25255" lon="5.49976">
        <ele>1113.8000488281</ele>
        <time>2016-05-07T10:12:43Z</time>
      </trkpt>
      <trkpt lat="44.2525" lon="5.4997">
        <ele>1113.8000488281</ele>
        <time>2016-05-07T10:12:44Z</time>
      </trkpt>
      <trkpt lat="44.25243" lon="5.49956">
        <ele>1109.5999755859</ele>
        <time>2016-05-07T10:12:46Z</time>
      </trkpt>
      <trkpt lat="44.25241" lon="5.49948">
        <ele>1109.5999755859</ele>
        <time>2016-05-07T10:12:47Z</time>
      </trkpt>
      <trkpt lat="44.2524" lon="5.49932">
        <ele>1107.8000488281</ele>
        <time>2016-05-07T10:12:49Z</time>
      </trkpt>
      <trkpt lat="44.25241" lon="5.49923">
        <ele>1107.8000488281</ele>
        <time>2016-05-07T10:12:50Z</time>
      </trkpt>
      <trkpt lat="44.2524" lon="5.49916">
        <ele>1107.8000488281</ele>
        <time>2016-05-07T10:12:51Z</time>
      </trkpt>
      <trkpt lat="44.25238" lon="5.4991">
        <ele>1106</ele>
        <time>2016-05-07T10:12:52Z</time>
      </trkpt>
      <trkpt lat="44.25236" lon="5.49905">
        <ele>1104.4000244141</ele>
        <time>2016-05-07T10:12:53Z</time>
      </trkpt>
      <trkpt lat="44.25235" lon="5.49896">
        <ele>1104.4000244141</ele>
        <time>2016-05-07T10:12:55Z</time>
      </trkpt>
      <trkpt lat="44.25233" lon="5.49889">
        <ele>1102.5999755859</ele>
        <time>2016-05-07T10:12:56Z</time>
      </trkpt>
      <trkpt lat="44.25226" lon="5.49868">
        <ele>1100.8000488281</ele>
        <time>2016-05-07T10:12:59Z</time>
      </trkpt>
      <trkpt lat="44.25224" lon="5.49854">
        <ele>1100.8000488281</ele>
        <time>2016-05-07T10:13:01Z</time>
      </trkpt>
      <trkpt lat="44.25223" lon="5.4983">
        <ele>1100.8000488281</ele>
        <time>2016-05-07T10:13:04Z</time>
      </trkpt>
      <trkpt lat="44.25223" lon="5.49796">
        <ele>1100.8000488281</ele>
        <time>2016-05-07T10:13:09Z</time>
      </trkpt>
      <trkpt lat="44.25229" lon="5.49741">
        <ele>1100.8000488281</ele>
        <time>2016-05-07T10:13:17Z</time>
      </trkpt>
      <trkpt lat="44.25233" lon="5.49719">
        <ele>1100.8000488281</ele>
        <time>2016-05-07T10:13:20Z</time>
      </trkpt>
      <trkpt lat="44.25241" lon="5.49708">
        <ele>1100.8000488281</ele>
        <time>2016-05-07T10:13:22Z</time>
      </trkpt>
      <trkpt lat="44.25251" lon="5.49696">
        <ele>1100.8000488281</ele>
        <time>2016-05-07T10:13:24Z</time>
      </trkpt>
      <trkpt lat="44.25262" lon="5.49681">
        <ele>1100.4000244141</ele>
        <time>2016-05-07T10:13:26Z</time>
      </trkpt>
      <trkpt lat="44.25289" lon="5.49635">
        <ele>1100.4000244141</ele>
        <time>2016-05-07T10:13:31Z</time>
      </trkpt>
      <trkpt lat="44.25301" lon="5.49612">
        <ele>1099.1999511719</ele>
        <time>2016-05-07T10:13:33Z</time>
      </trkpt>
      <trkpt lat="44.25319" lon="5.49575">
        <ele>1095</ele>
        <time>2016-05-07T10:13:36Z</time>
      </trkpt>
      <trkpt lat="44.25347" lon="5.49517">
        <ele>1092.4000244141</ele>
        <time>2016-05-07T10:13:41Z</time>
      </trkpt>
      <trkpt lat="44.25373" lon="5.49472">
        <ele>1089.5999755859</ele>
        <time>2016-05-07T10:13:45Z</time>
      </trkpt>
      <trkpt lat="44.25379" lon="5.49462">
        <ele>1089.5999755859</ele>
        <time>2016-05-07T10:13:46Z</time>
      </trkpt>
      <trkpt lat="44.25389" lon="5.49442">
        <ele>1086.8000488281</ele>
        <time>2016-05-07T10:13:48Z</time>
      </trkpt>
      <trkpt lat="44.25394" lon="5.49432">
        <ele>1084</ele>
        <time>2016-05-07T10:13:49Z</time>
      </trkpt>
      <trkpt lat="44.25407" lon="5.49401">
        <ele>1081.8000488281</ele>
        <time>2016-05-07T10:13:52Z</time>
      </trkpt>
      <trkpt lat="44.2541" lon="5.49389">
        <ele>1081.8000488281</ele>
        <time>2016-05-07T10:13:53Z</time>
      </trkpt>
      <trkpt lat="44.25415" lon="5.49365">
        <ele>1079.4000244141</ele>
        <time>2016-05-07T10:13:55Z</time>
      </trkpt>
      <trkpt lat="44.25417" lon="5.49353">
        <ele>1077.5999755859</ele>
        <time>2016-05-07T10:13:56Z</time>
      </trkpt>
      <trkpt lat="44.25422" lon="5.49313">
        <ele>1075.8000488281</ele>
        <time>2016-05-07T10:13:59Z</time>
      </trkpt>
      <trkpt lat="44.25426" lon="5.49301">
        <ele>1075.8000488281</ele>
        <time>2016-05-07T10:14:00Z</time>
      </trkpt>
      <trkpt lat="44.2543" lon="5.49288">
        <ele>1075.8000488281</ele>
        <time>2016-05-07T10:14:01Z</time>
      </trkpt>
      <trkpt lat="44.25433" lon="5.49275">
        <ele>1074.4000244141</ele>
        <time>2016-05-07T10:14:02Z</time>
      </trkpt>
      <trkpt lat="44.25437" lon="5.49264">
        <ele>1072.8000488281</ele>
        <time>2016-05-07T10:14:03Z</time>
      </trkpt>
      <trkpt lat="44.25448" lon="5.49243">
        <ele>1072.8000488281</ele>
        <time>2016-05-07T10:14:05Z</time>
      </trkpt>
      <trkpt lat="44.25455" lon="5.49232">
        <ele>1071.4000244141</ele>
        <time>2016-05-07T10:14:06Z</time>
      </trkpt>
      <trkpt lat="44.25473" lon="5.49205">
        <ele>1070</ele>
        <time>2016-05-07T10:14:09Z</time>
      </trkpt>
      <trkpt lat="44.25478" lon="5.49196">
        <ele>1068.5999755859</ele>
        <time>2016-05-07T10:14:10Z</time>
      </trkpt>
      <trkpt lat="44.25492" lon="5.49167">
        <ele>1067</ele>
        <time>2016-05-07T10:14:13Z</time>
      </trkpt>
      <trkpt lat="44.25511" lon="5.49135">
        <ele>1065.4000244141</ele>
        <time>2016-05-07T10:14:16Z</time>
      </trkpt>
      <trkpt lat="44.25526" lon="5.49103">
        <ele>1063.5999755859</ele>
        <time>2016-05-07T10:14:19Z</time>
      </trkpt>
      <trkpt lat="44.2553" lon="5.49092">
        <ele>1061.5999755859</ele>
        <time>2016-05-07T10:14:20Z</time>
      </trkpt>
      <trkpt lat="44.25541" lon="5.49062">
        <ele>1059.5999755859</ele>
        <time>2016-05-07T10:14:23Z</time>
      </trkpt>
      <trkpt lat="44.25545" lon="5.49048">
        <ele>1059.5999755859</ele>
        <time>2016-05-07T10:14:25Z</time>
      </trkpt>
      <trkpt lat="44.25547" lon="5.4904">
        <ele>1057.4000244141</ele>
        <time>2016-05-07T10:14:26Z</time>
      </trkpt>
      <trkpt lat="44.25549" lon="5.49032">
        <ele>1055.5999755859</ele>
        <time>2016-05-07T10:14:27Z</time>
      </trkpt>
      <trkpt lat="44.25562" lon="5.49005">
        <ele>1053.8000488281</ele>
        <time>2016-05-07T10:14:30Z</time>
      </trkpt>
      <trkpt lat="44.25573" lon="5.4898">
        <ele>1052</ele>
        <time>2016-05-07T10:14:33Z</time>
      </trkpt>
      <trkpt lat="44.25577" lon="5.48972">
        <ele>1050.1999511719</ele>
        <time>2016-05-07T10:14:34Z</time>
      </trkpt>
      <trkpt lat="44.25581" lon="5.48964">
        <ele>1050.1999511719</ele>
        <time>2016-05-07T10:14:35Z</time>
      </trkpt>
      <trkpt lat="44.25587" lon="5.48943">
        <ele>1048.4000244141</ele>
        <time>2016-05-07T10:14:37Z</time>
      </trkpt>
      <trkpt lat="44.25591" lon="5.48922">
        <ele>1048.4000244141</ele>
        <time>2016-05-07T10:14:39Z</time>
      </trkpt>
      <trkpt lat="44.25593" lon="5.48899">
        <ele>1046.4000244141</ele>
        <time>2016-05-07T10:14:41Z</time>
      </trkpt>
      <trkpt lat="44.25595" lon="5.48877">
        <ele>1046.4000244141</ele>
        <time>2016-05-07T10:14:43Z</time>
      </trkpt>
      <trkpt lat="44.25595" lon="5.48865">
        <ele>1044.1999511719</ele>
        <time>2016-05-07T10:14:44Z</time>
      </trkpt>
      <trkpt lat="44.25595" lon="5.48828">
        <ele>1042</ele>
        <time>2016-05-07T10:14:47Z</time>
      </trkpt>
      <trkpt lat="44.25595" lon="5.48814">
        <ele>1039.8000488281</ele>
        <time>2016-05-07T10:14:48Z</time>
      </trkpt>
      <trkpt lat="44.256" lon="5.48774">
        <ele>1038</ele>
        <time>2016-05-07T10:14:51Z</time>
      </trkpt>
      <trkpt lat="44.25601" lon="5.48733">
        <ele>1036.1999511719</ele>
        <time>2016-05-07T10:14:54Z</time>
      </trkpt>
      <trkpt lat="44.25602" lon="5.48666">
        <ele>1034.4000244141</ele>
        <time>2016-05-07T10:15:00Z</time>
      </trkpt>
      <trkpt lat="44.25602" lon="5.48645">
        <ele>1032.5999755859</ele>
        <time>2016-05-07T10:15:02Z</time>
      </trkpt>
      <trkpt lat="44.25602" lon="5.48635">
        <ele>1030.8000488281</ele>
        <time>2016-05-07T10:15:03Z</time>
      </trkpt>
      <trkpt lat="44.25599" lon="5.48604">
        <ele>1029</ele>
        <time>2016-05-07T10:15:06Z</time>
      </trkpt>
      <trkpt lat="44.256" lon="5.48595">
        <ele>1029.1999511719</ele>
        <time>2016-05-07T10:15:07Z</time>
      </trkpt>
      <trkpt lat="44.25601" lon="5.48586">
        <ele>1029.1999511719</ele>
        <time>2016-05-07T10:15:08Z</time>
      </trkpt>
      <trkpt lat="44.25603" lon="5.48577">
        <ele>1029.1999511719</ele>
        <time>2016-05-07T10:15:09Z</time>
      </trkpt>
      <trkpt lat="44.25605" lon="5.48568">
        <ele>1029.1999511719</ele>
        <time>2016-05-07T10:15:10Z</time>
      </trkpt>
      <trkpt lat="44.2561" lon="5.48542">
        <ele>1029.4000244141</ele>
        <time>2016-05-07T10:15:13Z</time>
      </trkpt>
      <trkpt lat="44.25611" lon="5.48533">
        <ele>1029.4000244141</ele>
        <time>2016-05-07T10:15:14Z</time>
      </trkpt>
      <trkpt lat="44.25618" lon="5.48505">
        <ele>1029.4000244141</ele>
        <time>2016-05-07T10:15:17Z</time>
      </trkpt>
      <trkpt lat="44.25629" lon="5.48464">
        <ele>1029.4000244141</ele>
        <time>2016-05-07T10:15:22Z</time>
      </trkpt>
      <trkpt lat="44.2563" lon="5.4845">
        <ele>1029.4000244141</ele>
        <time>2016-05-07T10:15:25Z</time>
      </trkpt>
      <trkpt lat="44.25632" lon="5.48437">
        <ele>1029.4000244141</ele>
        <time>2016-05-07T10:15:30Z</time>
      </trkpt>
      <trkpt lat="44.25631" lon="5.48428">
        <ele>1030</ele>
        <time>2016-05-07T10:15:34Z</time>
      </trkpt>
      <trkpt lat="44.25631" lon="5.48426">
        <ele>1030.4000244141</ele>
        <time>2016-05-07T10:15:35Z</time>
      </trkpt>
      <trkpt lat="44.2563" lon="5.4842">
        <ele>1030.8000488281</ele>
        <time>2016-05-07T10:15:38Z</time>
      </trkpt>
      <trkpt lat="44.2563" lon="5.48415">
        <ele>1031.5999755859</ele>
        <time>2016-05-07T10:15:41Z</time>
      </trkpt>
      <trkpt lat="44.2563" lon="5.48409">
        <ele>1032</ele>
        <time>2016-05-07T10:15:45Z</time>
      </trkpt>
      <trkpt lat="44.2563" lon="5.48402">
        <ele>1032.4000244141</ele>
        <time>2016-05-07T10:15:49Z</time>
      </trkpt>
      <trkpt lat="44.2563" lon="5.48401">
        <ele>1032.4000244141</ele>
        <time>2016-05-07T10:15:50Z</time>
      </trkpt>
      <trkpt lat="44.25629" lon="5.48397">
        <ele>1032.8000488281</ele>
        <time>2016-05-07T10:15:53Z</time>
      </trkpt>
      <trkpt lat="44.25629" lon="5.48393">
        <ele>1033.1999511719</ele>
        <time>2016-05-07T10:15:56Z</time>
      </trkpt>
      <trkpt lat="44.25628" lon="5.48386">
        <ele>1034.4000244141</ele>
        <time>2016-05-07T10:16:00Z</time>
      </trkpt>
      <trkpt lat="44.25629" lon="5.48385">
        <ele>1034.4000244141</ele>
        <time>2016-05-07T10:16:01Z</time>
      </trkpt>
      <trkpt lat="44.25631" lon="5.4838">
        <ele>1035</ele>
        <time>2016-05-07T10:16:04Z</time>
      </trkpt>
      <trkpt lat="44.25631" lon="5.48376">
        <ele>1036</ele>
        <time>2016-05-07T10:16:07Z</time>
      </trkpt>
      <trkpt lat="44.25632" lon="5.48374">
        <ele>1036.5999755859</ele>
        <time>2016-05-07T10:16:08Z</time>
      </trkpt>
      <trkpt lat="44.25632" lon="5.48372">
        <ele>1037.1999511719</ele>
        <time>2016-05-07T10:16:09Z</time>
      </trkpt>
      <trkpt lat="44.25634" lon="5.48365">
        <ele>1038.1999511719</ele>
        <time>2016-05-07T10:16:14Z</time>
      </trkpt>
      <trkpt lat="44.25633" lon="5.4836">
        <ele>1038.1999511719</ele>
        <time>2016-05-07T10:16:17Z</time>
      </trkpt>
      <trkpt lat="44.25633" lon="5.48358">
        <ele>1038.8000488281</ele>
        <time>2016-05-07T10:16:18Z</time>
      </trkpt>
      <trkpt lat="44.25632" lon="5.48353">
        <ele>1040</ele>
        <time>2016-05-07T10:16:21Z</time>
      </trkpt>
      <trkpt lat="44.25629" lon="5.48344">
        <ele>1040.4000244141</ele>
        <time>2016-05-07T10:16:25Z</time>
      </trkpt>
      <trkpt lat="44.25628" lon="5.48343">
        <ele>1040.4000244141</ele>
        <time>2016-05-07T10:16:26Z</time>
      </trkpt>
      <trkpt lat="44.25628" lon="5.48331">
        <ele>1040.8000488281</ele>
        <time>2016-05-07T10:16:32Z</time>
      </trkpt>
      <trkpt lat="44.25629" lon="5.48323">
        <ele>1041.5999755859</ele>
        <time>2016-05-07T10:16:35Z</time>
      </trkpt>
      <trkpt lat="44.25631" lon="5.48312">
        <ele>1042.4000244141</ele>
        <time>2016-05-07T10:16:39Z</time>
      </trkpt>
      <trkpt lat="44.25636" lon="5.48303">
        <ele>1042.4000244141</ele>
        <time>2016-05-07T10:16:43Z</time>
      </trkpt>
      <trkpt lat="44.25638" lon="5.48273">
        <ele>1042.4000244141</ele>
        <time>2016-05-07T10:16:53Z</time>
      </trkpt>
      <trkpt lat="44.25639" lon="5.48251">
        <ele>1042.4000244141</ele>
        <time>2016-05-07T10:17:02Z</time>
      </trkpt>
      <trkpt lat="44.25639" lon="5.48249">
        <ele>1043.4000244141</ele>
        <time>2016-05-07T10:17:03Z</time>
      </trkpt>
      <trkpt lat="44.2564" lon="5.4824">
        <ele>1043.8000488281</ele>
        <time>2016-05-07T10:17:07Z</time>
      </trkpt>
      <trkpt lat="44.2564" lon="5.48234">
        <ele>1044.5999755859</ele>
        <time>2016-05-07T10:17:10Z</time>
      </trkpt>
      <trkpt lat="44.25639" lon="5.48232">
        <ele>1044.5999755859</ele>
        <time>2016-05-07T10:17:11Z</time>
      </trkpt>
      <trkpt lat="44.25639" lon="5.48219">
        <ele>1045.4000244141</ele>
        <time>2016-05-07T10:17:17Z</time>
      </trkpt>
      <trkpt lat="44.25638" lon="5.48214">
        <ele>1045.4000244141</ele>
        <time>2016-05-07T10:17:20Z</time>
      </trkpt>
      <trkpt lat="44.25638" lon="5.48212">
        <ele>1046</ele>
        <time>2016-05-07T10:17:21Z</time>
      </trkpt>
      <trkpt lat="44.25638" lon="5.48207">
        <ele>1046.4000244141</ele>
        <time>2016-05-07T10:17:24Z</time>
      </trkpt>
      <trkpt lat="44.25638" lon="5.48205">
        <ele>1046.8000488281</ele>
        <time>2016-05-07T10:17:25Z</time>
      </trkpt>
      <trkpt lat="44.25639" lon="5.48201">
        <ele>1047.4000244141</ele>
        <time>2016-05-07T10:17:28Z</time>
      </trkpt>
      <trkpt lat="44.25639" lon="5.48199">
        <ele>1047.4000244141</ele>
        <time>2016-05-07T10:17:29Z</time>
      </trkpt>
      <trkpt lat="44.2564" lon="5.48195">
        <ele>1048</ele>
        <time>2016-05-07T10:17:31Z</time>
      </trkpt>
      <trkpt lat="44.2564" lon="5.48193">
        <ele>1048.4000244141</ele>
        <time>2016-05-07T10:17:32Z</time>
      </trkpt>
      <trkpt lat="44.25642" lon="5.48186">
        <ele>1049</ele>
        <time>2016-05-07T10:17:35Z</time>
      </trkpt>
      <trkpt lat="44.25642" lon="5.48184">
        <ele>1049</ele>
        <time>2016-05-07T10:17:36Z</time>
      </trkpt>
      <trkpt lat="44.25644" lon="5.48172">
        <ele>1049.4000244141</ele>
        <time>2016-05-07T10:17:42Z</time>
      </trkpt>
      <trkpt lat="44.25643" lon="5.48167">
        <ele>1049.8000488281</ele>
        <time>2016-05-07T10:17:45Z</time>
      </trkpt>
      <trkpt lat="44.25643" lon="5.48165">
        <ele>1050.1999511719</ele>
        <time>2016-05-07T10:17:46Z</time>
      </trkpt>
      <trkpt lat="44.25642" lon="5.48161">
        <ele>1050.1999511719</ele>
        <time>2016-05-07T10:17:48Z</time>
      </trkpt>
      <trkpt lat="44.25642" lon="5.48159">
        <ele>1050.5999755859</ele>
        <time>2016-05-07T10:17:49Z</time>
      </trkpt>
      <trkpt lat="44.25641" lon="5.48155">
        <ele>1051</ele>
        <time>2016-05-07T10:17:52Z</time>
      </trkpt>
      <trkpt lat="44.2564" lon="5.48153">
        <ele>1051.4000244141</ele>
        <time>2016-05-07T10:17:53Z</time>
      </trkpt>
      <trkpt lat="44.25638" lon="5.4815">
        <ele>1051.8000488281</ele>
        <time>2016-05-07T10:17:56Z</time>
      </trkpt>
      <trkpt lat="44.25636" lon="5.48146">
        <ele>1052.8000488281</ele>
        <time>2016-05-07T10:17:59Z</time>
      </trkpt>
      <trkpt lat="44.25632" lon="5.4814">
        <ele>1053.1999511719</ele>
        <time>2016-05-07T10:18:03Z</time>
      </trkpt>
      <trkpt lat="44.25631" lon="5.48136">
        <ele>1053.1999511719</ele>
        <time>2016-05-07T10:18:05Z</time>
      </trkpt>
      <trkpt lat="44.2563" lon="5.48133">
        <ele>1053.5999755859</ele>
        <time>2016-05-07T10:18:06Z</time>
      </trkpt>
      <trkpt lat="44.2563" lon="5.4813">
        <ele>1054</ele>
        <time>2016-05-07T10:18:07Z</time>
      </trkpt>
      <trkpt lat="44.25627" lon="5.48123">
        <ele>1054.4000244141</ele>
        <time>2016-05-07T10:18:10Z</time>
      </trkpt>
      <trkpt lat="44.25626" lon="5.48116">
        <ele>1055.1999511719</ele>
        <time>2016-05-07T10:18:13Z</time>
      </trkpt>
      <trkpt lat="44.25625" lon="5.48113">
        <ele>1055.1999511719</ele>
        <time>2016-05-07T10:18:14Z</time>
      </trkpt>
      <trkpt lat="44.25623" lon="5.48086">
        <ele>1055.1999511719</ele>
        <time>2016-05-07T10:18:22Z</time>
      </trkpt>
      <trkpt lat="44.25621" lon="5.48059">
        <ele>1055.1999511719</ele>
        <time>2016-05-07T10:18:28Z</time>
      </trkpt>
      <trkpt lat="44.2562" lon="5.48056">
        <ele>1055.5999755859</ele>
        <time>2016-05-07T10:18:29Z</time>
      </trkpt>
      <trkpt lat="44.2562" lon="5.48045">
        <ele>1056</ele>
        <time>2016-05-07T10:18:33Z</time>
      </trkpt>
      <trkpt lat="44.25621" lon="5.48039">
        <ele>1056</ele>
        <time>2016-05-07T10:18:35Z</time>
      </trkpt>
      <trkpt lat="44.25626" lon="5.4802">
        <ele>1056.4000244141</ele>
        <time>2016-05-07T10:18:40Z</time>
      </trkpt>
      <trkpt lat="44.25631" lon="5.47998">
        <ele>1056.8000488281</ele>
        <time>2016-05-07T10:18:44Z</time>
      </trkpt>
      <trkpt lat="44.25633" lon="5.47981">
        <ele>1057.1999511719</ele>
        <time>2016-05-07T10:18:47Z</time>
      </trkpt>
      <trkpt lat="44.25636" lon="5.47937">
        <ele>1057.1999511719</ele>
        <time>2016-05-07T10:18:53Z</time>
      </trkpt>
      <trkpt lat="44.2564" lon="5.47888">
        <ele>1057.1999511719</ele>
        <time>2016-05-07T10:19:00Z</time>
      </trkpt>
      <trkpt lat="44.25645" lon="5.47851">
        <ele>1057.1999511719</ele>
        <time>2016-05-07T10:19:07Z</time>
      </trkpt>
      <trkpt lat="44.25644" lon="5.47823">
        <ele>1057.1999511719</ele>
        <time>2016-05-07T10:19:14Z</time>
      </trkpt>
      <trkpt lat="44.25644" lon="5.4782">
        <ele>1057.8000488281</ele>
        <time>2016-05-07T10:19:15Z</time>
      </trkpt>
      <trkpt lat="44.25643" lon="5.47809">
        <ele>1058.1999511719</ele>
        <time>2016-05-07T10:19:18Z</time>
      </trkpt>
      <trkpt lat="44.25642" lon="5.47806">
        <ele>1058.8000488281</ele>
        <time>2016-05-07T10:19:19Z</time>
      </trkpt>
      <trkpt lat="44.25643" lon="5.47803">
        <ele>1058.8000488281</ele>
        <time>2016-05-07T10:19:20Z</time>
      </trkpt>
      <trkpt lat="44.25641" lon="5.47794">
        <ele>1059.1999511719</ele>
        <time>2016-05-07T10:19:22Z</time>
      </trkpt>
      <trkpt lat="44.25642" lon="5.47783">
        <ele>1059.8000488281</ele>
        <time>2016-05-07T10:19:25Z</time>
      </trkpt>
      <trkpt lat="44.25642" lon="5.4778">
        <ele>1059.8000488281</ele>
        <time>2016-05-07T10:19:26Z</time>
      </trkpt>
      <trkpt lat="44.25643" lon="5.47773">
        <ele>1060.1999511719</ele>
        <time>2016-05-07T10:19:29Z</time>
      </trkpt>
      <trkpt lat="44.25645" lon="5.47766">
        <ele>1060.5999755859</ele>
        <time>2016-05-07T10:19:32Z</time>
      </trkpt>
      <trkpt lat="44.25645" lon="5.47763">
        <ele>1061.1999511719</ele>
        <time>2016-05-07T10:19:33Z</time>
      </trkpt>
      <trkpt lat="44.25646" lon="5.47756">
        <ele>1061.5999755859</ele>
        <time>2016-05-07T10:19:36Z</time>
      </trkpt>
      <trkpt lat="44.25647" lon="5.4775">
        <ele>1062</ele>
        <time>2016-05-07T10:19:39Z</time>
      </trkpt>
      <trkpt lat="44.25647" lon="5.47743">
        <ele>1062</ele>
        <time>2016-05-07T10:19:42Z</time>
      </trkpt>
      <trkpt lat="44.25648" lon="5.47741">
        <ele>1062.4000244141</ele>
        <time>2016-05-07T10:19:43Z</time>
      </trkpt>
      <trkpt lat="44.2565" lon="5.47735">
        <ele>1063</ele>
        <time>2016-05-07T10:19:46Z</time>
      </trkpt>
      <trkpt lat="44.25651" lon="5.47733">
        <ele>1063.4000244141</ele>
        <time>2016-05-07T10:19:47Z</time>
      </trkpt>
      <trkpt lat="44.25655" lon="5.47729">
        <ele>1063.8000488281</ele>
        <time>2016-05-07T10:19:50Z</time>
      </trkpt>
      <trkpt lat="44.25657" lon="5.47725">
        <ele>1063.8000488281</ele>
        <time>2016-05-07T10:19:52Z</time>
      </trkpt>
      <trkpt lat="44.25658" lon="5.47724">
        <ele>1064.1999511719</ele>
        <time>2016-05-07T10:19:53Z</time>
      </trkpt>
      <trkpt lat="44.25661" lon="5.47717">
        <ele>1064.8000488281</ele>
        <time>2016-05-07T10:19:57Z</time>
      </trkpt>
      <trkpt lat="44.25665" lon="5.47713">
        <ele>1065.1999511719</ele>
        <time>2016-05-07T10:20:00Z</time>
      </trkpt>
      <trkpt lat="44.25665" lon="5.47711">
        <ele>1065.5999755859</ele>
        <time>2016-05-07T10:20:01Z</time>
      </trkpt>
      <trkpt lat="44.25668" lon="5.47708">
        <ele>1066</ele>
        <time>2016-05-07T10:20:04Z</time>
      </trkpt>
      <trkpt lat="44.25671" lon="5.47704">
        <ele>1066.4000244141</ele>
        <time>2016-05-07T10:20:07Z</time>
      </trkpt>
      <trkpt lat="44.25672" lon="5.47703">
        <ele>1066.8000488281</ele>
        <time>2016-05-07T10:20:08Z</time>
      </trkpt>
      <trkpt lat="44.25674" lon="5.47699">
        <ele>1067.4000244141</ele>
        <time>2016-05-07T10:20:11Z</time>
      </trkpt>
      <trkpt lat="44.25677" lon="5.47694">
        <ele>1067.8000488281</ele>
        <time>2016-05-07T10:20:14Z</time>
      </trkpt>
      <trkpt lat="44.25679" lon="5.47692">
        <ele>1068.1999511719</ele>
        <time>2016-05-07T10:20:15Z</time>
      </trkpt>
      <trkpt lat="44.25682" lon="5.47687">
        <ele>1068.5999755859</ele>
        <time>2016-05-07T10:20:18Z</time>
      </trkpt>
      <trkpt lat="44.25685" lon="5.47682">
        <ele>1068.5999755859</ele>
        <time>2016-05-07T10:20:20Z</time>
      </trkpt>
      <trkpt lat="44.25686" lon="5.4768">
        <ele>1069.1999511719</ele>
        <time>2016-05-07T10:20:21Z</time>
      </trkpt>
      <trkpt lat="44.25688" lon="5.47677">
        <ele>1069.5999755859</ele>
        <time>2016-05-07T10:20:22Z</time>
      </trkpt>
      <trkpt lat="44.25692" lon="5.47669">
        <ele>1070.1999511719</ele>
        <time>2016-05-07T10:20:25Z</time>
      </trkpt>
      <trkpt lat="44.25694" lon="5.47667">
        <ele>1070.5999755859</ele>
        <time>2016-05-07T10:20:26Z</time>
      </trkpt>
      <trkpt lat="44.25697" lon="5.47661">
        <ele>1070.5999755859</ele>
        <time>2016-05-07T10:20:28Z</time>
      </trkpt>
      <trkpt lat="44.25706" lon="5.47632">
        <ele>1070.5999755859</ele>
        <time>2016-05-07T10:20:36Z</time>
      </trkpt>
      <trkpt lat="44.25711" lon="5.47616">
        <ele>1070.5999755859</ele>
        <time>2016-05-07T10:20:39Z</time>
      </trkpt>
      <trkpt lat="44.25714" lon="5.47597">
        <ele>1070.5999755859</ele>
        <time>2016-05-07T10:20:42Z</time>
      </trkpt>
      <trkpt lat="44.25716" lon="5.47584">
        <ele>1070.5999755859</ele>
        <time>2016-05-07T10:20:44Z</time>
      </trkpt>
      <trkpt lat="44.25722" lon="5.47564">
        <ele>1070.5999755859</ele>
        <time>2016-05-07T10:20:48Z</time>
      </trkpt>
      <trkpt lat="44.25727" lon="5.47535">
        <ele>1070.5999755859</ele>
        <time>2016-05-07T10:20:56Z</time>
      </trkpt>
      <trkpt lat="44.25731" lon="5.47503">
        <ele>1071</ele>
        <time>2016-05-07T10:21:03Z</time>
      </trkpt>
      <trkpt lat="44.25734" lon="5.4749">
        <ele>1071</ele>
        <time>2016-05-07T10:21:05Z</time>
      </trkpt>
      <trkpt lat="44.25735" lon="5.47477">
        <ele>1071.4000244141</ele>
        <time>2016-05-07T10:21:07Z</time>
      </trkpt>
      <trkpt lat="44.25737" lon="5.4747">
        <ele>1071.8000488281</ele>
        <time>2016-05-07T10:21:08Z</time>
      </trkpt>
      <trkpt lat="44.25742" lon="5.47456">
        <ele>1072.1999511719</ele>
        <time>2016-05-07T10:21:11Z</time>
      </trkpt>
      <trkpt lat="44.25743" lon="5.47451">
        <ele>1072.1999511719</ele>
        <time>2016-05-07T10:21:12Z</time>
      </trkpt>
      <trkpt lat="44.25745" lon="5.47445">
        <ele>1072.5999755859</ele>
        <time>2016-05-07T10:21:14Z</time>
      </trkpt>
      <trkpt lat="44.25749" lon="5.47437">
        <ele>1073</ele>
        <time>2016-05-07T10:21:18Z</time>
      </trkpt>
      <trkpt lat="44.2575" lon="5.47435">
        <ele>1073</ele>
        <time>2016-05-07T10:21:19Z</time>
      </trkpt>
      <trkpt lat="44.25753" lon="5.47432">
        <ele>1073.5999755859</ele>
        <time>2016-05-07T10:21:21Z</time>
      </trkpt>
      <trkpt lat="44.25753" lon="5.4743">
        <ele>1074</ele>
        <time>2016-05-07T10:21:22Z</time>
      </trkpt>
      <trkpt lat="44.25756" lon="5.47427">
        <ele>1074.5999755859</ele>
        <time>2016-05-07T10:21:25Z</time>
      </trkpt>
      <trkpt lat="44.25757" lon="5.47425">
        <ele>1074.5999755859</ele>
        <time>2016-05-07T10:21:26Z</time>
      </trkpt>
      <trkpt lat="44.25759" lon="5.47422">
        <ele>1075</ele>
        <time>2016-05-07T10:21:28Z</time>
      </trkpt>
      <trkpt lat="44.2576" lon="5.4742">
        <ele>1075.5999755859</ele>
        <time>2016-05-07T10:21:29Z</time>
      </trkpt>
      <trkpt lat="44.25764" lon="5.47413">
        <ele>1076.1999511719</ele>
        <time>2016-05-07T10:21:32Z</time>
      </trkpt>
      <trkpt lat="44.25766" lon="5.47406">
        <ele>1076.8000488281</ele>
        <time>2016-05-07T10:21:35Z</time>
      </trkpt>
      <trkpt lat="44.25767" lon="5.47403">
        <ele>1077.1999511719</ele>
        <time>2016-05-07T10:21:36Z</time>
      </trkpt>
      <trkpt lat="44.2577" lon="5.47396">
        <ele>1077.8000488281</ele>
        <time>2016-05-07T10:21:39Z</time>
      </trkpt>
      <trkpt lat="44.25772" lon="5.47389">
        <ele>1078.1999511719</ele>
        <time>2016-05-07T10:21:42Z</time>
      </trkpt>
      <trkpt lat="44.25773" lon="5.47387">
        <ele>1078.5999755859</ele>
        <time>2016-05-07T10:21:43Z</time>
      </trkpt>
      <trkpt lat="44.25776" lon="5.4738">
        <ele>1078.5999755859</ele>
        <time>2016-05-07T10:21:45Z</time>
      </trkpt>
      <trkpt lat="44.25776" lon="5.47378">
        <ele>1079</ele>
        <time>2016-05-07T10:21:46Z</time>
      </trkpt>
      <trkpt lat="44.2578" lon="5.47363">
        <ele>1079</ele>
        <time>2016-05-07T10:21:53Z</time>
      </trkpt>
      <trkpt lat="44.25782" lon="5.47357">
        <ele>1079.4000244141</ele>
        <time>2016-05-07T10:21:56Z</time>
      </trkpt>
      <trkpt lat="44.25783" lon="5.47355">
        <ele>1080</ele>
        <time>2016-05-07T10:21:57Z</time>
      </trkpt>
      <trkpt lat="44.25785" lon="5.4735">
        <ele>1080.4000244141</ele>
        <time>2016-05-07T10:22:00Z</time>
      </trkpt>
      <trkpt lat="44.25787" lon="5.47344">
        <ele>1080.8000488281</ele>
        <time>2016-05-07T10:22:03Z</time>
      </trkpt>
      <trkpt lat="44.25788" lon="5.47343">
        <ele>1081.1999511719</ele>
        <time>2016-05-07T10:22:04Z</time>
      </trkpt>
      <trkpt lat="44.2579" lon="5.47337">
        <ele>1081.5999755859</ele>
        <time>2016-05-07T10:22:08Z</time>
      </trkpt>
      <trkpt lat="44.25792" lon="5.47333">
        <ele>1082.5999755859</ele>
        <time>2016-05-07T10:22:11Z</time>
      </trkpt>
      <trkpt lat="44.25794" lon="5.47329">
        <ele>1083</ele>
        <time>2016-05-07T10:22:14Z</time>
      </trkpt>
      <trkpt lat="44.25797" lon="5.47324">
        <ele>1083.4000244141</ele>
        <time>2016-05-07T10:22:18Z</time>
      </trkpt>
      <trkpt lat="44.25798" lon="5.47323">
        <ele>1083.4000244141</ele>
        <time>2016-05-07T10:22:19Z</time>
      </trkpt>
      <trkpt lat="44.25798" lon="5.4732">
        <ele>1084</ele>
        <time>2016-05-07T10:22:21Z</time>
      </trkpt>
      <trkpt lat="44.258" lon="5.47316">
        <ele>1084.4000244141</ele>
        <time>2016-05-07T10:22:24Z</time>
      </trkpt>
      <trkpt lat="44.25801" lon="5.47314">
        <ele>1085</ele>
        <time>2016-05-07T10:22:25Z</time>
      </trkpt>
      <trkpt lat="44.25804" lon="5.4731">
        <ele>1085.4000244141</ele>
        <time>2016-05-07T10:22:28Z</time>
      </trkpt>
      <trkpt lat="44.25805" lon="5.47307">
        <ele>1085.4000244141</ele>
        <time>2016-05-07T10:22:30Z</time>
      </trkpt>
      <trkpt lat="44.25806" lon="5.47306">
        <ele>1086</ele>
        <time>2016-05-07T10:22:31Z</time>
      </trkpt>
      <trkpt lat="44.25807" lon="5.47304">
        <ele>1086.4000244141</ele>
        <time>2016-05-07T10:22:32Z</time>
      </trkpt>
      <trkpt lat="44.2581" lon="5.47299">
        <ele>1086.8000488281</ele>
        <time>2016-05-07T10:22:35Z</time>
      </trkpt>
      <trkpt lat="44.25813" lon="5.47295">
        <ele>1087.1999511719</ele>
        <time>2016-05-07T10:22:38Z</time>
      </trkpt>
      <trkpt lat="44.25814" lon="5.47294">
        <ele>1087.5999755859</ele>
        <time>2016-05-07T10:22:39Z</time>
      </trkpt>
      <trkpt lat="44.25815" lon="5.47292">
        <ele>1087.5999755859</ele>
        <time>2016-05-07T10:22:40Z</time>
      </trkpt>
      <trkpt lat="44.25817" lon="5.4729">
        <ele>1088</ele>
        <time>2016-05-07T10:22:42Z</time>
      </trkpt>
      <trkpt lat="44.25823" lon="5.47284">
        <ele>1088</ele>
        <time>2016-05-07T10:22:47Z</time>
      </trkpt>
      <trkpt lat="44.2583" lon="5.47273">
        <ele>1088.4000244141</ele>
        <time>2016-05-07T10:22:53Z</time>
      </trkpt>
      <trkpt lat="44.25832" lon="5.4727">
        <ele>1088.4000244141</ele>
        <time>2016-05-07T10:22:55Z</time>
      </trkpt>
      <trkpt lat="44.25833" lon="5.47268">
        <ele>1088.8000488281</ele>
        <time>2016-05-07T10:22:56Z</time>
      </trkpt>
      <trkpt lat="44.25835" lon="5.47264">
        <ele>1088.8000488281</ele>
        <time>2016-05-07T10:22:58Z</time>
      </trkpt>
      <trkpt lat="44.25837" lon="5.47261">
        <ele>1089.5999755859</ele>
        <time>2016-05-07T10:23:00Z</time>
      </trkpt>
      <trkpt lat="44.2584" lon="5.47255">
        <ele>1090</ele>
        <time>2016-05-07T10:23:03Z</time>
      </trkpt>
      <trkpt lat="44.25845" lon="5.4724">
        <ele>1090.4000244141</ele>
        <time>2016-05-07T10:23:10Z</time>
      </trkpt>
      <trkpt lat="44.2585" lon="5.47233">
        <ele>1090.8000488281</ele>
        <time>2016-05-07T10:23:14Z</time>
      </trkpt>
      <trkpt lat="44.25852" lon="5.47229">
        <ele>1091.1999511719</ele>
        <time>2016-05-07T10:23:17Z</time>
      </trkpt>
      <trkpt lat="44.25855" lon="5.47226">
        <ele>1091.1999511719</ele>
        <time>2016-05-07T10:23:19Z</time>
      </trkpt>
      <trkpt lat="44.25857" lon="5.47224">
        <ele>1092</ele>
        <time>2016-05-07T10:23:21Z</time>
      </trkpt>
      <trkpt lat="44.25862" lon="5.47222">
        <ele>1092.5999755859</ele>
        <time>2016-05-07T10:23:24Z</time>
      </trkpt>
      <trkpt lat="44.25868" lon="5.4722">
        <ele>1092.5999755859</ele>
        <time>2016-05-07T10:23:28Z</time>
      </trkpt>
      <trkpt lat="44.25873" lon="5.47219">
        <ele>1093</ele>
        <time>2016-05-07T10:23:31Z</time>
      </trkpt>
      <trkpt lat="44.25879" lon="5.47218">
        <ele>1094.1999511719</ele>
        <time>2016-05-07T10:23:35Z</time>
      </trkpt>
      <trkpt lat="44.25881" lon="5.47218">
        <ele>1094.1999511719</ele>
        <time>2016-05-07T10:23:37Z</time>
      </trkpt>
      <trkpt lat="44.25882" lon="5.47217">
        <ele>1095</ele>
        <time>2016-05-07T10:23:38Z</time>
      </trkpt>
      <trkpt lat="44.25887" lon="5.47214">
        <ele>1095.5999755859</ele>
        <time>2016-05-07T10:23:42Z</time>
      </trkpt>
      <trkpt lat="44.2589" lon="5.4721">
        <ele>1096.4000244141</ele>
        <time>2016-05-07T10:23:45Z</time>
      </trkpt>
      <trkpt lat="44.25893" lon="5.47207">
        <ele>1096.4000244141</ele>
        <time>2016-05-07T10:23:47Z</time>
      </trkpt>
      <trkpt lat="44.25896" lon="5.47204">
        <ele>1097</ele>
        <time>2016-05-07T10:23:49Z</time>
      </trkpt>
      <trkpt lat="44.259" lon="5.47194">
        <ele>1097.5999755859</ele>
        <time>2016-05-07T10:23:53Z</time>
      </trkpt>
      <trkpt lat="44.25902" lon="5.47186">
        <ele>1097.5999755859</ele>
        <time>2016-05-07T10:23:56Z</time>
      </trkpt>
      <trkpt lat="44.25903" lon="5.47184">
        <ele>1098</ele>
        <time>2016-05-07T10:23:57Z</time>
      </trkpt>
      <trkpt lat="44.25905" lon="5.47177">
        <ele>1098.4000244141</ele>
        <time>2016-05-07T10:24:00Z</time>
      </trkpt>
      <trkpt lat="44.25906" lon="5.47175">
        <ele>1099</ele>
        <time>2016-05-07T10:24:01Z</time>
      </trkpt>
      <trkpt lat="44.25911" lon="5.47169">
        <ele>1099.4000244141</ele>
        <time>2016-05-07T10:24:04Z</time>
      </trkpt>
      <trkpt lat="44.25926" lon="5.47145">
        <ele>1099.4000244141</ele>
        <time>2016-05-07T10:24:12Z</time>
      </trkpt>
      <trkpt lat="44.2594" lon="5.47131">
        <ele>1100</ele>
        <time>2016-05-07T10:24:18Z</time>
      </trkpt>
      <trkpt lat="44.2594" lon="5.47128">
        <ele>1100</ele>
        <time>2016-05-07T10:24:19Z</time>
      </trkpt>
      <trkpt lat="44.25945" lon="5.47125">
        <ele>1100.4000244141</ele>
        <time>2016-05-07T10:24:21Z</time>
      </trkpt>
      <trkpt lat="44.25946" lon="5.47123">
        <ele>1101</ele>
        <time>2016-05-07T10:24:22Z</time>
      </trkpt>
      <trkpt lat="44.25951" lon="5.47117">
        <ele>1101.4000244141</ele>
        <time>2016-05-07T10:24:25Z</time>
      </trkpt>
      <trkpt lat="44.25953" lon="5.47115">
        <ele>1101.4000244141</ele>
        <time>2016-05-07T10:24:26Z</time>
      </trkpt>
      <trkpt lat="44.25957" lon="5.47112">
        <ele>1102</ele>
        <time>2016-05-07T10:24:28Z</time>
      </trkpt>
      <trkpt lat="44.25958" lon="5.4711">
        <ele>1102.4000244141</ele>
        <time>2016-05-07T10:24:29Z</time>
      </trkpt>
      <trkpt lat="44.25964" lon="5.47104">
        <ele>1102.8000488281</ele>
        <time>2016-05-07T10:24:32Z</time>
      </trkpt>
      <trkpt lat="44.25966" lon="5.47103">
        <ele>1102.8000488281</ele>
        <time>2016-05-07T10:24:33Z</time>
      </trkpt>
      <trkpt lat="44.2597" lon="5.47099">
        <ele>1103.4000244141</ele>
        <time>2016-05-07T10:24:35Z</time>
      </trkpt>
      <trkpt lat="44.25972" lon="5.47096">
        <ele>1103.8000488281</ele>
        <time>2016-05-07T10:24:36Z</time>
      </trkpt>
      <trkpt lat="44.25977" lon="5.47089">
        <ele>1104.1999511719</ele>
        <time>2016-05-07T10:24:39Z</time>
      </trkpt>
      <trkpt lat="44.25978" lon="5.47086">
        <ele>1104.1999511719</ele>
        <time>2016-05-07T10:24:40Z</time>
      </trkpt>
      <trkpt lat="44.25988" lon="5.4707">
        <ele>1104.5999755859</ele>
        <time>2016-05-07T10:24:46Z</time>
      </trkpt>
      <trkpt lat="44.25994" lon="5.47061">
        <ele>1104.5999755859</ele>
        <time>2016-05-07T10:24:49Z</time>
      </trkpt>
      <trkpt lat="44.25995" lon="5.47058">
        <ele>1105.4000244141</ele>
        <time>2016-05-07T10:24:50Z</time>
      </trkpt>
      <trkpt lat="44.26003" lon="5.4705">
        <ele>1105.8000488281</ele>
        <time>2016-05-07T10:24:53Z</time>
      </trkpt>
      <trkpt lat="44.26011" lon="5.4704">
        <ele>1106.1999511719</ele>
        <time>2016-05-07T10:24:57Z</time>
      </trkpt>
      <trkpt lat="44.26017" lon="5.47031">
        <ele>1106.5999755859</ele>
        <time>2016-05-07T10:25:00Z</time>
      </trkpt>
      <trkpt lat="44.26025" lon="5.47016">
        <ele>1107.4000244141</ele>
        <time>2016-05-07T10:25:04Z</time>
      </trkpt>
      <trkpt lat="44.26031" lon="5.47008">
        <ele>1107.4000244141</ele>
        <time>2016-05-07T10:25:06Z</time>
      </trkpt>
      <trkpt lat="44.26034" lon="5.47004">
        <ele>1108</ele>
        <time>2016-05-07T10:25:07Z</time>
      </trkpt>
      <trkpt lat="44.26045" lon="5.46993">
        <ele>1108.4000244141</ele>
        <time>2016-05-07T10:25:10Z</time>
      </trkpt>
      <trkpt lat="44.26054" lon="5.46983">
        <ele>1108.4000244141</ele>
        <time>2016-05-07T10:25:13Z</time>
      </trkpt>
      <trkpt lat="44.26079" lon="5.46963">
        <ele>1108.4000244141</ele>
        <time>2016-05-07T10:25:19Z</time>
      </trkpt>
      <trkpt lat="44.26107" lon="5.46946">
        <ele>1108.4000244141</ele>
        <time>2016-05-07T10:25:25Z</time>
      </trkpt>
      <trkpt lat="44.26128" lon="5.46935">
        <ele>1108.4000244141</ele>
        <time>2016-05-07T10:25:30Z</time>
      </trkpt>
      <trkpt lat="44.26138" lon="5.46918">
        <ele>1108.4000244141</ele>
        <time>2016-05-07T10:25:34Z</time>
      </trkpt>
      <trkpt lat="44.26144" lon="5.46888">
        <ele>1108.4000244141</ele>
        <time>2016-05-07T10:25:38Z</time>
      </trkpt>
      <trkpt lat="44.26145" lon="5.46879">
        <ele>1108.4000244141</ele>
        <time>2016-05-07T10:25:39Z</time>
      </trkpt>
      <trkpt lat="44.26146" lon="5.46848">
        <ele>1107.8000488281</ele>
        <time>2016-05-07T10:25:42Z</time>
      </trkpt>
      <trkpt lat="44.26141" lon="5.46806">
        <ele>1105.4000244141</ele>
        <time>2016-05-07T10:25:46Z</time>
      </trkpt>
      <trkpt lat="44.2614" lon="5.46794">
        <ele>1105.4000244141</ele>
        <time>2016-05-07T10:25:47Z</time>
      </trkpt>
      <trkpt lat="44.26138" lon="5.46772">
        <ele>1103.8000488281</ele>
        <time>2016-05-07T10:25:49Z</time>
      </trkpt>
      <trkpt lat="44.26139" lon="5.46761">
        <ele>1103.8000488281</ele>
        <time>2016-05-07T10:25:50Z</time>
      </trkpt>
      <trkpt lat="44.2614" lon="5.4675">
        <ele>1103.8000488281</ele>
        <time>2016-05-07T10:25:51Z</time>
      </trkpt>
      <trkpt lat="44.26146" lon="5.46723">
        <ele>1100</ele>
        <time>2016-05-07T10:25:53Z</time>
      </trkpt>
      <trkpt lat="44.26152" lon="5.46695">
        <ele>1100</ele>
        <time>2016-05-07T10:25:55Z</time>
      </trkpt>
      <trkpt lat="44.26155" lon="5.46681">
        <ele>1097.8000488281</ele>
        <time>2016-05-07T10:25:56Z</time>
      </trkpt>
      <trkpt lat="44.26166" lon="5.46627">
        <ele>1095.4000244141</ele>
        <time>2016-05-07T10:26:00Z</time>
      </trkpt>
      <trkpt lat="44.2617" lon="5.46614">
        <ele>1092.8000488281</ele>
        <time>2016-05-07T10:26:01Z</time>
      </trkpt>
      <trkpt lat="44.26183" lon="5.46577">
        <ele>1090</ele>
        <time>2016-05-07T10:26:04Z</time>
      </trkpt>
      <trkpt lat="44.26186" lon="5.46567">
        <ele>1090</ele>
        <time>2016-05-07T10:26:05Z</time>
      </trkpt>
      <trkpt lat="44.26197" lon="5.46527">
        <ele>1090</ele>
        <time>2016-05-07T10:26:09Z</time>
      </trkpt>
      <trkpt lat="44.26198" lon="5.46518">
        <ele>1090</ele>
        <time>2016-05-07T10:26:10Z</time>
      </trkpt>
      <trkpt lat="44.26199" lon="5.46511">
        <ele>1087.4000244141</ele>
        <time>2016-05-07T10:26:11Z</time>
      </trkpt>
      <trkpt lat="44.26199" lon="5.46507">
        <ele>1084.5999755859</ele>
        <time>2016-05-07T10:26:12Z</time>
      </trkpt>
      <trkpt lat="44.262" lon="5.46503">
        <ele>1084.5999755859</ele>
        <time>2016-05-07T10:26:13Z</time>
      </trkpt>
      <trkpt lat="44.26203" lon="5.46493">
        <ele>1079.1999511719</ele>
        <time>2016-05-07T10:26:17Z</time>
      </trkpt>
      <trkpt lat="44.26204" lon="5.46491">
        <ele>1079.1999511719</ele>
        <time>2016-05-07T10:26:18Z</time>
      </trkpt>
      <trkpt lat="44.26204" lon="5.46486">
        <ele>1076.5999755859</ele>
        <time>2016-05-07T10:26:20Z</time>
      </trkpt>
      <trkpt lat="44.26205" lon="5.46484">
        <ele>1074</ele>
        <time>2016-05-07T10:26:21Z</time>
      </trkpt>
      <trkpt lat="44.26209" lon="5.46473">
        <ele>1074</ele>
        <time>2016-05-07T10:26:26Z</time>
      </trkpt>
      <trkpt lat="44.26209" lon="5.4647">
        <ele>1074.4000244141</ele>
        <time>2016-05-07T10:26:27Z</time>
      </trkpt>
      <trkpt lat="44.2621" lon="5.46468">
        <ele>1074.8000488281</ele>
        <time>2016-05-07T10:26:28Z</time>
      </trkpt>
      <trkpt lat="44.26211" lon="5.46463">
        <ele>1075.1999511719</ele>
        <time>2016-05-07T10:26:31Z</time>
      </trkpt>
      <trkpt lat="44.26214" lon="5.46456">
        <ele>1076.1999511719</ele>
        <time>2016-05-07T10:26:35Z</time>
      </trkpt>
      <trkpt lat="44.26215" lon="5.46455">
        <ele>1076.1999511719</ele>
        <time>2016-05-07T10:26:36Z</time>
      </trkpt>
      <trkpt lat="44.26215" lon="5.46452">
        <ele>1076.5999755859</ele>
        <time>2016-05-07T10:26:38Z</time>
      </trkpt>
      <trkpt lat="44.26217" lon="5.46447">
        <ele>1077</ele>
        <time>2016-05-07T10:26:41Z</time>
      </trkpt>
      <trkpt lat="44.26218" lon="5.46446">
        <ele>1077.8000488281</ele>
        <time>2016-05-07T10:26:42Z</time>
      </trkpt>
      <trkpt lat="44.26219" lon="5.46442">
        <ele>1078.4000244141</ele>
        <time>2016-05-07T10:26:45Z</time>
      </trkpt>
      <trkpt lat="44.2622" lon="5.46437">
        <ele>1079</ele>
        <time>2016-05-07T10:26:48Z</time>
      </trkpt>
      <trkpt lat="44.2622" lon="5.46435">
        <ele>1079.5999755859</ele>
        <time>2016-05-07T10:26:49Z</time>
      </trkpt>
      <trkpt lat="44.26221" lon="5.46431">
        <ele>1080</ele>
        <time>2016-05-07T10:26:52Z</time>
      </trkpt>
      <trkpt lat="44.26222" lon="5.46427">
        <ele>1080</ele>
        <time>2016-05-07T10:26:54Z</time>
      </trkpt>
      <trkpt lat="44.26221" lon="5.46425">
        <ele>1080.5999755859</ele>
        <time>2016-05-07T10:26:55Z</time>
      </trkpt>
      <trkpt lat="44.26222" lon="5.46424">
        <ele>1081.1999511719</ele>
        <time>2016-05-07T10:26:56Z</time>
      </trkpt>
      <trkpt lat="44.26225" lon="5.4642">
        <ele>1081.5999755859</ele>
        <time>2016-05-07T10:26:59Z</time>
      </trkpt>
      <trkpt lat="44.26226" lon="5.46416">
        <ele>1082.1999511719</ele>
        <time>2016-05-07T10:27:02Z</time>
      </trkpt>
      <trkpt lat="44.26226" lon="5.46415">
        <ele>1082.5999755859</ele>
        <time>2016-05-07T10:27:03Z</time>
      </trkpt>
      <trkpt lat="44.26227" lon="5.46411">
        <ele>1083</ele>
        <time>2016-05-07T10:27:06Z</time>
      </trkpt>
      <trkpt lat="44.26228" lon="5.4641">
        <ele>1083</ele>
        <time>2016-05-07T10:27:07Z</time>
      </trkpt>
      <trkpt lat="44.26228" lon="5.46407">
        <ele>1083.4000244141</ele>
        <time>2016-05-07T10:27:09Z</time>
      </trkpt>
      <trkpt lat="44.26229" lon="5.46406">
        <ele>1083.8000488281</ele>
        <time>2016-05-07T10:27:10Z</time>
      </trkpt>
      <trkpt lat="44.26229" lon="5.46401">
        <ele>1084.1999511719</ele>
        <time>2016-05-07T10:27:13Z</time>
      </trkpt>
      <trkpt lat="44.26232" lon="5.46395">
        <ele>1084.8000488281</ele>
        <time>2016-05-07T10:27:16Z</time>
      </trkpt>
      <trkpt lat="44.26233" lon="5.46394">
        <ele>1085.1999511719</ele>
        <time>2016-05-07T10:27:17Z</time>
      </trkpt>
      <trkpt lat="44.26233" lon="5.46389">
        <ele>1085.5999755859</ele>
        <time>2016-05-07T10:27:20Z</time>
      </trkpt>
      <trkpt lat="44.26233" lon="5.46387">
        <ele>1085.5999755859</ele>
        <time>2016-05-07T10:27:21Z</time>
      </trkpt>
      <trkpt lat="44.26234" lon="5.46382">
        <ele>1086</ele>
        <time>2016-05-07T10:27:23Z</time>
      </trkpt>
      <trkpt lat="44.26236" lon="5.46379">
        <ele>1086.5999755859</ele>
        <time>2016-05-07T10:27:24Z</time>
      </trkpt>
      <trkpt lat="44.26236" lon="5.46368">
        <ele>1086.5999755859</ele>
        <time>2016-05-07T10:27:29Z</time>
      </trkpt>
      <trkpt lat="44.26238" lon="5.46358">
        <ele>1087</ele>
        <time>2016-05-07T10:27:34Z</time>
      </trkpt>
      <trkpt lat="44.2624" lon="5.46352">
        <ele>1087.4000244141</ele>
        <time>2016-05-07T10:27:37Z</time>
      </trkpt>
      <trkpt lat="44.26241" lon="5.4635">
        <ele>1087.8000488281</ele>
        <time>2016-05-07T10:27:38Z</time>
      </trkpt>
      <trkpt lat="44.26244" lon="5.46345">
        <ele>1088.1999511719</ele>
        <time>2016-05-07T10:27:41Z</time>
      </trkpt>
      <trkpt lat="44.26246" lon="5.46339">
        <ele>1088.5999755859</ele>
        <time>2016-05-07T10:27:44Z</time>
      </trkpt>
      <trkpt lat="44.26247" lon="5.46337">
        <ele>1088.5999755859</ele>
        <time>2016-05-07T10:27:45Z</time>
      </trkpt>
      <trkpt lat="44.26249" lon="5.46326">
        <ele>1089</ele>
        <time>2016-05-07T10:27:51Z</time>
      </trkpt>
      <trkpt lat="44.26249" lon="5.46324">
        <ele>1089.4000244141</ele>
        <time>2016-05-07T10:27:52Z</time>
      </trkpt>
      <trkpt lat="44.26252" lon="5.46313">
        <ele>1090</ele>
        <time>2016-05-07T10:27:55Z</time>
      </trkpt>
      <trkpt lat="44.26252" lon="5.46302">
        <ele>1090</ele>
        <time>2016-05-07T10:27:58Z</time>
      </trkpt>
      <trkpt lat="44.26252" lon="5.46299">
        <ele>1090.8000488281</ele>
        <time>2016-05-07T10:27:59Z</time>
      </trkpt>
      <trkpt lat="44.26251" lon="5.46293">
        <ele>1090.8000488281</ele>
        <time>2016-05-07T10:28:01Z</time>
      </trkpt>
      <trkpt lat="44.2625" lon="5.46283">
        <ele>1090.8000488281</ele>
        <time>2016-05-07T10:28:04Z</time>
      </trkpt>
      <trkpt lat="44.26251" lon="5.46257">
        <ele>1090.8000488281</ele>
        <time>2016-05-07T10:28:11Z</time>
      </trkpt>
      <trkpt lat="44.26254" lon="5.46228">
        <ele>1090.8000488281</ele>
        <time>2016-05-07T10:28:19Z</time>
      </trkpt>
      <trkpt lat="44.26254" lon="5.46199">
        <ele>1091.1999511719</ele>
        <time>2016-05-07T10:28:27Z</time>
      </trkpt>
      <trkpt lat="44.26253" lon="5.46196">
        <ele>1091.1999511719</ele>
        <time>2016-05-07T10:28:28Z</time>
      </trkpt>
      <trkpt lat="44.26252" lon="5.46191">
        <ele>1091.8000488281</ele>
        <time>2016-05-07T10:28:30Z</time>
      </trkpt>
      <trkpt lat="44.26251" lon="5.46188">
        <ele>1092.1999511719</ele>
        <time>2016-05-07T10:28:31Z</time>
      </trkpt>
      <trkpt lat="44.2625" lon="5.46179">
        <ele>1092.1999511719</ele>
        <time>2016-05-07T10:28:34Z</time>
      </trkpt>
      <trkpt lat="44.2625" lon="5.46176">
        <ele>1093.1999511719</ele>
        <time>2016-05-07T10:28:35Z</time>
      </trkpt>
      <trkpt lat="44.26245" lon="5.46153">
        <ele>1093.1999511719</ele>
        <time>2016-05-07T10:28:41Z</time>
      </trkpt>
      <trkpt lat="44.26239" lon="5.46131">
        <ele>1093.5999755859</ele>
        <time>2016-05-07T10:28:47Z</time>
      </trkpt>
      <trkpt lat="44.26235" lon="5.46118">
        <ele>1094.4000244141</ele>
        <time>2016-05-07T10:28:51Z</time>
      </trkpt>
      <trkpt lat="44.26233" lon="5.46112">
        <ele>1094.4000244141</ele>
        <time>2016-05-07T10:28:53Z</time>
      </trkpt>
      <trkpt lat="44.26233" lon="5.46109">
        <ele>1094.8000488281</ele>
        <time>2016-05-07T10:28:54Z</time>
      </trkpt>
      <trkpt lat="44.26231" lon="5.46097">
        <ele>1095.8000488281</ele>
        <time>2016-05-07T10:28:58Z</time>
      </trkpt>
      <trkpt lat="44.26231" lon="5.46094">
        <ele>1095.8000488281</ele>
        <time>2016-05-07T10:28:59Z</time>
      </trkpt>
      <trkpt lat="44.26229" lon="5.4609">
        <ele>1096.1999511719</ele>
        <time>2016-05-07T10:29:01Z</time>
      </trkpt>
      <trkpt lat="44.26229" lon="5.46082">
        <ele>1097.1999511719</ele>
        <time>2016-05-07T10:29:05Z</time>
      </trkpt>
      <trkpt lat="44.26229" lon="5.4608">
        <ele>1097.1999511719</ele>
        <time>2016-05-07T10:29:06Z</time>
      </trkpt>
      <trkpt lat="44.26228" lon="5.46076">
        <ele>1097.8000488281</ele>
        <time>2016-05-07T10:29:08Z</time>
      </trkpt>
      <trkpt lat="44.26226" lon="5.46067">
        <ele>1098.8000488281</ele>
        <time>2016-05-07T10:29:12Z</time>
      </trkpt>
      <trkpt lat="44.26226" lon="5.46063">
        <ele>1098.8000488281</ele>
        <time>2016-05-07T10:29:14Z</time>
      </trkpt>
      <trkpt lat="44.26225" lon="5.46061">
        <ele>1099.4000244141</ele>
        <time>2016-05-07T10:29:15Z</time>
      </trkpt>
      <trkpt lat="44.26224" lon="5.46053">
        <ele>1100.4000244141</ele>
        <time>2016-05-07T10:29:19Z</time>
      </trkpt>
      <trkpt lat="44.26223" lon="5.46048">
        <ele>1100.8000488281</ele>
        <time>2016-05-07T10:29:22Z</time>
      </trkpt>
      <trkpt lat="44.26222" lon="5.4604">
        <ele>1101.5999755859</ele>
        <time>2016-05-07T10:29:26Z</time>
      </trkpt>
      <trkpt lat="44.26223" lon="5.46034">
        <ele>1102.1999511719</ele>
        <time>2016-05-07T10:29:29Z</time>
      </trkpt>
      <trkpt lat="44.26223" lon="5.46033">
        <ele>1102.1999511719</ele>
        <time>2016-05-07T10:29:30Z</time>
      </trkpt>
      <trkpt lat="44.26222" lon="5.46028">
        <ele>1103</ele>
        <time>2016-05-07T10:29:33Z</time>
      </trkpt>
      <trkpt lat="44.26221" lon="5.46024">
        <ele>1104</ele>
        <time>2016-05-07T10:29:36Z</time>
      </trkpt>
      <trkpt lat="44.2622" lon="5.46017">
        <ele>1104.5999755859</ele>
        <time>2016-05-07T10:29:40Z</time>
      </trkpt>
      <trkpt lat="44.26221" lon="5.46007">
        <ele>1105.4000244141</ele>
        <time>2016-05-07T10:29:47Z</time>
      </trkpt>
      <trkpt lat="44.26222" lon="5.46005">
        <ele>1105.4000244141</ele>
        <time>2016-05-07T10:29:48Z</time>
      </trkpt>
      <trkpt lat="44.26222" lon="5.46002">
        <ele>1106.1999511719</ele>
        <time>2016-05-07T10:29:50Z</time>
      </trkpt>
      <trkpt lat="44.26223" lon="5.45995">
        <ele>1106.8000488281</ele>
        <time>2016-05-07T10:29:54Z</time>
      </trkpt>
      <trkpt lat="44.26224" lon="5.45983">
        <ele>1106.8000488281</ele>
        <time>2016-05-07T10:29:59Z</time>
      </trkpt>
      <trkpt lat="44.26224" lon="5.45974">
        <ele>1107.1999511719</ele>
        <time>2016-05-07T10:30:04Z</time>
      </trkpt>
      <trkpt lat="44.26223" lon="5.45969">
        <ele>1107.1999511719</ele>
        <time>2016-05-07T10:30:07Z</time>
      </trkpt>
      <trkpt lat="44.26223" lon="5.45967">
        <ele>1107.5999755859</ele>
        <time>2016-05-07T10:30:08Z</time>
      </trkpt>
      <trkpt lat="44.26224" lon="5.45962">
        <ele>1108.5999755859</ele>
        <time>2016-05-07T10:30:11Z</time>
      </trkpt>
      <trkpt lat="44.26226" lon="5.45956">
        <ele>1109</ele>
        <time>2016-05-07T10:30:15Z</time>
      </trkpt>
      <trkpt lat="44.26226" lon="5.4595">
        <ele>1109.4000244141</ele>
        <time>2016-05-07T10:30:18Z</time>
      </trkpt>
      <trkpt lat="44.26227" lon="5.45947">
        <ele>1109.4000244141</ele>
        <time>2016-05-07T10:30:20Z</time>
      </trkpt>
      <trkpt lat="44.26227" lon="5.45943">
        <ele>1110.1999511719</ele>
        <time>2016-05-07T10:30:22Z</time>
      </trkpt>
      <trkpt lat="44.26227" lon="5.45937">
        <ele>1111</ele>
        <time>2016-05-07T10:30:25Z</time>
      </trkpt>
      <trkpt lat="44.26227" lon="5.45936">
        <ele>1111</ele>
        <time>2016-05-07T10:30:26Z</time>
      </trkpt>
      <trkpt lat="44.26229" lon="5.45925">
        <ele>1111.4000244141</ele>
        <time>2016-05-07T10:30:32Z</time>
      </trkpt>
      <trkpt lat="44.26229" lon="5.45919">
        <ele>1111.4000244141</ele>
        <time>2016-05-07T10:30:35Z</time>
      </trkpt>
      <trkpt lat="44.26229" lon="5.45917">
        <ele>1112.4000244141</ele>
        <time>2016-05-07T10:30:36Z</time>
      </trkpt>
      <trkpt lat="44.26229" lon="5.45912">
        <ele>1113.1999511719</ele>
        <time>2016-05-07T10:30:39Z</time>
      </trkpt>
      <trkpt lat="44.26229" lon="5.45905">
        <ele>1113.5999755859</ele>
        <time>2016-05-07T10:30:43Z</time>
      </trkpt>
      <trkpt lat="44.26229" lon="5.45902">
        <ele>1113.5999755859</ele>
        <time>2016-05-07T10:30:45Z</time>
      </trkpt>
      <trkpt lat="44.2623" lon="5.459">
        <ele>1114</ele>
        <time>2016-05-07T10:30:46Z</time>
      </trkpt>
      <trkpt lat="44.26231" lon="5.45892">
        <ele>1114.8000488281</ele>
        <time>2016-05-07T10:30:51Z</time>
      </trkpt>
      <trkpt lat="44.26231" lon="5.45887">
        <ele>1115.4000244141</ele>
        <time>2016-05-07T10:30:54Z</time>
      </trkpt>
      <trkpt lat="44.26232" lon="5.45882">
        <ele>1115.4000244141</ele>
        <time>2016-05-07T10:30:57Z</time>
      </trkpt>
      <trkpt lat="44.26232" lon="5.45881">
        <ele>1115.8000488281</ele>
        <time>2016-05-07T10:30:58Z</time>
      </trkpt>
      <trkpt lat="44.26231" lon="5.45871">
        <ele>1116.4000244141</ele>
        <time>2016-05-07T10:31:02Z</time>
      </trkpt>
      <trkpt lat="44.26231" lon="5.45865">
        <ele>1116.8000488281</ele>
        <time>2016-05-07T10:31:05Z</time>
      </trkpt>
      <trkpt lat="44.26231" lon="5.45858">
        <ele>1117.4000244141</ele>
        <time>2016-05-07T10:31:09Z</time>
      </trkpt>
      <trkpt lat="44.26231" lon="5.45852">
        <ele>1118.1999511719</ele>
        <time>2016-05-07T10:31:12Z</time>
      </trkpt>
      <trkpt lat="44.26231" lon="5.45848">
        <ele>1118.1999511719</ele>
        <time>2016-05-07T10:31:14Z</time>
      </trkpt>
      <trkpt lat="44.26231" lon="5.45844">
        <ele>1118.8000488281</ele>
        <time>2016-05-07T10:31:16Z</time>
      </trkpt>
      <trkpt lat="44.26231" lon="5.45839">
        <ele>1119.5999755859</ele>
        <time>2016-05-07T10:31:19Z</time>
      </trkpt>
      <trkpt lat="44.26231" lon="5.45834">
        <ele>1119.5999755859</ele>
        <time>2016-05-07T10:31:22Z</time>
      </trkpt>
      <trkpt lat="44.26231" lon="5.45827">
        <ele>1120</ele>
        <time>2016-05-07T10:31:26Z</time>
      </trkpt>
      <trkpt lat="44.26231" lon="5.4582">
        <ele>1120.5999755859</ele>
        <time>2016-05-07T10:31:30Z</time>
      </trkpt>
      <trkpt lat="44.26232" lon="5.45817">
        <ele>1120.5999755859</ele>
        <time>2016-05-07T10:31:31Z</time>
      </trkpt>
      <trkpt lat="44.26231" lon="5.45813">
        <ele>1121.4000244141</ele>
        <time>2016-05-07T10:31:33Z</time>
      </trkpt>
      <trkpt lat="44.26231" lon="5.45806">
        <ele>1121.8000488281</ele>
        <time>2016-05-07T10:31:37Z</time>
      </trkpt>
      <trkpt lat="44.26231" lon="5.45788">
        <ele>1121.8000488281</ele>
        <time>2016-05-07T10:31:45Z</time>
      </trkpt>
      <trkpt lat="44.26231" lon="5.45784">
        <ele>1122.1999511719</ele>
        <time>2016-05-07T10:31:47Z</time>
      </trkpt>
      <trkpt lat="44.26232" lon="5.45776">
        <ele>1122.8000488281</ele>
        <time>2016-05-07T10:31:51Z</time>
      </trkpt>
      <trkpt lat="44.26233" lon="5.45771">
        <ele>1123.8000488281</ele>
        <time>2016-05-07T10:31:54Z</time>
      </trkpt>
      <trkpt lat="44.26234" lon="5.45769">
        <ele>1123.8000488281</ele>
        <time>2016-05-07T10:31:55Z</time>
      </trkpt>
      <trkpt lat="44.26235" lon="5.45764">
        <ele>1124.1999511719</ele>
        <time>2016-05-07T10:31:58Z</time>
      </trkpt>
      <trkpt lat="44.26236" lon="5.45759">
        <ele>1124.5999755859</ele>
        <time>2016-05-07T10:32:01Z</time>
      </trkpt>
      <trkpt lat="44.26236" lon="5.45752">
        <ele>1125.1999511719</ele>
        <time>2016-05-07T10:32:05Z</time>
      </trkpt>
      <trkpt lat="44.26237" lon="5.45747">
        <ele>1126</ele>
        <time>2016-05-07T10:32:08Z</time>
      </trkpt>
      <trkpt lat="44.26237" lon="5.4574">
        <ele>1126.5999755859</ele>
        <time>2016-05-07T10:32:12Z</time>
      </trkpt>
      <trkpt lat="44.26236" lon="5.45736">
        <ele>1127.4000244141</ele>
        <time>2016-05-07T10:32:15Z</time>
      </trkpt>
      <trkpt lat="44.26236" lon="5.45733">
        <ele>1127.4000244141</ele>
        <time>2016-05-07T10:32:17Z</time>
      </trkpt>
      <trkpt lat="44.26236" lon="5.4573">
        <ele>1127.8000488281</ele>
        <time>2016-05-07T10:32:19Z</time>
      </trkpt>
      <trkpt lat="44.26236" lon="5.45726">
        <ele>1129</ele>
        <time>2016-05-07T10:32:22Z</time>
      </trkpt>
      <trkpt lat="44.26237" lon="5.45722">
        <ele>1129</ele>
        <time>2016-05-07T10:32:25Z</time>
      </trkpt>
      <trkpt lat="44.26237" lon="5.4572">
        <ele>1129.4000244141</ele>
        <time>2016-05-07T10:32:26Z</time>
      </trkpt>
      <trkpt lat="44.26237" lon="5.45716">
        <ele>1130.5999755859</ele>
        <time>2016-05-07T10:32:29Z</time>
      </trkpt>
      <trkpt lat="44.26237" lon="5.4571">
        <ele>1131</ele>
        <time>2016-05-07T10:32:33Z</time>
      </trkpt>
      <trkpt lat="44.26238" lon="5.45705">
        <ele>1132</ele>
        <time>2016-05-07T10:32:36Z</time>
      </trkpt>
      <trkpt lat="44.26239" lon="5.45704">
        <ele>1132</ele>
        <time>2016-05-07T10:32:37Z</time>
      </trkpt>
      <trkpt lat="44.2624" lon="5.45698">
        <ele>1132.4000244141</ele>
        <time>2016-05-07T10:32:40Z</time>
      </trkpt>
      <trkpt lat="44.26241" lon="5.45693">
        <ele>1132.8000488281</ele>
        <time>2016-05-07T10:32:43Z</time>
      </trkpt>
      <trkpt lat="44.26241" lon="5.4569">
        <ele>1132.8000488281</ele>
        <time>2016-05-07T10:32:45Z</time>
      </trkpt>
      <trkpt lat="44.26242" lon="5.4568">
        <ele>1133.8000488281</ele>
        <time>2016-05-07T10:32:50Z</time>
      </trkpt>
      <trkpt lat="44.26242" lon="5.45675">
        <ele>1133.8000488281</ele>
        <time>2016-05-07T10:32:53Z</time>
      </trkpt>
      <trkpt lat="44.26242" lon="5.45673">
        <ele>1134.1999511719</ele>
        <time>2016-05-07T10:32:54Z</time>
      </trkpt>
      <trkpt lat="44.26244" lon="5.45668">
        <ele>1135.1999511719</ele>
        <time>2016-05-07T10:32:57Z</time>
      </trkpt>
      <trkpt lat="44.26244" lon="5.4566">
        <ele>1135.5999755859</ele>
        <time>2016-05-07T10:33:01Z</time>
      </trkpt>
      <trkpt lat="44.26245" lon="5.45654">
        <ele>1136.5999755859</ele>
        <time>2016-05-07T10:33:04Z</time>
      </trkpt>
      <trkpt lat="44.26244" lon="5.45638">
        <ele>1137.1999511719</ele>
        <time>2016-05-07T10:33:12Z</time>
      </trkpt>
      <trkpt lat="44.26244" lon="5.45636">
        <ele>1137.1999511719</ele>
        <time>2016-05-07T10:33:13Z</time>
      </trkpt>
      <trkpt lat="44.26245" lon="5.45628">
        <ele>1138.1999511719</ele>
        <time>2016-05-07T10:33:17Z</time>
      </trkpt>
      <trkpt lat="44.26245" lon="5.45621">
        <ele>1138.5999755859</ele>
        <time>2016-05-07T10:33:21Z</time>
      </trkpt>
      <trkpt lat="44.26245" lon="5.45614">
        <ele>1139.5999755859</ele>
        <time>2016-05-07T10:33:24Z</time>
      </trkpt>
      <trkpt lat="44.26245" lon="5.456">
        <ele>1140.5999755859</ele>
        <time>2016-05-07T10:33:31Z</time>
      </trkpt>
      <trkpt lat="44.26245" lon="5.45594">
        <ele>1140.5999755859</ele>
        <time>2016-05-07T10:33:34Z</time>
      </trkpt>
      <trkpt lat="44.26245" lon="5.45591">
        <ele>1141</ele>
        <time>2016-05-07T10:33:35Z</time>
      </trkpt>
      <trkpt lat="44.26245" lon="5.45583">
        <ele>1141.5999755859</ele>
        <time>2016-05-07T10:33:38Z</time>
      </trkpt>
      <trkpt lat="44.26245" lon="5.45572">
        <ele>1142</ele>
        <time>2016-05-07T10:33:42Z</time>
      </trkpt>
      <trkpt lat="44.26245" lon="5.45569">
        <ele>1142</ele>
        <time>2016-05-07T10:33:43Z</time>
      </trkpt>
      <trkpt lat="44.26243" lon="5.45553">
        <ele>1142.8000488281</ele>
        <time>2016-05-07T10:33:49Z</time>
      </trkpt>
      <trkpt lat="44.26242" lon="5.45551">
        <ele>1142.8000488281</ele>
        <time>2016-05-07T10:33:50Z</time>
      </trkpt>
      <trkpt lat="44.26241" lon="5.45547">
        <ele>1142.8000488281</ele>
        <time>2016-05-07T10:33:52Z</time>
      </trkpt>
      <trkpt lat="44.2624" lon="5.45544">
        <ele>1143.4000244141</ele>
        <time>2016-05-07T10:33:53Z</time>
      </trkpt>
      <trkpt lat="44.26239" lon="5.45534">
        <ele>1143.8000488281</ele>
        <time>2016-05-07T10:33:56Z</time>
      </trkpt>
      <trkpt lat="44.26238" lon="5.45529">
        <ele>1144.1999511719</ele>
        <time>2016-05-07T10:33:57Z</time>
      </trkpt>
      <trkpt lat="44.26237" lon="5.45523">
        <ele>1144.1999511719</ele>
        <time>2016-05-07T10:33:58Z</time>
      </trkpt>
      <trkpt lat="44.26234" lon="5.45494">
        <ele>1144.1999511719</ele>
        <time>2016-05-07T10:34:02Z</time>
      </trkpt>
      <trkpt lat="44.26235" lon="5.45486">
        <ele>1143.5999755859</ele>
        <time>2016-05-07T10:34:03Z</time>
      </trkpt>
      <trkpt lat="44.26235" lon="5.45448">
        <ele>1143</ele>
        <time>2016-05-07T10:34:07Z</time>
      </trkpt>
      <trkpt lat="44.26244" lon="5.45419">
        <ele>1141.8000488281</ele>
        <time>2016-05-07T10:34:10Z</time>
      </trkpt>
      <trkpt lat="44.26247" lon="5.45411">
        <ele>1140.4000244141</ele>
        <time>2016-05-07T10:34:11Z</time>
      </trkpt>
      <trkpt lat="44.2625" lon="5.45404">
        <ele>1140.4000244141</ele>
        <time>2016-05-07T10:34:12Z</time>
      </trkpt>
      <trkpt lat="44.26253" lon="5.45387">
        <ele>1139</ele>
        <time>2016-05-07T10:34:14Z</time>
      </trkpt>
      <trkpt lat="44.26257" lon="5.4536">
        <ele>1137.5999755859</ele>
        <time>2016-05-07T10:34:17Z</time>
      </trkpt>
      <trkpt lat="44.26258" lon="5.45351">
        <ele>1136</ele>
        <time>2016-05-07T10:34:18Z</time>
      </trkpt>
      <trkpt lat="44.26264" lon="5.45322">
        <ele>1134.5999755859</ele>
        <time>2016-05-07T10:34:21Z</time>
      </trkpt>
      <trkpt lat="44.26267" lon="5.45301">
        <ele>1134.5999755859</ele>
        <time>2016-05-07T10:34:23Z</time>
      </trkpt>
      <trkpt lat="44.26268" lon="5.45291">
        <ele>1133.1999511719</ele>
        <time>2016-05-07T10:34:24Z</time>
      </trkpt>
      <trkpt lat="44.26268" lon="5.4528">
        <ele>1131.8000488281</ele>
        <time>2016-05-07T10:34:25Z</time>
      </trkpt>
      <trkpt lat="44.26268" lon="5.4527">
        <ele>1131.8000488281</ele>
        <time>2016-05-07T10:34:26Z</time>
      </trkpt>
      <trkpt lat="44.26269" lon="5.45253">
        <ele>1130.1999511719</ele>
        <time>2016-05-07T10:34:28Z</time>
      </trkpt>
      <trkpt lat="44.26271" lon="5.45238">
        <ele>1130.1999511719</ele>
        <time>2016-05-07T10:34:30Z</time>
      </trkpt>
      <trkpt lat="44.26273" lon="5.4523">
        <ele>1128.8000488281</ele>
        <time>2016-05-07T10:34:31Z</time>
      </trkpt>
      <trkpt lat="44.26274" lon="5.45223">
        <ele>1127.4000244141</ele>
        <time>2016-05-07T10:34:32Z</time>
      </trkpt>
      <trkpt lat="44.26278" lon="5.452">
        <ele>1126.1999511719</ele>
        <time>2016-05-07T10:34:35Z</time>
      </trkpt>
      <trkpt lat="44.26278" lon="5.45192">
        <ele>1126.1999511719</ele>
        <time>2016-05-07T10:34:36Z</time>
      </trkpt>
      <trkpt lat="44.26278" lon="5.45175">
        <ele>1125.1999511719</ele>
        <time>2016-05-07T10:34:38Z</time>
      </trkpt>
      <trkpt lat="44.26277" lon="5.45167">
        <ele>1124.1999511719</ele>
        <time>2016-05-07T10:34:39Z</time>
      </trkpt>
      <trkpt lat="44.26275" lon="5.45159">
        <ele>1124.1999511719</ele>
        <time>2016-05-07T10:34:40Z</time>
      </trkpt>
      <trkpt lat="44.26272" lon="5.45143">
        <ele>1123.1999511719</ele>
        <time>2016-05-07T10:34:42Z</time>
      </trkpt>
      <trkpt lat="44.26271" lon="5.45121">
        <ele>1122.1999511719</ele>
        <time>2016-05-07T10:34:45Z</time>
      </trkpt>
      <trkpt lat="44.26272" lon="5.45115">
        <ele>1121.1999511719</ele>
        <time>2016-05-07T10:34:46Z</time>
      </trkpt>
      <trkpt lat="44.26273" lon="5.45104">
        <ele>1121.1999511719</ele>
        <time>2016-05-07T10:34:48Z</time>
      </trkpt>
      <trkpt lat="44.26275" lon="5.451">
        <ele>1121.1999511719</ele>
        <time>2016-05-07T10:34:49Z</time>
      </trkpt>
      <trkpt lat="44.26283" lon="5.45074">
        <ele>1121.8000488281</ele>
        <time>2016-05-07T10:34:56Z</time>
      </trkpt>
      <trkpt lat="44.26284" lon="5.45064">
        <ele>1122.4000244141</ele>
        <time>2016-05-07T10:34:59Z</time>
      </trkpt>
      <trkpt lat="44.26285" lon="5.45052">
        <ele>1123.4000244141</ele>
        <time>2016-05-07T10:35:03Z</time>
      </trkpt>
      <trkpt lat="44.26285" lon="5.45049">
        <ele>1123.4000244141</ele>
        <time>2016-05-07T10:35:04Z</time>
      </trkpt>
      <trkpt lat="44.26285" lon="5.45043">
        <ele>1123.8000488281</ele>
        <time>2016-05-07T10:35:06Z</time>
      </trkpt>
      <trkpt lat="44.26283" lon="5.45032">
        <ele>1124.4000244141</ele>
        <time>2016-05-07T10:35:10Z</time>
      </trkpt>
      <trkpt lat="44.26281" lon="5.45024">
        <ele>1124.8000488281</ele>
        <time>2016-05-07T10:35:13Z</time>
      </trkpt>
      <trkpt lat="44.26281" lon="5.45021">
        <ele>1125.4000244141</ele>
        <time>2016-05-07T10:35:14Z</time>
      </trkpt>
      <trkpt lat="44.26281" lon="5.45019">
        <ele>1125.4000244141</ele>
        <time>2016-05-07T10:35:15Z</time>
      </trkpt>
      <trkpt lat="44.2628" lon="5.45014">
        <ele>1125.8000488281</ele>
        <time>2016-05-07T10:35:17Z</time>
      </trkpt>
      <trkpt lat="44.26279" lon="5.45006">
        <ele>1126.4000244141</ele>
        <time>2016-05-07T10:35:20Z</time>
      </trkpt>
      <trkpt lat="44.26279" lon="5.44998">
        <ele>1126.4000244141</ele>
        <time>2016-05-07T10:35:23Z</time>
      </trkpt>
      <trkpt lat="44.2628" lon="5.44982">
        <ele>1127.1999511719</ele>
        <time>2016-05-07T10:35:29Z</time>
      </trkpt>
      <trkpt lat="44.2628" lon="5.44971">
        <ele>1127.1999511719</ele>
        <time>2016-05-07T10:35:33Z</time>
      </trkpt>
      <trkpt lat="44.2628" lon="5.44968">
        <ele>1127.5999755859</ele>
        <time>2016-05-07T10:35:34Z</time>
      </trkpt>
      <trkpt lat="44.2628" lon="5.44961">
        <ele>1128</ele>
        <time>2016-05-07T10:35:37Z</time>
      </trkpt>
      <trkpt lat="44.2628" lon="5.44953">
        <ele>1128.4000244141</ele>
        <time>2016-05-07T10:35:40Z</time>
      </trkpt>
      <trkpt lat="44.2628" lon="5.44947">
        <ele>1128.4000244141</ele>
        <time>2016-05-07T10:35:42Z</time>
      </trkpt>
      <trkpt lat="44.26281" lon="5.44942">
        <ele>1128.8000488281</ele>
        <time>2016-05-07T10:35:44Z</time>
      </trkpt>
      <trkpt lat="44.26286" lon="5.4493">
        <ele>1129.4000244141</ele>
        <time>2016-05-07T10:35:48Z</time>
      </trkpt>
      <trkpt lat="44.2629" lon="5.44919">
        <ele>1129.8000488281</ele>
        <time>2016-05-07T10:35:51Z</time>
      </trkpt>
      <trkpt lat="44.26295" lon="5.44901">
        <ele>1130.8000488281</ele>
        <time>2016-05-07T10:35:55Z</time>
      </trkpt>
      <trkpt lat="44.26297" lon="5.44891">
        <ele>1130.8000488281</ele>
        <time>2016-05-07T10:35:57Z</time>
      </trkpt>
      <trkpt lat="44.26305" lon="5.44858">
        <ele>1130.8000488281</ele>
        <time>2016-05-07T10:36:04Z</time>
      </trkpt>
      <trkpt lat="44.26313" lon="5.44827">
        <ele>1130.8000488281</ele>
        <time>2016-05-07T10:36:10Z</time>
      </trkpt>
      <trkpt lat="44.26323" lon="5.44799">
        <ele>1130.8000488281</ele>
        <time>2016-05-07T10:36:16Z</time>
      </trkpt>
      <trkpt lat="44.26338" lon="5.44767">
        <ele>1130.8000488281</ele>
        <time>2016-05-07T10:36:21Z</time>
      </trkpt>
      <trkpt lat="44.26344" lon="5.44751">
        <ele>1129.8000488281</ele>
        <time>2016-05-07T10:36:23Z</time>
      </trkpt>
      <trkpt lat="44.26352" lon="5.44726">
        <ele>1129</ele>
        <time>2016-05-07T10:36:26Z</time>
      </trkpt>
      <trkpt lat="44.26352" lon="5.44718">
        <ele>1129</ele>
        <time>2016-05-07T10:36:27Z</time>
      </trkpt>
      <trkpt lat="44.26353" lon="5.44695">
        <ele>1127.1999511719</ele>
        <time>2016-05-07T10:36:30Z</time>
      </trkpt>
      <trkpt lat="44.26353" lon="5.44683">
        <ele>1127.1999511719</ele>
        <time>2016-05-07T10:36:32Z</time>
      </trkpt>
      <trkpt lat="44.26353" lon="5.44677">
        <ele>1126</ele>
        <time>2016-05-07T10:36:33Z</time>
      </trkpt>
      <trkpt lat="44.26353" lon="5.44664">
        <ele>1126</ele>
        <time>2016-05-07T10:36:35Z</time>
      </trkpt>
      <trkpt lat="44.26356" lon="5.4465">
        <ele>1124</ele>
        <time>2016-05-07T10:36:37Z</time>
      </trkpt>
      <trkpt lat="44.26357" lon="5.44642">
        <ele>1124</ele>
        <time>2016-05-07T10:36:38Z</time>
      </trkpt>
      <trkpt lat="44.26362" lon="5.44627">
        <ele>1122.8000488281</ele>
        <time>2016-05-07T10:36:40Z</time>
      </trkpt>
      <trkpt lat="44.26369" lon="5.44601">
        <ele>1122.8000488281</ele>
        <time>2016-05-07T10:36:43Z</time>
      </trkpt>
      <trkpt lat="44.2637" lon="5.44593">
        <ele>1120.5999755859</ele>
        <time>2016-05-07T10:36:44Z</time>
      </trkpt>
      <trkpt lat="44.26373" lon="5.44568">
        <ele>1119.5999755859</ele>
        <time>2016-05-07T10:36:47Z</time>
      </trkpt>
      <trkpt lat="44.26362" lon="5.44552">
        <ele>1119.5999755859</ele>
        <time>2016-05-07T10:36:50Z</time>
      </trkpt>
      <trkpt lat="44.26357" lon="5.44548">
        <ele>1117.1999511719</ele>
        <time>2016-05-07T10:36:51Z</time>
      </trkpt>
      <trkpt lat="44.26351" lon="5.44546">
        <ele>1117.1999511719</ele>
        <time>2016-05-07T10:36:52Z</time>
      </trkpt>
      <trkpt lat="44.26341" lon="5.44539">
        <ele>1116.1999511719</ele>
        <time>2016-05-07T10:36:54Z</time>
      </trkpt>
      <trkpt lat="44.26336" lon="5.44535">
        <ele>1116.1999511719</ele>
        <time>2016-05-07T10:36:55Z</time>
      </trkpt>
      <trkpt lat="44.26321" lon="5.44525">
        <ele>1115.5999755859</ele>
        <time>2016-05-07T10:36:58Z</time>
      </trkpt>
      <trkpt lat="44.26307" lon="5.44517">
        <ele>1115.1999511719</ele>
        <time>2016-05-07T10:37:01Z</time>
      </trkpt>
      <trkpt lat="44.26306" lon="5.44504">
        <ele>1115.1999511719</ele>
        <time>2016-05-07T10:37:04Z</time>
      </trkpt>
      <trkpt lat="44.26309" lon="5.445">
        <ele>1113.5999755859</ele>
        <time>2016-05-07T10:37:05Z</time>
      </trkpt>
      <trkpt lat="44.26322" lon="5.44486">
        <ele>1112.4000244141</ele>
        <time>2016-05-07T10:37:08Z</time>
      </trkpt>
      <trkpt lat="44.26346" lon="5.44463">
        <ele>1111.4000244141</ele>
        <time>2016-05-07T10:37:12Z</time>
      </trkpt>
      <trkpt lat="44.26358" lon="5.44447">
        <ele>1111.4000244141</ele>
        <time>2016-05-07T10:37:14Z</time>
      </trkpt>
      <trkpt lat="44.26363" lon="5.44438">
        <ele>1109.8000488281</ele>
        <time>2016-05-07T10:37:15Z</time>
      </trkpt>
      <trkpt lat="44.26365" lon="5.44428">
        <ele>1109.8000488281</ele>
        <time>2016-05-07T10:37:16Z</time>
      </trkpt>
      <trkpt lat="44.26368" lon="5.44394">
        <ele>1106.1999511719</ele>
        <time>2016-05-07T10:37:19Z</time>
      </trkpt>
      <trkpt lat="44.26369" lon="5.44382">
        <ele>1106.1999511719</ele>
        <time>2016-05-07T10:37:20Z</time>
      </trkpt>
      <trkpt lat="44.2637" lon="5.44357">
        <ele>1103</ele>
        <time>2016-05-07T10:37:22Z</time>
      </trkpt>
      <trkpt lat="44.26371" lon="5.44307">
        <ele>1101.5999755859</ele>
        <time>2016-05-07T10:37:26Z</time>
      </trkpt>
      <trkpt lat="44.26373" lon="5.44273">
        <ele>1098.5999755859</ele>
        <time>2016-05-07T10:37:29Z</time>
      </trkpt>
      <trkpt lat="44.26372" lon="5.44248">
        <ele>1098.5999755859</ele>
        <time>2016-05-07T10:37:31Z</time>
      </trkpt>
      <trkpt lat="44.26371" lon="5.44223">
        <ele>1095.5999755859</ele>
        <time>2016-05-07T10:37:33Z</time>
      </trkpt>
      <trkpt lat="44.26368" lon="5.44188">
        <ele>1092.8000488281</ele>
        <time>2016-05-07T10:37:36Z</time>
      </trkpt>
      <trkpt lat="44.26366" lon="5.44166">
        <ele>1092.8000488281</ele>
        <time>2016-05-07T10:37:38Z</time>
      </trkpt>
      <trkpt lat="44.26366" lon="5.44144">
        <ele>1091.5999755859</ele>
        <time>2016-05-07T10:37:40Z</time>
      </trkpt>
      <trkpt lat="44.26367" lon="5.44133">
        <ele>1091.5999755859</ele>
        <time>2016-05-07T10:37:41Z</time>
      </trkpt>
      <trkpt lat="44.26368" lon="5.44122">
        <ele>1091.5999755859</ele>
        <time>2016-05-07T10:37:42Z</time>
      </trkpt>
      <trkpt lat="44.26368" lon="5.44111">
        <ele>1090</ele>
        <time>2016-05-07T10:37:43Z</time>
      </trkpt>
      <trkpt lat="44.26369" lon="5.44093">
        <ele>1090</ele>
        <time>2016-05-07T10:37:45Z</time>
      </trkpt>
      <trkpt lat="44.2637" lon="5.44084">
        <ele>1090</ele>
        <time>2016-05-07T10:37:46Z</time>
      </trkpt>
      <trkpt lat="44.26372" lon="5.44075">
        <ele>1088.1999511719</ele>
        <time>2016-05-07T10:37:47Z</time>
      </trkpt>
      <trkpt lat="44.26378" lon="5.44048">
        <ele>1084.4000244141</ele>
        <time>2016-05-07T10:37:50Z</time>
      </trkpt>
      <trkpt lat="44.26381" lon="5.44038">
        <ele>1084.4000244141</ele>
        <time>2016-05-07T10:37:51Z</time>
      </trkpt>
      <trkpt lat="44.26389" lon="5.44011">
        <ele>1082.8000488281</ele>
        <time>2016-05-07T10:37:54Z</time>
      </trkpt>
      <trkpt lat="44.26392" lon="5.44002">
        <ele>1082.8000488281</ele>
        <time>2016-05-07T10:37:55Z</time>
      </trkpt>
      <trkpt lat="44.26398" lon="5.43955">
        <ele>1082.8000488281</ele>
        <time>2016-05-07T10:37:59Z</time>
      </trkpt>
      <trkpt lat="44.26404" lon="5.43932">
        <ele>1081.1999511719</ele>
        <time>2016-05-07T10:38:01Z</time>
      </trkpt>
      <trkpt lat="44.26416" lon="5.43902">
        <ele>1081.1999511719</ele>
        <time>2016-05-07T10:38:04Z</time>
      </trkpt>
      <trkpt lat="44.2642" lon="5.43892">
        <ele>1079.1999511719</ele>
        <time>2016-05-07T10:38:05Z</time>
      </trkpt>
      <trkpt lat="44.26424" lon="5.43882">
        <ele>1077</ele>
        <time>2016-05-07T10:38:06Z</time>
      </trkpt>
      <trkpt lat="44.26436" lon="5.43852">
        <ele>1072.5999755859</ele>
        <time>2016-05-07T10:38:09Z</time>
      </trkpt>
      <trkpt lat="44.26441" lon="5.43843">
        <ele>1072.5999755859</ele>
        <time>2016-05-07T10:38:10Z</time>
      </trkpt>
      <trkpt lat="44.26447" lon="5.43835">
        <ele>1070.8000488281</ele>
        <time>2016-05-07T10:38:11Z</time>
      </trkpt>
      <trkpt lat="44.26452" lon="5.43826">
        <ele>1068.8000488281</ele>
        <time>2016-05-07T10:38:12Z</time>
      </trkpt>
      <trkpt lat="44.26464" lon="5.43808">
        <ele>1068.8000488281</ele>
        <time>2016-05-07T10:38:14Z</time>
      </trkpt>
      <trkpt lat="44.26478" lon="5.4379">
        <ele>1067.1999511719</ele>
        <time>2016-05-07T10:38:16Z</time>
      </trkpt>
      <trkpt lat="44.26497" lon="5.43759">
        <ele>1063.4000244141</ele>
        <time>2016-05-07T10:38:19Z</time>
      </trkpt>
      <trkpt lat="44.26505" lon="5.43748">
        <ele>1063.4000244141</ele>
        <time>2016-05-07T10:38:20Z</time>
      </trkpt>
      <trkpt lat="44.26527" lon="5.43717">
        <ele>1061.4000244141</ele>
        <time>2016-05-07T10:38:23Z</time>
      </trkpt>
      <trkpt lat="44.2654" lon="5.43696">
        <ele>1061.4000244141</ele>
        <time>2016-05-07T10:38:25Z</time>
      </trkpt>
      <trkpt lat="44.26546" lon="5.43684">
        <ele>1057.4000244141</ele>
        <time>2016-05-07T10:38:26Z</time>
      </trkpt>
      <trkpt lat="44.26552" lon="5.43671">
        <ele>1057.4000244141</ele>
        <time>2016-05-07T10:38:27Z</time>
      </trkpt>
      <trkpt lat="44.26566" lon="5.43631">
        <ele>1055.1999511719</ele>
        <time>2016-05-07T10:38:30Z</time>
      </trkpt>
      <trkpt lat="44.26574" lon="5.43602">
        <ele>1055.1999511719</ele>
        <time>2016-05-07T10:38:32Z</time>
      </trkpt>
      <trkpt lat="44.26576" lon="5.43589">
        <ele>1053.1999511719</ele>
        <time>2016-05-07T10:38:33Z</time>
      </trkpt>
      <trkpt lat="44.2658" lon="5.43575">
        <ele>1051.1999511719</ele>
        <time>2016-05-07T10:38:34Z</time>
      </trkpt>
      <trkpt lat="44.26591" lon="5.43537">
        <ele>1049.1999511719</ele>
        <time>2016-05-07T10:38:37Z</time>
      </trkpt>
      <trkpt lat="44.26603" lon="5.43504">
        <ele>1047</ele>
        <time>2016-05-07T10:38:40Z</time>
      </trkpt>
      <trkpt lat="44.26609" lon="5.43494">
        <ele>1045</ele>
        <time>2016-05-07T10:38:41Z</time>
      </trkpt>
      <trkpt lat="44.26615" lon="5.43484">
        <ele>1045</ele>
        <time>2016-05-07T10:38:42Z</time>
      </trkpt>
      <trkpt lat="44.26627" lon="5.43467">
        <ele>1042.8000488281</ele>
        <time>2016-05-07T10:38:44Z</time>
      </trkpt>
      <trkpt lat="44.26634" lon="5.4346">
        <ele>1042.8000488281</ele>
        <time>2016-05-07T10:38:45Z</time>
      </trkpt>
      <trkpt lat="44.26642" lon="5.43453">
        <ele>1042.8000488281</ele>
        <time>2016-05-07T10:38:46Z</time>
      </trkpt>
      <trkpt lat="44.26649" lon="5.43447">
        <ele>1040.8000488281</ele>
        <time>2016-05-07T10:38:47Z</time>
      </trkpt>
      <trkpt lat="44.26656" lon="5.43441">
        <ele>1039</ele>
        <time>2016-05-07T10:38:48Z</time>
      </trkpt>
      <trkpt lat="44.26682" lon="5.43423">
        <ele>1037</ele>
        <time>2016-05-07T10:38:51Z</time>
      </trkpt>
      <trkpt lat="44.26699" lon="5.43407">
        <ele>1037</ele>
        <time>2016-05-07T10:38:53Z</time>
      </trkpt>
      <trkpt lat="44.26714" lon="5.43391">
        <ele>1035.4000244141</ele>
        <time>2016-05-07T10:38:55Z</time>
      </trkpt>
      <trkpt lat="44.26739" lon="5.43371">
        <ele>1033.4000244141</ele>
        <time>2016-05-07T10:38:58Z</time>
      </trkpt>
      <trkpt lat="44.26748" lon="5.43366">
        <ele>1033.4000244141</ele>
        <time>2016-05-07T10:38:59Z</time>
      </trkpt>
      <trkpt lat="44.26756" lon="5.43362">
        <ele>1033.4000244141</ele>
        <time>2016-05-07T10:39:00Z</time>
      </trkpt>
      <trkpt lat="44.26774" lon="5.43355">
        <ele>1028.8000488281</ele>
        <time>2016-05-07T10:39:02Z</time>
      </trkpt>
      <trkpt lat="44.26802" lon="5.4335">
        <ele>1026.4000244141</ele>
        <time>2016-05-07T10:39:05Z</time>
      </trkpt>
      <trkpt lat="44.26838" lon="5.43342">
        <ele>1022.200012207</ele>
        <time>2016-05-07T10:39:09Z</time>
      </trkpt>
      <trkpt lat="44.26854" lon="5.43341">
        <ele>1022.200012207</ele>
        <time>2016-05-07T10:39:11Z</time>
      </trkpt>
      <trkpt lat="44.26862" lon="5.43341">
        <ele>1020.4000244141</ele>
        <time>2016-05-07T10:39:12Z</time>
      </trkpt>
      <trkpt lat="44.2688" lon="5.43341">
        <ele>1018.4000244141</ele>
        <time>2016-05-07T10:39:15Z</time>
      </trkpt>
      <trkpt lat="44.26884" lon="5.43327">
        <ele>1018.4000244141</ele>
        <time>2016-05-07T10:39:18Z</time>
      </trkpt>
      <trkpt lat="44.2688" lon="5.43321">
        <ele>1016.4000244141</ele>
        <time>2016-05-07T10:39:19Z</time>
      </trkpt>
      <trkpt lat="44.26876" lon="5.43315">
        <ele>1016.4000244141</ele>
        <time>2016-05-07T10:39:20Z</time>
      </trkpt>
      <trkpt lat="44.26862" lon="5.43296">
        <ele>1016.4000244141</ele>
        <time>2016-05-07T10:39:23Z</time>
      </trkpt>
      <trkpt lat="44.26854" lon="5.43283">
        <ele>1016.4000244141</ele>
        <time>2016-05-07T10:39:25Z</time>
      </trkpt>
      <trkpt lat="44.26819" lon="5.43253">
        <ele>1016.4000244141</ele>
        <time>2016-05-07T10:39:31Z</time>
      </trkpt>
      <trkpt lat="44.26779" lon="5.43225">
        <ele>1016.4000244141</ele>
        <time>2016-05-07T10:39:37Z</time>
      </trkpt>
      <trkpt lat="44.26768" lon="5.43212">
        <ele>1016.4000244141</ele>
        <time>2016-05-07T10:39:39Z</time>
      </trkpt>
      <trkpt lat="44.26758" lon="5.43194">
        <ele>1016.4000244141</ele>
        <time>2016-05-07T10:39:41Z</time>
      </trkpt>
      <trkpt lat="44.26746" lon="5.4318">
        <ele>1016.4000244141</ele>
        <time>2016-05-07T10:39:43Z</time>
      </trkpt>
      <trkpt lat="44.26731" lon="5.43171">
        <ele>1016.4000244141</ele>
        <time>2016-05-07T10:39:45Z</time>
      </trkpt>
      <trkpt lat="44.26706" lon="5.43169">
        <ele>1016.4000244141</ele>
        <time>2016-05-07T10:39:48Z</time>
      </trkpt>
      <trkpt lat="44.26671" lon="5.4318">
        <ele>1016.4000244141</ele>
        <time>2016-05-07T10:39:52Z</time>
      </trkpt>
      <trkpt lat="44.26619" lon="5.43205">
        <ele>1016.4000244141</ele>
        <time>2016-05-07T10:39:58Z</time>
      </trkpt>
      <trkpt lat="44.26611" lon="5.43212">
        <ele>1016.4000244141</ele>
        <time>2016-05-07T10:39:59Z</time>
      </trkpt>
      <trkpt lat="44.26563" lon="5.43251">
        <ele>1016.4000244141</ele>
        <time>2016-05-07T10:40:05Z</time>
      </trkpt>
      <trkpt lat="44.26524" lon="5.43284">
        <ele>1016.4000244141</ele>
        <time>2016-05-07T10:40:10Z</time>
      </trkpt>
      <trkpt lat="44.26503" lon="5.43311">
        <ele>1016.4000244141</ele>
        <time>2016-05-07T10:40:13Z</time>
      </trkpt>
      <trkpt lat="44.26456" lon="5.43356">
        <ele>1011</ele>
        <time>2016-05-07T10:40:19Z</time>
      </trkpt>
      <trkpt lat="44.26426" lon="5.43389">
        <ele>1011</ele>
        <time>2016-05-07T10:40:24Z</time>
      </trkpt>
      <trkpt lat="44.26384" lon="5.43429">
        <ele>1011</ele>
        <time>2016-05-07T10:40:30Z</time>
      </trkpt>
      <trkpt lat="44.26344" lon="5.43463">
        <ele>1011</ele>
        <time>2016-05-07T10:40:35Z</time>
      </trkpt>
      <trkpt lat="44.26335" lon="5.43469">
        <ele>1011</ele>
        <time>2016-05-07T10:40:36Z</time>
      </trkpt>
      <trkpt lat="44.26292" lon="5.43499">
        <ele>1011</ele>
        <time>2016-05-07T10:40:41Z</time>
      </trkpt>
      <trkpt lat="44.26282" lon="5.43503">
        <ele>1011</ele>
        <time>2016-05-07T10:40:42Z</time>
      </trkpt>
      <trkpt lat="44.26254" lon="5.43514">
        <ele>1011</ele>
        <time>2016-05-07T10:40:45Z</time>
      </trkpt>
      <trkpt lat="44.26247" lon="5.43519">
        <ele>1011</ele>
        <time>2016-05-07T10:40:46Z</time>
      </trkpt>
      <trkpt lat="44.2623" lon="5.43544">
        <ele>1011</ele>
        <time>2016-05-07T10:40:49Z</time>
      </trkpt>
      <trkpt lat="44.26223" lon="5.43554">
        <ele>1011</ele>
        <time>2016-05-07T10:40:50Z</time>
      </trkpt>
      <trkpt lat="44.26209" lon="5.43571">
        <ele>1011</ele>
        <time>2016-05-07T10:40:52Z</time>
      </trkpt>
      <trkpt lat="44.26201" lon="5.43577">
        <ele>1011</ele>
        <time>2016-05-07T10:40:53Z</time>
      </trkpt>
      <trkpt lat="44.26176" lon="5.43588">
        <ele>1011</ele>
        <time>2016-05-07T10:40:56Z</time>
      </trkpt>
      <trkpt lat="44.26148" lon="5.43637">
        <ele>1011</ele>
        <time>2016-05-07T10:41:01Z</time>
      </trkpt>
      <trkpt lat="44.26137" lon="5.43676">
        <ele>1011</ele>
        <time>2016-05-07T10:41:04Z</time>
      </trkpt>
      <trkpt lat="44.2613" lon="5.43686">
        <ele>1011</ele>
        <time>2016-05-07T10:41:05Z</time>
      </trkpt>
      <trkpt lat="44.26107" lon="5.43725">
        <ele>1011</ele>
        <time>2016-05-07T10:41:09Z</time>
      </trkpt>
      <trkpt lat="44.26083" lon="5.4378">
        <ele>1011</ele>
        <time>2016-05-07T10:41:14Z</time>
      </trkpt>
      <trkpt lat="44.26058" lon="5.43841">
        <ele>1011</ele>
        <time>2016-05-07T10:41:19Z</time>
      </trkpt>
      <trkpt lat="44.26042" lon="5.43895">
        <ele>1011</ele>
        <time>2016-05-07T10:41:23Z</time>
      </trkpt>
      <trkpt lat="44.26013" lon="5.43967">
        <ele>1011</ele>
        <time>2016-05-07T10:41:29Z</time>
      </trkpt>
      <trkpt lat="44.26" lon="5.43986">
        <ele>1011</ele>
        <time>2016-05-07T10:41:31Z</time>
      </trkpt>
      <trkpt lat="44.25986" lon="5.43999">
        <ele>1011</ele>
        <time>2016-05-07T10:41:33Z</time>
      </trkpt>
      <trkpt lat="44.25956" lon="5.44027">
        <ele>1011</ele>
        <time>2016-05-07T10:41:37Z</time>
      </trkpt>
      <trkpt lat="44.25949" lon="5.44037">
        <ele>998.59997558594</ele>
        <time>2016-05-07T10:41:38Z</time>
      </trkpt>
      <trkpt lat="44.25924" lon="5.44074">
        <ele>980.40002441406</ele>
        <time>2016-05-07T10:41:42Z</time>
      </trkpt>
      <trkpt lat="44.25913" lon="5.44094">
        <ele>980.40002441406</ele>
        <time>2016-05-07T10:41:44Z</time>
      </trkpt>
      <trkpt lat="44.25878" lon="5.44163">
        <ele>930.40002441406</ele>
        <time>2016-05-07T10:41:51Z</time>
      </trkpt>
      <trkpt lat="44.25873" lon="5.44174">
        <ele>930.40002441406</ele>
        <time>2016-05-07T10:41:52Z</time>
      </trkpt>
      <trkpt lat="44.2586" lon="5.44204">
        <ele>919.20001220703</ele>
        <time>2016-05-07T10:41:55Z</time>
      </trkpt>
      <trkpt lat="44.25855" lon="5.4421">
        <ele>919.20001220703</ele>
        <time>2016-05-07T10:41:56Z</time>
      </trkpt>
      <trkpt lat="44.2585" lon="5.44216">
        <ele>919.20001220703</ele>
        <time>2016-05-07T10:41:57Z</time>
      </trkpt>
      <trkpt lat="44.25843" lon="5.44221">
        <ele>909.59997558594</ele>
        <time>2016-05-07T10:41:58Z</time>
      </trkpt>
      <trkpt lat="44.25836" lon="5.44225">
        <ele>900.20001220703</ele>
        <time>2016-05-07T10:41:59Z</time>
      </trkpt>
      <trkpt lat="44.25829" lon="5.4423">
        <ele>900.20001220703</ele>
        <time>2016-05-07T10:42:00Z</time>
      </trkpt>
      <trkpt lat="44.25817" lon="5.44244">
        <ele>893.59997558594</ele>
        <time>2016-05-07T10:42:02Z</time>
      </trkpt>
      <trkpt lat="44.25808" lon="5.44264">
        <ele>893.59997558594</ele>
        <time>2016-05-07T10:42:04Z</time>
      </trkpt>
      <trkpt lat="44.25805" lon="5.44275">
        <ele>887.20001220703</ele>
        <time>2016-05-07T10:42:05Z</time>
      </trkpt>
      <trkpt lat="44.25797" lon="5.44298">
        <ele>887.20001220703</ele>
        <time>2016-05-07T10:42:07Z</time>
      </trkpt>
      <trkpt lat="44.25793" lon="5.44309">
        <ele>887.20001220703</ele>
        <time>2016-05-07T10:42:08Z</time>
      </trkpt>
      <trkpt lat="44.25787" lon="5.44319">
        <ele>882.40002441406</ele>
        <time>2016-05-07T10:42:09Z</time>
      </trkpt>
      <trkpt lat="44.25774" lon="5.44335">
        <ele>882.40002441406</ele>
        <time>2016-05-07T10:42:11Z</time>
      </trkpt>
      <trkpt lat="44.25766" lon="5.44343">
        <ele>878</ele>
        <time>2016-05-07T10:42:12Z</time>
      </trkpt>
      <trkpt lat="44.2576" lon="5.4435">
        <ele>878</ele>
        <time>2016-05-07T10:42:13Z</time>
      </trkpt>
      <trkpt lat="44.2575" lon="5.44357">
        <ele>878</ele>
        <time>2016-05-07T10:42:15Z</time>
      </trkpt>
      <trkpt lat="44.25745" lon="5.44355">
        <ele>873.79998779297</ele>
        <time>2016-05-07T10:42:16Z</time>
      </trkpt>
      <trkpt lat="44.25742" lon="5.44349">
        <ele>873.79998779297</ele>
        <time>2016-05-07T10:42:17Z</time>
      </trkpt>
      <trkpt lat="44.2574" lon="5.44329">
        <ele>873.79998779297</ele>
        <time>2016-05-07T10:42:19Z</time>
      </trkpt>
      <trkpt lat="44.25744" lon="5.443">
        <ele>873.79998779297</ele>
        <time>2016-05-07T10:42:22Z</time>
      </trkpt>
      <trkpt lat="44.25744" lon="5.44289">
        <ele>873.79998779297</ele>
        <time>2016-05-07T10:42:23Z</time>
      </trkpt>
      <trkpt lat="44.25745" lon="5.44226">
        <ele>873.79998779297</ele>
        <time>2016-05-07T10:42:28Z</time>
      </trkpt>
      <trkpt lat="44.2575" lon="5.44183">
        <ele>873.79998779297</ele>
        <time>2016-05-07T10:42:31Z</time>
      </trkpt>
      <trkpt lat="44.25753" lon="5.44171">
        <ele>873.79998779297</ele>
        <time>2016-05-07T10:42:32Z</time>
      </trkpt>
      <trkpt lat="44.25766" lon="5.4414">
        <ele>873.79998779297</ele>
        <time>2016-05-07T10:42:35Z</time>
      </trkpt>
      <trkpt lat="44.25782" lon="5.44095">
        <ele>873.79998779297</ele>
        <time>2016-05-07T10:42:40Z</time>
      </trkpt>
      <trkpt lat="44.25784" lon="5.44087">
        <ele>869.40002441406</ele>
        <time>2016-05-07T10:42:41Z</time>
      </trkpt>
      <trkpt lat="44.25791" lon="5.44074">
        <ele>869.40002441406</ele>
        <time>2016-05-07T10:42:43Z</time>
      </trkpt>
      <trkpt lat="44.25797" lon="5.4407">
        <ele>865</ele>
        <time>2016-05-07T10:42:44Z</time>
      </trkpt>
      <trkpt lat="44.25818" lon="5.44048">
        <ele>856.59997558594</ele>
        <time>2016-05-07T10:42:48Z</time>
      </trkpt>
      <trkpt lat="44.25831" lon="5.44022">
        <ele>852.40002441406</ele>
        <time>2016-05-07T10:42:51Z</time>
      </trkpt>
      <trkpt lat="44.25835" lon="5.44012">
        <ele>852.40002441406</ele>
        <time>2016-05-07T10:42:52Z</time>
      </trkpt>
      <trkpt lat="44.25845" lon="5.43975">
        <ele>847.59997558594</ele>
        <time>2016-05-07T10:42:55Z</time>
      </trkpt>
      <trkpt lat="44.25848" lon="5.43961">
        <ele>847.59997558594</ele>
        <time>2016-05-07T10:42:56Z</time>
      </trkpt>
      <trkpt lat="44.25856" lon="5.43936">
        <ele>845.40002441406</ele>
        <time>2016-05-07T10:42:58Z</time>
      </trkpt>
      <trkpt lat="44.25858" lon="5.43905">
        <ele>845.40002441406</ele>
        <time>2016-05-07T10:43:00Z</time>
      </trkpt>
      <trkpt lat="44.2586" lon="5.43876">
        <ele>840.59997558594</ele>
        <time>2016-05-07T10:43:02Z</time>
      </trkpt>
      <trkpt lat="44.25867" lon="5.43839">
        <ele>838.20001220703</ele>
        <time>2016-05-07T10:43:05Z</time>
      </trkpt>
      <trkpt lat="44.25866" lon="5.43818">
        <ele>838.20001220703</ele>
        <time>2016-05-07T10:43:07Z</time>
      </trkpt>
      <trkpt lat="44.25863" lon="5.43807">
        <ele>838.20001220703</ele>
        <time>2016-05-07T10:43:08Z</time>
      </trkpt>
      <trkpt lat="44.25861" lon="5.43794">
        <ele>836.20001220703</ele>
        <time>2016-05-07T10:43:09Z</time>
      </trkpt>
      <trkpt lat="44.25852" lon="5.43758">
        <ele>834</ele>
        <time>2016-05-07T10:43:12Z</time>
      </trkpt>
      <trkpt lat="44.2585" lon="5.43748">
        <ele>834</ele>
        <time>2016-05-07T10:43:13Z</time>
      </trkpt>
      <trkpt lat="44.2585" lon="5.4374">
        <ele>834</ele>
        <time>2016-05-07T10:43:14Z</time>
      </trkpt>
      <trkpt lat="44.25853" lon="5.43734">
        <ele>834</ele>
        <time>2016-05-07T10:43:15Z</time>
      </trkpt>
      <trkpt lat="44.25856" lon="5.43725">
        <ele>830.20001220703</ele>
        <time>2016-05-07T10:43:16Z</time>
      </trkpt>
      <trkpt lat="44.25863" lon="5.43705">
        <ele>830.20001220703</ele>
        <time>2016-05-07T10:43:18Z</time>
      </trkpt>
      <trkpt lat="44.25867" lon="5.43693">
        <ele>828.20001220703</ele>
        <time>2016-05-07T10:43:19Z</time>
      </trkpt>
      <trkpt lat="44.25877" lon="5.43673">
        <ele>828.20001220703</ele>
        <time>2016-05-07T10:43:21Z</time>
      </trkpt>
      <trkpt lat="44.25883" lon="5.43663">
        <ele>828.20001220703</ele>
        <time>2016-05-07T10:43:22Z</time>
      </trkpt>
      <trkpt lat="44.25888" lon="5.43654">
        <ele>826.79998779297</ele>
        <time>2016-05-07T10:43:23Z</time>
      </trkpt>
      <trkpt lat="44.25901" lon="5.43626">
        <ele>825.40002441406</ele>
        <time>2016-05-07T10:43:26Z</time>
      </trkpt>
      <trkpt lat="44.25904" lon="5.43616">
        <ele>825.40002441406</ele>
        <time>2016-05-07T10:43:27Z</time>
      </trkpt>
      <trkpt lat="44.25911" lon="5.43585">
        <ele>825.40002441406</ele>
        <time>2016-05-07T10:43:30Z</time>
      </trkpt>
      <trkpt lat="44.25916" lon="5.43568">
        <ele>825.40002441406</ele>
        <time>2016-05-07T10:43:32Z</time>
      </trkpt>
      <trkpt lat="44.25917" lon="5.43561">
        <ele>824</ele>
        <time>2016-05-07T10:43:33Z</time>
      </trkpt>
      <trkpt lat="44.25922" lon="5.43536">
        <ele>822.59997558594</ele>
        <time>2016-05-07T10:43:37Z</time>
      </trkpt>
      <trkpt lat="44.25922" lon="5.43523">
        <ele>822.79998779297</ele>
        <time>2016-05-07T10:43:40Z</time>
      </trkpt>
      <trkpt lat="44.25923" lon="5.43516">
        <ele>822.79998779297</ele>
        <time>2016-05-07T10:43:42Z</time>
      </trkpt>
      <trkpt lat="44.25924" lon="5.43509">
        <ele>823.40002441406</ele>
        <time>2016-05-07T10:43:44Z</time>
      </trkpt>
      <trkpt lat="44.25929" lon="5.43498">
        <ele>824</ele>
        <time>2016-05-07T10:43:47Z</time>
      </trkpt>
      <trkpt lat="44.25936" lon="5.4349">
        <ele>824</ele>
        <time>2016-05-07T10:43:50Z</time>
      </trkpt>
      <trkpt lat="44.25939" lon="5.43488">
        <ele>824.79998779297</ele>
        <time>2016-05-07T10:43:51Z</time>
      </trkpt>
      <trkpt lat="44.25942" lon="5.43487">
        <ele>824.79998779297</ele>
        <time>2016-05-07T10:43:52Z</time>
      </trkpt>
      <trkpt lat="44.25948" lon="5.43481">
        <ele>825.59997558594</ele>
        <time>2016-05-07T10:43:54Z</time>
      </trkpt>
      <trkpt lat="44.2596" lon="5.43474">
        <ele>827.40002441406</ele>
        <time>2016-05-07T10:43:58Z</time>
      </trkpt>
      <trkpt lat="44.25962" lon="5.43473">
        <ele>827.40002441406</ele>
        <time>2016-05-07T10:43:59Z</time>
      </trkpt>
      <trkpt lat="44.25966" lon="5.43468">
        <ele>828.20001220703</ele>
        <time>2016-05-07T10:44:01Z</time>
      </trkpt>
      <trkpt lat="44.25973" lon="5.43457">
        <ele>828.59997558594</ele>
        <time>2016-05-07T10:44:05Z</time>
      </trkpt>
      <trkpt lat="44.25975" lon="5.43454">
        <ele>828.59997558594</ele>
        <time>2016-05-07T10:44:06Z</time>
      </trkpt>
      <trkpt lat="44.2598" lon="5.43446">
        <ele>829</ele>
        <time>2016-05-07T10:44:09Z</time>
      </trkpt>
      <trkpt lat="44.25985" lon="5.43437">
        <ele>829.79998779297</ele>
        <time>2016-05-07T10:44:12Z</time>
      </trkpt>
      <trkpt lat="44.2599" lon="5.43427">
        <ele>830.20001220703</ele>
        <time>2016-05-07T10:44:15Z</time>
      </trkpt>
      <trkpt lat="44.25996" lon="5.43414">
        <ele>830.20001220703</ele>
        <time>2016-05-07T10:44:19Z</time>
      </trkpt>
      <trkpt lat="44.26009" lon="5.43389">
        <ele>830.20001220703</ele>
        <time>2016-05-07T10:44:27Z</time>
      </trkpt>
      <trkpt lat="44.26012" lon="5.43375">
        <ele>831</ele>
        <time>2016-05-07T10:44:30Z</time>
      </trkpt>
      <trkpt lat="44.26015" lon="5.43362">
        <ele>831</ele>
        <time>2016-05-07T10:44:32Z</time>
      </trkpt>
      <trkpt lat="44.26017" lon="5.43355">
        <ele>831.59997558594</ele>
        <time>2016-05-07T10:44:33Z</time>
      </trkpt>
      <trkpt lat="44.2602" lon="5.43349">
        <ele>831.59997558594</ele>
        <time>2016-05-07T10:44:34Z</time>
      </trkpt>
      <trkpt lat="44.26028" lon="5.43331">
        <ele>832.40002441406</ele>
        <time>2016-05-07T10:44:37Z</time>
      </trkpt>
      <trkpt lat="44.26042" lon="5.43298">
        <ele>832</ele>
        <time>2016-05-07T10:44:42Z</time>
      </trkpt>
      <trkpt lat="44.26051" lon="5.4328">
        <ele>831.59997558594</ele>
        <time>2016-05-07T10:44:44Z</time>
      </trkpt>
      <trkpt lat="44.26065" lon="5.43258">
        <ele>830.20001220703</ele>
        <time>2016-05-07T10:44:47Z</time>
      </trkpt>
      <trkpt lat="44.2607" lon="5.43255">
        <ele>830.20001220703</ele>
        <time>2016-05-07T10:44:48Z</time>
      </trkpt>
      <trkpt lat="44.26073" lon="5.43249">
        <ele>829.20001220703</ele>
        <time>2016-05-07T10:44:49Z</time>
      </trkpt>
      <trkpt lat="44.26075" lon="5.43233">
        <ele>829.20001220703</ele>
        <time>2016-05-07T10:44:51Z</time>
      </trkpt>
      <trkpt lat="44.26075" lon="5.43223">
        <ele>827.20001220703</ele>
        <time>2016-05-07T10:44:52Z</time>
      </trkpt>
      <trkpt lat="44.26073" lon="5.43203">
        <ele>826</ele>
        <time>2016-05-07T10:44:54Z</time>
      </trkpt>
      <trkpt lat="44.2608" lon="5.43179">
        <ele>823.40002441406</ele>
        <time>2016-05-07T10:44:57Z</time>
      </trkpt>
      <trkpt lat="44.26089" lon="5.43165">
        <ele>822.20001220703</ele>
        <time>2016-05-07T10:44:59Z</time>
      </trkpt>
      <trkpt lat="44.26098" lon="5.43147">
        <ele>821</ele>
        <time>2016-05-07T10:45:01Z</time>
      </trkpt>
      <trkpt lat="44.26108" lon="5.43124">
        <ele>818.79998779297</ele>
        <time>2016-05-07T10:45:04Z</time>
      </trkpt>
      <trkpt lat="44.26114" lon="5.43115">
        <ele>817.59997558594</ele>
        <time>2016-05-07T10:45:06Z</time>
      </trkpt>
      <trkpt lat="44.26115" lon="5.43107">
        <ele>815.40002441406</ele>
        <time>2016-05-07T10:45:09Z</time>
      </trkpt>
      <trkpt lat="44.26113" lon="5.43101">
        <ele>814.59997558594</ele>
        <time>2016-05-07T10:45:11Z</time>
      </trkpt>
      <trkpt lat="44.26115" lon="5.4309">
        <ele>812.79998779297</ele>
        <time>2016-05-07T10:45:14Z</time>
      </trkpt>
      <trkpt lat="44.26115" lon="5.43087">
        <ele>812.79998779297</ele>
        <time>2016-05-07T10:45:15Z</time>
      </trkpt>
      <trkpt lat="44.26115" lon="5.43084">
        <ele>812</ele>
        <time>2016-05-07T10:45:16Z</time>
      </trkpt>
      <trkpt lat="44.26109" lon="5.43076">
        <ele>810</ele>
        <time>2016-05-07T10:45:19Z</time>
      </trkpt>
      <trkpt lat="44.26105" lon="5.43072">
        <ele>808</ele>
        <time>2016-05-07T10:45:21Z</time>
      </trkpt>
      <trkpt lat="44.26103" lon="5.43067">
        <ele>807</ele>
        <time>2016-05-07T10:45:23Z</time>
      </trkpt>
      <trkpt lat="44.26099" lon="5.43056">
        <ele>804.79998779297</ele>
        <time>2016-05-07T10:45:26Z</time>
      </trkpt>
      <trkpt lat="44.26097" lon="5.43052">
        <ele>804.79998779297</ele>
        <time>2016-05-07T10:45:27Z</time>
      </trkpt>
      <trkpt lat="44.26095" lon="5.43047">
        <ele>803.79998779297</ele>
        <time>2016-05-07T10:45:28Z</time>
      </trkpt>
      <trkpt lat="44.26091" lon="5.43036">
        <ele>802</ele>
        <time>2016-05-07T10:45:31Z</time>
      </trkpt>
      <trkpt lat="44.26088" lon="5.43029">
        <ele>799.79998779297</ele>
        <time>2016-05-07T10:45:33Z</time>
      </trkpt>
      <trkpt lat="44.26085" lon="5.43018">
        <ele>797.40002441406</ele>
        <time>2016-05-07T10:45:36Z</time>
      </trkpt>
      <trkpt lat="44.26079" lon="5.4301">
        <ele>795.20001220703</ele>
        <time>2016-05-07T10:45:38Z</time>
      </trkpt>
      <trkpt lat="44.26068" lon="5.43007">
        <ele>794</ele>
        <time>2016-05-07T10:45:41Z</time>
      </trkpt>
      <trkpt lat="44.26064" lon="5.43009">
        <ele>794</ele>
        <time>2016-05-07T10:45:42Z</time>
      </trkpt>
      <trkpt lat="44.26059" lon="5.43011">
        <ele>791.59997558594</ele>
        <time>2016-05-07T10:45:43Z</time>
      </trkpt>
      <trkpt lat="44.26055" lon="5.43014">
        <ele>791.59997558594</ele>
        <time>2016-05-07T10:45:44Z</time>
      </trkpt>
      <trkpt lat="44.26036" lon="5.4303">
        <ele>791.59997558594</ele>
        <time>2016-05-07T10:45:49Z</time>
      </trkpt>
      <trkpt lat="44.26023" lon="5.43042">
        <ele>791.59997558594</ele>
        <time>2016-05-07T10:45:53Z</time>
      </trkpt>
      <trkpt lat="44.26015" lon="5.43049">
        <ele>791.20001220703</ele>
        <time>2016-05-07T10:45:56Z</time>
      </trkpt>
      <trkpt lat="44.26014" lon="5.43053">
        <ele>790.79998779297</ele>
        <time>2016-05-07T10:45:58Z</time>
      </trkpt>
      <trkpt lat="44.26007" lon="5.43058">
        <ele>790.20001220703</ele>
        <time>2016-05-07T10:46:02Z</time>
      </trkpt>
      <trkpt lat="44.26004" lon="5.4306">
        <ele>789.40002441406</ele>
        <time>2016-05-07T10:46:04Z</time>
      </trkpt>
      <trkpt lat="44.26001" lon="5.4306">
        <ele>789.40002441406</ele>
        <time>2016-05-07T10:46:06Z</time>
      </trkpt>
      <trkpt lat="44.25999" lon="5.4306">
        <ele>789.40002441406</ele>
        <time>2016-05-07T10:46:07Z</time>
      </trkpt>
      <trkpt lat="44.25999" lon="5.4306">
        <ele>789.40002441406</ele>
        <time>2016-05-07T10:46:13Z</time>
      </trkpt>
      <trkpt lat="44.25999" lon="5.4306">
        <ele>789.79998779297</ele>
        <time>2016-05-07T10:47:47Z</time>
      </trkpt>
      <trkpt lat="44.25999" lon="5.4306">
        <ele>790.20001220703</ele>
        <time>2016-05-07T10:47:48Z</time>
      </trkpt>
      <trkpt lat="44.25999" lon="5.4306">
        <ele>790.59997558594</ele>
        <time>2016-05-07T10:47:49Z</time>
      </trkpt>
      <trkpt lat="44.25999" lon="5.4306">
        <ele>791</ele>
        <time>2016-05-07T10:47:50Z</time>
      </trkpt>
      <trkpt lat="44.25999" lon="5.4306">
        <ele>791.40002441406</ele>
        <time>2016-05-07T10:47:51Z</time>
      </trkpt>
      <trkpt lat="44.25998" lon="5.4306">
        <ele>791.79998779297</ele>
        <time>2016-05-07T10:48:20Z</time>
      </trkpt>
      <trkpt lat="44.25998" lon="5.4306">
        <ele>792.20001220703</ele>
        <time>2016-05-07T10:48:21Z</time>
      </trkpt>
      <trkpt lat="44.25998" lon="5.4306">
        <ele>792.59997558594</ele>
        <time>2016-05-07T10:48:22Z</time>
      </trkpt>
      <trkpt lat="44.25998" lon="5.4306">
        <ele>793</ele>
        <time>2016-05-07T10:48:23Z</time>
      </trkpt>
      <trkpt lat="44.25998" lon="5.4306">
        <ele>793.40002441406</ele>
        <time>2016-05-07T10:48:24Z</time>
      </trkpt>
      <trkpt lat="44.25998" lon="5.4306">
        <ele>793.79998779297</ele>
        <time>2016-05-07T10:49:08Z</time>
      </trkpt>
      <trkpt lat="44.25998" lon="5.4306">
        <ele>794.20001220703</ele>
        <time>2016-05-07T10:49:09Z</time>
      </trkpt>
      <trkpt lat="44.25998" lon="5.4306">
        <ele>794.59997558594</ele>
        <time>2016-05-07T10:49:10Z</time>
      </trkpt>
      <trkpt lat="44.25998" lon="5.4306">
        <ele>795.20001220703</ele>
        <time>2016-05-07T10:49:11Z</time>
      </trkpt>
      <trkpt lat="44.25998" lon="5.4306">
        <ele>795.59997558594</ele>
        <time>2016-05-07T10:49:12Z</time>
      </trkpt>
      <trkpt lat="44.25998" lon="5.4306">
        <ele>796</ele>
        <time>2016-05-07T10:49:54Z</time>
      </trkpt>
      <trkpt lat="44.25998" lon="5.4306">
        <ele>796.40002441406</ele>
        <time>2016-05-07T10:49:55Z</time>
      </trkpt>
      <trkpt lat="44.25998" lon="5.4306">
        <ele>797</ele>
        <time>2016-05-07T10:49:56Z</time>
      </trkpt>
      <trkpt lat="44.25998" lon="5.4306">
        <ele>797.40002441406</ele>
        <time>2016-05-07T10:49:57Z</time>
      </trkpt>
      <trkpt lat="44.25998" lon="5.4306">
        <ele>797.79998779297</ele>
        <time>2016-05-07T10:49:58Z</time>
      </trkpt>
      <trkpt lat="44.25998" lon="5.4306">
        <ele>798.20001220703</ele>
        <time>2016-05-07T10:50:53Z</time>
      </trkpt>
      <trkpt lat="44.25998" lon="5.4306">
        <ele>798.59997558594</ele>
        <time>2016-05-07T10:50:54Z</time>
      </trkpt>
      <trkpt lat="44.25998" lon="5.4306">
        <ele>799</ele>
        <time>2016-05-07T10:50:55Z</time>
      </trkpt>
      <trkpt lat="44.25998" lon="5.4306">
        <ele>799.40002441406</ele>
        <time>2016-05-07T10:50:56Z</time>
      </trkpt>
      <trkpt lat="44.25998" lon="5.4306">
        <ele>799.79998779297</ele>
        <time>2016-05-07T10:50:57Z</time>
      </trkpt>
      <trkpt lat="44.25998" lon="5.4306">
        <ele>800.20001220703</ele>
        <time>2016-05-07T10:51:27Z</time>
      </trkpt>
      <trkpt lat="44.25998" lon="5.4306">
        <ele>800.79998779297</ele>
        <time>2016-05-07T10:51:28Z</time>
      </trkpt>
      <trkpt lat="44.25998" lon="5.4306">
        <ele>801.59997558594</ele>
        <time>2016-05-07T10:51:30Z</time>
      </trkpt>
      <trkpt lat="44.25998" lon="5.4306">
        <ele>802</ele>
        <time>2016-05-07T10:51:31Z</time>
      </trkpt>
      <trkpt lat="44.25998" lon="5.43061">
        <ele>802.40002441406</ele>
        <time>2016-05-07T10:52:29Z</time>
      </trkpt>
      <trkpt lat="44.25998" lon="5.43061">
        <ele>803</ele>
        <time>2016-05-07T10:52:30Z</time>
      </trkpt>
      <trkpt lat="44.25998" lon="5.43061">
        <ele>803.40002441406</ele>
        <time>2016-05-07T10:52:31Z</time>
      </trkpt>
      <trkpt lat="44.25998" lon="5.43061">
        <ele>804.40002441406</ele>
        <time>2016-05-07T10:52:33Z</time>
      </trkpt>
      <trkpt lat="44.25998" lon="5.43061">
        <ele>804.40002441406</ele>
        <time>2016-05-07T10:52:46Z</time>
      </trkpt>
      <trkpt lat="44.25998" lon="5.43061">
        <ele>804.79998779297</ele>
        <time>2016-05-07T10:53:21Z</time>
      </trkpt>
      <trkpt lat="44.25998" lon="5.43061">
        <ele>805.20001220703</ele>
        <time>2016-05-07T10:53:22Z</time>
      </trkpt>
      <trkpt lat="44.25998" lon="5.43061">
        <ele>805.59997558594</ele>
        <time>2016-05-07T10:53:23Z</time>
      </trkpt>
      <trkpt lat="44.25998" lon="5.43061">
        <ele>806</ele>
        <time>2016-05-07T10:53:24Z</time>
      </trkpt>
      <trkpt lat="44.25998" lon="5.43061">
        <ele>806.40002441406</ele>
        <time>2016-05-07T10:53:25Z</time>
      </trkpt>
      <trkpt lat="44.25998" lon="5.43061">
        <ele>806.79998779297</ele>
        <time>2016-05-07T10:53:55Z</time>
      </trkpt>
      <trkpt lat="44.25998" lon="5.43061">
        <ele>807.20001220703</ele>
        <time>2016-05-07T10:53:56Z</time>
      </trkpt>
      <trkpt lat="44.25998" lon="5.43061">
        <ele>807.59997558594</ele>
        <time>2016-05-07T10:53:57Z</time>
      </trkpt>
      <trkpt lat="44.25998" lon="5.43061">
        <ele>808</ele>
        <time>2016-05-07T10:53:58Z</time>
      </trkpt>
      <trkpt lat="44.25998" lon="5.43061">
        <ele>808.59997558594</ele>
        <time>2016-05-07T10:53:59Z</time>
      </trkpt>
      <trkpt lat="44.26001" lon="5.4306">
        <ele>808.59997558594</ele>
        <time>2016-05-07T10:54:50Z</time>
      </trkpt>
      <trkpt lat="44.26001" lon="5.4306">
        <ele>809</ele>
        <time>2016-05-07T10:54:51Z</time>
      </trkpt>
      <trkpt lat="44.26001" lon="5.4306">
        <ele>809.40002441406</ele>
        <time>2016-05-07T10:54:52Z</time>
      </trkpt>
      <trkpt lat="44.26001" lon="5.4306">
        <ele>809.79998779297</ele>
        <time>2016-05-07T10:54:53Z</time>
      </trkpt>
      <trkpt lat="44.26001" lon="5.4306">
        <ele>810.20001220703</ele>
        <time>2016-05-07T10:54:54Z</time>
      </trkpt>
      <trkpt lat="44.26001" lon="5.4306">
        <ele>810.79998779297</ele>
        <time>2016-05-07T10:54:55Z</time>
      </trkpt>
      <trkpt lat="44.26" lon="5.43064">
        <ele>810.79998779297</ele>
        <time>2016-05-07T10:56:04Z</time>
      </trkpt>
      <trkpt lat="44.2599" lon="5.43071">
        <ele>810.79998779297</ele>
        <time>2016-05-07T11:00:23Z</time>
      </trkpt>
      <trkpt lat="44.25969" lon="5.4307">
        <ele>810.79998779297</ele>
        <time>2016-05-07T11:00:30Z</time>
      </trkpt>
      <trkpt lat="44.25941" lon="5.43069">
        <ele>810.79998779297</ele>
        <time>2016-05-07T11:00:35Z</time>
      </trkpt>
      <trkpt lat="44.25914" lon="5.43067">
        <ele>810.79998779297</ele>
        <time>2016-05-07T11:00:41Z</time>
      </trkpt>
      <trkpt lat="44.25909" lon="5.43062">
        <ele>809.79998779297</ele>
        <time>2016-05-07T11:00:43Z</time>
      </trkpt>
      <trkpt lat="44.25904" lon="5.43056">
        <ele>809.79998779297</ele>
        <time>2016-05-07T11:00:45Z</time>
      </trkpt>
      <trkpt lat="44.25898" lon="5.43053">
        <ele>809.40002441406</ele>
        <time>2016-05-07T11:00:47Z</time>
      </trkpt>
      <trkpt lat="44.2589" lon="5.43053">
        <ele>808.59997558594</ele>
        <time>2016-05-07T11:00:50Z</time>
      </trkpt>
      <trkpt lat="44.25888" lon="5.43054">
        <ele>808.59997558594</ele>
        <time>2016-05-07T11:00:51Z</time>
      </trkpt>
      <trkpt lat="44.25882" lon="5.43056">
        <ele>808.59997558594</ele>
        <time>2016-05-07T11:00:54Z</time>
      </trkpt>
      <trkpt lat="44.25875" lon="5.43057">
        <ele>808.59997558594</ele>
        <time>2016-05-07T11:00:58Z</time>
      </trkpt>
      <trkpt lat="44.25862" lon="5.43059">
        <ele>809</ele>
        <time>2016-05-07T11:01:05Z</time>
      </trkpt>
      <trkpt lat="44.25856" lon="5.4306">
        <ele>809.40002441406</ele>
        <time>2016-05-07T11:01:08Z</time>
      </trkpt>
      <trkpt lat="44.2585" lon="5.43061">
        <ele>810</ele>
        <time>2016-05-07T11:01:12Z</time>
      </trkpt>
      <trkpt lat="44.25849" lon="5.43061">
        <ele>810.40002441406</ele>
        <time>2016-05-07T11:01:13Z</time>
      </trkpt>
      <trkpt lat="44.25848" lon="5.43061">
        <ele>810.40002441406</ele>
        <time>2016-05-07T11:01:14Z</time>
      </trkpt>
      <trkpt lat="44.25845" lon="5.43062">
        <ele>811</ele>
        <time>2016-05-07T11:01:16Z</time>
      </trkpt>
      <trkpt lat="44.2584" lon="5.43062">
        <ele>811.40002441406</ele>
        <time>2016-05-07T11:01:20Z</time>
      </trkpt>
      <trkpt lat="44.25838" lon="5.43063">
        <ele>812</ele>
        <time>2016-05-07T11:01:21Z</time>
      </trkpt>
      <trkpt lat="44.25835" lon="5.43064">
        <ele>812.40002441406</ele>
        <time>2016-05-07T11:01:24Z</time>
      </trkpt>
      <trkpt lat="44.25833" lon="5.43065">
        <ele>812.40002441406</ele>
        <time>2016-05-07T11:01:25Z</time>
      </trkpt>
      <trkpt lat="44.25831" lon="5.43065">
        <ele>813</ele>
        <time>2016-05-07T11:01:27Z</time>
      </trkpt>
      <trkpt lat="44.2583" lon="5.43065">
        <ele>813.40002441406</ele>
        <time>2016-05-07T11:01:28Z</time>
      </trkpt>
      <trkpt lat="44.25827" lon="5.43066">
        <ele>814.59997558594</ele>
        <time>2016-05-07T11:01:31Z</time>
      </trkpt>
      <trkpt lat="44.25824" lon="5.43068">
        <ele>815.20001220703</ele>
        <time>2016-05-07T11:01:34Z</time>
      </trkpt>
      <trkpt lat="44.25822" lon="5.43068">
        <ele>815.59997558594</ele>
        <time>2016-05-07T11:01:35Z</time>
      </trkpt>
      <trkpt lat="44.2582" lon="5.43069">
        <ele>815.59997558594</ele>
        <time>2016-05-07T11:01:37Z</time>
      </trkpt>
      <trkpt lat="44.25808" lon="5.43073">
        <ele>815.59997558594</ele>
        <time>2016-05-07T11:01:45Z</time>
      </trkpt>
      <trkpt lat="44.25803" lon="5.43075">
        <ele>816</ele>
        <time>2016-05-07T11:01:49Z</time>
      </trkpt>
      <trkpt lat="44.25797" lon="5.43076">
        <ele>816.40002441406</ele>
        <time>2016-05-07T11:01:52Z</time>
      </trkpt>
      <trkpt lat="44.25796" lon="5.43076">
        <ele>816.40002441406</ele>
        <time>2016-05-07T11:01:53Z</time>
      </trkpt>
      <trkpt lat="44.25793" lon="5.43076">
        <ele>816.79998779297</ele>
        <time>2016-05-07T11:01:55Z</time>
      </trkpt>
      <trkpt lat="44.25792" lon="5.43075">
        <ele>817.20001220703</ele>
        <time>2016-05-07T11:01:56Z</time>
      </trkpt>
      <trkpt lat="44.25785" lon="5.43076">
        <ele>817.59997558594</ele>
        <time>2016-05-07T11:01:59Z</time>
      </trkpt>
      <trkpt lat="44.25779" lon="5.43076">
        <ele>818.20001220703</ele>
        <time>2016-05-07T11:02:03Z</time>
      </trkpt>
      <trkpt lat="44.25775" lon="5.43077">
        <ele>818.20001220703</ele>
        <time>2016-05-07T11:02:05Z</time>
      </trkpt>
      <trkpt lat="44.25774" lon="5.43078">
        <ele>818.59997558594</ele>
        <time>2016-05-07T11:02:06Z</time>
      </trkpt>
      <trkpt lat="44.25769" lon="5.43081">
        <ele>819</ele>
        <time>2016-05-07T11:02:09Z</time>
      </trkpt>
      <trkpt lat="44.25768" lon="5.43082">
        <ele>819.40002441406</ele>
        <time>2016-05-07T11:02:10Z</time>
      </trkpt>
      <trkpt lat="44.25763" lon="5.43086">
        <ele>819.79998779297</ele>
        <time>2016-05-07T11:02:13Z</time>
      </trkpt>
      <trkpt lat="44.2576" lon="5.43088">
        <ele>819.79998779297</ele>
        <time>2016-05-07T11:02:15Z</time>
      </trkpt>
      <trkpt lat="44.25754" lon="5.43095">
        <ele>820.20001220703</ele>
        <time>2016-05-07T11:02:20Z</time>
      </trkpt>
      <trkpt lat="44.2575" lon="5.43101">
        <ele>820.59997558594</ele>
        <time>2016-05-07T11:02:23Z</time>
      </trkpt>
      <trkpt lat="44.25748" lon="5.43103">
        <ele>821.20001220703</ele>
        <time>2016-05-07T11:02:24Z</time>
      </trkpt>
      <trkpt lat="44.25743" lon="5.4311">
        <ele>821.59997558594</ele>
        <time>2016-05-07T11:02:27Z</time>
      </trkpt>
      <trkpt lat="44.25738" lon="5.4312">
        <ele>822</ele>
        <time>2016-05-07T11:02:30Z</time>
      </trkpt>
      <trkpt lat="44.25723" lon="5.43145">
        <ele>822</ele>
        <time>2016-05-07T11:02:37Z</time>
      </trkpt>
      <trkpt lat="44.25704" lon="5.43184">
        <ele>822</ele>
        <time>2016-05-07T11:02:47Z</time>
      </trkpt>
      <trkpt lat="44.25687" lon="5.43209">
        <ele>822</ele>
        <time>2016-05-07T11:02:54Z</time>
      </trkpt>
      <trkpt lat="44.25671" lon="5.43224">
        <ele>822</ele>
        <time>2016-05-07T11:03:00Z</time>
      </trkpt>
      <trkpt lat="44.25649" lon="5.43241">
        <ele>822</ele>
        <time>2016-05-07T11:03:08Z</time>
      </trkpt>
      <trkpt lat="44.25636" lon="5.43242">
        <ele>822.40002441406</ele>
        <time>2016-05-07T11:03:12Z</time>
      </trkpt>
      <trkpt lat="44.25633" lon="5.43241">
        <ele>823</ele>
        <time>2016-05-07T11:03:13Z</time>
      </trkpt>
      <trkpt lat="44.25627" lon="5.43241">
        <ele>823.40002441406</ele>
        <time>2016-05-07T11:03:16Z</time>
      </trkpt>
      <trkpt lat="44.25621" lon="5.43241">
        <ele>823.79998779297</ele>
        <time>2016-05-07T11:03:19Z</time>
      </trkpt>
      <trkpt lat="44.25619" lon="5.43241">
        <ele>824.40002441406</ele>
        <time>2016-05-07T11:03:20Z</time>
      </trkpt>
      <trkpt lat="44.25608" lon="5.43236">
        <ele>824.40002441406</ele>
        <time>2016-05-07T11:03:27Z</time>
      </trkpt>
      <trkpt lat="44.25607" lon="5.43234">
        <ele>824.79998779297</ele>
        <time>2016-05-07T11:03:28Z</time>
      </trkpt>
      <trkpt lat="44.25604" lon="5.43228">
        <ele>825.40002441406</ele>
        <time>2016-05-07T11:03:31Z</time>
      </trkpt>
      <trkpt lat="44.25601" lon="5.43223">
        <ele>825.40002441406</ele>
        <time>2016-05-07T11:03:34Z</time>
      </trkpt>
      <trkpt lat="44.256" lon="5.43221">
        <ele>825.79998779297</ele>
        <time>2016-05-07T11:03:35Z</time>
      </trkpt>
      <trkpt lat="44.25598" lon="5.43215">
        <ele>826.40002441406</ele>
        <time>2016-05-07T11:03:38Z</time>
      </trkpt>
      <trkpt lat="44.25597" lon="5.43213">
        <ele>827</ele>
        <time>2016-05-07T11:03:39Z</time>
      </trkpt>
      <trkpt lat="44.25594" lon="5.43208">
        <ele>827.59997558594</ele>
        <time>2016-05-07T11:03:42Z</time>
      </trkpt>
      <trkpt lat="44.25593" lon="5.43206">
        <ele>827.59997558594</ele>
        <time>2016-05-07T11:03:43Z</time>
      </trkpt>
      <trkpt lat="44.25591" lon="5.43202">
        <ele>828.20001220703</ele>
        <time>2016-05-07T11:03:45Z</time>
      </trkpt>
      <trkpt lat="44.25589" lon="5.43201">
        <ele>829</ele>
        <time>2016-05-07T11:03:46Z</time>
      </trkpt>
      <trkpt lat="44.25586" lon="5.43197">
        <ele>829.59997558594</ele>
        <time>2016-05-07T11:03:49Z</time>
      </trkpt>
      <trkpt lat="44.25584" lon="5.43192">
        <ele>830</ele>
        <time>2016-05-07T11:03:52Z</time>
      </trkpt>
      <trkpt lat="44.25583" lon="5.4319">
        <ele>830.59997558594</ele>
        <time>2016-05-07T11:03:53Z</time>
      </trkpt>
      <trkpt lat="44.2558" lon="5.43186">
        <ele>831</ele>
        <time>2016-05-07T11:03:56Z</time>
      </trkpt>
      <trkpt lat="44.25577" lon="5.43181">
        <ele>831.59997558594</ele>
        <time>2016-05-07T11:03:59Z</time>
      </trkpt>
      <trkpt lat="44.25576" lon="5.4318">
        <ele>832</ele>
        <time>2016-05-07T11:04:00Z</time>
      </trkpt>
      <trkpt lat="44.25575" lon="5.43178">
        <ele>832</ele>
        <time>2016-05-07T11:04:01Z</time>
      </trkpt>
      <trkpt lat="44.25569" lon="5.43169">
        <ele>833</ele>
        <time>2016-05-07T11:04:07Z</time>
      </trkpt>
      <trkpt lat="44.25566" lon="5.43164">
        <ele>833.59997558594</ele>
        <time>2016-05-07T11:04:10Z</time>
      </trkpt>
      <trkpt lat="44.25565" lon="5.4316">
        <ele>833.59997558594</ele>
        <time>2016-05-07T11:04:12Z</time>
      </trkpt>
      <trkpt lat="44.25564" lon="5.43158">
        <ele>834</ele>
        <time>2016-05-07T11:04:13Z</time>
      </trkpt>
      <trkpt lat="44.25563" lon="5.43156">
        <ele>834.59997558594</ele>
        <time>2016-05-07T11:04:14Z</time>
      </trkpt>
      <trkpt lat="44.25562" lon="5.43145">
        <ele>835</ele>
        <time>2016-05-07T11:04:20Z</time>
      </trkpt>
      <trkpt lat="44.25562" lon="5.43144">
        <ele>835.40002441406</ele>
        <time>2016-05-07T11:04:21Z</time>
      </trkpt>
      <trkpt lat="44.25564" lon="5.43141">
        <ele>835.40002441406</ele>
        <time>2016-05-07T11:04:23Z</time>
      </trkpt>
      <trkpt lat="44.25565" lon="5.4314">
        <ele>836</ele>
        <time>2016-05-07T11:04:24Z</time>
      </trkpt>
      <trkpt lat="44.25569" lon="5.43137">
        <ele>836.40002441406</ele>
        <time>2016-05-07T11:04:27Z</time>
      </trkpt>
      <trkpt lat="44.2557" lon="5.43136">
        <ele>836.79998779297</ele>
        <time>2016-05-07T11:04:28Z</time>
      </trkpt>
      <trkpt lat="44.25574" lon="5.43134">
        <ele>837.40002441406</ele>
        <time>2016-05-07T11:04:31Z</time>
      </trkpt>
      <trkpt lat="44.25578" lon="5.43132">
        <ele>837.79998779297</ele>
        <time>2016-05-07T11:04:34Z</time>
      </trkpt>
      <trkpt lat="44.25579" lon="5.43131">
        <ele>838.20001220703</ele>
        <time>2016-05-07T11:04:35Z</time>
      </trkpt>
      <trkpt lat="44.25581" lon="5.43126">
        <ele>838.79998779297</ele>
        <time>2016-05-07T11:04:38Z</time>
      </trkpt>
      <trkpt lat="44.25582" lon="5.43121">
        <ele>839.20001220703</ele>
        <time>2016-05-07T11:04:41Z</time>
      </trkpt>
      <trkpt lat="44.25581" lon="5.43118">
        <ele>839.20001220703</ele>
        <time>2016-05-07T11:04:44Z</time>
      </trkpt>
      <trkpt lat="44.25581" lon="5.43116">
        <ele>839.59997558594</ele>
        <time>2016-05-07T11:04:45Z</time>
      </trkpt>
      <trkpt lat="44.2558" lon="5.43111">
        <ele>840</ele>
        <time>2016-05-07T11:04:48Z</time>
      </trkpt>
      <trkpt lat="44.2558" lon="5.43109">
        <ele>840.59997558594</ele>
        <time>2016-05-07T11:04:49Z</time>
      </trkpt>
      <trkpt lat="44.2558" lon="5.43105">
        <ele>841</ele>
        <time>2016-05-07T11:04:52Z</time>
      </trkpt>
      <trkpt lat="44.2558" lon="5.43099">
        <ele>841.59997558594</ele>
        <time>2016-05-07T11:04:55Z</time>
      </trkpt>
      <trkpt lat="44.2558" lon="5.43098">
        <ele>842</ele>
        <time>2016-05-07T11:04:56Z</time>
      </trkpt>
      <trkpt lat="44.25579" lon="5.43093">
        <ele>842.59997558594</ele>
        <time>2016-05-07T11:04:59Z</time>
      </trkpt>
      <trkpt lat="44.25578" lon="5.43087">
        <ele>843</ele>
        <time>2016-05-07T11:05:02Z</time>
      </trkpt>
      <trkpt lat="44.25578" lon="5.43086">
        <ele>843.59997558594</ele>
        <time>2016-05-07T11:05:03Z</time>
      </trkpt>
      <trkpt lat="44.25578" lon="5.4308">
        <ele>844</ele>
        <time>2016-05-07T11:05:06Z</time>
      </trkpt>
      <trkpt lat="44.25577" lon="5.43076">
        <ele>844.40002441406</ele>
        <time>2016-05-07T11:05:09Z</time>
      </trkpt>
      <trkpt lat="44.25577" lon="5.43075">
        <ele>844.79998779297</ele>
        <time>2016-05-07T11:05:10Z</time>
      </trkpt>
      <trkpt lat="44.25578" lon="5.43071">
        <ele>845.40002441406</ele>
        <time>2016-05-07T11:05:13Z</time>
      </trkpt>
      <trkpt lat="44.25578" lon="5.43066">
        <ele>845.79998779297</ele>
        <time>2016-05-07T11:05:16Z</time>
      </trkpt>
      <trkpt lat="44.25577" lon="5.4306">
        <ele>846.20001220703</ele>
        <time>2016-05-07T11:05:20Z</time>
      </trkpt>
      <trkpt lat="44.25576" lon="5.43056">
        <ele>846.20001220703</ele>
        <time>2016-05-07T11:05:22Z</time>
      </trkpt>
      <trkpt lat="44.25576" lon="5.43054">
        <ele>846.79998779297</ele>
        <time>2016-05-07T11:05:23Z</time>
      </trkpt>
      <trkpt lat="44.25576" lon="5.43053">
        <ele>847.20001220703</ele>
        <time>2016-05-07T11:05:24Z</time>
      </trkpt>
      <trkpt lat="44.25575" lon="5.43048">
        <ele>848</ele>
        <time>2016-05-07T11:05:27Z</time>
      </trkpt>
      <trkpt lat="44.25575" lon="5.43043">
        <ele>848.59997558594</ele>
        <time>2016-05-07T11:05:30Z</time>
      </trkpt>
      <trkpt lat="44.25575" lon="5.43042">
        <ele>849.20001220703</ele>
        <time>2016-05-07T11:05:31Z</time>
      </trkpt>
      <trkpt lat="44.25575" lon="5.4304">
        <ele>849.20001220703</ele>
        <time>2016-05-07T11:05:32Z</time>
      </trkpt>
      <trkpt lat="44.25575" lon="5.43038">
        <ele>849.79998779297</ele>
        <time>2016-05-07T11:05:34Z</time>
      </trkpt>
      <trkpt lat="44.25574" lon="5.43033">
        <ele>850.59997558594</ele>
        <time>2016-05-07T11:05:37Z</time>
      </trkpt>
      <trkpt lat="44.25574" lon="5.43031">
        <ele>851.20001220703</ele>
        <time>2016-05-07T11:05:38Z</time>
      </trkpt>
      <trkpt lat="44.25573" lon="5.43029">
        <ele>851.20001220703</ele>
        <time>2016-05-07T11:05:40Z</time>
      </trkpt>
      <trkpt lat="44.25572" lon="5.43028">
        <ele>851.79998779297</ele>
        <time>2016-05-07T11:05:41Z</time>
      </trkpt>
      <trkpt lat="44.25571" lon="5.43022">
        <ele>852.59997558594</ele>
        <time>2016-05-07T11:05:45Z</time>
      </trkpt>
      <trkpt lat="44.25571" lon="5.4302">
        <ele>853</ele>
        <time>2016-05-07T11:05:46Z</time>
      </trkpt>
      <trkpt lat="44.2557" lon="5.43016">
        <ele>853.40002441406</ele>
        <time>2016-05-07T11:05:49Z</time>
      </trkpt>
      <trkpt lat="44.2557" lon="5.43015">
        <ele>853.40002441406</ele>
        <time>2016-05-07T11:05:50Z</time>
      </trkpt>
      <trkpt lat="44.25568" lon="5.43012">
        <ele>853.79998779297</ele>
        <time>2016-05-07T11:05:53Z</time>
      </trkpt>
      <trkpt lat="44.25567" lon="5.43009">
        <ele>854.40002441406</ele>
        <time>2016-05-07T11:05:56Z</time>
      </trkpt>
      <trkpt lat="44.25567" lon="5.43008">
        <ele>854.79998779297</ele>
        <time>2016-05-07T11:05:57Z</time>
      </trkpt>
      <trkpt lat="44.25567" lon="5.43006">
        <ele>854.79998779297</ele>
        <time>2016-05-07T11:05:58Z</time>
      </trkpt>
      <trkpt lat="44.25566" lon="5.43004">
        <ele>855.40002441406</ele>
        <time>2016-05-07T11:06:00Z</time>
      </trkpt>
      <trkpt lat="44.25568" lon="5.42999">
        <ele>856</ele>
        <time>2016-05-07T11:06:03Z</time>
      </trkpt>
      <trkpt lat="44.2557" lon="5.4299">
        <ele>856.59997558594</ele>
        <time>2016-05-07T11:06:08Z</time>
      </trkpt>
      <trkpt lat="44.25571" lon="5.42984">
        <ele>857.79998779297</ele>
        <time>2016-05-07T11:06:12Z</time>
      </trkpt>
      <trkpt lat="44.25571" lon="5.42983">
        <ele>857.79998779297</ele>
        <time>2016-05-07T11:06:13Z</time>
      </trkpt>
      <trkpt lat="44.25571" lon="5.4298">
        <ele>858.40002441406</ele>
        <time>2016-05-07T11:06:15Z</time>
      </trkpt>
      <trkpt lat="44.25571" lon="5.42974">
        <ele>859.59997558594</ele>
        <time>2016-05-07T11:06:19Z</time>
      </trkpt>
      <trkpt lat="44.25572" lon="5.42969">
        <ele>860</ele>
        <time>2016-05-07T11:06:22Z</time>
      </trkpt>
      <trkpt lat="44.25572" lon="5.42968">
        <ele>860</ele>
        <time>2016-05-07T11:06:23Z</time>
      </trkpt>
      <trkpt lat="44.25573" lon="5.42964">
        <ele>860.40002441406</ele>
        <time>2016-05-07T11:06:26Z</time>
      </trkpt>
      <trkpt lat="44.25574" lon="5.4296">
        <ele>861.20001220703</ele>
        <time>2016-05-07T11:06:29Z</time>
      </trkpt>
      <trkpt lat="44.25574" lon="5.42959">
        <ele>861.79998779297</ele>
        <time>2016-05-07T11:06:30Z</time>
      </trkpt>
      <trkpt lat="44.25577" lon="5.42956">
        <ele>862.59997558594</ele>
        <time>2016-05-07T11:06:33Z</time>
      </trkpt>
      <trkpt lat="44.2558" lon="5.42953">
        <ele>863.40002441406</ele>
        <time>2016-05-07T11:06:36Z</time>
      </trkpt>
      <trkpt lat="44.25581" lon="5.42952">
        <ele>863.79998779297</ele>
        <time>2016-05-07T11:06:37Z</time>
      </trkpt>
      <trkpt lat="44.25583" lon="5.42948">
        <ele>864.40002441406</ele>
        <time>2016-05-07T11:06:40Z</time>
      </trkpt>
      <trkpt lat="44.25586" lon="5.42946">
        <ele>865</ele>
        <time>2016-05-07T11:06:43Z</time>
      </trkpt>
      <trkpt lat="44.25587" lon="5.42945">
        <ele>865.59997558594</ele>
        <time>2016-05-07T11:06:44Z</time>
      </trkpt>
      <trkpt lat="44.2559" lon="5.42942">
        <ele>866</ele>
        <time>2016-05-07T11:06:47Z</time>
      </trkpt>
      <trkpt lat="44.25591" lon="5.42942">
        <ele>866</ele>
        <time>2016-05-07T11:06:48Z</time>
      </trkpt>
      <trkpt lat="44.25593" lon="5.4294">
        <ele>866.59997558594</ele>
        <time>2016-05-07T11:06:50Z</time>
      </trkpt>
      <trkpt lat="44.25597" lon="5.42937">
        <ele>867.40002441406</ele>
        <time>2016-05-07T11:06:54Z</time>
      </trkpt>
      <trkpt lat="44.256" lon="5.42935">
        <ele>867.79998779297</ele>
        <time>2016-05-07T11:06:57Z</time>
      </trkpt>
      <trkpt lat="44.25601" lon="5.42934">
        <ele>868.20001220703</ele>
        <time>2016-05-07T11:06:58Z</time>
      </trkpt>
      <trkpt lat="44.25609" lon="5.42929">
        <ele>868.59997558594</ele>
        <time>2016-05-07T11:07:05Z</time>
      </trkpt>
      <trkpt lat="44.25612" lon="5.42926">
        <ele>869</ele>
        <time>2016-05-07T11:07:08Z</time>
      </trkpt>
      <trkpt lat="44.25615" lon="5.42923">
        <ele>869.40002441406</ele>
        <time>2016-05-07T11:07:11Z</time>
      </trkpt>
      <trkpt lat="44.25616" lon="5.42922">
        <ele>869.79998779297</ele>
        <time>2016-05-07T11:07:12Z</time>
      </trkpt>
      <trkpt lat="44.25619" lon="5.42918">
        <ele>870.40002441406</ele>
        <time>2016-05-07T11:07:15Z</time>
      </trkpt>
      <trkpt lat="44.25631" lon="5.42914">
        <ele>870.40002441406</ele>
        <time>2016-05-07T11:07:21Z</time>
      </trkpt>
      <trkpt lat="44.25652" lon="5.42905">
        <ele>870.40002441406</ele>
        <time>2016-05-07T11:07:30Z</time>
      </trkpt>
      <trkpt lat="44.25658" lon="5.42902">
        <ele>871.20001220703</ele>
        <time>2016-05-07T11:07:33Z</time>
      </trkpt>
      <trkpt lat="44.25666" lon="5.42899">
        <ele>871.59997558594</ele>
        <time>2016-05-07T11:07:36Z</time>
      </trkpt>
      <trkpt lat="44.25676" lon="5.42896">
        <ele>871.59997558594</ele>
        <time>2016-05-07T11:07:39Z</time>
      </trkpt>
      <trkpt lat="44.25679" lon="5.42894">
        <ele>872</ele>
        <time>2016-05-07T11:07:40Z</time>
      </trkpt>
      <trkpt lat="44.25687" lon="5.42891">
        <ele>872.59997558594</ele>
        <time>2016-05-07T11:07:43Z</time>
      </trkpt>
      <trkpt lat="44.25698" lon="5.42887">
        <ele>872.59997558594</ele>
        <time>2016-05-07T11:07:47Z</time>
      </trkpt>
      <trkpt lat="44.25718" lon="5.42876">
        <ele>872.59997558594</ele>
        <time>2016-05-07T11:07:53Z</time>
      </trkpt>
      <trkpt lat="44.25729" lon="5.42865">
        <ele>872.59997558594</ele>
        <time>2016-05-07T11:07:56Z</time>
      </trkpt>
      <trkpt lat="44.25736" lon="5.42857">
        <ele>872.59997558594</ele>
        <time>2016-05-07T11:07:58Z</time>
      </trkpt>
      <trkpt lat="44.25748" lon="5.42831">
        <ele>872.59997558594</ele>
        <time>2016-05-07T11:08:03Z</time>
      </trkpt>
      <trkpt lat="44.25752" lon="5.42819">
        <ele>873</ele>
        <time>2016-05-07T11:08:05Z</time>
      </trkpt>
      <trkpt lat="44.2576" lon="5.42801">
        <ele>873.40002441406</ele>
        <time>2016-05-07T11:08:08Z</time>
      </trkpt>
      <trkpt lat="44.25766" lon="5.42785">
        <ele>873.40002441406</ele>
        <time>2016-05-07T11:08:11Z</time>
      </trkpt>
      <trkpt lat="44.25769" lon="5.42781">
        <ele>874.40002441406</ele>
        <time>2016-05-07T11:08:12Z</time>
      </trkpt>
      <trkpt lat="44.25776" lon="5.42768">
        <ele>874.79998779297</ele>
        <time>2016-05-07T11:08:15Z</time>
      </trkpt>
      <trkpt lat="44.25784" lon="5.42753">
        <ele>874.79998779297</ele>
        <time>2016-05-07T11:08:19Z</time>
      </trkpt>
      <trkpt lat="44.25793" lon="5.42729">
        <ele>874.79998779297</ele>
        <time>2016-05-07T11:08:26Z</time>
      </trkpt>
      <trkpt lat="44.25798" lon="5.42715">
        <ele>875.20001220703</ele>
        <time>2016-05-07T11:08:30Z</time>
      </trkpt>
      <trkpt lat="44.25798" lon="5.42711">
        <ele>875.59997558594</ele>
        <time>2016-05-07T11:08:31Z</time>
      </trkpt>
      <trkpt lat="44.25803" lon="5.42702">
        <ele>876</ele>
        <time>2016-05-07T11:08:34Z</time>
      </trkpt>
      <trkpt lat="44.25805" lon="5.42692">
        <ele>876.40002441406</ele>
        <time>2016-05-07T11:08:37Z</time>
      </trkpt>
      <trkpt lat="44.2581" lon="5.4268">
        <ele>876.79998779297</ele>
        <time>2016-05-07T11:08:41Z</time>
      </trkpt>
      <trkpt lat="44.25813" lon="5.42675">
        <ele>876.79998779297</ele>
        <time>2016-05-07T11:08:43Z</time>
      </trkpt>
      <trkpt lat="44.25818" lon="5.42663">
        <ele>877.20001220703</ele>
        <time>2016-05-07T11:08:48Z</time>
      </trkpt>
      <trkpt lat="44.25821" lon="5.42655">
        <ele>877.20001220703</ele>
        <time>2016-05-07T11:08:51Z</time>
      </trkpt>
      <trkpt lat="44.25822" lon="5.42653">
        <ele>877.79998779297</ele>
        <time>2016-05-07T11:08:52Z</time>
      </trkpt>
      <trkpt lat="44.25823" lon="5.4265">
        <ele>878.20001220703</ele>
        <time>2016-05-07T11:08:53Z</time>
      </trkpt>
      <trkpt lat="44.25826" lon="5.42643">
        <ele>878.59997558594</ele>
        <time>2016-05-07T11:08:56Z</time>
      </trkpt>
      <trkpt lat="44.2583" lon="5.42633">
        <ele>879.20001220703</ele>
        <time>2016-05-07T11:09:00Z</time>
      </trkpt>
      <trkpt lat="44.25832" lon="5.42628">
        <ele>879.20001220703</ele>
        <time>2016-05-07T11:09:02Z</time>
      </trkpt>
      <trkpt lat="44.25834" lon="5.42623">
        <ele>879.59997558594</ele>
        <time>2016-05-07T11:09:04Z</time>
      </trkpt>
      <trkpt lat="44.25837" lon="5.42614">
        <ele>880</ele>
        <time>2016-05-07T11:09:08Z</time>
      </trkpt>
      <trkpt lat="44.25838" lon="5.42611">
        <ele>880</ele>
        <time>2016-05-07T11:09:09Z</time>
      </trkpt>
      <trkpt lat="44.25839" lon="5.42606">
        <ele>880.79998779297</ele>
        <time>2016-05-07T11:09:11Z</time>
      </trkpt>
      <trkpt lat="44.25841" lon="5.42598">
        <ele>881.20001220703</ele>
        <time>2016-05-07T11:09:14Z</time>
      </trkpt>
      <trkpt lat="44.25845" lon="5.4259">
        <ele>881.79998779297</ele>
        <time>2016-05-07T11:09:18Z</time>
      </trkpt>
      <trkpt lat="44.25845" lon="5.42588">
        <ele>881.79998779297</ele>
        <time>2016-05-07T11:09:19Z</time>
      </trkpt>
      <trkpt lat="44.25846" lon="5.42584">
        <ele>882.20001220703</ele>
        <time>2016-05-07T11:09:21Z</time>
      </trkpt>
      <trkpt lat="44.25849" lon="5.42576">
        <ele>883</ele>
        <time>2016-05-07T11:09:25Z</time>
      </trkpt>
      <trkpt lat="44.2585" lon="5.42574">
        <ele>883</ele>
        <time>2016-05-07T11:09:26Z</time>
      </trkpt>
      <trkpt lat="44.2585" lon="5.4257">
        <ele>883.40002441406</ele>
        <time>2016-05-07T11:09:28Z</time>
      </trkpt>
      <trkpt lat="44.25853" lon="5.42562">
        <ele>883.79998779297</ele>
        <time>2016-05-07T11:09:32Z</time>
      </trkpt>
      <trkpt lat="44.25855" lon="5.42556">
        <ele>884.20001220703</ele>
        <time>2016-05-07T11:09:35Z</time>
      </trkpt>
      <trkpt lat="44.25855" lon="5.42555">
        <ele>884.20001220703</ele>
        <time>2016-05-07T11:09:36Z</time>
      </trkpt>
      <trkpt lat="44.25857" lon="5.42548">
        <ele>885.20001220703</ele>
        <time>2016-05-07T11:09:40Z</time>
      </trkpt>
      <trkpt lat="44.25859" lon="5.42543">
        <ele>885.59997558594</ele>
        <time>2016-05-07T11:09:43Z</time>
      </trkpt>
      <trkpt lat="44.2586" lon="5.42539">
        <ele>885.59997558594</ele>
        <time>2016-05-07T11:09:46Z</time>
      </trkpt>
      <trkpt lat="44.25861" lon="5.42538">
        <ele>886.40002441406</ele>
        <time>2016-05-07T11:09:47Z</time>
      </trkpt>
      <trkpt lat="44.25863" lon="5.42532">
        <ele>887</ele>
        <time>2016-05-07T11:09:51Z</time>
      </trkpt>
      <trkpt lat="44.25866" lon="5.42527">
        <ele>887.79998779297</ele>
        <time>2016-05-07T11:09:54Z</time>
      </trkpt>
      <trkpt lat="44.25869" lon="5.42523">
        <ele>888.20001220703</ele>
        <time>2016-05-07T11:09:58Z</time>
      </trkpt>
      <trkpt lat="44.25871" lon="5.42519">
        <ele>888.79998779297</ele>
        <time>2016-05-07T11:10:01Z</time>
      </trkpt>
      <trkpt lat="44.25874" lon="5.42514">
        <ele>889.59997558594</ele>
        <time>2016-05-07T11:10:05Z</time>
      </trkpt>
      <trkpt lat="44.25877" lon="5.4251">
        <ele>890</ele>
        <time>2016-05-07T11:10:08Z</time>
      </trkpt>
      <trkpt lat="44.25879" lon="5.42505">
        <ele>891</ele>
        <time>2016-05-07T11:10:12Z</time>
      </trkpt>
      <trkpt lat="44.2588" lon="5.42499">
        <ele>891.59997558594</ele>
        <time>2016-05-07T11:10:15Z</time>
      </trkpt>
      <trkpt lat="44.25882" lon="5.42496">
        <ele>892.59997558594</ele>
        <time>2016-05-07T11:10:19Z</time>
      </trkpt>
      <trkpt lat="44.25883" lon="5.42492">
        <ele>893</ele>
        <time>2016-05-07T11:10:22Z</time>
      </trkpt>
      <trkpt lat="44.25885" lon="5.42486">
        <ele>894.20001220703</ele>
        <time>2016-05-07T11:10:26Z</time>
      </trkpt>
      <trkpt lat="44.25885" lon="5.4248">
        <ele>894.59997558594</ele>
        <time>2016-05-07T11:10:29Z</time>
      </trkpt>
      <trkpt lat="44.25887" lon="5.42475">
        <ele>895.59997558594</ele>
        <time>2016-05-07T11:10:33Z</time>
      </trkpt>
      <trkpt lat="44.25889" lon="5.4247">
        <ele>896.20001220703</ele>
        <time>2016-05-07T11:10:36Z</time>
      </trkpt>
      <trkpt lat="44.25892" lon="5.42464">
        <ele>896.59997558594</ele>
        <time>2016-05-07T11:10:40Z</time>
      </trkpt>
      <trkpt lat="44.25892" lon="5.42462">
        <ele>896.59997558594</ele>
        <time>2016-05-07T11:10:41Z</time>
      </trkpt>
      <trkpt lat="44.25892" lon="5.42459">
        <ele>897</ele>
        <time>2016-05-07T11:10:43Z</time>
      </trkpt>
      <trkpt lat="44.25893" lon="5.42452">
        <ele>897.40002441406</ele>
        <time>2016-05-07T11:10:47Z</time>
      </trkpt>
      <trkpt lat="44.25894" lon="5.42448">
        <ele>897.40002441406</ele>
        <time>2016-05-07T11:10:49Z</time>
      </trkpt>
      <trkpt lat="44.25894" lon="5.42446">
        <ele>897.79998779297</ele>
        <time>2016-05-07T11:10:50Z</time>
      </trkpt>
      <trkpt lat="44.25895" lon="5.42437">
        <ele>898.79998779297</ele>
        <time>2016-05-07T11:10:54Z</time>
      </trkpt>
      <trkpt lat="44.25895" lon="5.42431">
        <ele>899.40002441406</ele>
        <time>2016-05-07T11:10:57Z</time>
      </trkpt>
      <trkpt lat="44.25896" lon="5.4243">
        <ele>899.40002441406</ele>
        <time>2016-05-07T11:10:58Z</time>
      </trkpt>
      <trkpt lat="44.25895" lon="5.42424">
        <ele>900.59997558594</ele>
        <time>2016-05-07T11:11:01Z</time>
      </trkpt>
      <trkpt lat="44.25895" lon="5.42419">
        <ele>901</ele>
        <time>2016-05-07T11:11:04Z</time>
      </trkpt>
      <trkpt lat="44.25895" lon="5.42417">
        <ele>901.40002441406</ele>
        <time>2016-05-07T11:11:05Z</time>
      </trkpt>
      <trkpt lat="44.25893" lon="5.42411">
        <ele>901.40002441406</ele>
        <time>2016-05-07T11:11:09Z</time>
      </trkpt>
      <trkpt lat="44.25892" lon="5.42406">
        <ele>902.20001220703</ele>
        <time>2016-05-07T11:11:12Z</time>
      </trkpt>
      <trkpt lat="44.25891" lon="5.42404">
        <ele>902.59997558594</ele>
        <time>2016-05-07T11:11:13Z</time>
      </trkpt>
      <trkpt lat="44.25888" lon="5.42391">
        <ele>903.40002441406</ele>
        <time>2016-05-07T11:11:19Z</time>
      </trkpt>
      <trkpt lat="44.25887" lon="5.42387">
        <ele>904.20001220703</ele>
        <time>2016-05-07T11:11:22Z</time>
      </trkpt>
      <trkpt lat="44.25885" lon="5.42381">
        <ele>904.59997558594</ele>
        <time>2016-05-07T11:11:26Z</time>
      </trkpt>
      <trkpt lat="44.25885" lon="5.42377">
        <ele>904.59997558594</ele>
        <time>2016-05-07T11:11:28Z</time>
      </trkpt>
      <trkpt lat="44.25883" lon="5.42369">
        <ele>904.59997558594</ele>
        <time>2016-05-07T11:11:32Z</time>
      </trkpt>
      <trkpt lat="44.25883" lon="5.42367">
        <ele>905.20001220703</ele>
        <time>2016-05-07T11:11:33Z</time>
      </trkpt>
      <trkpt lat="44.25882" lon="5.42361">
        <ele>905.20001220703</ele>
        <time>2016-05-07T11:11:35Z</time>
      </trkpt>
      <trkpt lat="44.25882" lon="5.42359">
        <ele>905.59997558594</ele>
        <time>2016-05-07T11:11:36Z</time>
      </trkpt>
      <trkpt lat="44.25882" lon="5.42348">
        <ele>906.40002441406</ele>
        <time>2016-05-07T11:11:40Z</time>
      </trkpt>
      <trkpt lat="44.25882" lon="5.42341">
        <ele>907</ele>
        <time>2016-05-07T11:11:43Z</time>
      </trkpt>
      <trkpt lat="44.2588" lon="5.42315">
        <ele>907</ele>
        <time>2016-05-07T11:11:53Z</time>
      </trkpt>
      <trkpt lat="44.25881" lon="5.42313">
        <ele>907.40002441406</ele>
        <time>2016-05-07T11:11:54Z</time>
      </trkpt>
      <trkpt lat="44.2588" lon="5.42306">
        <ele>907.79998779297</ele>
        <time>2016-05-07T11:11:57Z</time>
      </trkpt>
      <trkpt lat="44.2588" lon="5.42304">
        <ele>908.20001220703</ele>
        <time>2016-05-07T11:11:58Z</time>
      </trkpt>
      <trkpt lat="44.25879" lon="5.42298">
        <ele>908.59997558594</ele>
        <time>2016-05-07T11:12:01Z</time>
      </trkpt>
      <trkpt lat="44.25877" lon="5.42292">
        <ele>909</ele>
        <time>2016-05-07T11:12:04Z</time>
      </trkpt>
      <trkpt lat="44.25877" lon="5.42284">
        <ele>909.40002441406</ele>
        <time>2016-05-07T11:12:08Z</time>
      </trkpt>
      <trkpt lat="44.25876" lon="5.42282">
        <ele>909.40002441406</ele>
        <time>2016-05-07T11:12:09Z</time>
      </trkpt>
      <trkpt lat="44.25876" lon="5.42278">
        <ele>909.79998779297</ele>
        <time>2016-05-07T11:12:11Z</time>
      </trkpt>
      <trkpt lat="44.25875" lon="5.4227">
        <ele>910.79998779297</ele>
        <time>2016-05-07T11:12:15Z</time>
      </trkpt>
      <trkpt lat="44.25875" lon="5.42262">
        <ele>911.20001220703</ele>
        <time>2016-05-07T11:12:18Z</time>
      </trkpt>
      <trkpt lat="44.25876" lon="5.42259">
        <ele>911.79998779297</ele>
        <time>2016-05-07T11:12:19Z</time>
      </trkpt>
      <trkpt lat="44.25875" lon="5.42253">
        <ele>912.40002441406</ele>
        <time>2016-05-07T11:12:22Z</time>
      </trkpt>
      <trkpt lat="44.25873" lon="5.42247">
        <ele>912.40002441406</ele>
        <time>2016-05-07T11:12:25Z</time>
      </trkpt>
      <trkpt lat="44.25872" lon="5.42245">
        <ele>913.40002441406</ele>
        <time>2016-05-07T11:12:26Z</time>
      </trkpt>
      <trkpt lat="44.25865" lon="5.4223">
        <ele>914.40002441406</ele>
        <time>2016-05-07T11:12:35Z</time>
      </trkpt>
      <trkpt lat="44.25864" lon="5.42226">
        <ele>914.40002441406</ele>
        <time>2016-05-07T11:12:37Z</time>
      </trkpt>
      <trkpt lat="44.25863" lon="5.42222">
        <ele>915.20001220703</ele>
        <time>2016-05-07T11:12:39Z</time>
      </trkpt>
      <trkpt lat="44.2586" lon="5.42215">
        <ele>915.79998779297</ele>
        <time>2016-05-07T11:12:43Z</time>
      </trkpt>
      <trkpt lat="44.25859" lon="5.42202">
        <ele>915.79998779297</ele>
        <time>2016-05-07T11:12:49Z</time>
      </trkpt>
      <trkpt lat="44.25859" lon="5.422">
        <ele>916.20001220703</ele>
        <time>2016-05-07T11:12:50Z</time>
      </trkpt>
      <trkpt lat="44.25859" lon="5.42192">
        <ele>916.59997558594</ele>
        <time>2016-05-07T11:12:53Z</time>
      </trkpt>
      <trkpt lat="44.25859" lon="5.42185">
        <ele>917.40002441406</ele>
        <time>2016-05-07T11:12:57Z</time>
      </trkpt>
      <trkpt lat="44.2586" lon="5.42179">
        <ele>917.40002441406</ele>
        <time>2016-05-07T11:13:00Z</time>
      </trkpt>
      <trkpt lat="44.2586" lon="5.42178">
        <ele>917.79998779297</ele>
        <time>2016-05-07T11:13:01Z</time>
      </trkpt>
      <trkpt lat="44.25861" lon="5.42172">
        <ele>918.40002441406</ele>
        <time>2016-05-07T11:13:04Z</time>
      </trkpt>
      <trkpt lat="44.25863" lon="5.42165">
        <ele>919.20001220703</ele>
        <time>2016-05-07T11:13:08Z</time>
      </trkpt>
      <trkpt lat="44.25863" lon="5.42163">
        <ele>919.20001220703</ele>
        <time>2016-05-07T11:13:09Z</time>
      </trkpt>
      <trkpt lat="44.25864" lon="5.42159">
        <ele>919.79998779297</ele>
        <time>2016-05-07T11:13:11Z</time>
      </trkpt>
      <trkpt lat="44.25866" lon="5.42153">
        <ele>920.20001220703</ele>
        <time>2016-05-07T11:13:15Z</time>
      </trkpt>
      <trkpt lat="44.25867" lon="5.42151">
        <ele>920.20001220703</ele>
        <time>2016-05-07T11:13:16Z</time>
      </trkpt>
      <trkpt lat="44.25868" lon="5.42146">
        <ele>920.59997558594</ele>
        <time>2016-05-07T11:13:19Z</time>
      </trkpt>
      <trkpt lat="44.25869" lon="5.42138">
        <ele>921.59997558594</ele>
        <time>2016-05-07T11:13:23Z</time>
      </trkpt>
      <trkpt lat="44.25869" lon="5.42137">
        <ele>921.59997558594</ele>
        <time>2016-05-07T11:13:24Z</time>
      </trkpt>
      <trkpt lat="44.25872" lon="5.42131">
        <ele>922.59997558594</ele>
        <time>2016-05-07T11:13:28Z</time>
      </trkpt>
      <trkpt lat="44.25875" lon="5.42123">
        <ele>922.59997558594</ele>
        <time>2016-05-07T11:13:34Z</time>
      </trkpt>
      <trkpt lat="44.25875" lon="5.4212">
        <ele>923</ele>
        <time>2016-05-07T11:13:36Z</time>
      </trkpt>
      <trkpt lat="44.25877" lon="5.42115">
        <ele>924</ele>
        <time>2016-05-07T11:13:39Z</time>
      </trkpt>
      <trkpt lat="44.25879" lon="5.4211">
        <ele>924.40002441406</ele>
        <time>2016-05-07T11:13:43Z</time>
      </trkpt>
      <trkpt lat="44.2588" lon="5.42109">
        <ele>924.40002441406</ele>
        <time>2016-05-07T11:13:44Z</time>
      </trkpt>
      <trkpt lat="44.25881" lon="5.42105">
        <ele>924.79998779297</ele>
        <time>2016-05-07T11:13:47Z</time>
      </trkpt>
      <trkpt lat="44.25882" lon="5.42102">
        <ele>925.59997558594</ele>
        <time>2016-05-07T11:13:50Z</time>
      </trkpt>
      <trkpt lat="44.25882" lon="5.42099">
        <ele>925.59997558594</ele>
        <time>2016-05-07T11:13:52Z</time>
      </trkpt>
      <trkpt lat="44.25883" lon="5.42095">
        <ele>926.20001220703</ele>
        <time>2016-05-07T11:13:54Z</time>
      </trkpt>
      <trkpt lat="44.25886" lon="5.42091">
        <ele>926.59997558594</ele>
        <time>2016-05-07T11:13:58Z</time>
      </trkpt>
      <trkpt lat="44.25888" lon="5.42086">
        <ele>927.59997558594</ele>
        <time>2016-05-07T11:14:01Z</time>
      </trkpt>
      <trkpt lat="44.2589" lon="5.42081">
        <ele>927.59997558594</ele>
        <time>2016-05-07T11:14:04Z</time>
      </trkpt>
      <trkpt lat="44.25891" lon="5.42079">
        <ele>928.20001220703</ele>
        <time>2016-05-07T11:14:05Z</time>
      </trkpt>
      <trkpt lat="44.25894" lon="5.42076">
        <ele>929.40002441406</ele>
        <time>2016-05-07T11:14:08Z</time>
      </trkpt>
      <trkpt lat="44.25899" lon="5.42068">
        <ele>930.20001220703</ele>
        <time>2016-05-07T11:14:15Z</time>
      </trkpt>
      <trkpt lat="44.259" lon="5.42065">
        <ele>930.20001220703</ele>
        <time>2016-05-07T11:14:17Z</time>
      </trkpt>
      <trkpt lat="44.25902" lon="5.42063">
        <ele>930.79998779297</ele>
        <time>2016-05-07T11:14:19Z</time>
      </trkpt>
      <trkpt lat="44.25904" lon="5.4206">
        <ele>931.59997558594</ele>
        <time>2016-05-07T11:14:22Z</time>
      </trkpt>
      <trkpt lat="44.25905" lon="5.42058">
        <ele>931.59997558594</ele>
        <time>2016-05-07T11:14:24Z</time>
      </trkpt>
      <trkpt lat="44.25906" lon="5.42055">
        <ele>931.59997558594</ele>
        <time>2016-05-07T11:14:26Z</time>
      </trkpt>
      <trkpt lat="44.25909" lon="5.42052">
        <ele>932.20001220703</ele>
        <time>2016-05-07T11:14:29Z</time>
      </trkpt>
      <trkpt lat="44.25912" lon="5.42049">
        <ele>933</ele>
        <time>2016-05-07T11:14:33Z</time>
      </trkpt>
      <trkpt lat="44.25915" lon="5.42045">
        <ele>933.59997558594</ele>
        <time>2016-05-07T11:14:36Z</time>
      </trkpt>
      <trkpt lat="44.25916" lon="5.42043">
        <ele>933.59997558594</ele>
        <time>2016-05-07T11:14:37Z</time>
      </trkpt>
      <trkpt lat="44.25918" lon="5.42039">
        <ele>934</ele>
        <time>2016-05-07T11:14:40Z</time>
      </trkpt>
      <trkpt lat="44.25919" lon="5.42035">
        <ele>934.40002441406</ele>
        <time>2016-05-07T11:14:43Z</time>
      </trkpt>
      <trkpt lat="44.25921" lon="5.42029">
        <ele>935</ele>
        <time>2016-05-07T11:14:47Z</time>
      </trkpt>
      <trkpt lat="44.25922" lon="5.42025">
        <ele>935.79998779297</ele>
        <time>2016-05-07T11:14:50Z</time>
      </trkpt>
      <trkpt lat="44.25924" lon="5.42018">
        <ele>936.20001220703</ele>
        <time>2016-05-07T11:14:54Z</time>
      </trkpt>
      <trkpt lat="44.25925" lon="5.42013">
        <ele>936.20001220703</ele>
        <time>2016-05-07T11:14:57Z</time>
      </trkpt>
      <trkpt lat="44.25925" lon="5.42011">
        <ele>936.59997558594</ele>
        <time>2016-05-07T11:14:58Z</time>
      </trkpt>
      <trkpt lat="44.25927" lon="5.42005">
        <ele>937.59997558594</ele>
        <time>2016-05-07T11:15:01Z</time>
      </trkpt>
      <trkpt lat="44.2593" lon="5.42">
        <ele>938.40002441406</ele>
        <time>2016-05-07T11:15:05Z</time>
      </trkpt>
      <trkpt lat="44.25931" lon="5.41996">
        <ele>938.40002441406</ele>
        <time>2016-05-07T11:15:08Z</time>
      </trkpt>
      <trkpt lat="44.25933" lon="5.41992">
        <ele>939.40002441406</ele>
        <time>2016-05-07T11:15:12Z</time>
      </trkpt>
      <trkpt lat="44.25934" lon="5.41987">
        <ele>940.20001220703</ele>
        <time>2016-05-07T11:15:16Z</time>
      </trkpt>
      <trkpt lat="44.25934" lon="5.41986">
        <ele>940.20001220703</ele>
        <time>2016-05-07T11:15:17Z</time>
      </trkpt>
      <trkpt lat="44.25934" lon="5.41983">
        <ele>940.59997558594</ele>
        <time>2016-05-07T11:15:19Z</time>
      </trkpt>
      <trkpt lat="44.25934" lon="5.41972">
        <ele>940.59997558594</ele>
        <time>2016-05-07T11:15:27Z</time>
      </trkpt>
      <trkpt lat="44.25933" lon="5.41968">
        <ele>941</ele>
        <time>2016-05-07T11:15:30Z</time>
      </trkpt>
      <trkpt lat="44.25935" lon="5.41961">
        <ele>942</ele>
        <time>2016-05-07T11:15:34Z</time>
      </trkpt>
      <trkpt lat="44.25936" lon="5.4196">
        <ele>942</ele>
        <time>2016-05-07T11:15:35Z</time>
      </trkpt>
      <trkpt lat="44.25937" lon="5.41957">
        <ele>942.40002441406</ele>
        <time>2016-05-07T11:15:37Z</time>
      </trkpt>
      <trkpt lat="44.25938" lon="5.41951">
        <ele>943.20001220703</ele>
        <time>2016-05-07T11:15:41Z</time>
      </trkpt>
      <trkpt lat="44.25939" lon="5.41944">
        <ele>944.20001220703</ele>
        <time>2016-05-07T11:15:45Z</time>
      </trkpt>
      <trkpt lat="44.25939" lon="5.41938">
        <ele>945</ele>
        <time>2016-05-07T11:15:49Z</time>
      </trkpt>
      <trkpt lat="44.25938" lon="5.41929">
        <ele>945.79998779297</ele>
        <time>2016-05-07T11:15:56Z</time>
      </trkpt>
      <trkpt lat="44.25937" lon="5.41929">
        <ele>945.79998779297</ele>
        <time>2016-05-07T11:15:57Z</time>
      </trkpt>
      <trkpt lat="44.25936" lon="5.41925">
        <ele>946.59997558594</ele>
        <time>2016-05-07T11:16:00Z</time>
      </trkpt>
      <trkpt lat="44.25933" lon="5.41922">
        <ele>947.20001220703</ele>
        <time>2016-05-07T11:16:04Z</time>
      </trkpt>
      <trkpt lat="44.25929" lon="5.4192">
        <ele>947.20001220703</ele>
        <time>2016-05-07T11:16:07Z</time>
      </trkpt>
      <trkpt lat="44.25928" lon="5.41919">
        <ele>947.20001220703</ele>
        <time>2016-05-07T11:16:08Z</time>
      </trkpt>
      <trkpt lat="44.2592" lon="5.41915">
        <ele>947.59997558594</ele>
        <time>2016-05-07T11:16:14Z</time>
      </trkpt>
      <trkpt lat="44.25916" lon="5.41912">
        <ele>947.59997558594</ele>
        <time>2016-05-07T11:16:17Z</time>
      </trkpt>
      <trkpt lat="44.25914" lon="5.4191">
        <ele>948</ele>
        <time>2016-05-07T11:16:19Z</time>
      </trkpt>
      <trkpt lat="44.25911" lon="5.41908">
        <ele>948.59997558594</ele>
        <time>2016-05-07T11:16:22Z</time>
      </trkpt>
      <trkpt lat="44.25909" lon="5.41907">
        <ele>949</ele>
        <time>2016-05-07T11:16:23Z</time>
      </trkpt>
      <trkpt lat="44.25906" lon="5.41903">
        <ele>949.59997558594</ele>
        <time>2016-05-07T11:16:26Z</time>
      </trkpt>
      <trkpt lat="44.25902" lon="5.419">
        <ele>949.59997558594</ele>
        <time>2016-05-07T11:16:29Z</time>
      </trkpt>
      <trkpt lat="44.25901" lon="5.41899">
        <ele>950</ele>
        <time>2016-05-07T11:16:30Z</time>
      </trkpt>
      <trkpt lat="44.25898" lon="5.41895">
        <ele>950.40002441406</ele>
        <time>2016-05-07T11:16:33Z</time>
      </trkpt>
      <trkpt lat="44.25894" lon="5.41891">
        <ele>950.79998779297</ele>
        <time>2016-05-07T11:16:36Z</time>
      </trkpt>
      <trkpt lat="44.25893" lon="5.4189">
        <ele>951.20001220703</ele>
        <time>2016-05-07T11:16:37Z</time>
      </trkpt>
      <trkpt lat="44.25889" lon="5.41887">
        <ele>951.79998779297</ele>
        <time>2016-05-07T11:16:40Z</time>
      </trkpt>
      <trkpt lat="44.25886" lon="5.41885">
        <ele>951.79998779297</ele>
        <time>2016-05-07T11:16:42Z</time>
      </trkpt>
      <trkpt lat="44.2588" lon="5.41885">
        <ele>951.79998779297</ele>
        <time>2016-05-07T11:16:46Z</time>
      </trkpt>
      <trkpt lat="44.25878" lon="5.41885">
        <ele>952.20001220703</ele>
        <time>2016-05-07T11:16:47Z</time>
      </trkpt>
      <trkpt lat="44.25874" lon="5.41885">
        <ele>952.59997558594</ele>
        <time>2016-05-07T11:16:50Z</time>
      </trkpt>
      <trkpt lat="44.25872" lon="5.41885">
        <ele>953</ele>
        <time>2016-05-07T11:16:51Z</time>
      </trkpt>
      <trkpt lat="44.25867" lon="5.41887">
        <ele>953.40002441406</ele>
        <time>2016-05-07T11:16:54Z</time>
      </trkpt>
      <trkpt lat="44.25863" lon="5.41887">
        <ele>953.79998779297</ele>
        <time>2016-05-07T11:16:57Z</time>
      </trkpt>
      <trkpt lat="44.25862" lon="5.41887">
        <ele>953.79998779297</ele>
        <time>2016-05-07T11:16:58Z</time>
      </trkpt>
      <trkpt lat="44.25853" lon="5.41889">
        <ele>954.79998779297</ele>
        <time>2016-05-07T11:17:05Z</time>
      </trkpt>
      <trkpt lat="44.25849" lon="5.41889">
        <ele>955.20001220703</ele>
        <time>2016-05-07T11:17:08Z</time>
      </trkpt>
      <trkpt lat="44.25847" lon="5.41889">
        <ele>955.20001220703</ele>
        <time>2016-05-07T11:17:10Z</time>
      </trkpt>
      <trkpt lat="44.25844" lon="5.41889">
        <ele>956.20001220703</ele>
        <time>2016-05-07T11:17:12Z</time>
      </trkpt>
      <trkpt lat="44.25837" lon="5.41889">
        <ele>957</ele>
        <time>2016-05-07T11:17:19Z</time>
      </trkpt>
      <trkpt lat="44.25834" lon="5.41888">
        <ele>957.40002441406</ele>
        <time>2016-05-07T11:17:22Z</time>
      </trkpt>
      <trkpt lat="44.25833" lon="5.41888">
        <ele>957.79998779297</ele>
        <time>2016-05-07T11:17:23Z</time>
      </trkpt>
      <trkpt lat="44.2583" lon="5.41886">
        <ele>958.20001220703</ele>
        <time>2016-05-07T11:17:26Z</time>
      </trkpt>
      <trkpt lat="44.25826" lon="5.41886">
        <ele>958.20001220703</ele>
        <time>2016-05-07T11:17:31Z</time>
      </trkpt>
      <trkpt lat="44.25824" lon="5.41885">
        <ele>959.40002441406</ele>
        <time>2016-05-07T11:17:33Z</time>
      </trkpt>
      <trkpt lat="44.25821" lon="5.41886">
        <ele>960</ele>
        <time>2016-05-07T11:17:36Z</time>
      </trkpt>
      <trkpt lat="44.25819" lon="5.41886">
        <ele>960.59997558594</ele>
        <time>2016-05-07T11:17:37Z</time>
      </trkpt>
      <trkpt lat="44.25819" lon="5.41886">
        <ele>960.59997558594</ele>
        <time>2016-05-07T11:17:38Z</time>
      </trkpt>
      <trkpt lat="44.25817" lon="5.41887">
        <ele>961</ele>
        <time>2016-05-07T11:17:40Z</time>
      </trkpt>
      <trkpt lat="44.25811" lon="5.41892">
        <ele>961</ele>
        <time>2016-05-07T11:17:46Z</time>
      </trkpt>
      <trkpt lat="44.2581" lon="5.41893">
        <ele>962</ele>
        <time>2016-05-07T11:17:47Z</time>
      </trkpt>
      <trkpt lat="44.25808" lon="5.41895">
        <ele>962.40002441406</ele>
        <time>2016-05-07T11:17:50Z</time>
      </trkpt>
      <trkpt lat="44.25805" lon="5.41897">
        <ele>963.40002441406</ele>
        <time>2016-05-07T11:17:54Z</time>
      </trkpt>
      <trkpt lat="44.25804" lon="5.41897">
        <ele>963.40002441406</ele>
        <time>2016-05-07T11:17:55Z</time>
      </trkpt>
      <trkpt lat="44.25802" lon="5.41898">
        <ele>963.79998779297</ele>
        <time>2016-05-07T11:17:57Z</time>
      </trkpt>
      <trkpt lat="44.25801" lon="5.41897">
        <ele>963.79998779297</ele>
        <time>2016-05-07T11:17:58Z</time>
      </trkpt>
      <trkpt lat="44.25798" lon="5.41899">
        <ele>964.79998779297</ele>
        <time>2016-05-07T11:18:01Z</time>
      </trkpt>
      <trkpt lat="44.25795" lon="5.41901">
        <ele>965.20001220703</ele>
        <time>2016-05-07T11:18:04Z</time>
      </trkpt>
      <trkpt lat="44.25793" lon="5.41901">
        <ele>965.59997558594</ele>
        <time>2016-05-07T11:18:05Z</time>
      </trkpt>
      <trkpt lat="44.25792" lon="5.41904">
        <ele>966.20001220703</ele>
        <time>2016-05-07T11:18:08Z</time>
      </trkpt>
      <trkpt lat="44.25789" lon="5.41906">
        <ele>966.59997558594</ele>
        <time>2016-05-07T11:18:11Z</time>
      </trkpt>
      <trkpt lat="44.25786" lon="5.41908">
        <ele>967.40002441406</ele>
        <time>2016-05-07T11:18:15Z</time>
      </trkpt>
      <trkpt lat="44.25783" lon="5.41909">
        <ele>967.79998779297</ele>
        <time>2016-05-07T11:18:18Z</time>
      </trkpt>
      <trkpt lat="44.25779" lon="5.41912">
        <ele>968.20001220703</ele>
        <time>2016-05-07T11:18:22Z</time>
      </trkpt>
      <trkpt lat="44.25777" lon="5.41914">
        <ele>968.79998779297</ele>
        <time>2016-05-07T11:18:25Z</time>
      </trkpt>
      <trkpt lat="44.25776" lon="5.41915">
        <ele>969.20001220703</ele>
        <time>2016-05-07T11:18:26Z</time>
      </trkpt>
      <trkpt lat="44.25773" lon="5.41917">
        <ele>969.59997558594</ele>
        <time>2016-05-07T11:18:29Z</time>
      </trkpt>
      <trkpt lat="44.25769" lon="5.41919">
        <ele>970</ele>
        <time>2016-05-07T11:18:33Z</time>
      </trkpt>
      <trkpt lat="44.25768" lon="5.41919">
        <ele>970.40002441406</ele>
        <time>2016-05-07T11:18:34Z</time>
      </trkpt>
      <trkpt lat="44.25766" lon="5.41919">
        <ele>970.40002441406</ele>
        <time>2016-05-07T11:18:36Z</time>
      </trkpt>
      <trkpt lat="44.25765" lon="5.4192">
        <ele>970.79998779297</ele>
        <time>2016-05-07T11:18:37Z</time>
      </trkpt>
      <trkpt lat="44.25761" lon="5.4192">
        <ele>971.40002441406</ele>
        <time>2016-05-07T11:18:41Z</time>
      </trkpt>
      <trkpt lat="44.2576" lon="5.4192">
        <ele>971.79998779297</ele>
        <time>2016-05-07T11:18:42Z</time>
      </trkpt>
      <trkpt lat="44.25756" lon="5.41917">
        <ele>972.20001220703</ele>
        <time>2016-05-07T11:18:45Z</time>
      </trkpt>
      <trkpt lat="44.25752" lon="5.41915">
        <ele>972.20001220703</ele>
        <time>2016-05-07T11:18:48Z</time>
      </trkpt>
      <trkpt lat="44.25753" lon="5.41906">
        <ele>972.20001220703</ele>
        <time>2016-05-07T11:18:54Z</time>
      </trkpt>
      <trkpt lat="44.25753" lon="5.41906">
        <ele>972.59997558594</ele>
        <time>2016-05-07T11:18:56Z</time>
      </trkpt>
      <trkpt lat="44.25753" lon="5.41906">
        <ele>973</ele>
        <time>2016-05-07T11:18:59Z</time>
      </trkpt>
      <trkpt lat="44.25753" lon="5.41905">
        <ele>973.79998779297</ele>
        <time>2016-05-07T11:19:03Z</time>
      </trkpt>
      <trkpt lat="44.25753" lon="5.41905">
        <ele>973.79998779297</ele>
        <time>2016-05-07T11:19:04Z</time>
      </trkpt>
      <trkpt lat="44.25753" lon="5.41905">
        <ele>974.20001220703</ele>
        <time>2016-05-07T11:19:07Z</time>
      </trkpt>
      <trkpt lat="44.25759" lon="5.419">
        <ele>974.20001220703</ele>
        <time>2016-05-07T11:20:41Z</time>
      </trkpt>
      <trkpt lat="44.25761" lon="5.41898">
        <ele>974.20001220703</ele>
        <time>2016-05-07T11:20:43Z</time>
      </trkpt>
      <trkpt lat="44.25766" lon="5.41892">
        <ele>974.20001220703</ele>
        <time>2016-05-07T11:20:49Z</time>
      </trkpt>
      <trkpt lat="44.2577" lon="5.41885">
        <ele>975</ele>
        <time>2016-05-07T11:20:53Z</time>
      </trkpt>
      <trkpt lat="44.25772" lon="5.41879">
        <ele>975.40002441406</ele>
        <time>2016-05-07T11:20:56Z</time>
      </trkpt>
      <trkpt lat="44.25772" lon="5.41877">
        <ele>975.40002441406</ele>
        <time>2016-05-07T11:20:57Z</time>
      </trkpt>
      <trkpt lat="44.25773" lon="5.41871">
        <ele>976.20001220703</ele>
        <time>2016-05-07T11:21:00Z</time>
      </trkpt>
      <trkpt lat="44.25772" lon="5.41862">
        <ele>976.20001220703</ele>
        <time>2016-05-07T11:21:05Z</time>
      </trkpt>
      <trkpt lat="44.25775" lon="5.41843">
        <ele>976.20001220703</ele>
        <time>2016-05-07T11:21:13Z</time>
      </trkpt>
      <trkpt lat="44.25776" lon="5.41838">
        <ele>976.79998779297</ele>
        <time>2016-05-07T11:21:15Z</time>
      </trkpt>
      <trkpt lat="44.25779" lon="5.41828">
        <ele>977.20001220703</ele>
        <time>2016-05-07T11:21:19Z</time>
      </trkpt>
      <trkpt lat="44.25781" lon="5.41821">
        <ele>977.20001220703</ele>
        <time>2016-05-07T11:21:22Z</time>
      </trkpt>
      <trkpt lat="44.25781" lon="5.41819">
        <ele>977.59997558594</ele>
        <time>2016-05-07T11:21:23Z</time>
      </trkpt>
      <trkpt lat="44.25783" lon="5.41809">
        <ele>978</ele>
        <time>2016-05-07T11:21:27Z</time>
      </trkpt>
      <trkpt lat="44.25785" lon="5.41805">
        <ele>978</ele>
        <time>2016-05-07T11:21:29Z</time>
      </trkpt>
      <trkpt lat="44.25786" lon="5.41804">
        <ele>978.59997558594</ele>
        <time>2016-05-07T11:21:30Z</time>
      </trkpt>
      <trkpt lat="44.25788" lon="5.41795">
        <ele>979.40002441406</ele>
        <time>2016-05-07T11:21:34Z</time>
      </trkpt>
      <trkpt lat="44.25792" lon="5.41787">
        <ele>979.79998779297</ele>
        <time>2016-05-07T11:21:38Z</time>
      </trkpt>
      <trkpt lat="44.25795" lon="5.41781">
        <ele>980.59997558594</ele>
        <time>2016-05-07T11:21:41Z</time>
      </trkpt>
      <trkpt lat="44.25802" lon="5.41768">
        <ele>980.59997558594</ele>
        <time>2016-05-07T11:21:47Z</time>
      </trkpt>
      <trkpt lat="44.25803" lon="5.41766">
        <ele>981.40002441406</ele>
        <time>2016-05-07T11:21:48Z</time>
      </trkpt>
      <trkpt lat="44.25806" lon="5.4176">
        <ele>982</ele>
        <time>2016-05-07T11:21:51Z</time>
      </trkpt>
      <trkpt lat="44.25809" lon="5.41752">
        <ele>982.79998779297</ele>
        <time>2016-05-07T11:21:55Z</time>
      </trkpt>
      <trkpt lat="44.25811" lon="5.41748">
        <ele>982.79998779297</ele>
        <time>2016-05-07T11:21:57Z</time>
      </trkpt>
      <trkpt lat="44.25813" lon="5.41744">
        <ele>983.20001220703</ele>
        <time>2016-05-07T11:21:59Z</time>
      </trkpt>
      <trkpt lat="44.25816" lon="5.41739">
        <ele>983.59997558594</ele>
        <time>2016-05-07T11:22:02Z</time>
      </trkpt>
      <trkpt lat="44.25818" lon="5.41734">
        <ele>983.59997558594</ele>
        <time>2016-05-07T11:22:05Z</time>
      </trkpt>
      <trkpt lat="44.25819" lon="5.41732">
        <ele>984.40002441406</ele>
        <time>2016-05-07T11:22:06Z</time>
      </trkpt>
      <trkpt lat="44.25822" lon="5.41727">
        <ele>984.79998779297</ele>
        <time>2016-05-07T11:22:09Z</time>
      </trkpt>
      <trkpt lat="44.2583" lon="5.41714">
        <ele>985.20001220703</ele>
        <time>2016-05-07T11:22:16Z</time>
      </trkpt>
      <trkpt lat="44.25836" lon="5.41707">
        <ele>986.20001220703</ele>
        <time>2016-05-07T11:22:20Z</time>
      </trkpt>
      <trkpt lat="44.25837" lon="5.41705">
        <ele>986.20001220703</ele>
        <time>2016-05-07T11:22:21Z</time>
      </trkpt>
      <trkpt lat="44.2584" lon="5.41702">
        <ele>986.79998779297</ele>
        <time>2016-05-07T11:22:23Z</time>
      </trkpt>
      <trkpt lat="44.25842" lon="5.41698">
        <ele>986.79998779297</ele>
        <time>2016-05-07T11:22:25Z</time>
      </trkpt>
      <trkpt lat="44.25844" lon="5.41695">
        <ele>987.20001220703</ele>
        <time>2016-05-07T11:22:27Z</time>
      </trkpt>
      <trkpt lat="44.25851" lon="5.41687">
        <ele>988</ele>
        <time>2016-05-07T11:22:34Z</time>
      </trkpt>
      <trkpt lat="44.25852" lon="5.41686">
        <ele>988</ele>
        <time>2016-05-07T11:22:35Z</time>
      </trkpt>
      <trkpt lat="44.25854" lon="5.41684">
        <ele>988.40002441406</ele>
        <time>2016-05-07T11:22:37Z</time>
      </trkpt>
      <trkpt lat="44.25861" lon="5.41682">
        <ele>989.20001220703</ele>
        <time>2016-05-07T11:22:41Z</time>
      </trkpt>
      <trkpt lat="44.25864" lon="5.41681">
        <ele>989.20001220703</ele>
        <time>2016-05-07T11:22:43Z</time>
      </trkpt>
      <trkpt lat="44.25872" lon="5.41676">
        <ele>989.59997558594</ele>
        <time>2016-05-07T11:22:48Z</time>
      </trkpt>
      <trkpt lat="44.25877" lon="5.41674">
        <ele>990.59997558594</ele>
        <time>2016-05-07T11:22:52Z</time>
      </trkpt>
      <trkpt lat="44.2588" lon="5.41674">
        <ele>991</ele>
        <time>2016-05-07T11:22:55Z</time>
      </trkpt>
      <trkpt lat="44.25884" lon="5.41671">
        <ele>991.59997558594</ele>
        <time>2016-05-07T11:22:59Z</time>
      </trkpt>
      <trkpt lat="44.25887" lon="5.41667">
        <ele>992</ele>
        <time>2016-05-07T11:23:02Z</time>
      </trkpt>
      <trkpt lat="44.2589" lon="5.41659">
        <ele>992.40002441406</ele>
        <time>2016-05-07T11:23:06Z</time>
      </trkpt>
      <trkpt lat="44.25891" lon="5.41658">
        <ele>992.40002441406</ele>
        <time>2016-05-07T11:23:07Z</time>
      </trkpt>
      <trkpt lat="44.25892" lon="5.41654">
        <ele>992.79998779297</ele>
        <time>2016-05-07T11:23:10Z</time>
      </trkpt>
      <trkpt lat="44.25894" lon="5.41648">
        <ele>993.40002441406</ele>
        <time>2016-05-07T11:23:13Z</time>
      </trkpt>
      <trkpt lat="44.25895" lon="5.41646">
        <ele>993.40002441406</ele>
        <time>2016-05-07T11:23:15Z</time>
      </trkpt>
      <trkpt lat="44.25896" lon="5.41642">
        <ele>993.79998779297</ele>
        <time>2016-05-07T11:23:17Z</time>
      </trkpt>
      <trkpt lat="44.25897" lon="5.41636">
        <ele>994.20001220703</ele>
        <time>2016-05-07T11:23:20Z</time>
      </trkpt>
      <trkpt lat="44.25897" lon="5.41629">
        <ele>995</ele>
        <time>2016-05-07T11:23:24Z</time>
      </trkpt>
      <trkpt lat="44.25897" lon="5.41627">
        <ele>995</ele>
        <time>2016-05-07T11:23:25Z</time>
      </trkpt>
      <trkpt lat="44.25897" lon="5.41624">
        <ele>995.59997558594</ele>
        <time>2016-05-07T11:23:27Z</time>
      </trkpt>
      <trkpt lat="44.25897" lon="5.41614">
        <ele>995.59997558594</ele>
        <time>2016-05-07T11:23:33Z</time>
      </trkpt>
      <trkpt lat="44.25897" lon="5.41612">
        <ele>996</ele>
        <time>2016-05-07T11:23:34Z</time>
      </trkpt>
      <trkpt lat="44.25898" lon="5.41603">
        <ele>996.79998779297</ele>
        <time>2016-05-07T11:23:38Z</time>
      </trkpt>
      <trkpt lat="44.25899" lon="5.41597">
        <ele>997.20001220703</ele>
        <time>2016-05-07T11:23:41Z</time>
      </trkpt>
      <trkpt lat="44.259" lon="5.41595">
        <ele>997.20001220703</ele>
        <time>2016-05-07T11:23:42Z</time>
      </trkpt>
      <trkpt lat="44.25901" lon="5.4159">
        <ele>997.59997558594</ele>
        <time>2016-05-07T11:23:45Z</time>
      </trkpt>
      <trkpt lat="44.25904" lon="5.41583">
        <ele>998.20001220703</ele>
        <time>2016-05-07T11:23:49Z</time>
      </trkpt>
      <trkpt lat="44.25907" lon="5.41578">
        <ele>998.20001220703</ele>
        <time>2016-05-07T11:23:52Z</time>
      </trkpt>
      <trkpt lat="44.25908" lon="5.41577">
        <ele>999.20001220703</ele>
        <time>2016-05-07T11:23:53Z</time>
      </trkpt>
      <trkpt lat="44.25912" lon="5.41572">
        <ele>999.59997558594</ele>
        <time>2016-05-07T11:23:56Z</time>
      </trkpt>
      <trkpt lat="44.25913" lon="5.41565">
        <ele>1000.200012207</ele>
        <time>2016-05-07T11:24:00Z</time>
      </trkpt>
      <trkpt lat="44.25912" lon="5.41563">
        <ele>1000.200012207</ele>
        <time>2016-05-07T11:24:01Z</time>
      </trkpt>
      <trkpt lat="44.25909" lon="5.41559">
        <ele>1000.5999755859</ele>
        <time>2016-05-07T11:24:04Z</time>
      </trkpt>
      <trkpt lat="44.25907" lon="5.4156">
        <ele>1000.5999755859</ele>
        <time>2016-05-07T11:24:05Z</time>
      </trkpt>
      <trkpt lat="44.25906" lon="5.4156">
        <ele>1000.5999755859</ele>
        <time>2016-05-07T11:24:06Z</time>
      </trkpt>
      <trkpt lat="44.25903" lon="5.41562">
        <ele>1001</ele>
        <time>2016-05-07T11:24:08Z</time>
      </trkpt>
      <trkpt lat="44.25901" lon="5.41566">
        <ele>1002</ele>
        <time>2016-05-07T11:24:11Z</time>
      </trkpt>
      <trkpt lat="44.25898" lon="5.41572">
        <ele>1002.4000244141</ele>
        <time>2016-05-07T11:24:14Z</time>
      </trkpt>
      <trkpt lat="44.25896" lon="5.41573">
        <ele>1002.4000244141</ele>
        <time>2016-05-07T11:24:15Z</time>
      </trkpt>
      <trkpt lat="44.25889" lon="5.41589">
        <ele>1002.799987793</ele>
        <time>2016-05-07T11:24:25Z</time>
      </trkpt>
      <trkpt lat="44.25887" lon="5.41594">
        <ele>1003.200012207</ele>
        <time>2016-05-07T11:24:29Z</time>
      </trkpt>
      <trkpt lat="44.25885" lon="5.41598">
        <ele>1004.200012207</ele>
        <time>2016-05-07T11:24:32Z</time>
      </trkpt>
      <trkpt lat="44.25881" lon="5.41602">
        <ele>1004.5999755859</ele>
        <time>2016-05-07T11:24:36Z</time>
      </trkpt>
      <trkpt lat="44.25878" lon="5.41604">
        <ele>1005.799987793</ele>
        <time>2016-05-07T11:24:39Z</time>
      </trkpt>
      <trkpt lat="44.25873" lon="5.41606">
        <ele>1006.200012207</ele>
        <time>2016-05-07T11:24:43Z</time>
      </trkpt>
      <trkpt lat="44.25872" lon="5.41606">
        <ele>1006.200012207</ele>
        <time>2016-05-07T11:24:44Z</time>
      </trkpt>
      <trkpt lat="44.25871" lon="5.41606">
        <ele>1006.200012207</ele>
        <time>2016-05-07T11:24:45Z</time>
      </trkpt>
      <trkpt lat="44.25869" lon="5.41606">
        <ele>1006.799987793</ele>
        <time>2016-05-07T11:24:46Z</time>
      </trkpt>
      <trkpt lat="44.25859" lon="5.41606">
        <ele>1007.200012207</ele>
        <time>2016-05-07T11:24:53Z</time>
      </trkpt>
      <trkpt lat="44.25854" lon="5.41607">
        <ele>1008</ele>
        <time>2016-05-07T11:24:57Z</time>
      </trkpt>
      <trkpt lat="44.25851" lon="5.41607">
        <ele>1008.5999755859</ele>
        <time>2016-05-07T11:25:00Z</time>
      </trkpt>
      <trkpt lat="44.25849" lon="5.41607">
        <ele>1008.5999755859</ele>
        <time>2016-05-07T11:25:02Z</time>
      </trkpt>
      <trkpt lat="44.25846" lon="5.41607">
        <ele>1009</ele>
        <time>2016-05-07T11:25:04Z</time>
      </trkpt>
      <trkpt lat="44.25841" lon="5.41608">
        <ele>1009</ele>
        <time>2016-05-07T11:25:10Z</time>
      </trkpt>
      <trkpt lat="44.2584" lon="5.41609">
        <ele>1010</ele>
        <time>2016-05-07T11:25:11Z</time>
      </trkpt>
      <trkpt lat="44.25837" lon="5.4161">
        <ele>1010.4000244141</ele>
        <time>2016-05-07T11:25:14Z</time>
      </trkpt>
      <trkpt lat="44.25833" lon="5.41613">
        <ele>1011.4000244141</ele>
        <time>2016-05-07T11:25:18Z</time>
      </trkpt>
      <trkpt lat="44.25829" lon="5.41614">
        <ele>1011.4000244141</ele>
        <time>2016-05-07T11:25:21Z</time>
      </trkpt>
      <trkpt lat="44.25824" lon="5.41606">
        <ele>1012.4000244141</ele>
        <time>2016-05-07T11:25:29Z</time>
      </trkpt>
      <trkpt lat="44.25827" lon="5.41601">
        <ele>1013</ele>
        <time>2016-05-07T11:25:32Z</time>
      </trkpt>
      <trkpt lat="44.25828" lon="5.416">
        <ele>1013</ele>
        <time>2016-05-07T11:25:33Z</time>
      </trkpt>
      <trkpt lat="44.2583" lon="5.41599">
        <ele>1013</ele>
        <time>2016-05-07T11:25:34Z</time>
      </trkpt>
      <trkpt lat="44.25832" lon="5.41597">
        <ele>1014.200012207</ele>
        <time>2016-05-07T11:25:36Z</time>
      </trkpt>
      <trkpt lat="44.2584" lon="5.41594">
        <ele>1015</ele>
        <time>2016-05-07T11:25:43Z</time>
      </trkpt>
      <trkpt lat="44.25841" lon="5.41593">
        <ele>1015</ele>
        <time>2016-05-07T11:25:44Z</time>
      </trkpt>
      <trkpt lat="44.25843" lon="5.41591">
        <ele>1015.4000244141</ele>
        <time>2016-05-07T11:25:46Z</time>
      </trkpt>
      <trkpt lat="44.25848" lon="5.41587">
        <ele>1015.799987793</ele>
        <time>2016-05-07T11:25:50Z</time>
      </trkpt>
      <trkpt lat="44.2585" lon="5.41585">
        <ele>1015.799987793</ele>
        <time>2016-05-07T11:25:52Z</time>
      </trkpt>
      <trkpt lat="44.2585" lon="5.41584">
        <ele>1016.200012207</ele>
        <time>2016-05-07T11:25:53Z</time>
      </trkpt>
      <trkpt lat="44.25857" lon="5.41572">
        <ele>1017.200012207</ele>
        <time>2016-05-07T11:26:04Z</time>
      </trkpt>
      <trkpt lat="44.25859" lon="5.41568">
        <ele>1017.799987793</ele>
        <time>2016-05-07T11:26:07Z</time>
      </trkpt>
      <trkpt lat="44.25862" lon="5.41561">
        <ele>1018.200012207</ele>
        <time>2016-05-07T11:26:11Z</time>
      </trkpt>
      <trkpt lat="44.25865" lon="5.41555">
        <ele>1018.799987793</ele>
        <time>2016-05-07T11:26:15Z</time>
      </trkpt>
      <trkpt lat="44.25867" lon="5.41548">
        <ele>1019.200012207</ele>
        <time>2016-05-07T11:26:19Z</time>
      </trkpt>
      <trkpt lat="44.2587" lon="5.4154">
        <ele>1019.5999755859</ele>
        <time>2016-05-07T11:26:23Z</time>
      </trkpt>
      <trkpt lat="44.25871" lon="5.41536">
        <ele>1019.5999755859</ele>
        <time>2016-05-07T11:26:26Z</time>
      </trkpt>
      <trkpt lat="44.25873" lon="5.41533">
        <ele>1020.5999755859</ele>
        <time>2016-05-07T11:26:30Z</time>
      </trkpt>
      <trkpt lat="44.25874" lon="5.41529">
        <ele>1021</ele>
        <time>2016-05-07T11:26:33Z</time>
      </trkpt>
      <trkpt lat="44.25874" lon="5.41525">
        <ele>1021</ele>
        <time>2016-05-07T11:26:36Z</time>
      </trkpt>
      <trkpt lat="44.25874" lon="5.41524">
        <ele>1021.4000244141</ele>
        <time>2016-05-07T11:26:37Z</time>
      </trkpt>
      <trkpt lat="44.25875" lon="5.41519">
        <ele>1022</ele>
        <time>2016-05-07T11:26:41Z</time>
      </trkpt>
      <trkpt lat="44.25877" lon="5.41515">
        <ele>1022.799987793</ele>
        <time>2016-05-07T11:26:45Z</time>
      </trkpt>
      <trkpt lat="44.25878" lon="5.4151">
        <ele>1023.200012207</ele>
        <time>2016-05-07T11:26:49Z</time>
      </trkpt>
      <trkpt lat="44.25878" lon="5.41506">
        <ele>1023.200012207</ele>
        <time>2016-05-07T11:26:51Z</time>
      </trkpt>
      <trkpt lat="44.25878" lon="5.41495">
        <ele>1023.799987793</ele>
        <time>2016-05-07T11:26:56Z</time>
      </trkpt>
      <trkpt lat="44.25879" lon="5.41489">
        <ele>1024.5999755859</ele>
        <time>2016-05-07T11:26:59Z</time>
      </trkpt>
      <trkpt lat="44.25879" lon="5.41488">
        <ele>1024.5999755859</ele>
        <time>2016-05-07T11:27:00Z</time>
      </trkpt>
      <trkpt lat="44.25879" lon="5.41484">
        <ele>1025</ele>
        <time>2016-05-07T11:27:03Z</time>
      </trkpt>
      <trkpt lat="44.25879" lon="5.41479">
        <ele>1025.5999755859</ele>
        <time>2016-05-07T11:27:06Z</time>
      </trkpt>
      <trkpt lat="44.25879" lon="5.41478">
        <ele>1025.5999755859</ele>
        <time>2016-05-07T11:27:07Z</time>
      </trkpt>
      <trkpt lat="44.2588" lon="5.41473">
        <ele>1026.1999511719</ele>
        <time>2016-05-07T11:27:10Z</time>
      </trkpt>
      <trkpt lat="44.25881" lon="5.41469">
        <ele>1027.4000244141</ele>
        <time>2016-05-07T11:27:13Z</time>
      </trkpt>
      <trkpt lat="44.25882" lon="5.41466">
        <ele>1027.4000244141</ele>
        <time>2016-05-07T11:27:15Z</time>
      </trkpt>
      <trkpt lat="44.25883" lon="5.41463">
        <ele>1028</ele>
        <time>2016-05-07T11:27:17Z</time>
      </trkpt>
      <trkpt lat="44.25885" lon="5.41455">
        <ele>1028</ele>
        <time>2016-05-07T11:27:22Z</time>
      </trkpt>
      <trkpt lat="44.25885" lon="5.41452">
        <ele>1028.5999755859</ele>
        <time>2016-05-07T11:27:24Z</time>
      </trkpt>
      <trkpt lat="44.25883" lon="5.41445">
        <ele>1029</ele>
        <time>2016-05-07T11:27:27Z</time>
      </trkpt>
      <trkpt lat="44.25882" lon="5.41438">
        <ele>1029.4000244141</ele>
        <time>2016-05-07T11:27:31Z</time>
      </trkpt>
      <trkpt lat="44.25881" lon="5.41437">
        <ele>1029.4000244141</ele>
        <time>2016-05-07T11:27:32Z</time>
      </trkpt>
      <trkpt lat="44.2588" lon="5.41435">
        <ele>1029.4000244141</ele>
        <time>2016-05-07T11:27:33Z</time>
      </trkpt>
      <trkpt lat="44.2588" lon="5.41434">
        <ele>1030</ele>
        <time>2016-05-07T11:27:34Z</time>
      </trkpt>
      <trkpt lat="44.25876" lon="5.41433">
        <ele>1030</ele>
        <time>2016-05-07T11:27:37Z</time>
      </trkpt>
      <trkpt lat="44.25875" lon="5.41434">
        <ele>1030.4000244141</ele>
        <time>2016-05-07T11:27:38Z</time>
      </trkpt>
      <trkpt lat="44.25872" lon="5.41437">
        <ele>1030.8000488281</ele>
        <time>2016-05-07T11:27:41Z</time>
      </trkpt>
      <trkpt lat="44.25871" lon="5.41439">
        <ele>1030.8000488281</ele>
        <time>2016-05-07T11:27:42Z</time>
      </trkpt>
      <trkpt lat="44.25869" lon="5.41441">
        <ele>1030.8000488281</ele>
        <time>2016-05-07T11:27:44Z</time>
      </trkpt>
      <trkpt lat="44.25868" lon="5.41442">
        <ele>1031.1999511719</ele>
        <time>2016-05-07T11:27:45Z</time>
      </trkpt>
      <trkpt lat="44.25866" lon="5.41446">
        <ele>1031.8000488281</ele>
        <time>2016-05-07T11:27:48Z</time>
      </trkpt>
      <trkpt lat="44.25864" lon="5.41451">
        <ele>1032.1999511719</ele>
        <time>2016-05-07T11:27:52Z</time>
      </trkpt>
      <trkpt lat="44.25865" lon="5.41452">
        <ele>1032.1999511719</ele>
        <time>2016-05-07T11:27:53Z</time>
      </trkpt>
      <trkpt lat="44.25866" lon="5.41453">
        <ele>1032.5999755859</ele>
        <time>2016-05-07T11:27:55Z</time>
      </trkpt>
      <trkpt lat="44.25864" lon="5.41455">
        <ele>1033.5999755859</ele>
        <time>2016-05-07T11:27:59Z</time>
      </trkpt>
      <trkpt lat="44.25861" lon="5.41457">
        <ele>1033.5999755859</ele>
        <time>2016-05-07T11:28:01Z</time>
      </trkpt>
      <trkpt lat="44.25858" lon="5.41459">
        <ele>1034</ele>
        <time>2016-05-07T11:28:03Z</time>
      </trkpt>
      <trkpt lat="44.25855" lon="5.41462">
        <ele>1034.8000488281</ele>
        <time>2016-05-07T11:28:06Z</time>
      </trkpt>
      <trkpt lat="44.25853" lon="5.41464">
        <ele>1034.8000488281</ele>
        <time>2016-05-07T11:28:08Z</time>
      </trkpt>
      <trkpt lat="44.25845" lon="5.41473">
        <ele>1035.4000244141</ele>
        <time>2016-05-07T11:28:16Z</time>
      </trkpt>
      <trkpt lat="44.2584" lon="5.41477">
        <ele>1035.8000488281</ele>
        <time>2016-05-07T11:28:20Z</time>
      </trkpt>
      <trkpt lat="44.25838" lon="5.4148">
        <ele>1036.1999511719</ele>
        <time>2016-05-07T11:28:23Z</time>
      </trkpt>
      <trkpt lat="44.25834" lon="5.41483">
        <ele>1037.1999511719</ele>
        <time>2016-05-07T11:28:27Z</time>
      </trkpt>
      <trkpt lat="44.25832" lon="5.41485">
        <ele>1037.1999511719</ele>
        <time>2016-05-07T11:28:29Z</time>
      </trkpt>
      <trkpt lat="44.25828" lon="5.41491">
        <ele>1037.5999755859</ele>
        <time>2016-05-07T11:28:34Z</time>
      </trkpt>
      <trkpt lat="44.25825" lon="5.41495">
        <ele>1038.1999511719</ele>
        <time>2016-05-07T11:28:38Z</time>
      </trkpt>
      <trkpt lat="44.25822" lon="5.41499">
        <ele>1039</ele>
        <time>2016-05-07T11:28:41Z</time>
      </trkpt>
      <trkpt lat="44.25817" lon="5.41506">
        <ele>1039.5999755859</ele>
        <time>2016-05-07T11:28:45Z</time>
      </trkpt>
      <trkpt lat="44.25816" lon="5.41508">
        <ele>1039.5999755859</ele>
        <time>2016-05-07T11:28:46Z</time>
      </trkpt>
      <trkpt lat="44.2581" lon="5.41515">
        <ele>1039.5999755859</ele>
        <time>2016-05-07T11:28:51Z</time>
      </trkpt>
      <trkpt lat="44.25809" lon="5.41516">
        <ele>1040</ele>
        <time>2016-05-07T11:28:52Z</time>
      </trkpt>
      <trkpt lat="44.25806" lon="5.4152">
        <ele>1040.4000244141</ele>
        <time>2016-05-07T11:28:55Z</time>
      </trkpt>
      <trkpt lat="44.25801" lon="5.41526">
        <ele>1041</ele>
        <time>2016-05-07T11:28:59Z</time>
      </trkpt>
      <trkpt lat="44.25797" lon="5.41529">
        <ele>1041.4000244141</ele>
        <time>2016-05-07T11:29:02Z</time>
      </trkpt>
      <trkpt lat="44.25794" lon="5.41533">
        <ele>1042</ele>
        <time>2016-05-07T11:29:06Z</time>
      </trkpt>
      <trkpt lat="44.25791" lon="5.41537">
        <ele>1042.5999755859</ele>
        <time>2016-05-07T11:29:10Z</time>
      </trkpt>
      <trkpt lat="44.25788" lon="5.41541">
        <ele>1043.8000488281</ele>
        <time>2016-05-07T11:29:14Z</time>
      </trkpt>
      <trkpt lat="44.25786" lon="5.41544">
        <ele>1044.4000244141</ele>
        <time>2016-05-07T11:29:17Z</time>
      </trkpt>
      <trkpt lat="44.25782" lon="5.4155">
        <ele>1045.1999511719</ele>
        <time>2016-05-07T11:29:22Z</time>
      </trkpt>
      <trkpt lat="44.2578" lon="5.41552">
        <ele>1045.1999511719</ele>
        <time>2016-05-07T11:29:25Z</time>
      </trkpt>
      <trkpt lat="44.25779" lon="5.41553">
        <ele>1045.8000488281</ele>
        <time>2016-05-07T11:29:26Z</time>
      </trkpt>
      <trkpt lat="44.25777" lon="5.41557">
        <ele>1046.1999511719</ele>
        <time>2016-05-07T11:29:29Z</time>
      </trkpt>
      <trkpt lat="44.25773" lon="5.41564">
        <ele>1046.5999755859</ele>
        <time>2016-05-07T11:29:33Z</time>
      </trkpt>
      <trkpt lat="44.25771" lon="5.41566">
        <ele>1046.5999755859</ele>
        <time>2016-05-07T11:29:35Z</time>
      </trkpt>
      <trkpt lat="44.25769" lon="5.41566">
        <ele>1047</ele>
        <time>2016-05-07T11:29:37Z</time>
      </trkpt>
      <trkpt lat="44.25768" lon="5.41567">
        <ele>1047.8000488281</ele>
        <time>2016-05-07T11:29:40Z</time>
      </trkpt>
      <trkpt lat="44.25763" lon="5.41571">
        <ele>1048.1999511719</ele>
        <time>2016-05-07T11:29:44Z</time>
      </trkpt>
      <trkpt lat="44.25762" lon="5.41572">
        <ele>1048.1999511719</ele>
        <time>2016-05-07T11:29:45Z</time>
      </trkpt>
      <trkpt lat="44.25756" lon="5.41576">
        <ele>1048.8000488281</ele>
        <time>2016-05-07T11:29:51Z</time>
      </trkpt>
      <trkpt lat="44.25755" lon="5.41576">
        <ele>1049.1999511719</ele>
        <time>2016-05-07T11:29:52Z</time>
      </trkpt>
      <trkpt lat="44.25753" lon="5.41577">
        <ele>1049.8000488281</ele>
        <time>2016-05-07T11:29:55Z</time>
      </trkpt>
      <trkpt lat="44.25749" lon="5.41578">
        <ele>1050.8000488281</ele>
        <time>2016-05-07T11:29:59Z</time>
      </trkpt>
      <trkpt lat="44.25748" lon="5.41579">
        <ele>1050.8000488281</ele>
        <time>2016-05-07T11:30:00Z</time>
      </trkpt>
      <trkpt lat="44.25746" lon="5.41579">
        <ele>1051.4000244141</ele>
        <time>2016-05-07T11:30:02Z</time>
      </trkpt>
      <trkpt lat="44.25742" lon="5.4158">
        <ele>1051.8000488281</ele>
        <time>2016-05-07T11:30:06Z</time>
      </trkpt>
      <trkpt lat="44.25737" lon="5.4158">
        <ele>1052.1999511719</ele>
        <time>2016-05-07T11:30:10Z</time>
      </trkpt>
      <trkpt lat="44.25735" lon="5.41582">
        <ele>1052.1999511719</ele>
        <time>2016-05-07T11:30:12Z</time>
      </trkpt>
      <trkpt lat="44.25734" lon="5.41582">
        <ele>1053.1999511719</ele>
        <time>2016-05-07T11:30:13Z</time>
      </trkpt>
      <trkpt lat="44.25732" lon="5.41585">
        <ele>1053.5999755859</ele>
        <time>2016-05-07T11:30:16Z</time>
      </trkpt>
      <trkpt lat="44.25724" lon="5.41588">
        <ele>1054</ele>
        <time>2016-05-07T11:30:24Z</time>
      </trkpt>
      <trkpt lat="44.25724" lon="5.41589">
        <ele>1054</ele>
        <time>2016-05-07T11:30:25Z</time>
      </trkpt>
      <trkpt lat="44.25722" lon="5.41591">
        <ele>1055</ele>
        <time>2016-05-07T11:30:27Z</time>
      </trkpt>
      <trkpt lat="44.25716" lon="5.41592">
        <ele>1055.5999755859</ele>
        <time>2016-05-07T11:30:31Z</time>
      </trkpt>
      <trkpt lat="44.25713" lon="5.41595">
        <ele>1056</ele>
        <time>2016-05-07T11:30:34Z</time>
      </trkpt>
      <trkpt lat="44.2571" lon="5.416">
        <ele>1056</ele>
        <time>2016-05-07T11:30:40Z</time>
      </trkpt>
      <trkpt lat="44.25709" lon="5.41601">
        <ele>1056.8000488281</ele>
        <time>2016-05-07T11:30:41Z</time>
      </trkpt>
      <trkpt lat="44.25706" lon="5.41604">
        <ele>1057.1999511719</ele>
        <time>2016-05-07T11:30:45Z</time>
      </trkpt>
      <trkpt lat="44.25704" lon="5.41606">
        <ele>1058.1999511719</ele>
        <time>2016-05-07T11:30:48Z</time>
      </trkpt>
      <trkpt lat="44.25702" lon="5.41612">
        <ele>1058.5999755859</ele>
        <time>2016-05-07T11:30:55Z</time>
      </trkpt>
      <trkpt lat="44.25697" lon="5.41615">
        <ele>1059.1999511719</ele>
        <time>2016-05-07T11:30:59Z</time>
      </trkpt>
      <trkpt lat="44.25696" lon="5.41616">
        <ele>1059.1999511719</ele>
        <time>2016-05-07T11:31:00Z</time>
      </trkpt>
      <trkpt lat="44.25694" lon="5.41616">
        <ele>1059.5999755859</ele>
        <time>2016-05-07T11:31:02Z</time>
      </trkpt>
      <trkpt lat="44.25689" lon="5.41619">
        <ele>1060.5999755859</ele>
        <time>2016-05-07T11:31:06Z</time>
      </trkpt>
      <trkpt lat="44.25678" lon="5.41627">
        <ele>1060.5999755859</ele>
        <time>2016-05-07T11:31:15Z</time>
      </trkpt>
      <trkpt lat="44.25672" lon="5.4163">
        <ele>1061.5999755859</ele>
        <time>2016-05-07T11:31:20Z</time>
      </trkpt>
      <trkpt lat="44.25669" lon="5.41631">
        <ele>1062.1999511719</ele>
        <time>2016-05-07T11:31:23Z</time>
      </trkpt>
      <trkpt lat="44.25665" lon="5.41632">
        <ele>1063.1999511719</ele>
        <time>2016-05-07T11:31:27Z</time>
      </trkpt>
      <trkpt lat="44.25662" lon="5.41631">
        <ele>1063.8000488281</ele>
        <time>2016-05-07T11:31:30Z</time>
      </trkpt>
      <trkpt lat="44.2566" lon="5.4163">
        <ele>1063.8000488281</ele>
        <time>2016-05-07T11:31:32Z</time>
      </trkpt>
      <trkpt lat="44.25656" lon="5.41631">
        <ele>1064.8000488281</ele>
        <time>2016-05-07T11:31:34Z</time>
      </trkpt>
      <trkpt lat="44.2565" lon="5.4163">
        <ele>1065.4000244141</ele>
        <time>2016-05-07T11:31:38Z</time>
      </trkpt>
      <trkpt lat="44.25647" lon="5.41629">
        <ele>1065.4000244141</ele>
        <time>2016-05-07T11:31:41Z</time>
      </trkpt>
      <trkpt lat="44.2564" lon="5.41626">
        <ele>1065.8000488281</ele>
        <time>2016-05-07T11:31:48Z</time>
      </trkpt>
      <trkpt lat="44.25637" lon="5.41627">
        <ele>1065.8000488281</ele>
        <time>2016-05-07T11:31:50Z</time>
      </trkpt>
      <trkpt lat="44.25634" lon="5.41628">
        <ele>1066.1999511719</ele>
        <time>2016-05-07T11:31:52Z</time>
      </trkpt>
      <trkpt lat="44.25631" lon="5.41629">
        <ele>1066.5999755859</ele>
        <time>2016-05-07T11:31:55Z</time>
      </trkpt>
      <trkpt lat="44.25624" lon="5.41632">
        <ele>1067.1999511719</ele>
        <time>2016-05-07T11:32:00Z</time>
      </trkpt>
      <trkpt lat="44.2562" lon="5.41632">
        <ele>1067.5999755859</ele>
        <time>2016-05-07T11:32:03Z</time>
      </trkpt>
      <trkpt lat="44.25618" lon="5.41633">
        <ele>1067.5999755859</ele>
        <time>2016-05-07T11:32:04Z</time>
      </trkpt>
      <trkpt lat="44.2561" lon="5.41635">
        <ele>1067.5999755859</ele>
        <time>2016-05-07T11:32:09Z</time>
      </trkpt>
      <trkpt lat="44.25604" lon="5.41633">
        <ele>1068.8000488281</ele>
        <time>2016-05-07T11:32:14Z</time>
      </trkpt>
      <trkpt lat="44.25603" lon="5.41632">
        <ele>1069.4000244141</ele>
        <time>2016-05-07T11:32:15Z</time>
      </trkpt>
      <trkpt lat="44.25599" lon="5.41629">
        <ele>1070.4000244141</ele>
        <time>2016-05-07T11:32:19Z</time>
      </trkpt>
      <trkpt lat="44.25595" lon="5.41629">
        <ele>1071.4000244141</ele>
        <time>2016-05-07T11:32:23Z</time>
      </trkpt>
      <trkpt lat="44.25591" lon="5.41627">
        <ele>1071.8000488281</ele>
        <time>2016-05-07T11:32:26Z</time>
      </trkpt>
      <trkpt lat="44.25591" lon="5.41627">
        <ele>1071.8000488281</ele>
        <time>2016-05-07T11:32:27Z</time>
      </trkpt>
      <trkpt lat="44.25588" lon="5.41628">
        <ele>1072.5999755859</ele>
        <time>2016-05-07T11:32:30Z</time>
      </trkpt>
      <trkpt lat="44.25578" lon="5.4163">
        <ele>1072.5999755859</ele>
        <time>2016-05-07T11:32:39Z</time>
      </trkpt>
      <trkpt lat="44.25577" lon="5.41631">
        <ele>1073</ele>
        <time>2016-05-07T11:32:40Z</time>
      </trkpt>
      <trkpt lat="44.25573" lon="5.41635">
        <ele>1073.8000488281</ele>
        <time>2016-05-07T11:32:44Z</time>
      </trkpt>
      <trkpt lat="44.25568" lon="5.41638">
        <ele>1074.1999511719</ele>
        <time>2016-05-07T11:32:48Z</time>
      </trkpt>
      <trkpt lat="44.25564" lon="5.41638">
        <ele>1075.1999511719</ele>
        <time>2016-05-07T11:32:51Z</time>
      </trkpt>
      <trkpt lat="44.2556" lon="5.41637">
        <ele>1075.1999511719</ele>
        <time>2016-05-07T11:32:54Z</time>
      </trkpt>
      <trkpt lat="44.2556" lon="5.41636">
        <ele>1075.5999755859</ele>
        <time>2016-05-07T11:32:55Z</time>
      </trkpt>
      <trkpt lat="44.25557" lon="5.41633">
        <ele>1076.4000244141</ele>
        <time>2016-05-07T11:32:58Z</time>
      </trkpt>
      <trkpt lat="44.25553" lon="5.4163">
        <ele>1076.8000488281</ele>
        <time>2016-05-07T11:33:02Z</time>
      </trkpt>
      <trkpt lat="44.25552" lon="5.41629">
        <ele>1076.8000488281</ele>
        <time>2016-05-07T11:33:03Z</time>
      </trkpt>
      <trkpt lat="44.25549" lon="5.41623">
        <ele>1076.8000488281</ele>
        <time>2016-05-07T11:33:08Z</time>
      </trkpt>
      <trkpt lat="44.25549" lon="5.41619">
        <ele>1076.8000488281</ele>
        <time>2016-05-07T11:33:11Z</time>
      </trkpt>
      <trkpt lat="44.25548" lon="5.41618">
        <ele>1077.8000488281</ele>
        <time>2016-05-07T11:33:12Z</time>
      </trkpt>
      <trkpt lat="44.25548" lon="5.4161">
        <ele>1078.1999511719</ele>
        <time>2016-05-07T11:33:16Z</time>
      </trkpt>
      <trkpt lat="44.25548" lon="5.41604">
        <ele>1079.1999511719</ele>
        <time>2016-05-07T11:33:19Z</time>
      </trkpt>
      <trkpt lat="44.25548" lon="5.41601">
        <ele>1079.1999511719</ele>
        <time>2016-05-07T11:33:21Z</time>
      </trkpt>
      <trkpt lat="44.25547" lon="5.41599">
        <ele>1079.5999755859</ele>
        <time>2016-05-07T11:33:23Z</time>
      </trkpt>
      <trkpt lat="44.25547" lon="5.41594">
        <ele>1080.5999755859</ele>
        <time>2016-05-07T11:33:26Z</time>
      </trkpt>
      <trkpt lat="44.25545" lon="5.41588">
        <ele>1081.1999511719</ele>
        <time>2016-05-07T11:33:30Z</time>
      </trkpt>
      <trkpt lat="44.25543" lon="5.41583">
        <ele>1082.1999511719</ele>
        <time>2016-05-07T11:33:33Z</time>
      </trkpt>
      <trkpt lat="44.25542" lon="5.41576">
        <ele>1082.8000488281</ele>
        <time>2016-05-07T11:33:37Z</time>
      </trkpt>
      <trkpt lat="44.25541" lon="5.41569">
        <ele>1083.8000488281</ele>
        <time>2016-05-07T11:33:40Z</time>
      </trkpt>
      <trkpt lat="44.25541" lon="5.4156">
        <ele>1084.4000244141</ele>
        <time>2016-05-07T11:33:44Z</time>
      </trkpt>
      <trkpt lat="44.25539" lon="5.41555">
        <ele>1085.4000244141</ele>
        <time>2016-05-07T11:33:47Z</time>
      </trkpt>
      <trkpt lat="44.25539" lon="5.41554">
        <ele>1085.4000244141</ele>
        <time>2016-05-07T11:33:48Z</time>
      </trkpt>
      <trkpt lat="44.25536" lon="5.4155">
        <ele>1086</ele>
        <time>2016-05-07T11:33:51Z</time>
      </trkpt>
      <trkpt lat="44.25531" lon="5.4154">
        <ele>1086.4000244141</ele>
        <time>2016-05-07T11:33:58Z</time>
      </trkpt>
      <trkpt lat="44.25531" lon="5.41539">
        <ele>1086.4000244141</ele>
        <time>2016-05-07T11:33:59Z</time>
      </trkpt>
      <trkpt lat="44.25528" lon="5.41537">
        <ele>1087.4000244141</ele>
        <time>2016-05-07T11:34:01Z</time>
      </trkpt>
      <trkpt lat="44.25525" lon="5.41534">
        <ele>1087.8000488281</ele>
        <time>2016-05-07T11:34:05Z</time>
      </trkpt>
      <trkpt lat="44.25521" lon="5.41532">
        <ele>1088.1999511719</ele>
        <time>2016-05-07T11:34:08Z</time>
      </trkpt>
      <trkpt lat="44.25519" lon="5.41529">
        <ele>1088.1999511719</ele>
        <time>2016-05-07T11:34:11Z</time>
      </trkpt>
      <trkpt lat="44.25517" lon="5.41529">
        <ele>1088.5999755859</ele>
        <time>2016-05-07T11:34:12Z</time>
      </trkpt>
      <trkpt lat="44.25513" lon="5.41529">
        <ele>1089.5999755859</ele>
        <time>2016-05-07T11:34:15Z</time>
      </trkpt>
      <trkpt lat="44.25507" lon="5.41529">
        <ele>1089.5999755859</ele>
        <time>2016-05-07T11:34:18Z</time>
      </trkpt>
      <trkpt lat="44.25503" lon="5.41529">
        <ele>1090</ele>
        <time>2016-05-07T11:34:20Z</time>
      </trkpt>
      <trkpt lat="44.25497" lon="5.41531">
        <ele>1090.4000244141</ele>
        <time>2016-05-07T11:34:23Z</time>
      </trkpt>
      <trkpt lat="44.2549" lon="5.41533">
        <ele>1090.8000488281</ele>
        <time>2016-05-07T11:34:27Z</time>
      </trkpt>
      <trkpt lat="44.25486" lon="5.41535">
        <ele>1090.8000488281</ele>
        <time>2016-05-07T11:34:29Z</time>
      </trkpt>
      <trkpt lat="44.25483" lon="5.41538">
        <ele>1091.1999511719</ele>
        <time>2016-05-07T11:34:31Z</time>
      </trkpt>
      <trkpt lat="44.25476" lon="5.41542">
        <ele>1092</ele>
        <time>2016-05-07T11:34:35Z</time>
      </trkpt>
      <trkpt lat="44.25471" lon="5.41546">
        <ele>1092.4000244141</ele>
        <time>2016-05-07T11:34:38Z</time>
      </trkpt>
      <trkpt lat="44.25458" lon="5.41559">
        <ele>1092.4000244141</ele>
        <time>2016-05-07T11:34:47Z</time>
      </trkpt>
      <trkpt lat="44.25448" lon="5.41567">
        <ele>1093</ele>
        <time>2016-05-07T11:34:53Z</time>
      </trkpt>
      <trkpt lat="44.25444" lon="5.41572">
        <ele>1093</ele>
        <time>2016-05-07T11:34:56Z</time>
      </trkpt>
      <trkpt lat="44.25443" lon="5.41574">
        <ele>1093.4000244141</ele>
        <time>2016-05-07T11:34:57Z</time>
      </trkpt>
      <trkpt lat="44.2544" lon="5.41577">
        <ele>1094.1999511719</ele>
        <time>2016-05-07T11:35:00Z</time>
      </trkpt>
      <trkpt lat="44.25436" lon="5.41582">
        <ele>1094.8000488281</ele>
        <time>2016-05-07T11:35:04Z</time>
      </trkpt>
      <trkpt lat="44.25433" lon="5.41585">
        <ele>1094.8000488281</ele>
        <time>2016-05-07T11:35:06Z</time>
      </trkpt>
      <trkpt lat="44.25432" lon="5.41586">
        <ele>1095.5999755859</ele>
        <time>2016-05-07T11:35:07Z</time>
      </trkpt>
      <trkpt lat="44.25427" lon="5.41589">
        <ele>1096</ele>
        <time>2016-05-07T11:35:10Z</time>
      </trkpt>
      <trkpt lat="44.25419" lon="5.41593">
        <ele>1096.8000488281</ele>
        <time>2016-05-07T11:35:14Z</time>
      </trkpt>
      <trkpt lat="44.25416" lon="5.41595">
        <ele>1096.8000488281</ele>
        <time>2016-05-07T11:35:16Z</time>
      </trkpt>
      <trkpt lat="44.25413" lon="5.41596">
        <ele>1097.1999511719</ele>
        <time>2016-05-07T11:35:18Z</time>
      </trkpt>
      <trkpt lat="44.25408" lon="5.41599">
        <ele>1098</ele>
        <time>2016-05-07T11:35:21Z</time>
      </trkpt>
      <trkpt lat="44.254" lon="5.41603">
        <ele>1098.4000244141</ele>
        <time>2016-05-07T11:35:25Z</time>
      </trkpt>
      <trkpt lat="44.25394" lon="5.41605">
        <ele>1098.8000488281</ele>
        <time>2016-05-07T11:35:28Z</time>
      </trkpt>
      <trkpt lat="44.25386" lon="5.4161">
        <ele>1098.8000488281</ele>
        <time>2016-05-07T11:35:33Z</time>
      </trkpt>
      <trkpt lat="44.25375" lon="5.41618">
        <ele>1099.1999511719</ele>
        <time>2016-05-07T11:35:39Z</time>
      </trkpt>
      <trkpt lat="44.2537" lon="5.41623">
        <ele>1099.8000488281</ele>
        <time>2016-05-07T11:35:42Z</time>
      </trkpt>
      <trkpt lat="44.25365" lon="5.4163">
        <ele>1099.8000488281</ele>
        <time>2016-05-07T11:35:45Z</time>
      </trkpt>
      <trkpt lat="44.25363" lon="5.41633">
        <ele>1100.5999755859</ele>
        <time>2016-05-07T11:35:46Z</time>
      </trkpt>
      <trkpt lat="44.25356" lon="5.41644">
        <ele>1101.1999511719</ele>
        <time>2016-05-07T11:35:50Z</time>
      </trkpt>
      <trkpt lat="44.25354" lon="5.41648">
        <ele>1101.1999511719</ele>
        <time>2016-05-07T11:35:51Z</time>
      </trkpt>
      <trkpt lat="44.2534" lon="5.41681">
        <ele>1101.1999511719</ele>
        <time>2016-05-07T11:35:58Z</time>
      </trkpt>
      <trkpt lat="44.25328" lon="5.41721">
        <ele>1101.1999511719</ele>
        <time>2016-05-07T11:36:06Z</time>
      </trkpt>
      <trkpt lat="44.25319" lon="5.41747">
        <ele>1101.1999511719</ele>
        <time>2016-05-07T11:36:13Z</time>
      </trkpt>
      <trkpt lat="44.25311" lon="5.41762">
        <ele>1101.5999755859</ele>
        <time>2016-05-07T11:36:18Z</time>
      </trkpt>
      <trkpt lat="44.25306" lon="5.4177">
        <ele>1102.5999755859</ele>
        <time>2016-05-07T11:36:21Z</time>
      </trkpt>
      <trkpt lat="44.25303" lon="5.41776">
        <ele>1102.5999755859</ele>
        <time>2016-05-07T11:36:23Z</time>
      </trkpt>
      <trkpt lat="44.253" lon="5.41782">
        <ele>1103</ele>
        <time>2016-05-07T11:36:25Z</time>
      </trkpt>
      <trkpt lat="44.25296" lon="5.41789">
        <ele>1104</ele>
        <time>2016-05-07T11:36:28Z</time>
      </trkpt>
      <trkpt lat="44.25295" lon="5.41793">
        <ele>1104</ele>
        <time>2016-05-07T11:36:30Z</time>
      </trkpt>
      <trkpt lat="44.25292" lon="5.41797">
        <ele>1104.4000244141</ele>
        <time>2016-05-07T11:36:32Z</time>
      </trkpt>
      <trkpt lat="44.25289" lon="5.41804">
        <ele>1105.1999511719</ele>
        <time>2016-05-07T11:36:35Z</time>
      </trkpt>
      <trkpt lat="44.25288" lon="5.41805">
        <ele>1105.1999511719</ele>
        <time>2016-05-07T11:36:36Z</time>
      </trkpt>
      <trkpt lat="44.25286" lon="5.4181">
        <ele>1105.5999755859</ele>
        <time>2016-05-07T11:36:39Z</time>
      </trkpt>
      <trkpt lat="44.25284" lon="5.41816">
        <ele>1105.5999755859</ele>
        <time>2016-05-07T11:36:42Z</time>
      </trkpt>
      <trkpt lat="44.25283" lon="5.41822">
        <ele>1106.1999511719</ele>
        <time>2016-05-07T11:36:46Z</time>
      </trkpt>
      <trkpt lat="44.25278" lon="5.41828">
        <ele>1106.8000488281</ele>
        <time>2016-05-07T11:36:49Z</time>
      </trkpt>
      <trkpt lat="44.25277" lon="5.4183">
        <ele>1106.8000488281</ele>
        <time>2016-05-07T11:36:50Z</time>
      </trkpt>
      <trkpt lat="44.25274" lon="5.41839">
        <ele>1108</ele>
        <time>2016-05-07T11:36:53Z</time>
      </trkpt>
      <trkpt lat="44.2527" lon="5.41846">
        <ele>1108.5999755859</ele>
        <time>2016-05-07T11:36:57Z</time>
      </trkpt>
      <trkpt lat="44.25268" lon="5.41852">
        <ele>1108.5999755859</ele>
        <time>2016-05-07T11:37:00Z</time>
      </trkpt>
      <trkpt lat="44.25267" lon="5.41854">
        <ele>1109.1999511719</ele>
        <time>2016-05-07T11:37:01Z</time>
      </trkpt>
      <trkpt lat="44.25261" lon="5.41858">
        <ele>1110.4000244141</ele>
        <time>2016-05-07T11:37:06Z</time>
      </trkpt>
      <trkpt lat="44.25259" lon="5.4186">
        <ele>1110.4000244141</ele>
        <time>2016-05-07T11:37:08Z</time>
      </trkpt>
      <trkpt lat="44.25249" lon="5.41873">
        <ele>1110.4000244141</ele>
        <time>2016-05-07T11:37:16Z</time>
      </trkpt>
      <trkpt lat="44.25245" lon="5.41878">
        <ele>1111</ele>
        <time>2016-05-07T11:37:20Z</time>
      </trkpt>
      <trkpt lat="44.25242" lon="5.41883">
        <ele>1111.4000244141</ele>
        <time>2016-05-07T11:37:23Z</time>
      </trkpt>
      <trkpt lat="44.25239" lon="5.41888">
        <ele>1111.8000488281</ele>
        <time>2016-05-07T11:37:27Z</time>
      </trkpt>
      <trkpt lat="44.25238" lon="5.41893">
        <ele>1112.4000244141</ele>
        <time>2016-05-07T11:37:30Z</time>
      </trkpt>
      <trkpt lat="44.25237" lon="5.41894">
        <ele>1112.4000244141</ele>
        <time>2016-05-07T11:37:32Z</time>
      </trkpt>
      <trkpt lat="44.25237" lon="5.41894">
        <ele>1113.1999511719</ele>
        <time>2016-05-07T11:37:34Z</time>
      </trkpt>
      <trkpt lat="44.25237" lon="5.41894">
        <ele>1113.8000488281</ele>
        <time>2016-05-07T11:37:39Z</time>
      </trkpt>
      <trkpt lat="44.25237" lon="5.41895">
        <ele>1114.4000244141</ele>
        <time>2016-05-07T11:37:42Z</time>
      </trkpt>
      <trkpt lat="44.25237" lon="5.41896">
        <ele>1115</ele>
        <time>2016-05-07T11:37:46Z</time>
      </trkpt>
      <trkpt lat="44.25237" lon="5.41896">
        <ele>1115.4000244141</ele>
        <time>2016-05-07T11:37:49Z</time>
      </trkpt>
      <trkpt lat="44.25235" lon="5.41906">
        <ele>1116</ele>
        <time>2016-05-07T11:37:53Z</time>
      </trkpt>
      <trkpt lat="44.25232" lon="5.41919">
        <ele>1116.4000244141</ele>
        <time>2016-05-07T11:37:56Z</time>
      </trkpt>
      <trkpt lat="44.25227" lon="5.41927">
        <ele>1116.4000244141</ele>
        <time>2016-05-07T11:37:58Z</time>
      </trkpt>
      <trkpt lat="44.25224" lon="5.41934">
        <ele>1117</ele>
        <time>2016-05-07T11:37:59Z</time>
      </trkpt>
      <trkpt lat="44.25222" lon="5.41937">
        <ele>1117.5999755859</ele>
        <time>2016-05-07T11:38:00Z</time>
      </trkpt>
      <trkpt lat="44.25217" lon="5.41949">
        <ele>1118.1999511719</ele>
        <time>2016-05-07T11:38:03Z</time>
      </trkpt>
      <trkpt lat="44.25216" lon="5.41952">
        <ele>1118.1999511719</ele>
        <time>2016-05-07T11:38:04Z</time>
      </trkpt>
      <trkpt lat="44.25214" lon="5.41956">
        <ele>1118.8000488281</ele>
        <time>2016-05-07T11:38:06Z</time>
      </trkpt>
      <trkpt lat="44.25213" lon="5.41959">
        <ele>1119.4000244141</ele>
        <time>2016-05-07T11:38:07Z</time>
      </trkpt>
      <trkpt lat="44.25205" lon="5.41975">
        <ele>1119.4000244141</ele>
        <time>2016-05-07T11:38:14Z</time>
      </trkpt>
      <trkpt lat="44.25196" lon="5.41992">
        <ele>1120</ele>
        <time>2016-05-07T11:38:21Z</time>
      </trkpt>
      <trkpt lat="44.25196" lon="5.41994">
        <ele>1120</ele>
        <time>2016-05-07T11:38:22Z</time>
      </trkpt>
      <trkpt lat="44.25193" lon="5.42003">
        <ele>1120.4000244141</ele>
        <time>2016-05-07T11:38:24Z</time>
      </trkpt>
      <trkpt lat="44.25186" lon="5.42013">
        <ele>1120.8000488281</ele>
        <time>2016-05-07T11:38:28Z</time>
      </trkpt>
      <trkpt lat="44.25185" lon="5.42014">
        <ele>1120.8000488281</ele>
        <time>2016-05-07T11:38:29Z</time>
      </trkpt>
      <trkpt lat="44.25183" lon="5.42018">
        <ele>1121.4000244141</ele>
        <time>2016-05-07T11:38:31Z</time>
      </trkpt>
      <trkpt lat="44.25179" lon="5.42025">
        <ele>1121.8000488281</ele>
        <time>2016-05-07T11:38:35Z</time>
      </trkpt>
      <trkpt lat="44.25168" lon="5.42045">
        <ele>1122.1999511719</ele>
        <time>2016-05-07T11:38:43Z</time>
      </trkpt>
      <trkpt lat="44.25165" lon="5.42054">
        <ele>1122.5999755859</ele>
        <time>2016-05-07T11:38:47Z</time>
      </trkpt>
      <trkpt lat="44.25163" lon="5.42059">
        <ele>1122.5999755859</ele>
        <time>2016-05-07T11:38:49Z</time>
      </trkpt>
      <trkpt lat="44.25162" lon="5.42062">
        <ele>1123.1999511719</ele>
        <time>2016-05-07T11:38:50Z</time>
      </trkpt>
      <trkpt lat="44.25159" lon="5.4207">
        <ele>1123.5999755859</ele>
        <time>2016-05-07T11:38:53Z</time>
      </trkpt>
      <trkpt lat="44.25155" lon="5.42086">
        <ele>1123.5999755859</ele>
        <time>2016-05-07T11:38:56Z</time>
      </trkpt>
      <trkpt lat="44.25153" lon="5.42089">
        <ele>1124</ele>
        <time>2016-05-07T11:38:57Z</time>
      </trkpt>
      <trkpt lat="44.25149" lon="5.42101">
        <ele>1124</ele>
        <time>2016-05-07T11:39:02Z</time>
      </trkpt>
      <trkpt lat="44.25147" lon="5.42107">
        <ele>1124.4000244141</ele>
        <time>2016-05-07T11:39:04Z</time>
      </trkpt>
      <trkpt lat="44.25146" lon="5.42119">
        <ele>1125</ele>
        <time>2016-05-07T11:39:08Z</time>
      </trkpt>
      <trkpt lat="44.25141" lon="5.42125">
        <ele>1125.4000244141</ele>
        <time>2016-05-07T11:39:11Z</time>
      </trkpt>
      <trkpt lat="44.2514" lon="5.42126">
        <ele>1125.4000244141</ele>
        <time>2016-05-07T11:39:12Z</time>
      </trkpt>
      <trkpt lat="44.25136" lon="5.42127">
        <ele>1126</ele>
        <time>2016-05-07T11:39:14Z</time>
      </trkpt>
      <trkpt lat="44.25128" lon="5.42119">
        <ele>1126.4000244141</ele>
        <time>2016-05-07T11:39:19Z</time>
      </trkpt>
      <trkpt lat="44.25125" lon="5.42115">
        <ele>1126.4000244141</ele>
        <time>2016-05-07T11:39:21Z</time>
      </trkpt>
      <trkpt lat="44.25123" lon="5.4211">
        <ele>1126.8000488281</ele>
        <time>2016-05-07T11:39:23Z</time>
      </trkpt>
      <trkpt lat="44.25118" lon="5.42102">
        <ele>1127.1999511719</ele>
        <time>2016-05-07T11:39:27Z</time>
      </trkpt>
      <trkpt lat="44.25114" lon="5.42095">
        <ele>1128.1999511719</ele>
        <time>2016-05-07T11:39:31Z</time>
      </trkpt>
      <trkpt lat="44.25112" lon="5.42093">
        <ele>1128.1999511719</ele>
        <time>2016-05-07T11:39:32Z</time>
      </trkpt>
      <trkpt lat="44.25109" lon="5.42089">
        <ele>1128.5999755859</ele>
        <time>2016-05-07T11:39:35Z</time>
      </trkpt>
      <trkpt lat="44.25103" lon="5.42084">
        <ele>1129</ele>
        <time>2016-05-07T11:39:39Z</time>
      </trkpt>
      <trkpt lat="44.251" lon="5.42076">
        <ele>1129.4000244141</ele>
        <time>2016-05-07T11:39:43Z</time>
      </trkpt>
      <trkpt lat="44.25099" lon="5.4207">
        <ele>1129.4000244141</ele>
        <time>2016-05-07T11:39:46Z</time>
      </trkpt>
      <trkpt lat="44.25098" lon="5.42068">
        <ele>1130.1999511719</ele>
        <time>2016-05-07T11:39:47Z</time>
      </trkpt>
      <trkpt lat="44.25098" lon="5.42062">
        <ele>1130.8000488281</ele>
        <time>2016-05-07T11:39:50Z</time>
      </trkpt>
      <trkpt lat="44.25098" lon="5.42056">
        <ele>1130.8000488281</ele>
        <time>2016-05-07T11:39:53Z</time>
      </trkpt>
      <trkpt lat="44.25098" lon="5.42054">
        <ele>1132</ele>
        <time>2016-05-07T11:39:54Z</time>
      </trkpt>
      <trkpt lat="44.25098" lon="5.42047">
        <ele>1132.5999755859</ele>
        <time>2016-05-07T11:39:57Z</time>
      </trkpt>
      <trkpt lat="44.25099" lon="5.42043">
        <ele>1132.5999755859</ele>
        <time>2016-05-07T11:39:59Z</time>
      </trkpt>
      <trkpt lat="44.251" lon="5.4204">
        <ele>1133</ele>
        <time>2016-05-07T11:40:01Z</time>
      </trkpt>
      <trkpt lat="44.25101" lon="5.42038">
        <ele>1133</ele>
        <time>2016-05-07T11:40:02Z</time>
      </trkpt>
      <trkpt lat="44.25103" lon="5.42021">
        <ele>1133.5999755859</ele>
        <time>2016-05-07T11:40:11Z</time>
      </trkpt>
      <trkpt lat="44.25103" lon="5.42019">
        <ele>1133.5999755859</ele>
        <time>2016-05-07T11:40:12Z</time>
      </trkpt>
      <trkpt lat="44.25104" lon="5.42011">
        <ele>1134.4000244141</ele>
        <time>2016-05-07T11:40:15Z</time>
      </trkpt>
      <trkpt lat="44.25105" lon="5.42003">
        <ele>1134.8000488281</ele>
        <time>2016-05-07T11:40:18Z</time>
      </trkpt>
      <trkpt lat="44.25105" lon="5.41994">
        <ele>1135.4000244141</ele>
        <time>2016-05-07T11:40:22Z</time>
      </trkpt>
      <trkpt lat="44.25105" lon="5.41992">
        <ele>1135.4000244141</ele>
        <time>2016-05-07T11:40:23Z</time>
      </trkpt>
      <trkpt lat="44.25103" lon="5.41968">
        <ele>1135.8000488281</ele>
        <time>2016-05-07T11:40:33Z</time>
      </trkpt>
      <trkpt lat="44.25103" lon="5.41967">
        <ele>1135.8000488281</ele>
        <time>2016-05-07T11:40:34Z</time>
      </trkpt>
      <trkpt lat="44.25103" lon="5.41961">
        <ele>1136.5999755859</ele>
        <time>2016-05-07T11:40:37Z</time>
      </trkpt>
      <trkpt lat="44.25102" lon="5.41955">
        <ele>1137</ele>
        <time>2016-05-07T11:40:40Z</time>
      </trkpt>
      <trkpt lat="44.25101" lon="5.41951">
        <ele>1137</ele>
        <time>2016-05-07T11:40:42Z</time>
      </trkpt>
      <trkpt lat="44.251" lon="5.41947">
        <ele>1137.4000244141</ele>
        <time>2016-05-07T11:40:44Z</time>
      </trkpt>
      <trkpt lat="44.25099" lon="5.41934">
        <ele>1137.4000244141</ele>
        <time>2016-05-07T11:40:50Z</time>
      </trkpt>
      <trkpt lat="44.25098" lon="5.41932">
        <ele>1138.1999511719</ele>
        <time>2016-05-07T11:40:51Z</time>
      </trkpt>
      <trkpt lat="44.25097" lon="5.41926">
        <ele>1138.5999755859</ele>
        <time>2016-05-07T11:40:54Z</time>
      </trkpt>
      <trkpt lat="44.25094" lon="5.41918">
        <ele>1139.5999755859</ele>
        <time>2016-05-07T11:40:58Z</time>
      </trkpt>
      <trkpt lat="44.25092" lon="5.41904">
        <ele>1140.4000244141</ele>
        <time>2016-05-07T11:41:05Z</time>
      </trkpt>
      <trkpt lat="44.2509" lon="5.41899">
        <ele>1140.4000244141</ele>
        <time>2016-05-07T11:41:07Z</time>
      </trkpt>
      <trkpt lat="44.2509" lon="5.41898">
        <ele>1140.8000488281</ele>
        <time>2016-05-07T11:41:08Z</time>
      </trkpt>
      <trkpt lat="44.25088" lon="5.41891">
        <ele>1141.8000488281</ele>
        <time>2016-05-07T11:41:12Z</time>
      </trkpt>
      <trkpt lat="44.25087" lon="5.41886">
        <ele>1142.1999511719</ele>
        <time>2016-05-07T11:41:15Z</time>
      </trkpt>
      <trkpt lat="44.25085" lon="5.41883">
        <ele>1142.1999511719</ele>
        <time>2016-05-07T11:41:17Z</time>
      </trkpt>
      <trkpt lat="44.25084" lon="5.41879">
        <ele>1143.1999511719</ele>
        <time>2016-05-07T11:41:19Z</time>
      </trkpt>
      <trkpt lat="44.25082" lon="5.41875">
        <ele>1143.5999755859</ele>
        <time>2016-05-07T11:41:22Z</time>
      </trkpt>
      <trkpt lat="44.25078" lon="5.41867">
        <ele>1144.1999511719</ele>
        <time>2016-05-07T11:41:26Z</time>
      </trkpt>
      <trkpt lat="44.25074" lon="5.41857">
        <ele>1144.5999755859</ele>
        <time>2016-05-07T11:41:33Z</time>
      </trkpt>
      <trkpt lat="44.25071" lon="5.41853">
        <ele>1145.1999511719</ele>
        <time>2016-05-07T11:41:36Z</time>
      </trkpt>
      <trkpt lat="44.25069" lon="5.41845">
        <ele>1145.5999755859</ele>
        <time>2016-05-07T11:41:40Z</time>
      </trkpt>
      <trkpt lat="44.25066" lon="5.4184">
        <ele>1146</ele>
        <time>2016-05-07T11:41:43Z</time>
      </trkpt>
      <trkpt lat="44.25063" lon="5.41833">
        <ele>1147.1999511719</ele>
        <time>2016-05-07T11:41:48Z</time>
      </trkpt>
      <trkpt lat="44.2506" lon="5.41827">
        <ele>1147.8000488281</ele>
        <time>2016-05-07T11:41:52Z</time>
      </trkpt>
      <trkpt lat="44.25059" lon="5.41826">
        <ele>1147.8000488281</ele>
        <time>2016-05-07T11:41:53Z</time>
      </trkpt>
      <trkpt lat="44.25057" lon="5.41823">
        <ele>1148.4000244141</ele>
        <time>2016-05-07T11:41:55Z</time>
      </trkpt>
      <trkpt lat="44.25055" lon="5.41818">
        <ele>1148.8000488281</ele>
        <time>2016-05-07T11:41:59Z</time>
      </trkpt>
      <trkpt lat="44.25052" lon="5.41812">
        <ele>1148.8000488281</ele>
        <time>2016-05-07T11:42:02Z</time>
      </trkpt>
      <trkpt lat="44.25051" lon="5.41811">
        <ele>1149.8000488281</ele>
        <time>2016-05-07T11:42:03Z</time>
      </trkpt>
      <trkpt lat="44.25047" lon="5.41807">
        <ele>1150.4000244141</ele>
        <time>2016-05-07T11:42:07Z</time>
      </trkpt>
      <trkpt lat="44.25045" lon="5.41803">
        <ele>1151.4000244141</ele>
        <time>2016-05-07T11:42:10Z</time>
      </trkpt>
      <trkpt lat="44.2504" lon="5.41795">
        <ele>1152.1999511719</ele>
        <time>2016-05-07T11:42:17Z</time>
      </trkpt>
      <trkpt lat="44.25037" lon="5.4179">
        <ele>1152.5999755859</ele>
        <time>2016-05-07T11:42:21Z</time>
      </trkpt>
      <trkpt lat="44.25035" lon="5.41786">
        <ele>1153.4000244141</ele>
        <time>2016-05-07T11:42:24Z</time>
      </trkpt>
      <trkpt lat="44.25032" lon="5.41781">
        <ele>1153.8000488281</ele>
        <time>2016-05-07T11:42:28Z</time>
      </trkpt>
      <trkpt lat="44.25029" lon="5.41777">
        <ele>1154.5999755859</ele>
        <time>2016-05-07T11:42:31Z</time>
      </trkpt>
      <trkpt lat="44.25027" lon="5.41776">
        <ele>1154.5999755859</ele>
        <time>2016-05-07T11:42:32Z</time>
      </trkpt>
      <trkpt lat="44.25025" lon="5.41774">
        <ele>1154.5999755859</ele>
        <time>2016-05-07T11:42:34Z</time>
      </trkpt>
      <trkpt lat="44.25025" lon="5.41774">
        <ele>1155</ele>
        <time>2016-05-07T11:42:35Z</time>
      </trkpt>
      <trkpt lat="44.25023" lon="5.41771">
        <ele>1155.5999755859</ele>
        <time>2016-05-07T11:42:38Z</time>
      </trkpt>
      <trkpt lat="44.25016" lon="5.41764">
        <ele>1155.5999755859</ele>
        <time>2016-05-07T11:42:45Z</time>
      </trkpt>
      <trkpt lat="44.25014" lon="5.41763">
        <ele>1156</ele>
        <time>2016-05-07T11:42:46Z</time>
      </trkpt>
      <trkpt lat="44.25012" lon="5.41759">
        <ele>1156.5999755859</ele>
        <time>2016-05-07T11:42:49Z</time>
      </trkpt>
      <trkpt lat="44.2501" lon="5.41756">
        <ele>1157</ele>
        <time>2016-05-07T11:42:52Z</time>
      </trkpt>
      <trkpt lat="44.2501" lon="5.41754">
        <ele>1157.5999755859</ele>
        <time>2016-05-07T11:42:53Z</time>
      </trkpt>
      <trkpt lat="44.25008" lon="5.4175">
        <ele>1158</ele>
        <time>2016-05-07T11:42:56Z</time>
      </trkpt>
      <trkpt lat="44.25003" lon="5.41737">
        <ele>1158</ele>
        <time>2016-05-07T11:43:05Z</time>
      </trkpt>
      <trkpt lat="44.24999" lon="5.41721">
        <ele>1158</ele>
        <time>2016-05-07T11:43:14Z</time>
      </trkpt>
      <trkpt lat="44.24997" lon="5.41716">
        <ele>1158.4000244141</ele>
        <time>2016-05-07T11:43:17Z</time>
      </trkpt>
      <trkpt lat="44.24995" lon="5.41709">
        <ele>1158.8000488281</ele>
        <time>2016-05-07T11:43:21Z</time>
      </trkpt>
      <trkpt lat="44.24994" lon="5.41706">
        <ele>1158.8000488281</ele>
        <time>2016-05-07T11:43:23Z</time>
      </trkpt>
      <trkpt lat="44.24993" lon="5.41704">
        <ele>1159.4000244141</ele>
        <time>2016-05-07T11:43:24Z</time>
      </trkpt>
      <trkpt lat="44.24989" lon="5.41697">
        <ele>1160.1999511719</ele>
        <time>2016-05-07T11:43:28Z</time>
      </trkpt>
      <trkpt lat="44.24985" lon="5.41688">
        <ele>1160.1999511719</ele>
        <time>2016-05-07T11:43:32Z</time>
      </trkpt>
      <trkpt lat="44.24978" lon="5.41662">
        <ele>1160.1999511719</ele>
        <time>2016-05-07T11:43:42Z</time>
      </trkpt>
      <trkpt lat="44.24976" lon="5.41655">
        <ele>1160.5999755859</ele>
        <time>2016-05-07T11:43:45Z</time>
      </trkpt>
      <trkpt lat="44.24973" lon="5.41647">
        <ele>1161.5999755859</ele>
        <time>2016-05-07T11:43:49Z</time>
      </trkpt>
      <trkpt lat="44.2497" lon="5.41642">
        <ele>1162</ele>
        <time>2016-05-07T11:43:52Z</time>
      </trkpt>
      <trkpt lat="44.24969" lon="5.4164">
        <ele>1162</ele>
        <time>2016-05-07T11:43:53Z</time>
      </trkpt>
      <trkpt lat="44.24967" lon="5.41634">
        <ele>1162.5999755859</ele>
        <time>2016-05-07T11:43:56Z</time>
      </trkpt>
      <trkpt lat="44.24964" lon="5.41628">
        <ele>1163</ele>
        <time>2016-05-07T11:43:59Z</time>
      </trkpt>
      <trkpt lat="44.2496" lon="5.41621">
        <ele>1163.8000488281</ele>
        <time>2016-05-07T11:44:03Z</time>
      </trkpt>
      <trkpt lat="44.24954" lon="5.41609">
        <ele>1164.1999511719</ele>
        <time>2016-05-07T11:44:10Z</time>
      </trkpt>
      <trkpt lat="44.24953" lon="5.41607">
        <ele>1164.5999755859</ele>
        <time>2016-05-07T11:44:11Z</time>
      </trkpt>
      <trkpt lat="44.24953" lon="5.41602">
        <ele>1164.5999755859</ele>
        <time>2016-05-07T11:44:14Z</time>
      </trkpt>
      <trkpt lat="44.24955" lon="5.416">
        <ele>1164.5999755859</ele>
        <time>2016-05-07T11:44:19Z</time>
      </trkpt>
      <trkpt lat="44.24955" lon="5.41601">
        <ele>1165</ele>
        <time>2016-05-07T11:44:31Z</time>
      </trkpt>
      <trkpt lat="44.24955" lon="5.41602">
        <ele>1166</ele>
        <time>2016-05-07T11:44:34Z</time>
      </trkpt>
      <trkpt lat="44.24955" lon="5.41602">
        <ele>1166.4000244141</ele>
        <time>2016-05-07T11:44:38Z</time>
      </trkpt>
      <trkpt lat="44.24956" lon="5.41602">
        <ele>1166.8000488281</ele>
        <time>2016-05-07T11:44:41Z</time>
      </trkpt>
      <trkpt lat="44.24957" lon="5.41602">
        <ele>1166.8000488281</ele>
        <time>2016-05-07T11:44:44Z</time>
      </trkpt>
      <trkpt lat="44.24963" lon="5.41601">
        <ele>1167.1999511719</ele>
        <time>2016-05-07T11:44:52Z</time>
      </trkpt>
      <trkpt lat="44.24965" lon="5.41601">
        <ele>1167.1999511719</ele>
        <time>2016-05-07T11:44:54Z</time>
      </trkpt>
      <trkpt lat="44.24966" lon="5.41602">
        <ele>1167.5999755859</ele>
        <time>2016-05-07T11:44:56Z</time>
      </trkpt>
      <trkpt lat="44.24968" lon="5.41602">
        <ele>1168.1999511719</ele>
        <time>2016-05-07T11:44:59Z</time>
      </trkpt>
      <trkpt lat="44.24971" lon="5.41603">
        <ele>1168.5999755859</ele>
        <time>2016-05-07T11:45:02Z</time>
      </trkpt>
      <trkpt lat="44.24971" lon="5.41604">
        <ele>1169</ele>
        <time>2016-05-07T11:45:03Z</time>
      </trkpt>
      <trkpt lat="44.24974" lon="5.41604">
        <ele>1169.4000244141</ele>
        <time>2016-05-07T11:45:07Z</time>
      </trkpt>
      <trkpt lat="44.24976" lon="5.41604">
        <ele>1169.4000244141</ele>
        <time>2016-05-07T11:45:10Z</time>
      </trkpt>
      <trkpt lat="44.24977" lon="5.41603">
        <ele>1170.1999511719</ele>
        <time>2016-05-07T11:45:11Z</time>
      </trkpt>
      <trkpt lat="44.24979" lon="5.41603">
        <ele>1170.5999755859</ele>
        <time>2016-05-07T11:45:14Z</time>
      </trkpt>
      <trkpt lat="44.24981" lon="5.41602">
        <ele>1171</ele>
        <time>2016-05-07T11:45:18Z</time>
      </trkpt>
      <trkpt lat="44.24983" lon="5.41601">
        <ele>1171</ele>
        <time>2016-05-07T11:45:22Z</time>
      </trkpt>
      <trkpt lat="44.24987" lon="5.41601">
        <ele>1171.4000244141</ele>
        <time>2016-05-07T11:45:28Z</time>
      </trkpt>
      <trkpt lat="44.24989" lon="5.416">
        <ele>1172</ele>
        <time>2016-05-07T11:45:32Z</time>
      </trkpt>
      <trkpt lat="44.24991" lon="5.416">
        <ele>1172.4000244141</ele>
        <time>2016-05-07T11:45:35Z</time>
      </trkpt>
      <trkpt lat="44.24992" lon="5.416">
        <ele>1172.4000244141</ele>
        <time>2016-05-07T11:45:37Z</time>
      </trkpt>
      <trkpt lat="44.24994" lon="5.416">
        <ele>1173</ele>
        <time>2016-05-07T11:45:39Z</time>
      </trkpt>
      <trkpt lat="44.24995" lon="5.41599">
        <ele>1173.4000244141</ele>
        <time>2016-05-07T11:45:42Z</time>
      </trkpt>
      <trkpt lat="44.24997" lon="5.41599">
        <ele>1173.4000244141</ele>
        <time>2016-05-07T11:45:45Z</time>
      </trkpt>
      <trkpt lat="44.24998" lon="5.41598">
        <ele>1174</ele>
        <time>2016-05-07T11:45:49Z</time>
      </trkpt>
      <trkpt lat="44.24999" lon="5.41598">
        <ele>1174</ele>
        <time>2016-05-07T11:45:51Z</time>
      </trkpt>
      <trkpt lat="44.25" lon="5.41598">
        <ele>1174.4000244141</ele>
        <time>2016-05-07T11:45:53Z</time>
      </trkpt>
      <trkpt lat="44.25002" lon="5.41597">
        <ele>1174.8000488281</ele>
        <time>2016-05-07T11:45:56Z</time>
      </trkpt>
      <trkpt lat="44.25005" lon="5.41597">
        <ele>1175.4000244141</ele>
        <time>2016-05-07T11:46:00Z</time>
      </trkpt>
      <trkpt lat="44.25006" lon="5.41597">
        <ele>1176.1999511719</ele>
        <time>2016-05-07T11:46:03Z</time>
      </trkpt>
      <trkpt lat="44.25007" lon="5.41598">
        <ele>1176.1999511719</ele>
        <time>2016-05-07T11:46:05Z</time>
      </trkpt>
      <trkpt lat="44.25008" lon="5.41599">
        <ele>1177.4000244141</ele>
        <time>2016-05-07T11:46:07Z</time>
      </trkpt>
      <trkpt lat="44.25011" lon="5.41599">
        <ele>1178</ele>
        <time>2016-05-07T11:46:10Z</time>
      </trkpt>
      <trkpt lat="44.25013" lon="5.41601">
        <ele>1179.4000244141</ele>
        <time>2016-05-07T11:46:14Z</time>
      </trkpt>
      <trkpt lat="44.25015" lon="5.41601">
        <ele>1180</ele>
        <time>2016-05-07T11:46:17Z</time>
      </trkpt>
      <trkpt lat="44.25016" lon="5.41601">
        <ele>1180</ele>
        <time>2016-05-07T11:46:19Z</time>
      </trkpt>
      <trkpt lat="44.25018" lon="5.41602">
        <ele>1181</ele>
        <time>2016-05-07T11:46:28Z</time>
      </trkpt>
      <trkpt lat="44.25019" lon="5.41602">
        <ele>1181</ele>
        <time>2016-05-07T11:46:30Z</time>
      </trkpt>
      <trkpt lat="44.25019" lon="5.41602">
        <ele>1181.4000244141</ele>
        <time>2016-05-07T11:46:31Z</time>
      </trkpt>
      <trkpt lat="44.25022" lon="5.41601">
        <ele>1181.8000488281</ele>
        <time>2016-05-07T11:46:35Z</time>
      </trkpt>
      <trkpt lat="44.25023" lon="5.41601">
        <ele>1182.4000244141</ele>
        <time>2016-05-07T11:46:39Z</time>
      </trkpt>
      <trkpt lat="44.25024" lon="5.41601">
        <ele>1183.4000244141</ele>
        <time>2016-05-07T11:46:42Z</time>
      </trkpt>
      <trkpt lat="44.25026" lon="5.41601">
        <ele>1183.8000488281</ele>
        <time>2016-05-07T11:46:46Z</time>
      </trkpt>
      <trkpt lat="44.25029" lon="5.41601">
        <ele>1183.8000488281</ele>
        <time>2016-05-07T11:46:52Z</time>
      </trkpt>
      <trkpt lat="44.25029" lon="5.416">
        <ele>1184.8000488281</ele>
        <time>2016-05-07T11:46:54Z</time>
      </trkpt>
      <trkpt lat="44.25031" lon="5.416">
        <ele>1185.1999511719</ele>
        <time>2016-05-07T11:46:58Z</time>
      </trkpt>
      <trkpt lat="44.25032" lon="5.41599">
        <ele>1185.8000488281</ele>
        <time>2016-05-07T11:47:02Z</time>
      </trkpt>
      <trkpt lat="44.25033" lon="5.41597">
        <ele>1187</ele>
        <time>2016-05-07T11:47:05Z</time>
      </trkpt>
      <trkpt lat="44.25035" lon="5.41594">
        <ele>1188.1999511719</ele>
        <time>2016-05-07T11:47:09Z</time>
      </trkpt>
      <trkpt lat="44.25037" lon="5.41592">
        <ele>1188.1999511719</ele>
        <time>2016-05-07T11:47:13Z</time>
      </trkpt>
      <trkpt lat="44.25037" lon="5.41591">
        <ele>1189</ele>
        <time>2016-05-07T11:47:14Z</time>
      </trkpt>
      <trkpt lat="44.25037" lon="5.41589">
        <ele>1189.4000244141</ele>
        <time>2016-05-07T11:47:18Z</time>
      </trkpt>
      <trkpt lat="44.25039" lon="5.41587">
        <ele>1190.4000244141</ele>
        <time>2016-05-07T11:47:21Z</time>
      </trkpt>
      <trkpt lat="44.2504" lon="5.41585">
        <ele>1190.8000488281</ele>
        <time>2016-05-07T11:47:25Z</time>
      </trkpt>
      <trkpt lat="44.2504" lon="5.41583">
        <ele>1190.8000488281</ele>
        <time>2016-05-07T11:47:27Z</time>
      </trkpt>
      <trkpt lat="44.2504" lon="5.41583">
        <ele>1191.1999511719</ele>
        <time>2016-05-07T11:47:28Z</time>
      </trkpt>
      <trkpt lat="44.25042" lon="5.41579">
        <ele>1191.5999755859</ele>
        <time>2016-05-07T11:47:32Z</time>
      </trkpt>
      <trkpt lat="44.25043" lon="5.41577">
        <ele>1192.1999511719</ele>
        <time>2016-05-07T11:47:35Z</time>
      </trkpt>
      <trkpt lat="44.25044" lon="5.41574">
        <ele>1193</ele>
        <time>2016-05-07T11:47:39Z</time>
      </trkpt>
      <trkpt lat="44.25044" lon="5.41573">
        <ele>1193</ele>
        <time>2016-05-07T11:47:40Z</time>
      </trkpt>
      <trkpt lat="44.25044" lon="5.41572">
        <ele>1193</ele>
        <time>2016-05-07T11:47:41Z</time>
      </trkpt>
      <trkpt lat="44.25045" lon="5.4157">
        <ele>1193.4000244141</ele>
        <time>2016-05-07T11:47:43Z</time>
      </trkpt>
      <trkpt lat="44.25047" lon="5.41568">
        <ele>1194.4000244141</ele>
        <time>2016-05-07T11:47:46Z</time>
      </trkpt>
      <trkpt lat="44.2505" lon="5.41567">
        <ele>1195</ele>
        <time>2016-05-07T11:47:50Z</time>
      </trkpt>
      <trkpt lat="44.25051" lon="5.41567">
        <ele>1195</ele>
        <time>2016-05-07T11:47:51Z</time>
      </trkpt>
      <trkpt lat="44.25053" lon="5.41567">
        <ele>1195.4000244141</ele>
        <time>2016-05-07T11:47:53Z</time>
      </trkpt>
      <trkpt lat="44.25055" lon="5.41569">
        <ele>1196</ele>
        <time>2016-05-07T11:47:57Z</time>
      </trkpt>
      <trkpt lat="44.25057" lon="5.4157">
        <ele>1196.4000244141</ele>
        <time>2016-05-07T11:48:00Z</time>
      </trkpt>
      <trkpt lat="44.25059" lon="5.41572">
        <ele>1196.4000244141</ele>
        <time>2016-05-07T11:48:03Z</time>
      </trkpt>
      <trkpt lat="44.25059" lon="5.41572">
        <ele>1196.8000488281</ele>
        <time>2016-05-07T11:48:04Z</time>
      </trkpt>
      <trkpt lat="44.2506" lon="5.41573">
        <ele>1197.8000488281</ele>
        <time>2016-05-07T11:48:07Z</time>
      </trkpt>
      <trkpt lat="44.25063" lon="5.41573">
        <ele>1198.1999511719</ele>
        <time>2016-05-07T11:48:11Z</time>
      </trkpt>
      <trkpt lat="44.25065" lon="5.41574">
        <ele>1198.8000488281</ele>
        <time>2016-05-07T11:48:14Z</time>
      </trkpt>
      <trkpt lat="44.25065" lon="5.41574">
        <ele>1198.8000488281</ele>
        <time>2016-05-07T11:48:15Z</time>
      </trkpt>
      <trkpt lat="44.25067" lon="5.41575">
        <ele>1199.1999511719</ele>
        <time>2016-05-07T11:48:18Z</time>
      </trkpt>
      <trkpt lat="44.25069" lon="5.41576">
        <ele>1200</ele>
        <time>2016-05-07T11:48:21Z</time>
      </trkpt>
      <trkpt lat="44.25071" lon="5.41576">
        <ele>1200.5999755859</ele>
        <time>2016-05-07T11:48:25Z</time>
      </trkpt>
      <trkpt lat="44.25074" lon="5.41577">
        <ele>1200.5999755859</ele>
        <time>2016-05-07T11:48:29Z</time>
      </trkpt>
      <trkpt lat="44.25076" lon="5.41576">
        <ele>1201</ele>
        <time>2016-05-07T11:48:32Z</time>
      </trkpt>
      <trkpt lat="44.25077" lon="5.41575">
        <ele>1201.4000244141</ele>
        <time>2016-05-07T11:48:35Z</time>
      </trkpt>
      <trkpt lat="44.25077" lon="5.41573">
        <ele>1201.4000244141</ele>
        <time>2016-05-07T11:48:38Z</time>
      </trkpt>
      <trkpt lat="44.25078" lon="5.41572">
        <ele>1201.8000488281</ele>
        <time>2016-05-07T11:48:39Z</time>
      </trkpt>
      <trkpt lat="44.2508" lon="5.41569">
        <ele>1202.4000244141</ele>
        <time>2016-05-07T11:48:43Z</time>
      </trkpt>
      <trkpt lat="44.25082" lon="5.41569">
        <ele>1203</ele>
        <time>2016-05-07T11:48:46Z</time>
      </trkpt>
      <trkpt lat="44.25084" lon="5.41568">
        <ele>1203</ele>
        <time>2016-05-07T11:48:48Z</time>
      </trkpt>
      <trkpt lat="44.25085" lon="5.41568">
        <ele>1203.5999755859</ele>
        <time>2016-05-07T11:48:50Z</time>
      </trkpt>
      <trkpt lat="44.25088" lon="5.41566">
        <ele>1204.1999511719</ele>
        <time>2016-05-07T11:48:53Z</time>
      </trkpt>
      <trkpt lat="44.2509" lon="5.41562">
        <ele>1204.5999755859</ele>
        <time>2016-05-07T11:48:57Z</time>
      </trkpt>
      <trkpt lat="44.25092" lon="5.4156">
        <ele>1204.5999755859</ele>
        <time>2016-05-07T11:48:59Z</time>
      </trkpt>
      <trkpt lat="44.25092" lon="5.41559">
        <ele>1205.1999511719</ele>
        <time>2016-05-07T11:49:00Z</time>
      </trkpt>
      <trkpt lat="44.25093" lon="5.41557">
        <ele>1205.5999755859</ele>
        <time>2016-05-07T11:49:01Z</time>
      </trkpt>
      <trkpt lat="44.25093" lon="5.41553">
        <ele>1206.1999511719</ele>
        <time>2016-05-07T11:49:04Z</time>
      </trkpt>
      <trkpt lat="44.25092" lon="5.41548">
        <ele>1207</ele>
        <time>2016-05-07T11:49:08Z</time>
      </trkpt>
      <trkpt lat="44.25092" lon="5.41546">
        <ele>1207</ele>
        <time>2016-05-07T11:49:10Z</time>
      </trkpt>
      <trkpt lat="44.25094" lon="5.41536">
        <ele>1207</ele>
        <time>2016-05-07T11:49:19Z</time>
      </trkpt>
      <trkpt lat="44.25094" lon="5.41533">
        <ele>1207.5999755859</ele>
        <time>2016-05-07T11:49:22Z</time>
      </trkpt>
      <trkpt lat="44.25094" lon="5.41533">
        <ele>1208</ele>
        <time>2016-05-07T11:49:23Z</time>
      </trkpt>
      <trkpt lat="44.25096" lon="5.41531">
        <ele>1208</ele>
        <time>2016-05-07T11:49:26Z</time>
      </trkpt>
      <trkpt lat="44.25097" lon="5.4153">
        <ele>1208.4000244141</ele>
        <time>2016-05-07T11:49:27Z</time>
      </trkpt>
      <trkpt lat="44.25099" lon="5.41523">
        <ele>1208.8000488281</ele>
        <time>2016-05-07T11:49:30Z</time>
      </trkpt>
      <trkpt lat="44.25099" lon="5.4152">
        <ele>1208.8000488281</ele>
        <time>2016-05-07T11:49:31Z</time>
      </trkpt>
      <trkpt lat="44.25103" lon="5.41506">
        <ele>1209.1999511719</ele>
        <time>2016-05-07T11:49:34Z</time>
      </trkpt>
      <trkpt lat="44.25106" lon="5.41499">
        <ele>1209.1999511719</ele>
        <time>2016-05-07T11:49:36Z</time>
      </trkpt>
      <trkpt lat="44.2511" lon="5.4149">
        <ele>1209.1999511719</ele>
        <time>2016-05-07T11:49:41Z</time>
      </trkpt>
      <trkpt lat="44.25113" lon="5.41473">
        <ele>1209.1999511719</ele>
        <time>2016-05-07T11:49:49Z</time>
      </trkpt>
      <trkpt lat="44.25117" lon="5.41448">
        <ele>1209.1999511719</ele>
        <time>2016-05-07T11:49:58Z</time>
      </trkpt>
      <trkpt lat="44.25124" lon="5.41427">
        <ele>1209.1999511719</ele>
        <time>2016-05-07T11:50:08Z</time>
      </trkpt>
      <trkpt lat="44.25127" lon="5.41417">
        <ele>1209.1999511719</ele>
        <time>2016-05-07T11:50:14Z</time>
      </trkpt>
      <trkpt lat="44.25132" lon="5.41397">
        <ele>1210</ele>
        <time>2016-05-07T11:50:22Z</time>
      </trkpt>
      <trkpt lat="44.25132" lon="5.41396">
        <ele>1210</ele>
        <time>2016-05-07T11:50:23Z</time>
      </trkpt>
      <trkpt lat="44.25134" lon="5.41394">
        <ele>1210</ele>
        <time>2016-05-07T11:50:24Z</time>
      </trkpt>
      <trkpt lat="44.25136" lon="5.4139">
        <ele>1210.5999755859</ele>
        <time>2016-05-07T11:50:26Z</time>
      </trkpt>
      <trkpt lat="44.25137" lon="5.41386">
        <ele>1210.5999755859</ele>
        <time>2016-05-07T11:50:28Z</time>
      </trkpt>
      <trkpt lat="44.25137" lon="5.41385">
        <ele>1211.4000244141</ele>
        <time>2016-05-07T11:50:29Z</time>
      </trkpt>
      <trkpt lat="44.25143" lon="5.41369">
        <ele>1211.4000244141</ele>
        <time>2016-05-07T11:50:37Z</time>
      </trkpt>
      <trkpt lat="44.25146" lon="5.41364">
        <ele>1211.8000488281</ele>
        <time>2016-05-07T11:50:40Z</time>
      </trkpt>
      <trkpt lat="44.25149" lon="5.41354">
        <ele>1212.8000488281</ele>
        <time>2016-05-07T11:50:44Z</time>
      </trkpt>
      <trkpt lat="44.25152" lon="5.41347">
        <ele>1213.1999511719</ele>
        <time>2016-05-07T11:50:47Z</time>
      </trkpt>
      <trkpt lat="44.25156" lon="5.41338">
        <ele>1213.5999755859</ele>
        <time>2016-05-07T11:50:51Z</time>
      </trkpt>
      <trkpt lat="44.25159" lon="5.41329">
        <ele>1213.5999755859</ele>
        <time>2016-05-07T11:50:55Z</time>
      </trkpt>
      <trkpt lat="44.25163" lon="5.41316">
        <ele>1214.1999511719</ele>
        <time>2016-05-07T11:51:01Z</time>
      </trkpt>
      <trkpt lat="44.25165" lon="5.4131">
        <ele>1214.1999511719</ele>
        <time>2016-05-07T11:51:04Z</time>
      </trkpt>
      <trkpt lat="44.25166" lon="5.41308">
        <ele>1214.5999755859</ele>
        <time>2016-05-07T11:51:05Z</time>
      </trkpt>
      <trkpt lat="44.25167" lon="5.41301">
        <ele>1215</ele>
        <time>2016-05-07T11:51:08Z</time>
      </trkpt>
      <trkpt lat="44.25168" lon="5.41293">
        <ele>1215.8000488281</ele>
        <time>2016-05-07T11:51:12Z</time>
      </trkpt>
      <trkpt lat="44.25169" lon="5.41289">
        <ele>1215.8000488281</ele>
        <time>2016-05-07T11:51:14Z</time>
      </trkpt>
      <trkpt lat="44.2517" lon="5.41287">
        <ele>1216.1999511719</ele>
        <time>2016-05-07T11:51:15Z</time>
      </trkpt>
      <trkpt lat="44.25173" lon="5.41279">
        <ele>1216.8000488281</ele>
        <time>2016-05-07T11:51:19Z</time>
      </trkpt>
      <trkpt lat="44.25173" lon="5.41273">
        <ele>1216.8000488281</ele>
        <time>2016-05-07T11:51:22Z</time>
      </trkpt>
      <trkpt lat="44.25172" lon="5.41271">
        <ele>1217.1999511719</ele>
        <time>2016-05-07T11:51:23Z</time>
      </trkpt>
      <trkpt lat="44.25174" lon="5.41265">
        <ele>1217.5999755859</ele>
        <time>2016-05-07T11:51:26Z</time>
      </trkpt>
      <trkpt lat="44.25177" lon="5.41263">
        <ele>1218</ele>
        <time>2016-05-07T11:51:29Z</time>
      </trkpt>
      <trkpt lat="44.25186" lon="5.41252">
        <ele>1218.4000244141</ele>
        <time>2016-05-07T11:51:37Z</time>
      </trkpt>
      <trkpt lat="44.25187" lon="5.41246">
        <ele>1218.8000488281</ele>
        <time>2016-05-07T11:51:40Z</time>
      </trkpt>
      <trkpt lat="44.25188" lon="5.41241">
        <ele>1218.8000488281</ele>
        <time>2016-05-07T11:51:43Z</time>
      </trkpt>
      <trkpt lat="44.25189" lon="5.41239">
        <ele>1219.4000244141</ele>
        <time>2016-05-07T11:51:44Z</time>
      </trkpt>
      <trkpt lat="44.2519" lon="5.41231">
        <ele>1219.8000488281</ele>
        <time>2016-05-07T11:51:47Z</time>
      </trkpt>
      <trkpt lat="44.25192" lon="5.41224">
        <ele>1219.8000488281</ele>
        <time>2016-05-07T11:51:50Z</time>
      </trkpt>
      <trkpt lat="44.25193" lon="5.41223">
        <ele>1220.4000244141</ele>
        <time>2016-05-07T11:51:51Z</time>
      </trkpt>
      <trkpt lat="44.25196" lon="5.4121">
        <ele>1221</ele>
        <time>2016-05-07T11:51:58Z</time>
      </trkpt>
      <trkpt lat="44.25197" lon="5.41208">
        <ele>1221.5999755859</ele>
        <time>2016-05-07T11:51:59Z</time>
      </trkpt>
      <trkpt lat="44.25199" lon="5.41204">
        <ele>1222.1999511719</ele>
        <time>2016-05-07T11:52:03Z</time>
      </trkpt>
      <trkpt lat="44.252" lon="5.41203">
        <ele>1222.1999511719</ele>
        <time>2016-05-07T11:52:06Z</time>
      </trkpt>
      <trkpt lat="44.25201" lon="5.41198">
        <ele>1222.8000488281</ele>
        <time>2016-05-07T11:52:10Z</time>
      </trkpt>
      <trkpt lat="44.25202" lon="5.41197">
        <ele>1223.1999511719</ele>
        <time>2016-05-07T11:52:11Z</time>
      </trkpt>
      <trkpt lat="44.25202" lon="5.41197">
        <ele>1223.5999755859</ele>
        <time>2016-05-07T11:52:12Z</time>
      </trkpt>
      <trkpt lat="44.25204" lon="5.41195">
        <ele>1224</ele>
        <time>2016-05-07T11:52:15Z</time>
      </trkpt>
      <trkpt lat="44.25205" lon="5.41193">
        <ele>1224</ele>
        <time>2016-05-07T11:52:18Z</time>
      </trkpt>
      <trkpt lat="44.25205" lon="5.41193">
        <ele>1224.4000244141</ele>
        <time>2016-05-07T11:52:19Z</time>
      </trkpt>
      <trkpt lat="44.25207" lon="5.41191">
        <ele>1224.8000488281</ele>
        <time>2016-05-07T11:52:22Z</time>
      </trkpt>
      <trkpt lat="44.25211" lon="5.41186">
        <ele>1225.4000244141</ele>
        <time>2016-05-07T11:52:30Z</time>
      </trkpt>
      <trkpt lat="44.25212" lon="5.41185">
        <ele>1225.4000244141</ele>
        <time>2016-05-07T11:52:32Z</time>
      </trkpt>
      <trkpt lat="44.25213" lon="5.41185">
        <ele>1225.8000488281</ele>
        <time>2016-05-07T11:52:33Z</time>
      </trkpt>
      <trkpt lat="44.25216" lon="5.41184">
        <ele>1226.8000488281</ele>
        <time>2016-05-07T11:52:37Z</time>
      </trkpt>
      <trkpt lat="44.25217" lon="5.41182">
        <ele>1227.4000244141</ele>
        <time>2016-05-07T11:52:40Z</time>
      </trkpt>
      <trkpt lat="44.2522" lon="5.41178">
        <ele>1227.4000244141</ele>
        <time>2016-05-07T11:52:46Z</time>
      </trkpt>
      <trkpt lat="44.25223" lon="5.41174">
        <ele>1227.8000488281</ele>
        <time>2016-05-07T11:52:51Z</time>
      </trkpt>
      <trkpt lat="44.25224" lon="5.41171">
        <ele>1228.4000244141</ele>
        <time>2016-05-07T11:52:55Z</time>
      </trkpt>
      <trkpt lat="44.25226" lon="5.4117">
        <ele>1228.8000488281</ele>
        <time>2016-05-07T11:52:58Z</time>
      </trkpt>
      <trkpt lat="44.25228" lon="5.4117">
        <ele>1229.1999511719</ele>
        <time>2016-05-07T11:53:01Z</time>
      </trkpt>
      <trkpt lat="44.25231" lon="5.41169">
        <ele>1229.8000488281</ele>
        <time>2016-05-07T11:53:05Z</time>
      </trkpt>
      <trkpt lat="44.25233" lon="5.41168">
        <ele>1229.8000488281</ele>
        <time>2016-05-07T11:53:08Z</time>
      </trkpt>
      <trkpt lat="44.25234" lon="5.41166">
        <ele>1230.1999511719</ele>
        <time>2016-05-07T11:53:12Z</time>
      </trkpt>
      <trkpt lat="44.25235" lon="5.41166">
        <ele>1230.5999755859</ele>
        <time>2016-05-07T11:53:16Z</time>
      </trkpt>
      <trkpt lat="44.25237" lon="5.41165">
        <ele>1230.5999755859</ele>
        <time>2016-05-07T11:53:18Z</time>
      </trkpt>
      <trkpt lat="44.25237" lon="5.41165">
        <ele>1231.1999511719</ele>
        <time>2016-05-07T11:53:19Z</time>
      </trkpt>
      <trkpt lat="44.25238" lon="5.41164">
        <ele>1232</ele>
        <time>2016-05-07T11:53:23Z</time>
      </trkpt>
      <trkpt lat="44.25239" lon="5.41162">
        <ele>1232.5999755859</ele>
        <time>2016-05-07T11:53:26Z</time>
      </trkpt>
      <trkpt lat="44.2524" lon="5.41159">
        <ele>1234</ele>
        <time>2016-05-07T11:53:30Z</time>
      </trkpt>
      <trkpt lat="44.25241" lon="5.41158">
        <ele>1234.4000244141</ele>
        <time>2016-05-07T11:53:33Z</time>
      </trkpt>
      <trkpt lat="44.25243" lon="5.41156">
        <ele>1235.1999511719</ele>
        <time>2016-05-07T11:53:37Z</time>
      </trkpt>
      <trkpt lat="44.25244" lon="5.41154">
        <ele>1235.5999755859</ele>
        <time>2016-05-07T11:53:40Z</time>
      </trkpt>
      <trkpt lat="44.25244" lon="5.41153">
        <ele>1235.5999755859</ele>
        <time>2016-05-07T11:53:41Z</time>
      </trkpt>
      <trkpt lat="44.25245" lon="5.41151">
        <ele>1236.4000244141</ele>
        <time>2016-05-07T11:53:44Z</time>
      </trkpt>
      <trkpt lat="44.25244" lon="5.41149">
        <ele>1236.8000488281</ele>
        <time>2016-05-07T11:53:48Z</time>
      </trkpt>
      <trkpt lat="44.25244" lon="5.41148">
        <ele>1236.8000488281</ele>
        <time>2016-05-07T11:53:50Z</time>
      </trkpt>
      <trkpt lat="44.25244" lon="5.41147">
        <ele>1237.5999755859</ele>
        <time>2016-05-07T11:53:51Z</time>
      </trkpt>
      <trkpt lat="44.25243" lon="5.41144">
        <ele>1238</ele>
        <time>2016-05-07T11:53:54Z</time>
      </trkpt>
      <trkpt lat="44.25244" lon="5.4114">
        <ele>1238.4000244141</ele>
        <time>2016-05-07T11:54:01Z</time>
      </trkpt>
      <trkpt lat="44.25245" lon="5.41139">
        <ele>1238.4000244141</ele>
        <time>2016-05-07T11:54:03Z</time>
      </trkpt>
      <trkpt lat="44.25244" lon="5.41139">
        <ele>1239</ele>
        <time>2016-05-07T11:54:05Z</time>
      </trkpt>
      <trkpt lat="44.25245" lon="5.41139">
        <ele>1239.4000244141</ele>
        <time>2016-05-07T11:54:09Z</time>
      </trkpt>
      <trkpt lat="44.25245" lon="5.41139">
        <ele>1239.8000488281</ele>
        <time>2016-05-07T11:54:12Z</time>
      </trkpt>
      <trkpt lat="44.25246" lon="5.41139">
        <ele>1240.4000244141</ele>
        <time>2016-05-07T11:54:16Z</time>
      </trkpt>
      <trkpt lat="44.2525" lon="5.41138">
        <ele>1240.4000244141</ele>
        <time>2016-05-07T11:54:21Z</time>
      </trkpt>
      <trkpt lat="44.25254" lon="5.41132">
        <ele>1241.1999511719</ele>
        <time>2016-05-07T11:54:31Z</time>
      </trkpt>
      <trkpt lat="44.25254" lon="5.4113">
        <ele>1241.1999511719</ele>
        <time>2016-05-07T11:54:33Z</time>
      </trkpt>
      <trkpt lat="44.25254" lon="5.41128">
        <ele>1241.5999755859</ele>
        <time>2016-05-07T11:54:35Z</time>
      </trkpt>
      <trkpt lat="44.25255" lon="5.41124">
        <ele>1242</ele>
        <time>2016-05-07T11:54:39Z</time>
      </trkpt>
      <trkpt lat="44.25256" lon="5.41122">
        <ele>1242.4000244141</ele>
        <time>2016-05-07T11:54:42Z</time>
      </trkpt>
      <trkpt lat="44.25257" lon="5.41119">
        <ele>1242.4000244141</ele>
        <time>2016-05-07T11:54:45Z</time>
      </trkpt>
      <trkpt lat="44.25259" lon="5.41115">
        <ele>1243</ele>
        <time>2016-05-07T11:54:50Z</time>
      </trkpt>
      <trkpt lat="44.25261" lon="5.41111">
        <ele>1243.8000488281</ele>
        <time>2016-05-07T11:54:54Z</time>
      </trkpt>
      <trkpt lat="44.25262" lon="5.41108">
        <ele>1244.1999511719</ele>
        <time>2016-05-07T11:54:57Z</time>
      </trkpt>
      <trkpt lat="44.25262" lon="5.41106">
        <ele>1244.1999511719</ele>
        <time>2016-05-07T11:54:59Z</time>
      </trkpt>
      <trkpt lat="44.25263" lon="5.41104">
        <ele>1244.5999755859</ele>
        <time>2016-05-07T11:55:01Z</time>
      </trkpt>
      <trkpt lat="44.25264" lon="5.41102">
        <ele>1245</ele>
        <time>2016-05-07T11:55:04Z</time>
      </trkpt>
      <trkpt lat="44.25264" lon="5.41098">
        <ele>1245.5999755859</ele>
        <time>2016-05-07T11:55:08Z</time>
      </trkpt>
      <trkpt lat="44.25264" lon="5.41095">
        <ele>1246</ele>
        <time>2016-05-07T11:55:12Z</time>
      </trkpt>
      <trkpt lat="44.25264" lon="5.41094">
        <ele>1246</ele>
        <time>2016-05-07T11:55:13Z</time>
      </trkpt>
      <trkpt lat="44.25264" lon="5.41092">
        <ele>1246.4000244141</ele>
        <time>2016-05-07T11:55:15Z</time>
      </trkpt>
      <trkpt lat="44.25266" lon="5.41086">
        <ele>1247.5999755859</ele>
        <time>2016-05-07T11:55:21Z</time>
      </trkpt>
      <trkpt lat="44.25267" lon="5.41081">
        <ele>1248.1999511719</ele>
        <time>2016-05-07T11:55:26Z</time>
      </trkpt>
      <trkpt lat="44.25267" lon="5.41078">
        <ele>1248.1999511719</ele>
        <time>2016-05-07T11:55:29Z</time>
      </trkpt>
      <trkpt lat="44.25268" lon="5.41075">
        <ele>1249.4000244141</ele>
        <time>2016-05-07T11:55:32Z</time>
      </trkpt>
      <trkpt lat="44.2527" lon="5.41069">
        <ele>1250.1999511719</ele>
        <time>2016-05-07T11:55:38Z</time>
      </trkpt>
      <trkpt lat="44.2527" lon="5.41066">
        <ele>1250.1999511719</ele>
        <time>2016-05-07T11:55:40Z</time>
      </trkpt>
      <trkpt lat="44.2527" lon="5.41064">
        <ele>1250.5999755859</ele>
        <time>2016-05-07T11:55:43Z</time>
      </trkpt>
      <trkpt lat="44.25272" lon="5.4106">
        <ele>1251.4000244141</ele>
        <time>2016-05-07T11:55:49Z</time>
      </trkpt>
      <trkpt lat="44.25273" lon="5.41057">
        <ele>1251.4000244141</ele>
        <time>2016-05-07T11:55:53Z</time>
      </trkpt>
      <trkpt lat="44.25273" lon="5.41055">
        <ele>1252.1999511719</ele>
        <time>2016-05-07T11:55:55Z</time>
      </trkpt>
      <trkpt lat="44.25275" lon="5.41049">
        <ele>1252.8000488281</ele>
        <time>2016-05-07T11:56:01Z</time>
      </trkpt>
      <trkpt lat="44.25277" lon="5.41045">
        <ele>1253.5999755859</ele>
        <time>2016-05-07T11:56:06Z</time>
      </trkpt>
      <trkpt lat="44.25277" lon="5.41044">
        <ele>1253.5999755859</ele>
        <time>2016-05-07T11:56:07Z</time>
      </trkpt>
      <trkpt lat="44.25278" lon="5.4104">
        <ele>1254.5999755859</ele>
        <time>2016-05-07T11:56:12Z</time>
      </trkpt>
      <trkpt lat="44.2528" lon="5.41035">
        <ele>1255.4000244141</ele>
        <time>2016-05-07T11:56:18Z</time>
      </trkpt>
      <trkpt lat="44.25281" lon="5.41033">
        <ele>1255.4000244141</ele>
        <time>2016-05-07T11:56:20Z</time>
      </trkpt>
      <trkpt lat="44.25284" lon="5.41031">
        <ele>1256</ele>
        <time>2016-05-07T11:56:24Z</time>
      </trkpt>
      <trkpt lat="44.25285" lon="5.41029">
        <ele>1256</ele>
        <time>2016-05-07T11:56:28Z</time>
      </trkpt>
      <trkpt lat="44.25285" lon="5.41027">
        <ele>1256</ele>
        <time>2016-05-07T11:56:41Z</time>
      </trkpt>
      <trkpt lat="44.25285" lon="5.41024">
        <ele>1256</ele>
        <time>2016-05-07T11:56:47Z</time>
      </trkpt>
      <trkpt lat="44.25286" lon="5.41021">
        <ele>1256</ele>
        <time>2016-05-07T11:57:02Z</time>
      </trkpt>
      <trkpt lat="44.25286" lon="5.41021">
        <ele>1256.4000244141</ele>
        <time>2016-05-07T11:57:04Z</time>
      </trkpt>
      <trkpt lat="44.25286" lon="5.4102">
        <ele>1256.8000488281</ele>
        <time>2016-05-07T11:57:10Z</time>
      </trkpt>
      <trkpt lat="44.25286" lon="5.4102">
        <ele>1257.1999511719</ele>
        <time>2016-05-07T11:57:11Z</time>
      </trkpt>
      <trkpt lat="44.25286" lon="5.4102">
        <ele>1257.5999755859</ele>
        <time>2016-05-07T11:57:12Z</time>
      </trkpt>
      <trkpt lat="44.25286" lon="5.4102">
        <ele>1258</ele>
        <time>2016-05-07T11:57:13Z</time>
      </trkpt>
      <trkpt lat="44.25289" lon="5.41014">
        <ele>1258</ele>
        <time>2016-05-07T11:57:29Z</time>
      </trkpt>
      <trkpt lat="44.2529" lon="5.4101">
        <ele>1258.5999755859</ele>
        <time>2016-05-07T11:57:33Z</time>
      </trkpt>
      <trkpt lat="44.25291" lon="5.41006">
        <ele>1259.5999755859</ele>
        <time>2016-05-07T11:57:38Z</time>
      </trkpt>
      <trkpt lat="44.25291" lon="5.41002">
        <ele>1259.5999755859</ele>
        <time>2016-05-07T11:57:41Z</time>
      </trkpt>
      <trkpt lat="44.2529" lon="5.40999">
        <ele>1260.8000488281</ele>
        <time>2016-05-07T11:57:44Z</time>
      </trkpt>
      <trkpt lat="44.25289" lon="5.40992">
        <ele>1260.8000488281</ele>
        <time>2016-05-07T11:57:49Z</time>
      </trkpt>
      <trkpt lat="44.2529" lon="5.40991">
        <ele>1261.4000244141</ele>
        <time>2016-05-07T11:57:50Z</time>
      </trkpt>
      <trkpt lat="44.25291" lon="5.40985">
        <ele>1262</ele>
        <time>2016-05-07T11:57:55Z</time>
      </trkpt>
      <trkpt lat="44.25292" lon="5.40984">
        <ele>1262.5999755859</ele>
        <time>2016-05-07T11:57:56Z</time>
      </trkpt>
      <trkpt lat="44.25293" lon="5.40978">
        <ele>1263</ele>
        <time>2016-05-07T11:58:01Z</time>
      </trkpt>
      <trkpt lat="44.25293" lon="5.40977">
        <ele>1263.5999755859</ele>
        <time>2016-05-07T11:58:02Z</time>
      </trkpt>
      <trkpt lat="44.25294" lon="5.4097">
        <ele>1264</ele>
        <time>2016-05-07T11:58:07Z</time>
      </trkpt>
      <trkpt lat="44.25296" lon="5.40962">
        <ele>1265</ele>
        <time>2016-05-07T11:58:13Z</time>
      </trkpt>
      <trkpt lat="44.25298" lon="5.40956">
        <ele>1265.5999755859</ele>
        <time>2016-05-07T11:58:18Z</time>
      </trkpt>
      <trkpt lat="44.25298" lon="5.40955">
        <ele>1266.1999511719</ele>
        <time>2016-05-07T11:58:19Z</time>
      </trkpt>
      <trkpt lat="44.25299" lon="5.40953">
        <ele>1266.1999511719</ele>
        <time>2016-05-07T11:58:20Z</time>
      </trkpt>
      <trkpt lat="44.253" lon="5.40949">
        <ele>1266.5999755859</ele>
        <time>2016-05-07T11:58:24Z</time>
      </trkpt>
      <trkpt lat="44.253" lon="5.40948">
        <ele>1267.1999511719</ele>
        <time>2016-05-07T11:58:25Z</time>
      </trkpt>
      <trkpt lat="44.253" lon="5.40942">
        <ele>1267.8000488281</ele>
        <time>2016-05-07T11:58:30Z</time>
      </trkpt>
      <trkpt lat="44.25299" lon="5.4094">
        <ele>1267.8000488281</ele>
        <time>2016-05-07T11:58:31Z</time>
      </trkpt>
      <trkpt lat="44.253" lon="5.40937">
        <ele>1269</ele>
        <time>2016-05-07T11:58:36Z</time>
      </trkpt>
      <trkpt lat="44.253" lon="5.40936">
        <ele>1269</ele>
        <time>2016-05-07T11:58:37Z</time>
      </trkpt>
      <trkpt lat="44.25301" lon="5.4093">
        <ele>1270.4000244141</ele>
        <time>2016-05-07T11:58:42Z</time>
      </trkpt>
      <trkpt lat="44.25302" lon="5.40928">
        <ele>1270.4000244141</ele>
        <time>2016-05-07T11:58:45Z</time>
      </trkpt>
      <trkpt lat="44.25303" lon="5.40926">
        <ele>1272</ele>
        <time>2016-05-07T11:58:48Z</time>
      </trkpt>
      <trkpt lat="44.25305" lon="5.40923">
        <ele>1272.8000488281</ele>
        <time>2016-05-07T11:58:53Z</time>
      </trkpt>
      <trkpt lat="44.25306" lon="5.40921">
        <ele>1272.8000488281</ele>
        <time>2016-05-07T11:58:56Z</time>
      </trkpt>
      <trkpt lat="44.25308" lon="5.40919">
        <ele>1274.4000244141</ele>
        <time>2016-05-07T11:58:59Z</time>
      </trkpt>
      <trkpt lat="44.25311" lon="5.40917">
        <ele>1274.4000244141</ele>
        <time>2016-05-07T11:59:05Z</time>
      </trkpt>
      <trkpt lat="44.25318" lon="5.40911">
        <ele>1274.4000244141</ele>
        <time>2016-05-07T11:59:19Z</time>
      </trkpt>
      <trkpt lat="44.25322" lon="5.40908">
        <ele>1274.4000244141</ele>
        <time>2016-05-07T11:59:26Z</time>
      </trkpt>
      <trkpt lat="44.25327" lon="5.40905">
        <ele>1274.4000244141</ele>
        <time>2016-05-07T11:59:34Z</time>
      </trkpt>
      <trkpt lat="44.25327" lon="5.40904">
        <ele>1275</ele>
        <time>2016-05-07T11:59:36Z</time>
      </trkpt>
      <trkpt lat="44.25328" lon="5.40903">
        <ele>1275.4000244141</ele>
        <time>2016-05-07T11:59:37Z</time>
      </trkpt>
      <trkpt lat="44.2533" lon="5.40899">
        <ele>1276</ele>
        <time>2016-05-07T11:59:42Z</time>
      </trkpt>
      <trkpt lat="44.2533" lon="5.40898">
        <ele>1276.5999755859</ele>
        <time>2016-05-07T11:59:43Z</time>
      </trkpt>
      <trkpt lat="44.25335" lon="5.40894">
        <ele>1276.5999755859</ele>
        <time>2016-05-07T11:59:51Z</time>
      </trkpt>
      <trkpt lat="44.25336" lon="5.40892">
        <ele>1277</ele>
        <time>2016-05-07T11:59:54Z</time>
      </trkpt>
      <trkpt lat="44.25339" lon="5.40889">
        <ele>1277.5999755859</ele>
        <time>2016-05-07T11:59:59Z</time>
      </trkpt>
      <trkpt lat="44.2534" lon="5.40888">
        <ele>1278.1999511719</ele>
        <time>2016-05-07T12:00:00Z</time>
      </trkpt>
      <trkpt lat="44.25343" lon="5.40885">
        <ele>1278.8000488281</ele>
        <time>2016-05-07T12:00:06Z</time>
      </trkpt>
      <trkpt lat="44.25346" lon="5.40882">
        <ele>1279.5999755859</ele>
        <time>2016-05-07T12:00:11Z</time>
      </trkpt>
      <trkpt lat="44.25346" lon="5.40881">
        <ele>1280.1999511719</ele>
        <time>2016-05-07T12:00:12Z</time>
      </trkpt>
      <trkpt lat="44.25347" lon="5.4088">
        <ele>1280.8000488281</ele>
        <time>2016-05-07T12:00:13Z</time>
      </trkpt>
      <trkpt lat="44.25348" lon="5.40879">
        <ele>1281.5999755859</ele>
        <time>2016-05-07T12:00:14Z</time>
      </trkpt>
      <trkpt lat="44.25351" lon="5.40872">
        <ele>1282</ele>
        <time>2016-05-07T12:00:21Z</time>
      </trkpt>
      <trkpt lat="44.25352" lon="5.40871">
        <ele>1282.4000244141</ele>
        <time>2016-05-07T12:00:22Z</time>
      </trkpt>
      <trkpt lat="44.25355" lon="5.40867">
        <ele>1282.8000488281</ele>
        <time>2016-05-07T12:00:27Z</time>
      </trkpt>
      <trkpt lat="44.25355" lon="5.40866">
        <ele>1283.1999511719</ele>
        <time>2016-05-07T12:00:28Z</time>
      </trkpt>
      <trkpt lat="44.25357" lon="5.40864">
        <ele>1283.1999511719</ele>
        <time>2016-05-07T12:00:31Z</time>
      </trkpt>
      <trkpt lat="44.25359" lon="5.40863">
        <ele>1283.8000488281</ele>
        <time>2016-05-07T12:00:33Z</time>
      </trkpt>
      <trkpt lat="44.25361" lon="5.40858">
        <ele>1283.8000488281</ele>
        <time>2016-05-07T12:00:38Z</time>
      </trkpt>
      <trkpt lat="44.25362" lon="5.40857">
        <ele>1284.5999755859</ele>
        <time>2016-05-07T12:00:39Z</time>
      </trkpt>
      <trkpt lat="44.25364" lon="5.40852">
        <ele>1285.1999511719</ele>
        <time>2016-05-07T12:00:44Z</time>
      </trkpt>
      <trkpt lat="44.25365" lon="5.40851">
        <ele>1285.5999755859</ele>
        <time>2016-05-07T12:00:45Z</time>
      </trkpt>
      <trkpt lat="44.25365" lon="5.4085">
        <ele>1285.5999755859</ele>
        <time>2016-05-07T12:00:46Z</time>
      </trkpt>
      <trkpt lat="44.25367" lon="5.40848">
        <ele>1286.1999511719</ele>
        <time>2016-05-07T12:00:50Z</time>
      </trkpt>
      <trkpt lat="44.2537" lon="5.40844">
        <ele>1286.1999511719</ele>
        <time>2016-05-07T12:00:54Z</time>
      </trkpt>
      <trkpt lat="44.25371" lon="5.40842">
        <ele>1286.5999755859</ele>
        <time>2016-05-07T12:00:56Z</time>
      </trkpt>
      <trkpt lat="44.25373" lon="5.40835">
        <ele>1287</ele>
        <time>2016-05-07T12:01:01Z</time>
      </trkpt>
      <trkpt lat="44.25378" lon="5.40828">
        <ele>1287.8000488281</ele>
        <time>2016-05-07T12:01:07Z</time>
      </trkpt>
      <trkpt lat="44.2538" lon="5.40828">
        <ele>1287.8000488281</ele>
        <time>2016-05-07T12:01:08Z</time>
      </trkpt>
      <trkpt lat="44.25385" lon="5.40825">
        <ele>1288.8000488281</ele>
        <time>2016-05-07T12:01:13Z</time>
      </trkpt>
      <trkpt lat="44.25386" lon="5.40821">
        <ele>1288.8000488281</ele>
        <time>2016-05-07T12:01:17Z</time>
      </trkpt>
      <trkpt lat="44.25387" lon="5.40819">
        <ele>1289.8000488281</ele>
        <time>2016-05-07T12:01:19Z</time>
      </trkpt>
      <trkpt lat="44.25387" lon="5.40816">
        <ele>1289.8000488281</ele>
        <time>2016-05-07T12:01:21Z</time>
      </trkpt>
      <trkpt lat="44.25389" lon="5.40812">
        <ele>1290.4000244141</ele>
        <time>2016-05-07T12:01:25Z</time>
      </trkpt>
      <trkpt lat="44.25397" lon="5.40801">
        <ele>1290.8000488281</ele>
        <time>2016-05-07T12:01:36Z</time>
      </trkpt>
      <trkpt lat="44.25398" lon="5.408">
        <ele>1291.4000244141</ele>
        <time>2016-05-07T12:01:37Z</time>
      </trkpt>
      <trkpt lat="44.25403" lon="5.40796">
        <ele>1291.8000488281</ele>
        <time>2016-05-07T12:01:42Z</time>
      </trkpt>
      <trkpt lat="44.25404" lon="5.40795">
        <ele>1292.4000244141</ele>
        <time>2016-05-07T12:01:43Z</time>
      </trkpt>
      <trkpt lat="44.25404" lon="5.40788">
        <ele>1292.4000244141</ele>
        <time>2016-05-07T12:01:47Z</time>
      </trkpt>
      <trkpt lat="44.25404" lon="5.40787">
        <ele>1293</ele>
        <time>2016-05-07T12:01:48Z</time>
      </trkpt>
      <trkpt lat="44.25401" lon="5.40775">
        <ele>1293</ele>
        <time>2016-05-07T12:01:55Z</time>
      </trkpt>
      <trkpt lat="44.25399" lon="5.40761">
        <ele>1293</ele>
        <time>2016-05-07T12:02:03Z</time>
      </trkpt>
      <trkpt lat="44.25399" lon="5.40749">
        <ele>1293</ele>
        <time>2016-05-07T12:02:12Z</time>
      </trkpt>
      <trkpt lat="44.254" lon="5.40743">
        <ele>1293.4000244141</ele>
        <time>2016-05-07T12:02:17Z</time>
      </trkpt>
      <trkpt lat="44.25401" lon="5.40737">
        <ele>1293.4000244141</ele>
        <time>2016-05-07T12:02:22Z</time>
      </trkpt>
      <trkpt lat="44.25401" lon="5.40736">
        <ele>1294.1999511719</ele>
        <time>2016-05-07T12:02:23Z</time>
      </trkpt>
      <trkpt lat="44.25402" lon="5.40723">
        <ele>1295</ele>
        <time>2016-05-07T12:02:34Z</time>
      </trkpt>
      <trkpt lat="44.25402" lon="5.40721">
        <ele>1295</ele>
        <time>2016-05-07T12:02:36Z</time>
      </trkpt>
      <trkpt lat="44.25403" lon="5.40716">
        <ele>1295.5999755859</ele>
        <time>2016-05-07T12:02:40Z</time>
      </trkpt>
      <trkpt lat="44.25405" lon="5.40712">
        <ele>1295.5999755859</ele>
        <time>2016-05-07T12:02:45Z</time>
      </trkpt>
      <trkpt lat="44.25409" lon="5.40705">
        <ele>1297.4000244141</ele>
        <time>2016-05-07T12:02:52Z</time>
      </trkpt>
      <trkpt lat="44.2541" lon="5.40701">
        <ele>1297.4000244141</ele>
        <time>2016-05-07T12:02:55Z</time>
      </trkpt>
      <trkpt lat="44.25411" lon="5.40697">
        <ele>1298.4000244141</ele>
        <time>2016-05-07T12:02:58Z</time>
      </trkpt>
      <trkpt lat="44.25411" lon="5.40694">
        <ele>1298.4000244141</ele>
        <time>2016-05-07T12:03:00Z</time>
      </trkpt>
      <trkpt lat="44.25413" lon="5.40689">
        <ele>1299.4000244141</ele>
        <time>2016-05-07T12:03:04Z</time>
      </trkpt>
      <trkpt lat="44.25414" lon="5.40688">
        <ele>1299.4000244141</ele>
        <time>2016-05-07T12:03:05Z</time>
      </trkpt>
      <trkpt lat="44.25417" lon="5.40686">
        <ele>1300.4000244141</ele>
        <time>2016-05-07T12:03:09Z</time>
      </trkpt>
      <trkpt lat="44.25418" lon="5.40685">
        <ele>1301.4000244141</ele>
        <time>2016-05-07T12:03:10Z</time>
      </trkpt>
      <trkpt lat="44.2542" lon="5.40682">
        <ele>1302.4000244141</ele>
        <time>2016-05-07T12:03:12Z</time>
      </trkpt>
      <trkpt lat="44.25422" lon="5.4068">
        <ele>1302.4000244141</ele>
        <time>2016-05-07T12:03:16Z</time>
      </trkpt>
      <trkpt lat="44.25422" lon="5.4068">
        <ele>1301.5999755859</ele>
        <time>2016-05-07T12:03:24Z</time>
      </trkpt>
      <trkpt lat="44.25422" lon="5.4068">
        <ele>1300.8000488281</ele>
        <time>2016-05-07T12:03:30Z</time>
      </trkpt>
      <trkpt lat="44.25422" lon="5.4068">
        <ele>1300.4000244141</ele>
        <time>2016-05-07T12:03:36Z</time>
      </trkpt>
      <trkpt lat="44.25422" lon="5.4068">
        <ele>1300.4000244141</ele>
        <time>2016-05-07T12:04:36Z</time>
      </trkpt>
      <trkpt lat="44.25425" lon="5.40672">
        <ele>1300.4000244141</ele>
        <time>2016-05-07T12:06:11Z</time>
      </trkpt>
      <trkpt lat="44.25435" lon="5.40659">
        <ele>1300.4000244141</ele>
        <time>2016-05-07T12:06:16Z</time>
      </trkpt>
      <trkpt lat="44.25445" lon="5.40641">
        <ele>1300.4000244141</ele>
        <time>2016-05-07T12:06:21Z</time>
      </trkpt>
      <trkpt lat="44.25447" lon="5.40629">
        <ele>1299.4000244141</ele>
        <time>2016-05-07T12:06:24Z</time>
      </trkpt>
      <trkpt lat="44.25451" lon="5.4062">
        <ele>1299.4000244141</ele>
        <time>2016-05-07T12:06:26Z</time>
      </trkpt>
      <trkpt lat="44.25468" lon="5.40603">
        <ele>1298.1999511719</ele>
        <time>2016-05-07T12:06:30Z</time>
      </trkpt>
      <trkpt lat="44.25475" lon="5.40601">
        <ele>1298.1999511719</ele>
        <time>2016-05-07T12:06:31Z</time>
      </trkpt>
      <trkpt lat="44.25486" lon="5.40595">
        <ele>1298.1999511719</ele>
        <time>2016-05-07T12:06:34Z</time>
      </trkpt>
      <trkpt lat="44.25488" lon="5.40593">
        <ele>1296.8000488281</ele>
        <time>2016-05-07T12:06:35Z</time>
      </trkpt>
      <trkpt lat="44.25491" lon="5.40592">
        <ele>1295</ele>
        <time>2016-05-07T12:06:36Z</time>
      </trkpt>
      <trkpt lat="44.25499" lon="5.40588">
        <ele>1295</ele>
        <time>2016-05-07T12:06:39Z</time>
      </trkpt>
      <trkpt lat="44.25503" lon="5.40581">
        <ele>1293.4000244141</ele>
        <time>2016-05-07T12:06:41Z</time>
      </trkpt>
      <trkpt lat="44.25504" lon="5.40577">
        <ele>1291.8000488281</ele>
        <time>2016-05-07T12:06:42Z</time>
      </trkpt>
      <trkpt lat="44.25508" lon="5.40565">
        <ele>1291.8000488281</ele>
        <time>2016-05-07T12:06:44Z</time>
      </trkpt>
      <trkpt lat="44.25517" lon="5.40547">
        <ele>1290.1999511719</ele>
        <time>2016-05-07T12:06:47Z</time>
      </trkpt>
      <trkpt lat="44.25525" lon="5.4053">
        <ele>1290.1999511719</ele>
        <time>2016-05-07T12:06:50Z</time>
      </trkpt>
      <trkpt lat="44.2553" lon="5.40522">
        <ele>1288.4000244141</ele>
        <time>2016-05-07T12:06:53Z</time>
      </trkpt>
      <trkpt lat="44.25537" lon="5.40511">
        <ele>1286.5999755859</ele>
        <time>2016-05-07T12:06:59Z</time>
      </trkpt>
      <trkpt lat="44.25538" lon="5.4051">
        <ele>1286.5999755859</ele>
        <time>2016-05-07T12:07:00Z</time>
      </trkpt>
      <trkpt lat="44.2554" lon="5.40511">
        <ele>1286.5999755859</ele>
        <time>2016-05-07T12:07:01Z</time>
      </trkpt>
      <trkpt lat="44.25543" lon="5.40509">
        <ele>1286.5999755859</ele>
        <time>2016-05-07T12:07:03Z</time>
      </trkpt>
      <trkpt lat="44.25545" lon="5.40508">
        <ele>1284.8000488281</ele>
        <time>2016-05-07T12:07:04Z</time>
      </trkpt>
      <trkpt lat="44.25547" lon="5.40507">
        <ele>1283</ele>
        <time>2016-05-07T12:07:05Z</time>
      </trkpt>
      <trkpt lat="44.25554" lon="5.405">
        <ele>1283</ele>
        <time>2016-05-07T12:07:10Z</time>
      </trkpt>
      <trkpt lat="44.25562" lon="5.40483">
        <ele>1283</ele>
        <time>2016-05-07T12:07:20Z</time>
      </trkpt>
      <trkpt lat="44.25565" lon="5.4047">
        <ele>1283.5999755859</ele>
        <time>2016-05-07T12:07:28Z</time>
      </trkpt>
      <trkpt lat="44.25566" lon="5.40462">
        <ele>1284.1999511719</ele>
        <time>2016-05-07T12:07:33Z</time>
      </trkpt>
      <trkpt lat="44.25567" lon="5.40457">
        <ele>1284.1999511719</ele>
        <time>2016-05-07T12:07:36Z</time>
      </trkpt>
      <trkpt lat="44.25568" lon="5.40452">
        <ele>1285.1999511719</ele>
        <time>2016-05-07T12:07:39Z</time>
      </trkpt>
      <trkpt lat="44.25573" lon="5.40445">
        <ele>1286.4000244141</ele>
        <time>2016-05-07T12:07:45Z</time>
      </trkpt>
      <trkpt lat="44.25574" lon="5.40443">
        <ele>1286.4000244141</ele>
        <time>2016-05-07T12:07:46Z</time>
      </trkpt>
      <trkpt lat="44.25578" lon="5.40439">
        <ele>1287.5999755859</ele>
        <time>2016-05-07T12:07:51Z</time>
      </trkpt>
      <trkpt lat="44.25583" lon="5.40433">
        <ele>1288</ele>
        <time>2016-05-07T12:07:56Z</time>
      </trkpt>
      <trkpt lat="44.25595" lon="5.4042">
        <ele>1288</ele>
        <time>2016-05-07T12:08:05Z</time>
      </trkpt>
      <trkpt lat="44.25611" lon="5.40409">
        <ele>1288</ele>
        <time>2016-05-07T12:08:14Z</time>
      </trkpt>
      <trkpt lat="44.25621" lon="5.40404">
        <ele>1289</ele>
        <time>2016-05-07T12:08:20Z</time>
      </trkpt>
      <trkpt lat="44.25623" lon="5.40404">
        <ele>1289</ele>
        <time>2016-05-07T12:08:21Z</time>
      </trkpt>
      <trkpt lat="44.25628" lon="5.40423">
        <ele>1289</ele>
        <time>2016-05-07T12:08:28Z</time>
      </trkpt>
      <trkpt lat="44.25639" lon="5.40451">
        <ele>1289</ele>
        <time>2016-05-07T12:08:34Z</time>
      </trkpt>
      <trkpt lat="44.25645" lon="5.40457">
        <ele>1289</ele>
        <time>2016-05-07T12:08:37Z</time>
      </trkpt>
      <trkpt lat="44.25646" lon="5.40457">
        <ele>1289</ele>
        <time>2016-05-07T12:08:38Z</time>
      </trkpt>
      <trkpt lat="44.25646" lon="5.40457">
        <ele>1289.4000244141</ele>
        <time>2016-05-07T12:08:39Z</time>
      </trkpt>
      <trkpt lat="44.25649" lon="5.40458">
        <ele>1289.4000244141</ele>
        <time>2016-05-07T12:08:43Z</time>
      </trkpt>
      <trkpt lat="44.25649" lon="5.40458">
        <ele>1289</ele>
        <time>2016-05-07T12:08:44Z</time>
      </trkpt>
      <trkpt lat="44.25649" lon="5.40458">
        <ele>1288</ele>
        <time>2016-05-07T12:08:45Z</time>
      </trkpt>
      <trkpt lat="44.25649" lon="5.40458">
        <ele>1287.1999511719</ele>
        <time>2016-05-07T12:08:51Z</time>
      </trkpt>
      <trkpt lat="44.25649" lon="5.40458">
        <ele>1286.4000244141</ele>
        <time>2016-05-07T12:08:52Z</time>
      </trkpt>
      <trkpt lat="44.25649" lon="5.40458">
        <ele>1285.5999755859</ele>
        <time>2016-05-07T12:08:57Z</time>
      </trkpt>
      <trkpt lat="44.2565" lon="5.40458">
        <ele>1284.8000488281</ele>
        <time>2016-05-07T12:09:03Z</time>
      </trkpt>
      <trkpt lat="44.2565" lon="5.40458">
        <ele>1284.8000488281</ele>
        <time>2016-05-07T12:09:05Z</time>
      </trkpt>
      <trkpt lat="44.25651" lon="5.40457">
        <ele>1285.1999511719</ele>
        <time>2016-05-07T12:09:10Z</time>
      </trkpt>
      <trkpt lat="44.25651" lon="5.40457">
        <ele>1285.5999755859</ele>
        <time>2016-05-07T12:09:11Z</time>
      </trkpt>
      <trkpt lat="44.25652" lon="5.40457">
        <ele>1286</ele>
        <time>2016-05-07T12:09:12Z</time>
      </trkpt>
      <trkpt lat="44.25668" lon="5.40447">
        <ele>1287</ele>
        <time>2016-05-07T12:09:19Z</time>
      </trkpt>
      <trkpt lat="44.25678" lon="5.40442">
        <ele>1287</ele>
        <time>2016-05-07T12:09:25Z</time>
      </trkpt>
      <trkpt lat="44.25682" lon="5.40437">
        <ele>1287</ele>
        <time>2016-05-07T12:09:32Z</time>
      </trkpt>
      <trkpt lat="44.25683" lon="5.40433">
        <ele>1287</ele>
        <time>2016-05-07T12:09:38Z</time>
      </trkpt>
      <trkpt lat="44.25685" lon="5.40432">
        <ele>1288</ele>
        <time>2016-05-07T12:09:42Z</time>
      </trkpt>
      <trkpt lat="44.25685" lon="5.4043">
        <ele>1288</ele>
        <time>2016-05-07T12:09:46Z</time>
      </trkpt>
      <trkpt lat="44.25685" lon="5.40428">
        <ele>1288.5999755859</ele>
        <time>2016-05-07T12:09:48Z</time>
      </trkpt>
      <trkpt lat="44.25686" lon="5.40426">
        <ele>1288.5999755859</ele>
        <time>2016-05-07T12:09:51Z</time>
      </trkpt>
      <trkpt lat="44.25686" lon="5.40424">
        <ele>1289.1999511719</ele>
        <time>2016-05-07T12:09:53Z</time>
      </trkpt>
      <trkpt lat="44.25687" lon="5.40423">
        <ele>1289.1999511719</ele>
        <time>2016-05-07T12:09:56Z</time>
      </trkpt>
      <trkpt lat="44.25687" lon="5.40421">
        <ele>1290.4000244141</ele>
        <time>2016-05-07T12:09:59Z</time>
      </trkpt>
      <trkpt lat="44.25687" lon="5.4042">
        <ele>1290.4000244141</ele>
        <time>2016-05-07T12:10:01Z</time>
      </trkpt>
      <trkpt lat="44.25687" lon="5.40417">
        <ele>1291.8000488281</ele>
        <time>2016-05-07T12:10:05Z</time>
      </trkpt>
      <trkpt lat="44.25687" lon="5.40415">
        <ele>1291.8000488281</ele>
        <time>2016-05-07T12:10:07Z</time>
      </trkpt>
      <trkpt lat="44.25687" lon="5.40412">
        <ele>1292.4000244141</ele>
        <time>2016-05-07T12:10:11Z</time>
      </trkpt>
      <trkpt lat="44.25688" lon="5.4041">
        <ele>1292.4000244141</ele>
        <time>2016-05-07T12:10:13Z</time>
      </trkpt>
      <trkpt lat="44.25689" lon="5.40409">
        <ele>1293</ele>
        <time>2016-05-07T12:10:16Z</time>
      </trkpt>
      <trkpt lat="44.25689" lon="5.40409">
        <ele>1293.5999755859</ele>
        <time>2016-05-07T12:10:17Z</time>
      </trkpt>
      <trkpt lat="44.25689" lon="5.40408">
        <ele>1293.5999755859</ele>
        <time>2016-05-07T12:10:20Z</time>
      </trkpt>
      <trkpt lat="44.25689" lon="5.40408">
        <ele>1294.1999511719</ele>
        <time>2016-05-07T12:10:22Z</time>
      </trkpt>
      <trkpt lat="44.25689" lon="5.40408">
        <ele>1294.8000488281</ele>
        <time>2016-05-07T12:10:28Z</time>
      </trkpt>
      <trkpt lat="44.25689" lon="5.40409">
        <ele>1295.5999755859</ele>
        <time>2016-05-07T12:10:33Z</time>
      </trkpt>
      <trkpt lat="44.25689" lon="5.40409">
        <ele>1296.1999511719</ele>
        <time>2016-05-07T12:10:34Z</time>
      </trkpt>
      <trkpt lat="44.25687" lon="5.40402">
        <ele>1296.1999511719</ele>
        <time>2016-05-07T12:10:48Z</time>
      </trkpt>
      <trkpt lat="44.25687" lon="5.40399">
        <ele>1296.5999755859</ele>
        <time>2016-05-07T12:10:51Z</time>
      </trkpt>
      <trkpt lat="44.25689" lon="5.40396">
        <ele>1296.5999755859</ele>
        <time>2016-05-07T12:10:54Z</time>
      </trkpt>
      <trkpt lat="44.25689" lon="5.40394">
        <ele>1297</ele>
        <time>2016-05-07T12:10:56Z</time>
      </trkpt>
      <trkpt lat="44.25689" lon="5.40393">
        <ele>1297.4000244141</ele>
        <time>2016-05-07T12:10:57Z</time>
      </trkpt>
      <trkpt lat="44.25691" lon="5.40389">
        <ele>1298</ele>
        <time>2016-05-07T12:11:02Z</time>
      </trkpt>
      <trkpt lat="44.2569" lon="5.40384">
        <ele>1298.4000244141</ele>
        <time>2016-05-07T12:11:08Z</time>
      </trkpt>
      <trkpt lat="44.25689" lon="5.40382">
        <ele>1298.4000244141</ele>
        <time>2016-05-07T12:11:10Z</time>
      </trkpt>
      <trkpt lat="44.2569" lon="5.40379">
        <ele>1299.4000244141</ele>
        <time>2016-05-07T12:11:14Z</time>
      </trkpt>
      <trkpt lat="44.25691" lon="5.40378">
        <ele>1299.4000244141</ele>
        <time>2016-05-07T12:11:16Z</time>
      </trkpt>
      <trkpt lat="44.25692" lon="5.40376">
        <ele>1299.4000244141</ele>
        <time>2016-05-07T12:11:18Z</time>
      </trkpt>
      <trkpt lat="44.25692" lon="5.40374">
        <ele>1300.8000488281</ele>
        <time>2016-05-07T12:11:20Z</time>
      </trkpt>
      <trkpt lat="44.25694" lon="5.40371">
        <ele>1300.8000488281</ele>
        <time>2016-05-07T12:11:23Z</time>
      </trkpt>
      <trkpt lat="44.25695" lon="5.40363">
        <ele>1300.8000488281</ele>
        <time>2016-05-07T12:11:31Z</time>
      </trkpt>
      <trkpt lat="44.25695" lon="5.40362">
        <ele>1301.4000244141</ele>
        <time>2016-05-07T12:11:32Z</time>
      </trkpt>
      <trkpt lat="44.25697" lon="5.40358">
        <ele>1302.8000488281</ele>
        <time>2016-05-07T12:11:37Z</time>
      </trkpt>
      <trkpt lat="44.25698" lon="5.40356">
        <ele>1302.8000488281</ele>
        <time>2016-05-07T12:11:40Z</time>
      </trkpt>
      <trkpt lat="44.25699" lon="5.40354">
        <ele>1303.5999755859</ele>
        <time>2016-05-07T12:11:43Z</time>
      </trkpt>
      <trkpt lat="44.25702" lon="5.4035">
        <ele>1303.5999755859</ele>
        <time>2016-05-07T12:11:48Z</time>
      </trkpt>
      <trkpt lat="44.25705" lon="5.40345">
        <ele>1304.4000244141</ele>
        <time>2016-05-07T12:11:54Z</time>
      </trkpt>
      <trkpt lat="44.25708" lon="5.4034">
        <ele>1305.1999511719</ele>
        <time>2016-05-07T12:12:00Z</time>
      </trkpt>
      <trkpt lat="44.25709" lon="5.40339">
        <ele>1306.1999511719</ele>
        <time>2016-05-07T12:12:07Z</time>
      </trkpt>
      <trkpt lat="44.25709" lon="5.40339">
        <ele>1306.1999511719</ele>
        <time>2016-05-07T12:12:08Z</time>
      </trkpt>
      <trkpt lat="44.25709" lon="5.40339">
        <ele>1307</ele>
        <time>2016-05-07T12:12:13Z</time>
      </trkpt>
      <trkpt lat="44.25711" lon="5.40338">
        <ele>1308.8000488281</ele>
        <time>2016-05-07T12:12:18Z</time>
      </trkpt>
      <trkpt lat="44.25713" lon="5.40335">
        <ele>1308.8000488281</ele>
        <time>2016-05-07T12:12:20Z</time>
      </trkpt>
      <trkpt lat="44.2572" lon="5.40326">
        <ele>1308.8000488281</ele>
        <time>2016-05-07T12:12:28Z</time>
      </trkpt>
      <trkpt lat="44.25722" lon="5.40324">
        <ele>1309.1999511719</ele>
        <time>2016-05-07T12:12:30Z</time>
      </trkpt>
      <trkpt lat="44.25729" lon="5.40321">
        <ele>1309.5999755859</ele>
        <time>2016-05-07T12:12:36Z</time>
      </trkpt>
      <trkpt lat="44.25731" lon="5.40321">
        <ele>1309.5999755859</ele>
        <time>2016-05-07T12:12:37Z</time>
      </trkpt>
      <trkpt lat="44.25734" lon="5.40319">
        <ele>1310</ele>
        <time>2016-05-07T12:12:41Z</time>
      </trkpt>
      <trkpt lat="44.25739" lon="5.40319">
        <ele>1310</ele>
        <time>2016-05-07T12:12:46Z</time>
      </trkpt>
      <trkpt lat="44.2574" lon="5.40319">
        <ele>1310.8000488281</ele>
        <time>2016-05-07T12:12:47Z</time>
      </trkpt>
      <trkpt lat="44.25747" lon="5.40318">
        <ele>1310.8000488281</ele>
        <time>2016-05-07T12:12:55Z</time>
      </trkpt>
      <trkpt lat="44.25753" lon="5.40317">
        <ele>1310.8000488281</ele>
        <time>2016-05-07T12:13:01Z</time>
      </trkpt>
      <trkpt lat="44.25759" lon="5.40315">
        <ele>1310.8000488281</ele>
        <time>2016-05-07T12:13:07Z</time>
      </trkpt>
      <trkpt lat="44.25761" lon="5.40315">
        <ele>1310.8000488281</ele>
        <time>2016-05-07T12:13:08Z</time>
      </trkpt>
      <trkpt lat="44.25765" lon="5.40317">
        <ele>1310.4000244141</ele>
        <time>2016-05-07T12:13:10Z</time>
      </trkpt>
      <trkpt lat="44.25769" lon="5.4032">
        <ele>1310.4000244141</ele>
        <time>2016-05-07T12:13:12Z</time>
      </trkpt>
      <trkpt lat="44.25771" lon="5.40321">
        <ele>1310.4000244141</ele>
        <time>2016-05-07T12:13:13Z</time>
      </trkpt>
      <trkpt lat="44.25775" lon="5.40323">
        <ele>1310.4000244141</ele>
        <time>2016-05-07T12:13:15Z</time>
      </trkpt>
      <trkpt lat="44.25777" lon="5.40322">
        <ele>1309</ele>
        <time>2016-05-07T12:13:16Z</time>
      </trkpt>
      <trkpt lat="44.25788" lon="5.40312">
        <ele>1308</ele>
        <time>2016-05-07T12:13:22Z</time>
      </trkpt>
      <trkpt lat="44.25791" lon="5.40311">
        <ele>1308</ele>
        <time>2016-05-07T12:13:24Z</time>
      </trkpt>
      <trkpt lat="44.25797" lon="5.40312">
        <ele>1308</ele>
        <time>2016-05-07T12:13:27Z</time>
      </trkpt>
      <trkpt lat="44.25798" lon="5.40312">
        <ele>1307</ele>
        <time>2016-05-07T12:13:28Z</time>
      </trkpt>
      <trkpt lat="44.25806" lon="5.4031">
        <ele>1307</ele>
        <time>2016-05-07T12:13:32Z</time>
      </trkpt>
      <trkpt lat="44.25808" lon="5.40309">
        <ele>1305.8000488281</ele>
        <time>2016-05-07T12:13:33Z</time>
      </trkpt>
      <trkpt lat="44.2581" lon="5.40308">
        <ele>1304.4000244141</ele>
        <time>2016-05-07T12:13:34Z</time>
      </trkpt>
      <trkpt lat="44.25811" lon="5.40301">
        <ele>1304.4000244141</ele>
        <time>2016-05-07T12:13:38Z</time>
      </trkpt>
      <trkpt lat="44.25811" lon="5.403">
        <ele>1303</ele>
        <time>2016-05-07T12:13:39Z</time>
      </trkpt>
      <trkpt lat="44.25809" lon="5.40295">
        <ele>1300.1999511719</ele>
        <time>2016-05-07T12:13:45Z</time>
      </trkpt>
      <trkpt lat="44.25811" lon="5.40292">
        <ele>1300.1999511719</ele>
        <time>2016-05-07T12:13:47Z</time>
      </trkpt>
      <trkpt lat="44.25813" lon="5.40289">
        <ele>1298.8000488281</ele>
        <time>2016-05-07T12:13:51Z</time>
      </trkpt>
      <trkpt lat="44.25814" lon="5.40283">
        <ele>1298.8000488281</ele>
        <time>2016-05-07T12:13:55Z</time>
      </trkpt>
      <trkpt lat="44.25813" lon="5.40278">
        <ele>1298.8000488281</ele>
        <time>2016-05-07T12:14:00Z</time>
      </trkpt>
      <trkpt lat="44.25809" lon="5.40273">
        <ele>1300</ele>
        <time>2016-05-07T12:14:08Z</time>
      </trkpt>
      <trkpt lat="44.25809" lon="5.4027">
        <ele>1300</ele>
        <time>2016-05-07T12:14:11Z</time>
      </trkpt>
      <trkpt lat="44.25809" lon="5.40268">
        <ele>1300.8000488281</ele>
        <time>2016-05-07T12:14:14Z</time>
      </trkpt>
      <trkpt lat="44.25809" lon="5.40261">
        <ele>1300.8000488281</ele>
        <time>2016-05-07T12:14:19Z</time>
      </trkpt>
      <trkpt lat="44.25809" lon="5.40259">
        <ele>1301.8000488281</ele>
        <time>2016-05-07T12:14:20Z</time>
      </trkpt>
      <trkpt lat="44.25808" lon="5.40254">
        <ele>1302.5999755859</ele>
        <time>2016-05-07T12:14:25Z</time>
      </trkpt>
      <trkpt lat="44.25807" lon="5.40253">
        <ele>1302.5999755859</ele>
        <time>2016-05-07T12:14:27Z</time>
      </trkpt>
      <trkpt lat="44.25803" lon="5.40248">
        <ele>1302.5999755859</ele>
        <time>2016-05-07T12:14:36Z</time>
      </trkpt>
      <trkpt lat="44.25803" lon="5.40248">
        <ele>1303.5999755859</ele>
        <time>2016-05-07T12:14:37Z</time>
      </trkpt>
      <trkpt lat="44.25801" lon="5.40244">
        <ele>1305</ele>
        <time>2016-05-07T12:14:43Z</time>
      </trkpt>
      <trkpt lat="44.258" lon="5.40243">
        <ele>1305</ele>
        <time>2016-05-07T12:14:46Z</time>
      </trkpt>
      <trkpt lat="44.258" lon="5.40239">
        <ele>1305</ele>
        <time>2016-05-07T12:14:52Z</time>
      </trkpt>
      <trkpt lat="44.258" lon="5.40235">
        <ele>1305.8000488281</ele>
        <time>2016-05-07T12:14:55Z</time>
      </trkpt>
      <trkpt lat="44.25801" lon="5.40228">
        <ele>1306.8000488281</ele>
        <time>2016-05-07T12:15:01Z</time>
      </trkpt>
      <trkpt lat="44.25805" lon="5.40223">
        <ele>1307.5999755859</ele>
        <time>2016-05-07T12:15:06Z</time>
      </trkpt>
      <trkpt lat="44.25805" lon="5.40221">
        <ele>1308.4000244141</ele>
        <time>2016-05-07T12:15:07Z</time>
      </trkpt>
      <trkpt lat="44.25807" lon="5.4022">
        <ele>1308.4000244141</ele>
        <time>2016-05-07T12:15:10Z</time>
      </trkpt>
      <trkpt lat="44.25807" lon="5.40219">
        <ele>1309.1999511719</ele>
        <time>2016-05-07T12:15:12Z</time>
      </trkpt>
      <trkpt lat="44.25807" lon="5.40218">
        <ele>1310.1999511719</ele>
        <time>2016-05-07T12:15:13Z</time>
      </trkpt>
      <trkpt lat="44.25808" lon="5.40216">
        <ele>1310.1999511719</ele>
        <time>2016-05-07T12:15:16Z</time>
      </trkpt>
      <trkpt lat="44.25811" lon="5.4021">
        <ele>1310.1999511719</ele>
        <time>2016-05-07T12:15:25Z</time>
      </trkpt>
      <trkpt lat="44.25812" lon="5.40201">
        <ele>1310.1999511719</ele>
        <time>2016-05-07T12:15:33Z</time>
      </trkpt>
      <trkpt lat="44.25813" lon="5.40199">
        <ele>1309.5999755859</ele>
        <time>2016-05-07T12:15:35Z</time>
      </trkpt>
      <trkpt lat="44.25813" lon="5.40198">
        <ele>1309.1999511719</ele>
        <time>2016-05-07T12:15:36Z</time>
      </trkpt>
      <trkpt lat="44.25812" lon="5.40197">
        <ele>1309.1999511719</ele>
        <time>2016-05-07T12:15:38Z</time>
      </trkpt>
      <trkpt lat="44.25813" lon="5.40196">
        <ele>1308.5999755859</ele>
        <time>2016-05-07T12:15:41Z</time>
      </trkpt>
      <trkpt lat="44.25815" lon="5.4019">
        <ele>1308.5999755859</ele>
        <time>2016-05-07T12:15:43Z</time>
      </trkpt>
      <trkpt lat="44.25819" lon="5.40179">
        <ele>1308</ele>
        <time>2016-05-07T12:15:47Z</time>
      </trkpt>
      <trkpt lat="44.25819" lon="5.40178">
        <ele>1308</ele>
        <time>2016-05-07T12:15:48Z</time>
      </trkpt>
      <trkpt lat="44.25818" lon="5.40179">
        <ele>1308</ele>
        <time>2016-05-07T12:15:49Z</time>
      </trkpt>
      <trkpt lat="44.25818" lon="5.40179">
        <ele>1308</ele>
        <time>2016-05-07T12:15:52Z</time>
      </trkpt>
      <trkpt lat="44.25818" lon="5.40179">
        <ele>1306.8000488281</ele>
        <time>2016-05-07T12:15:53Z</time>
      </trkpt>
      <trkpt lat="44.25818" lon="5.40179">
        <ele>1305.5999755859</ele>
        <time>2016-05-07T12:15:59Z</time>
      </trkpt>
      <trkpt lat="44.25819" lon="5.40177">
        <ele>1305</ele>
        <time>2016-05-07T12:16:04Z</time>
      </trkpt>
      <trkpt lat="44.25819" lon="5.40176">
        <ele>1305</ele>
        <time>2016-05-07T12:16:05Z</time>
      </trkpt>
      <trkpt lat="44.2582" lon="5.4017">
        <ele>1305</ele>
        <time>2016-05-07T12:16:10Z</time>
      </trkpt>
      <trkpt lat="44.25821" lon="5.40166">
        <ele>1305</ele>
        <time>2016-05-07T12:16:14Z</time>
      </trkpt>
      <trkpt lat="44.25823" lon="5.40157">
        <ele>1305</ele>
        <time>2016-05-07T12:16:20Z</time>
      </trkpt>
      <trkpt lat="44.25824" lon="5.40148">
        <ele>1305</ele>
        <time>2016-05-07T12:16:26Z</time>
      </trkpt>
      <trkpt lat="44.25824" lon="5.40143">
        <ele>1305</ele>
        <time>2016-05-07T12:16:32Z</time>
      </trkpt>
      <trkpt lat="44.25824" lon="5.40143">
        <ele>1304.5999755859</ele>
        <time>2016-05-07T12:16:33Z</time>
      </trkpt>
      <trkpt lat="44.25826" lon="5.40138">
        <ele>1304.1999511719</ele>
        <time>2016-05-07T12:16:39Z</time>
      </trkpt>
      <trkpt lat="44.25827" lon="5.40135">
        <ele>1303.8000488281</ele>
        <time>2016-05-07T12:16:40Z</time>
      </trkpt>
      <trkpt lat="44.25835" lon="5.40118">
        <ele>1303.8000488281</ele>
        <time>2016-05-07T12:16:44Z</time>
      </trkpt>
      <trkpt lat="44.25837" lon="5.40115">
        <ele>1303.4000244141</ele>
        <time>2016-05-07T12:16:45Z</time>
      </trkpt>
      <trkpt lat="44.25838" lon="5.40108">
        <ele>1303.4000244141</ele>
        <time>2016-05-07T12:16:47Z</time>
      </trkpt>
      <trkpt lat="44.25838" lon="5.40104">
        <ele>1303.4000244141</ele>
        <time>2016-05-07T12:16:49Z</time>
      </trkpt>
      <trkpt lat="44.2584" lon="5.401">
        <ele>1302.5999755859</ele>
        <time>2016-05-07T12:16:51Z</time>
      </trkpt>
      <trkpt lat="44.25843" lon="5.40089">
        <ele>1302.5999755859</ele>
        <time>2016-05-07T12:16:55Z</time>
      </trkpt>
      <trkpt lat="44.25844" lon="5.40086">
        <ele>1301.8000488281</ele>
        <time>2016-05-07T12:16:56Z</time>
      </trkpt>
      <trkpt lat="44.25846" lon="5.40083">
        <ele>1300.5999755859</ele>
        <time>2016-05-07T12:16:57Z</time>
      </trkpt>
      <trkpt lat="44.2585" lon="5.40074">
        <ele>1300.5999755859</ele>
        <time>2016-05-07T12:17:00Z</time>
      </trkpt>
      <trkpt lat="44.25852" lon="5.40068">
        <ele>1299.5999755859</ele>
        <time>2016-05-07T12:17:02Z</time>
      </trkpt>
      <trkpt lat="44.25859" lon="5.40052">
        <ele>1299.5999755859</ele>
        <time>2016-05-07T12:17:08Z</time>
      </trkpt>
      <trkpt lat="44.25861" lon="5.40047">
        <ele>1298.4000244141</ele>
        <time>2016-05-07T12:17:09Z</time>
      </trkpt>
      <trkpt lat="44.25862" lon="5.40042">
        <ele>1297.4000244141</ele>
        <time>2016-05-07T12:17:10Z</time>
      </trkpt>
      <trkpt lat="44.25863" lon="5.40036">
        <ele>1296.5999755859</ele>
        <time>2016-05-07T12:17:11Z</time>
      </trkpt>
      <trkpt lat="44.25865" lon="5.40031">
        <ele>1295.5999755859</ele>
        <time>2016-05-07T12:17:12Z</time>
      </trkpt>
      <trkpt lat="44.25867" lon="5.40027">
        <ele>1294.8000488281</ele>
        <time>2016-05-07T12:17:13Z</time>
      </trkpt>
      <trkpt lat="44.25868" lon="5.40024">
        <ele>1294</ele>
        <time>2016-05-07T12:17:14Z</time>
      </trkpt>
      <trkpt lat="44.2587" lon="5.4002">
        <ele>1293.1999511719</ele>
        <time>2016-05-07T12:17:15Z</time>
      </trkpt>
      <trkpt lat="44.25874" lon="5.40006">
        <ele>1293.1999511719</ele>
        <time>2016-05-07T12:17:20Z</time>
      </trkpt>
      <trkpt lat="44.25875" lon="5.40004">
        <ele>1292.5999755859</ele>
        <time>2016-05-07T12:17:21Z</time>
      </trkpt>
      <trkpt lat="44.25875" lon="5.40002">
        <ele>1291.8000488281</ele>
        <time>2016-05-07T12:17:22Z</time>
      </trkpt>
      <trkpt lat="44.25877" lon="5.39991">
        <ele>1291.8000488281</ele>
        <time>2016-05-07T12:17:26Z</time>
      </trkpt>
      <trkpt lat="44.25886" lon="5.39972">
        <ele>1291.8000488281</ele>
        <time>2016-05-07T12:17:31Z</time>
      </trkpt>
      <trkpt lat="44.25898" lon="5.39943">
        <ele>1291.8000488281</ele>
        <time>2016-05-07T12:17:38Z</time>
      </trkpt>
      <trkpt lat="44.25898" lon="5.3994">
        <ele>1290.8000488281</ele>
        <time>2016-05-07T12:17:39Z</time>
      </trkpt>
      <trkpt lat="44.25905" lon="5.39918">
        <ele>1290.4000244141</ele>
        <time>2016-05-07T12:17:44Z</time>
      </trkpt>
      <trkpt lat="44.25906" lon="5.39914">
        <ele>1290.4000244141</ele>
        <time>2016-05-07T12:17:45Z</time>
      </trkpt>
      <trkpt lat="44.25912" lon="5.39892">
        <ele>1289.5999755859</ele>
        <time>2016-05-07T12:17:50Z</time>
      </trkpt>
      <trkpt lat="44.25916" lon="5.39878">
        <ele>1289.5999755859</ele>
        <time>2016-05-07T12:17:53Z</time>
      </trkpt>
      <trkpt lat="44.25922" lon="5.39863">
        <ele>1288.1999511719</ele>
        <time>2016-05-07T12:17:56Z</time>
      </trkpt>
      <trkpt lat="44.25939" lon="5.39846">
        <ele>1288.1999511719</ele>
        <time>2016-05-07T12:18:01Z</time>
      </trkpt>
      <trkpt lat="44.25942" lon="5.39842">
        <ele>1286.8000488281</ele>
        <time>2016-05-07T12:18:02Z</time>
      </trkpt>
      <trkpt lat="44.25958" lon="5.39818">
        <ele>1286.1999511719</ele>
        <time>2016-05-07T12:18:07Z</time>
      </trkpt>
      <trkpt lat="44.25964" lon="5.3981">
        <ele>1286.1999511719</ele>
        <time>2016-05-07T12:18:09Z</time>
      </trkpt>
      <trkpt lat="44.2597" lon="5.39802">
        <ele>1286.1999511719</ele>
        <time>2016-05-07T12:18:11Z</time>
      </trkpt>
      <trkpt lat="44.25977" lon="5.39793">
        <ele>1284.4000244141</ele>
        <time>2016-05-07T12:18:13Z</time>
      </trkpt>
      <trkpt lat="44.25982" lon="5.39782">
        <ele>1284.4000244141</ele>
        <time>2016-05-07T12:18:15Z</time>
      </trkpt>
      <trkpt lat="44.26" lon="5.39764">
        <ele>1283.4000244141</ele>
        <time>2016-05-07T12:18:19Z</time>
      </trkpt>
      <trkpt lat="44.2602" lon="5.39747">
        <ele>1282.4000244141</ele>
        <time>2016-05-07T12:18:24Z</time>
      </trkpt>
      <trkpt lat="44.26033" lon="5.39736">
        <ele>1281.4000244141</ele>
        <time>2016-05-07T12:18:30Z</time>
      </trkpt>
      <trkpt lat="44.26036" lon="5.39735">
        <ele>1280.4000244141</ele>
        <time>2016-05-07T12:18:31Z</time>
      </trkpt>
      <trkpt lat="44.26038" lon="5.39733">
        <ele>1280.4000244141</ele>
        <time>2016-05-07T12:18:32Z</time>
      </trkpt>
      <trkpt lat="44.26048" lon="5.39726">
        <ele>1279.4000244141</ele>
        <time>2016-05-07T12:18:36Z</time>
      </trkpt>
      <trkpt lat="44.26057" lon="5.39717">
        <ele>1279.4000244141</ele>
        <time>2016-05-07T12:18:40Z</time>
      </trkpt>
      <trkpt lat="44.26061" lon="5.39712">
        <ele>1278.4000244141</ele>
        <time>2016-05-07T12:18:42Z</time>
      </trkpt>
      <trkpt lat="44.26078" lon="5.39689">
        <ele>1277.4000244141</ele>
        <time>2016-05-07T12:18:53Z</time>
      </trkpt>
      <trkpt lat="44.26084" lon="5.39675">
        <ele>1277.4000244141</ele>
        <time>2016-05-07T12:18:59Z</time>
      </trkpt>
      <trkpt lat="44.26094" lon="5.39661">
        <ele>1277.4000244141</ele>
        <time>2016-05-07T12:19:07Z</time>
      </trkpt>
      <trkpt lat="44.26097" lon="5.39656">
        <ele>1278.5999755859</ele>
        <time>2016-05-07T12:19:10Z</time>
      </trkpt>
      <trkpt lat="44.26102" lon="5.39648">
        <ele>1279.1999511719</ele>
        <time>2016-05-07T12:19:15Z</time>
      </trkpt>
      <trkpt lat="44.26106" lon="5.39642">
        <ele>1279.1999511719</ele>
        <time>2016-05-07T12:19:18Z</time>
      </trkpt>
      <trkpt lat="44.26114" lon="5.39633">
        <ele>1279.1999511719</ele>
        <time>2016-05-07T12:19:23Z</time>
      </trkpt>
      <trkpt lat="44.26129" lon="5.39618">
        <ele>1279.1999511719</ele>
        <time>2016-05-07T12:19:30Z</time>
      </trkpt>
      <trkpt lat="44.26135" lon="5.3961">
        <ele>1279.8000488281</ele>
        <time>2016-05-07T12:19:33Z</time>
      </trkpt>
      <trkpt lat="44.26147" lon="5.39596">
        <ele>1279.8000488281</ele>
        <time>2016-05-07T12:19:39Z</time>
      </trkpt>
      <trkpt lat="44.26162" lon="5.39582">
        <ele>1280.4000244141</ele>
        <time>2016-05-07T12:19:45Z</time>
      </trkpt>
      <trkpt lat="44.26168" lon="5.39582">
        <ele>1280.4000244141</ele>
        <time>2016-05-07T12:19:47Z</time>
      </trkpt>
      <trkpt lat="44.26185" lon="5.39576">
        <ele>1280.4000244141</ele>
        <time>2016-05-07T12:19:51Z</time>
      </trkpt>
      <trkpt lat="44.26204" lon="5.39563">
        <ele>1280.4000244141</ele>
        <time>2016-05-07T12:19:55Z</time>
      </trkpt>
      <trkpt lat="44.2621" lon="5.39557">
        <ele>1280.4000244141</ele>
        <time>2016-05-07T12:19:57Z</time>
      </trkpt>
      <trkpt lat="44.26224" lon="5.39543">
        <ele>1281.1999511719</ele>
        <time>2016-05-07T12:20:02Z</time>
      </trkpt>
      <trkpt lat="44.26226" lon="5.39542">
        <ele>1281.1999511719</ele>
        <time>2016-05-07T12:20:03Z</time>
      </trkpt>
      <trkpt lat="44.26228" lon="5.39542">
        <ele>1281.1999511719</ele>
        <time>2016-05-07T12:20:04Z</time>
      </trkpt>
      <trkpt lat="44.26237" lon="5.39539">
        <ele>1281.1999511719</ele>
        <time>2016-05-07T12:20:07Z</time>
      </trkpt>
      <trkpt lat="44.26253" lon="5.39524">
        <ele>1281.1999511719</ele>
        <time>2016-05-07T12:20:13Z</time>
      </trkpt>
      <trkpt lat="44.26268" lon="5.39515">
        <ele>1281.1999511719</ele>
        <time>2016-05-07T12:20:17Z</time>
      </trkpt>
      <trkpt lat="44.26273" lon="5.39509">
        <ele>1281.1999511719</ele>
        <time>2016-05-07T12:20:19Z</time>
      </trkpt>
      <trkpt lat="44.26288" lon="5.39494">
        <ele>1281.1999511719</ele>
        <time>2016-05-07T12:20:25Z</time>
      </trkpt>
      <trkpt lat="44.26292" lon="5.39491">
        <ele>1281.1999511719</ele>
        <time>2016-05-07T12:20:27Z</time>
      </trkpt>
      <trkpt lat="44.26301" lon="5.39484">
        <ele>1281.1999511719</ele>
        <time>2016-05-07T12:20:30Z</time>
      </trkpt>
      <trkpt lat="44.26319" lon="5.39472">
        <ele>1281.1999511719</ele>
        <time>2016-05-07T12:20:37Z</time>
      </trkpt>
      <trkpt lat="44.2633" lon="5.39466">
        <ele>1281.1999511719</ele>
        <time>2016-05-07T12:20:42Z</time>
      </trkpt>
      <trkpt lat="44.26345" lon="5.39463">
        <ele>1281.1999511719</ele>
        <time>2016-05-07T12:20:46Z</time>
      </trkpt>
      <trkpt lat="44.26358" lon="5.39456">
        <ele>1281.1999511719</ele>
        <time>2016-05-07T12:20:50Z</time>
      </trkpt>
      <trkpt lat="44.26375" lon="5.39448">
        <ele>1281.1999511719</ele>
        <time>2016-05-07T12:20:55Z</time>
      </trkpt>
      <trkpt lat="44.26392" lon="5.39434">
        <ele>1281.1999511719</ele>
        <time>2016-05-07T12:21:01Z</time>
      </trkpt>
      <trkpt lat="44.26404" lon="5.39427">
        <ele>1279</ele>
        <time>2016-05-07T12:21:06Z</time>
      </trkpt>
      <trkpt lat="44.26409" lon="5.39422">
        <ele>1279</ele>
        <time>2016-05-07T12:21:08Z</time>
      </trkpt>
      <trkpt lat="44.26415" lon="5.39418">
        <ele>1277.1999511719</ele>
        <time>2016-05-07T12:21:11Z</time>
      </trkpt>
      <trkpt lat="44.26416" lon="5.39416">
        <ele>1277.1999511719</ele>
        <time>2016-05-07T12:21:13Z</time>
      </trkpt>
      <trkpt lat="44.26424" lon="5.39411">
        <ele>1275.4000244141</ele>
        <time>2016-05-07T12:21:17Z</time>
      </trkpt>
      <trkpt lat="44.26426" lon="5.3941">
        <ele>1275.4000244141</ele>
        <time>2016-05-07T12:21:18Z</time>
      </trkpt>
      <trkpt lat="44.26434" lon="5.39401">
        <ele>1273.5999755859</ele>
        <time>2016-05-07T12:21:23Z</time>
      </trkpt>
      <trkpt lat="44.26435" lon="5.394">
        <ele>1273.5999755859</ele>
        <time>2016-05-07T12:21:24Z</time>
      </trkpt>
      <trkpt lat="44.26442" lon="5.39392">
        <ele>1271.8000488281</ele>
        <time>2016-05-07T12:21:29Z</time>
      </trkpt>
      <trkpt lat="44.26454" lon="5.39384">
        <ele>1270.1999511719</ele>
        <time>2016-05-07T12:21:35Z</time>
      </trkpt>
      <trkpt lat="44.26468" lon="5.39372">
        <ele>1270.1999511719</ele>
        <time>2016-05-07T12:21:42Z</time>
      </trkpt>
      <trkpt lat="44.26479" lon="5.3936">
        <ele>1270.1999511719</ele>
        <time>2016-05-07T12:21:48Z</time>
      </trkpt>
      <trkpt lat="44.26499" lon="5.39343">
        <ele>1270.1999511719</ele>
        <time>2016-05-07T12:21:54Z</time>
      </trkpt>
      <trkpt lat="44.26517" lon="5.39337">
        <ele>1270.1999511719</ele>
        <time>2016-05-07T12:22:00Z</time>
      </trkpt>
      <trkpt lat="44.26522" lon="5.39334">
        <ele>1270.1999511719</ele>
        <time>2016-05-07T12:22:05Z</time>
      </trkpt>
      <trkpt lat="44.26522" lon="5.39335">
        <ele>1269.1999511719</ele>
        <time>2016-05-07T12:22:09Z</time>
      </trkpt>
      <trkpt lat="44.26522" lon="5.39335">
        <ele>1268.8000488281</ele>
        <time>2016-05-07T12:22:15Z</time>
      </trkpt>
      <trkpt lat="44.26522" lon="5.39335">
        <ele>1268.4000244141</ele>
        <time>2016-05-07T12:22:21Z</time>
      </trkpt>
      <trkpt lat="44.26527" lon="5.3933">
        <ele>1268.4000244141</ele>
        <time>2016-05-07T12:22:24Z</time>
      </trkpt>
      <trkpt lat="44.26532" lon="5.39327">
        <ele>1268.4000244141</ele>
        <time>2016-05-07T12:22:25Z</time>
      </trkpt>
      <trkpt lat="44.26544" lon="5.39323">
        <ele>1268</ele>
        <time>2016-05-07T12:22:28Z</time>
      </trkpt>
      <trkpt lat="44.26567" lon="5.39307">
        <ele>1268</ele>
        <time>2016-05-07T12:22:31Z</time>
      </trkpt>
      <trkpt lat="44.26591" lon="5.3929">
        <ele>1268</ele>
        <time>2016-05-07T12:22:36Z</time>
      </trkpt>
      <trkpt lat="44.26605" lon="5.39281">
        <ele>1267.5999755859</ele>
        <time>2016-05-07T12:22:40Z</time>
      </trkpt>
      <trkpt lat="44.26611" lon="5.39277">
        <ele>1267.5999755859</ele>
        <time>2016-05-07T12:22:41Z</time>
      </trkpt>
      <trkpt lat="44.26629" lon="5.39267">
        <ele>1266.8000488281</ele>
        <time>2016-05-07T12:22:45Z</time>
      </trkpt>
      <trkpt lat="44.26634" lon="5.39263">
        <ele>1266.8000488281</ele>
        <time>2016-05-07T12:22:47Z</time>
      </trkpt>
      <trkpt lat="44.26643" lon="5.39253">
        <ele>1266.4000244141</ele>
        <time>2016-05-07T12:22:51Z</time>
      </trkpt>
      <trkpt lat="44.26652" lon="5.39246">
        <ele>1266.4000244141</ele>
        <time>2016-05-07T12:22:53Z</time>
      </trkpt>
      <trkpt lat="44.26662" lon="5.3924">
        <ele>1265.8000488281</ele>
        <time>2016-05-07T12:22:56Z</time>
      </trkpt>
      <trkpt lat="44.26669" lon="5.39237">
        <ele>1265.8000488281</ele>
        <time>2016-05-07T12:22:58Z</time>
      </trkpt>
      <trkpt lat="44.26693" lon="5.39226">
        <ele>1265.8000488281</ele>
        <time>2016-05-07T12:23:05Z</time>
      </trkpt>
      <trkpt lat="44.26706" lon="5.39216">
        <ele>1265.8000488281</ele>
        <time>2016-05-07T12:23:10Z</time>
      </trkpt>
      <trkpt lat="44.26719" lon="5.39203">
        <ele>1264.8000488281</ele>
        <time>2016-05-07T12:23:14Z</time>
      </trkpt>
      <trkpt lat="44.26735" lon="5.39188">
        <ele>1264.8000488281</ele>
        <time>2016-05-07T12:23:19Z</time>
      </trkpt>
      <trkpt lat="44.26737" lon="5.39186">
        <ele>1264.1999511719</ele>
        <time>2016-05-07T12:23:20Z</time>
      </trkpt>
      <trkpt lat="44.26751" lon="5.39172">
        <ele>1263.5999755859</ele>
        <time>2016-05-07T12:23:25Z</time>
      </trkpt>
      <trkpt lat="44.26752" lon="5.39169">
        <ele>1262.8000488281</ele>
        <time>2016-05-07T12:23:26Z</time>
      </trkpt>
      <trkpt lat="44.26765" lon="5.39149">
        <ele>1262</ele>
        <time>2016-05-07T12:23:31Z</time>
      </trkpt>
      <trkpt lat="44.2677" lon="5.39142">
        <ele>1261.1999511719</ele>
        <time>2016-05-07T12:23:32Z</time>
      </trkpt>
      <trkpt lat="44.26781" lon="5.39119">
        <ele>1260.5999755859</ele>
        <time>2016-05-07T12:23:37Z</time>
      </trkpt>
      <trkpt lat="44.26782" lon="5.39116">
        <ele>1259.8000488281</ele>
        <time>2016-05-07T12:23:38Z</time>
      </trkpt>
      <trkpt lat="44.26788" lon="5.39097">
        <ele>1259.1999511719</ele>
        <time>2016-05-07T12:23:43Z</time>
      </trkpt>
      <trkpt lat="44.26791" lon="5.39094">
        <ele>1258.5999755859</ele>
        <time>2016-05-07T12:23:44Z</time>
      </trkpt>
      <trkpt lat="44.26798" lon="5.39073">
        <ele>1258</ele>
        <time>2016-05-07T12:23:49Z</time>
      </trkpt>
      <trkpt lat="44.26801" lon="5.39066">
        <ele>1258</ele>
        <time>2016-05-07T12:23:51Z</time>
      </trkpt>
      <trkpt lat="44.26807" lon="5.39036">
        <ele>1258</ele>
        <time>2016-05-07T12:23:58Z</time>
      </trkpt>
      <trkpt lat="44.26811" lon="5.39002">
        <ele>1258</ele>
        <time>2016-05-07T12:24:04Z</time>
      </trkpt>
      <trkpt lat="44.26815" lon="5.38973">
        <ele>1258</ele>
        <time>2016-05-07T12:24:10Z</time>
      </trkpt>
      <trkpt lat="44.26811" lon="5.38953">
        <ele>1258</ele>
        <time>2016-05-07T12:24:15Z</time>
      </trkpt>
      <trkpt lat="44.26809" lon="5.38935">
        <ele>1257.5999755859</ele>
        <time>2016-05-07T12:24:18Z</time>
      </trkpt>
      <trkpt lat="44.26807" lon="5.38928">
        <ele>1257.5999755859</ele>
        <time>2016-05-07T12:24:19Z</time>
      </trkpt>
      <trkpt lat="44.26803" lon="5.38897">
        <ele>1257.1999511719</ele>
        <time>2016-05-07T12:24:24Z</time>
      </trkpt>
      <trkpt lat="44.26809" lon="5.38864">
        <ele>1256.5999755859</ele>
        <time>2016-05-07T12:24:29Z</time>
      </trkpt>
      <trkpt lat="44.2681" lon="5.38857">
        <ele>1256.1999511719</ele>
        <time>2016-05-07T12:24:30Z</time>
      </trkpt>
      <trkpt lat="44.26814" lon="5.38828">
        <ele>1256.1999511719</ele>
        <time>2016-05-07T12:24:33Z</time>
      </trkpt>
      <trkpt lat="44.26816" lon="5.38811">
        <ele>1255.5999755859</ele>
        <time>2016-05-07T12:24:35Z</time>
      </trkpt>
      <trkpt lat="44.26818" lon="5.38804">
        <ele>1254.8000488281</ele>
        <time>2016-05-07T12:24:36Z</time>
      </trkpt>
      <trkpt lat="44.26823" lon="5.38767">
        <ele>1254.1999511719</ele>
        <time>2016-05-07T12:24:41Z</time>
      </trkpt>
      <trkpt lat="44.26823" lon="5.38759">
        <ele>1254.1999511719</ele>
        <time>2016-05-07T12:24:42Z</time>
      </trkpt>
      <trkpt lat="44.26825" lon="5.38728">
        <ele>1253</ele>
        <time>2016-05-07T12:24:47Z</time>
      </trkpt>
      <trkpt lat="44.26825" lon="5.38722">
        <ele>1253</ele>
        <time>2016-05-07T12:24:48Z</time>
      </trkpt>
      <trkpt lat="44.2683" lon="5.38694">
        <ele>1252.4000244141</ele>
        <time>2016-05-07T12:24:53Z</time>
      </trkpt>
      <trkpt lat="44.26829" lon="5.38688">
        <ele>1252.4000244141</ele>
        <time>2016-05-07T12:24:54Z</time>
      </trkpt>
      <trkpt lat="44.2683" lon="5.3867">
        <ele>1252</ele>
        <time>2016-05-07T12:24:58Z</time>
      </trkpt>
      <trkpt lat="44.26831" lon="5.38667">
        <ele>1251.4000244141</ele>
        <time>2016-05-07T12:24:59Z</time>
      </trkpt>
      <trkpt lat="44.2684" lon="5.38643">
        <ele>1250.8000488281</ele>
        <time>2016-05-07T12:25:04Z</time>
      </trkpt>
      <trkpt lat="44.26855" lon="5.38613">
        <ele>1250.8000488281</ele>
        <time>2016-05-07T12:25:10Z</time>
      </trkpt>
      <trkpt lat="44.26862" lon="5.38596">
        <ele>1250.8000488281</ele>
        <time>2016-05-07T12:25:15Z</time>
      </trkpt>
      <trkpt lat="44.26876" lon="5.38576">
        <ele>1250.8000488281</ele>
        <time>2016-05-07T12:25:23Z</time>
      </trkpt>
      <trkpt lat="44.26889" lon="5.38549">
        <ele>1250.8000488281</ele>
        <time>2016-05-07T12:25:31Z</time>
      </trkpt>
      <trkpt lat="44.26905" lon="5.38532">
        <ele>1250.8000488281</ele>
        <time>2016-05-07T12:25:37Z</time>
      </trkpt>
      <trkpt lat="44.26928" lon="5.38507">
        <ele>1250.8000488281</ele>
        <time>2016-05-07T12:25:43Z</time>
      </trkpt>
      <trkpt lat="44.26935" lon="5.38499">
        <ele>1250.4000244141</ele>
        <time>2016-05-07T12:25:45Z</time>
      </trkpt>
      <trkpt lat="44.26941" lon="5.38493">
        <ele>1250</ele>
        <time>2016-05-07T12:25:46Z</time>
      </trkpt>
      <trkpt lat="44.26955" lon="5.38472">
        <ele>1250</ele>
        <time>2016-05-07T12:25:49Z</time>
      </trkpt>
      <trkpt lat="44.26964" lon="5.38461">
        <ele>1249.1999511719</ele>
        <time>2016-05-07T12:25:51Z</time>
      </trkpt>
      <trkpt lat="44.26968" lon="5.38457">
        <ele>1248.5999755859</ele>
        <time>2016-05-07T12:25:52Z</time>
      </trkpt>
      <trkpt lat="44.26988" lon="5.38438">
        <ele>1247.8000488281</ele>
        <time>2016-05-07T12:25:57Z</time>
      </trkpt>
      <trkpt lat="44.27" lon="5.38425">
        <ele>1247.8000488281</ele>
        <time>2016-05-07T12:25:59Z</time>
      </trkpt>
      <trkpt lat="44.27021" lon="5.38407">
        <ele>1247</ele>
        <time>2016-05-07T12:26:02Z</time>
      </trkpt>
      <trkpt lat="44.27026" lon="5.38402">
        <ele>1246.1999511719</ele>
        <time>2016-05-07T12:26:03Z</time>
      </trkpt>
      <trkpt lat="44.27038" lon="5.38392">
        <ele>1246.1999511719</ele>
        <time>2016-05-07T12:26:07Z</time>
      </trkpt>
      <trkpt lat="44.27062" lon="5.38378">
        <ele>1246.1999511719</ele>
        <time>2016-05-07T12:26:12Z</time>
      </trkpt>
      <trkpt lat="44.27066" lon="5.38375">
        <ele>1245.5999755859</ele>
        <time>2016-05-07T12:26:13Z</time>
      </trkpt>
      <trkpt lat="44.27084" lon="5.38363">
        <ele>1245.5999755859</ele>
        <time>2016-05-07T12:26:18Z</time>
      </trkpt>
      <trkpt lat="44.27087" lon="5.38361">
        <ele>1244</ele>
        <time>2016-05-07T12:26:19Z</time>
      </trkpt>
      <trkpt lat="44.27104" lon="5.38353">
        <ele>1244</ele>
        <time>2016-05-07T12:26:24Z</time>
      </trkpt>
      <trkpt lat="44.27107" lon="5.38351">
        <ele>1242.4000244141</ele>
        <time>2016-05-07T12:26:25Z</time>
      </trkpt>
      <trkpt lat="44.27122" lon="5.3834">
        <ele>1241.5999755859</ele>
        <time>2016-05-07T12:26:30Z</time>
      </trkpt>
      <trkpt lat="44.27137" lon="5.38331">
        <ele>1242.4000244141</ele>
        <time>2016-05-07T12:26:36Z</time>
      </trkpt>
      <trkpt lat="44.27143" lon="5.38318">
        <ele>1242.8000488281</ele>
        <time>2016-05-07T12:26:42Z</time>
      </trkpt>
      <trkpt lat="44.27144" lon="5.38317">
        <ele>1243.1999511719</ele>
        <time>2016-05-07T12:26:43Z</time>
      </trkpt>
      <trkpt lat="44.27146" lon="5.38316">
        <ele>1243</ele>
        <time>2016-05-07T12:26:48Z</time>
      </trkpt>
      <trkpt lat="44.27146" lon="5.38316">
        <ele>1242.5999755859</ele>
        <time>2016-05-07T12:26:53Z</time>
      </trkpt>
      <trkpt lat="44.27146" lon="5.38316">
        <ele>1242.1999511719</ele>
        <time>2016-05-07T12:26:54Z</time>
      </trkpt>
      <trkpt lat="44.27146" lon="5.38315">
        <ele>1242</ele>
        <time>2016-05-07T12:26:59Z</time>
      </trkpt>
      <trkpt lat="44.27146" lon="5.38315">
        <ele>1241.5999755859</ele>
        <time>2016-05-07T12:27:04Z</time>
      </trkpt>
      <trkpt lat="44.27146" lon="5.38315">
        <ele>1241.1999511719</ele>
        <time>2016-05-07T12:29:04Z</time>
      </trkpt>
      <trkpt lat="44.27146" lon="5.38315">
        <ele>1240.5999755859</ele>
        <time>2016-05-07T12:29:10Z</time>
      </trkpt>
      <trkpt lat="44.27146" lon="5.38315">
        <ele>1239.8000488281</ele>
        <time>2016-05-07T12:29:16Z</time>
      </trkpt>
      <trkpt lat="44.27146" lon="5.38315">
        <ele>1239.4000244141</ele>
        <time>2016-05-07T12:29:21Z</time>
      </trkpt>
      <trkpt lat="44.27146" lon="5.38315">
        <ele>1239.4000244141</ele>
        <time>2016-05-07T12:29:26Z</time>
      </trkpt>
      <trkpt lat="44.27148" lon="5.38315">
        <ele>1239.4000244141</ele>
        <time>2016-05-07T12:29:48Z</time>
      </trkpt>
      <trkpt lat="44.2715" lon="5.38315">
        <ele>1239.4000244141</ele>
        <time>2016-05-07T12:29:49Z</time>
      </trkpt>
      <trkpt lat="44.27156" lon="5.38313">
        <ele>1239.4000244141</ele>
        <time>2016-05-07T12:29:54Z</time>
      </trkpt>
      <trkpt lat="44.27157" lon="5.38312">
        <ele>1238.8000488281</ele>
        <time>2016-05-07T12:29:56Z</time>
      </trkpt>
      <trkpt lat="44.2716" lon="5.38308">
        <ele>1238.8000488281</ele>
        <time>2016-05-07T12:30:01Z</time>
      </trkpt>
      <trkpt lat="44.27161" lon="5.38308">
        <ele>1237.4000244141</ele>
        <time>2016-05-07T12:30:02Z</time>
      </trkpt>
      <trkpt lat="44.27163" lon="5.38306">
        <ele>1237.4000244141</ele>
        <time>2016-05-07T12:30:06Z</time>
      </trkpt>
      <trkpt lat="44.27166" lon="5.38304">
        <ele>1237.4000244141</ele>
        <time>2016-05-07T12:30:09Z</time>
      </trkpt>
      <trkpt lat="44.27173" lon="5.38293">
        <ele>1235.1999511719</ele>
        <time>2016-05-07T12:30:14Z</time>
      </trkpt>
      <trkpt lat="44.27175" lon="5.38289">
        <ele>1232.8000488281</ele>
        <time>2016-05-07T12:30:16Z</time>
      </trkpt>
      <trkpt lat="44.27176" lon="5.38286">
        <ele>1231.5999755859</ele>
        <time>2016-05-07T12:30:17Z</time>
      </trkpt>
      <trkpt lat="44.27184" lon="5.38279">
        <ele>1230.4000244141</ele>
        <time>2016-05-07T12:30:22Z</time>
      </trkpt>
      <trkpt lat="44.27187" lon="5.38275">
        <ele>1230.4000244141</ele>
        <time>2016-05-07T12:30:25Z</time>
      </trkpt>
      <trkpt lat="44.2719" lon="5.38267">
        <ele>1229</ele>
        <time>2016-05-07T12:30:29Z</time>
      </trkpt>
      <trkpt lat="44.27191" lon="5.38263">
        <ele>1229</ele>
        <time>2016-05-07T12:30:32Z</time>
      </trkpt>
      <trkpt lat="44.27191" lon="5.3826">
        <ele>1227.5999755859</ele>
        <time>2016-05-07T12:30:34Z</time>
      </trkpt>
      <trkpt lat="44.2719" lon="5.38259">
        <ele>1226</ele>
        <time>2016-05-07T12:30:35Z</time>
      </trkpt>
      <trkpt lat="44.27189" lon="5.3825">
        <ele>1226</ele>
        <time>2016-05-07T12:30:38Z</time>
      </trkpt>
      <trkpt lat="44.27187" lon="5.38244">
        <ele>1224.4000244141</ele>
        <time>2016-05-07T12:30:40Z</time>
      </trkpt>
      <trkpt lat="44.27185" lon="5.38224">
        <ele>1224.4000244141</ele>
        <time>2016-05-07T12:30:45Z</time>
      </trkpt>
      <trkpt lat="44.27185" lon="5.38221">
        <ele>1221.1999511719</ele>
        <time>2016-05-07T12:30:46Z</time>
      </trkpt>
      <trkpt lat="44.27183" lon="5.38202">
        <ele>1219.4000244141</ele>
        <time>2016-05-07T12:30:51Z</time>
      </trkpt>
      <trkpt lat="44.27182" lon="5.38199">
        <ele>1217.5999755859</ele>
        <time>2016-05-07T12:30:52Z</time>
      </trkpt>
      <trkpt lat="44.27174" lon="5.38183">
        <ele>1216</ele>
        <time>2016-05-07T12:30:57Z</time>
      </trkpt>
      <trkpt lat="44.27172" lon="5.3818">
        <ele>1216</ele>
        <time>2016-05-07T12:30:58Z</time>
      </trkpt>
      <trkpt lat="44.27171" lon="5.38163">
        <ele>1212.8000488281</ele>
        <time>2016-05-07T12:31:03Z</time>
      </trkpt>
      <trkpt lat="44.27171" lon="5.38154">
        <ele>1212.8000488281</ele>
        <time>2016-05-07T12:31:06Z</time>
      </trkpt>
      <trkpt lat="44.27168" lon="5.38145">
        <ele>1209.4000244141</ele>
        <time>2016-05-07T12:31:09Z</time>
      </trkpt>
      <trkpt lat="44.27165" lon="5.38138">
        <ele>1209.4000244141</ele>
        <time>2016-05-07T12:31:12Z</time>
      </trkpt>
      <trkpt lat="44.27166" lon="5.38133">
        <ele>1207.5999755859</ele>
        <time>2016-05-07T12:31:14Z</time>
      </trkpt>
      <trkpt lat="44.27168" lon="5.38131">
        <ele>1205.5999755859</ele>
        <time>2016-05-07T12:31:15Z</time>
      </trkpt>
      <trkpt lat="44.2717" lon="5.38125">
        <ele>1205.5999755859</ele>
        <time>2016-05-07T12:31:17Z</time>
      </trkpt>
      <trkpt lat="44.27172" lon="5.38117">
        <ele>1205.5999755859</ele>
        <time>2016-05-07T12:31:19Z</time>
      </trkpt>
      <trkpt lat="44.27174" lon="5.38115">
        <ele>1203.8000488281</ele>
        <time>2016-05-07T12:31:20Z</time>
      </trkpt>
      <trkpt lat="44.27181" lon="5.38103">
        <ele>1203.8000488281</ele>
        <time>2016-05-07T12:31:25Z</time>
      </trkpt>
      <trkpt lat="44.27182" lon="5.381">
        <ele>1199.5999755859</ele>
        <time>2016-05-07T12:31:26Z</time>
      </trkpt>
      <trkpt lat="44.27186" lon="5.3808">
        <ele>1197.1999511719</ele>
        <time>2016-05-07T12:31:31Z</time>
      </trkpt>
      <trkpt lat="44.27189" lon="5.38054">
        <ele>1191.5999755859</ele>
        <time>2016-05-07T12:31:37Z</time>
      </trkpt>
      <trkpt lat="44.27189" lon="5.3805">
        <ele>1191.5999755859</ele>
        <time>2016-05-07T12:31:38Z</time>
      </trkpt>
      <trkpt lat="44.27191" lon="5.38027">
        <ele>1185.4000244141</ele>
        <time>2016-05-07T12:31:43Z</time>
      </trkpt>
      <trkpt lat="44.27196" lon="5.38015">
        <ele>1185.4000244141</ele>
        <time>2016-05-07T12:31:46Z</time>
      </trkpt>
      <trkpt lat="44.27198" lon="5.38008">
        <ele>1185.4000244141</ele>
        <time>2016-05-07T12:31:48Z</time>
      </trkpt>
      <trkpt lat="44.27198" lon="5.38003">
        <ele>1179</ele>
        <time>2016-05-07T12:31:49Z</time>
      </trkpt>
      <trkpt lat="44.27193" lon="5.37985">
        <ele>1175.8000488281</ele>
        <time>2016-05-07T12:31:54Z</time>
      </trkpt>
      <trkpt lat="44.27186" lon="5.37963">
        <ele>1169.5999755859</ele>
        <time>2016-05-07T12:32:00Z</time>
      </trkpt>
      <trkpt lat="44.27183" lon="5.37944">
        <ele>1163.5999755859</ele>
        <time>2016-05-07T12:32:06Z</time>
      </trkpt>
      <trkpt lat="44.27184" lon="5.37933">
        <ele>1161</ele>
        <time>2016-05-07T12:32:12Z</time>
      </trkpt>
      <trkpt lat="44.27184" lon="5.37932">
        <ele>1158.4000244141</ele>
        <time>2016-05-07T12:32:18Z</time>
      </trkpt>
      <trkpt lat="44.27184" lon="5.37931">
        <ele>1154.5999755859</ele>
        <time>2016-05-07T12:32:23Z</time>
      </trkpt>
      <trkpt lat="44.27183" lon="5.37924">
        <ele>1154.5999755859</ele>
        <time>2016-05-07T12:32:25Z</time>
      </trkpt>
      <trkpt lat="44.27183" lon="5.37909">
        <ele>1153</ele>
        <time>2016-05-07T12:32:29Z</time>
      </trkpt>
      <trkpt lat="44.27184" lon="5.37905">
        <ele>1153</ele>
        <time>2016-05-07T12:32:30Z</time>
      </trkpt>
      <trkpt lat="44.27187" lon="5.37886">
        <ele>1151.1999511719</ele>
        <time>2016-05-07T12:32:35Z</time>
      </trkpt>
      <trkpt lat="44.27191" lon="5.37862">
        <ele>1151.1999511719</ele>
        <time>2016-05-07T12:32:40Z</time>
      </trkpt>
      <trkpt lat="44.27192" lon="5.37859">
        <ele>1146.5999755859</ele>
        <time>2016-05-07T12:32:41Z</time>
      </trkpt>
      <trkpt lat="44.27191" lon="5.37832">
        <ele>1146.5999755859</ele>
        <time>2016-05-07T12:32:46Z</time>
      </trkpt>
      <trkpt lat="44.27185" lon="5.37814">
        <ele>1146.5999755859</ele>
        <time>2016-05-07T12:32:51Z</time>
      </trkpt>
      <trkpt lat="44.27186" lon="5.3781">
        <ele>1144.1999511719</ele>
        <time>2016-05-07T12:32:52Z</time>
      </trkpt>
      <trkpt lat="44.27188" lon="5.37792">
        <ele>1144.1999511719</ele>
        <time>2016-05-07T12:32:55Z</time>
      </trkpt>
      <trkpt lat="44.27189" lon="5.37771">
        <ele>1141.8000488281</ele>
        <time>2016-05-07T12:32:58Z</time>
      </trkpt>
      <trkpt lat="44.27193" lon="5.37761">
        <ele>1141.8000488281</ele>
        <time>2016-05-07T12:33:00Z</time>
      </trkpt>
      <trkpt lat="44.27195" lon="5.37746">
        <ele>1139.4000244141</ele>
        <time>2016-05-07T12:33:03Z</time>
      </trkpt>
      <trkpt lat="44.27198" lon="5.3774">
        <ele>1139.4000244141</ele>
        <time>2016-05-07T12:33:05Z</time>
      </trkpt>
      <trkpt lat="44.27201" lon="5.37741">
        <ele>1139.4000244141</ele>
        <time>2016-05-07T12:33:06Z</time>
      </trkpt>
      <trkpt lat="44.27206" lon="5.37747">
        <ele>1139.4000244141</ele>
        <time>2016-05-07T12:33:08Z</time>
      </trkpt>
      <trkpt lat="44.27211" lon="5.37761">
        <ele>1139.4000244141</ele>
        <time>2016-05-07T12:33:11Z</time>
      </trkpt>
      <trkpt lat="44.27217" lon="5.3777">
        <ele>1139.4000244141</ele>
        <time>2016-05-07T12:33:13Z</time>
      </trkpt>
      <trkpt lat="44.27224" lon="5.37779">
        <ele>1137.4000244141</ele>
        <time>2016-05-07T12:33:15Z</time>
      </trkpt>
      <trkpt lat="44.27237" lon="5.3779">
        <ele>1137.4000244141</ele>
        <time>2016-05-07T12:33:19Z</time>
      </trkpt>
      <trkpt lat="44.27242" lon="5.37801">
        <ele>1133.5999755859</ele>
        <time>2016-05-07T12:33:21Z</time>
      </trkpt>
      <trkpt lat="44.27251" lon="5.37821">
        <ele>1133.5999755859</ele>
        <time>2016-05-07T12:33:25Z</time>
      </trkpt>
      <trkpt lat="44.27254" lon="5.37823">
        <ele>1131.5999755859</ele>
        <time>2016-05-07T12:33:26Z</time>
      </trkpt>
      <trkpt lat="44.2726" lon="5.37826">
        <ele>1131.5999755859</ele>
        <time>2016-05-07T12:33:29Z</time>
      </trkpt>
      <trkpt lat="44.27261" lon="5.37826">
        <ele>1127.8000488281</ele>
        <time>2016-05-07T12:33:32Z</time>
      </trkpt>
      <trkpt lat="44.27261" lon="5.37826">
        <ele>1127.8000488281</ele>
        <time>2016-05-07T12:33:33Z</time>
      </trkpt>
      <trkpt lat="44.27263" lon="5.37828">
        <ele>1124</ele>
        <time>2016-05-07T12:33:38Z</time>
      </trkpt>
      <trkpt lat="44.27267" lon="5.37835">
        <ele>1122.8000488281</ele>
        <time>2016-05-07T12:33:43Z</time>
      </trkpt>
      <trkpt lat="44.27268" lon="5.3784">
        <ele>1122.8000488281</ele>
        <time>2016-05-07T12:33:46Z</time>
      </trkpt>
      <trkpt lat="44.2727" lon="5.37842">
        <ele>1120.5999755859</ele>
        <time>2016-05-07T12:33:49Z</time>
      </trkpt>
      <trkpt lat="44.27275" lon="5.3785">
        <ele>1120.5999755859</ele>
        <time>2016-05-07T12:33:52Z</time>
      </trkpt>
      <trkpt lat="44.2728" lon="5.37865">
        <ele>1119.5999755859</ele>
        <time>2016-05-07T12:33:55Z</time>
      </trkpt>
      <trkpt lat="44.27285" lon="5.37875">
        <ele>1119.5999755859</ele>
        <time>2016-05-07T12:33:57Z</time>
      </trkpt>
      <trkpt lat="44.27293" lon="5.37889">
        <ele>1117.4000244141</ele>
        <time>2016-05-07T12:34:00Z</time>
      </trkpt>
      <trkpt lat="44.27298" lon="5.37899">
        <ele>1117.4000244141</ele>
        <time>2016-05-07T12:34:02Z</time>
      </trkpt>
      <trkpt lat="44.27304" lon="5.37911">
        <ele>1116.1999511719</ele>
        <time>2016-05-07T12:34:06Z</time>
      </trkpt>
      <trkpt lat="44.27311" lon="5.37927">
        <ele>1115.1999511719</ele>
        <time>2016-05-07T12:34:11Z</time>
      </trkpt>
      <trkpt lat="44.27311" lon="5.37931">
        <ele>1114</ele>
        <time>2016-05-07T12:34:12Z</time>
      </trkpt>
      <trkpt lat="44.27312" lon="5.37936">
        <ele>1114</ele>
        <time>2016-05-07T12:34:13Z</time>
      </trkpt>
      <trkpt lat="44.27319" lon="5.37953">
        <ele>1113</ele>
        <time>2016-05-07T12:34:17Z</time>
      </trkpt>
      <trkpt lat="44.27325" lon="5.37969">
        <ele>1113</ele>
        <time>2016-05-07T12:34:21Z</time>
      </trkpt>
      <trkpt lat="44.27335" lon="5.37988">
        <ele>1113</ele>
        <time>2016-05-07T12:34:26Z</time>
      </trkpt>
      <trkpt lat="44.27343" lon="5.38011">
        <ele>1113</ele>
        <time>2016-05-07T12:34:32Z</time>
      </trkpt>
      <trkpt lat="44.27353" lon="5.38031">
        <ele>1113</ele>
        <time>2016-05-07T12:34:38Z</time>
      </trkpt>
      <trkpt lat="44.27362" lon="5.38072">
        <ele>1113</ele>
        <time>2016-05-07T12:34:47Z</time>
      </trkpt>
      <trkpt lat="44.27364" lon="5.38091">
        <ele>1113</ele>
        <time>2016-05-07T12:34:52Z</time>
      </trkpt>
      <trkpt lat="44.27364" lon="5.3811">
        <ele>1113.4000244141</ele>
        <time>2016-05-07T12:34:57Z</time>
      </trkpt>
      <trkpt lat="44.27364" lon="5.38113">
        <ele>1113.8000488281</ele>
        <time>2016-05-07T12:34:58Z</time>
      </trkpt>
      <trkpt lat="44.27364" lon="5.38129">
        <ele>1114.1999511719</ele>
        <time>2016-05-07T12:35:03Z</time>
      </trkpt>
      <trkpt lat="44.27364" lon="5.38132">
        <ele>1114.1999511719</ele>
        <time>2016-05-07T12:35:04Z</time>
      </trkpt>
      <trkpt lat="44.27365" lon="5.38142">
        <ele>1114.5999755859</ele>
        <time>2016-05-07T12:35:09Z</time>
      </trkpt>
      <trkpt lat="44.27364" lon="5.38148">
        <ele>1114.5999755859</ele>
        <time>2016-05-07T12:35:13Z</time>
      </trkpt>
      <trkpt lat="44.27364" lon="5.38152">
        <ele>1115.8000488281</ele>
        <time>2016-05-07T12:35:15Z</time>
      </trkpt>
      <trkpt lat="44.27365" lon="5.38164">
        <ele>1116.4000244141</ele>
        <time>2016-05-07T12:35:20Z</time>
      </trkpt>
      <trkpt lat="44.27365" lon="5.38167">
        <ele>1116.4000244141</ele>
        <time>2016-05-07T12:35:21Z</time>
      </trkpt>
      <trkpt lat="44.27365" lon="5.38182">
        <ele>1116.4000244141</ele>
        <time>2016-05-07T12:35:28Z</time>
      </trkpt>
      <trkpt lat="44.27365" lon="5.38193">
        <ele>1117.8000488281</ele>
        <time>2016-05-07T12:35:32Z</time>
      </trkpt>
      <trkpt lat="44.27365" lon="5.38202">
        <ele>1117.8000488281</ele>
        <time>2016-05-07T12:35:35Z</time>
      </trkpt>
      <trkpt lat="44.27365" lon="5.3822">
        <ele>1119</ele>
        <time>2016-05-07T12:35:38Z</time>
      </trkpt>
      <trkpt lat="44.27365" lon="5.38226">
        <ele>1119</ele>
        <time>2016-05-07T12:35:39Z</time>
      </trkpt>
      <trkpt lat="44.27368" lon="5.38248">
        <ele>1118.5999755859</ele>
        <time>2016-05-07T12:35:43Z</time>
      </trkpt>
      <trkpt lat="44.27369" lon="5.38254">
        <ele>1118</ele>
        <time>2016-05-07T12:35:44Z</time>
      </trkpt>
      <trkpt lat="44.27372" lon="5.38261">
        <ele>1118</ele>
        <time>2016-05-07T12:35:46Z</time>
      </trkpt>
      <trkpt lat="44.27381" lon="5.38279">
        <ele>1118</ele>
        <time>2016-05-07T12:35:51Z</time>
      </trkpt>
      <trkpt lat="44.27385" lon="5.38279">
        <ele>1118</ele>
        <time>2016-05-07T12:35:53Z</time>
      </trkpt>
      <trkpt lat="44.27388" lon="5.3828">
        <ele>1118</ele>
        <time>2016-05-07T12:35:54Z</time>
      </trkpt>
      <trkpt lat="44.27391" lon="5.38278">
        <ele>1116.5999755859</ele>
        <time>2016-05-07T12:35:55Z</time>
      </trkpt>
      <trkpt lat="44.27398" lon="5.38271">
        <ele>1116.5999755859</ele>
        <time>2016-05-07T12:35:58Z</time>
      </trkpt>
      <trkpt lat="44.27401" lon="5.38269">
        <ele>1116.5999755859</ele>
        <time>2016-05-07T12:35:59Z</time>
      </trkpt>
      <trkpt lat="44.27403" lon="5.38264">
        <ele>1116.5999755859</ele>
        <time>2016-05-07T12:36:00Z</time>
      </trkpt>
      <trkpt lat="44.27409" lon="5.38256">
        <ele>1111.5999755859</ele>
        <time>2016-05-07T12:36:02Z</time>
      </trkpt>
      <trkpt lat="44.27412" lon="5.38253">
        <ele>1111.5999755859</ele>
        <time>2016-05-07T12:36:03Z</time>
      </trkpt>
      <trkpt lat="44.27426" lon="5.38238">
        <ele>1105.5999755859</ele>
        <time>2016-05-07T12:36:08Z</time>
      </trkpt>
      <trkpt lat="44.27435" lon="5.38226">
        <ele>1105.5999755859</ele>
        <time>2016-05-07T12:36:12Z</time>
      </trkpt>
      <trkpt lat="44.27437" lon="5.38223">
        <ele>1102.4000244141</ele>
        <time>2016-05-07T12:36:13Z</time>
      </trkpt>
      <trkpt lat="44.27445" lon="5.38207">
        <ele>1102.4000244141</ele>
        <time>2016-05-07T12:36:17Z</time>
      </trkpt>
      <trkpt lat="44.27451" lon="5.38198">
        <ele>1095.5999755859</ele>
        <time>2016-05-07T12:36:19Z</time>
      </trkpt>
      <trkpt lat="44.27457" lon="5.3818">
        <ele>1095.5999755859</ele>
        <time>2016-05-07T12:36:23Z</time>
      </trkpt>
      <trkpt lat="44.2746" lon="5.38173">
        <ele>1091.8000488281</ele>
        <time>2016-05-07T12:36:25Z</time>
      </trkpt>
      <trkpt lat="44.27463" lon="5.38162">
        <ele>1088.1999511719</ele>
        <time>2016-05-07T12:36:30Z</time>
      </trkpt>
      <trkpt lat="44.27462" lon="5.38147">
        <ele>1088.1999511719</ele>
        <time>2016-05-07T12:36:34Z</time>
      </trkpt>
      <trkpt lat="44.27463" lon="5.3814">
        <ele>1080.8000488281</ele>
        <time>2016-05-07T12:36:36Z</time>
      </trkpt>
      <trkpt lat="44.27464" lon="5.38121">
        <ele>1080.8000488281</ele>
        <time>2016-05-07T12:36:40Z</time>
      </trkpt>
      <trkpt lat="44.27465" lon="5.38116">
        <ele>1077.1999511719</ele>
        <time>2016-05-07T12:36:41Z</time>
      </trkpt>
      <trkpt lat="44.27466" lon="5.38094">
        <ele>1077.1999511719</ele>
        <time>2016-05-07T12:36:46Z</time>
      </trkpt>
      <trkpt lat="44.27467" lon="5.3809">
        <ele>1073.5999755859</ele>
        <time>2016-05-07T12:36:47Z</time>
      </trkpt>
      <trkpt lat="44.27465" lon="5.38066">
        <ele>1066.1999511719</ele>
        <time>2016-05-07T12:36:52Z</time>
      </trkpt>
      <trkpt lat="44.27462" lon="5.38051">
        <ele>1066.1999511719</ele>
        <time>2016-05-07T12:36:57Z</time>
      </trkpt>
      <trkpt lat="44.27461" lon="5.38049">
        <ele>1059.4000244141</ele>
        <time>2016-05-07T12:36:58Z</time>
      </trkpt>
      <trkpt lat="44.2746" lon="5.38036">
        <ele>1056.1999511719</ele>
        <time>2016-05-07T12:37:03Z</time>
      </trkpt>
      <trkpt lat="44.27461" lon="5.38032">
        <ele>1056.1999511719</ele>
        <time>2016-05-07T12:37:04Z</time>
      </trkpt>
      <trkpt lat="44.27459" lon="5.38011">
        <ele>1051.5999755859</ele>
        <time>2016-05-07T12:37:08Z</time>
      </trkpt>
      <trkpt lat="44.2746" lon="5.37998">
        <ele>1051.5999755859</ele>
        <time>2016-05-07T12:37:11Z</time>
      </trkpt>
      <trkpt lat="44.27461" lon="5.37982">
        <ele>1049</ele>
        <time>2016-05-07T12:37:14Z</time>
      </trkpt>
      <trkpt lat="44.27462" lon="5.37971">
        <ele>1049</ele>
        <time>2016-05-07T12:37:16Z</time>
      </trkpt>
      <trkpt lat="44.2746" lon="5.37951">
        <ele>1046.4000244141</ele>
        <time>2016-05-07T12:37:20Z</time>
      </trkpt>
      <trkpt lat="44.27455" lon="5.37928">
        <ele>1045</ele>
        <time>2016-05-07T12:37:25Z</time>
      </trkpt>
      <trkpt lat="44.27459" lon="5.37907">
        <ele>1043.8000488281</ele>
        <time>2016-05-07T12:37:30Z</time>
      </trkpt>
      <trkpt lat="44.27465" lon="5.37894">
        <ele>1043.8000488281</ele>
        <time>2016-05-07T12:37:34Z</time>
      </trkpt>
      <trkpt lat="44.27466" lon="5.37889">
        <ele>1043.8000488281</ele>
        <time>2016-05-07T12:37:35Z</time>
      </trkpt>
      <trkpt lat="44.27468" lon="5.37884">
        <ele>1042.1999511719</ele>
        <time>2016-05-07T12:37:36Z</time>
      </trkpt>
      <trkpt lat="44.27476" lon="5.37868">
        <ele>1042.1999511719</ele>
        <time>2016-05-07T12:37:39Z</time>
      </trkpt>
      <trkpt lat="44.27478" lon="5.37858">
        <ele>1039.4000244141</ele>
        <time>2016-05-07T12:37:41Z</time>
      </trkpt>
      <trkpt lat="44.27487" lon="5.37836">
        <ele>1037.8000488281</ele>
        <time>2016-05-07T12:37:46Z</time>
      </trkpt>
      <trkpt lat="44.27494" lon="5.37828">
        <ele>1037.8000488281</ele>
        <time>2016-05-07T12:37:50Z</time>
      </trkpt>
      <trkpt lat="44.27497" lon="5.37829">
        <ele>1037.8000488281</ele>
        <time>2016-05-07T12:37:51Z</time>
      </trkpt>
      <trkpt lat="44.27501" lon="5.3783">
        <ele>1034.8000488281</ele>
        <time>2016-05-07T12:37:52Z</time>
      </trkpt>
      <trkpt lat="44.27507" lon="5.37828">
        <ele>1034.8000488281</ele>
        <time>2016-05-07T12:37:54Z</time>
      </trkpt>
      <trkpt lat="44.2752" lon="5.37828">
        <ele>1032.8000488281</ele>
        <time>2016-05-07T12:37:58Z</time>
      </trkpt>
      <trkpt lat="44.27538" lon="5.37823">
        <ele>1032.8000488281</ele>
        <time>2016-05-07T12:38:03Z</time>
      </trkpt>
      <trkpt lat="44.2754" lon="5.37822">
        <ele>1031</ele>
        <time>2016-05-07T12:38:04Z</time>
      </trkpt>
      <trkpt lat="44.27555" lon="5.37818">
        <ele>1031</ele>
        <time>2016-05-07T12:38:08Z</time>
      </trkpt>
      <trkpt lat="44.27563" lon="5.37816">
        <ele>1030</ele>
        <time>2016-05-07T12:38:10Z</time>
      </trkpt>
      <trkpt lat="44.27568" lon="5.37813">
        <ele>1029</ele>
        <time>2016-05-07T12:38:11Z</time>
      </trkpt>
      <trkpt lat="44.27572" lon="5.37811">
        <ele>1028.5999755859</ele>
        <time>2016-05-07T12:38:12Z</time>
      </trkpt>
      <trkpt lat="44.27581" lon="5.37808">
        <ele>1028.5999755859</ele>
        <time>2016-05-07T12:38:14Z</time>
      </trkpt>
      <trkpt lat="44.27601" lon="5.37802">
        <ele>1028.1999511719</ele>
        <time>2016-05-07T12:38:19Z</time>
      </trkpt>
      <trkpt lat="44.27622" lon="5.37789">
        <ele>1027.8000488281</ele>
        <time>2016-05-07T12:38:24Z</time>
      </trkpt>
      <trkpt lat="44.27626" lon="5.37785">
        <ele>1027.8000488281</ele>
        <time>2016-05-07T12:38:25Z</time>
      </trkpt>
      <trkpt lat="44.27636" lon="5.37763">
        <ele>1027.8000488281</ele>
        <time>2016-05-07T12:38:29Z</time>
      </trkpt>
      <trkpt lat="44.27639" lon="5.37757">
        <ele>1026.5999755859</ele>
        <time>2016-05-07T12:38:30Z</time>
      </trkpt>
      <trkpt lat="44.2765" lon="5.37742">
        <ele>1026.5999755859</ele>
        <time>2016-05-07T12:38:33Z</time>
      </trkpt>
      <trkpt lat="44.2766" lon="5.37732">
        <ele>1025</ele>
        <time>2016-05-07T12:38:36Z</time>
      </trkpt>
      <trkpt lat="44.27664" lon="5.37728">
        <ele>1025</ele>
        <time>2016-05-07T12:38:37Z</time>
      </trkpt>
      <trkpt lat="44.27681" lon="5.37714">
        <ele>1023.4000244141</ele>
        <time>2016-05-07T12:38:42Z</time>
      </trkpt>
      <trkpt lat="44.27701" lon="5.37699">
        <ele>1022.5999755859</ele>
        <time>2016-05-07T12:38:48Z</time>
      </trkpt>
      <trkpt lat="44.27718" lon="5.37689">
        <ele>1021.799987793</ele>
        <time>2016-05-07T12:38:53Z</time>
      </trkpt>
      <trkpt lat="44.27737" lon="5.37681">
        <ele>1021.4000244141</ele>
        <time>2016-05-07T12:38:59Z</time>
      </trkpt>
      <trkpt lat="44.27741" lon="5.3768">
        <ele>1021</ele>
        <time>2016-05-07T12:39:00Z</time>
      </trkpt>
      <trkpt lat="44.27756" lon="5.37674">
        <ele>1021</ele>
        <time>2016-05-07T12:39:04Z</time>
      </trkpt>
      <trkpt lat="44.2776" lon="5.37673">
        <ele>1020.5999755859</ele>
        <time>2016-05-07T12:39:05Z</time>
      </trkpt>
      <trkpt lat="44.27778" lon="5.37665">
        <ele>1020.5999755859</ele>
        <time>2016-05-07T12:39:10Z</time>
      </trkpt>
      <trkpt lat="44.27798" lon="5.37656">
        <ele>1020.5999755859</ele>
        <time>2016-05-07T12:39:17Z</time>
      </trkpt>
      <trkpt lat="44.27813" lon="5.37644">
        <ele>1020.5999755859</ele>
        <time>2016-05-07T12:39:22Z</time>
      </trkpt>
      <trkpt lat="44.27828" lon="5.37625">
        <ele>1021</ele>
        <time>2016-05-07T12:39:29Z</time>
      </trkpt>
      <trkpt lat="44.27831" lon="5.37622">
        <ele>1021</ele>
        <time>2016-05-07T12:39:30Z</time>
      </trkpt>
      <trkpt lat="44.27839" lon="5.37607">
        <ele>1021.4000244141</ele>
        <time>2016-05-07T12:39:34Z</time>
      </trkpt>
      <trkpt lat="44.27841" lon="5.37602">
        <ele>1021.799987793</ele>
        <time>2016-05-07T12:39:35Z</time>
      </trkpt>
      <trkpt lat="44.27844" lon="5.37597">
        <ele>1021.799987793</ele>
        <time>2016-05-07T12:39:36Z</time>
      </trkpt>
      <trkpt lat="44.27854" lon="5.3758">
        <ele>1022.200012207</ele>
        <time>2016-05-07T12:39:40Z</time>
      </trkpt>
      <trkpt lat="44.27858" lon="5.37576">
        <ele>1022.5999755859</ele>
        <time>2016-05-07T12:39:41Z</time>
      </trkpt>
      <trkpt lat="44.27871" lon="5.37552">
        <ele>1022.5999755859</ele>
        <time>2016-05-07T12:39:47Z</time>
      </trkpt>
      <trkpt lat="44.27883" lon="5.37535">
        <ele>1022.200012207</ele>
        <time>2016-05-07T12:39:51Z</time>
      </trkpt>
      <trkpt lat="44.27885" lon="5.37532">
        <ele>1021.799987793</ele>
        <time>2016-05-07T12:39:52Z</time>
      </trkpt>
      <trkpt lat="44.27889" lon="5.37529">
        <ele>1021.799987793</ele>
        <time>2016-05-07T12:39:53Z</time>
      </trkpt>
      <trkpt lat="44.27896" lon="5.37525">
        <ele>1021.799987793</ele>
        <time>2016-05-07T12:39:55Z</time>
      </trkpt>
      <trkpt lat="44.27903" lon="5.37521">
        <ele>1021.200012207</ele>
        <time>2016-05-07T12:39:57Z</time>
      </trkpt>
      <trkpt lat="44.27907" lon="5.37518">
        <ele>1020.799987793</ele>
        <time>2016-05-07T12:39:58Z</time>
      </trkpt>
      <trkpt lat="44.27917" lon="5.37509">
        <ele>1020.799987793</ele>
        <time>2016-05-07T12:40:01Z</time>
      </trkpt>
      <trkpt lat="44.27927" lon="5.37502">
        <ele>1020.4000244141</ele>
        <time>2016-05-07T12:40:03Z</time>
      </trkpt>
      <trkpt lat="44.27948" lon="5.3748">
        <ele>1020.4000244141</ele>
        <time>2016-05-07T12:40:08Z</time>
      </trkpt>
      <trkpt lat="44.27978" lon="5.37451">
        <ele>1020.4000244141</ele>
        <time>2016-05-07T12:40:15Z</time>
      </trkpt>
      <trkpt lat="44.27993" lon="5.37443">
        <ele>1020.4000244141</ele>
        <time>2016-05-07T12:40:18Z</time>
      </trkpt>
      <trkpt lat="44.27998" lon="5.3744">
        <ele>1020.4000244141</ele>
        <time>2016-05-07T12:40:19Z</time>
      </trkpt>
      <trkpt lat="44.28024" lon="5.37427">
        <ele>1020.4000244141</ele>
        <time>2016-05-07T12:40:24Z</time>
      </trkpt>
      <trkpt lat="44.28034" lon="5.37421">
        <ele>1020.4000244141</ele>
        <time>2016-05-07T12:40:26Z</time>
      </trkpt>
      <trkpt lat="44.28065" lon="5.37395">
        <ele>1019.799987793</ele>
        <time>2016-05-07T12:40:32Z</time>
      </trkpt>
      <trkpt lat="44.28069" lon="5.37389">
        <ele>1019.799987793</ele>
        <time>2016-05-07T12:40:33Z</time>
      </trkpt>
      <trkpt lat="44.28082" lon="5.37358">
        <ele>1019</ele>
        <time>2016-05-07T12:40:37Z</time>
      </trkpt>
      <trkpt lat="44.28093" lon="5.37313">
        <ele>1018</ele>
        <time>2016-05-07T12:40:42Z</time>
      </trkpt>
      <trkpt lat="44.28099" lon="5.37285">
        <ele>1018</ele>
        <time>2016-05-07T12:40:45Z</time>
      </trkpt>
      <trkpt lat="44.28105" lon="5.37267">
        <ele>1016</ele>
        <time>2016-05-07T12:40:47Z</time>
      </trkpt>
      <trkpt lat="44.28109" lon="5.3726">
        <ele>1016</ele>
        <time>2016-05-07T12:40:48Z</time>
      </trkpt>
      <trkpt lat="44.28118" lon="5.37245">
        <ele>1016</ele>
        <time>2016-05-07T12:40:50Z</time>
      </trkpt>
      <trkpt lat="44.28122" lon="5.37237">
        <ele>1014.799987793</ele>
        <time>2016-05-07T12:40:51Z</time>
      </trkpt>
      <trkpt lat="44.28125" lon="5.37228">
        <ele>1014.799987793</ele>
        <time>2016-05-07T12:40:52Z</time>
      </trkpt>
      <trkpt lat="44.28135" lon="5.37204">
        <ele>1013.799987793</ele>
        <time>2016-05-07T12:40:55Z</time>
      </trkpt>
      <trkpt lat="44.28139" lon="5.37197">
        <ele>1012.5999755859</ele>
        <time>2016-05-07T12:40:56Z</time>
      </trkpt>
      <trkpt lat="44.28143" lon="5.3719">
        <ele>1012.5999755859</ele>
        <time>2016-05-07T12:40:57Z</time>
      </trkpt>
      <trkpt lat="44.28153" lon="5.37172">
        <ele>1011.4000244141</ele>
        <time>2016-05-07T12:41:00Z</time>
      </trkpt>
      <trkpt lat="44.28155" lon="5.37169">
        <ele>1010.200012207</ele>
        <time>2016-05-07T12:41:01Z</time>
      </trkpt>
      <trkpt lat="44.28154" lon="5.37162">
        <ele>1010.200012207</ele>
        <time>2016-05-07T12:41:03Z</time>
      </trkpt>
      <trkpt lat="44.28153" lon="5.3716">
        <ele>1009.4000244141</ele>
        <time>2016-05-07T12:41:05Z</time>
      </trkpt>
      <trkpt lat="44.28153" lon="5.37158">
        <ele>1009.4000244141</ele>
        <time>2016-05-07T12:41:07Z</time>
      </trkpt>
      <trkpt lat="44.28152" lon="5.37158">
        <ele>1005.799987793</ele>
        <time>2016-05-07T12:41:16Z</time>
      </trkpt>
      <trkpt lat="44.28152" lon="5.37158">
        <ele>1006.5999755859</ele>
        <time>2016-05-07T12:41:25Z</time>
      </trkpt>
      <trkpt lat="44.28152" lon="5.37158">
        <ele>1007.5999755859</ele>
        <time>2016-05-07T12:41:30Z</time>
      </trkpt>
      <trkpt lat="44.28152" lon="5.37158">
        <ele>1008</ele>
        <time>2016-05-07T12:41:34Z</time>
      </trkpt>
      <trkpt lat="44.28152" lon="5.37158">
        <ele>1009</ele>
        <time>2016-05-07T12:41:44Z</time>
      </trkpt>
      <trkpt lat="44.28152" lon="5.37158">
        <ele>1009</ele>
        <time>2016-05-07T12:41:45Z</time>
      </trkpt>
      <trkpt lat="44.28152" lon="5.37158">
        <ele>1010</ele>
        <time>2016-05-07T12:41:49Z</time>
      </trkpt>
      <trkpt lat="44.28151" lon="5.37159">
        <ele>1010.4000244141</ele>
        <time>2016-05-07T12:41:53Z</time>
      </trkpt>
      <trkpt lat="44.28151" lon="5.3716">
        <ele>1010.799987793</ele>
        <time>2016-05-07T12:42:03Z</time>
      </trkpt>
      <trkpt lat="44.28151" lon="5.3716">
        <ele>1011.200012207</ele>
        <time>2016-05-07T12:42:07Z</time>
      </trkpt>
      <trkpt lat="44.28151" lon="5.3716">
        <ele>1011.799987793</ele>
        <time>2016-05-07T12:42:08Z</time>
      </trkpt>
      <trkpt lat="44.28151" lon="5.37161">
        <ele>1012.5999755859</ele>
        <time>2016-05-07T12:42:12Z</time>
      </trkpt>
      <trkpt lat="44.2815" lon="5.37161">
        <ele>1013.200012207</ele>
        <time>2016-05-07T12:42:21Z</time>
      </trkpt>
      <trkpt lat="44.2815" lon="5.37161">
        <ele>1014.200012207</ele>
        <time>2016-05-07T12:42:26Z</time>
      </trkpt>
      <trkpt lat="44.2815" lon="5.37161">
        <ele>1015.4000244141</ele>
        <time>2016-05-07T12:42:31Z</time>
      </trkpt>
      <trkpt lat="44.2815" lon="5.37161">
        <ele>1015.799987793</ele>
        <time>2016-05-07T12:42:35Z</time>
      </trkpt>
      <trkpt lat="44.2815" lon="5.37161">
        <ele>1016.4000244141</ele>
        <time>2016-05-07T12:42:36Z</time>
      </trkpt>
      <trkpt lat="44.28149" lon="5.37162">
        <ele>1017.4000244141</ele>
        <time>2016-05-07T12:42:40Z</time>
      </trkpt>
      <trkpt lat="44.28148" lon="5.37163">
        <ele>1018</ele>
        <time>2016-05-07T12:42:45Z</time>
      </trkpt>
      <trkpt lat="44.28146" lon="5.37165">
        <ele>1018</ele>
        <time>2016-05-07T12:42:47Z</time>
      </trkpt>
      <trkpt lat="44.28141" lon="5.37167">
        <ele>1019</ele>
        <time>2016-05-07T12:42:49Z</time>
      </trkpt>
      <trkpt lat="44.28129" lon="5.37173">
        <ele>1019.5999755859</ele>
        <time>2016-05-07T12:42:54Z</time>
      </trkpt>
      <trkpt lat="44.28125" lon="5.37174">
        <ele>1019.5999755859</ele>
        <time>2016-05-07T12:42:55Z</time>
      </trkpt>
      <trkpt lat="44.28115" lon="5.37176">
        <ele>1020</ele>
        <time>2016-05-07T12:42:58Z</time>
      </trkpt>
      <trkpt lat="44.28103" lon="5.37183">
        <ele>1020.5999755859</ele>
        <time>2016-05-07T12:43:03Z</time>
      </trkpt>
      <trkpt lat="44.28093" lon="5.37188">
        <ele>1021.4000244141</ele>
        <time>2016-05-07T12:43:08Z</time>
      </trkpt>
      <trkpt lat="44.28091" lon="5.37189">
        <ele>1021.4000244141</ele>
        <time>2016-05-07T12:43:09Z</time>
      </trkpt>
      <trkpt lat="44.28083" lon="5.37193">
        <ele>1022</ele>
        <time>2016-05-07T12:43:14Z</time>
      </trkpt>
      <trkpt lat="44.28074" lon="5.37196">
        <ele>1023.4000244141</ele>
        <time>2016-05-07T12:43:18Z</time>
      </trkpt>
      <trkpt lat="44.28069" lon="5.37198">
        <ele>1024</ele>
        <time>2016-05-07T12:43:22Z</time>
      </trkpt>
      <trkpt lat="44.28067" lon="5.37199">
        <ele>1024</ele>
        <time>2016-05-07T12:43:24Z</time>
      </trkpt>
      <trkpt lat="44.28064" lon="5.37202">
        <ele>1025.5999755859</ele>
        <time>2016-05-07T12:43:27Z</time>
      </trkpt>
      <trkpt lat="44.2806" lon="5.37206">
        <ele>1027</ele>
        <time>2016-05-07T12:43:32Z</time>
      </trkpt>
      <trkpt lat="44.28056" lon="5.3721">
        <ele>1027.4000244141</ele>
        <time>2016-05-07T12:43:36Z</time>
      </trkpt>
      <trkpt lat="44.28052" lon="5.37212">
        <ele>1027.4000244141</ele>
        <time>2016-05-07T12:43:39Z</time>
      </trkpt>
      <trkpt lat="44.2805" lon="5.37214">
        <ele>1028.1999511719</ele>
        <time>2016-05-07T12:43:41Z</time>
      </trkpt>
      <trkpt lat="44.28045" lon="5.37215">
        <ele>1028.5999755859</ele>
        <time>2016-05-07T12:43:45Z</time>
      </trkpt>
      <trkpt lat="44.28044" lon="5.37216">
        <ele>1029</ele>
        <time>2016-05-07T12:43:46Z</time>
      </trkpt>
      <trkpt lat="44.2804" lon="5.37218">
        <ele>1030</ele>
        <time>2016-05-07T12:43:50Z</time>
      </trkpt>
      <trkpt lat="44.28036" lon="5.37219">
        <ele>1030</ele>
        <time>2016-05-07T12:43:53Z</time>
      </trkpt>
      <trkpt lat="44.28035" lon="5.37221">
        <ele>1031.1999511719</ele>
        <time>2016-05-07T12:43:55Z</time>
      </trkpt>
      <trkpt lat="44.28027" lon="5.37227">
        <ele>1031.5999755859</ele>
        <time>2016-05-07T12:44:05Z</time>
      </trkpt>
      <trkpt lat="44.28024" lon="5.3723">
        <ele>1032</ele>
        <time>2016-05-07T12:44:09Z</time>
      </trkpt>
      <trkpt lat="44.28017" lon="5.37234">
        <ele>1033.1999511719</ele>
        <time>2016-05-07T12:44:14Z</time>
      </trkpt>
      <trkpt lat="44.28016" lon="5.37235">
        <ele>1033.1999511719</ele>
        <time>2016-05-07T12:44:16Z</time>
      </trkpt>
      <trkpt lat="44.28014" lon="5.37236">
        <ele>1033.8000488281</ele>
        <time>2016-05-07T12:44:18Z</time>
      </trkpt>
      <trkpt lat="44.28011" lon="5.3724">
        <ele>1035.1999511719</ele>
        <time>2016-05-07T12:44:22Z</time>
      </trkpt>
      <trkpt lat="44.28007" lon="5.37244">
        <ele>1035.8000488281</ele>
        <time>2016-05-07T12:44:27Z</time>
      </trkpt>
      <trkpt lat="44.28004" lon="5.37246">
        <ele>1035.8000488281</ele>
        <time>2016-05-07T12:44:30Z</time>
      </trkpt>
      <trkpt lat="44.28003" lon="5.37247">
        <ele>1036.8000488281</ele>
        <time>2016-05-07T12:44:32Z</time>
      </trkpt>
      <trkpt lat="44.28001" lon="5.37248">
        <ele>1037.4000244141</ele>
        <time>2016-05-07T12:44:36Z</time>
      </trkpt>
      <trkpt lat="44.27999" lon="5.37251">
        <ele>1037.4000244141</ele>
        <time>2016-05-07T12:44:40Z</time>
      </trkpt>
      <trkpt lat="44.27998" lon="5.37252">
        <ele>1038.5999755859</ele>
        <time>2016-05-07T12:44:41Z</time>
      </trkpt>
      <trkpt lat="44.27993" lon="5.37255">
        <ele>1039.8000488281</ele>
        <time>2016-05-07T12:44:46Z</time>
      </trkpt>
      <trkpt lat="44.27991" lon="5.3726">
        <ele>1040.4000244141</ele>
        <time>2016-05-07T12:44:50Z</time>
      </trkpt>
      <trkpt lat="44.2799" lon="5.37265">
        <ele>1040.4000244141</ele>
        <time>2016-05-07T12:44:53Z</time>
      </trkpt>
      <trkpt lat="44.2799" lon="5.37267">
        <ele>1041</ele>
        <time>2016-05-07T12:44:55Z</time>
      </trkpt>
      <trkpt lat="44.27982" lon="5.3728">
        <ele>1042</ele>
        <time>2016-05-07T12:45:00Z</time>
      </trkpt>
      <trkpt lat="44.27979" lon="5.37284">
        <ele>1042</ele>
        <time>2016-05-07T12:45:03Z</time>
      </trkpt>
      <trkpt lat="44.27978" lon="5.37286">
        <ele>1042.4000244141</ele>
        <time>2016-05-07T12:45:04Z</time>
      </trkpt>
      <trkpt lat="44.27972" lon="5.37291">
        <ele>1043</ele>
        <time>2016-05-07T12:45:09Z</time>
      </trkpt>
      <trkpt lat="44.27969" lon="5.37294">
        <ele>1043.8000488281</ele>
        <time>2016-05-07T12:45:14Z</time>
      </trkpt>
      <trkpt lat="44.27969" lon="5.37295">
        <ele>1044.4000244141</ele>
        <time>2016-05-07T12:45:15Z</time>
      </trkpt>
      <trkpt lat="44.27967" lon="5.37297">
        <ele>1044.4000244141</ele>
        <time>2016-05-07T12:45:17Z</time>
      </trkpt>
      <trkpt lat="44.27966" lon="5.37298">
        <ele>1045.1999511719</ele>
        <time>2016-05-07T12:45:18Z</time>
      </trkpt>
      <trkpt lat="44.27965" lon="5.37299">
        <ele>1045.8000488281</ele>
        <time>2016-05-07T12:45:19Z</time>
      </trkpt>
      <trkpt lat="44.27962" lon="5.37304">
        <ele>1046.4000244141</ele>
        <time>2016-05-07T12:45:24Z</time>
      </trkpt>
      <trkpt lat="44.27959" lon="5.37307">
        <ele>1047.1999511719</ele>
        <time>2016-05-07T12:45:28Z</time>
      </trkpt>
      <trkpt lat="44.27958" lon="5.37307">
        <ele>1047.8000488281</ele>
        <time>2016-05-07T12:45:29Z</time>
      </trkpt>
      <trkpt lat="44.27951" lon="5.37314">
        <ele>1048.1999511719</ele>
        <time>2016-05-07T12:45:38Z</time>
      </trkpt>
      <trkpt lat="44.2795" lon="5.37316">
        <ele>1048.1999511719</ele>
        <time>2016-05-07T12:45:41Z</time>
      </trkpt>
      <trkpt lat="44.27949" lon="5.37317">
        <ele>1048.5999755859</ele>
        <time>2016-05-07T12:45:42Z</time>
      </trkpt>
      <trkpt lat="44.27948" lon="5.37318">
        <ele>1049.1999511719</ele>
        <time>2016-05-07T12:45:43Z</time>
      </trkpt>
      <trkpt lat="44.27946" lon="5.3732">
        <ele>1049.5999755859</ele>
        <time>2016-05-07T12:45:46Z</time>
      </trkpt>
      <trkpt lat="44.27943" lon="5.37322">
        <ele>1050</ele>
        <time>2016-05-07T12:45:50Z</time>
      </trkpt>
      <trkpt lat="44.27943" lon="5.37323">
        <ele>1050.5999755859</ele>
        <time>2016-05-07T12:45:51Z</time>
      </trkpt>
      <trkpt lat="44.27942" lon="5.37324">
        <ele>1050.5999755859</ele>
        <time>2016-05-07T12:45:53Z</time>
      </trkpt>
      <trkpt lat="44.27942" lon="5.37326">
        <ele>1051.1999511719</ele>
        <time>2016-05-07T12:45:55Z</time>
      </trkpt>
      <trkpt lat="44.2794" lon="5.37326">
        <ele>1051.5999755859</ele>
        <time>2016-05-07T12:45:56Z</time>
      </trkpt>
      <trkpt lat="44.27937" lon="5.37326">
        <ele>1052.1999511719</ele>
        <time>2016-05-07T12:45:59Z</time>
      </trkpt>
      <trkpt lat="44.27934" lon="5.37331">
        <ele>1052.5999755859</ele>
        <time>2016-05-07T12:46:05Z</time>
      </trkpt>
      <trkpt lat="44.27932" lon="5.37332">
        <ele>1052.5999755859</ele>
        <time>2016-05-07T12:46:07Z</time>
      </trkpt>
      <trkpt lat="44.27931" lon="5.37333">
        <ele>1053</ele>
        <time>2016-05-07T12:46:09Z</time>
      </trkpt>
      <trkpt lat="44.2793" lon="5.37334">
        <ele>1053.4000244141</ele>
        <time>2016-05-07T12:46:10Z</time>
      </trkpt>
      <trkpt lat="44.27928" lon="5.37336">
        <ele>1053.8000488281</ele>
        <time>2016-05-07T12:46:14Z</time>
      </trkpt>
      <trkpt lat="44.27924" lon="5.37338">
        <ele>1054.1999511719</ele>
        <time>2016-05-07T12:46:18Z</time>
      </trkpt>
      <trkpt lat="44.27923" lon="5.3734">
        <ele>1054.1999511719</ele>
        <time>2016-05-07T12:46:22Z</time>
      </trkpt>
      <trkpt lat="44.27923" lon="5.3734">
        <ele>1054.8000488281</ele>
        <time>2016-05-07T12:46:23Z</time>
      </trkpt>
      <trkpt lat="44.27922" lon="5.37341">
        <ele>1055.4000244141</ele>
        <time>2016-05-07T12:46:24Z</time>
      </trkpt>
      <trkpt lat="44.2792" lon="5.37343">
        <ele>1056</ele>
        <time>2016-05-07T12:46:28Z</time>
      </trkpt>
      <trkpt lat="44.27919" lon="5.37343">
        <ele>1056.5999755859</ele>
        <time>2016-05-07T12:46:29Z</time>
      </trkpt>
      <trkpt lat="44.27919" lon="5.37345">
        <ele>1057.1999511719</ele>
        <time>2016-05-07T12:46:32Z</time>
      </trkpt>
      <trkpt lat="44.27918" lon="5.37347">
        <ele>1057.1999511719</ele>
        <time>2016-05-07T12:46:36Z</time>
      </trkpt>
      <trkpt lat="44.27915" lon="5.37349">
        <ele>1057.5999755859</ele>
        <time>2016-05-07T12:46:41Z</time>
      </trkpt>
      <trkpt lat="44.27911" lon="5.37349">
        <ele>1058</ele>
        <time>2016-05-07T12:46:45Z</time>
      </trkpt>
      <trkpt lat="44.2791" lon="5.37348">
        <ele>1058.4000244141</ele>
        <time>2016-05-07T12:46:46Z</time>
      </trkpt>
      <trkpt lat="44.27909" lon="5.37346">
        <ele>1059</ele>
        <time>2016-05-07T12:46:50Z</time>
      </trkpt>
      <trkpt lat="44.27909" lon="5.37345">
        <ele>1059.5999755859</ele>
        <time>2016-05-07T12:46:51Z</time>
      </trkpt>
      <trkpt lat="44.2791" lon="5.37344">
        <ele>1059.5999755859</ele>
        <time>2016-05-07T12:46:53Z</time>
      </trkpt>
      <trkpt lat="44.27911" lon="5.37344">
        <ele>1060.1999511719</ele>
        <time>2016-05-07T12:46:55Z</time>
      </trkpt>
      <trkpt lat="44.27912" lon="5.37342">
        <ele>1060.8000488281</ele>
        <time>2016-05-07T12:46:56Z</time>
      </trkpt>
      <trkpt lat="44.27916" lon="5.37334">
        <ele>1061.5999755859</ele>
        <time>2016-05-07T12:47:00Z</time>
      </trkpt>
      <trkpt lat="44.27917" lon="5.3733">
        <ele>1061.5999755859</ele>
        <time>2016-05-07T12:47:01Z</time>
      </trkpt>
      <trkpt lat="44.27923" lon="5.37314">
        <ele>1061.5999755859</ele>
        <time>2016-05-07T12:47:07Z</time>
      </trkpt>
      <trkpt lat="44.27935" lon="5.37288">
        <ele>1061.5999755859</ele>
        <time>2016-05-07T12:47:15Z</time>
      </trkpt>
      <trkpt lat="44.27943" lon="5.37266">
        <ele>1061.5999755859</ele>
        <time>2016-05-07T12:47:21Z</time>
      </trkpt>
      <trkpt lat="44.27946" lon="5.37246">
        <ele>1061.5999755859</ele>
        <time>2016-05-07T12:47:26Z</time>
      </trkpt>
      <trkpt lat="44.27956" lon="5.37222">
        <ele>1061.5999755859</ele>
        <time>2016-05-07T12:47:31Z</time>
      </trkpt>
      <trkpt lat="44.27964" lon="5.37196">
        <ele>1061.5999755859</ele>
        <time>2016-05-07T12:47:36Z</time>
      </trkpt>
      <trkpt lat="44.27975" lon="5.37165">
        <ele>1061.5999755859</ele>
        <time>2016-05-07T12:47:43Z</time>
      </trkpt>
      <trkpt lat="44.27989" lon="5.37133">
        <ele>1061.5999755859</ele>
        <time>2016-05-07T12:47:50Z</time>
      </trkpt>
      <trkpt lat="44.27999" lon="5.37106">
        <ele>1061.5999755859</ele>
        <time>2016-05-07T12:47:56Z</time>
      </trkpt>
      <trkpt lat="44.28008" lon="5.37062">
        <ele>1061.5999755859</ele>
        <time>2016-05-07T12:48:05Z</time>
      </trkpt>
      <trkpt lat="44.28017" lon="5.37031">
        <ele>1061.5999755859</ele>
        <time>2016-05-07T12:48:12Z</time>
      </trkpt>
      <trkpt lat="44.28038" lon="5.36992">
        <ele>1061.5999755859</ele>
        <time>2016-05-07T12:48:22Z</time>
      </trkpt>
      <trkpt lat="44.28045" lon="5.36965">
        <ele>1061.5999755859</ele>
        <time>2016-05-07T12:48:29Z</time>
      </trkpt>
      <trkpt lat="44.28045" lon="5.36949">
        <ele>1062</ele>
        <time>2016-05-07T12:48:33Z</time>
      </trkpt>
      <trkpt lat="44.28044" lon="5.36946">
        <ele>1062.5999755859</ele>
        <time>2016-05-07T12:48:34Z</time>
      </trkpt>
      <trkpt lat="44.28048" lon="5.36937">
        <ele>1062.5999755859</ele>
        <time>2016-05-07T12:48:36Z</time>
      </trkpt>
      <trkpt lat="44.28051" lon="5.36932">
        <ele>1063.1999511719</ele>
        <time>2016-05-07T12:48:37Z</time>
      </trkpt>
      <trkpt lat="44.28056" lon="5.36927">
        <ele>1063.5999755859</ele>
        <time>2016-05-07T12:48:38Z</time>
      </trkpt>
      <trkpt lat="44.28061" lon="5.36918">
        <ele>1063.5999755859</ele>
        <time>2016-05-07T12:48:40Z</time>
      </trkpt>
      <trkpt lat="44.28065" lon="5.36909">
        <ele>1064.1999511719</ele>
        <time>2016-05-07T12:48:42Z</time>
      </trkpt>
      <trkpt lat="44.28067" lon="5.36896">
        <ele>1064.1999511719</ele>
        <time>2016-05-07T12:48:46Z</time>
      </trkpt>
      <trkpt lat="44.28069" lon="5.36883">
        <ele>1064.5999755859</ele>
        <time>2016-05-07T12:48:51Z</time>
      </trkpt>
      <trkpt lat="44.28068" lon="5.36881">
        <ele>1065.1999511719</ele>
        <time>2016-05-07T12:48:52Z</time>
      </trkpt>
      <trkpt lat="44.28068" lon="5.36879">
        <ele>1065.1999511719</ele>
        <time>2016-05-07T12:48:53Z</time>
      </trkpt>
      <trkpt lat="44.28068" lon="5.36875">
        <ele>1065.1999511719</ele>
        <time>2016-05-07T12:48:55Z</time>
      </trkpt>
      <trkpt lat="44.28068" lon="5.36872">
        <ele>1065.5999755859</ele>
        <time>2016-05-07T12:48:56Z</time>
      </trkpt>
      <trkpt lat="44.28068" lon="5.3687">
        <ele>1066.4000244141</ele>
        <time>2016-05-07T12:48:57Z</time>
      </trkpt>
      <trkpt lat="44.28067" lon="5.36866">
        <ele>1066.4000244141</ele>
        <time>2016-05-07T12:48:59Z</time>
      </trkpt>
      <trkpt lat="44.28067" lon="5.36861">
        <ele>1067</ele>
        <time>2016-05-07T12:49:01Z</time>
      </trkpt>
      <trkpt lat="44.28067" lon="5.36859">
        <ele>1067.8000488281</ele>
        <time>2016-05-07T12:49:02Z</time>
      </trkpt>
      <trkpt lat="44.28064" lon="5.36853">
        <ele>1067.8000488281</ele>
        <time>2016-05-07T12:49:04Z</time>
      </trkpt>
      <trkpt lat="44.28063" lon="5.3685">
        <ele>1068.4000244141</ele>
        <time>2016-05-07T12:49:05Z</time>
      </trkpt>
      <trkpt lat="44.28062" lon="5.36847">
        <ele>1069.1999511719</ele>
        <time>2016-05-07T12:49:06Z</time>
      </trkpt>
      <trkpt lat="44.28059" lon="5.36836">
        <ele>1069.8000488281</ele>
        <time>2016-05-07T12:49:10Z</time>
      </trkpt>
      <trkpt lat="44.28058" lon="5.36834">
        <ele>1070.5999755859</ele>
        <time>2016-05-07T12:49:11Z</time>
      </trkpt>
      <trkpt lat="44.28054" lon="5.36826">
        <ele>1071.1999511719</ele>
        <time>2016-05-07T12:49:15Z</time>
      </trkpt>
      <trkpt lat="44.28049" lon="5.3682">
        <ele>1071.1999511719</ele>
        <time>2016-05-07T12:49:19Z</time>
      </trkpt>
      <trkpt lat="44.28041" lon="5.36808">
        <ele>1071.5999755859</ele>
        <time>2016-05-07T12:49:24Z</time>
      </trkpt>
      <trkpt lat="44.2804" lon="5.36807">
        <ele>1072</ele>
        <time>2016-05-07T12:49:25Z</time>
      </trkpt>
      <trkpt lat="44.28032" lon="5.36793">
        <ele>1072.4000244141</ele>
        <time>2016-05-07T12:49:29Z</time>
      </trkpt>
      <trkpt lat="44.2803" lon="5.36789">
        <ele>1072.4000244141</ele>
        <time>2016-05-07T12:49:30Z</time>
      </trkpt>
      <trkpt lat="44.28024" lon="5.3678">
        <ele>1073</ele>
        <time>2016-05-07T12:49:33Z</time>
      </trkpt>
      <trkpt lat="44.28019" lon="5.36774">
        <ele>1073.4000244141</ele>
        <time>2016-05-07T12:49:34Z</time>
      </trkpt>
      <trkpt lat="44.28012" lon="5.36761">
        <ele>1073.4000244141</ele>
        <time>2016-05-07T12:49:37Z</time>
      </trkpt>
      <trkpt lat="44.28004" lon="5.3674">
        <ele>1073.4000244141</ele>
        <time>2016-05-07T12:49:43Z</time>
      </trkpt>
      <trkpt lat="44.27997" lon="5.36719">
        <ele>1073.4000244141</ele>
        <time>2016-05-07T12:49:50Z</time>
      </trkpt>
      <trkpt lat="44.27996" lon="5.36712">
        <ele>1073.8000488281</ele>
        <time>2016-05-07T12:49:52Z</time>
      </trkpt>
      <trkpt lat="44.27995" lon="5.36701">
        <ele>1074.1999511719</ele>
        <time>2016-05-07T12:49:56Z</time>
      </trkpt>
      <trkpt lat="44.27993" lon="5.36697">
        <ele>1074.8000488281</ele>
        <time>2016-05-07T12:49:57Z</time>
      </trkpt>
      <trkpt lat="44.27992" lon="5.36689">
        <ele>1074.8000488281</ele>
        <time>2016-05-07T12:49:59Z</time>
      </trkpt>
      <trkpt lat="44.27991" lon="5.36682">
        <ele>1075.8000488281</ele>
        <time>2016-05-07T12:50:01Z</time>
      </trkpt>
      <trkpt lat="44.27987" lon="5.36664">
        <ele>1075.8000488281</ele>
        <time>2016-05-07T12:50:05Z</time>
      </trkpt>
      <trkpt lat="44.2798" lon="5.36633">
        <ele>1075.8000488281</ele>
        <time>2016-05-07T12:50:12Z</time>
      </trkpt>
      <trkpt lat="44.27968" lon="5.3661">
        <ele>1075.8000488281</ele>
        <time>2016-05-07T12:50:18Z</time>
      </trkpt>
      <trkpt lat="44.27966" lon="5.36586">
        <ele>1075.8000488281</ele>
        <time>2016-05-07T12:50:22Z</time>
      </trkpt>
      <trkpt lat="44.27951" lon="5.36562">
        <ele>1075.8000488281</ele>
        <time>2016-05-07T12:50:27Z</time>
      </trkpt>
      <trkpt lat="44.27939" lon="5.3654">
        <ele>1075.8000488281</ele>
        <time>2016-05-07T12:50:32Z</time>
      </trkpt>
      <trkpt lat="44.27927" lon="5.36516">
        <ele>1075.8000488281</ele>
        <time>2016-05-07T12:50:38Z</time>
      </trkpt>
      <trkpt lat="44.27911" lon="5.36489">
        <ele>1076.1999511719</ele>
        <time>2016-05-07T12:50:43Z</time>
      </trkpt>
      <trkpt lat="44.27909" lon="5.36485">
        <ele>1076.5999755859</ele>
        <time>2016-05-07T12:50:44Z</time>
      </trkpt>
      <trkpt lat="44.27904" lon="5.36463">
        <ele>1077</ele>
        <time>2016-05-07T12:50:48Z</time>
      </trkpt>
      <trkpt lat="44.27898" lon="5.36452">
        <ele>1077.5999755859</ele>
        <time>2016-05-07T12:50:52Z</time>
      </trkpt>
      <trkpt lat="44.27898" lon="5.36448">
        <ele>1077.5999755859</ele>
        <time>2016-05-07T12:50:54Z</time>
      </trkpt>
      <trkpt lat="44.27897" lon="5.36444">
        <ele>1078.1999511719</ele>
        <time>2016-05-07T12:50:56Z</time>
      </trkpt>
      <trkpt lat="44.27897" lon="5.36441">
        <ele>1078.8000488281</ele>
        <time>2016-05-07T12:50:57Z</time>
      </trkpt>
      <trkpt lat="44.27895" lon="5.36432">
        <ele>1080</ele>
        <time>2016-05-07T12:51:01Z</time>
      </trkpt>
      <trkpt lat="44.27894" lon="5.36426">
        <ele>1080</ele>
        <time>2016-05-07T12:51:03Z</time>
      </trkpt>
      <trkpt lat="44.27893" lon="5.36421">
        <ele>1080.8000488281</ele>
        <time>2016-05-07T12:51:05Z</time>
      </trkpt>
      <trkpt lat="44.27892" lon="5.36418">
        <ele>1081.4000244141</ele>
        <time>2016-05-07T12:51:06Z</time>
      </trkpt>
      <trkpt lat="44.27892" lon="5.36409">
        <ele>1082</ele>
        <time>2016-05-07T12:51:10Z</time>
      </trkpt>
      <trkpt lat="44.27891" lon="5.36406">
        <ele>1082.4000244141</ele>
        <time>2016-05-07T12:51:11Z</time>
      </trkpt>
      <trkpt lat="44.27889" lon="5.36393">
        <ele>1082.8000488281</ele>
        <time>2016-05-07T12:51:15Z</time>
      </trkpt>
      <trkpt lat="44.27888" lon="5.36386">
        <ele>1082.8000488281</ele>
        <time>2016-05-07T12:51:18Z</time>
      </trkpt>
      <trkpt lat="44.27886" lon="5.36381">
        <ele>1083.5999755859</ele>
        <time>2016-05-07T12:51:20Z</time>
      </trkpt>
      <trkpt lat="44.27887" lon="5.36375">
        <ele>1084</ele>
        <time>2016-05-07T12:51:24Z</time>
      </trkpt>
      <trkpt lat="44.27887" lon="5.36373">
        <ele>1084.5999755859</ele>
        <time>2016-05-07T12:51:25Z</time>
      </trkpt>
      <trkpt lat="44.27887" lon="5.36366">
        <ele>1085</ele>
        <time>2016-05-07T12:51:29Z</time>
      </trkpt>
      <trkpt lat="44.27887" lon="5.36355">
        <ele>1086</ele>
        <time>2016-05-07T12:51:34Z</time>
      </trkpt>
      <trkpt lat="44.27887" lon="5.36347">
        <ele>1086.4000244141</ele>
        <time>2016-05-07T12:51:38Z</time>
      </trkpt>
      <trkpt lat="44.27887" lon="5.36344">
        <ele>1086.4000244141</ele>
        <time>2016-05-07T12:51:39Z</time>
      </trkpt>
      <trkpt lat="44.27882" lon="5.36331">
        <ele>1087.4000244141</ele>
        <time>2016-05-07T12:51:43Z</time>
      </trkpt>
      <trkpt lat="44.27879" lon="5.36324">
        <ele>1087.8000488281</ele>
        <time>2016-05-07T12:51:47Z</time>
      </trkpt>
      <trkpt lat="44.27879" lon="5.36322">
        <ele>1088.4000244141</ele>
        <time>2016-05-07T12:51:48Z</time>
      </trkpt>
      <trkpt lat="44.27878" lon="5.3632">
        <ele>1088.4000244141</ele>
        <time>2016-05-07T12:51:49Z</time>
      </trkpt>
      <trkpt lat="44.27876" lon="5.36314">
        <ele>1088.8000488281</ele>
        <time>2016-05-07T12:51:52Z</time>
      </trkpt>
      <trkpt lat="44.27876" lon="5.36301">
        <ele>1088.8000488281</ele>
        <time>2016-05-07T12:51:56Z</time>
      </trkpt>
      <trkpt lat="44.27875" lon="5.36297">
        <ele>1089.1999511719</ele>
        <time>2016-05-07T12:51:57Z</time>
      </trkpt>
      <trkpt lat="44.27873" lon="5.36294">
        <ele>1089.1999511719</ele>
        <time>2016-05-07T12:52:00Z</time>
      </trkpt>
      <trkpt lat="44.27871" lon="5.36291">
        <ele>1090</ele>
        <time>2016-05-07T12:52:02Z</time>
      </trkpt>
      <trkpt lat="44.27865" lon="5.36283">
        <ele>1090.5999755859</ele>
        <time>2016-05-07T12:52:06Z</time>
      </trkpt>
      <trkpt lat="44.27863" lon="5.36282">
        <ele>1090.5999755859</ele>
        <time>2016-05-07T12:52:07Z</time>
      </trkpt>
      <trkpt lat="44.27856" lon="5.36277">
        <ele>1091</ele>
        <time>2016-05-07T12:52:11Z</time>
      </trkpt>
      <trkpt lat="44.27851" lon="5.36268">
        <ele>1091</ele>
        <time>2016-05-07T12:52:13Z</time>
      </trkpt>
      <trkpt lat="44.27841" lon="5.36257">
        <ele>1090.4000244141</ele>
        <time>2016-05-07T12:52:16Z</time>
      </trkpt>
      <trkpt lat="44.27838" lon="5.36253">
        <ele>1090.4000244141</ele>
        <time>2016-05-07T12:52:17Z</time>
      </trkpt>
      <trkpt lat="44.27829" lon="5.36246">
        <ele>1090.4000244141</ele>
        <time>2016-05-07T12:52:19Z</time>
      </trkpt>
      <trkpt lat="44.27824" lon="5.36243">
        <ele>1090</ele>
        <time>2016-05-07T12:52:20Z</time>
      </trkpt>
      <trkpt lat="44.27819" lon="5.36241">
        <ele>1089.4000244141</ele>
        <time>2016-05-07T12:52:21Z</time>
      </trkpt>
      <trkpt lat="44.27814" lon="5.36239">
        <ele>1089.4000244141</ele>
        <time>2016-05-07T12:52:22Z</time>
      </trkpt>
      <trkpt lat="44.27806" lon="5.36236">
        <ele>1089.4000244141</ele>
        <time>2016-05-07T12:52:24Z</time>
      </trkpt>
      <trkpt lat="44.27803" lon="5.36236">
        <ele>1088.8000488281</ele>
        <time>2016-05-07T12:52:25Z</time>
      </trkpt>
      <trkpt lat="44.27791" lon="5.36235">
        <ele>1088.8000488281</ele>
        <time>2016-05-07T12:52:29Z</time>
      </trkpt>
      <trkpt lat="44.27788" lon="5.36234">
        <ele>1087.4000244141</ele>
        <time>2016-05-07T12:52:30Z</time>
      </trkpt>
      <trkpt lat="44.27775" lon="5.36232">
        <ele>1086.8000488281</ele>
        <time>2016-05-07T12:52:34Z</time>
      </trkpt>
      <trkpt lat="44.27772" lon="5.36232">
        <ele>1086.8000488281</ele>
        <time>2016-05-07T12:52:35Z</time>
      </trkpt>
      <trkpt lat="44.2776" lon="5.36232">
        <ele>1086.1999511719</ele>
        <time>2016-05-07T12:52:39Z</time>
      </trkpt>
      <trkpt lat="44.27755" lon="5.36227">
        <ele>1086.1999511719</ele>
        <time>2016-05-07T12:52:41Z</time>
      </trkpt>
      <trkpt lat="44.27749" lon="5.36209">
        <ele>1086.1999511719</ele>
        <time>2016-05-07T12:52:46Z</time>
      </trkpt>
      <trkpt lat="44.2775" lon="5.36191">
        <ele>1086.1999511719</ele>
        <time>2016-05-07T12:52:50Z</time>
      </trkpt>
      <trkpt lat="44.2775" lon="5.36183">
        <ele>1086.5999755859</ele>
        <time>2016-05-07T12:52:53Z</time>
      </trkpt>
      <trkpt lat="44.2775" lon="5.36172">
        <ele>1087.1999511719</ele>
        <time>2016-05-07T12:52:57Z</time>
      </trkpt>
      <trkpt lat="44.27752" lon="5.3616">
        <ele>1088.1999511719</ele>
        <time>2016-05-07T12:53:02Z</time>
      </trkpt>
      <trkpt lat="44.27754" lon="5.36153">
        <ele>1088.1999511719</ele>
        <time>2016-05-07T12:53:05Z</time>
      </trkpt>
      <trkpt lat="44.27756" lon="5.36149">
        <ele>1088.5999755859</ele>
        <time>2016-05-07T12:53:07Z</time>
      </trkpt>
      <trkpt lat="44.27759" lon="5.36141">
        <ele>1089.1999511719</ele>
        <time>2016-05-07T12:53:11Z</time>
      </trkpt>
      <trkpt lat="44.27759" lon="5.3614">
        <ele>1089.1999511719</ele>
        <time>2016-05-07T12:53:12Z</time>
      </trkpt>
      <trkpt lat="44.27761" lon="5.3613">
        <ele>1090.1999511719</ele>
        <time>2016-05-07T12:53:16Z</time>
      </trkpt>
      <trkpt lat="44.27764" lon="5.3612">
        <ele>1091.1999511719</ele>
        <time>2016-05-07T12:53:21Z</time>
      </trkpt>
      <trkpt lat="44.27768" lon="5.36111">
        <ele>1091.5999755859</ele>
        <time>2016-05-07T12:53:26Z</time>
      </trkpt>
      <trkpt lat="44.27771" lon="5.36104">
        <ele>1092.5999755859</ele>
        <time>2016-05-07T12:53:30Z</time>
      </trkpt>
      <trkpt lat="44.27772" lon="5.36103">
        <ele>1092.5999755859</ele>
        <time>2016-05-07T12:53:31Z</time>
      </trkpt>
      <trkpt lat="44.27775" lon="5.36096">
        <ele>1093</ele>
        <time>2016-05-07T12:53:35Z</time>
      </trkpt>
      <trkpt lat="44.27776" lon="5.36094">
        <ele>1093.4000244141</ele>
        <time>2016-05-07T12:53:36Z</time>
      </trkpt>
      <trkpt lat="44.27779" lon="5.36089">
        <ele>1094</ele>
        <time>2016-05-07T12:53:39Z</time>
      </trkpt>
      <trkpt lat="44.2778" lon="5.36088">
        <ele>1094.4000244141</ele>
        <time>2016-05-07T12:53:40Z</time>
      </trkpt>
      <trkpt lat="44.27784" lon="5.36081">
        <ele>1094.8000488281</ele>
        <time>2016-05-07T12:53:44Z</time>
      </trkpt>
      <trkpt lat="44.27785" lon="5.36079">
        <ele>1095.4000244141</ele>
        <time>2016-05-07T12:53:45Z</time>
      </trkpt>
      <trkpt lat="44.27787" lon="5.36076">
        <ele>1095.4000244141</ele>
        <time>2016-05-07T12:53:47Z</time>
      </trkpt>
      <trkpt lat="44.27789" lon="5.36072">
        <ele>1095.8000488281</ele>
        <time>2016-05-07T12:53:49Z</time>
      </trkpt>
      <trkpt lat="44.27794" lon="5.36057">
        <ele>1095.8000488281</ele>
        <time>2016-05-07T12:53:57Z</time>
      </trkpt>
      <trkpt lat="44.27796" lon="5.36054">
        <ele>1096.1999511719</ele>
        <time>2016-05-07T12:53:59Z</time>
      </trkpt>
      <trkpt lat="44.27798" lon="5.36045">
        <ele>1096.5999755859</ele>
        <time>2016-05-07T12:54:03Z</time>
      </trkpt>
      <trkpt lat="44.278" lon="5.36039">
        <ele>1096.5999755859</ele>
        <time>2016-05-07T12:54:06Z</time>
      </trkpt>
      <trkpt lat="44.27802" lon="5.36035">
        <ele>1097.4000244141</ele>
        <time>2016-05-07T12:54:08Z</time>
      </trkpt>
      <trkpt lat="44.27803" lon="5.36026">
        <ele>1097.8000488281</ele>
        <time>2016-05-07T12:54:12Z</time>
      </trkpt>
      <trkpt lat="44.27805" lon="5.36022">
        <ele>1097.8000488281</ele>
        <time>2016-05-07T12:54:14Z</time>
      </trkpt>
      <trkpt lat="44.27808" lon="5.36015">
        <ele>1098.4000244141</ele>
        <time>2016-05-07T12:54:17Z</time>
      </trkpt>
      <trkpt lat="44.27814" lon="5.36007">
        <ele>1098.8000488281</ele>
        <time>2016-05-07T12:54:21Z</time>
      </trkpt>
      <trkpt lat="44.27816" lon="5.36006">
        <ele>1099.1999511719</ele>
        <time>2016-05-07T12:54:22Z</time>
      </trkpt>
      <trkpt lat="44.27817" lon="5.36004">
        <ele>1099.1999511719</ele>
        <time>2016-05-07T12:54:23Z</time>
      </trkpt>
      <trkpt lat="44.27821" lon="5.35999">
        <ele>1099.5999755859</ele>
        <time>2016-05-07T12:54:26Z</time>
      </trkpt>
      <trkpt lat="44.27826" lon="5.35992">
        <ele>1099.5999755859</ele>
        <time>2016-05-07T12:54:29Z</time>
      </trkpt>
      <trkpt lat="44.27827" lon="5.3599">
        <ele>1100.1999511719</ele>
        <time>2016-05-07T12:54:30Z</time>
      </trkpt>
      <trkpt lat="44.27834" lon="5.35985">
        <ele>1100.1999511719</ele>
        <time>2016-05-07T12:54:34Z</time>
      </trkpt>
      <trkpt lat="44.27836" lon="5.35985">
        <ele>1100.1999511719</ele>
        <time>2016-05-07T12:54:35Z</time>
      </trkpt>
      <trkpt lat="44.2785" lon="5.35974">
        <ele>1100.1999511719</ele>
        <time>2016-05-07T12:54:42Z</time>
      </trkpt>
      <trkpt lat="44.27851" lon="5.35972">
        <ele>1100.1999511719</ele>
        <time>2016-05-07T12:54:43Z</time>
      </trkpt>
      <trkpt lat="44.27854" lon="5.35969">
        <ele>1101</ele>
        <time>2016-05-07T12:54:45Z</time>
      </trkpt>
      <trkpt lat="44.27859" lon="5.35962">
        <ele>1101.4000244141</ele>
        <time>2016-05-07T12:54:49Z</time>
      </trkpt>
      <trkpt lat="44.2786" lon="5.3596">
        <ele>1102</ele>
        <time>2016-05-07T12:54:50Z</time>
      </trkpt>
      <trkpt lat="44.27861" lon="5.35959">
        <ele>1102</ele>
        <time>2016-05-07T12:54:51Z</time>
      </trkpt>
      <trkpt lat="44.27863" lon="5.35954">
        <ele>1102.8000488281</ele>
        <time>2016-05-07T12:54:54Z</time>
      </trkpt>
      <trkpt lat="44.27868" lon="5.35948">
        <ele>1103.1999511719</ele>
        <time>2016-05-07T12:54:58Z</time>
      </trkpt>
      <trkpt lat="44.27868" lon="5.35947">
        <ele>1103.8000488281</ele>
        <time>2016-05-07T12:54:59Z</time>
      </trkpt>
      <trkpt lat="44.27869" lon="5.35945">
        <ele>1103.8000488281</ele>
        <time>2016-05-07T12:55:00Z</time>
      </trkpt>
      <trkpt lat="44.27873" lon="5.35941">
        <ele>1104.1999511719</ele>
        <time>2016-05-07T12:55:03Z</time>
      </trkpt>
      <trkpt lat="44.27879" lon="5.35935">
        <ele>1105.4000244141</ele>
        <time>2016-05-07T12:55:08Z</time>
      </trkpt>
      <trkpt lat="44.2788" lon="5.35934">
        <ele>1105.4000244141</ele>
        <time>2016-05-07T12:55:09Z</time>
      </trkpt>
      <trkpt lat="44.27884" lon="5.35928">
        <ele>1106</ele>
        <time>2016-05-07T12:55:13Z</time>
      </trkpt>
      <trkpt lat="44.27887" lon="5.35922">
        <ele>1107</ele>
        <time>2016-05-07T12:55:17Z</time>
      </trkpt>
      <trkpt lat="44.27887" lon="5.35921">
        <ele>1107</ele>
        <time>2016-05-07T12:55:18Z</time>
      </trkpt>
      <trkpt lat="44.27887" lon="5.35921">
        <ele>1107.5999755859</ele>
        <time>2016-05-07T12:55:21Z</time>
      </trkpt>
      <trkpt lat="44.27888" lon="5.35921">
        <ele>1108.1999511719</ele>
        <time>2016-05-07T12:55:22Z</time>
      </trkpt>
      <trkpt lat="44.27889" lon="5.35919">
        <ele>1108.5999755859</ele>
        <time>2016-05-07T12:55:31Z</time>
      </trkpt>
      <trkpt lat="44.27889" lon="5.35918">
        <ele>1109.1999511719</ele>
        <time>2016-05-07T12:55:35Z</time>
      </trkpt>
      <trkpt lat="44.2789" lon="5.35917">
        <ele>1109.8000488281</ele>
        <time>2016-05-07T12:55:40Z</time>
      </trkpt>
      <trkpt lat="44.27899" lon="5.35909">
        <ele>1109.8000488281</ele>
        <time>2016-05-07T12:55:50Z</time>
      </trkpt>
      <trkpt lat="44.27903" lon="5.35898">
        <ele>1109.8000488281</ele>
        <time>2016-05-07T12:55:58Z</time>
      </trkpt>
      <trkpt lat="44.27905" lon="5.35891">
        <ele>1110.5999755859</ele>
        <time>2016-05-07T12:56:04Z</time>
      </trkpt>
      <trkpt lat="44.27905" lon="5.35889">
        <ele>1110.5999755859</ele>
        <time>2016-05-07T12:56:06Z</time>
      </trkpt>
      <trkpt lat="44.27906" lon="5.35886">
        <ele>1111.5999755859</ele>
        <time>2016-05-07T12:56:09Z</time>
      </trkpt>
      <trkpt lat="44.27908" lon="5.35881">
        <ele>1112</ele>
        <time>2016-05-07T12:56:13Z</time>
      </trkpt>
      <trkpt lat="44.2791" lon="5.35878">
        <ele>1112</ele>
        <time>2016-05-07T12:56:16Z</time>
      </trkpt>
      <trkpt lat="44.27911" lon="5.35877">
        <ele>1112.5999755859</ele>
        <time>2016-05-07T12:56:17Z</time>
      </trkpt>
      <trkpt lat="44.27911" lon="5.35876">
        <ele>1113.1999511719</ele>
        <time>2016-05-07T12:56:18Z</time>
      </trkpt>
      <trkpt lat="44.27911" lon="5.3587">
        <ele>1113.8000488281</ele>
        <time>2016-05-07T12:56:22Z</time>
      </trkpt>
      <trkpt lat="44.27912" lon="5.35868">
        <ele>1113.8000488281</ele>
        <time>2016-05-07T12:56:24Z</time>
      </trkpt>
      <trkpt lat="44.27913" lon="5.35864">
        <ele>1114.5999755859</ele>
        <time>2016-05-07T12:56:27Z</time>
      </trkpt>
      <trkpt lat="44.27913" lon="5.35864">
        <ele>1115</ele>
        <time>2016-05-07T12:56:31Z</time>
      </trkpt>
      <trkpt lat="44.27913" lon="5.35864">
        <ele>1115.5999755859</ele>
        <time>2016-05-07T12:56:32Z</time>
      </trkpt>
      <trkpt lat="44.27914" lon="5.35862">
        <ele>1115.5999755859</ele>
        <time>2016-05-07T12:56:34Z</time>
      </trkpt>
      <trkpt lat="44.27916" lon="5.35858">
        <ele>1116</ele>
        <time>2016-05-07T12:56:36Z</time>
      </trkpt>
      <trkpt lat="44.27916" lon="5.35856">
        <ele>1116</ele>
        <time>2016-05-07T12:56:37Z</time>
      </trkpt>
      <trkpt lat="44.27917" lon="5.35849">
        <ele>1116.4000244141</ele>
        <time>2016-05-07T12:56:40Z</time>
      </trkpt>
      <trkpt lat="44.27922" lon="5.35837">
        <ele>1116.4000244141</ele>
        <time>2016-05-07T12:56:47Z</time>
      </trkpt>
      <trkpt lat="44.27928" lon="5.35818">
        <ele>1116.8000488281</ele>
        <time>2016-05-07T12:56:55Z</time>
      </trkpt>
      <trkpt lat="44.27929" lon="5.35816">
        <ele>1117.1999511719</ele>
        <time>2016-05-07T12:56:56Z</time>
      </trkpt>
      <trkpt lat="44.27931" lon="5.35806">
        <ele>1117.8000488281</ele>
        <time>2016-05-07T12:57:00Z</time>
      </trkpt>
      <trkpt lat="44.27932" lon="5.35802">
        <ele>1117.8000488281</ele>
        <time>2016-05-07T12:57:03Z</time>
      </trkpt>
      <trkpt lat="44.27932" lon="5.358">
        <ele>1118.5999755859</ele>
        <time>2016-05-07T12:57:05Z</time>
      </trkpt>
      <trkpt lat="44.27934" lon="5.35797">
        <ele>1118.5999755859</ele>
        <time>2016-05-07T12:57:09Z</time>
      </trkpt>
      <trkpt lat="44.27934" lon="5.35796">
        <ele>1119.1999511719</ele>
        <time>2016-05-07T12:57:10Z</time>
      </trkpt>
      <trkpt lat="44.27935" lon="5.35792">
        <ele>1119.1999511719</ele>
        <time>2016-05-07T12:57:12Z</time>
      </trkpt>
      <trkpt lat="44.27936" lon="5.35789">
        <ele>1119.5999755859</ele>
        <time>2016-05-07T12:57:14Z</time>
      </trkpt>
      <trkpt lat="44.27937" lon="5.35786">
        <ele>1119.5999755859</ele>
        <time>2016-05-07T12:57:16Z</time>
      </trkpt>
      <trkpt lat="44.27938" lon="5.35781">
        <ele>1120.4000244141</ele>
        <time>2016-05-07T12:57:19Z</time>
      </trkpt>
      <trkpt lat="44.27939" lon="5.35774">
        <ele>1120.8000488281</ele>
        <time>2016-05-07T12:57:23Z</time>
      </trkpt>
      <trkpt lat="44.2794" lon="5.3577">
        <ele>1120.8000488281</ele>
        <time>2016-05-07T12:57:26Z</time>
      </trkpt>
      <trkpt lat="44.27942" lon="5.35763">
        <ele>1120.8000488281</ele>
        <time>2016-05-07T12:57:33Z</time>
      </trkpt>
      <trkpt lat="44.27944" lon="5.35754">
        <ele>1120.8000488281</ele>
        <time>2016-05-07T12:57:40Z</time>
      </trkpt>
      <trkpt lat="44.27946" lon="5.3575">
        <ele>1121.8000488281</ele>
        <time>2016-05-07T12:57:42Z</time>
      </trkpt>
      <trkpt lat="44.27952" lon="5.35731">
        <ele>1121.8000488281</ele>
        <time>2016-05-07T12:57:50Z</time>
      </trkpt>
      <trkpt lat="44.27953" lon="5.35726">
        <ele>1122.4000244141</ele>
        <time>2016-05-07T12:57:52Z</time>
      </trkpt>
      <trkpt lat="44.27954" lon="5.35719">
        <ele>1122.4000244141</ele>
        <time>2016-05-07T12:57:55Z</time>
      </trkpt>
      <trkpt lat="44.27954" lon="5.35716">
        <ele>1123.4000244141</ele>
        <time>2016-05-07T12:57:56Z</time>
      </trkpt>
      <trkpt lat="44.27958" lon="5.35707">
        <ele>1124</ele>
        <time>2016-05-07T12:58:01Z</time>
      </trkpt>
      <trkpt lat="44.27958" lon="5.35705">
        <ele>1124</ele>
        <time>2016-05-07T12:58:02Z</time>
      </trkpt>
      <trkpt lat="44.27961" lon="5.35698">
        <ele>1125.4000244141</ele>
        <time>2016-05-07T12:58:05Z</time>
      </trkpt>
      <trkpt lat="44.27964" lon="5.35685">
        <ele>1126</ele>
        <time>2016-05-07T12:58:10Z</time>
      </trkpt>
      <trkpt lat="44.2797" lon="5.35659">
        <ele>1126</ele>
        <time>2016-05-07T12:58:18Z</time>
      </trkpt>
      <trkpt lat="44.27975" lon="5.35623">
        <ele>1126</ele>
        <time>2016-05-07T12:58:25Z</time>
      </trkpt>
      <trkpt lat="44.2798" lon="5.35596">
        <ele>1125.4000244141</ele>
        <time>2016-05-07T12:58:28Z</time>
      </trkpt>
      <trkpt lat="44.27982" lon="5.35587">
        <ele>1125.4000244141</ele>
        <time>2016-05-07T12:58:29Z</time>
      </trkpt>
      <trkpt lat="44.27986" lon="5.35568">
        <ele>1125.4000244141</ele>
        <time>2016-05-07T12:58:31Z</time>
      </trkpt>
      <trkpt lat="44.27988" lon="5.35557">
        <ele>1123.4000244141</ele>
        <time>2016-05-07T12:58:32Z</time>
      </trkpt>
      <trkpt lat="44.27991" lon="5.35535">
        <ele>1123.4000244141</ele>
        <time>2016-05-07T12:58:34Z</time>
      </trkpt>
      <trkpt lat="44.27994" lon="5.35513">
        <ele>1122.1999511719</ele>
        <time>2016-05-07T12:58:36Z</time>
      </trkpt>
      <trkpt lat="44.27996" lon="5.35502">
        <ele>1121.1999511719</ele>
        <time>2016-05-07T12:58:37Z</time>
      </trkpt>
      <trkpt lat="44.27999" lon="5.35483">
        <ele>1121.1999511719</ele>
        <time>2016-05-07T12:58:39Z</time>
      </trkpt>
      <trkpt lat="44.27999" lon="5.35473">
        <ele>1121.1999511719</ele>
        <time>2016-05-07T12:58:40Z</time>
      </trkpt>
      <trkpt lat="44.27999" lon="5.35464">
        <ele>1119.8000488281</ele>
        <time>2016-05-07T12:58:41Z</time>
      </trkpt>
      <trkpt lat="44.27998" lon="5.3543">
        <ele>1119.8000488281</ele>
        <time>2016-05-07T12:58:45Z</time>
      </trkpt>
      <trkpt lat="44.27998" lon="5.35423">
        <ele>1117.4000244141</ele>
        <time>2016-05-07T12:58:46Z</time>
      </trkpt>
      <trkpt lat="44.27997" lon="5.35409">
        <ele>1117.4000244141</ele>
        <time>2016-05-07T12:58:49Z</time>
      </trkpt>
      <trkpt lat="44.27996" lon="5.35405">
        <ele>1116.1999511719</ele>
        <time>2016-05-07T12:58:50Z</time>
      </trkpt>
      <trkpt lat="44.27996" lon="5.35402">
        <ele>1115</ele>
        <time>2016-05-07T12:58:51Z</time>
      </trkpt>
      <trkpt lat="44.27993" lon="5.3539">
        <ele>1115</ele>
        <time>2016-05-07T12:58:55Z</time>
      </trkpt>
      <trkpt lat="44.27995" lon="5.35368">
        <ele>1115</ele>
        <time>2016-05-07T12:59:02Z</time>
      </trkpt>
      <trkpt lat="44.27993" lon="5.35347">
        <ele>1115</ele>
        <time>2016-05-07T12:59:10Z</time>
      </trkpt>
      <trkpt lat="44.27991" lon="5.35336">
        <ele>1115</ele>
        <time>2016-05-07T12:59:15Z</time>
      </trkpt>
      <trkpt lat="44.2799" lon="5.3533">
        <ele>1115.4000244141</ele>
        <time>2016-05-07T12:59:18Z</time>
      </trkpt>
      <trkpt lat="44.2799" lon="5.35329">
        <ele>1115.8000488281</ele>
        <time>2016-05-07T12:59:19Z</time>
      </trkpt>
      <trkpt lat="44.27988" lon="5.35321">
        <ele>1116.8000488281</ele>
        <time>2016-05-07T12:59:23Z</time>
      </trkpt>
      <trkpt lat="44.27989" lon="5.35318">
        <ele>1116.8000488281</ele>
        <time>2016-05-07T12:59:25Z</time>
      </trkpt>
      <trkpt lat="44.27989" lon="5.35303">
        <ele>1117.4000244141</ele>
        <time>2016-05-07T12:59:31Z</time>
      </trkpt>
      <trkpt lat="44.27989" lon="5.353">
        <ele>1117.4000244141</ele>
        <time>2016-05-07T12:59:32Z</time>
      </trkpt>
      <trkpt lat="44.27988" lon="5.35292">
        <ele>1118.4000244141</ele>
        <time>2016-05-07T12:59:36Z</time>
      </trkpt>
      <trkpt lat="44.27987" lon="5.35281">
        <ele>1118.4000244141</ele>
        <time>2016-05-07T12:59:40Z</time>
      </trkpt>
      <trkpt lat="44.27987" lon="5.35279">
        <ele>1119.4000244141</ele>
        <time>2016-05-07T12:59:41Z</time>
      </trkpt>
      <trkpt lat="44.27987" lon="5.35259">
        <ele>1119.4000244141</ele>
        <time>2016-05-07T12:59:48Z</time>
      </trkpt>
      <trkpt lat="44.27987" lon="5.35253">
        <ele>1120.4000244141</ele>
        <time>2016-05-07T12:59:50Z</time>
      </trkpt>
      <trkpt lat="44.27988" lon="5.3524">
        <ele>1121</ele>
        <time>2016-05-07T12:59:55Z</time>
      </trkpt>
      <trkpt lat="44.27989" lon="5.35238">
        <ele>1121.4000244141</ele>
        <time>2016-05-07T12:59:56Z</time>
      </trkpt>
      <trkpt lat="44.2799" lon="5.35235">
        <ele>1121.4000244141</ele>
        <time>2016-05-07T12:59:57Z</time>
      </trkpt>
      <trkpt lat="44.2799" lon="5.35228">
        <ele>1122</ele>
        <time>2016-05-07T13:00:00Z</time>
      </trkpt>
      <trkpt lat="44.27992" lon="5.35219">
        <ele>1122.4000244141</ele>
        <time>2016-05-07T13:00:04Z</time>
      </trkpt>
      <trkpt lat="44.27992" lon="5.35218">
        <ele>1123</ele>
        <time>2016-05-07T13:00:05Z</time>
      </trkpt>
      <trkpt lat="44.27993" lon="5.35213">
        <ele>1123</ele>
        <time>2016-05-07T13:00:07Z</time>
      </trkpt>
      <trkpt lat="44.27993" lon="5.35208">
        <ele>1123.4000244141</ele>
        <time>2016-05-07T13:00:09Z</time>
      </trkpt>
      <trkpt lat="44.27993" lon="5.35206">
        <ele>1124</ele>
        <time>2016-05-07T13:00:10Z</time>
      </trkpt>
      <trkpt lat="44.27994" lon="5.35195">
        <ele>1124.4000244141</ele>
        <time>2016-05-07T13:00:14Z</time>
      </trkpt>
      <trkpt lat="44.27997" lon="5.35176">
        <ele>1124.4000244141</ele>
        <time>2016-05-07T13:00:21Z</time>
      </trkpt>
      <trkpt lat="44.27998" lon="5.35168">
        <ele>1124.8000488281</ele>
        <time>2016-05-07T13:00:24Z</time>
      </trkpt>
      <trkpt lat="44.28" lon="5.35157">
        <ele>1125.1999511719</ele>
        <time>2016-05-07T13:00:28Z</time>
      </trkpt>
      <trkpt lat="44.28001" lon="5.35151">
        <ele>1125.1999511719</ele>
        <time>2016-05-07T13:00:30Z</time>
      </trkpt>
      <trkpt lat="44.28002" lon="5.35143">
        <ele>1125.5999755859</ele>
        <time>2016-05-07T13:00:33Z</time>
      </trkpt>
      <trkpt lat="44.28003" lon="5.35134">
        <ele>1126.1999511719</ele>
        <time>2016-05-07T13:00:37Z</time>
      </trkpt>
      <trkpt lat="44.28003" lon="5.35129">
        <ele>1126.1999511719</ele>
        <time>2016-05-07T13:00:39Z</time>
      </trkpt>
      <trkpt lat="44.28003" lon="5.35121">
        <ele>1127.4000244141</ele>
        <time>2016-05-07T13:00:42Z</time>
      </trkpt>
      <trkpt lat="44.28004" lon="5.35108">
        <ele>1128</ele>
        <time>2016-05-07T13:00:47Z</time>
      </trkpt>
      <trkpt lat="44.28004" lon="5.35103">
        <ele>1128</ele>
        <time>2016-05-07T13:00:49Z</time>
      </trkpt>
      <trkpt lat="44.28004" lon="5.35097">
        <ele>1128.5999755859</ele>
        <time>2016-05-07T13:00:51Z</time>
      </trkpt>
      <trkpt lat="44.28003" lon="5.3508">
        <ele>1128.5999755859</ele>
        <time>2016-05-07T13:00:56Z</time>
      </trkpt>
      <trkpt lat="44.28001" lon="5.35054">
        <ele>1128.5999755859</ele>
        <time>2016-05-07T13:01:04Z</time>
      </trkpt>
      <trkpt lat="44.28001" lon="5.35051">
        <ele>1129.5999755859</ele>
        <time>2016-05-07T13:01:05Z</time>
      </trkpt>
      <trkpt lat="44.28" lon="5.35027">
        <ele>1130</ele>
        <time>2016-05-07T13:01:13Z</time>
      </trkpt>
      <trkpt lat="44.27998" lon="5.3501">
        <ele>1130.8000488281</ele>
        <time>2016-05-07T13:01:18Z</time>
      </trkpt>
      <trkpt lat="44.27998" lon="5.34999">
        <ele>1130.8000488281</ele>
        <time>2016-05-07T13:01:21Z</time>
      </trkpt>
      <trkpt lat="44.27993" lon="5.34969">
        <ele>1130.8000488281</ele>
        <time>2016-05-07T13:01:27Z</time>
      </trkpt>
      <trkpt lat="44.27993" lon="5.34945">
        <ele>1130.8000488281</ele>
        <time>2016-05-07T13:01:32Z</time>
      </trkpt>
      <trkpt lat="44.27996" lon="5.34911">
        <ele>1130.8000488281</ele>
        <time>2016-05-07T13:01:40Z</time>
      </trkpt>
      <trkpt lat="44.27993" lon="5.3488">
        <ele>1130.8000488281</ele>
        <time>2016-05-07T13:01:46Z</time>
      </trkpt>
      <trkpt lat="44.27999" lon="5.3484">
        <ele>1130.8000488281</ele>
        <time>2016-05-07T13:01:54Z</time>
      </trkpt>
      <trkpt lat="44.28006" lon="5.348">
        <ele>1130.8000488281</ele>
        <time>2016-05-07T13:02:02Z</time>
      </trkpt>
      <trkpt lat="44.28005" lon="5.34794">
        <ele>1130.8000488281</ele>
        <time>2016-05-07T13:02:03Z</time>
      </trkpt>
      <trkpt lat="44.28001" lon="5.34768">
        <ele>1130.8000488281</ele>
        <time>2016-05-07T13:02:07Z</time>
      </trkpt>
      <trkpt lat="44.28001" lon="5.34725">
        <ele>1130.8000488281</ele>
        <time>2016-05-07T13:02:13Z</time>
      </trkpt>
      <trkpt lat="44.28001" lon="5.34705">
        <ele>1130.1999511719</ele>
        <time>2016-05-07T13:02:16Z</time>
      </trkpt>
      <trkpt lat="44.28003" lon="5.34692">
        <ele>1130.1999511719</ele>
        <time>2016-05-07T13:02:18Z</time>
      </trkpt>
      <trkpt lat="44.28008" lon="5.3468">
        <ele>1129.5999755859</ele>
        <time>2016-05-07T13:02:20Z</time>
      </trkpt>
      <trkpt lat="44.28016" lon="5.34661">
        <ele>1129.5999755859</ele>
        <time>2016-05-07T13:02:23Z</time>
      </trkpt>
      <trkpt lat="44.28016" lon="5.34654">
        <ele>1129</ele>
        <time>2016-05-07T13:02:24Z</time>
      </trkpt>
      <trkpt lat="44.28016" lon="5.34634">
        <ele>1129</ele>
        <time>2016-05-07T13:02:27Z</time>
      </trkpt>
      <trkpt lat="44.28016" lon="5.34627">
        <ele>1128.4000244141</ele>
        <time>2016-05-07T13:02:28Z</time>
      </trkpt>
      <trkpt lat="44.28016" lon="5.3462">
        <ele>1127.8000488281</ele>
        <time>2016-05-07T13:02:29Z</time>
      </trkpt>
      <trkpt lat="44.28015" lon="5.34612">
        <ele>1127.8000488281</ele>
        <time>2016-05-07T13:02:30Z</time>
      </trkpt>
      <trkpt lat="44.28014" lon="5.34596">
        <ele>1127.4000244141</ele>
        <time>2016-05-07T13:02:32Z</time>
      </trkpt>
      <trkpt lat="44.28014" lon="5.34587">
        <ele>1126.8000488281</ele>
        <time>2016-05-07T13:02:33Z</time>
      </trkpt>
      <trkpt lat="44.28014" lon="5.34554">
        <ele>1126.4000244141</ele>
        <time>2016-05-07T13:02:37Z</time>
      </trkpt>
      <trkpt lat="44.28014" lon="5.34547">
        <ele>1125.8000488281</ele>
        <time>2016-05-07T13:02:38Z</time>
      </trkpt>
      <trkpt lat="44.28015" lon="5.34527">
        <ele>1125.4000244141</ele>
        <time>2016-05-07T13:02:41Z</time>
      </trkpt>
      <trkpt lat="44.28015" lon="5.34522">
        <ele>1125.4000244141</ele>
        <time>2016-05-07T13:02:42Z</time>
      </trkpt>
      <trkpt lat="44.28014" lon="5.34496">
        <ele>1125.4000244141</ele>
        <time>2016-05-07T13:02:49Z</time>
      </trkpt>
      <trkpt lat="44.28014" lon="5.34475">
        <ele>1125.4000244141</ele>
        <time>2016-05-07T13:02:57Z</time>
      </trkpt>
      <trkpt lat="44.28014" lon="5.34457">
        <ele>1126</ele>
        <time>2016-05-07T13:03:04Z</time>
      </trkpt>
      <trkpt lat="44.28013" lon="5.34455">
        <ele>1126.4000244141</ele>
        <time>2016-05-07T13:03:05Z</time>
      </trkpt>
      <trkpt lat="44.28013" lon="5.34452">
        <ele>1126.4000244141</ele>
        <time>2016-05-07T13:03:06Z</time>
      </trkpt>
      <trkpt lat="44.28011" lon="5.34435">
        <ele>1127</ele>
        <time>2016-05-07T13:03:13Z</time>
      </trkpt>
      <trkpt lat="44.28011" lon="5.34432">
        <ele>1127.5999755859</ele>
        <time>2016-05-07T13:03:14Z</time>
      </trkpt>
      <trkpt lat="44.2801" lon="5.34418">
        <ele>1128.4000244141</ele>
        <time>2016-05-07T13:03:19Z</time>
      </trkpt>
      <trkpt lat="44.2801" lon="5.34415">
        <ele>1129</ele>
        <time>2016-05-07T13:03:20Z</time>
      </trkpt>
      <trkpt lat="44.28009" lon="5.34404">
        <ele>1130.4000244141</ele>
        <time>2016-05-07T13:03:24Z</time>
      </trkpt>
      <trkpt lat="44.28011" lon="5.34378">
        <ele>1130.4000244141</ele>
        <time>2016-05-07T13:03:32Z</time>
      </trkpt>
      <trkpt lat="44.28014" lon="5.34347">
        <ele>1130.4000244141</ele>
        <time>2016-05-07T13:03:41Z</time>
      </trkpt>
      <trkpt lat="44.28007" lon="5.34317">
        <ele>1130.4000244141</ele>
        <time>2016-05-07T13:03:48Z</time>
      </trkpt>
      <trkpt lat="44.28006" lon="5.34295">
        <ele>1130.4000244141</ele>
        <time>2016-05-07T13:03:53Z</time>
      </trkpt>
      <trkpt lat="44.28012" lon="5.34276">
        <ele>1130.4000244141</ele>
        <time>2016-05-07T13:03:58Z</time>
      </trkpt>
      <trkpt lat="44.28013" lon="5.34243">
        <ele>1130</ele>
        <time>2016-05-07T13:04:04Z</time>
      </trkpt>
      <trkpt lat="44.28014" lon="5.34215">
        <ele>1129.5999755859</ele>
        <time>2016-05-07T13:04:08Z</time>
      </trkpt>
      <trkpt lat="44.28014" lon="5.3421">
        <ele>1129.1999511719</ele>
        <time>2016-05-07T13:04:09Z</time>
      </trkpt>
      <trkpt lat="44.28013" lon="5.342">
        <ele>1129.1999511719</ele>
        <time>2016-05-07T13:04:11Z</time>
      </trkpt>
      <trkpt lat="44.28014" lon="5.34191">
        <ele>1128.8000488281</ele>
        <time>2016-05-07T13:04:13Z</time>
      </trkpt>
      <trkpt lat="44.28014" lon="5.34187">
        <ele>1128.4000244141</ele>
        <time>2016-05-07T13:04:14Z</time>
      </trkpt>
      <trkpt lat="44.28016" lon="5.34176">
        <ele>1128.4000244141</ele>
        <time>2016-05-07T13:04:17Z</time>
      </trkpt>
      <trkpt lat="44.28019" lon="5.34159">
        <ele>1128.8000488281</ele>
        <time>2016-05-07T13:04:23Z</time>
      </trkpt>
      <trkpt lat="44.2802" lon="5.34153">
        <ele>1128.8000488281</ele>
        <time>2016-05-07T13:04:25Z</time>
      </trkpt>
      <trkpt lat="44.28024" lon="5.34124">
        <ele>1130.1999511719</ele>
        <time>2016-05-07T13:04:36Z</time>
      </trkpt>
      <trkpt lat="44.28023" lon="5.34116">
        <ele>1130.1999511719</ele>
        <time>2016-05-07T13:04:39Z</time>
      </trkpt>
      <trkpt lat="44.28022" lon="5.3411">
        <ele>1131.1999511719</ele>
        <time>2016-05-07T13:04:41Z</time>
      </trkpt>
      <trkpt lat="44.2802" lon="5.34098">
        <ele>1132.1999511719</ele>
        <time>2016-05-07T13:04:45Z</time>
      </trkpt>
      <trkpt lat="44.2802" lon="5.34094">
        <ele>1132.1999511719</ele>
        <time>2016-05-07T13:04:46Z</time>
      </trkpt>
      <trkpt lat="44.28019" lon="5.34082">
        <ele>1132.8000488281</ele>
        <time>2016-05-07T13:04:50Z</time>
      </trkpt>
      <trkpt lat="44.28017" lon="5.34069">
        <ele>1132.8000488281</ele>
        <time>2016-05-07T13:04:54Z</time>
      </trkpt>
      <trkpt lat="44.28022" lon="5.34043">
        <ele>1132.8000488281</ele>
        <time>2016-05-07T13:05:02Z</time>
      </trkpt>
      <trkpt lat="44.28028" lon="5.34021">
        <ele>1132.8000488281</ele>
        <time>2016-05-07T13:05:10Z</time>
      </trkpt>
      <trkpt lat="44.28028" lon="5.34018">
        <ele>1133.8000488281</ele>
        <time>2016-05-07T13:05:11Z</time>
      </trkpt>
      <trkpt lat="44.28031" lon="5.34008">
        <ele>1134.8000488281</ele>
        <time>2016-05-07T13:05:15Z</time>
      </trkpt>
      <trkpt lat="44.28034" lon="5.34">
        <ele>1134.8000488281</ele>
        <time>2016-05-07T13:05:19Z</time>
      </trkpt>
      <trkpt lat="44.28036" lon="5.33998">
        <ele>1135.4000244141</ele>
        <time>2016-05-07T13:05:20Z</time>
      </trkpt>
      <trkpt lat="44.28042" lon="5.33988">
        <ele>1135.4000244141</ele>
        <time>2016-05-07T13:05:26Z</time>
      </trkpt>
      <trkpt lat="44.28049" lon="5.33976">
        <ele>1136.4000244141</ele>
        <time>2016-05-07T13:05:32Z</time>
      </trkpt>
      <trkpt lat="44.28054" lon="5.33968">
        <ele>1137.4000244141</ele>
        <time>2016-05-07T13:05:36Z</time>
      </trkpt>
      <trkpt lat="44.28055" lon="5.33965">
        <ele>1137.4000244141</ele>
        <time>2016-05-07T13:05:37Z</time>
      </trkpt>
      <trkpt lat="44.28059" lon="5.33953">
        <ele>1138</ele>
        <time>2016-05-07T13:05:41Z</time>
      </trkpt>
      <trkpt lat="44.28064" lon="5.3394">
        <ele>1138</ele>
        <time>2016-05-07T13:05:44Z</time>
      </trkpt>
      <trkpt lat="44.28072" lon="5.33902">
        <ele>1138</ele>
        <time>2016-05-07T13:05:52Z</time>
      </trkpt>
      <trkpt lat="44.2808" lon="5.33863">
        <ele>1138</ele>
        <time>2016-05-07T13:05:59Z</time>
      </trkpt>
      <trkpt lat="44.28088" lon="5.33825">
        <ele>1138</ele>
        <time>2016-05-07T13:06:07Z</time>
      </trkpt>
      <trkpt lat="44.28093" lon="5.33803">
        <ele>1138</ele>
        <time>2016-05-07T13:06:12Z</time>
      </trkpt>
      <trkpt lat="44.28093" lon="5.33781">
        <ele>1138</ele>
        <time>2016-05-07T13:06:16Z</time>
      </trkpt>
      <trkpt lat="44.28092" lon="5.33775">
        <ele>1138</ele>
        <time>2016-05-07T13:06:17Z</time>
      </trkpt>
      <trkpt lat="44.28091" lon="5.33763">
        <ele>1137.5999755859</ele>
        <time>2016-05-07T13:06:19Z</time>
      </trkpt>
      <trkpt lat="44.28091" lon="5.33756">
        <ele>1137.1999511719</ele>
        <time>2016-05-07T13:06:20Z</time>
      </trkpt>
      <trkpt lat="44.28087" lon="5.33735">
        <ele>1136.1999511719</ele>
        <time>2016-05-07T13:06:24Z</time>
      </trkpt>
      <trkpt lat="44.28084" lon="5.33717">
        <ele>1135.4000244141</ele>
        <time>2016-05-07T13:06:28Z</time>
      </trkpt>
      <trkpt lat="44.2808" lon="5.33711">
        <ele>1135.4000244141</ele>
        <time>2016-05-07T13:06:30Z</time>
      </trkpt>
      <trkpt lat="44.28075" lon="5.33703">
        <ele>1133.8000488281</ele>
        <time>2016-05-07T13:06:32Z</time>
      </trkpt>
      <trkpt lat="44.28074" lon="5.33699">
        <ele>1132.1999511719</ele>
        <time>2016-05-07T13:06:33Z</time>
      </trkpt>
      <trkpt lat="44.28071" lon="5.3368">
        <ele>1130.5999755859</ele>
        <time>2016-05-07T13:06:37Z</time>
      </trkpt>
      <trkpt lat="44.28071" lon="5.33676">
        <ele>1129</ele>
        <time>2016-05-07T13:06:38Z</time>
      </trkpt>
      <trkpt lat="44.28072" lon="5.33671">
        <ele>1129</ele>
        <time>2016-05-07T13:06:39Z</time>
      </trkpt>
      <trkpt lat="44.28075" lon="5.33663">
        <ele>1127.4000244141</ele>
        <time>2016-05-07T13:06:41Z</time>
      </trkpt>
      <trkpt lat="44.28077" lon="5.33659">
        <ele>1125.8000488281</ele>
        <time>2016-05-07T13:06:42Z</time>
      </trkpt>
      <trkpt lat="44.28082" lon="5.33644">
        <ele>1124.1999511719</ele>
        <time>2016-05-07T13:06:46Z</time>
      </trkpt>
      <trkpt lat="44.28083" lon="5.33636">
        <ele>1124.1999511719</ele>
        <time>2016-05-07T13:06:48Z</time>
      </trkpt>
      <trkpt lat="44.28086" lon="5.33629">
        <ele>1122.5999755859</ele>
        <time>2016-05-07T13:06:50Z</time>
      </trkpt>
      <trkpt lat="44.28088" lon="5.33619">
        <ele>1122.5999755859</ele>
        <time>2016-05-07T13:06:53Z</time>
      </trkpt>
      <trkpt lat="44.2809" lon="5.33607">
        <ele>1122.5999755859</ele>
        <time>2016-05-07T13:06:57Z</time>
      </trkpt>
      <trkpt lat="44.28097" lon="5.33589">
        <ele>1122.5999755859</ele>
        <time>2016-05-07T13:07:05Z</time>
      </trkpt>
      <trkpt lat="44.28097" lon="5.33586">
        <ele>1123.1999511719</ele>
        <time>2016-05-07T13:07:19Z</time>
      </trkpt>
      <trkpt lat="44.28097" lon="5.33586">
        <ele>1123.5999755859</ele>
        <time>2016-05-07T13:07:20Z</time>
      </trkpt>
      <trkpt lat="44.28099" lon="5.33572">
        <ele>1124</ele>
        <time>2016-05-07T13:07:24Z</time>
      </trkpt>
      <trkpt lat="44.28099" lon="5.3356">
        <ele>1124.4000244141</ele>
        <time>2016-05-07T13:07:27Z</time>
      </trkpt>
      <trkpt lat="44.281" lon="5.33557">
        <ele>1124.8000488281</ele>
        <time>2016-05-07T13:07:28Z</time>
      </trkpt>
      <trkpt lat="44.28101" lon="5.33554">
        <ele>1124.8000488281</ele>
        <time>2016-05-07T13:07:29Z</time>
      </trkpt>
      <trkpt lat="44.2811" lon="5.33545">
        <ele>1125.1999511719</ele>
        <time>2016-05-07T13:07:36Z</time>
      </trkpt>
      <trkpt lat="44.28112" lon="5.33543">
        <ele>1125.1999511719</ele>
        <time>2016-05-07T13:07:38Z</time>
      </trkpt>
      <trkpt lat="44.28114" lon="5.33541">
        <ele>1125.5999755859</ele>
        <time>2016-05-07T13:07:40Z</time>
      </trkpt>
      <trkpt lat="44.28115" lon="5.33541">
        <ele>1126</ele>
        <time>2016-05-07T13:07:41Z</time>
      </trkpt>
      <trkpt lat="44.28118" lon="5.33538">
        <ele>1126.4000244141</ele>
        <time>2016-05-07T13:07:44Z</time>
      </trkpt>
      <trkpt lat="44.28121" lon="5.33534">
        <ele>1127</ele>
        <time>2016-05-07T13:07:48Z</time>
      </trkpt>
      <trkpt lat="44.28122" lon="5.33534">
        <ele>1127.5999755859</ele>
        <time>2016-05-07T13:07:49Z</time>
      </trkpt>
      <trkpt lat="44.28126" lon="5.33531">
        <ele>1128.1999511719</ele>
        <time>2016-05-07T13:07:53Z</time>
      </trkpt>
      <trkpt lat="44.28129" lon="5.33528">
        <ele>1128.1999511719</ele>
        <time>2016-05-07T13:07:55Z</time>
      </trkpt>
      <trkpt lat="44.2813" lon="5.33526">
        <ele>1128.8000488281</ele>
        <time>2016-05-07T13:07:56Z</time>
      </trkpt>
      <trkpt lat="44.28131" lon="5.33524">
        <ele>1128.8000488281</ele>
        <time>2016-05-07T13:07:57Z</time>
      </trkpt>
      <trkpt lat="44.28136" lon="5.33514">
        <ele>1129.4000244141</ele>
        <time>2016-05-07T13:08:01Z</time>
      </trkpt>
      <trkpt lat="44.28139" lon="5.33502">
        <ele>1129.4000244141</ele>
        <time>2016-05-07T13:08:04Z</time>
      </trkpt>
      <trkpt lat="44.2814" lon="5.33496">
        <ele>1129.4000244141</ele>
        <time>2016-05-07T13:08:05Z</time>
      </trkpt>
      <trkpt lat="44.28141" lon="5.33478">
        <ele>1129.4000244141</ele>
        <time>2016-05-07T13:08:08Z</time>
      </trkpt>
      <trkpt lat="44.28142" lon="5.33472">
        <ele>1129.4000244141</ele>
        <time>2016-05-07T13:08:09Z</time>
      </trkpt>
      <trkpt lat="44.28149" lon="5.33435">
        <ele>1129.4000244141</ele>
        <time>2016-05-07T13:08:16Z</time>
      </trkpt>
      <trkpt lat="44.28149" lon="5.33428">
        <ele>1129.4000244141</ele>
        <time>2016-05-07T13:08:17Z</time>
      </trkpt>
      <trkpt lat="44.28147" lon="5.33419">
        <ele>1129.4000244141</ele>
        <time>2016-05-07T13:08:19Z</time>
      </trkpt>
      <trkpt lat="44.28147" lon="5.33413">
        <ele>1129.4000244141</ele>
        <time>2016-05-07T13:08:23Z</time>
      </trkpt>
      <trkpt lat="44.28148" lon="5.33414">
        <ele>1129</ele>
        <time>2016-05-07T13:08:26Z</time>
      </trkpt>
      <trkpt lat="44.28148" lon="5.33415">
        <ele>1128.5999755859</ele>
        <time>2016-05-07T13:08:27Z</time>
      </trkpt>
      <trkpt lat="44.28148" lon="5.33416">
        <ele>1128.1999511719</ele>
        <time>2016-05-07T13:08:30Z</time>
      </trkpt>
      <trkpt lat="44.28148" lon="5.33417">
        <ele>1127.8000488281</ele>
        <time>2016-05-07T13:08:34Z</time>
      </trkpt>
      <trkpt lat="44.28148" lon="5.33418">
        <ele>1127.1999511719</ele>
        <time>2016-05-07T13:08:35Z</time>
      </trkpt>
      <trkpt lat="44.28148" lon="5.3342">
        <ele>1127.1999511719</ele>
        <time>2016-05-07T13:14:14Z</time>
      </trkpt>
      <trkpt lat="44.28148" lon="5.33421">
        <ele>1127.1999511719</ele>
        <time>2016-05-07T13:16:20Z</time>
      </trkpt>
      <trkpt lat="44.28148" lon="5.33421">
        <ele>1127.1999511719</ele>
        <time>2016-05-07T13:18:00Z</time>
      </trkpt>
      <trkpt lat="44.28147" lon="5.33416">
        <ele>1127.1999511719</ele>
        <time>2016-05-07T13:18:03Z</time>
      </trkpt>
      <trkpt lat="44.28143" lon="5.33397">
        <ele>1127.1999511719</ele>
        <time>2016-05-07T13:18:08Z</time>
      </trkpt>
      <trkpt lat="44.28146" lon="5.33371">
        <ele>1127.1999511719</ele>
        <time>2016-05-07T13:18:13Z</time>
      </trkpt>
      <trkpt lat="44.28154" lon="5.33348">
        <ele>1127.1999511719</ele>
        <time>2016-05-07T13:18:18Z</time>
      </trkpt>
      <trkpt lat="44.28173" lon="5.33317">
        <ele>1127.1999511719</ele>
        <time>2016-05-07T13:18:23Z</time>
      </trkpt>
      <trkpt lat="44.28181" lon="5.333">
        <ele>1127.1999511719</ele>
        <time>2016-05-07T13:18:25Z</time>
      </trkpt>
      <trkpt lat="44.28185" lon="5.33282">
        <ele>1127.1999511719</ele>
        <time>2016-05-07T13:18:27Z</time>
      </trkpt>
      <trkpt lat="44.28191" lon="5.33257">
        <ele>1127.1999511719</ele>
        <time>2016-05-07T13:18:30Z</time>
      </trkpt>
      <trkpt lat="44.28196" lon="5.33253">
        <ele>1127.1999511719</ele>
        <time>2016-05-07T13:18:31Z</time>
      </trkpt>
      <trkpt lat="44.28211" lon="5.33246">
        <ele>1127.1999511719</ele>
        <time>2016-05-07T13:18:34Z</time>
      </trkpt>
      <trkpt lat="44.28227" lon="5.33208">
        <ele>1127.1999511719</ele>
        <time>2016-05-07T13:18:39Z</time>
      </trkpt>
      <trkpt lat="44.28228" lon="5.33173">
        <ele>1127.1999511719</ele>
        <time>2016-05-07T13:18:42Z</time>
      </trkpt>
      <trkpt lat="44.28239" lon="5.33125">
        <ele>1127.1999511719</ele>
        <time>2016-05-07T13:18:46Z</time>
      </trkpt>
      <trkpt lat="44.28242" lon="5.33113">
        <ele>1127.1999511719</ele>
        <time>2016-05-07T13:18:47Z</time>
      </trkpt>
      <trkpt lat="44.28247" lon="5.33081">
        <ele>1125</ele>
        <time>2016-05-07T13:18:50Z</time>
      </trkpt>
      <trkpt lat="44.28252" lon="5.33038">
        <ele>1125</ele>
        <time>2016-05-07T13:18:55Z</time>
      </trkpt>
      <trkpt lat="44.28255" lon="5.33031">
        <ele>1125</ele>
        <time>2016-05-07T13:18:56Z</time>
      </trkpt>
      <trkpt lat="44.28262" lon="5.33013">
        <ele>1125</ele>
        <time>2016-05-07T13:18:59Z</time>
      </trkpt>
      <trkpt lat="44.28271" lon="5.32974">
        <ele>1125</ele>
        <time>2016-05-07T13:19:03Z</time>
      </trkpt>
      <trkpt lat="44.28292" lon="5.32917">
        <ele>1125</ele>
        <time>2016-05-07T13:19:08Z</time>
      </trkpt>
      <trkpt lat="44.28316" lon="5.32862">
        <ele>1125</ele>
        <time>2016-05-07T13:19:13Z</time>
      </trkpt>
      <trkpt lat="44.2833" lon="5.32811">
        <ele>1125</ele>
        <time>2016-05-07T13:19:17Z</time>
      </trkpt>
      <trkpt lat="44.28347" lon="5.32758">
        <ele>1125</ele>
        <time>2016-05-07T13:19:22Z</time>
      </trkpt>
      <trkpt lat="44.28352" lon="5.32747">
        <ele>1125</ele>
        <time>2016-05-07T13:19:23Z</time>
      </trkpt>
      <trkpt lat="44.28363" lon="5.32726">
        <ele>1125</ele>
        <time>2016-05-07T13:19:25Z</time>
      </trkpt>
      <trkpt lat="44.28392" lon="5.32668">
        <ele>1125</ele>
        <time>2016-05-07T13:19:31Z</time>
      </trkpt>
      <trkpt lat="44.284" lon="5.32648">
        <ele>1125</ele>
        <time>2016-05-07T13:19:33Z</time>
      </trkpt>
      <trkpt lat="44.28413" lon="5.32619">
        <ele>1125</ele>
        <time>2016-05-07T13:19:36Z</time>
      </trkpt>
      <trkpt lat="44.28421" lon="5.32577">
        <ele>1125</ele>
        <time>2016-05-07T13:19:40Z</time>
      </trkpt>
      <trkpt lat="44.2843" lon="5.32549">
        <ele>1125</ele>
        <time>2016-05-07T13:19:43Z</time>
      </trkpt>
      <trkpt lat="44.28433" lon="5.32542">
        <ele>1125</ele>
        <time>2016-05-07T13:19:44Z</time>
      </trkpt>
      <trkpt lat="44.2844" lon="5.32517">
        <ele>1125</ele>
        <time>2016-05-07T13:19:48Z</time>
      </trkpt>
      <trkpt lat="44.28439" lon="5.32488">
        <ele>1125</ele>
        <time>2016-05-07T13:19:52Z</time>
      </trkpt>
      <trkpt lat="44.28439" lon="5.32481">
        <ele>1125</ele>
        <time>2016-05-07T13:19:53Z</time>
      </trkpt>
      <trkpt lat="44.28439" lon="5.32467">
        <ele>1125</ele>
        <time>2016-05-07T13:19:55Z</time>
      </trkpt>
      <trkpt lat="44.28444" lon="5.32451">
        <ele>1125</ele>
        <time>2016-05-07T13:19:58Z</time>
      </trkpt>
      <trkpt lat="44.28445" lon="5.32446">
        <ele>1125</ele>
        <time>2016-05-07T13:19:59Z</time>
      </trkpt>
      <trkpt lat="44.28448" lon="5.32422">
        <ele>1125</ele>
        <time>2016-05-07T13:20:03Z</time>
      </trkpt>
      <trkpt lat="44.28446" lon="5.32414">
        <ele>1125</ele>
        <time>2016-05-07T13:20:04Z</time>
      </trkpt>
      <trkpt lat="44.28436" lon="5.32387">
        <ele>1125</ele>
        <time>2016-05-07T13:20:07Z</time>
      </trkpt>
      <trkpt lat="44.28426" lon="5.32329">
        <ele>1125</ele>
        <time>2016-05-07T13:20:12Z</time>
      </trkpt>
      <trkpt lat="44.28417" lon="5.32266">
        <ele>1125</ele>
        <time>2016-05-07T13:20:17Z</time>
      </trkpt>
      <trkpt lat="44.28411" lon="5.32244">
        <ele>1103.5999755859</ele>
        <time>2016-05-07T13:20:19Z</time>
      </trkpt>
      <trkpt lat="44.28402" lon="5.32216">
        <ele>1103.5999755859</ele>
        <time>2016-05-07T13:20:22Z</time>
      </trkpt>
      <trkpt lat="44.28387" lon="5.32191">
        <ele>1103.5999755859</ele>
        <time>2016-05-07T13:20:25Z</time>
      </trkpt>
      <trkpt lat="44.28371" lon="5.32164">
        <ele>1103.5999755859</ele>
        <time>2016-05-07T13:20:29Z</time>
      </trkpt>
      <trkpt lat="44.28359" lon="5.32138">
        <ele>1103.5999755859</ele>
        <time>2016-05-07T13:20:32Z</time>
      </trkpt>
      <trkpt lat="44.28354" lon="5.32128">
        <ele>1103.5999755859</ele>
        <time>2016-05-07T13:20:33Z</time>
      </trkpt>
      <trkpt lat="44.28324" lon="5.32059">
        <ele>1103.5999755859</ele>
        <time>2016-05-07T13:20:40Z</time>
      </trkpt>
      <trkpt lat="44.2832" lon="5.32045">
        <ele>1103.5999755859</ele>
        <time>2016-05-07T13:20:42Z</time>
      </trkpt>
      <trkpt lat="44.28323" lon="5.3204">
        <ele>1103.5999755859</ele>
        <time>2016-05-07T13:20:43Z</time>
      </trkpt>
      <trkpt lat="44.28336" lon="5.32035">
        <ele>1103.5999755859</ele>
        <time>2016-05-07T13:20:46Z</time>
      </trkpt>
      <trkpt lat="44.28342" lon="5.32033">
        <ele>1103.5999755859</ele>
        <time>2016-05-07T13:20:47Z</time>
      </trkpt>
      <trkpt lat="44.28359" lon="5.32027">
        <ele>1103.5999755859</ele>
        <time>2016-05-07T13:20:50Z</time>
      </trkpt>
      <trkpt lat="44.28373" lon="5.3202">
        <ele>1103.5999755859</ele>
        <time>2016-05-07T13:20:52Z</time>
      </trkpt>
      <trkpt lat="44.28385" lon="5.32012">
        <ele>1103.5999755859</ele>
        <time>2016-05-07T13:20:54Z</time>
      </trkpt>
      <trkpt lat="44.28399" lon="5.32006">
        <ele>1103.5999755859</ele>
        <time>2016-05-07T13:20:56Z</time>
      </trkpt>
      <trkpt lat="44.28421" lon="5.31999">
        <ele>1103.5999755859</ele>
        <time>2016-05-07T13:20:59Z</time>
      </trkpt>
      <trkpt lat="44.28435" lon="5.31991">
        <ele>1103.5999755859</ele>
        <time>2016-05-07T13:21:01Z</time>
      </trkpt>
      <trkpt lat="44.28448" lon="5.31979">
        <ele>1103.5999755859</ele>
        <time>2016-05-07T13:21:03Z</time>
      </trkpt>
      <trkpt lat="44.2847" lon="5.31947">
        <ele>1103.5999755859</ele>
        <time>2016-05-07T13:21:07Z</time>
      </trkpt>
      <trkpt lat="44.28475" lon="5.31941">
        <ele>1103.5999755859</ele>
        <time>2016-05-07T13:21:08Z</time>
      </trkpt>
      <trkpt lat="44.28493" lon="5.31915">
        <ele>1103.5999755859</ele>
        <time>2016-05-07T13:21:12Z</time>
      </trkpt>
      <trkpt lat="44.28501" lon="5.31894">
        <ele>1103.5999755859</ele>
        <time>2016-05-07T13:21:14Z</time>
      </trkpt>
      <trkpt lat="44.28504" lon="5.31866">
        <ele>1103.5999755859</ele>
        <time>2016-05-07T13:21:16Z</time>
      </trkpt>
      <trkpt lat="44.28504" lon="5.31801">
        <ele>1103.5999755859</ele>
        <time>2016-05-07T13:21:21Z</time>
      </trkpt>
      <trkpt lat="44.28503" lon="5.31756">
        <ele>1065.8000488281</ele>
        <time>2016-05-07T13:21:25Z</time>
      </trkpt>
      <trkpt lat="44.28501" lon="5.31745">
        <ele>1065.8000488281</ele>
        <time>2016-05-07T13:21:26Z</time>
      </trkpt>
      <trkpt lat="44.285" lon="5.317">
        <ele>1065.8000488281</ele>
        <time>2016-05-07T13:21:31Z</time>
      </trkpt>
      <trkpt lat="44.28503" lon="5.31685">
        <ele>1065.8000488281</ele>
        <time>2016-05-07T13:21:33Z</time>
      </trkpt>
      <trkpt lat="44.28508" lon="5.31666">
        <ele>1065.8000488281</ele>
        <time>2016-05-07T13:21:35Z</time>
      </trkpt>
      <trkpt lat="44.28516" lon="5.31643">
        <ele>1065.8000488281</ele>
        <time>2016-05-07T13:21:37Z</time>
      </trkpt>
      <trkpt lat="44.28518" lon="5.31637">
        <ele>1065.8000488281</ele>
        <time>2016-05-07T13:21:38Z</time>
      </trkpt>
      <trkpt lat="44.28523" lon="5.31627">
        <ele>1065.8000488281</ele>
        <time>2016-05-07T13:21:40Z</time>
      </trkpt>
      <trkpt lat="44.28524" lon="5.31623">
        <ele>1065.8000488281</ele>
        <time>2016-05-07T13:21:41Z</time>
      </trkpt>
      <trkpt lat="44.28531" lon="5.31601">
        <ele>1065.8000488281</ele>
        <time>2016-05-07T13:21:47Z</time>
      </trkpt>
      <trkpt lat="44.28533" lon="5.31585">
        <ele>1065.8000488281</ele>
        <time>2016-05-07T13:21:50Z</time>
      </trkpt>
      <trkpt lat="44.28534" lon="5.3157">
        <ele>1065.8000488281</ele>
        <time>2016-05-07T13:21:52Z</time>
      </trkpt>
      <trkpt lat="44.28531" lon="5.31529">
        <ele>1065.8000488281</ele>
        <time>2016-05-07T13:21:56Z</time>
      </trkpt>
      <trkpt lat="44.28532" lon="5.31486">
        <ele>1065.8000488281</ele>
        <time>2016-05-07T13:21:59Z</time>
      </trkpt>
      <trkpt lat="44.28543" lon="5.31406">
        <ele>1065.8000488281</ele>
        <time>2016-05-07T13:22:04Z</time>
      </trkpt>
      <trkpt lat="44.28553" lon="5.31356">
        <ele>1065.8000488281</ele>
        <time>2016-05-07T13:22:07Z</time>
      </trkpt>
      <trkpt lat="44.28558" lon="5.3134">
        <ele>1065.8000488281</ele>
        <time>2016-05-07T13:22:08Z</time>
      </trkpt>
      <trkpt lat="44.28578" lon="5.31302">
        <ele>1065.8000488281</ele>
        <time>2016-05-07T13:22:11Z</time>
      </trkpt>
      <trkpt lat="44.28589" lon="5.31254">
        <ele>1065.8000488281</ele>
        <time>2016-05-07T13:22:15Z</time>
      </trkpt>
      <trkpt lat="44.28595" lon="5.31182">
        <ele>1065.8000488281</ele>
        <time>2016-05-07T13:22:20Z</time>
      </trkpt>
      <trkpt lat="44.286" lon="5.31134">
        <ele>1065.8000488281</ele>
        <time>2016-05-07T13:22:24Z</time>
      </trkpt>
      <trkpt lat="44.28601" lon="5.31102">
        <ele>1065.8000488281</ele>
        <time>2016-05-07T13:22:28Z</time>
      </trkpt>
      <trkpt lat="44.28606" lon="5.31063">
        <ele>1065.8000488281</ele>
        <time>2016-05-07T13:22:34Z</time>
      </trkpt>
      <trkpt lat="44.28613" lon="5.31021">
        <ele>1065.8000488281</ele>
        <time>2016-05-07T13:22:41Z</time>
      </trkpt>
      <trkpt lat="44.28613" lon="5.31015">
        <ele>1065.8000488281</ele>
        <time>2016-05-07T13:22:42Z</time>
      </trkpt>
      <trkpt lat="44.28609" lon="5.30995">
        <ele>1065.8000488281</ele>
        <time>2016-05-07T13:22:45Z</time>
      </trkpt>
      <trkpt lat="44.28604" lon="5.30981">
        <ele>1065.8000488281</ele>
        <time>2016-05-07T13:22:47Z</time>
      </trkpt>
      <trkpt lat="44.28596" lon="5.30962">
        <ele>1065.8000488281</ele>
        <time>2016-05-07T13:22:50Z</time>
      </trkpt>
      <trkpt lat="44.28586" lon="5.30958">
        <ele>1043.4000244141</ele>
        <time>2016-05-07T13:22:52Z</time>
      </trkpt>
      <trkpt lat="44.28561" lon="5.30952">
        <ele>1022.4000244141</ele>
        <time>2016-05-07T13:22:57Z</time>
      </trkpt>
      <trkpt lat="44.28552" lon="5.3095">
        <ele>1022.4000244141</ele>
        <time>2016-05-07T13:22:59Z</time>
      </trkpt>
      <trkpt lat="44.28539" lon="5.30945">
        <ele>983</ele>
        <time>2016-05-07T13:23:02Z</time>
      </trkpt>
      <trkpt lat="44.28519" lon="5.30941">
        <ele>963.40002441406</ele>
        <time>2016-05-07T13:23:06Z</time>
      </trkpt>
      <trkpt lat="44.28514" lon="5.30938">
        <ele>943.79998779297</ele>
        <time>2016-05-07T13:23:07Z</time>
      </trkpt>
      <trkpt lat="44.285" lon="5.30927">
        <ele>943.79998779297</ele>
        <time>2016-05-07T13:23:10Z</time>
      </trkpt>
      <trkpt lat="44.28495" lon="5.30923">
        <ele>924</ele>
        <time>2016-05-07T13:23:11Z</time>
      </trkpt>
      <trkpt lat="44.28482" lon="5.30905">
        <ele>924</ele>
        <time>2016-05-07T13:23:14Z</time>
      </trkpt>
      <trkpt lat="44.28479" lon="5.30898">
        <ele>924</ele>
        <time>2016-05-07T13:23:15Z</time>
      </trkpt>
      <trkpt lat="44.28469" lon="5.30872">
        <ele>923.59997558594</ele>
        <time>2016-05-07T13:23:18Z</time>
      </trkpt>
      <trkpt lat="44.2846" lon="5.30849">
        <ele>923</ele>
        <time>2016-05-07T13:23:21Z</time>
      </trkpt>
      <trkpt lat="44.28454" lon="5.30834">
        <ele>922.20001220703</ele>
        <time>2016-05-07T13:23:23Z</time>
      </trkpt>
      <trkpt lat="44.28451" lon="5.30826">
        <ele>922.20001220703</ele>
        <time>2016-05-07T13:23:24Z</time>
      </trkpt>
      <trkpt lat="44.28446" lon="5.3081">
        <ele>921.40002441406</ele>
        <time>2016-05-07T13:23:26Z</time>
      </trkpt>
      <trkpt lat="44.28441" lon="5.30795">
        <ele>920.59997558594</ele>
        <time>2016-05-07T13:23:28Z</time>
      </trkpt>
      <trkpt lat="44.28436" lon="5.3078">
        <ele>920.59997558594</ele>
        <time>2016-05-07T13:23:30Z</time>
      </trkpt>
      <trkpt lat="44.28434" lon="5.30772">
        <ele>919.79998779297</ele>
        <time>2016-05-07T13:23:31Z</time>
      </trkpt>
      <trkpt lat="44.28431" lon="5.30755">
        <ele>919.20001220703</ele>
        <time>2016-05-07T13:23:33Z</time>
      </trkpt>
      <trkpt lat="44.28431" lon="5.30745">
        <ele>919.20001220703</ele>
        <time>2016-05-07T13:23:34Z</time>
      </trkpt>
      <trkpt lat="44.28431" lon="5.30736">
        <ele>918.59997558594</ele>
        <time>2016-05-07T13:23:35Z</time>
      </trkpt>
      <trkpt lat="44.28436" lon="5.30706">
        <ele>917.59997558594</ele>
        <time>2016-05-07T13:23:38Z</time>
      </trkpt>
      <trkpt lat="44.28439" lon="5.30697">
        <ele>917.59997558594</ele>
        <time>2016-05-07T13:23:39Z</time>
      </trkpt>
      <trkpt lat="44.28443" lon="5.30688">
        <ele>915.79998779297</ele>
        <time>2016-05-07T13:23:40Z</time>
      </trkpt>
      <trkpt lat="44.28452" lon="5.30669">
        <ele>914.79998779297</ele>
        <time>2016-05-07T13:23:42Z</time>
      </trkpt>
      <trkpt lat="44.28456" lon="5.3066">
        <ele>914.79998779297</ele>
        <time>2016-05-07T13:23:43Z</time>
      </trkpt>
      <trkpt lat="44.28463" lon="5.30638">
        <ele>913.79998779297</ele>
        <time>2016-05-07T13:23:45Z</time>
      </trkpt>
      <trkpt lat="44.28468" lon="5.30617">
        <ele>911.40002441406</ele>
        <time>2016-05-07T13:23:47Z</time>
      </trkpt>
      <trkpt lat="44.28469" lon="5.30607">
        <ele>911.40002441406</ele>
        <time>2016-05-07T13:23:48Z</time>
      </trkpt>
      <trkpt lat="44.2847" lon="5.30598">
        <ele>910.40002441406</ele>
        <time>2016-05-07T13:23:49Z</time>
      </trkpt>
      <trkpt lat="44.28473" lon="5.30572">
        <ele>909.20001220703</ele>
        <time>2016-05-07T13:23:52Z</time>
      </trkpt>
      <trkpt lat="44.28476" lon="5.30558">
        <ele>908.59997558594</ele>
        <time>2016-05-07T13:23:54Z</time>
      </trkpt>
      <trkpt lat="44.28479" lon="5.30537">
        <ele>909</ele>
        <time>2016-05-07T13:23:57Z</time>
      </trkpt>
      <trkpt lat="44.28482" lon="5.30522">
        <ele>910</ele>
        <time>2016-05-07T13:23:59Z</time>
      </trkpt>
      <trkpt lat="44.28488" lon="5.30507">
        <ele>910.40002441406</ele>
        <time>2016-05-07T13:24:01Z</time>
      </trkpt>
      <trkpt lat="44.28513" lon="5.30457">
        <ele>910.40002441406</ele>
        <time>2016-05-07T13:24:07Z</time>
      </trkpt>
      <trkpt lat="44.28524" lon="5.30439">
        <ele>910</ele>
        <time>2016-05-07T13:24:09Z</time>
      </trkpt>
      <trkpt lat="44.28535" lon="5.30421">
        <ele>908.79998779297</ele>
        <time>2016-05-07T13:24:11Z</time>
      </trkpt>
      <trkpt lat="44.28547" lon="5.30404">
        <ele>908</ele>
        <time>2016-05-07T13:24:13Z</time>
      </trkpt>
      <trkpt lat="44.28552" lon="5.30395">
        <ele>908</ele>
        <time>2016-05-07T13:24:14Z</time>
      </trkpt>
      <trkpt lat="44.28564" lon="5.30379">
        <ele>907.40002441406</ele>
        <time>2016-05-07T13:24:16Z</time>
      </trkpt>
      <trkpt lat="44.28576" lon="5.30363">
        <ele>905.59997558594</ele>
        <time>2016-05-07T13:24:18Z</time>
      </trkpt>
      <trkpt lat="44.28592" lon="5.30339">
        <ele>904.79998779297</ele>
        <time>2016-05-07T13:24:21Z</time>
      </trkpt>
      <trkpt lat="44.28596" lon="5.30331">
        <ele>904.79998779297</ele>
        <time>2016-05-07T13:24:22Z</time>
      </trkpt>
      <trkpt lat="44.28599" lon="5.30323">
        <ele>903.40002441406</ele>
        <time>2016-05-07T13:24:23Z</time>
      </trkpt>
      <trkpt lat="44.28599" lon="5.30313">
        <ele>903.40002441406</ele>
        <time>2016-05-07T13:24:24Z</time>
      </trkpt>
      <trkpt lat="44.28599" lon="5.30303">
        <ele>902.79998779297</ele>
        <time>2016-05-07T13:24:25Z</time>
      </trkpt>
      <trkpt lat="44.28596" lon="5.30275">
        <ele>902.20001220703</ele>
        <time>2016-05-07T13:24:28Z</time>
      </trkpt>
      <trkpt lat="44.28596" lon="5.30265">
        <ele>902.20001220703</ele>
        <time>2016-05-07T13:24:29Z</time>
      </trkpt>
      <trkpt lat="44.28596" lon="5.30256">
        <ele>901</ele>
        <time>2016-05-07T13:24:30Z</time>
      </trkpt>
      <trkpt lat="44.28606" lon="5.30225">
        <ele>901</ele>
        <time>2016-05-07T13:24:34Z</time>
      </trkpt>
      <trkpt lat="44.28614" lon="5.3021">
        <ele>900.59997558594</ele>
        <time>2016-05-07T13:24:36Z</time>
      </trkpt>
      <trkpt lat="44.28622" lon="5.30194">
        <ele>900.20001220703</ele>
        <time>2016-05-07T13:24:38Z</time>
      </trkpt>
      <trkpt lat="44.28625" lon="5.30187">
        <ele>900.20001220703</ele>
        <time>2016-05-07T13:24:39Z</time>
      </trkpt>
      <trkpt lat="44.28628" lon="5.30179">
        <ele>900.20001220703</ele>
        <time>2016-05-07T13:24:40Z</time>
      </trkpt>
      <trkpt lat="44.28629" lon="5.30171">
        <ele>899.79998779297</ele>
        <time>2016-05-07T13:24:41Z</time>
      </trkpt>
      <trkpt lat="44.28633" lon="5.30154">
        <ele>899.40002441406</ele>
        <time>2016-05-07T13:24:43Z</time>
      </trkpt>
      <trkpt lat="44.28634" lon="5.30146">
        <ele>899.40002441406</ele>
        <time>2016-05-07T13:24:44Z</time>
      </trkpt>
      <trkpt lat="44.28633" lon="5.30137">
        <ele>899.40002441406</ele>
        <time>2016-05-07T13:24:45Z</time>
      </trkpt>
      <trkpt lat="44.28633" lon="5.30129">
        <ele>899</ele>
        <time>2016-05-07T13:24:46Z</time>
      </trkpt>
      <trkpt lat="44.28629" lon="5.30073">
        <ele>899</ele>
        <time>2016-05-07T13:24:53Z</time>
      </trkpt>
      <trkpt lat="44.2863" lon="5.30057">
        <ele>899</ele>
        <time>2016-05-07T13:24:55Z</time>
      </trkpt>
      <trkpt lat="44.28632" lon="5.30037">
        <ele>899</ele>
        <time>2016-05-07T13:24:57Z</time>
      </trkpt>
      <trkpt lat="44.28637" lon="5.30017">
        <ele>898.40002441406</ele>
        <time>2016-05-07T13:24:59Z</time>
      </trkpt>
      <trkpt lat="44.2864" lon="5.29999">
        <ele>898.40002441406</ele>
        <time>2016-05-07T13:25:01Z</time>
      </trkpt>
      <trkpt lat="44.2864" lon="5.29992">
        <ele>897.79998779297</ele>
        <time>2016-05-07T13:25:02Z</time>
      </trkpt>
      <trkpt lat="44.28637" lon="5.29977">
        <ele>896.40002441406</ele>
        <time>2016-05-07T13:25:04Z</time>
      </trkpt>
      <trkpt lat="44.28636" lon="5.29965">
        <ele>896.40002441406</ele>
        <time>2016-05-07T13:25:06Z</time>
      </trkpt>
      <trkpt lat="44.28636" lon="5.2996">
        <ele>895.79998779297</ele>
        <time>2016-05-07T13:25:07Z</time>
      </trkpt>
      <trkpt lat="44.28637" lon="5.29956">
        <ele>895.79998779297</ele>
        <time>2016-05-07T13:25:08Z</time>
      </trkpt>
      <trkpt lat="44.28637" lon="5.29952">
        <ele>895.20001220703</ele>
        <time>2016-05-07T13:25:09Z</time>
      </trkpt>
      <trkpt lat="44.28638" lon="5.29949">
        <ele>895.20001220703</ele>
        <time>2016-05-07T13:25:10Z</time>
      </trkpt>
      <trkpt lat="44.28639" lon="5.29948">
        <ele>894.59997558594</ele>
        <time>2016-05-07T13:25:11Z</time>
      </trkpt>
      <trkpt lat="44.28639" lon="5.29948">
        <ele>894.59997558594</ele>
        <time>2016-05-07T13:25:12Z</time>
      </trkpt>
      <trkpt lat="44.2864" lon="5.29948">
        <ele>893</ele>
        <time>2016-05-07T13:25:13Z</time>
      </trkpt>
      <trkpt lat="44.2864" lon="5.29948">
        <ele>892.20001220703</ele>
        <time>2016-05-07T13:25:16Z</time>
      </trkpt>
      <trkpt lat="44.2864" lon="5.29948">
        <ele>890.40002441406</ele>
        <time>2016-05-07T13:25:18Z</time>
      </trkpt>
      <trkpt lat="44.2864" lon="5.29948">
        <ele>890</ele>
        <time>2016-05-07T13:26:07Z</time>
      </trkpt>
      <trkpt lat="44.2864" lon="5.29948">
        <ele>889.59997558594</ele>
        <time>2016-05-07T13:26:10Z</time>
      </trkpt>
      <trkpt lat="44.2864" lon="5.29948">
        <ele>888.79998779297</ele>
        <time>2016-05-07T13:26:12Z</time>
      </trkpt>
      <trkpt lat="44.2864" lon="5.29948">
        <ele>888.20001220703</ele>
        <time>2016-05-07T13:26:14Z</time>
      </trkpt>
      <trkpt lat="44.2864" lon="5.29948">
        <ele>888.20001220703</ele>
        <time>2016-05-07T13:30:29Z</time>
      </trkpt>
      <trkpt lat="44.2864" lon="5.29944">
        <ele>888.20001220703</ele>
        <time>2016-05-07T13:31:01Z</time>
      </trkpt>
      <trkpt lat="44.28643" lon="5.29934">
        <ele>888.20001220703</ele>
        <time>2016-05-07T13:31:07Z</time>
      </trkpt>
      <trkpt lat="44.2865" lon="5.29928">
        <ele>887.79998779297</ele>
        <time>2016-05-07T13:31:10Z</time>
      </trkpt>
      <trkpt lat="44.28654" lon="5.29931">
        <ele>887.79998779297</ele>
        <time>2016-05-07T13:31:11Z</time>
      </trkpt>
      <trkpt lat="44.28659" lon="5.29932">
        <ele>887.79998779297</ele>
        <time>2016-05-07T13:31:12Z</time>
      </trkpt>
      <trkpt lat="44.28663" lon="5.29934">
        <ele>887.20001220703</ele>
        <time>2016-05-07T13:31:13Z</time>
      </trkpt>
      <trkpt lat="44.28668" lon="5.29938">
        <ele>886.79998779297</ele>
        <time>2016-05-07T13:31:15Z</time>
      </trkpt>
      <trkpt lat="44.28669" lon="5.29938">
        <ele>886.79998779297</ele>
        <time>2016-05-07T13:31:16Z</time>
      </trkpt>
      <trkpt lat="44.28671" lon="5.29936">
        <ele>886</ele>
        <time>2016-05-07T13:31:17Z</time>
      </trkpt>
      <trkpt lat="44.28672" lon="5.29936">
        <ele>885.40002441406</ele>
        <time>2016-05-07T13:31:18Z</time>
      </trkpt>
      <trkpt lat="44.28671" lon="5.2993">
        <ele>884.59997558594</ele>
        <time>2016-05-07T13:31:20Z</time>
      </trkpt>
      <trkpt lat="44.28666" lon="5.29926">
        <ele>884</ele>
        <time>2016-05-07T13:31:22Z</time>
      </trkpt>
      <trkpt lat="44.28664" lon="5.29923">
        <ele>884</ele>
        <time>2016-05-07T13:31:23Z</time>
      </trkpt>
      <trkpt lat="44.28662" lon="5.29922">
        <ele>883.20001220703</ele>
        <time>2016-05-07T13:31:24Z</time>
      </trkpt>
      <trkpt lat="44.28661" lon="5.29921">
        <ele>882.40002441406</ele>
        <time>2016-05-07T13:31:25Z</time>
      </trkpt>
      <trkpt lat="44.28662" lon="5.29921">
        <ele>881.79998779297</ele>
        <time>2016-05-07T13:31:27Z</time>
      </trkpt>
      <trkpt lat="44.28662" lon="5.29921">
        <ele>881</ele>
        <time>2016-05-07T13:31:29Z</time>
      </trkpt>
      <trkpt lat="44.28658" lon="5.29916">
        <ele>881</ele>
        <time>2016-05-07T13:31:36Z</time>
      </trkpt>
      <trkpt lat="44.28655" lon="5.29911">
        <ele>881</ele>
        <time>2016-05-07T13:31:37Z</time>
      </trkpt>
      <trkpt lat="44.28653" lon="5.29902">
        <ele>880.59997558594</ele>
        <time>2016-05-07T13:31:39Z</time>
      </trkpt>
      <trkpt lat="44.28653" lon="5.29899">
        <ele>880.59997558594</ele>
        <time>2016-05-07T13:31:40Z</time>
      </trkpt>
      <trkpt lat="44.28654" lon="5.29899">
        <ele>880.20001220703</ele>
        <time>2016-05-07T13:31:41Z</time>
      </trkpt>
      <trkpt lat="44.28657" lon="5.29901">
        <ele>880.20001220703</ele>
        <time>2016-05-07T13:31:43Z</time>
      </trkpt>
      <trkpt lat="44.28659" lon="5.29903">
        <ele>879.79998779297</ele>
        <time>2016-05-07T13:31:44Z</time>
      </trkpt>
      <trkpt lat="44.28663" lon="5.29906">
        <ele>879</ele>
        <time>2016-05-07T13:31:46Z</time>
      </trkpt>
      <trkpt lat="44.28672" lon="5.29914">
        <ele>879</ele>
        <time>2016-05-07T13:31:49Z</time>
      </trkpt>
      <trkpt lat="44.28681" lon="5.2992">
        <ele>878.40002441406</ele>
        <time>2016-05-07T13:31:52Z</time>
      </trkpt>
      <trkpt lat="44.2869" lon="5.29928">
        <ele>877.40002441406</ele>
        <time>2016-05-07T13:31:55Z</time>
      </trkpt>
      <trkpt lat="44.28692" lon="5.29924">
        <ele>877.40002441406</ele>
        <time>2016-05-07T13:31:57Z</time>
      </trkpt>
      <trkpt lat="44.28693" lon="5.29922">
        <ele>877.40002441406</ele>
        <time>2016-05-07T13:31:58Z</time>
      </trkpt>
      <trkpt lat="44.2869" lon="5.29915">
        <ele>875.40002441406</ele>
        <time>2016-05-07T13:32:00Z</time>
      </trkpt>
      <trkpt lat="44.28687" lon="5.29909">
        <ele>875.40002441406</ele>
        <time>2016-05-07T13:32:02Z</time>
      </trkpt>
      <trkpt lat="44.28682" lon="5.29897">
        <ele>873.79998779297</ele>
        <time>2016-05-07T13:32:05Z</time>
      </trkpt>
      <trkpt lat="44.28681" lon="5.29892">
        <ele>873.79998779297</ele>
        <time>2016-05-07T13:32:06Z</time>
      </trkpt>
      <trkpt lat="44.28678" lon="5.2988">
        <ele>872.40002441406</ele>
        <time>2016-05-07T13:32:08Z</time>
      </trkpt>
      <trkpt lat="44.28673" lon="5.29864">
        <ele>870.79998779297</ele>
        <time>2016-05-07T13:32:10Z</time>
      </trkpt>
      <trkpt lat="44.28667" lon="5.29852">
        <ele>869.20001220703</ele>
        <time>2016-05-07T13:32:12Z</time>
      </trkpt>
      <trkpt lat="44.28661" lon="5.29838">
        <ele>869.20001220703</ele>
        <time>2016-05-07T13:32:14Z</time>
      </trkpt>
      <trkpt lat="44.28657" lon="5.29831">
        <ele>866.20001220703</ele>
        <time>2016-05-07T13:32:15Z</time>
      </trkpt>
      <trkpt lat="44.28647" lon="5.29823">
        <ele>864.79998779297</ele>
        <time>2016-05-07T13:32:17Z</time>
      </trkpt>
      <trkpt lat="44.28641" lon="5.2982">
        <ele>864.79998779297</ele>
        <time>2016-05-07T13:32:18Z</time>
      </trkpt>
      <trkpt lat="44.28636" lon="5.29818">
        <ele>864.79998779297</ele>
        <time>2016-05-07T13:32:19Z</time>
      </trkpt>
      <trkpt lat="44.28631" lon="5.29816">
        <ele>862.20001220703</ele>
        <time>2016-05-07T13:32:20Z</time>
      </trkpt>
      <trkpt lat="44.28621" lon="5.29812">
        <ele>859.40002441406</ele>
        <time>2016-05-07T13:32:22Z</time>
      </trkpt>
      <trkpt lat="44.28617" lon="5.2981">
        <ele>859.40002441406</ele>
        <time>2016-05-07T13:32:23Z</time>
      </trkpt>
      <trkpt lat="44.28613" lon="5.29809">
        <ele>858.20001220703</ele>
        <time>2016-05-07T13:32:24Z</time>
      </trkpt>
      <trkpt lat="44.28599" lon="5.29812">
        <ele>857.20001220703</ele>
        <time>2016-05-07T13:32:27Z</time>
      </trkpt>
      <trkpt lat="44.28591" lon="5.2982">
        <ele>854.79998779297</ele>
        <time>2016-05-07T13:32:29Z</time>
      </trkpt>
      <trkpt lat="44.28584" lon="5.29829">
        <ele>853.59997558594</ele>
        <time>2016-05-07T13:32:31Z</time>
      </trkpt>
      <trkpt lat="44.2858" lon="5.29834">
        <ele>853.59997558594</ele>
        <time>2016-05-07T13:32:32Z</time>
      </trkpt>
      <trkpt lat="44.28574" lon="5.29845">
        <ele>852.59997558594</ele>
        <time>2016-05-07T13:32:34Z</time>
      </trkpt>
      <trkpt lat="44.28567" lon="5.29857">
        <ele>850.40002441406</ele>
        <time>2016-05-07T13:32:36Z</time>
      </trkpt>
      <trkpt lat="44.28562" lon="5.29868">
        <ele>849.20001220703</ele>
        <time>2016-05-07T13:32:38Z</time>
      </trkpt>
      <trkpt lat="44.28558" lon="5.29875">
        <ele>849.20001220703</ele>
        <time>2016-05-07T13:32:40Z</time>
      </trkpt>
      <trkpt lat="44.28557" lon="5.29878">
        <ele>848</ele>
        <time>2016-05-07T13:32:41Z</time>
      </trkpt>
      <trkpt lat="44.28554" lon="5.29889">
        <ele>845.40002441406</ele>
        <time>2016-05-07T13:32:43Z</time>
      </trkpt>
      <trkpt lat="44.2855" lon="5.29901">
        <ele>844.20001220703</ele>
        <time>2016-05-07T13:32:45Z</time>
      </trkpt>
      <trkpt lat="44.28547" lon="5.29913">
        <ele>844.20001220703</ele>
        <time>2016-05-07T13:32:47Z</time>
      </trkpt>
      <trkpt lat="44.28547" lon="5.2992">
        <ele>842.79998779297</ele>
        <time>2016-05-07T13:32:48Z</time>
      </trkpt>
      <trkpt lat="44.28547" lon="5.29926">
        <ele>842.79998779297</ele>
        <time>2016-05-07T13:32:49Z</time>
      </trkpt>
      <trkpt lat="44.28547" lon="5.29931">
        <ele>842</ele>
        <time>2016-05-07T13:32:50Z</time>
      </trkpt>
      <trkpt lat="44.28546" lon="5.29936">
        <ele>841.20001220703</ele>
        <time>2016-05-07T13:32:52Z</time>
      </trkpt>
      <trkpt lat="44.28544" lon="5.29938">
        <ele>841.20001220703</ele>
        <time>2016-05-07T13:32:53Z</time>
      </trkpt>
      <trkpt lat="44.2854" lon="5.29934">
        <ele>841.20001220703</ele>
        <time>2016-05-07T13:32:54Z</time>
      </trkpt>
      <trkpt lat="44.28538" lon="5.29931">
        <ele>839.59997558594</ele>
        <time>2016-05-07T13:32:55Z</time>
      </trkpt>
      <trkpt lat="44.28537" lon="5.29925">
        <ele>839.59997558594</ele>
        <time>2016-05-07T13:32:56Z</time>
      </trkpt>
      <trkpt lat="44.28535" lon="5.2992">
        <ele>838.79998779297</ele>
        <time>2016-05-07T13:32:57Z</time>
      </trkpt>
      <trkpt lat="44.28532" lon="5.29907">
        <ele>838</ele>
        <time>2016-05-07T13:32:59Z</time>
      </trkpt>
      <trkpt lat="44.28532" lon="5.299">
        <ele>838</ele>
        <time>2016-05-07T13:33:00Z</time>
      </trkpt>
      <trkpt lat="44.28532" lon="5.29882">
        <ele>835.59997558594</ele>
        <time>2016-05-07T13:33:02Z</time>
      </trkpt>
      <trkpt lat="44.28533" lon="5.29864">
        <ele>834.59997558594</ele>
        <time>2016-05-07T13:33:04Z</time>
      </trkpt>
      <trkpt lat="44.28534" lon="5.2985">
        <ele>834.59997558594</ele>
        <time>2016-05-07T13:33:06Z</time>
      </trkpt>
      <trkpt lat="44.28534" lon="5.29845">
        <ele>832.59997558594</ele>
        <time>2016-05-07T13:33:07Z</time>
      </trkpt>
      <trkpt lat="44.28534" lon="5.29833">
        <ele>831.59997558594</ele>
        <time>2016-05-07T13:33:09Z</time>
      </trkpt>
      <trkpt lat="44.28536" lon="5.29815">
        <ele>831.59997558594</ele>
        <time>2016-05-07T13:33:11Z</time>
      </trkpt>
      <trkpt lat="44.28537" lon="5.29803">
        <ele>830.40002441406</ele>
        <time>2016-05-07T13:33:12Z</time>
      </trkpt>
      <trkpt lat="44.28542" lon="5.29793">
        <ele>830.40002441406</ele>
        <time>2016-05-07T13:33:13Z</time>
      </trkpt>
      <trkpt lat="44.28545" lon="5.29783">
        <ele>828.20001220703</ele>
        <time>2016-05-07T13:33:14Z</time>
      </trkpt>
      <trkpt lat="44.28551" lon="5.29769">
        <ele>826.79998779297</ele>
        <time>2016-05-07T13:33:16Z</time>
      </trkpt>
      <trkpt lat="44.28553" lon="5.29763">
        <ele>826.79998779297</ele>
        <time>2016-05-07T13:33:17Z</time>
      </trkpt>
      <trkpt lat="44.28556" lon="5.29757">
        <ele>825.59997558594</ele>
        <time>2016-05-07T13:33:19Z</time>
      </trkpt>
      <trkpt lat="44.28557" lon="5.29758">
        <ele>825.59997558594</ele>
        <time>2016-05-07T13:33:20Z</time>
      </trkpt>
      <trkpt lat="44.28557" lon="5.29758">
        <ele>823</ele>
        <time>2016-05-07T13:33:21Z</time>
      </trkpt>
      <trkpt lat="44.28558" lon="5.2976">
        <ele>822.40002441406</ele>
        <time>2016-05-07T13:33:23Z</time>
      </trkpt>
      <trkpt lat="44.28558" lon="5.29761">
        <ele>821</ele>
        <time>2016-05-07T13:33:26Z</time>
      </trkpt>
      <trkpt lat="44.28558" lon="5.29761">
        <ele>820.20001220703</ele>
        <time>2016-05-07T13:33:28Z</time>
      </trkpt>
      <trkpt lat="44.28558" lon="5.29761">
        <ele>819.59997558594</ele>
        <time>2016-05-07T13:33:30Z</time>
      </trkpt>
      <trkpt lat="44.28558" lon="5.29761">
        <ele>819.59997558594</ele>
        <time>2016-05-07T13:33:46Z</time>
      </trkpt>
      <trkpt lat="44.28558" lon="5.29761">
        <ele>819.59997558594</ele>
        <time>2016-05-07T13:34:19Z</time>
      </trkpt>
      <trkpt lat="44.28558" lon="5.2976">
        <ele>820</ele>
        <time>2016-05-07T13:35:26Z</time>
      </trkpt>
      <trkpt lat="44.28558" lon="5.29761">
        <ele>820.59997558594</ele>
        <time>2016-05-07T13:35:28Z</time>
      </trkpt>
      <trkpt lat="44.28558" lon="5.2976">
        <ele>821.59997558594</ele>
        <time>2016-05-07T13:35:31Z</time>
      </trkpt>
      <trkpt lat="44.28559" lon="5.29759">
        <ele>822</ele>
        <time>2016-05-07T13:35:33Z</time>
      </trkpt>
      <trkpt lat="44.28559" lon="5.29756">
        <ele>822</ele>
        <time>2016-05-07T13:35:36Z</time>
      </trkpt>
      <trkpt lat="44.28574" lon="5.29747">
        <ele>822</ele>
        <time>2016-05-07T13:35:48Z</time>
      </trkpt>
      <trkpt lat="44.28577" lon="5.29745">
        <ele>822</ele>
        <time>2016-05-07T13:35:55Z</time>
      </trkpt>
      <trkpt lat="44.2859" lon="5.29743">
        <ele>822</ele>
        <time>2016-05-07T13:35:59Z</time>
      </trkpt>
      <trkpt lat="44.28593" lon="5.29743">
        <ele>822</ele>
        <time>2016-05-07T13:36:03Z</time>
      </trkpt>
      <trkpt lat="44.28595" lon="5.29741">
        <ele>822</ele>
        <time>2016-05-07T13:36:08Z</time>
      </trkpt>
      <trkpt lat="44.28598" lon="5.29743">
        <ele>822</ele>
        <time>2016-05-07T13:36:14Z</time>
      </trkpt>
      <trkpt lat="44.28606" lon="5.29744">
        <ele>822</ele>
        <time>2016-05-07T13:36:21Z</time>
      </trkpt>
      <trkpt lat="44.28615" lon="5.29747">
        <ele>822</ele>
        <time>2016-05-07T13:36:29Z</time>
      </trkpt>
      <trkpt lat="44.28616" lon="5.29747">
        <ele>822</ele>
        <time>2016-05-07T13:36:30Z</time>
      </trkpt>
      <trkpt lat="44.2862" lon="5.29745">
        <ele>822.40002441406</ele>
        <time>2016-05-07T13:36:37Z</time>
      </trkpt>
      <trkpt lat="44.28629" lon="5.29741">
        <ele>823.40002441406</ele>
        <time>2016-05-07T13:36:42Z</time>
      </trkpt>
      <trkpt lat="44.28632" lon="5.29743">
        <ele>823.40002441406</ele>
        <time>2016-05-07T13:36:43Z</time>
      </trkpt>
      <trkpt lat="44.28632" lon="5.29743">
        <ele>823.79998779297</ele>
        <time>2016-05-07T13:36:44Z</time>
      </trkpt>
      <trkpt lat="44.28633" lon="5.29743">
        <ele>823.79998779297</ele>
        <time>2016-05-07T13:36:45Z</time>
      </trkpt>
      <trkpt lat="44.28634" lon="5.29742">
        <ele>824.20001220703</ele>
        <time>2016-05-07T13:36:47Z</time>
      </trkpt>
      <trkpt lat="44.28638" lon="5.2974">
        <ele>823.79998779297</ele>
        <time>2016-05-07T13:36:49Z</time>
      </trkpt>
      <trkpt lat="44.28642" lon="5.29738">
        <ele>823.40002441406</ele>
        <time>2016-05-07T13:36:51Z</time>
      </trkpt>
      <trkpt lat="44.28645" lon="5.2974">
        <ele>823</ele>
        <time>2016-05-07T13:36:53Z</time>
      </trkpt>
      <trkpt lat="44.28644" lon="5.29738">
        <ele>823</ele>
        <time>2016-05-07T13:36:55Z</time>
      </trkpt>
      <trkpt lat="44.28644" lon="5.29738">
        <ele>822.20001220703</ele>
        <time>2016-05-07T13:36:56Z</time>
      </trkpt>
      <trkpt lat="44.28651" lon="5.2974">
        <ele>822.20001220703</ele>
        <time>2016-05-07T13:37:02Z</time>
      </trkpt>
      <trkpt lat="44.28656" lon="5.29741">
        <ele>822.20001220703</ele>
        <time>2016-05-07T13:37:09Z</time>
      </trkpt>
      <trkpt lat="44.28661" lon="5.29745">
        <ele>822.20001220703</ele>
        <time>2016-05-07T13:37:19Z</time>
      </trkpt>
      <trkpt lat="44.28663" lon="5.29746">
        <ele>822.59997558594</ele>
        <time>2016-05-07T13:37:21Z</time>
      </trkpt>
      <trkpt lat="44.28664" lon="5.29745">
        <ele>823.59997558594</ele>
        <time>2016-05-07T13:37:24Z</time>
      </trkpt>
      <trkpt lat="44.28666" lon="5.29745">
        <ele>824.20001220703</ele>
        <time>2016-05-07T13:37:26Z</time>
      </trkpt>
      <trkpt lat="44.28667" lon="5.29745">
        <ele>824.20001220703</ele>
        <time>2016-05-07T13:37:27Z</time>
      </trkpt>
      <trkpt lat="44.28668" lon="5.29746">
        <ele>824.59997558594</ele>
        <time>2016-05-07T13:37:28Z</time>
      </trkpt>
      <trkpt lat="44.28679" lon="5.29747">
        <ele>824.59997558594</ele>
        <time>2016-05-07T13:37:38Z</time>
      </trkpt>
      <trkpt lat="44.2868" lon="5.29746">
        <ele>825</ele>
        <time>2016-05-07T13:37:41Z</time>
      </trkpt>
      <trkpt lat="44.2868" lon="5.29747">
        <ele>826</ele>
        <time>2016-05-07T13:37:43Z</time>
      </trkpt>
      <trkpt lat="44.2868" lon="5.29747">
        <ele>826.40002441406</ele>
        <time>2016-05-07T13:37:45Z</time>
      </trkpt>
      <trkpt lat="44.2868" lon="5.29746">
        <ele>826.40002441406</ele>
        <time>2016-05-07T13:37:46Z</time>
      </trkpt>
      <trkpt lat="44.2868" lon="5.29746">
        <ele>826.79998779297</ele>
        <time>2016-05-07T13:37:48Z</time>
      </trkpt>
      <trkpt lat="44.28688" lon="5.29743">
        <ele>826.79998779297</ele>
        <time>2016-05-07T13:37:52Z</time>
      </trkpt>
      <trkpt lat="44.28691" lon="5.29739">
        <ele>826.20001220703</ele>
        <time>2016-05-07T13:37:55Z</time>
      </trkpt>
      <trkpt lat="44.28693" lon="5.29734">
        <ele>825.59997558594</ele>
        <time>2016-05-07T13:37:57Z</time>
      </trkpt>
      <trkpt lat="44.28694" lon="5.29732">
        <ele>825.59997558594</ele>
        <time>2016-05-07T13:37:58Z</time>
      </trkpt>
      <trkpt lat="44.28695" lon="5.29731">
        <ele>824.79998779297</ele>
        <time>2016-05-07T13:37:59Z</time>
      </trkpt>
      <trkpt lat="44.28696" lon="5.29722">
        <ele>823</ele>
        <time>2016-05-07T13:38:02Z</time>
      </trkpt>
      <trkpt lat="44.28695" lon="5.29717">
        <ele>822</ele>
        <time>2016-05-07T13:38:04Z</time>
      </trkpt>
      <trkpt lat="44.28694" lon="5.29715">
        <ele>822</ele>
        <time>2016-05-07T13:38:05Z</time>
      </trkpt>
      <trkpt lat="44.28694" lon="5.29713">
        <ele>820.79998779297</ele>
        <time>2016-05-07T13:38:06Z</time>
      </trkpt>
      <trkpt lat="44.28691" lon="5.29712">
        <ele>818.40002441406</ele>
        <time>2016-05-07T13:38:09Z</time>
      </trkpt>
      <trkpt lat="44.28692" lon="5.29712">
        <ele>817</ele>
        <time>2016-05-07T13:38:11Z</time>
      </trkpt>
      <trkpt lat="44.28692" lon="5.29712">
        <ele>814.59997558594</ele>
        <time>2016-05-07T13:38:14Z</time>
      </trkpt>
      <trkpt lat="44.28692" lon="5.29712">
        <ele>813.40002441406</ele>
        <time>2016-05-07T13:38:16Z</time>
      </trkpt>
      <trkpt lat="44.28693" lon="5.29709">
        <ele>813.40002441406</ele>
        <time>2016-05-07T13:38:28Z</time>
      </trkpt>
      <trkpt lat="44.28697" lon="5.29704">
        <ele>813.40002441406</ele>
        <time>2016-05-07T13:38:32Z</time>
      </trkpt>
      <trkpt lat="44.28698" lon="5.29701">
        <ele>812.40002441406</ele>
        <time>2016-05-07T13:38:33Z</time>
      </trkpt>
      <trkpt lat="44.287" lon="5.29698">
        <ele>812</ele>
        <time>2016-05-07T13:38:35Z</time>
      </trkpt>
      <trkpt lat="44.28701" lon="5.29693">
        <ele>810.79998779297</ele>
        <time>2016-05-07T13:38:38Z</time>
      </trkpt>
      <trkpt lat="44.28702" lon="5.29691">
        <ele>810.79998779297</ele>
        <time>2016-05-07T13:38:39Z</time>
      </trkpt>
      <trkpt lat="44.28702" lon="5.29688">
        <ele>809.40002441406</ele>
        <time>2016-05-07T13:38:40Z</time>
      </trkpt>
      <trkpt lat="44.28702" lon="5.29683">
        <ele>808.79998779297</ele>
        <time>2016-05-07T13:38:42Z</time>
      </trkpt>
      <trkpt lat="44.28705" lon="5.29679">
        <ele>808.79998779297</ele>
        <time>2016-05-07T13:38:45Z</time>
      </trkpt>
      <trkpt lat="44.28705" lon="5.29677">
        <ele>807.40002441406</ele>
        <time>2016-05-07T13:38:46Z</time>
      </trkpt>
      <trkpt lat="44.28707" lon="5.29673">
        <ele>805.59997558594</ele>
        <time>2016-05-07T13:38:48Z</time>
      </trkpt>
      <trkpt lat="44.28709" lon="5.29667">
        <ele>805.59997558594</ele>
        <time>2016-05-07T13:38:50Z</time>
      </trkpt>
      <trkpt lat="44.2871" lon="5.29664">
        <ele>804.79998779297</ele>
        <time>2016-05-07T13:38:51Z</time>
      </trkpt>
      <trkpt lat="44.28709" lon="5.29656">
        <ele>802.79998779297</ele>
        <time>2016-05-07T13:38:54Z</time>
      </trkpt>
      <trkpt lat="44.28709" lon="5.29651">
        <ele>802.79998779297</ele>
        <time>2016-05-07T13:38:56Z</time>
      </trkpt>
      <trkpt lat="44.28708" lon="5.29649">
        <ele>801.59997558594</ele>
        <time>2016-05-07T13:38:57Z</time>
      </trkpt>
      <trkpt lat="44.28708" lon="5.29647">
        <ele>799.59997558594</ele>
        <time>2016-05-07T13:38:59Z</time>
      </trkpt>
      <trkpt lat="44.28709" lon="5.29645">
        <ele>799.59997558594</ele>
        <time>2016-05-07T13:39:00Z</time>
      </trkpt>
      <trkpt lat="44.2871" lon="5.29645">
        <ele>799.59997558594</ele>
        <time>2016-05-07T13:39:01Z</time>
      </trkpt>
      <trkpt lat="44.28711" lon="5.29645">
        <ele>798</ele>
        <time>2016-05-07T13:39:02Z</time>
      </trkpt>
      <trkpt lat="44.28711" lon="5.29647">
        <ele>798</ele>
        <time>2016-05-07T13:39:04Z</time>
      </trkpt>
      <trkpt lat="44.28711" lon="5.29648">
        <ele>797</ele>
        <time>2016-05-07T13:39:05Z</time>
      </trkpt>
      <trkpt lat="44.28711" lon="5.29651">
        <ele>796.20001220703</ele>
        <time>2016-05-07T13:39:08Z</time>
      </trkpt>
      <trkpt lat="44.28712" lon="5.29653">
        <ele>796.20001220703</ele>
        <time>2016-05-07T13:39:13Z</time>
      </trkpt>
      <trkpt lat="44.28715" lon="5.29661">
        <ele>796.20001220703</ele>
        <time>2016-05-07T13:39:19Z</time>
      </trkpt>
      <trkpt lat="44.2872" lon="5.29674">
        <ele>796.20001220703</ele>
        <time>2016-05-07T13:39:27Z</time>
      </trkpt>
      <trkpt lat="44.2873" lon="5.29689">
        <ele>795.79998779297</ele>
        <time>2016-05-07T13:39:31Z</time>
      </trkpt>
      <trkpt lat="44.28734" lon="5.29696">
        <ele>794.79998779297</ele>
        <time>2016-05-07T13:39:33Z</time>
      </trkpt>
      <trkpt lat="44.28737" lon="5.29706">
        <ele>793.40002441406</ele>
        <time>2016-05-07T13:39:35Z</time>
      </trkpt>
      <trkpt lat="44.28738" lon="5.29711">
        <ele>793.40002441406</ele>
        <time>2016-05-07T13:39:36Z</time>
      </trkpt>
      <trkpt lat="44.28741" lon="5.29721">
        <ele>792.79998779297</ele>
        <time>2016-05-07T13:39:38Z</time>
      </trkpt>
      <trkpt lat="44.28743" lon="5.2973">
        <ele>792.20001220703</ele>
        <time>2016-05-07T13:39:40Z</time>
      </trkpt>
      <trkpt lat="44.28746" lon="5.29742">
        <ele>791.40002441406</ele>
        <time>2016-05-07T13:39:42Z</time>
      </trkpt>
      <trkpt lat="44.28748" lon="5.29748">
        <ele>791.40002441406</ele>
        <time>2016-05-07T13:39:43Z</time>
      </trkpt>
      <trkpt lat="44.28751" lon="5.29753">
        <ele>791.40002441406</ele>
        <time>2016-05-07T13:39:44Z</time>
      </trkpt>
      <trkpt lat="44.28754" lon="5.29758">
        <ele>791</ele>
        <time>2016-05-07T13:39:45Z</time>
      </trkpt>
      <trkpt lat="44.28758" lon="5.29767">
        <ele>789.79998779297</ele>
        <time>2016-05-07T13:39:47Z</time>
      </trkpt>
      <trkpt lat="44.28761" lon="5.29774">
        <ele>789</ele>
        <time>2016-05-07T13:39:49Z</time>
      </trkpt>
      <trkpt lat="44.28768" lon="5.29785">
        <ele>787.79998779297</ele>
        <time>2016-05-07T13:39:52Z</time>
      </trkpt>
      <trkpt lat="44.2877" lon="5.2979">
        <ele>787.79998779297</ele>
        <time>2016-05-07T13:39:53Z</time>
      </trkpt>
      <trkpt lat="44.28773" lon="5.29797">
        <ele>785.20001220703</ele>
        <time>2016-05-07T13:39:54Z</time>
      </trkpt>
      <trkpt lat="44.28779" lon="5.29808">
        <ele>783.79998779297</ele>
        <time>2016-05-07T13:39:56Z</time>
      </trkpt>
      <trkpt lat="44.28782" lon="5.29813">
        <ele>783.79998779297</ele>
        <time>2016-05-07T13:39:57Z</time>
      </trkpt>
      <trkpt lat="44.28788" lon="5.29821">
        <ele>782.40002441406</ele>
        <time>2016-05-07T13:39:59Z</time>
      </trkpt>
      <trkpt lat="44.28792" lon="5.29823">
        <ele>782.40002441406</ele>
        <time>2016-05-07T13:40:00Z</time>
      </trkpt>
      <trkpt lat="44.28795" lon="5.29824">
        <ele>779.79998779297</ele>
        <time>2016-05-07T13:40:01Z</time>
      </trkpt>
      <trkpt lat="44.28795" lon="5.29823">
        <ele>778.40002441406</ele>
        <time>2016-05-07T13:40:03Z</time>
      </trkpt>
      <trkpt lat="44.28795" lon="5.29821">
        <ele>778.40002441406</ele>
        <time>2016-05-07T13:40:04Z</time>
      </trkpt>
      <trkpt lat="44.28795" lon="5.2982">
        <ele>777.20001220703</ele>
        <time>2016-05-07T13:40:06Z</time>
      </trkpt>
      <trkpt lat="44.28792" lon="5.29816">
        <ele>776</ele>
        <time>2016-05-07T13:40:08Z</time>
      </trkpt>
      <trkpt lat="44.28791" lon="5.29812">
        <ele>776</ele>
        <time>2016-05-07T13:40:09Z</time>
      </trkpt>
      <trkpt lat="44.28789" lon="5.29807">
        <ele>773.79998779297</ele>
        <time>2016-05-07T13:40:10Z</time>
      </trkpt>
      <trkpt lat="44.28785" lon="5.29789">
        <ele>772.79998779297</ele>
        <time>2016-05-07T13:40:13Z</time>
      </trkpt>
      <trkpt lat="44.28784" lon="5.29782">
        <ele>772.79998779297</ele>
        <time>2016-05-07T13:40:14Z</time>
      </trkpt>
      <trkpt lat="44.28783" lon="5.29776">
        <ele>771.59997558594</ele>
        <time>2016-05-07T13:40:15Z</time>
      </trkpt>
      <trkpt lat="44.28782" lon="5.2977">
        <ele>771.59997558594</ele>
        <time>2016-05-07T13:40:16Z</time>
      </trkpt>
      <trkpt lat="44.28783" lon="5.29766">
        <ele>770.59997558594</ele>
        <time>2016-05-07T13:40:17Z</time>
      </trkpt>
      <trkpt lat="44.28782" lon="5.29764">
        <ele>769.79998779297</ele>
        <time>2016-05-07T13:40:18Z</time>
      </trkpt>
      <trkpt lat="44.28783" lon="5.29762">
        <ele>769.79998779297</ele>
        <time>2016-05-07T13:40:19Z</time>
      </trkpt>
      <trkpt lat="44.28785" lon="5.29762">
        <ele>768.79998779297</ele>
        <time>2016-05-07T13:40:20Z</time>
      </trkpt>
      <trkpt lat="44.28785" lon="5.29762">
        <ele>768</ele>
        <time>2016-05-07T13:40:22Z</time>
      </trkpt>
      <trkpt lat="44.28785" lon="5.29763">
        <ele>766.40002441406</ele>
        <time>2016-05-07T13:40:24Z</time>
      </trkpt>
      <trkpt lat="44.28785" lon="5.29763">
        <ele>765.59997558594</ele>
        <time>2016-05-07T13:40:27Z</time>
      </trkpt>
      <trkpt lat="44.28785" lon="5.29763">
        <ele>764.79998779297</ele>
        <time>2016-05-07T13:40:29Z</time>
      </trkpt>
      <trkpt lat="44.28786" lon="5.29766">
        <ele>764.79998779297</ele>
        <time>2016-05-07T13:40:31Z</time>
      </trkpt>
      <trkpt lat="44.28787" lon="5.29769">
        <ele>764.79998779297</ele>
        <time>2016-05-07T13:40:32Z</time>
      </trkpt>
      <trkpt lat="44.28789" lon="5.29771">
        <ele>764.79998779297</ele>
        <time>2016-05-07T13:40:33Z</time>
      </trkpt>
      <trkpt lat="44.2879" lon="5.2977">
        <ele>764.79998779297</ele>
        <time>2016-05-07T13:40:35Z</time>
      </trkpt>
      <trkpt lat="44.2879" lon="5.29761">
        <ele>763.59997558594</ele>
        <time>2016-05-07T13:40:38Z</time>
      </trkpt>
      <trkpt lat="44.2879" lon="5.29756">
        <ele>763.59997558594</ele>
        <time>2016-05-07T13:40:40Z</time>
      </trkpt>
      <trkpt lat="44.2879" lon="5.29754">
        <ele>763</ele>
        <time>2016-05-07T13:40:41Z</time>
      </trkpt>
      <trkpt lat="44.28791" lon="5.29753">
        <ele>762.40002441406</ele>
        <time>2016-05-07T13:40:43Z</time>
      </trkpt>
      <trkpt lat="44.28792" lon="5.29753">
        <ele>762</ele>
        <time>2016-05-07T13:40:45Z</time>
      </trkpt>
      <trkpt lat="44.28793" lon="5.29754">
        <ele>761.59997558594</ele>
        <time>2016-05-07T13:40:46Z</time>
      </trkpt>
      <trkpt lat="44.28794" lon="5.29755">
        <ele>761.20001220703</ele>
        <time>2016-05-07T13:40:48Z</time>
      </trkpt>
      <trkpt lat="44.28795" lon="5.29756">
        <ele>760.79998779297</ele>
        <time>2016-05-07T13:40:50Z</time>
      </trkpt>
      <trkpt lat="44.28797" lon="5.29759">
        <ele>760.79998779297</ele>
        <time>2016-05-07T13:40:51Z</time>
      </trkpt>
      <trkpt lat="44.28798" lon="5.29762">
        <ele>760.40002441406</ele>
        <time>2016-05-07T13:40:52Z</time>
      </trkpt>
      <trkpt lat="44.28799" lon="5.29764">
        <ele>760</ele>
        <time>2016-05-07T13:40:53Z</time>
      </trkpt>
      <trkpt lat="44.28801" lon="5.29768">
        <ele>760</ele>
        <time>2016-05-07T13:40:56Z</time>
      </trkpt>
      <trkpt lat="44.28801" lon="5.29761">
        <ele>759</ele>
        <time>2016-05-07T13:40:59Z</time>
      </trkpt>
      <trkpt lat="44.28802" lon="5.29748">
        <ele>758.59997558594</ele>
        <time>2016-05-07T13:41:02Z</time>
      </trkpt>
      <trkpt lat="44.28803" lon="5.29736">
        <ele>757.59997558594</ele>
        <time>2016-05-07T13:41:04Z</time>
      </trkpt>
      <trkpt lat="44.28806" lon="5.29722">
        <ele>755</ele>
        <time>2016-05-07T13:41:06Z</time>
      </trkpt>
      <trkpt lat="44.28806" lon="5.29715">
        <ele>755</ele>
        <time>2016-05-07T13:41:07Z</time>
      </trkpt>
      <trkpt lat="44.28808" lon="5.29703">
        <ele>752</ele>
        <time>2016-05-07T13:41:09Z</time>
      </trkpt>
      <trkpt lat="44.28811" lon="5.2969">
        <ele>748.79998779297</ele>
        <time>2016-05-07T13:41:12Z</time>
      </trkpt>
      <trkpt lat="44.28813" lon="5.29687">
        <ele>747.40002441406</ele>
        <time>2016-05-07T13:41:15Z</time>
      </trkpt>
      <trkpt lat="44.28813" lon="5.29687">
        <ele>747.40002441406</ele>
        <time>2016-05-07T13:41:16Z</time>
      </trkpt>
      <trkpt lat="44.28814" lon="5.29686">
        <ele>744.40002441406</ele>
        <time>2016-05-07T13:41:17Z</time>
      </trkpt>
      <trkpt lat="44.28815" lon="5.29687">
        <ele>743</ele>
        <time>2016-05-07T13:41:19Z</time>
      </trkpt>
      <trkpt lat="44.28817" lon="5.29693">
        <ele>741.40002441406</ele>
        <time>2016-05-07T13:41:22Z</time>
      </trkpt>
      <trkpt lat="44.28818" lon="5.29698">
        <ele>741.40002441406</ele>
        <time>2016-05-07T13:41:23Z</time>
      </trkpt>
      <trkpt lat="44.28824" lon="5.29719">
        <ele>741</ele>
        <time>2016-05-07T13:41:28Z</time>
      </trkpt>
      <trkpt lat="44.28826" lon="5.29721">
        <ele>741</ele>
        <time>2016-05-07T13:41:29Z</time>
      </trkpt>
      <trkpt lat="44.28827" lon="5.29723">
        <ele>740.20001220703</ele>
        <time>2016-05-07T13:41:30Z</time>
      </trkpt>
      <trkpt lat="44.28832" lon="5.29722">
        <ele>739.20001220703</ele>
        <time>2016-05-07T13:41:33Z</time>
      </trkpt>
      <trkpt lat="44.28832" lon="5.2972">
        <ele>739.20001220703</ele>
        <time>2016-05-07T13:41:34Z</time>
      </trkpt>
      <trkpt lat="44.28831" lon="5.29719">
        <ele>738.20001220703</ele>
        <time>2016-05-07T13:41:35Z</time>
      </trkpt>
      <trkpt lat="44.28829" lon="5.29716">
        <ele>738.20001220703</ele>
        <time>2016-05-07T13:41:36Z</time>
      </trkpt>
      <trkpt lat="44.28828" lon="5.29713">
        <ele>736</ele>
        <time>2016-05-07T13:41:37Z</time>
      </trkpt>
      <trkpt lat="44.28827" lon="5.29705">
        <ele>734.79998779297</ele>
        <time>2016-05-07T13:41:39Z</time>
      </trkpt>
      <trkpt lat="44.28825" lon="5.29695">
        <ele>733.79998779297</ele>
        <time>2016-05-07T13:41:42Z</time>
      </trkpt>
      <trkpt lat="44.28826" lon="5.29695">
        <ele>733.79998779297</ele>
        <time>2016-05-07T13:41:43Z</time>
      </trkpt>
      <trkpt lat="44.28827" lon="5.29695">
        <ele>731.79998779297</ele>
        <time>2016-05-07T13:41:44Z</time>
      </trkpt>
      <trkpt lat="44.28827" lon="5.29694">
        <ele>731</ele>
        <time>2016-05-07T13:41:47Z</time>
      </trkpt>
      <trkpt lat="44.28827" lon="5.29694">
        <ele>730</ele>
        <time>2016-05-07T13:41:49Z</time>
      </trkpt>
      <trkpt lat="44.28827" lon="5.29694">
        <ele>728.40002441406</ele>
        <time>2016-05-07T13:41:51Z</time>
      </trkpt>
      <trkpt lat="44.28827" lon="5.29694">
        <ele>727.59997558594</ele>
        <time>2016-05-07T13:41:53Z</time>
      </trkpt>
      <trkpt lat="44.2883" lon="5.29693">
        <ele>727.59997558594</ele>
        <time>2016-05-07T13:42:02Z</time>
      </trkpt>
      <trkpt lat="44.28832" lon="5.2969">
        <ele>727</ele>
        <time>2016-05-07T13:42:03Z</time>
      </trkpt>
      <trkpt lat="44.28832" lon="5.29682">
        <ele>725.40002441406</ele>
        <time>2016-05-07T13:42:05Z</time>
      </trkpt>
      <trkpt lat="44.28831" lon="5.29678">
        <ele>725.40002441406</ele>
        <time>2016-05-07T13:42:07Z</time>
      </trkpt>
      <trkpt lat="44.28832" lon="5.29679">
        <ele>724.40002441406</ele>
        <time>2016-05-07T13:42:08Z</time>
      </trkpt>
      <trkpt lat="44.28833" lon="5.29679">
        <ele>722.59997558594</ele>
        <time>2016-05-07T13:42:10Z</time>
      </trkpt>
      <trkpt lat="44.28835" lon="5.29679">
        <ele>721.59997558594</ele>
        <time>2016-05-07T13:42:12Z</time>
      </trkpt>
      <trkpt lat="44.28841" lon="5.2968">
        <ele>720.59997558594</ele>
        <time>2016-05-07T13:42:17Z</time>
      </trkpt>
      <trkpt lat="44.28842" lon="5.29679">
        <ele>720.59997558594</ele>
        <time>2016-05-07T13:42:18Z</time>
      </trkpt>
      <trkpt lat="44.28841" lon="5.29678">
        <ele>720.20001220703</ele>
        <time>2016-05-07T13:42:19Z</time>
      </trkpt>
      <trkpt lat="44.28839" lon="5.29678">
        <ele>719.79998779297</ele>
        <time>2016-05-07T13:42:22Z</time>
      </trkpt>
      <trkpt lat="44.28839" lon="5.29678">
        <ele>719.79998779297</ele>
        <time>2016-05-07T13:42:23Z</time>
      </trkpt>
      <trkpt lat="44.28839" lon="5.29678">
        <ele>719.20001220703</ele>
        <time>2016-05-07T13:42:24Z</time>
      </trkpt>
      <trkpt lat="44.28838" lon="5.2968">
        <ele>718.79998779297</ele>
        <time>2016-05-07T13:42:48Z</time>
      </trkpt>
      <trkpt lat="44.28838" lon="5.29681">
        <ele>717.79998779297</ele>
        <time>2016-05-07T13:42:50Z</time>
      </trkpt>
      <trkpt lat="44.28838" lon="5.29681">
        <ele>717</ele>
        <time>2016-05-07T13:42:52Z</time>
      </trkpt>
      <trkpt lat="44.28831" lon="5.29669">
        <ele>717</ele>
        <time>2016-05-07T13:45:41Z</time>
      </trkpt>
      <trkpt lat="44.28831" lon="5.29665">
        <ele>717</ele>
        <time>2016-05-07T13:45:42Z</time>
      </trkpt>
      <trkpt lat="44.28832" lon="5.29663">
        <ele>715.79998779297</ele>
        <time>2016-05-07T13:45:44Z</time>
      </trkpt>
      <trkpt lat="44.28836" lon="5.29663">
        <ele>715.79998779297</ele>
        <time>2016-05-07T13:45:45Z</time>
      </trkpt>
      <trkpt lat="44.28838" lon="5.29661">
        <ele>715.40002441406</ele>
        <time>2016-05-07T13:45:46Z</time>
      </trkpt>
      <trkpt lat="44.28841" lon="5.2966">
        <ele>715.40002441406</ele>
        <time>2016-05-07T13:45:47Z</time>
      </trkpt>
      <trkpt lat="44.28842" lon="5.29661">
        <ele>715.40002441406</ele>
        <time>2016-05-07T13:45:48Z</time>
      </trkpt>
      <trkpt lat="44.28844" lon="5.2966">
        <ele>714.59997558594</ele>
        <time>2016-05-07T13:45:49Z</time>
      </trkpt>
      <trkpt lat="44.28844" lon="5.29653">
        <ele>712.79998779297</ele>
        <time>2016-05-07T13:45:51Z</time>
      </trkpt>
      <trkpt lat="44.28843" lon="5.29649">
        <ele>712.79998779297</ele>
        <time>2016-05-07T13:45:52Z</time>
      </trkpt>
      <trkpt lat="44.2884" lon="5.29645">
        <ele>712</ele>
        <time>2016-05-07T13:45:53Z</time>
      </trkpt>
      <trkpt lat="44.28831" lon="5.2964">
        <ele>711</ele>
        <time>2016-05-07T13:45:56Z</time>
      </trkpt>
      <trkpt lat="44.28829" lon="5.29635">
        <ele>709</ele>
        <time>2016-05-07T13:45:59Z</time>
      </trkpt>
      <trkpt lat="44.2883" lon="5.29635">
        <ele>709</ele>
        <time>2016-05-07T13:46:00Z</time>
      </trkpt>
      <trkpt lat="44.2883" lon="5.29636">
        <ele>708</ele>
        <time>2016-05-07T13:46:02Z</time>
      </trkpt>
      <trkpt lat="44.28831" lon="5.29635">
        <ele>707</ele>
        <time>2016-05-07T13:46:04Z</time>
      </trkpt>
      <trkpt lat="44.28832" lon="5.29635">
        <ele>707</ele>
        <time>2016-05-07T13:46:05Z</time>
      </trkpt>
      <trkpt lat="44.28838" lon="5.29637">
        <ele>704.79998779297</ele>
        <time>2016-05-07T13:46:11Z</time>
      </trkpt>
      <trkpt lat="44.28842" lon="5.29638">
        <ele>703.79998779297</ele>
        <time>2016-05-07T13:46:14Z</time>
      </trkpt>
      <trkpt lat="44.2884" lon="5.29631">
        <ele>702.79998779297</ele>
        <time>2016-05-07T13:46:19Z</time>
      </trkpt>
      <trkpt lat="44.28839" lon="5.29629">
        <ele>702</ele>
        <time>2016-05-07T13:46:21Z</time>
      </trkpt>
      <trkpt lat="44.28838" lon="5.29624">
        <ele>701.40002441406</ele>
        <time>2016-05-07T13:46:24Z</time>
      </trkpt>
      <trkpt lat="44.28837" lon="5.29624">
        <ele>701.40002441406</ele>
        <time>2016-05-07T13:46:25Z</time>
      </trkpt>
      <trkpt lat="44.28835" lon="5.29616">
        <ele>701.40002441406</ele>
        <time>2016-05-07T13:46:31Z</time>
      </trkpt>
      <trkpt lat="44.28837" lon="5.29604">
        <ele>701.40002441406</ele>
        <time>2016-05-07T13:46:35Z</time>
      </trkpt>
      <trkpt lat="44.28842" lon="5.29589">
        <ele>701.40002441406</ele>
        <time>2016-05-07T13:46:40Z</time>
      </trkpt>
      <trkpt lat="44.28843" lon="5.29586">
        <ele>701.40002441406</ele>
        <time>2016-05-07T13:46:41Z</time>
      </trkpt>
      <trkpt lat="44.28844" lon="5.29583">
        <ele>701.79998779297</ele>
        <time>2016-05-07T13:46:43Z</time>
      </trkpt>
      <trkpt lat="44.28844" lon="5.29584">
        <ele>702.79998779297</ele>
        <time>2016-05-07T13:46:45Z</time>
      </trkpt>
      <trkpt lat="44.28844" lon="5.29584">
        <ele>702.79998779297</ele>
        <time>2016-05-07T13:46:46Z</time>
      </trkpt>
      <trkpt lat="44.28846" lon="5.29584">
        <ele>703.20001220703</ele>
        <time>2016-05-07T13:46:48Z</time>
      </trkpt>
      <trkpt lat="44.28846" lon="5.29581">
        <ele>703.59997558594</ele>
        <time>2016-05-07T13:46:50Z</time>
      </trkpt>
      <trkpt lat="44.28848" lon="5.29577">
        <ele>703.59997558594</ele>
        <time>2016-05-07T13:46:53Z</time>
      </trkpt>
      <trkpt lat="44.28852" lon="5.29574">
        <ele>703.59997558594</ele>
        <time>2016-05-07T13:46:58Z</time>
      </trkpt>
      <trkpt lat="44.28861" lon="5.29569">
        <ele>703.59997558594</ele>
        <time>2016-05-07T13:47:03Z</time>
      </trkpt>
      <trkpt lat="44.28863" lon="5.29565">
        <ele>704</ele>
        <time>2016-05-07T13:47:04Z</time>
      </trkpt>
      <trkpt lat="44.28866" lon="5.29557">
        <ele>704.79998779297</ele>
        <time>2016-05-07T13:47:06Z</time>
      </trkpt>
      <trkpt lat="44.28868" lon="5.29553">
        <ele>704.79998779297</ele>
        <time>2016-05-07T13:47:07Z</time>
      </trkpt>
      <trkpt lat="44.2887" lon="5.2955">
        <ele>705.20001220703</ele>
        <time>2016-05-07T13:47:08Z</time>
      </trkpt>
      <trkpt lat="44.28879" lon="5.29542">
        <ele>705.59997558594</ele>
        <time>2016-05-07T13:47:11Z</time>
      </trkpt>
      <trkpt lat="44.28885" lon="5.29532">
        <ele>705.59997558594</ele>
        <time>2016-05-07T13:47:14Z</time>
      </trkpt>
      <trkpt lat="44.28894" lon="5.29506">
        <ele>704.79998779297</ele>
        <time>2016-05-07T13:47:20Z</time>
      </trkpt>
      <trkpt lat="44.28896" lon="5.29491">
        <ele>703.79998779297</ele>
        <time>2016-05-07T13:47:22Z</time>
      </trkpt>
      <trkpt lat="44.28899" lon="5.29472">
        <ele>703.79998779297</ele>
        <time>2016-05-07T13:47:24Z</time>
      </trkpt>
      <trkpt lat="44.28901" lon="5.29462">
        <ele>702.79998779297</ele>
        <time>2016-05-07T13:47:25Z</time>
      </trkpt>
      <trkpt lat="44.28902" lon="5.29454">
        <ele>702.79998779297</ele>
        <time>2016-05-07T13:47:26Z</time>
      </trkpt>
      <trkpt lat="44.28905" lon="5.29447">
        <ele>700.40002441406</ele>
        <time>2016-05-07T13:47:27Z</time>
      </trkpt>
      <trkpt lat="44.28909" lon="5.29443">
        <ele>700.40002441406</ele>
        <time>2016-05-07T13:47:28Z</time>
      </trkpt>
      <trkpt lat="44.28912" lon="5.29439">
        <ele>699.20001220703</ele>
        <time>2016-05-07T13:47:29Z</time>
      </trkpt>
      <trkpt lat="44.28925" lon="5.29423">
        <ele>698.20001220703</ele>
        <time>2016-05-07T13:47:32Z</time>
      </trkpt>
      <trkpt lat="44.28931" lon="5.29421">
        <ele>698.20001220703</ele>
        <time>2016-05-07T13:47:33Z</time>
      </trkpt>
      <trkpt lat="44.28935" lon="5.29419">
        <ele>695.79998779297</ele>
        <time>2016-05-07T13:47:34Z</time>
      </trkpt>
      <trkpt lat="44.28942" lon="5.29415">
        <ele>694.59997558594</ele>
        <time>2016-05-07T13:47:36Z</time>
      </trkpt>
      <trkpt lat="44.28944" lon="5.29411">
        <ele>694.59997558594</ele>
        <time>2016-05-07T13:47:37Z</time>
      </trkpt>
      <trkpt lat="44.28942" lon="5.29402">
        <ele>693.40002441406</ele>
        <time>2016-05-07T13:47:39Z</time>
      </trkpt>
      <trkpt lat="44.28938" lon="5.29395">
        <ele>691.59997558594</ele>
        <time>2016-05-07T13:47:41Z</time>
      </trkpt>
      <trkpt lat="44.28934" lon="5.29389">
        <ele>691</ele>
        <time>2016-05-07T13:47:43Z</time>
      </trkpt>
      <trkpt lat="44.28929" lon="5.29382">
        <ele>690</ele>
        <time>2016-05-07T13:47:46Z</time>
      </trkpt>
      <trkpt lat="44.28926" lon="5.29379">
        <ele>690</ele>
        <time>2016-05-07T13:47:47Z</time>
      </trkpt>
      <trkpt lat="44.28924" lon="5.29375">
        <ele>688</ele>
        <time>2016-05-07T13:47:48Z</time>
      </trkpt>
      <trkpt lat="44.28922" lon="5.29368">
        <ele>686.79998779297</ele>
        <time>2016-05-07T13:47:50Z</time>
      </trkpt>
      <trkpt lat="44.2892" lon="5.29357">
        <ele>685.59997558594</ele>
        <time>2016-05-07T13:47:53Z</time>
      </trkpt>
      <trkpt lat="44.2892" lon="5.29352">
        <ele>682.59997558594</ele>
        <time>2016-05-07T13:47:55Z</time>
      </trkpt>
      <trkpt lat="44.28917" lon="5.29346">
        <ele>681.20001220703</ele>
        <time>2016-05-07T13:47:57Z</time>
      </trkpt>
      <trkpt lat="44.28918" lon="5.29336">
        <ele>679.59997558594</ele>
        <time>2016-05-07T13:48:00Z</time>
      </trkpt>
      <trkpt lat="44.28921" lon="5.29332">
        <ele>676.59997558594</ele>
        <time>2016-05-07T13:48:02Z</time>
      </trkpt>
      <trkpt lat="44.28927" lon="5.29328">
        <ele>674.79998779297</ele>
        <time>2016-05-07T13:48:04Z</time>
      </trkpt>
      <trkpt lat="44.28932" lon="5.29322">
        <ele>674.79998779297</ele>
        <time>2016-05-07T13:48:06Z</time>
      </trkpt>
      <trkpt lat="44.28933" lon="5.29316">
        <ele>673.20001220703</ele>
        <time>2016-05-07T13:48:07Z</time>
      </trkpt>
      <trkpt lat="44.28933" lon="5.29306">
        <ele>670.20001220703</ele>
        <time>2016-05-07T13:48:09Z</time>
      </trkpt>
      <trkpt lat="44.28934" lon="5.29302">
        <ele>670.20001220703</ele>
        <time>2016-05-07T13:48:10Z</time>
      </trkpt>
      <trkpt lat="44.28945" lon="5.29278">
        <ele>670.20001220703</ele>
        <time>2016-05-07T13:48:16Z</time>
      </trkpt>
      <trkpt lat="44.28947" lon="5.29274">
        <ele>670.20001220703</ele>
        <time>2016-05-07T13:48:17Z</time>
      </trkpt>
      <trkpt lat="44.28945" lon="5.2926">
        <ele>670.20001220703</ele>
        <time>2016-05-07T13:48:20Z</time>
      </trkpt>
      <trkpt lat="44.2894" lon="5.29259">
        <ele>670.20001220703</ele>
        <time>2016-05-07T13:48:21Z</time>
      </trkpt>
      <trkpt lat="44.28937" lon="5.29258">
        <ele>670.20001220703</ele>
        <time>2016-05-07T13:48:22Z</time>
      </trkpt>
      <trkpt lat="44.2892" lon="5.29242">
        <ele>670.20001220703</ele>
        <time>2016-05-07T13:48:28Z</time>
      </trkpt>
      <trkpt lat="44.28913" lon="5.29221">
        <ele>670.20001220703</ele>
        <time>2016-05-07T13:48:33Z</time>
      </trkpt>
      <trkpt lat="44.28915" lon="5.29196">
        <ele>670.20001220703</ele>
        <time>2016-05-07T13:48:37Z</time>
      </trkpt>
      <trkpt lat="44.28908" lon="5.29172">
        <ele>670.20001220703</ele>
        <time>2016-05-07T13:48:42Z</time>
      </trkpt>
      <trkpt lat="44.28888" lon="5.29163">
        <ele>670.20001220703</ele>
        <time>2016-05-07T13:48:47Z</time>
      </trkpt>
      <trkpt lat="44.28875" lon="5.29155">
        <ele>670.20001220703</ele>
        <time>2016-05-07T13:48:53Z</time>
      </trkpt>
      <trkpt lat="44.28878" lon="5.2914">
        <ele>670.20001220703</ele>
        <time>2016-05-07T13:48:56Z</time>
      </trkpt>
      <trkpt lat="44.28881" lon="5.29132">
        <ele>670.20001220703</ele>
        <time>2016-05-07T13:48:57Z</time>
      </trkpt>
      <trkpt lat="44.28889" lon="5.29096">
        <ele>670.20001220703</ele>
        <time>2016-05-07T13:49:01Z</time>
      </trkpt>
      <trkpt lat="44.28894" lon="5.29078">
        <ele>670.20001220703</ele>
        <time>2016-05-07T13:49:04Z</time>
      </trkpt>
      <trkpt lat="44.28894" lon="5.29061">
        <ele>670.20001220703</ele>
        <time>2016-05-07T13:49:06Z</time>
      </trkpt>
      <trkpt lat="44.28898" lon="5.29038">
        <ele>670.20001220703</ele>
        <time>2016-05-07T13:49:09Z</time>
      </trkpt>
      <trkpt lat="44.28897" lon="5.29032">
        <ele>670.20001220703</ele>
        <time>2016-05-07T13:49:11Z</time>
      </trkpt>
      <trkpt lat="44.28893" lon="5.29033">
        <ele>670.20001220703</ele>
        <time>2016-05-07T13:49:12Z</time>
      </trkpt>
      <trkpt lat="44.28886" lon="5.29041">
        <ele>666.40002441406</ele>
        <time>2016-05-07T13:49:15Z</time>
      </trkpt>
      <trkpt lat="44.28879" lon="5.29043">
        <ele>653</ele>
        <time>2016-05-07T13:49:17Z</time>
      </trkpt>
      <trkpt lat="44.28872" lon="5.29043">
        <ele>645.59997558594</ele>
        <time>2016-05-07T13:49:19Z</time>
      </trkpt>
      <trkpt lat="44.2887" lon="5.29043">
        <ele>645.59997558594</ele>
        <time>2016-05-07T13:49:20Z</time>
      </trkpt>
      <trkpt lat="44.28865" lon="5.29045">
        <ele>640.59997558594</ele>
        <time>2016-05-07T13:49:22Z</time>
      </trkpt>
      <trkpt lat="44.28866" lon="5.29041">
        <ele>640.59997558594</ele>
        <time>2016-05-07T13:49:23Z</time>
      </trkpt>
      <trkpt lat="44.28868" lon="5.29038">
        <ele>630.59997558594</ele>
        <time>2016-05-07T13:49:24Z</time>
      </trkpt>
      <trkpt lat="44.28871" lon="5.29026">
        <ele>628.20001220703</ele>
        <time>2016-05-07T13:49:27Z</time>
      </trkpt>
      <trkpt lat="44.28874" lon="5.29016">
        <ele>625.79998779297</ele>
        <time>2016-05-07T13:49:29Z</time>
      </trkpt>
      <trkpt lat="44.28875" lon="5.29012">
        <ele>625.79998779297</ele>
        <time>2016-05-07T13:49:30Z</time>
      </trkpt>
      <trkpt lat="44.28876" lon="5.29007">
        <ele>621.59997558594</ele>
        <time>2016-05-07T13:49:31Z</time>
      </trkpt>
      <trkpt lat="44.28876" lon="5.28998">
        <ele>619.79998779297</ele>
        <time>2016-05-07T13:49:33Z</time>
      </trkpt>
      <trkpt lat="44.28874" lon="5.28991">
        <ele>619.79998779297</ele>
        <time>2016-05-07T13:49:35Z</time>
      </trkpt>
      <trkpt lat="44.28872" lon="5.28989">
        <ele>618</ele>
        <time>2016-05-07T13:49:36Z</time>
      </trkpt>
      <trkpt lat="44.2887" lon="5.28984">
        <ele>614.59997558594</ele>
        <time>2016-05-07T13:49:38Z</time>
      </trkpt>
      <trkpt lat="44.2887" lon="5.28977">
        <ele>613.20001220703</ele>
        <time>2016-05-07T13:49:40Z</time>
      </trkpt>
      <trkpt lat="44.2887" lon="5.28964">
        <ele>611.59997558594</ele>
        <time>2016-05-07T13:49:43Z</time>
      </trkpt>
      <trkpt lat="44.28868" lon="5.28956">
        <ele>608.59997558594</ele>
        <time>2016-05-07T13:49:45Z</time>
      </trkpt>
      <trkpt lat="44.28868" lon="5.28947">
        <ele>607.20001220703</ele>
        <time>2016-05-07T13:49:47Z</time>
      </trkpt>
      <trkpt lat="44.28867" lon="5.28939">
        <ele>606</ele>
        <time>2016-05-07T13:49:50Z</time>
      </trkpt>
      <trkpt lat="44.28864" lon="5.28937">
        <ele>604.59997558594</ele>
        <time>2016-05-07T13:49:52Z</time>
      </trkpt>
      <trkpt lat="44.28864" lon="5.28936">
        <ele>602.40002441406</ele>
        <time>2016-05-07T13:49:54Z</time>
      </trkpt>
      <trkpt lat="44.28863" lon="5.28936">
        <ele>601.40002441406</ele>
        <time>2016-05-07T13:49:57Z</time>
      </trkpt>
      <trkpt lat="44.28863" lon="5.28936">
        <ele>599.20001220703</ele>
        <time>2016-05-07T13:49:58Z</time>
      </trkpt>
      <trkpt lat="44.2886" lon="5.2894">
        <ele>599.20001220703</ele>
        <time>2016-05-07T13:50:06Z</time>
      </trkpt>
      <trkpt lat="44.28859" lon="5.28941">
        <ele>599.20001220703</ele>
        <time>2016-05-07T13:50:07Z</time>
      </trkpt>
      <trkpt lat="44.28859" lon="5.2894">
        <ele>598.79998779297</ele>
        <time>2016-05-07T13:50:09Z</time>
      </trkpt>
      <trkpt lat="44.28859" lon="5.28937">
        <ele>598</ele>
        <time>2016-05-07T13:50:11Z</time>
      </trkpt>
      <trkpt lat="44.28858" lon="5.28932">
        <ele>597.59997558594</ele>
        <time>2016-05-07T13:50:13Z</time>
      </trkpt>
      <trkpt lat="44.28857" lon="5.28929">
        <ele>597.59997558594</ele>
        <time>2016-05-07T13:50:14Z</time>
      </trkpt>
      <trkpt lat="44.28857" lon="5.28928">
        <ele>597</ele>
        <time>2016-05-07T13:50:15Z</time>
      </trkpt>
      <trkpt lat="44.28854" lon="5.28929">
        <ele>596</ele>
        <time>2016-05-07T13:50:16Z</time>
      </trkpt>
      <trkpt lat="44.28851" lon="5.28934">
        <ele>595.40002441406</ele>
        <time>2016-05-07T13:50:18Z</time>
      </trkpt>
      <trkpt lat="44.28848" lon="5.28937">
        <ele>594.40002441406</ele>
        <time>2016-05-07T13:50:19Z</time>
      </trkpt>
      <trkpt lat="44.28841" lon="5.28943">
        <ele>593.79998779297</ele>
        <time>2016-05-07T13:50:21Z</time>
      </trkpt>
      <trkpt lat="44.28836" lon="5.28945">
        <ele>592.59997558594</ele>
        <time>2016-05-07T13:50:23Z</time>
      </trkpt>
      <trkpt lat="44.28835" lon="5.28941">
        <ele>592.59997558594</ele>
        <time>2016-05-07T13:50:24Z</time>
      </trkpt>
      <trkpt lat="44.28833" lon="5.28938">
        <ele>591.79998779297</ele>
        <time>2016-05-07T13:50:25Z</time>
      </trkpt>
      <trkpt lat="44.28831" lon="5.28937">
        <ele>591</ele>
        <time>2016-05-07T13:50:26Z</time>
      </trkpt>
      <trkpt lat="44.28826" lon="5.28937">
        <ele>590.20001220703</ele>
        <time>2016-05-07T13:50:27Z</time>
      </trkpt>
      <trkpt lat="44.28821" lon="5.28939">
        <ele>589.20001220703</ele>
        <time>2016-05-07T13:50:28Z</time>
      </trkpt>
      <trkpt lat="44.28815" lon="5.28942">
        <ele>589.20001220703</ele>
        <time>2016-05-07T13:50:29Z</time>
      </trkpt>
      <trkpt lat="44.2881" lon="5.28941">
        <ele>588.40002441406</ele>
        <time>2016-05-07T13:50:30Z</time>
      </trkpt>
      <trkpt lat="44.28805" lon="5.2894">
        <ele>586.79998779297</ele>
        <time>2016-05-07T13:50:31Z</time>
      </trkpt>
      <trkpt lat="44.28801" lon="5.28941">
        <ele>586.79998779297</ele>
        <time>2016-05-07T13:50:32Z</time>
      </trkpt>
      <trkpt lat="44.28796" lon="5.28944">
        <ele>585.79998779297</ele>
        <time>2016-05-07T13:50:33Z</time>
      </trkpt>
      <trkpt lat="44.28793" lon="5.28947">
        <ele>584.79998779297</ele>
        <time>2016-05-07T13:50:34Z</time>
      </trkpt>
      <trkpt lat="44.28786" lon="5.28957">
        <ele>583.79998779297</ele>
        <time>2016-05-07T13:50:36Z</time>
      </trkpt>
      <trkpt lat="44.28781" lon="5.28963">
        <ele>582.79998779297</ele>
        <time>2016-05-07T13:50:37Z</time>
      </trkpt>
      <trkpt lat="44.28778" lon="5.28969">
        <ele>581.79998779297</ele>
        <time>2016-05-07T13:50:38Z</time>
      </trkpt>
      <trkpt lat="44.28772" lon="5.28973">
        <ele>579.59997558594</ele>
        <time>2016-05-07T13:50:40Z</time>
      </trkpt>
      <trkpt lat="44.28767" lon="5.28964">
        <ele>578.59997558594</ele>
        <time>2016-05-07T13:50:42Z</time>
      </trkpt>
      <trkpt lat="44.28766" lon="5.2896">
        <ele>577.40002441406</ele>
        <time>2016-05-07T13:50:43Z</time>
      </trkpt>
      <trkpt lat="44.28767" lon="5.28956">
        <ele>576.40002441406</ele>
        <time>2016-05-07T13:50:44Z</time>
      </trkpt>
      <trkpt lat="44.28767" lon="5.28952">
        <ele>574</ele>
        <time>2016-05-07T13:50:45Z</time>
      </trkpt>
      <trkpt lat="44.28765" lon="5.28947">
        <ele>574</ele>
        <time>2016-05-07T13:50:47Z</time>
      </trkpt>
      <trkpt lat="44.28764" lon="5.28949">
        <ele>574</ele>
        <time>2016-05-07T13:50:52Z</time>
      </trkpt>
      <trkpt lat="44.28762" lon="5.28946">
        <ele>574</ele>
        <time>2016-05-07T13:50:57Z</time>
      </trkpt>
      <trkpt lat="44.2876" lon="5.28943">
        <ele>574</ele>
        <time>2016-05-07T13:50:58Z</time>
      </trkpt>
      <trkpt lat="44.28754" lon="5.28936">
        <ele>574.59997558594</ele>
        <time>2016-05-07T13:51:02Z</time>
      </trkpt>
      <trkpt lat="44.28754" lon="5.28928">
        <ele>574.59997558594</ele>
        <time>2016-05-07T13:51:05Z</time>
      </trkpt>
      <trkpt lat="44.28754" lon="5.28926">
        <ele>575</ele>
        <time>2016-05-07T13:51:06Z</time>
      </trkpt>
      <trkpt lat="44.28753" lon="5.28917">
        <ele>575</ele>
        <time>2016-05-07T13:51:12Z</time>
      </trkpt>
      <trkpt lat="44.28754" lon="5.28912">
        <ele>576.20001220703</ele>
        <time>2016-05-07T13:51:15Z</time>
      </trkpt>
      <trkpt lat="44.28754" lon="5.2891">
        <ele>576.59997558594</ele>
        <time>2016-05-07T13:51:16Z</time>
      </trkpt>
      <trkpt lat="44.28755" lon="5.28909">
        <ele>576.59997558594</ele>
        <time>2016-05-07T13:51:17Z</time>
      </trkpt>
      <trkpt lat="44.2876" lon="5.28892">
        <ele>576.59997558594</ele>
        <time>2016-05-07T13:51:24Z</time>
      </trkpt>
      <trkpt lat="44.28769" lon="5.28875">
        <ele>576.59997558594</ele>
        <time>2016-05-07T13:51:29Z</time>
      </trkpt>
      <trkpt lat="44.28773" lon="5.28863">
        <ele>576.59997558594</ele>
        <time>2016-05-07T13:51:31Z</time>
      </trkpt>
      <trkpt lat="44.28775" lon="5.28857">
        <ele>576.20001220703</ele>
        <time>2016-05-07T13:51:32Z</time>
      </trkpt>
      <trkpt lat="44.28777" lon="5.28851">
        <ele>575.59997558594</ele>
        <time>2016-05-07T13:51:33Z</time>
      </trkpt>
      <trkpt lat="44.28778" lon="5.28844">
        <ele>574.40002441406</ele>
        <time>2016-05-07T13:51:34Z</time>
      </trkpt>
      <trkpt lat="44.2878" lon="5.28829">
        <ele>573.79998779297</ele>
        <time>2016-05-07T13:51:36Z</time>
      </trkpt>
      <trkpt lat="44.28779" lon="5.2882">
        <ele>573</ele>
        <time>2016-05-07T13:51:37Z</time>
      </trkpt>
      <trkpt lat="44.28777" lon="5.2881">
        <ele>573</ele>
        <time>2016-05-07T13:51:38Z</time>
      </trkpt>
      <trkpt lat="44.28774" lon="5.28799">
        <ele>571</ele>
        <time>2016-05-07T13:51:39Z</time>
      </trkpt>
      <trkpt lat="44.28766" lon="5.28785">
        <ele>569.59997558594</ele>
        <time>2016-05-07T13:51:41Z</time>
      </trkpt>
      <trkpt lat="44.28762" lon="5.28781">
        <ele>568.40002441406</ele>
        <time>2016-05-07T13:51:42Z</time>
      </trkpt>
      <trkpt lat="44.28757" lon="5.28779">
        <ele>567</ele>
        <time>2016-05-07T13:51:43Z</time>
      </trkpt>
      <trkpt lat="44.28752" lon="5.28779">
        <ele>565</ele>
        <time>2016-05-07T13:51:44Z</time>
      </trkpt>
      <trkpt lat="44.28738" lon="5.28778">
        <ele>563</ele>
        <time>2016-05-07T13:51:46Z</time>
      </trkpt>
      <trkpt lat="44.28732" lon="5.28773">
        <ele>563</ele>
        <time>2016-05-07T13:51:47Z</time>
      </trkpt>
      <trkpt lat="44.28727" lon="5.28765">
        <ele>562</ele>
        <time>2016-05-07T13:51:48Z</time>
      </trkpt>
      <trkpt lat="44.28722" lon="5.28757">
        <ele>560.79998779297</ele>
        <time>2016-05-07T13:51:49Z</time>
      </trkpt>
      <trkpt lat="44.28719" lon="5.28749">
        <ele>558.59997558594</ele>
        <time>2016-05-07T13:51:50Z</time>
      </trkpt>
      <trkpt lat="44.28714" lon="5.28743">
        <ele>558.59997558594</ele>
        <time>2016-05-07T13:51:51Z</time>
      </trkpt>
      <trkpt lat="44.28709" lon="5.28743">
        <ele>557.20001220703</ele>
        <time>2016-05-07T13:51:52Z</time>
      </trkpt>
      <trkpt lat="44.28704" lon="5.28744">
        <ele>556</ele>
        <time>2016-05-07T13:51:53Z</time>
      </trkpt>
      <trkpt lat="44.28698" lon="5.28744">
        <ele>555.20001220703</ele>
        <time>2016-05-07T13:51:54Z</time>
      </trkpt>
      <trkpt lat="44.28691" lon="5.28741">
        <ele>553.20001220703</ele>
        <time>2016-05-07T13:51:55Z</time>
      </trkpt>
      <trkpt lat="44.28685" lon="5.28736">
        <ele>553.20001220703</ele>
        <time>2016-05-07T13:51:56Z</time>
      </trkpt>
      <trkpt lat="44.28678" lon="5.28729">
        <ele>552.40002441406</ele>
        <time>2016-05-07T13:51:57Z</time>
      </trkpt>
      <trkpt lat="44.28671" lon="5.28722">
        <ele>551.40002441406</ele>
        <time>2016-05-07T13:51:58Z</time>
      </trkpt>
      <trkpt lat="44.28664" lon="5.28716">
        <ele>550.20001220703</ele>
        <time>2016-05-07T13:51:59Z</time>
      </trkpt>
      <trkpt lat="44.28658" lon="5.28711">
        <ele>547.79998779297</ele>
        <time>2016-05-07T13:52:00Z</time>
      </trkpt>
      <trkpt lat="44.28651" lon="5.28706">
        <ele>547.79998779297</ele>
        <time>2016-05-07T13:52:01Z</time>
      </trkpt>
      <trkpt lat="44.28644" lon="5.28699">
        <ele>545</ele>
        <time>2016-05-07T13:52:02Z</time>
      </trkpt>
      <trkpt lat="44.28632" lon="5.28686">
        <ele>543.59997558594</ele>
        <time>2016-05-07T13:52:04Z</time>
      </trkpt>
      <trkpt lat="44.28626" lon="5.28679">
        <ele>542.20001220703</ele>
        <time>2016-05-07T13:52:05Z</time>
      </trkpt>
      <trkpt lat="44.2862" lon="5.28674">
        <ele>542.20001220703</ele>
        <time>2016-05-07T13:52:06Z</time>
      </trkpt>
      <trkpt lat="44.28607" lon="5.28664">
        <ele>540.59997558594</ele>
        <time>2016-05-07T13:52:08Z</time>
      </trkpt>
      <trkpt lat="44.286" lon="5.28661">
        <ele>538.79998779297</ele>
        <time>2016-05-07T13:52:09Z</time>
      </trkpt>
      <trkpt lat="44.28592" lon="5.28659">
        <ele>534.79998779297</ele>
        <time>2016-05-07T13:52:10Z</time>
      </trkpt>
      <trkpt lat="44.28576" lon="5.28656">
        <ele>533</ele>
        <time>2016-05-07T13:52:12Z</time>
      </trkpt>
      <trkpt lat="44.28569" lon="5.28656">
        <ele>529.40002441406</ele>
        <time>2016-05-07T13:52:13Z</time>
      </trkpt>
      <trkpt lat="44.28555" lon="5.2866">
        <ele>528.20001220703</ele>
        <time>2016-05-07T13:52:15Z</time>
      </trkpt>
      <trkpt lat="44.28549" lon="5.28663">
        <ele>527</ele>
        <time>2016-05-07T13:52:16Z</time>
      </trkpt>
      <trkpt lat="44.2854" lon="5.28666">
        <ele>525.59997558594</ele>
        <time>2016-05-07T13:52:18Z</time>
      </trkpt>
      <trkpt lat="44.28538" lon="5.28665">
        <ele>524.20001220703</ele>
        <time>2016-05-07T13:52:19Z</time>
      </trkpt>
      <trkpt lat="44.2854" lon="5.2866">
        <ele>521.59997558594</ele>
        <time>2016-05-07T13:52:20Z</time>
      </trkpt>
      <trkpt lat="44.28542" lon="5.28655">
        <ele>521.59997558594</ele>
        <time>2016-05-07T13:52:21Z</time>
      </trkpt>
      <trkpt lat="44.28544" lon="5.28651">
        <ele>520.20001220703</ele>
        <time>2016-05-07T13:52:22Z</time>
      </trkpt>
      <trkpt lat="44.28547" lon="5.28646">
        <ele>518.79998779297</ele>
        <time>2016-05-07T13:52:23Z</time>
      </trkpt>
      <trkpt lat="44.28551" lon="5.28641">
        <ele>516.79998779297</ele>
        <time>2016-05-07T13:52:24Z</time>
      </trkpt>
      <trkpt lat="44.28558" lon="5.28625">
        <ele>516.20001220703</ele>
        <time>2016-05-07T13:52:26Z</time>
      </trkpt>
      <trkpt lat="44.28572" lon="5.28603">
        <ele>515.20001220703</ele>
        <time>2016-05-07T13:52:29Z</time>
      </trkpt>
      <trkpt lat="44.28577" lon="5.28597">
        <ele>514</ele>
        <time>2016-05-07T13:52:30Z</time>
      </trkpt>
      <trkpt lat="44.28584" lon="5.28594">
        <ele>514</ele>
        <time>2016-05-07T13:52:31Z</time>
      </trkpt>
      <trkpt lat="44.2859" lon="5.28593">
        <ele>512.79998779297</ele>
        <time>2016-05-07T13:52:32Z</time>
      </trkpt>
      <trkpt lat="44.28596" lon="5.28592">
        <ele>511.60000610352</ele>
        <time>2016-05-07T13:52:33Z</time>
      </trkpt>
      <trkpt lat="44.28598" lon="5.28589">
        <ele>510.20001220703</ele>
        <time>2016-05-07T13:52:34Z</time>
      </trkpt>
      <trkpt lat="44.28596" lon="5.28585">
        <ele>510.20001220703</ele>
        <time>2016-05-07T13:52:35Z</time>
      </trkpt>
      <trkpt lat="44.28591" lon="5.28582">
        <ele>507.60000610352</ele>
        <time>2016-05-07T13:52:36Z</time>
      </trkpt>
      <trkpt lat="44.28581" lon="5.28584">
        <ele>506.79998779297</ele>
        <time>2016-05-07T13:52:38Z</time>
      </trkpt>
      <trkpt lat="44.28576" lon="5.28586">
        <ele>506</ele>
        <time>2016-05-07T13:52:39Z</time>
      </trkpt>
      <trkpt lat="44.28571" lon="5.28586">
        <ele>504.39999389648</ele>
        <time>2016-05-07T13:52:40Z</time>
      </trkpt>
      <trkpt lat="44.28559" lon="5.28588">
        <ele>503.60000610352</ele>
        <time>2016-05-07T13:52:42Z</time>
      </trkpt>
      <trkpt lat="44.28553" lon="5.28587">
        <ele>501.39999389648</ele>
        <time>2016-05-07T13:52:43Z</time>
      </trkpt>
      <trkpt lat="44.28546" lon="5.28584">
        <ele>501.39999389648</ele>
        <time>2016-05-07T13:52:44Z</time>
      </trkpt>
      <trkpt lat="44.28539" lon="5.28582">
        <ele>500.20001220703</ele>
        <time>2016-05-07T13:52:45Z</time>
      </trkpt>
      <trkpt lat="44.28518" lon="5.28585">
        <ele>498.79998779297</ele>
        <time>2016-05-07T13:52:48Z</time>
      </trkpt>
      <trkpt lat="44.28511" lon="5.2859">
        <ele>497.20001220703</ele>
        <time>2016-05-07T13:52:49Z</time>
      </trkpt>
      <trkpt lat="44.28505" lon="5.28596">
        <ele>495.60000610352</ele>
        <time>2016-05-07T13:52:50Z</time>
      </trkpt>
      <trkpt lat="44.28498" lon="5.28602">
        <ele>493.79998779297</ele>
        <time>2016-05-07T13:52:51Z</time>
      </trkpt>
      <trkpt lat="44.2849" lon="5.28606">
        <ele>493.79998779297</ele>
        <time>2016-05-07T13:52:52Z</time>
      </trkpt>
      <trkpt lat="44.28483" lon="5.28605">
        <ele>492.20001220703</ele>
        <time>2016-05-07T13:52:53Z</time>
      </trkpt>
      <trkpt lat="44.28476" lon="5.28599">
        <ele>490.60000610352</ele>
        <time>2016-05-07T13:52:54Z</time>
      </trkpt>
      <trkpt lat="44.28471" lon="5.28591">
        <ele>489.20001220703</ele>
        <time>2016-05-07T13:52:55Z</time>
      </trkpt>
      <trkpt lat="44.28466" lon="5.28585">
        <ele>487.79998779297</ele>
        <time>2016-05-07T13:52:56Z</time>
      </trkpt>
      <trkpt lat="44.28463" lon="5.28581">
        <ele>487.79998779297</ele>
        <time>2016-05-07T13:52:57Z</time>
      </trkpt>
      <trkpt lat="44.2846" lon="5.28578">
        <ele>486.39999389648</ele>
        <time>2016-05-07T13:52:58Z</time>
      </trkpt>
      <trkpt lat="44.28457" lon="5.28574">
        <ele>485</ele>
        <time>2016-05-07T13:52:59Z</time>
      </trkpt>
      <trkpt lat="44.28455" lon="5.28571">
        <ele>483.60000610352</ele>
        <time>2016-05-07T13:53:00Z</time>
      </trkpt>
      <trkpt lat="44.28453" lon="5.28568">
        <ele>483.60000610352</ele>
        <time>2016-05-07T13:53:01Z</time>
      </trkpt>
      <trkpt lat="44.28441" lon="5.28549">
        <ele>484</ele>
        <time>2016-05-07T13:53:06Z</time>
      </trkpt>
      <trkpt lat="44.28439" lon="5.28545">
        <ele>484</ele>
        <time>2016-05-07T13:53:07Z</time>
      </trkpt>
      <trkpt lat="44.28433" lon="5.28539">
        <ele>484.39999389648</ele>
        <time>2016-05-07T13:53:09Z</time>
      </trkpt>
      <trkpt lat="44.28431" lon="5.28536">
        <ele>485</ele>
        <time>2016-05-07T13:53:10Z</time>
      </trkpt>
      <trkpt lat="44.28428" lon="5.28533">
        <ele>485.39999389648</ele>
        <time>2016-05-07T13:53:11Z</time>
      </trkpt>
      <trkpt lat="44.28421" lon="5.28528">
        <ele>485.79998779297</ele>
        <time>2016-05-07T13:53:13Z</time>
      </trkpt>
      <trkpt lat="44.28398" lon="5.28516">
        <ele>485.79998779297</ele>
        <time>2016-05-07T13:53:19Z</time>
      </trkpt>
      <trkpt lat="44.28387" lon="5.28509">
        <ele>486.20001220703</ele>
        <time>2016-05-07T13:53:22Z</time>
      </trkpt>
      <trkpt lat="44.28384" lon="5.28507">
        <ele>486.60000610352</ele>
        <time>2016-05-07T13:53:23Z</time>
      </trkpt>
      <trkpt lat="44.28381" lon="5.28505">
        <ele>487</ele>
        <time>2016-05-07T13:53:24Z</time>
      </trkpt>
      <trkpt lat="44.28374" lon="5.28502">
        <ele>487.39999389648</ele>
        <time>2016-05-07T13:53:26Z</time>
      </trkpt>
      <trkpt lat="44.28367" lon="5.28498">
        <ele>488</ele>
        <time>2016-05-07T13:53:28Z</time>
      </trkpt>
      <trkpt lat="44.28345" lon="5.28488">
        <ele>488</ele>
        <time>2016-05-07T13:53:34Z</time>
      </trkpt>
      <trkpt lat="44.28313" lon="5.28476">
        <ele>488</ele>
        <time>2016-05-07T13:53:42Z</time>
      </trkpt>
      <trkpt lat="44.28277" lon="5.28461">
        <ele>488</ele>
        <time>2016-05-07T13:53:50Z</time>
      </trkpt>
      <trkpt lat="44.28261" lon="5.28448">
        <ele>488.39999389648</ele>
        <time>2016-05-07T13:53:55Z</time>
      </trkpt>
      <trkpt lat="44.28258" lon="5.28446">
        <ele>488.79998779297</ele>
        <time>2016-05-07T13:53:56Z</time>
      </trkpt>
      <trkpt lat="44.28256" lon="5.28443">
        <ele>489.20001220703</ele>
        <time>2016-05-07T13:53:57Z</time>
      </trkpt>
      <trkpt lat="44.28253" lon="5.2844">
        <ele>489.60000610352</ele>
        <time>2016-05-07T13:53:58Z</time>
      </trkpt>
      <trkpt lat="44.28251" lon="5.28438">
        <ele>490</ele>
        <time>2016-05-07T13:53:59Z</time>
      </trkpt>
      <trkpt lat="44.28238" lon="5.28432">
        <ele>490</ele>
        <time>2016-05-07T13:54:03Z</time>
      </trkpt>
      <trkpt lat="44.28231" lon="5.28431">
        <ele>490</ele>
        <time>2016-05-07T13:54:05Z</time>
      </trkpt>
      <trkpt lat="44.28216" lon="5.28432">
        <ele>490.39999389648</ele>
        <time>2016-05-07T13:54:09Z</time>
      </trkpt>
      <trkpt lat="44.28212" lon="5.28434">
        <ele>490.79998779297</ele>
        <time>2016-05-07T13:54:10Z</time>
      </trkpt>
      <trkpt lat="44.28207" lon="5.28436">
        <ele>491.39999389648</ele>
        <time>2016-05-07T13:54:11Z</time>
      </trkpt>
      <trkpt lat="44.28203" lon="5.28437">
        <ele>491.79998779297</ele>
        <time>2016-05-07T13:54:12Z</time>
      </trkpt>
      <trkpt lat="44.28195" lon="5.28442">
        <ele>492.20001220703</ele>
        <time>2016-05-07T13:54:14Z</time>
      </trkpt>
      <trkpt lat="44.28192" lon="5.28445">
        <ele>492.20001220703</ele>
        <time>2016-05-07T13:54:15Z</time>
      </trkpt>
      <trkpt lat="44.28186" lon="5.28453">
        <ele>492.20001220703</ele>
        <time>2016-05-07T13:54:17Z</time>
      </trkpt>
      <trkpt lat="44.28178" lon="5.28474">
        <ele>492.20001220703</ele>
        <time>2016-05-07T13:54:20Z</time>
      </trkpt>
      <trkpt lat="44.28174" lon="5.28481">
        <ele>492.20001220703</ele>
        <time>2016-05-07T13:54:21Z</time>
      </trkpt>
      <trkpt lat="44.2817" lon="5.28488">
        <ele>491.79998779297</ele>
        <time>2016-05-07T13:54:22Z</time>
      </trkpt>
      <trkpt lat="44.28165" lon="5.28494">
        <ele>491.39999389648</ele>
        <time>2016-05-07T13:54:23Z</time>
      </trkpt>
      <trkpt lat="44.2816" lon="5.28498">
        <ele>490.79998779297</ele>
        <time>2016-05-07T13:54:24Z</time>
      </trkpt>
      <trkpt lat="44.28154" lon="5.285">
        <ele>490.20001220703</ele>
        <time>2016-05-07T13:54:25Z</time>
      </trkpt>
      <trkpt lat="44.28141" lon="5.28497">
        <ele>490.20001220703</ele>
        <time>2016-05-07T13:54:27Z</time>
      </trkpt>
      <trkpt lat="44.28136" lon="5.28495">
        <ele>489.60000610352</ele>
        <time>2016-05-07T13:54:28Z</time>
      </trkpt>
      <trkpt lat="44.2813" lon="5.28492">
        <ele>488.79998779297</ele>
        <time>2016-05-07T13:54:29Z</time>
      </trkpt>
      <trkpt lat="44.28124" lon="5.28489">
        <ele>488</ele>
        <time>2016-05-07T13:54:30Z</time>
      </trkpt>
      <trkpt lat="44.28112" lon="5.28484">
        <ele>487.20001220703</ele>
        <time>2016-05-07T13:54:32Z</time>
      </trkpt>
      <trkpt lat="44.28106" lon="5.28484">
        <ele>486.39999389648</ele>
        <time>2016-05-07T13:54:33Z</time>
      </trkpt>
      <trkpt lat="44.281" lon="5.28487">
        <ele>485.60000610352</ele>
        <time>2016-05-07T13:54:34Z</time>
      </trkpt>
      <trkpt lat="44.28094" lon="5.28491">
        <ele>485.20001220703</ele>
        <time>2016-05-07T13:54:35Z</time>
      </trkpt>
      <trkpt lat="44.2809" lon="5.28498">
        <ele>484.79998779297</ele>
        <time>2016-05-07T13:54:36Z</time>
      </trkpt>
      <trkpt lat="44.28085" lon="5.28513">
        <ele>484</ele>
        <time>2016-05-07T13:54:38Z</time>
      </trkpt>
      <trkpt lat="44.28084" lon="5.28521">
        <ele>483.39999389648</ele>
        <time>2016-05-07T13:54:39Z</time>
      </trkpt>
      <trkpt lat="44.28089" lon="5.28541">
        <ele>483.39999389648</ele>
        <time>2016-05-07T13:54:42Z</time>
      </trkpt>
      <trkpt lat="44.28091" lon="5.28547">
        <ele>483.39999389648</ele>
        <time>2016-05-07T13:54:43Z</time>
      </trkpt>
      <trkpt lat="44.28094" lon="5.28553">
        <ele>483</ele>
        <time>2016-05-07T13:54:44Z</time>
      </trkpt>
      <trkpt lat="44.28095" lon="5.28559">
        <ele>482.60000610352</ele>
        <time>2016-05-07T13:54:45Z</time>
      </trkpt>
      <trkpt lat="44.28095" lon="5.28565">
        <ele>482.20001220703</ele>
        <time>2016-05-07T13:54:46Z</time>
      </trkpt>
      <trkpt lat="44.28092" lon="5.28571">
        <ele>481.39999389648</ele>
        <time>2016-05-07T13:54:48Z</time>
      </trkpt>
      <trkpt lat="44.28091" lon="5.28572">
        <ele>481.39999389648</ele>
        <time>2016-05-07T13:54:52Z</time>
      </trkpt>
      <trkpt lat="44.28087" lon="5.28576">
        <ele>481.39999389648</ele>
        <time>2016-05-07T13:54:55Z</time>
      </trkpt>
      <trkpt lat="44.28083" lon="5.2858">
        <ele>481.39999389648</ele>
        <time>2016-05-07T13:54:57Z</time>
      </trkpt>
      <trkpt lat="44.28077" lon="5.28585">
        <ele>481.39999389648</ele>
        <time>2016-05-07T13:54:59Z</time>
      </trkpt>
      <trkpt lat="44.2807" lon="5.28591">
        <ele>481.39999389648</ele>
        <time>2016-05-07T13:55:01Z</time>
      </trkpt>
      <trkpt lat="44.28045" lon="5.28617">
        <ele>481.39999389648</ele>
        <time>2016-05-07T13:55:08Z</time>
      </trkpt>
      <trkpt lat="44.28017" lon="5.28653">
        <ele>481.39999389648</ele>
        <time>2016-05-07T13:55:15Z</time>
      </trkpt>
      <trkpt lat="44.27978" lon="5.28694">
        <ele>481.39999389648</ele>
        <time>2016-05-07T13:55:22Z</time>
      </trkpt>
      <trkpt lat="44.27948" lon="5.28706">
        <ele>481.39999389648</ele>
        <time>2016-05-07T13:55:27Z</time>
      </trkpt>
      <trkpt lat="44.27942" lon="5.28709">
        <ele>481</ele>
        <time>2016-05-07T13:55:28Z</time>
      </trkpt>
      <trkpt lat="44.27929" lon="5.28714">
        <ele>480.39999389648</ele>
        <time>2016-05-07T13:55:30Z</time>
      </trkpt>
      <trkpt lat="44.27923" lon="5.28718">
        <ele>480</ele>
        <time>2016-05-07T13:55:31Z</time>
      </trkpt>
      <trkpt lat="44.27918" lon="5.28722">
        <ele>479.39999389648</ele>
        <time>2016-05-07T13:55:32Z</time>
      </trkpt>
      <trkpt lat="44.27917" lon="5.28731">
        <ele>479</ele>
        <time>2016-05-07T13:55:33Z</time>
      </trkpt>
      <trkpt lat="44.27916" lon="5.28739">
        <ele>479</ele>
        <time>2016-05-07T13:55:34Z</time>
      </trkpt>
      <trkpt lat="44.27907" lon="5.28779">
        <ele>479</ele>
        <time>2016-05-07T13:55:40Z</time>
      </trkpt>
      <trkpt lat="44.27906" lon="5.28785">
        <ele>479</ele>
        <time>2016-05-07T13:55:41Z</time>
      </trkpt>
      <trkpt lat="44.27898" lon="5.28814">
        <ele>479</ele>
        <time>2016-05-07T13:55:46Z</time>
      </trkpt>
      <trkpt lat="44.27887" lon="5.2885">
        <ele>479</ele>
        <time>2016-05-07T13:55:53Z</time>
      </trkpt>
      <trkpt lat="44.27879" lon="5.28863">
        <ele>479</ele>
        <time>2016-05-07T13:55:58Z</time>
      </trkpt>
      <trkpt lat="44.27877" lon="5.28858">
        <ele>479</ele>
        <time>2016-05-07T13:55:59Z</time>
      </trkpt>
      <trkpt lat="44.27875" lon="5.28853">
        <ele>479</ele>
        <time>2016-05-07T13:56:00Z</time>
      </trkpt>
      <trkpt lat="44.27869" lon="5.28829">
        <ele>478.39999389648</ele>
        <time>2016-05-07T13:56:04Z</time>
      </trkpt>
      <trkpt lat="44.27869" lon="5.28822">
        <ele>477.79998779297</ele>
        <time>2016-05-07T13:56:05Z</time>
      </trkpt>
      <trkpt lat="44.27868" lon="5.28805">
        <ele>477</ele>
        <time>2016-05-07T13:56:07Z</time>
      </trkpt>
      <trkpt lat="44.27868" lon="5.28797">
        <ele>476.20001220703</ele>
        <time>2016-05-07T13:56:08Z</time>
      </trkpt>
      <trkpt lat="44.27868" lon="5.28791">
        <ele>475.39999389648</ele>
        <time>2016-05-07T13:56:09Z</time>
      </trkpt>
      <trkpt lat="44.27867" lon="5.28786">
        <ele>474.60000610352</ele>
        <time>2016-05-07T13:56:10Z</time>
      </trkpt>
      <trkpt lat="44.27866" lon="5.2878">
        <ele>473.79998779297</ele>
        <time>2016-05-07T13:56:11Z</time>
      </trkpt>
      <trkpt lat="44.27863" lon="5.28774">
        <ele>473</ele>
        <time>2016-05-07T13:56:12Z</time>
      </trkpt>
      <trkpt lat="44.27859" lon="5.28768">
        <ele>472.20001220703</ele>
        <time>2016-05-07T13:56:13Z</time>
      </trkpt>
      <trkpt lat="44.27853" lon="5.28762">
        <ele>471.60000610352</ele>
        <time>2016-05-07T13:56:14Z</time>
      </trkpt>
      <trkpt lat="44.27847" lon="5.28755">
        <ele>470.79998779297</ele>
        <time>2016-05-07T13:56:15Z</time>
      </trkpt>
      <trkpt lat="44.27841" lon="5.28748">
        <ele>470</ele>
        <time>2016-05-07T13:56:16Z</time>
      </trkpt>
      <trkpt lat="44.27835" lon="5.2874">
        <ele>469.39999389648</ele>
        <time>2016-05-07T13:56:17Z</time>
      </trkpt>
      <trkpt lat="44.27829" lon="5.2873">
        <ele>468.79998779297</ele>
        <time>2016-05-07T13:56:18Z</time>
      </trkpt>
      <trkpt lat="44.27822" lon="5.28719">
        <ele>468.20001220703</ele>
        <time>2016-05-07T13:56:19Z</time>
      </trkpt>
      <trkpt lat="44.27816" lon="5.28709">
        <ele>467.39999389648</ele>
        <time>2016-05-07T13:56:20Z</time>
      </trkpt>
      <trkpt lat="44.27808" lon="5.28686">
        <ele>466.39999389648</ele>
        <time>2016-05-07T13:56:22Z</time>
      </trkpt>
      <trkpt lat="44.27807" lon="5.28675">
        <ele>466.39999389648</ele>
        <time>2016-05-07T13:56:23Z</time>
      </trkpt>
      <trkpt lat="44.27808" lon="5.28662">
        <ele>465.39999389648</ele>
        <time>2016-05-07T13:56:24Z</time>
      </trkpt>
      <trkpt lat="44.2781" lon="5.28651">
        <ele>463.39999389648</ele>
        <time>2016-05-07T13:56:25Z</time>
      </trkpt>
      <trkpt lat="44.27812" lon="5.28639">
        <ele>462.39999389648</ele>
        <time>2016-05-07T13:56:26Z</time>
      </trkpt>
      <trkpt lat="44.27813" lon="5.28627">
        <ele>461.39999389648</ele>
        <time>2016-05-07T13:56:27Z</time>
      </trkpt>
      <trkpt lat="44.27818" lon="5.2859">
        <ele>461.39999389648</ele>
        <time>2016-05-07T13:56:30Z</time>
      </trkpt>
      <trkpt lat="44.27821" lon="5.28578">
        <ele>461.39999389648</ele>
        <time>2016-05-07T13:56:31Z</time>
      </trkpt>
      <trkpt lat="44.27841" lon="5.28519">
        <ele>461.39999389648</ele>
        <time>2016-05-07T13:56:36Z</time>
      </trkpt>
      <trkpt lat="44.27846" lon="5.28508">
        <ele>461</ele>
        <time>2016-05-07T13:56:37Z</time>
      </trkpt>
      <trkpt lat="44.27856" lon="5.28484">
        <ele>460</ele>
        <time>2016-05-07T13:56:39Z</time>
      </trkpt>
      <trkpt lat="44.27861" lon="5.28472">
        <ele>459.60000610352</ele>
        <time>2016-05-07T13:56:40Z</time>
      </trkpt>
      <trkpt lat="44.27866" lon="5.28461">
        <ele>459.20001220703</ele>
        <time>2016-05-07T13:56:41Z</time>
      </trkpt>
      <trkpt lat="44.27871" lon="5.28451">
        <ele>459.20001220703</ele>
        <time>2016-05-07T13:56:42Z</time>
      </trkpt>
      <trkpt lat="44.2789" lon="5.28421">
        <ele>458.79998779297</ele>
        <time>2016-05-07T13:56:45Z</time>
      </trkpt>
      <trkpt lat="44.27897" lon="5.2841">
        <ele>458.39999389648</ele>
        <time>2016-05-07T13:56:46Z</time>
      </trkpt>
      <trkpt lat="44.27904" lon="5.28398">
        <ele>458</ele>
        <time>2016-05-07T13:56:47Z</time>
      </trkpt>
      <trkpt lat="44.27909" lon="5.28386">
        <ele>458</ele>
        <time>2016-05-07T13:56:48Z</time>
      </trkpt>
      <trkpt lat="44.27913" lon="5.28373">
        <ele>457.20001220703</ele>
        <time>2016-05-07T13:56:49Z</time>
      </trkpt>
      <trkpt lat="44.27915" lon="5.2836">
        <ele>456.79998779297</ele>
        <time>2016-05-07T13:56:50Z</time>
      </trkpt>
      <trkpt lat="44.27916" lon="5.28347">
        <ele>456.39999389648</ele>
        <time>2016-05-07T13:56:51Z</time>
      </trkpt>
      <trkpt lat="44.27917" lon="5.28335">
        <ele>456</ele>
        <time>2016-05-07T13:56:52Z</time>
      </trkpt>
      <trkpt lat="44.27915" lon="5.28325">
        <ele>456</ele>
        <time>2016-05-07T13:56:53Z</time>
      </trkpt>
      <trkpt lat="44.27914" lon="5.28315">
        <ele>455.20001220703</ele>
        <time>2016-05-07T13:56:54Z</time>
      </trkpt>
      <trkpt lat="44.27915" lon="5.2829">
        <ele>455.20001220703</ele>
        <time>2016-05-07T13:56:57Z</time>
      </trkpt>
      <trkpt lat="44.27917" lon="5.28243">
        <ele>454.60000610352</ele>
        <time>2016-05-07T13:57:02Z</time>
      </trkpt>
      <trkpt lat="44.27917" lon="5.28233">
        <ele>454</ele>
        <time>2016-05-07T13:57:03Z</time>
      </trkpt>
      <trkpt lat="44.27917" lon="5.28211">
        <ele>453</ele>
        <time>2016-05-07T13:57:05Z</time>
      </trkpt>
      <trkpt lat="44.27917" lon="5.28201">
        <ele>452.39999389648</ele>
        <time>2016-05-07T13:57:06Z</time>
      </trkpt>
      <trkpt lat="44.27916" lon="5.28159">
        <ele>452.39999389648</ele>
        <time>2016-05-07T13:57:10Z</time>
      </trkpt>
      <trkpt lat="44.27916" lon="5.2815">
        <ele>452</ele>
        <time>2016-05-07T13:57:11Z</time>
      </trkpt>
      <trkpt lat="44.27918" lon="5.28142">
        <ele>451.60000610352</ele>
        <time>2016-05-07T13:57:12Z</time>
      </trkpt>
      <trkpt lat="44.2792" lon="5.28137">
        <ele>451.20001220703</ele>
        <time>2016-05-07T13:57:13Z</time>
      </trkpt>
      <trkpt lat="44.27924" lon="5.28135">
        <ele>451.20001220703</ele>
        <time>2016-05-07T13:57:14Z</time>
      </trkpt>
      <trkpt lat="44.27928" lon="5.28136">
        <ele>450.60000610352</ele>
        <time>2016-05-07T13:57:15Z</time>
      </trkpt>
      <trkpt lat="44.27932" lon="5.28138">
        <ele>450.20001220703</ele>
        <time>2016-05-07T13:57:16Z</time>
      </trkpt>
      <trkpt lat="44.27936" lon="5.2814">
        <ele>450.20001220703</ele>
        <time>2016-05-07T13:57:17Z</time>
      </trkpt>
      <trkpt lat="44.27966" lon="5.28155">
        <ele>450.20001220703</ele>
        <time>2016-05-07T13:57:23Z</time>
      </trkpt>
      <trkpt lat="44.28004" lon="5.28173">
        <ele>450.20001220703</ele>
        <time>2016-05-07T13:57:30Z</time>
      </trkpt>
      <trkpt lat="44.28052" lon="5.28192">
        <ele>450.20001220703</ele>
        <time>2016-05-07T13:57:39Z</time>
      </trkpt>
      <trkpt lat="44.2807" lon="5.28197">
        <ele>450.20001220703</ele>
        <time>2016-05-07T13:57:44Z</time>
      </trkpt>
      <trkpt lat="44.28073" lon="5.28196">
        <ele>450.20001220703</ele>
        <time>2016-05-07T13:57:45Z</time>
      </trkpt>
      <trkpt lat="44.28081" lon="5.28189">
        <ele>450.20001220703</ele>
        <time>2016-05-07T13:57:48Z</time>
      </trkpt>
      <trkpt lat="44.28083" lon="5.28184">
        <ele>450.20001220703</ele>
        <time>2016-05-07T13:57:49Z</time>
      </trkpt>
      <trkpt lat="44.28081" lon="5.28156">
        <ele>450.20001220703</ele>
        <time>2016-05-07T13:57:53Z</time>
      </trkpt>
      <trkpt lat="44.28072" lon="5.28127">
        <ele>450.20001220703</ele>
        <time>2016-05-07T13:57:57Z</time>
      </trkpt>
      <trkpt lat="44.28061" lon="5.28092">
        <ele>450.20001220703</ele>
        <time>2016-05-07T13:58:02Z</time>
      </trkpt>
      <trkpt lat="44.28059" lon="5.28085">
        <ele>450.20001220703</ele>
        <time>2016-05-07T13:58:03Z</time>
      </trkpt>
      <trkpt lat="44.28047" lon="5.28047">
        <ele>450.20001220703</ele>
        <time>2016-05-07T13:58:08Z</time>
      </trkpt>
      <trkpt lat="44.28036" lon="5.28018">
        <ele>450.20001220703</ele>
        <time>2016-05-07T13:58:12Z</time>
      </trkpt>
      <trkpt lat="44.2803" lon="5.28004">
        <ele>450.20001220703</ele>
        <time>2016-05-07T13:58:14Z</time>
      </trkpt>
      <trkpt lat="44.28004" lon="5.27955">
        <ele>450.20001220703</ele>
        <time>2016-05-07T13:58:22Z</time>
      </trkpt>
      <trkpt lat="44.27986" lon="5.27924">
        <ele>450.20001220703</ele>
        <time>2016-05-07T13:58:27Z</time>
      </trkpt>
      <trkpt lat="44.27977" lon="5.27915">
        <ele>450.20001220703</ele>
        <time>2016-05-07T13:58:29Z</time>
      </trkpt>
      <trkpt lat="44.27959" lon="5.27906">
        <ele>450.20001220703</ele>
        <time>2016-05-07T13:58:32Z</time>
      </trkpt>
      <trkpt lat="44.27946" lon="5.27902">
        <ele>450.20001220703</ele>
        <time>2016-05-07T13:58:34Z</time>
      </trkpt>
      <trkpt lat="44.27933" lon="5.27895">
        <ele>449.79998779297</ele>
        <time>2016-05-07T13:58:36Z</time>
      </trkpt>
      <trkpt lat="44.27927" lon="5.27891">
        <ele>449.39999389648</ele>
        <time>2016-05-07T13:58:37Z</time>
      </trkpt>
      <trkpt lat="44.27921" lon="5.27887">
        <ele>448.60000610352</ele>
        <time>2016-05-07T13:58:38Z</time>
      </trkpt>
      <trkpt lat="44.27915" lon="5.27882">
        <ele>448.20001220703</ele>
        <time>2016-05-07T13:58:39Z</time>
      </trkpt>
      <trkpt lat="44.2787" lon="5.27839">
        <ele>448.20001220703</ele>
        <time>2016-05-07T13:58:47Z</time>
      </trkpt>
      <trkpt lat="44.27864" lon="5.27833">
        <ele>448.20001220703</ele>
        <time>2016-05-07T13:58:48Z</time>
      </trkpt>
      <trkpt lat="44.27825" lon="5.27796">
        <ele>448.20001220703</ele>
        <time>2016-05-07T13:58:55Z</time>
      </trkpt>
      <trkpt lat="44.27816" lon="5.27786">
        <ele>447.79998779297</ele>
        <time>2016-05-07T13:58:57Z</time>
      </trkpt>
      <trkpt lat="44.27811" lon="5.27781">
        <ele>447.39999389648</ele>
        <time>2016-05-07T13:58:58Z</time>
      </trkpt>
      <trkpt lat="44.27806" lon="5.27776">
        <ele>447</ele>
        <time>2016-05-07T13:58:59Z</time>
      </trkpt>
      <trkpt lat="44.278" lon="5.27771">
        <ele>446.60000610352</ele>
        <time>2016-05-07T13:59:00Z</time>
      </trkpt>
      <trkpt lat="44.27795" lon="5.27766">
        <ele>446.60000610352</ele>
        <time>2016-05-07T13:59:01Z</time>
      </trkpt>
      <trkpt lat="44.2779" lon="5.27761">
        <ele>446.20001220703</ele>
        <time>2016-05-07T13:59:02Z</time>
      </trkpt>
      <trkpt lat="44.27785" lon="5.27756">
        <ele>445.79998779297</ele>
        <time>2016-05-07T13:59:03Z</time>
      </trkpt>
      <trkpt lat="44.27781" lon="5.27751">
        <ele>445.39999389648</ele>
        <time>2016-05-07T13:59:04Z</time>
      </trkpt>
      <trkpt lat="44.27772" lon="5.27741">
        <ele>444.79998779297</ele>
        <time>2016-05-07T13:59:06Z</time>
      </trkpt>
      <trkpt lat="44.27767" lon="5.27737">
        <ele>444.39999389648</ele>
        <time>2016-05-07T13:59:07Z</time>
      </trkpt>
      <trkpt lat="44.27763" lon="5.27732">
        <ele>444</ele>
        <time>2016-05-07T13:59:08Z</time>
      </trkpt>
      <trkpt lat="44.27758" lon="5.27728">
        <ele>444</ele>
        <time>2016-05-07T13:59:09Z</time>
      </trkpt>
      <trkpt lat="44.27749" lon="5.27721">
        <ele>444</ele>
        <time>2016-05-07T13:59:11Z</time>
      </trkpt>
      <trkpt lat="44.27739" lon="5.2772">
        <ele>444</ele>
        <time>2016-05-07T13:59:13Z</time>
      </trkpt>
      <trkpt lat="44.2773" lon="5.27722">
        <ele>444</ele>
        <time>2016-05-07T13:59:15Z</time>
      </trkpt>
      <trkpt lat="44.27712" lon="5.27712">
        <ele>444</ele>
        <time>2016-05-07T13:59:19Z</time>
      </trkpt>
      <trkpt lat="44.27696" lon="5.27697">
        <ele>444</ele>
        <time>2016-05-07T13:59:24Z</time>
      </trkpt>
      <trkpt lat="44.27684" lon="5.27689">
        <ele>444</ele>
        <time>2016-05-07T13:59:29Z</time>
      </trkpt>
      <trkpt lat="44.27681" lon="5.27688">
        <ele>443.60000610352</ele>
        <time>2016-05-07T13:59:30Z</time>
      </trkpt>
      <trkpt lat="44.27679" lon="5.27686">
        <ele>443.20001220703</ele>
        <time>2016-05-07T13:59:31Z</time>
      </trkpt>
      <trkpt lat="44.27674" lon="5.27681">
        <ele>442.60000610352</ele>
        <time>2016-05-07T13:59:33Z</time>
      </trkpt>
      <trkpt lat="44.27671" lon="5.27678">
        <ele>442.20001220703</ele>
        <time>2016-05-07T13:59:34Z</time>
      </trkpt>
      <trkpt lat="44.27668" lon="5.27674">
        <ele>441.79998779297</ele>
        <time>2016-05-07T13:59:35Z</time>
      </trkpt>
      <trkpt lat="44.27656" lon="5.27662">
        <ele>441.79998779297</ele>
        <time>2016-05-07T13:59:41Z</time>
      </trkpt>
      <trkpt lat="44.27658" lon="5.27665">
        <ele>441.79998779297</ele>
        <time>2016-05-07T13:59:46Z</time>
      </trkpt>
      <trkpt lat="44.27659" lon="5.27666">
        <ele>441.79998779297</ele>
        <time>2016-05-07T14:01:15Z</time>
      </trkpt>
      <trkpt lat="44.27658" lon="5.27667">
        <ele>441.79998779297</ele>
        <time>2016-05-07T14:01:53Z</time>
      </trkpt>
      <trkpt lat="44.27659" lon="5.27669">
        <ele>441.79998779297</ele>
        <time>2016-05-07T14:02:07Z</time>
      </trkpt>
      <trkpt lat="44.27659" lon="5.27669">
        <ele>441.79998779297</ele>
        <time>2016-05-07T14:03:08Z</time>
      </trkpt>
      <trkpt lat="44.27659" lon="5.27669">
        <ele>442.20001220703</ele>
        <time>2016-05-07T14:03:34Z</time>
      </trkpt>
      <trkpt lat="44.27659" lon="5.27669">
        <ele>442.60000610352</ele>
        <time>2016-05-07T14:03:35Z</time>
      </trkpt>
      <trkpt lat="44.27659" lon="5.27669">
        <ele>443</ele>
        <time>2016-05-07T14:03:36Z</time>
      </trkpt>
      <trkpt lat="44.27659" lon="5.27669">
        <ele>444</ele>
        <time>2016-05-07T14:03:38Z</time>
      </trkpt>
      <trkpt lat="44.27659" lon="5.27669">
        <ele>444</ele>
        <time>2016-05-07T14:04:00Z</time>
      </trkpt>
      <trkpt lat="44.27659" lon="5.27669">
        <ele>444</ele>
        <time>2016-05-07T14:04:08Z</time>
      </trkpt>
    </trkseg>
  </trk>
</gpx>